<?xml version="1.0" encoding="UTF-8" standalone="no" ?>
<gpx xmlns="http://www.topografix.com/GPX/1/1" xmlns:xsi="http://www.w3.org/2001/XMLSchema-instance" xsi:schemaLocation="http://www.topografix.com/GPX/1/1 http://www.topografix.com/GPX/1/1/gpx.xsd" version="1.1" creator="VisuGPX - https://www.visugpx.com">
  <metadata>
    <name>160127ROBBenjamins</name>
    <desc><![CDATA[excellente sortie]]></desc>
  </metadata>
  <trk>
    <name><![CDATA[160127ROBBenjamins]]></name>
    <trkseg>
      <trkpt lat="43.41578" lon="6.07036">
        <ele>198.80000305176</ele>
        <time>2016-01-27T12:59:30Z</time>
      </trkpt>
      <trkpt lat="43.41578" lon="6.07036">
        <ele>199.19999694824</ele>
        <time>2016-01-27T12:59:32Z</time>
      </trkpt>
      <trkpt lat="43.41578" lon="6.07036">
        <ele>199</ele>
        <time>2016-01-27T12:59:33Z</time>
      </trkpt>
      <trkpt lat="43.41578" lon="6.07036">
        <ele>198.80000305176</ele>
        <time>2016-01-27T12:59:34Z</time>
      </trkpt>
      <trkpt lat="43.41578" lon="6.07036">
        <ele>199</ele>
        <time>2016-01-27T12:59:36Z</time>
      </trkpt>
      <trkpt lat="43.41578" lon="6.07036">
        <ele>199</ele>
        <time>2016-01-27T12:59:38Z</time>
      </trkpt>
      <trkpt lat="43.41578" lon="6.07036">
        <ele>199.19999694824</ele>
        <time>2016-01-27T12:59:40Z</time>
      </trkpt>
      <trkpt lat="43.41578" lon="6.07036">
        <ele>199</ele>
        <time>2016-01-27T12:59:42Z</time>
      </trkpt>
      <trkpt lat="43.41578" lon="6.07036">
        <ele>199</ele>
        <time>2016-01-27T12:59:44Z</time>
      </trkpt>
      <trkpt lat="43.41578" lon="6.07036">
        <ele>199</ele>
        <time>2016-01-27T12:59:46Z</time>
      </trkpt>
      <trkpt lat="43.41578" lon="6.07036">
        <ele>199</ele>
        <time>2016-01-27T12:59:48Z</time>
      </trkpt>
      <trkpt lat="43.41578" lon="6.07036">
        <ele>198.80000305176</ele>
        <time>2016-01-27T12:59:50Z</time>
      </trkpt>
      <trkpt lat="43.41578" lon="6.07036">
        <ele>199</ele>
        <time>2016-01-27T12:59:52Z</time>
      </trkpt>
      <trkpt lat="43.41578" lon="6.07036">
        <ele>198.80000305176</ele>
        <time>2016-01-27T12:59:54Z</time>
      </trkpt>
      <trkpt lat="43.41578" lon="6.07036">
        <ele>198.80000305176</ele>
        <time>2016-01-27T12:59:56Z</time>
      </trkpt>
      <trkpt lat="43.41578" lon="6.07036">
        <ele>198.80000305176</ele>
        <time>2016-01-27T12:59:58Z</time>
      </trkpt>
      <trkpt lat="43.41578" lon="6.07036">
        <ele>199</ele>
        <time>2016-01-27T13:00:00Z</time>
      </trkpt>
      <trkpt lat="43.41578" lon="6.07036">
        <ele>199</ele>
        <time>2016-01-27T13:00:02Z</time>
      </trkpt>
      <trkpt lat="43.41578" lon="6.07036">
        <ele>199.19999694824</ele>
        <time>2016-01-27T13:00:03Z</time>
      </trkpt>
      <trkpt lat="43.41578" lon="6.07036">
        <ele>198.19999694824</ele>
        <time>2016-01-27T13:00:06Z</time>
      </trkpt>
      <trkpt lat="43.41578" lon="6.07036">
        <ele>199.19999694824</ele>
        <time>2016-01-27T13:00:08Z</time>
      </trkpt>
      <trkpt lat="43.41578" lon="6.07036">
        <ele>199</ele>
        <time>2016-01-27T13:00:10Z</time>
      </trkpt>
      <trkpt lat="43.41578" lon="6.07036">
        <ele>199</ele>
        <time>2016-01-27T13:00:12Z</time>
      </trkpt>
      <trkpt lat="43.41578" lon="6.07036">
        <ele>199</ele>
        <time>2016-01-27T13:00:14Z</time>
      </trkpt>
      <trkpt lat="43.41578" lon="6.07036">
        <ele>199.39999389648</ele>
        <time>2016-01-27T13:00:16Z</time>
      </trkpt>
      <trkpt lat="43.41578" lon="6.07036">
        <ele>199.39999389648</ele>
        <time>2016-01-27T13:00:17Z</time>
      </trkpt>
      <trkpt lat="43.41578" lon="6.07036">
        <ele>199</ele>
        <time>2016-01-27T13:00:18Z</time>
      </trkpt>
      <trkpt lat="43.41578" lon="6.07036">
        <ele>198.80000305176</ele>
        <time>2016-01-27T13:00:20Z</time>
      </trkpt>
      <trkpt lat="43.41578" lon="6.07036">
        <ele>199</ele>
        <time>2016-01-27T13:00:22Z</time>
      </trkpt>
      <trkpt lat="43.41578" lon="6.07036">
        <ele>199.19999694824</ele>
        <time>2016-01-27T13:00:24Z</time>
      </trkpt>
      <trkpt lat="43.41578" lon="6.07036">
        <ele>199</ele>
        <time>2016-01-27T13:00:26Z</time>
      </trkpt>
      <trkpt lat="43.41578" lon="6.07036">
        <ele>198.80000305176</ele>
        <time>2016-01-27T13:00:28Z</time>
      </trkpt>
      <trkpt lat="43.41578" lon="6.07036">
        <ele>198.80000305176</ele>
        <time>2016-01-27T13:00:30Z</time>
      </trkpt>
      <trkpt lat="43.41578" lon="6.07036">
        <ele>199</ele>
        <time>2016-01-27T13:00:32Z</time>
      </trkpt>
      <trkpt lat="43.41578" lon="6.07036">
        <ele>199</ele>
        <time>2016-01-27T13:00:34Z</time>
      </trkpt>
      <trkpt lat="43.41578" lon="6.07036">
        <ele>199</ele>
        <time>2016-01-27T13:00:36Z</time>
      </trkpt>
      <trkpt lat="43.41578" lon="6.07036">
        <ele>199</ele>
        <time>2016-01-27T13:00:38Z</time>
      </trkpt>
      <trkpt lat="43.41578" lon="6.07036">
        <ele>199</ele>
        <time>2016-01-27T13:00:40Z</time>
      </trkpt>
      <trkpt lat="43.41578" lon="6.07037">
        <ele>199</ele>
        <time>2016-01-27T13:00:42Z</time>
      </trkpt>
      <trkpt lat="43.41578" lon="6.07037">
        <ele>199</ele>
        <time>2016-01-27T13:00:43Z</time>
      </trkpt>
      <trkpt lat="43.41578" lon="6.07037">
        <ele>199.19999694824</ele>
        <time>2016-01-27T13:00:44Z</time>
      </trkpt>
      <trkpt lat="43.41579" lon="6.07037">
        <ele>199.19999694824</ele>
        <time>2016-01-27T13:00:45Z</time>
      </trkpt>
      <trkpt lat="43.41579" lon="6.07037">
        <ele>199.19999694824</ele>
        <time>2016-01-27T13:00:46Z</time>
      </trkpt>
      <trkpt lat="43.41579" lon="6.07037">
        <ele>199</ele>
        <time>2016-01-27T13:00:48Z</time>
      </trkpt>
      <trkpt lat="43.41579" lon="6.07037">
        <ele>199.19999694824</ele>
        <time>2016-01-27T13:00:50Z</time>
      </trkpt>
      <trkpt lat="43.41579" lon="6.07037">
        <ele>199.19999694824</ele>
        <time>2016-01-27T13:00:52Z</time>
      </trkpt>
      <trkpt lat="43.41578" lon="6.07037">
        <ele>199</ele>
        <time>2016-01-27T13:00:54Z</time>
      </trkpt>
      <trkpt lat="43.41579" lon="6.07037">
        <ele>199</ele>
        <time>2016-01-27T13:00:55Z</time>
      </trkpt>
      <trkpt lat="43.41578" lon="6.07037">
        <ele>199</ele>
        <time>2016-01-27T13:00:56Z</time>
      </trkpt>
      <trkpt lat="43.41579" lon="6.07037">
        <ele>199</ele>
        <time>2016-01-27T13:00:58Z</time>
      </trkpt>
      <trkpt lat="43.41579" lon="6.07037">
        <ele>199</ele>
        <time>2016-01-27T13:01:00Z</time>
      </trkpt>
      <trkpt lat="43.41579" lon="6.07038">
        <ele>198.80000305176</ele>
        <time>2016-01-27T13:01:02Z</time>
      </trkpt>
      <trkpt lat="43.41579" lon="6.07038">
        <ele>199</ele>
        <time>2016-01-27T13:01:04Z</time>
      </trkpt>
      <trkpt lat="43.41579" lon="6.07038">
        <ele>199</ele>
        <time>2016-01-27T13:01:06Z</time>
      </trkpt>
      <trkpt lat="43.41579" lon="6.07038">
        <ele>199</ele>
        <time>2016-01-27T13:01:08Z</time>
      </trkpt>
      <trkpt lat="43.41579" lon="6.07038">
        <ele>199</ele>
        <time>2016-01-27T13:01:10Z</time>
      </trkpt>
      <trkpt lat="43.41579" lon="6.07038">
        <ele>199</ele>
        <time>2016-01-27T13:01:12Z</time>
      </trkpt>
      <trkpt lat="43.41579" lon="6.07038">
        <ele>199.19999694824</ele>
        <time>2016-01-27T13:01:14Z</time>
      </trkpt>
      <trkpt lat="43.41579" lon="6.07038">
        <ele>199.19999694824</ele>
        <time>2016-01-27T13:01:16Z</time>
      </trkpt>
      <trkpt lat="43.41579" lon="6.07038">
        <ele>199</ele>
        <time>2016-01-27T13:01:18Z</time>
      </trkpt>
      <trkpt lat="43.41579" lon="6.07038">
        <ele>199.19999694824</ele>
        <time>2016-01-27T13:01:20Z</time>
      </trkpt>
      <trkpt lat="43.41579" lon="6.07038">
        <ele>199.19999694824</ele>
        <time>2016-01-27T13:01:22Z</time>
      </trkpt>
      <trkpt lat="43.41579" lon="6.07038">
        <ele>199.19999694824</ele>
        <time>2016-01-27T13:01:24Z</time>
      </trkpt>
      <trkpt lat="43.41579" lon="6.07038">
        <ele>199.19999694824</ele>
        <time>2016-01-27T13:01:26Z</time>
      </trkpt>
      <trkpt lat="43.41579" lon="6.07038">
        <ele>199.19999694824</ele>
        <time>2016-01-27T13:01:28Z</time>
      </trkpt>
      <trkpt lat="43.41579" lon="6.07038">
        <ele>198.80000305176</ele>
        <time>2016-01-27T13:01:30Z</time>
      </trkpt>
      <trkpt lat="43.41579" lon="6.07038">
        <ele>199</ele>
        <time>2016-01-27T13:01:32Z</time>
      </trkpt>
      <trkpt lat="43.41579" lon="6.07038">
        <ele>199</ele>
        <time>2016-01-27T13:01:34Z</time>
      </trkpt>
      <trkpt lat="43.41579" lon="6.07038">
        <ele>199.19999694824</ele>
        <time>2016-01-27T13:01:36Z</time>
      </trkpt>
      <trkpt lat="43.41579" lon="6.07038">
        <ele>199</ele>
        <time>2016-01-27T13:01:38Z</time>
      </trkpt>
      <trkpt lat="43.41579" lon="6.07038">
        <ele>199</ele>
        <time>2016-01-27T13:01:40Z</time>
      </trkpt>
      <trkpt lat="43.41579" lon="6.07038">
        <ele>199</ele>
        <time>2016-01-27T13:01:42Z</time>
      </trkpt>
      <trkpt lat="43.41579" lon="6.07038">
        <ele>199</ele>
        <time>2016-01-27T13:01:44Z</time>
      </trkpt>
      <trkpt lat="43.41579" lon="6.07038">
        <ele>198.80000305176</ele>
        <time>2016-01-27T13:01:46Z</time>
      </trkpt>
      <trkpt lat="43.41579" lon="6.07038">
        <ele>199.19999694824</ele>
        <time>2016-01-27T13:01:48Z</time>
      </trkpt>
      <trkpt lat="43.41579" lon="6.07038">
        <ele>199.19999694824</ele>
        <time>2016-01-27T13:01:50Z</time>
      </trkpt>
      <trkpt lat="43.41579" lon="6.07038">
        <ele>199.19999694824</ele>
        <time>2016-01-27T13:01:52Z</time>
      </trkpt>
      <trkpt lat="43.41579" lon="6.07038">
        <ele>198.80000305176</ele>
        <time>2016-01-27T13:01:54Z</time>
      </trkpt>
      <trkpt lat="43.41579" lon="6.07038">
        <ele>198.80000305176</ele>
        <time>2016-01-27T13:01:56Z</time>
      </trkpt>
      <trkpt lat="43.41579" lon="6.07038">
        <ele>199</ele>
        <time>2016-01-27T13:01:58Z</time>
      </trkpt>
      <trkpt lat="43.41579" lon="6.07038">
        <ele>199</ele>
        <time>2016-01-27T13:02:00Z</time>
      </trkpt>
      <trkpt lat="43.41579" lon="6.07038">
        <ele>198.80000305176</ele>
        <time>2016-01-27T13:02:02Z</time>
      </trkpt>
      <trkpt lat="43.41579" lon="6.07038">
        <ele>198.80000305176</ele>
        <time>2016-01-27T13:02:04Z</time>
      </trkpt>
      <trkpt lat="43.41579" lon="6.07038">
        <ele>199</ele>
        <time>2016-01-27T13:02:06Z</time>
      </trkpt>
      <trkpt lat="43.41579" lon="6.07038">
        <ele>199</ele>
        <time>2016-01-27T13:02:07Z</time>
      </trkpt>
      <trkpt lat="43.41579" lon="6.07038">
        <ele>199.19999694824</ele>
        <time>2016-01-27T13:02:08Z</time>
      </trkpt>
      <trkpt lat="43.41579" lon="6.07038">
        <ele>199</ele>
        <time>2016-01-27T13:02:10Z</time>
      </trkpt>
      <trkpt lat="43.41579" lon="6.07038">
        <ele>199.19999694824</ele>
        <time>2016-01-27T13:02:12Z</time>
      </trkpt>
      <trkpt lat="43.41579" lon="6.07038">
        <ele>199</ele>
        <time>2016-01-27T13:02:14Z</time>
      </trkpt>
      <trkpt lat="43.41579" lon="6.07038">
        <ele>199.19999694824</ele>
        <time>2016-01-27T13:02:16Z</time>
      </trkpt>
      <trkpt lat="43.41579" lon="6.07038">
        <ele>199.19999694824</ele>
        <time>2016-01-27T13:02:18Z</time>
      </trkpt>
      <trkpt lat="43.41579" lon="6.07038">
        <ele>199</ele>
        <time>2016-01-27T13:02:20Z</time>
      </trkpt>
      <trkpt lat="43.41579" lon="6.07038">
        <ele>198.80000305176</ele>
        <time>2016-01-27T13:02:22Z</time>
      </trkpt>
      <trkpt lat="43.41579" lon="6.07038">
        <ele>199</ele>
        <time>2016-01-27T13:02:24Z</time>
      </trkpt>
      <trkpt lat="43.41579" lon="6.07038">
        <ele>199</ele>
        <time>2016-01-27T13:02:26Z</time>
      </trkpt>
      <trkpt lat="43.41579" lon="6.0704">
        <ele>199</ele>
        <time>2016-01-27T13:02:28Z</time>
      </trkpt>
      <trkpt lat="43.41579" lon="6.07043">
        <ele>199.39999389648</ele>
        <time>2016-01-27T13:02:30Z</time>
      </trkpt>
      <trkpt lat="43.41579" lon="6.07045">
        <ele>199</ele>
        <time>2016-01-27T13:02:31Z</time>
      </trkpt>
      <trkpt lat="43.41579" lon="6.07048">
        <ele>199.19999694824</ele>
        <time>2016-01-27T13:02:32Z</time>
      </trkpt>
      <trkpt lat="43.41579" lon="6.07055">
        <ele>199.19999694824</ele>
        <time>2016-01-27T13:02:34Z</time>
      </trkpt>
      <trkpt lat="43.41581" lon="6.07062">
        <ele>199.39999389648</ele>
        <time>2016-01-27T13:02:36Z</time>
      </trkpt>
      <trkpt lat="43.41581" lon="6.0707">
        <ele>199.19999694824</ele>
        <time>2016-01-27T13:02:38Z</time>
      </trkpt>
      <trkpt lat="43.41582" lon="6.07079">
        <ele>199</ele>
        <time>2016-01-27T13:02:40Z</time>
      </trkpt>
      <trkpt lat="43.41583" lon="6.07087">
        <ele>199.19999694824</ele>
        <time>2016-01-27T13:02:42Z</time>
      </trkpt>
      <trkpt lat="43.41584" lon="6.07096">
        <ele>199</ele>
        <time>2016-01-27T13:02:44Z</time>
      </trkpt>
      <trkpt lat="43.41584" lon="6.07104">
        <ele>199.19999694824</ele>
        <time>2016-01-27T13:02:46Z</time>
      </trkpt>
      <trkpt lat="43.41585" lon="6.07107">
        <ele>198.80000305176</ele>
        <time>2016-01-27T13:02:48Z</time>
      </trkpt>
      <trkpt lat="43.41584" lon="6.07109">
        <ele>198.80000305176</ele>
        <time>2016-01-27T13:02:49Z</time>
      </trkpt>
      <trkpt lat="43.41583" lon="6.0711">
        <ele>198.60000610352</ele>
        <time>2016-01-27T13:02:50Z</time>
      </trkpt>
      <trkpt lat="43.4158" lon="6.07109">
        <ele>198.80000305176</ele>
        <time>2016-01-27T13:02:52Z</time>
      </trkpt>
      <trkpt lat="43.41579" lon="6.07109">
        <ele>198.80000305176</ele>
        <time>2016-01-27T13:02:53Z</time>
      </trkpt>
      <trkpt lat="43.41576" lon="6.0711">
        <ele>198.80000305176</ele>
        <time>2016-01-27T13:02:54Z</time>
      </trkpt>
      <trkpt lat="43.41574" lon="6.0711">
        <ele>199</ele>
        <time>2016-01-27T13:02:55Z</time>
      </trkpt>
      <trkpt lat="43.41572" lon="6.07111">
        <ele>199</ele>
        <time>2016-01-27T13:02:56Z</time>
      </trkpt>
      <trkpt lat="43.41567" lon="6.07113">
        <ele>198.60000610352</ele>
        <time>2016-01-27T13:02:58Z</time>
      </trkpt>
      <trkpt lat="43.41562" lon="6.07115">
        <ele>198.80000305176</ele>
        <time>2016-01-27T13:03:00Z</time>
      </trkpt>
      <trkpt lat="43.41558" lon="6.07116">
        <ele>198.80000305176</ele>
        <time>2016-01-27T13:03:02Z</time>
      </trkpt>
      <trkpt lat="43.41552" lon="6.07115">
        <ele>198.80000305176</ele>
        <time>2016-01-27T13:03:04Z</time>
      </trkpt>
      <trkpt lat="43.4155" lon="6.07113">
        <ele>199</ele>
        <time>2016-01-27T13:03:05Z</time>
      </trkpt>
      <trkpt lat="43.41549" lon="6.07109">
        <ele>199.19999694824</ele>
        <time>2016-01-27T13:03:06Z</time>
      </trkpt>
      <trkpt lat="43.41549" lon="6.07104">
        <ele>199.19999694824</ele>
        <time>2016-01-27T13:03:08Z</time>
      </trkpt>
      <trkpt lat="43.41548" lon="6.07098">
        <ele>199.19999694824</ele>
        <time>2016-01-27T13:03:10Z</time>
      </trkpt>
      <trkpt lat="43.41548" lon="6.07096">
        <ele>199.19999694824</ele>
        <time>2016-01-27T13:03:11Z</time>
      </trkpt>
      <trkpt lat="43.41548" lon="6.07093">
        <ele>199</ele>
        <time>2016-01-27T13:03:12Z</time>
      </trkpt>
      <trkpt lat="43.41547" lon="6.07087">
        <ele>199</ele>
        <time>2016-01-27T13:03:14Z</time>
      </trkpt>
      <trkpt lat="43.41545" lon="6.07082">
        <ele>198.80000305176</ele>
        <time>2016-01-27T13:03:16Z</time>
      </trkpt>
      <trkpt lat="43.41542" lon="6.07077">
        <ele>198.39999389648</ele>
        <time>2016-01-27T13:03:18Z</time>
      </trkpt>
      <trkpt lat="43.41534" lon="6.07075">
        <ele>198.39999389648</ele>
        <time>2016-01-27T13:03:20Z</time>
      </trkpt>
      <trkpt lat="43.41531" lon="6.07076">
        <ele>198.39999389648</ele>
        <time>2016-01-27T13:03:21Z</time>
      </trkpt>
      <trkpt lat="43.41526" lon="6.07077">
        <ele>198.39999389648</ele>
        <time>2016-01-27T13:03:22Z</time>
      </trkpt>
      <trkpt lat="43.41517" lon="6.07079">
        <ele>198.39999389648</ele>
        <time>2016-01-27T13:03:24Z</time>
      </trkpt>
      <trkpt lat="43.41509" lon="6.07081">
        <ele>198.19999694824</ele>
        <time>2016-01-27T13:03:26Z</time>
      </trkpt>
      <trkpt lat="43.41501" lon="6.07081">
        <ele>198</ele>
        <time>2016-01-27T13:03:28Z</time>
      </trkpt>
      <trkpt lat="43.41497" lon="6.0708">
        <ele>197.80000305176</ele>
        <time>2016-01-27T13:03:29Z</time>
      </trkpt>
      <trkpt lat="43.41494" lon="6.07079">
        <ele>197.60000610352</ele>
        <time>2016-01-27T13:03:30Z</time>
      </trkpt>
      <trkpt lat="43.41486" lon="6.07077">
        <ele>197.39999389648</ele>
        <time>2016-01-27T13:03:32Z</time>
      </trkpt>
      <trkpt lat="43.41479" lon="6.07074">
        <ele>197</ele>
        <time>2016-01-27T13:03:34Z</time>
      </trkpt>
      <trkpt lat="43.41476" lon="6.07072">
        <ele>197</ele>
        <time>2016-01-27T13:03:35Z</time>
      </trkpt>
      <trkpt lat="43.41474" lon="6.0707">
        <ele>197</ele>
        <time>2016-01-27T13:03:36Z</time>
      </trkpt>
      <trkpt lat="43.41472" lon="6.07067">
        <ele>196.80000305176</ele>
        <time>2016-01-27T13:03:38Z</time>
      </trkpt>
      <trkpt lat="43.41471" lon="6.07067">
        <ele>196.60000610352</ele>
        <time>2016-01-27T13:03:39Z</time>
      </trkpt>
      <trkpt lat="43.41471" lon="6.07067">
        <ele>196.39999389648</ele>
        <time>2016-01-27T13:03:40Z</time>
      </trkpt>
      <trkpt lat="43.41471" lon="6.07068">
        <ele>196.39999389648</ele>
        <time>2016-01-27T13:03:42Z</time>
      </trkpt>
      <trkpt lat="43.41471" lon="6.07068">
        <ele>196.39999389648</ele>
        <time>2016-01-27T13:03:44Z</time>
      </trkpt>
      <trkpt lat="43.41471" lon="6.07068">
        <ele>196.39999389648</ele>
        <time>2016-01-27T13:03:46Z</time>
      </trkpt>
      <trkpt lat="43.41471" lon="6.07068">
        <ele>196.39999389648</ele>
        <time>2016-01-27T13:03:48Z</time>
      </trkpt>
      <trkpt lat="43.41471" lon="6.07068">
        <ele>196.39999389648</ele>
        <time>2016-01-27T13:03:50Z</time>
      </trkpt>
      <trkpt lat="43.41471" lon="6.07068">
        <ele>196.60000610352</ele>
        <time>2016-01-27T13:03:52Z</time>
      </trkpt>
      <trkpt lat="43.41471" lon="6.07068">
        <ele>196.19999694824</ele>
        <time>2016-01-27T13:03:54Z</time>
      </trkpt>
      <trkpt lat="43.41471" lon="6.07068">
        <ele>196.39999389648</ele>
        <time>2016-01-27T13:03:56Z</time>
      </trkpt>
      <trkpt lat="43.41471" lon="6.07068">
        <ele>196.39999389648</ele>
        <time>2016-01-27T13:03:58Z</time>
      </trkpt>
      <trkpt lat="43.41471" lon="6.07068">
        <ele>196.39999389648</ele>
        <time>2016-01-27T13:04:00Z</time>
      </trkpt>
      <trkpt lat="43.41471" lon="6.07068">
        <ele>196.39999389648</ele>
        <time>2016-01-27T13:04:02Z</time>
      </trkpt>
      <trkpt lat="43.41471" lon="6.07068">
        <ele>196.39999389648</ele>
        <time>2016-01-27T13:04:04Z</time>
      </trkpt>
      <trkpt lat="43.41471" lon="6.07068">
        <ele>196.39999389648</ele>
        <time>2016-01-27T13:04:06Z</time>
      </trkpt>
      <trkpt lat="43.41471" lon="6.07068">
        <ele>196.39999389648</ele>
        <time>2016-01-27T13:04:08Z</time>
      </trkpt>
      <trkpt lat="43.41471" lon="6.07068">
        <ele>196.60000610352</ele>
        <time>2016-01-27T13:04:10Z</time>
      </trkpt>
      <trkpt lat="43.41471" lon="6.07068">
        <ele>196.39999389648</ele>
        <time>2016-01-27T13:04:12Z</time>
      </trkpt>
      <trkpt lat="43.41471" lon="6.07068">
        <ele>196.60000610352</ele>
        <time>2016-01-27T13:04:14Z</time>
      </trkpt>
      <trkpt lat="43.41471" lon="6.07068">
        <ele>196.39999389648</ele>
        <time>2016-01-27T13:04:16Z</time>
      </trkpt>
      <trkpt lat="43.4147" lon="6.07067">
        <ele>196.19999694824</ele>
        <time>2016-01-27T13:04:18Z</time>
      </trkpt>
      <trkpt lat="43.41469" lon="6.07062">
        <ele>196.19999694824</ele>
        <time>2016-01-27T13:04:20Z</time>
      </trkpt>
      <trkpt lat="43.41471" lon="6.07058">
        <ele>196.39999389648</ele>
        <time>2016-01-27T13:04:22Z</time>
      </trkpt>
      <trkpt lat="43.41474" lon="6.07053">
        <ele>196.39999389648</ele>
        <time>2016-01-27T13:04:24Z</time>
      </trkpt>
      <trkpt lat="43.41476" lon="6.0705">
        <ele>196.60000610352</ele>
        <time>2016-01-27T13:04:25Z</time>
      </trkpt>
      <trkpt lat="43.41478" lon="6.07045">
        <ele>196.80000305176</ele>
        <time>2016-01-27T13:04:26Z</time>
      </trkpt>
      <trkpt lat="43.4148" lon="6.0704">
        <ele>197</ele>
        <time>2016-01-27T13:04:27Z</time>
      </trkpt>
      <trkpt lat="43.41483" lon="6.07034">
        <ele>197.19999694824</ele>
        <time>2016-01-27T13:04:28Z</time>
      </trkpt>
      <trkpt lat="43.41488" lon="6.07022">
        <ele>197.39999389648</ele>
        <time>2016-01-27T13:04:30Z</time>
      </trkpt>
      <trkpt lat="43.4149" lon="6.07016">
        <ele>197.60000610352</ele>
        <time>2016-01-27T13:04:31Z</time>
      </trkpt>
      <trkpt lat="43.41492" lon="6.07009">
        <ele>197.80000305176</ele>
        <time>2016-01-27T13:04:32Z</time>
      </trkpt>
      <trkpt lat="43.41494" lon="6.07004">
        <ele>198</ele>
        <time>2016-01-27T13:04:33Z</time>
      </trkpt>
      <trkpt lat="43.41495" lon="6.06998">
        <ele>198</ele>
        <time>2016-01-27T13:04:34Z</time>
      </trkpt>
      <trkpt lat="43.41496" lon="6.0699">
        <ele>197.60000610352</ele>
        <time>2016-01-27T13:04:36Z</time>
      </trkpt>
      <trkpt lat="43.41496" lon="6.06982">
        <ele>197.39999389648</ele>
        <time>2016-01-27T13:04:38Z</time>
      </trkpt>
      <trkpt lat="43.41493" lon="6.06973">
        <ele>197.80000305176</ele>
        <time>2016-01-27T13:04:40Z</time>
      </trkpt>
      <trkpt lat="43.41491" lon="6.0697">
        <ele>198</ele>
        <time>2016-01-27T13:04:41Z</time>
      </trkpt>
      <trkpt lat="43.41489" lon="6.06966">
        <ele>198</ele>
        <time>2016-01-27T13:04:42Z</time>
      </trkpt>
      <trkpt lat="43.41488" lon="6.06962">
        <ele>198</ele>
        <time>2016-01-27T13:04:43Z</time>
      </trkpt>
      <trkpt lat="43.41486" lon="6.0696">
        <ele>198</ele>
        <time>2016-01-27T13:04:44Z</time>
      </trkpt>
      <trkpt lat="43.41482" lon="6.06953">
        <ele>198.19999694824</ele>
        <time>2016-01-27T13:04:46Z</time>
      </trkpt>
      <trkpt lat="43.41479" lon="6.06948">
        <ele>198.19999694824</ele>
        <time>2016-01-27T13:04:48Z</time>
      </trkpt>
      <trkpt lat="43.41476" lon="6.06943">
        <ele>198.39999389648</ele>
        <time>2016-01-27T13:04:50Z</time>
      </trkpt>
      <trkpt lat="43.41473" lon="6.06938">
        <ele>198.19999694824</ele>
        <time>2016-01-27T13:04:52Z</time>
      </trkpt>
      <trkpt lat="43.41471" lon="6.06934">
        <ele>198.19999694824</ele>
        <time>2016-01-27T13:04:54Z</time>
      </trkpt>
      <trkpt lat="43.41469" lon="6.06931">
        <ele>198.60000610352</ele>
        <time>2016-01-27T13:04:56Z</time>
      </trkpt>
      <trkpt lat="43.41467" lon="6.06929">
        <ele>198.80000305176</ele>
        <time>2016-01-27T13:04:58Z</time>
      </trkpt>
      <trkpt lat="43.41464" lon="6.06925">
        <ele>198.80000305176</ele>
        <time>2016-01-27T13:05:00Z</time>
      </trkpt>
      <trkpt lat="43.41463" lon="6.06922">
        <ele>198.80000305176</ele>
        <time>2016-01-27T13:05:01Z</time>
      </trkpt>
      <trkpt lat="43.41462" lon="6.06918">
        <ele>199</ele>
        <time>2016-01-27T13:05:02Z</time>
      </trkpt>
      <trkpt lat="43.41463" lon="6.06913">
        <ele>199</ele>
        <time>2016-01-27T13:05:04Z</time>
      </trkpt>
      <trkpt lat="43.41463" lon="6.0691">
        <ele>199</ele>
        <time>2016-01-27T13:05:05Z</time>
      </trkpt>
      <trkpt lat="43.41464" lon="6.06906">
        <ele>199</ele>
        <time>2016-01-27T13:05:06Z</time>
      </trkpt>
      <trkpt lat="43.41465" lon="6.06896">
        <ele>199.19999694824</ele>
        <time>2016-01-27T13:05:08Z</time>
      </trkpt>
      <trkpt lat="43.41465" lon="6.0689">
        <ele>199.39999389648</ele>
        <time>2016-01-27T13:05:09Z</time>
      </trkpt>
      <trkpt lat="43.41465" lon="6.06884">
        <ele>199.39999389648</ele>
        <time>2016-01-27T13:05:10Z</time>
      </trkpt>
      <trkpt lat="43.41464" lon="6.06878">
        <ele>199.60000610352</ele>
        <time>2016-01-27T13:05:11Z</time>
      </trkpt>
      <trkpt lat="43.41462" lon="6.06872">
        <ele>199.80000305176</ele>
        <time>2016-01-27T13:05:12Z</time>
      </trkpt>
      <trkpt lat="43.41459" lon="6.06866">
        <ele>199.80000305176</ele>
        <time>2016-01-27T13:05:13Z</time>
      </trkpt>
      <trkpt lat="43.41455" lon="6.06861">
        <ele>199.80000305176</ele>
        <time>2016-01-27T13:05:14Z</time>
      </trkpt>
      <trkpt lat="43.41444" lon="6.06856">
        <ele>199.80000305176</ele>
        <time>2016-01-27T13:05:16Z</time>
      </trkpt>
      <trkpt lat="43.41433" lon="6.06857">
        <ele>199.60000610352</ele>
        <time>2016-01-27T13:05:18Z</time>
      </trkpt>
      <trkpt lat="43.41428" lon="6.06857">
        <ele>199.60000610352</ele>
        <time>2016-01-27T13:05:19Z</time>
      </trkpt>
      <trkpt lat="43.41422" lon="6.06857">
        <ele>199.80000305176</ele>
        <time>2016-01-27T13:05:20Z</time>
      </trkpt>
      <trkpt lat="43.41411" lon="6.0685">
        <ele>200</ele>
        <time>2016-01-27T13:05:22Z</time>
      </trkpt>
      <trkpt lat="43.41401" lon="6.06841">
        <ele>200</ele>
        <time>2016-01-27T13:05:24Z</time>
      </trkpt>
      <trkpt lat="43.41391" lon="6.06832">
        <ele>200</ele>
        <time>2016-01-27T13:05:26Z</time>
      </trkpt>
      <trkpt lat="43.41385" lon="6.06829">
        <ele>200.39999389648</ele>
        <time>2016-01-27T13:05:27Z</time>
      </trkpt>
      <trkpt lat="43.4138" lon="6.06826">
        <ele>200.60000610352</ele>
        <time>2016-01-27T13:05:28Z</time>
      </trkpt>
      <trkpt lat="43.41368" lon="6.0682">
        <ele>200.60000610352</ele>
        <time>2016-01-27T13:05:30Z</time>
      </trkpt>
      <trkpt lat="43.41358" lon="6.06815">
        <ele>200.60000610352</ele>
        <time>2016-01-27T13:05:32Z</time>
      </trkpt>
      <trkpt lat="43.41347" lon="6.06809">
        <ele>200.19999694824</ele>
        <time>2016-01-27T13:05:34Z</time>
      </trkpt>
      <trkpt lat="43.41336" lon="6.06804">
        <ele>200</ele>
        <time>2016-01-27T13:05:36Z</time>
      </trkpt>
      <trkpt lat="43.41325" lon="6.06797">
        <ele>199.19999694824</ele>
        <time>2016-01-27T13:05:38Z</time>
      </trkpt>
      <trkpt lat="43.4132" lon="6.06793">
        <ele>199</ele>
        <time>2016-01-27T13:05:39Z</time>
      </trkpt>
      <trkpt lat="43.41314" lon="6.06789">
        <ele>199</ele>
        <time>2016-01-27T13:05:40Z</time>
      </trkpt>
      <trkpt lat="43.41303" lon="6.06779">
        <ele>199.19999694824</ele>
        <time>2016-01-27T13:05:42Z</time>
      </trkpt>
      <trkpt lat="43.41293" lon="6.06769">
        <ele>198.80000305176</ele>
        <time>2016-01-27T13:05:44Z</time>
      </trkpt>
      <trkpt lat="43.4129" lon="6.06764">
        <ele>198.80000305176</ele>
        <time>2016-01-27T13:05:45Z</time>
      </trkpt>
      <trkpt lat="43.41285" lon="6.0676">
        <ele>198.80000305176</ele>
        <time>2016-01-27T13:05:46Z</time>
      </trkpt>
      <trkpt lat="43.4128" lon="6.06757">
        <ele>198</ele>
        <time>2016-01-27T13:05:48Z</time>
      </trkpt>
      <trkpt lat="43.41276" lon="6.06752">
        <ele>198.19999694824</ele>
        <time>2016-01-27T13:05:50Z</time>
      </trkpt>
      <trkpt lat="43.41272" lon="6.06743">
        <ele>198.19999694824</ele>
        <time>2016-01-27T13:05:52Z</time>
      </trkpt>
      <trkpt lat="43.41268" lon="6.06734">
        <ele>198</ele>
        <time>2016-01-27T13:05:54Z</time>
      </trkpt>
      <trkpt lat="43.41263" lon="6.06724">
        <ele>197.60000610352</ele>
        <time>2016-01-27T13:05:56Z</time>
      </trkpt>
      <trkpt lat="43.4126" lon="6.0672">
        <ele>197.39999389648</ele>
        <time>2016-01-27T13:05:57Z</time>
      </trkpt>
      <trkpt lat="43.41257" lon="6.06716">
        <ele>197.19999694824</ele>
        <time>2016-01-27T13:05:58Z</time>
      </trkpt>
      <trkpt lat="43.41256" lon="6.06714">
        <ele>197</ele>
        <time>2016-01-27T13:05:59Z</time>
      </trkpt>
      <trkpt lat="43.41254" lon="6.06713">
        <ele>196.80000305176</ele>
        <time>2016-01-27T13:06:00Z</time>
      </trkpt>
      <trkpt lat="43.41253" lon="6.06711">
        <ele>196.19999694824</ele>
        <time>2016-01-27T13:06:02Z</time>
      </trkpt>
      <trkpt lat="43.41253" lon="6.06711">
        <ele>196.19999694824</ele>
        <time>2016-01-27T13:06:03Z</time>
      </trkpt>
      <trkpt lat="43.41253" lon="6.06711">
        <ele>196.19999694824</ele>
        <time>2016-01-27T13:06:04Z</time>
      </trkpt>
      <trkpt lat="43.41253" lon="6.06712">
        <ele>196</ele>
        <time>2016-01-27T13:06:06Z</time>
      </trkpt>
      <trkpt lat="43.41253" lon="6.06712">
        <ele>196</ele>
        <time>2016-01-27T13:06:08Z</time>
      </trkpt>
      <trkpt lat="43.41253" lon="6.06712">
        <ele>196</ele>
        <time>2016-01-27T13:06:10Z</time>
      </trkpt>
      <trkpt lat="43.41253" lon="6.06712">
        <ele>196</ele>
        <time>2016-01-27T13:06:12Z</time>
      </trkpt>
      <trkpt lat="43.41253" lon="6.06712">
        <ele>196.19999694824</ele>
        <time>2016-01-27T13:06:14Z</time>
      </trkpt>
      <trkpt lat="43.41253" lon="6.06712">
        <ele>195.80000305176</ele>
        <time>2016-01-27T13:06:16Z</time>
      </trkpt>
      <trkpt lat="43.41253" lon="6.06712">
        <ele>195.80000305176</ele>
        <time>2016-01-27T13:06:18Z</time>
      </trkpt>
      <trkpt lat="43.41253" lon="6.06712">
        <ele>196</ele>
        <time>2016-01-27T13:06:20Z</time>
      </trkpt>
      <trkpt lat="43.41253" lon="6.06712">
        <ele>196</ele>
        <time>2016-01-27T13:06:22Z</time>
      </trkpt>
      <trkpt lat="43.41252" lon="6.06712">
        <ele>196.19999694824</ele>
        <time>2016-01-27T13:06:24Z</time>
      </trkpt>
      <trkpt lat="43.41252" lon="6.06712">
        <ele>196</ele>
        <time>2016-01-27T13:06:26Z</time>
      </trkpt>
      <trkpt lat="43.41251" lon="6.06712">
        <ele>196.19999694824</ele>
        <time>2016-01-27T13:06:28Z</time>
      </trkpt>
      <trkpt lat="43.41249" lon="6.06712">
        <ele>196.39999389648</ele>
        <time>2016-01-27T13:06:30Z</time>
      </trkpt>
      <trkpt lat="43.41245" lon="6.06711">
        <ele>196.19999694824</ele>
        <time>2016-01-27T13:06:32Z</time>
      </trkpt>
      <trkpt lat="43.41239" lon="6.0671">
        <ele>195.60000610352</ele>
        <time>2016-01-27T13:06:34Z</time>
      </trkpt>
      <trkpt lat="43.41236" lon="6.0671">
        <ele>195.39999389648</ele>
        <time>2016-01-27T13:06:35Z</time>
      </trkpt>
      <trkpt lat="43.41232" lon="6.0671">
        <ele>195.19999694824</ele>
        <time>2016-01-27T13:06:36Z</time>
      </trkpt>
      <trkpt lat="43.41227" lon="6.0671">
        <ele>194.80000305176</ele>
        <time>2016-01-27T13:06:37Z</time>
      </trkpt>
      <trkpt lat="43.41222" lon="6.0671">
        <ele>194.80000305176</ele>
        <time>2016-01-27T13:06:38Z</time>
      </trkpt>
      <trkpt lat="43.41215" lon="6.06711">
        <ele>195</ele>
        <time>2016-01-27T13:06:40Z</time>
      </trkpt>
      <trkpt lat="43.41208" lon="6.06711">
        <ele>195.19999694824</ele>
        <time>2016-01-27T13:06:42Z</time>
      </trkpt>
      <trkpt lat="43.41198" lon="6.06711">
        <ele>195</ele>
        <time>2016-01-27T13:06:44Z</time>
      </trkpt>
      <trkpt lat="43.41188" lon="6.06711">
        <ele>194.60000610352</ele>
        <time>2016-01-27T13:06:46Z</time>
      </trkpt>
      <trkpt lat="43.41184" lon="6.06711">
        <ele>194.60000610352</ele>
        <time>2016-01-27T13:06:47Z</time>
      </trkpt>
      <trkpt lat="43.41179" lon="6.06711">
        <ele>194.60000610352</ele>
        <time>2016-01-27T13:06:48Z</time>
      </trkpt>
      <trkpt lat="43.4117" lon="6.0671">
        <ele>194.39999389648</ele>
        <time>2016-01-27T13:06:50Z</time>
      </trkpt>
      <trkpt lat="43.41165" lon="6.06711">
        <ele>194.39999389648</ele>
        <time>2016-01-27T13:06:51Z</time>
      </trkpt>
      <trkpt lat="43.41161" lon="6.06712">
        <ele>194.39999389648</ele>
        <time>2016-01-27T13:06:52Z</time>
      </trkpt>
      <trkpt lat="43.41156" lon="6.06713">
        <ele>194</ele>
        <time>2016-01-27T13:06:53Z</time>
      </trkpt>
      <trkpt lat="43.41151" lon="6.06714">
        <ele>194</ele>
        <time>2016-01-27T13:06:54Z</time>
      </trkpt>
      <trkpt lat="43.41143" lon="6.06716">
        <ele>194</ele>
        <time>2016-01-27T13:06:56Z</time>
      </trkpt>
      <trkpt lat="43.41136" lon="6.06718">
        <ele>193.80000305176</ele>
        <time>2016-01-27T13:06:58Z</time>
      </trkpt>
      <trkpt lat="43.41133" lon="6.0672">
        <ele>193.80000305176</ele>
        <time>2016-01-27T13:06:59Z</time>
      </trkpt>
      <trkpt lat="43.4113" lon="6.06722">
        <ele>194</ele>
        <time>2016-01-27T13:07:00Z</time>
      </trkpt>
      <trkpt lat="43.41124" lon="6.06726">
        <ele>194</ele>
        <time>2016-01-27T13:07:02Z</time>
      </trkpt>
      <trkpt lat="43.41116" lon="6.06731">
        <ele>193.80000305176</ele>
        <time>2016-01-27T13:07:04Z</time>
      </trkpt>
      <trkpt lat="43.41113" lon="6.06734">
        <ele>193.80000305176</ele>
        <time>2016-01-27T13:07:05Z</time>
      </trkpt>
      <trkpt lat="43.41108" lon="6.06738">
        <ele>193.60000610352</ele>
        <time>2016-01-27T13:07:06Z</time>
      </trkpt>
      <trkpt lat="43.411" lon="6.06743">
        <ele>193.80000305176</ele>
        <time>2016-01-27T13:07:08Z</time>
      </trkpt>
      <trkpt lat="43.41093" lon="6.06749">
        <ele>193.60000610352</ele>
        <time>2016-01-27T13:07:10Z</time>
      </trkpt>
      <trkpt lat="43.4109" lon="6.06754">
        <ele>193.60000610352</ele>
        <time>2016-01-27T13:07:11Z</time>
      </trkpt>
      <trkpt lat="43.41088" lon="6.0676">
        <ele>193.39999389648</ele>
        <time>2016-01-27T13:07:12Z</time>
      </trkpt>
      <trkpt lat="43.41086" lon="6.06774">
        <ele>193.39999389648</ele>
        <time>2016-01-27T13:07:14Z</time>
      </trkpt>
      <trkpt lat="43.41085" lon="6.06781">
        <ele>193.19999694824</ele>
        <time>2016-01-27T13:07:15Z</time>
      </trkpt>
      <trkpt lat="43.41084" lon="6.06789">
        <ele>193.39999389648</ele>
        <time>2016-01-27T13:07:16Z</time>
      </trkpt>
      <trkpt lat="43.41082" lon="6.06806">
        <ele>193.60000610352</ele>
        <time>2016-01-27T13:07:18Z</time>
      </trkpt>
      <trkpt lat="43.4108" lon="6.06813">
        <ele>193.80000305176</ele>
        <time>2016-01-27T13:07:19Z</time>
      </trkpt>
      <trkpt lat="43.41076" lon="6.0682">
        <ele>194</ele>
        <time>2016-01-27T13:07:20Z</time>
      </trkpt>
      <trkpt lat="43.41072" lon="6.06832">
        <ele>194</ele>
        <time>2016-01-27T13:07:22Z</time>
      </trkpt>
      <trkpt lat="43.41071" lon="6.0684">
        <ele>193.60000610352</ele>
        <time>2016-01-27T13:07:24Z</time>
      </trkpt>
      <trkpt lat="43.41069" lon="6.06848">
        <ele>193.19999694824</ele>
        <time>2016-01-27T13:07:26Z</time>
      </trkpt>
      <trkpt lat="43.41068" lon="6.06855">
        <ele>193.39999389648</ele>
        <time>2016-01-27T13:07:28Z</time>
      </trkpt>
      <trkpt lat="43.41068" lon="6.0686">
        <ele>193.80000305176</ele>
        <time>2016-01-27T13:07:30Z</time>
      </trkpt>
      <trkpt lat="43.41068" lon="6.06864">
        <ele>194.39999389648</ele>
        <time>2016-01-27T13:07:32Z</time>
      </trkpt>
      <trkpt lat="43.41067" lon="6.06866">
        <ele>194.80000305176</ele>
        <time>2016-01-27T13:07:33Z</time>
      </trkpt>
      <trkpt lat="43.41066" lon="6.06867">
        <ele>195</ele>
        <time>2016-01-27T13:07:34Z</time>
      </trkpt>
      <trkpt lat="43.41063" lon="6.06868">
        <ele>195</ele>
        <time>2016-01-27T13:07:35Z</time>
      </trkpt>
      <trkpt lat="43.41061" lon="6.06869">
        <ele>195</ele>
        <time>2016-01-27T13:07:36Z</time>
      </trkpt>
      <trkpt lat="43.41056" lon="6.06871">
        <ele>194.80000305176</ele>
        <time>2016-01-27T13:07:38Z</time>
      </trkpt>
      <trkpt lat="43.41051" lon="6.06873">
        <ele>194.60000610352</ele>
        <time>2016-01-27T13:07:40Z</time>
      </trkpt>
      <trkpt lat="43.41048" lon="6.06875">
        <ele>194.60000610352</ele>
        <time>2016-01-27T13:07:41Z</time>
      </trkpt>
      <trkpt lat="43.41043" lon="6.06877">
        <ele>194.39999389648</ele>
        <time>2016-01-27T13:07:42Z</time>
      </trkpt>
      <trkpt lat="43.41035" lon="6.0688">
        <ele>194</ele>
        <time>2016-01-27T13:07:44Z</time>
      </trkpt>
      <trkpt lat="43.41032" lon="6.06882">
        <ele>194</ele>
        <time>2016-01-27T13:07:45Z</time>
      </trkpt>
      <trkpt lat="43.4103" lon="6.06885">
        <ele>193.60000610352</ele>
        <time>2016-01-27T13:07:46Z</time>
      </trkpt>
      <trkpt lat="43.41029" lon="6.06887">
        <ele>193.39999389648</ele>
        <time>2016-01-27T13:07:47Z</time>
      </trkpt>
      <trkpt lat="43.41027" lon="6.06889">
        <ele>193.19999694824</ele>
        <time>2016-01-27T13:07:48Z</time>
      </trkpt>
      <trkpt lat="43.41026" lon="6.0689">
        <ele>193.19999694824</ele>
        <time>2016-01-27T13:07:49Z</time>
      </trkpt>
      <trkpt lat="43.41025" lon="6.06892">
        <ele>193.19999694824</ele>
        <time>2016-01-27T13:07:50Z</time>
      </trkpt>
      <trkpt lat="43.41023" lon="6.06894">
        <ele>193.19999694824</ele>
        <time>2016-01-27T13:07:52Z</time>
      </trkpt>
      <trkpt lat="43.41021" lon="6.06898">
        <ele>193.19999694824</ele>
        <time>2016-01-27T13:07:54Z</time>
      </trkpt>
      <trkpt lat="43.41017" lon="6.06903">
        <ele>193.39999389648</ele>
        <time>2016-01-27T13:07:56Z</time>
      </trkpt>
      <trkpt lat="43.41015" lon="6.06906">
        <ele>193.60000610352</ele>
        <time>2016-01-27T13:07:57Z</time>
      </trkpt>
      <trkpt lat="43.41012" lon="6.06909">
        <ele>193.60000610352</ele>
        <time>2016-01-27T13:07:58Z</time>
      </trkpt>
      <trkpt lat="43.41009" lon="6.06911">
        <ele>193.80000305176</ele>
        <time>2016-01-27T13:07:59Z</time>
      </trkpt>
      <trkpt lat="43.41005" lon="6.06914">
        <ele>193.80000305176</ele>
        <time>2016-01-27T13:08:00Z</time>
      </trkpt>
      <trkpt lat="43.40998" lon="6.06918">
        <ele>193.39999389648</ele>
        <time>2016-01-27T13:08:02Z</time>
      </trkpt>
      <trkpt lat="43.40992" lon="6.06921">
        <ele>193.39999389648</ele>
        <time>2016-01-27T13:08:04Z</time>
      </trkpt>
      <trkpt lat="43.40985" lon="6.06925">
        <ele>193.19999694824</ele>
        <time>2016-01-27T13:08:06Z</time>
      </trkpt>
      <trkpt lat="43.40978" lon="6.06929">
        <ele>193</ele>
        <time>2016-01-27T13:08:08Z</time>
      </trkpt>
      <trkpt lat="43.4097" lon="6.06932">
        <ele>193.19999694824</ele>
        <time>2016-01-27T13:08:10Z</time>
      </trkpt>
      <trkpt lat="43.40962" lon="6.06935">
        <ele>193</ele>
        <time>2016-01-27T13:08:12Z</time>
      </trkpt>
      <trkpt lat="43.40953" lon="6.06939">
        <ele>193.19999694824</ele>
        <time>2016-01-27T13:08:14Z</time>
      </trkpt>
      <trkpt lat="43.40944" lon="6.06942">
        <ele>193.39999389648</ele>
        <time>2016-01-27T13:08:16Z</time>
      </trkpt>
      <trkpt lat="43.40934" lon="6.06945">
        <ele>193.80000305176</ele>
        <time>2016-01-27T13:08:18Z</time>
      </trkpt>
      <trkpt lat="43.40929" lon="6.06946">
        <ele>193.80000305176</ele>
        <time>2016-01-27T13:08:19Z</time>
      </trkpt>
      <trkpt lat="43.40924" lon="6.06948">
        <ele>193.60000610352</ele>
        <time>2016-01-27T13:08:20Z</time>
      </trkpt>
      <trkpt lat="43.40915" lon="6.06953">
        <ele>193.60000610352</ele>
        <time>2016-01-27T13:08:22Z</time>
      </trkpt>
      <trkpt lat="43.40908" lon="6.06964">
        <ele>193.60000610352</ele>
        <time>2016-01-27T13:08:24Z</time>
      </trkpt>
      <trkpt lat="43.40904" lon="6.06973">
        <ele>193.39999389648</ele>
        <time>2016-01-27T13:08:26Z</time>
      </trkpt>
      <trkpt lat="43.40901" lon="6.06976">
        <ele>194</ele>
        <time>2016-01-27T13:08:27Z</time>
      </trkpt>
      <trkpt lat="43.40896" lon="6.0698">
        <ele>194.39999389648</ele>
        <time>2016-01-27T13:08:28Z</time>
      </trkpt>
      <trkpt lat="43.40891" lon="6.06983">
        <ele>194.39999389648</ele>
        <time>2016-01-27T13:08:29Z</time>
      </trkpt>
      <trkpt lat="43.40886" lon="6.06986">
        <ele>193.80000305176</ele>
        <time>2016-01-27T13:08:30Z</time>
      </trkpt>
      <trkpt lat="43.4088" lon="6.06988">
        <ele>193.80000305176</ele>
        <time>2016-01-27T13:08:31Z</time>
      </trkpt>
      <trkpt lat="43.40873" lon="6.0699">
        <ele>194</ele>
        <time>2016-01-27T13:08:32Z</time>
      </trkpt>
      <trkpt lat="43.40868" lon="6.06992">
        <ele>194</ele>
        <time>2016-01-27T13:08:33Z</time>
      </trkpt>
      <trkpt lat="43.40862" lon="6.06993">
        <ele>194</ele>
        <time>2016-01-27T13:08:34Z</time>
      </trkpt>
      <trkpt lat="43.40852" lon="6.06998">
        <ele>194.19999694824</ele>
        <time>2016-01-27T13:08:36Z</time>
      </trkpt>
      <trkpt lat="43.40846" lon="6.07002">
        <ele>193.80000305176</ele>
        <time>2016-01-27T13:08:38Z</time>
      </trkpt>
      <trkpt lat="43.40841" lon="6.07008">
        <ele>193.60000610352</ele>
        <time>2016-01-27T13:08:40Z</time>
      </trkpt>
      <trkpt lat="43.40839" lon="6.07012">
        <ele>193.39999389648</ele>
        <time>2016-01-27T13:08:41Z</time>
      </trkpt>
      <trkpt lat="43.40839" lon="6.07018">
        <ele>193.80000305176</ele>
        <time>2016-01-27T13:08:42Z</time>
      </trkpt>
      <trkpt lat="43.4084" lon="6.07031">
        <ele>193.80000305176</ele>
        <time>2016-01-27T13:08:44Z</time>
      </trkpt>
      <trkpt lat="43.40841" lon="6.07045">
        <ele>194</ele>
        <time>2016-01-27T13:08:46Z</time>
      </trkpt>
      <trkpt lat="43.40843" lon="6.0706">
        <ele>194</ele>
        <time>2016-01-27T13:08:48Z</time>
      </trkpt>
      <trkpt lat="43.40843" lon="6.07068">
        <ele>194</ele>
        <time>2016-01-27T13:08:49Z</time>
      </trkpt>
      <trkpt lat="43.40843" lon="6.07077">
        <ele>194.19999694824</ele>
        <time>2016-01-27T13:08:50Z</time>
      </trkpt>
      <trkpt lat="43.40843" lon="6.07093">
        <ele>194.19999694824</ele>
        <time>2016-01-27T13:08:52Z</time>
      </trkpt>
      <trkpt lat="43.40841" lon="6.07109">
        <ele>194.39999389648</ele>
        <time>2016-01-27T13:08:54Z</time>
      </trkpt>
      <trkpt lat="43.40839" lon="6.07124">
        <ele>194.80000305176</ele>
        <time>2016-01-27T13:08:56Z</time>
      </trkpt>
      <trkpt lat="43.40836" lon="6.07138">
        <ele>194.60000610352</ele>
        <time>2016-01-27T13:08:58Z</time>
      </trkpt>
      <trkpt lat="43.40832" lon="6.07152">
        <ele>194.60000610352</ele>
        <time>2016-01-27T13:09:00Z</time>
      </trkpt>
      <trkpt lat="43.40829" lon="6.07159">
        <ele>194.80000305176</ele>
        <time>2016-01-27T13:09:01Z</time>
      </trkpt>
      <trkpt lat="43.40827" lon="6.07166">
        <ele>194.60000610352</ele>
        <time>2016-01-27T13:09:02Z</time>
      </trkpt>
      <trkpt lat="43.40821" lon="6.07178">
        <ele>194.39999389648</ele>
        <time>2016-01-27T13:09:04Z</time>
      </trkpt>
      <trkpt lat="43.40818" lon="6.07183">
        <ele>194.19999694824</ele>
        <time>2016-01-27T13:09:05Z</time>
      </trkpt>
      <trkpt lat="43.40815" lon="6.07189">
        <ele>194.19999694824</ele>
        <time>2016-01-27T13:09:06Z</time>
      </trkpt>
      <trkpt lat="43.4081" lon="6.07199">
        <ele>194.19999694824</ele>
        <time>2016-01-27T13:09:08Z</time>
      </trkpt>
      <trkpt lat="43.40804" lon="6.07207">
        <ele>194.60000610352</ele>
        <time>2016-01-27T13:09:10Z</time>
      </trkpt>
      <trkpt lat="43.40801" lon="6.07211">
        <ele>194.39999389648</ele>
        <time>2016-01-27T13:09:11Z</time>
      </trkpt>
      <trkpt lat="43.40799" lon="6.07214">
        <ele>194.39999389648</ele>
        <time>2016-01-27T13:09:12Z</time>
      </trkpt>
      <trkpt lat="43.40794" lon="6.07221">
        <ele>194.39999389648</ele>
        <time>2016-01-27T13:09:14Z</time>
      </trkpt>
      <trkpt lat="43.40788" lon="6.07227">
        <ele>194.39999389648</ele>
        <time>2016-01-27T13:09:16Z</time>
      </trkpt>
      <trkpt lat="43.40784" lon="6.0723">
        <ele>194.39999389648</ele>
        <time>2016-01-27T13:09:17Z</time>
      </trkpt>
      <trkpt lat="43.4078" lon="6.07233">
        <ele>194.19999694824</ele>
        <time>2016-01-27T13:09:18Z</time>
      </trkpt>
      <trkpt lat="43.40772" lon="6.07239">
        <ele>194.19999694824</ele>
        <time>2016-01-27T13:09:20Z</time>
      </trkpt>
      <trkpt lat="43.40763" lon="6.07246">
        <ele>194.60000610352</ele>
        <time>2016-01-27T13:09:22Z</time>
      </trkpt>
      <trkpt lat="43.40758" lon="6.07248">
        <ele>194.60000610352</ele>
        <time>2016-01-27T13:09:23Z</time>
      </trkpt>
      <trkpt lat="43.40752" lon="6.07252">
        <ele>194.60000610352</ele>
        <time>2016-01-27T13:09:24Z</time>
      </trkpt>
      <trkpt lat="43.40742" lon="6.07258">
        <ele>194.80000305176</ele>
        <time>2016-01-27T13:09:26Z</time>
      </trkpt>
      <trkpt lat="43.40732" lon="6.07264">
        <ele>194.80000305176</ele>
        <time>2016-01-27T13:09:28Z</time>
      </trkpt>
      <trkpt lat="43.40722" lon="6.0727">
        <ele>195</ele>
        <time>2016-01-27T13:09:30Z</time>
      </trkpt>
      <trkpt lat="43.40717" lon="6.07272">
        <ele>195</ele>
        <time>2016-01-27T13:09:31Z</time>
      </trkpt>
      <trkpt lat="43.40712" lon="6.07275">
        <ele>195</ele>
        <time>2016-01-27T13:09:32Z</time>
      </trkpt>
      <trkpt lat="43.40707" lon="6.07278">
        <ele>195.39999389648</ele>
        <time>2016-01-27T13:09:33Z</time>
      </trkpt>
      <trkpt lat="43.40702" lon="6.0728">
        <ele>195.60000610352</ele>
        <time>2016-01-27T13:09:34Z</time>
      </trkpt>
      <trkpt lat="43.40694" lon="6.07285">
        <ele>195.80000305176</ele>
        <time>2016-01-27T13:09:36Z</time>
      </trkpt>
      <trkpt lat="43.4069" lon="6.07288">
        <ele>195.80000305176</ele>
        <time>2016-01-27T13:09:37Z</time>
      </trkpt>
      <trkpt lat="43.40686" lon="6.0729">
        <ele>196</ele>
        <time>2016-01-27T13:09:38Z</time>
      </trkpt>
      <trkpt lat="43.40677" lon="6.07295">
        <ele>196.39999389648</ele>
        <time>2016-01-27T13:09:40Z</time>
      </trkpt>
      <trkpt lat="43.40673" lon="6.07297">
        <ele>196.60000610352</ele>
        <time>2016-01-27T13:09:41Z</time>
      </trkpt>
      <trkpt lat="43.40669" lon="6.073">
        <ele>196.80000305176</ele>
        <time>2016-01-27T13:09:42Z</time>
      </trkpt>
      <trkpt lat="43.40662" lon="6.07305">
        <ele>197</ele>
        <time>2016-01-27T13:09:44Z</time>
      </trkpt>
      <trkpt lat="43.40654" lon="6.07309">
        <ele>197.39999389648</ele>
        <time>2016-01-27T13:09:46Z</time>
      </trkpt>
      <trkpt lat="43.40646" lon="6.07314">
        <ele>197.39999389648</ele>
        <time>2016-01-27T13:09:48Z</time>
      </trkpt>
      <trkpt lat="43.40639" lon="6.07318">
        <ele>197.39999389648</ele>
        <time>2016-01-27T13:09:50Z</time>
      </trkpt>
      <trkpt lat="43.40636" lon="6.0732">
        <ele>197.39999389648</ele>
        <time>2016-01-27T13:09:51Z</time>
      </trkpt>
      <trkpt lat="43.40632" lon="6.07321">
        <ele>197.60000610352</ele>
        <time>2016-01-27T13:09:52Z</time>
      </trkpt>
      <trkpt lat="43.40629" lon="6.0732">
        <ele>197.80000305176</ele>
        <time>2016-01-27T13:09:53Z</time>
      </trkpt>
      <trkpt lat="43.40625" lon="6.07318">
        <ele>198</ele>
        <time>2016-01-27T13:09:54Z</time>
      </trkpt>
      <trkpt lat="43.40619" lon="6.07313">
        <ele>198.19999694824</ele>
        <time>2016-01-27T13:09:56Z</time>
      </trkpt>
      <trkpt lat="43.40613" lon="6.07306">
        <ele>198.39999389648</ele>
        <time>2016-01-27T13:09:58Z</time>
      </trkpt>
      <trkpt lat="43.4061" lon="6.07303">
        <ele>198.39999389648</ele>
        <time>2016-01-27T13:09:59Z</time>
      </trkpt>
      <trkpt lat="43.40607" lon="6.07299">
        <ele>198.60000610352</ele>
        <time>2016-01-27T13:10:00Z</time>
      </trkpt>
      <trkpt lat="43.40601" lon="6.07292">
        <ele>198.80000305176</ele>
        <time>2016-01-27T13:10:02Z</time>
      </trkpt>
      <trkpt lat="43.40595" lon="6.07289">
        <ele>199</ele>
        <time>2016-01-27T13:10:04Z</time>
      </trkpt>
      <trkpt lat="43.40593" lon="6.07291">
        <ele>199.19999694824</ele>
        <time>2016-01-27T13:10:05Z</time>
      </trkpt>
      <trkpt lat="43.40591" lon="6.07292">
        <ele>199.39999389648</ele>
        <time>2016-01-27T13:10:06Z</time>
      </trkpt>
      <trkpt lat="43.40588" lon="6.07294">
        <ele>199.60000610352</ele>
        <time>2016-01-27T13:10:08Z</time>
      </trkpt>
      <trkpt lat="43.40586" lon="6.07295">
        <ele>199.39999389648</ele>
        <time>2016-01-27T13:10:09Z</time>
      </trkpt>
      <trkpt lat="43.40585" lon="6.07295">
        <ele>199.60000610352</ele>
        <time>2016-01-27T13:10:10Z</time>
      </trkpt>
      <trkpt lat="43.40583" lon="6.07294">
        <ele>199.80000305176</ele>
        <time>2016-01-27T13:10:11Z</time>
      </trkpt>
      <trkpt lat="43.40583" lon="6.07292">
        <ele>199.60000610352</ele>
        <time>2016-01-27T13:10:12Z</time>
      </trkpt>
      <trkpt lat="43.40583" lon="6.07293">
        <ele>199.60000610352</ele>
        <time>2016-01-27T13:10:13Z</time>
      </trkpt>
      <trkpt lat="43.40583" lon="6.07293">
        <ele>199.60000610352</ele>
        <time>2016-01-27T13:10:16Z</time>
      </trkpt>
      <trkpt lat="43.40583" lon="6.07292">
        <ele>199.60000610352</ele>
        <time>2016-01-27T13:10:18Z</time>
      </trkpt>
      <trkpt lat="43.40583" lon="6.07293">
        <ele>199.80000305176</ele>
        <time>2016-01-27T13:10:20Z</time>
      </trkpt>
      <trkpt lat="43.40583" lon="6.07293">
        <ele>199.60000610352</ele>
        <time>2016-01-27T13:10:22Z</time>
      </trkpt>
      <trkpt lat="43.40583" lon="6.07293">
        <ele>199.39999389648</ele>
        <time>2016-01-27T13:10:24Z</time>
      </trkpt>
      <trkpt lat="43.40582" lon="6.07294">
        <ele>199.60000610352</ele>
        <time>2016-01-27T13:10:25Z</time>
      </trkpt>
      <trkpt lat="43.4058" lon="6.07295">
        <ele>199.80000305176</ele>
        <time>2016-01-27T13:10:26Z</time>
      </trkpt>
      <trkpt lat="43.40578" lon="6.07297">
        <ele>199.80000305176</ele>
        <time>2016-01-27T13:10:28Z</time>
      </trkpt>
      <trkpt lat="43.40576" lon="6.07295">
        <ele>200</ele>
        <time>2016-01-27T13:10:30Z</time>
      </trkpt>
      <trkpt lat="43.40574" lon="6.07296">
        <ele>200</ele>
        <time>2016-01-27T13:10:32Z</time>
      </trkpt>
      <trkpt lat="43.4057" lon="6.07297">
        <ele>199.80000305176</ele>
        <time>2016-01-27T13:10:34Z</time>
      </trkpt>
      <trkpt lat="43.40569" lon="6.07297">
        <ele>199.80000305176</ele>
        <time>2016-01-27T13:10:35Z</time>
      </trkpt>
      <trkpt lat="43.40567" lon="6.07297">
        <ele>200</ele>
        <time>2016-01-27T13:10:36Z</time>
      </trkpt>
      <trkpt lat="43.40564" lon="6.07296">
        <ele>200</ele>
        <time>2016-01-27T13:10:38Z</time>
      </trkpt>
      <trkpt lat="43.4056" lon="6.07295">
        <ele>200.39999389648</ele>
        <time>2016-01-27T13:10:40Z</time>
      </trkpt>
      <trkpt lat="43.40556" lon="6.07295">
        <ele>200.60000610352</ele>
        <time>2016-01-27T13:10:42Z</time>
      </trkpt>
      <trkpt lat="43.40551" lon="6.07294">
        <ele>200.80000305176</ele>
        <time>2016-01-27T13:10:44Z</time>
      </trkpt>
      <trkpt lat="43.40546" lon="6.07293">
        <ele>200.80000305176</ele>
        <time>2016-01-27T13:10:46Z</time>
      </trkpt>
      <trkpt lat="43.40543" lon="6.07293">
        <ele>200.80000305176</ele>
        <time>2016-01-27T13:10:47Z</time>
      </trkpt>
      <trkpt lat="43.40541" lon="6.07292">
        <ele>200.80000305176</ele>
        <time>2016-01-27T13:10:48Z</time>
      </trkpt>
      <trkpt lat="43.40535" lon="6.07291">
        <ele>200.80000305176</ele>
        <time>2016-01-27T13:10:50Z</time>
      </trkpt>
      <trkpt lat="43.40528" lon="6.07288">
        <ele>200.80000305176</ele>
        <time>2016-01-27T13:10:52Z</time>
      </trkpt>
      <trkpt lat="43.40525" lon="6.07286">
        <ele>200.39999389648</ele>
        <time>2016-01-27T13:10:53Z</time>
      </trkpt>
      <trkpt lat="43.40522" lon="6.07285">
        <ele>200.39999389648</ele>
        <time>2016-01-27T13:10:54Z</time>
      </trkpt>
      <trkpt lat="43.40514" lon="6.07282">
        <ele>200.80000305176</ele>
        <time>2016-01-27T13:10:56Z</time>
      </trkpt>
      <trkpt lat="43.40508" lon="6.07278">
        <ele>201</ele>
        <time>2016-01-27T13:10:58Z</time>
      </trkpt>
      <trkpt lat="43.40501" lon="6.07275">
        <ele>201</ele>
        <time>2016-01-27T13:11:00Z</time>
      </trkpt>
      <trkpt lat="43.40494" lon="6.07274">
        <ele>201.19999694824</ele>
        <time>2016-01-27T13:11:02Z</time>
      </trkpt>
      <trkpt lat="43.4049" lon="6.07274">
        <ele>201.19999694824</ele>
        <time>2016-01-27T13:11:03Z</time>
      </trkpt>
      <trkpt lat="43.40486" lon="6.07274">
        <ele>201.39999389648</ele>
        <time>2016-01-27T13:11:04Z</time>
      </trkpt>
      <trkpt lat="43.40482" lon="6.07274">
        <ele>201.39999389648</ele>
        <time>2016-01-27T13:11:05Z</time>
      </trkpt>
      <trkpt lat="43.40477" lon="6.07274">
        <ele>201.60000610352</ele>
        <time>2016-01-27T13:11:06Z</time>
      </trkpt>
      <trkpt lat="43.40468" lon="6.07274">
        <ele>201.80000305176</ele>
        <time>2016-01-27T13:11:08Z</time>
      </trkpt>
      <trkpt lat="43.40459" lon="6.07274">
        <ele>202.19999694824</ele>
        <time>2016-01-27T13:11:10Z</time>
      </trkpt>
      <trkpt lat="43.40451" lon="6.07275">
        <ele>202.80000305176</ele>
        <time>2016-01-27T13:11:12Z</time>
      </trkpt>
      <trkpt lat="43.40448" lon="6.07275">
        <ele>203</ele>
        <time>2016-01-27T13:11:13Z</time>
      </trkpt>
      <trkpt lat="43.40443" lon="6.07276">
        <ele>203.19999694824</ele>
        <time>2016-01-27T13:11:14Z</time>
      </trkpt>
      <trkpt lat="43.40435" lon="6.07277">
        <ele>203.19999694824</ele>
        <time>2016-01-27T13:11:16Z</time>
      </trkpt>
      <trkpt lat="43.40428" lon="6.07277">
        <ele>203.60000610352</ele>
        <time>2016-01-27T13:11:18Z</time>
      </trkpt>
      <trkpt lat="43.4042" lon="6.07278">
        <ele>204</ele>
        <time>2016-01-27T13:11:20Z</time>
      </trkpt>
      <trkpt lat="43.40413" lon="6.07278">
        <ele>204.39999389648</ele>
        <time>2016-01-27T13:11:22Z</time>
      </trkpt>
      <trkpt lat="43.4041" lon="6.07277">
        <ele>204.60000610352</ele>
        <time>2016-01-27T13:11:23Z</time>
      </trkpt>
      <trkpt lat="43.40406" lon="6.07275">
        <ele>204.60000610352</ele>
        <time>2016-01-27T13:11:24Z</time>
      </trkpt>
      <trkpt lat="43.40403" lon="6.07272">
        <ele>204.80000305176</ele>
        <time>2016-01-27T13:11:25Z</time>
      </trkpt>
      <trkpt lat="43.404" lon="6.07269">
        <ele>205</ele>
        <time>2016-01-27T13:11:26Z</time>
      </trkpt>
      <trkpt lat="43.40397" lon="6.07265">
        <ele>205.19999694824</ele>
        <time>2016-01-27T13:11:27Z</time>
      </trkpt>
      <trkpt lat="43.40395" lon="6.0726">
        <ele>205.39999389648</ele>
        <time>2016-01-27T13:11:28Z</time>
      </trkpt>
      <trkpt lat="43.40389" lon="6.07251">
        <ele>205.60000610352</ele>
        <time>2016-01-27T13:11:30Z</time>
      </trkpt>
      <trkpt lat="43.40381" lon="6.07245">
        <ele>205.60000610352</ele>
        <time>2016-01-27T13:11:32Z</time>
      </trkpt>
      <trkpt lat="43.40372" lon="6.07242">
        <ele>205.60000610352</ele>
        <time>2016-01-27T13:11:34Z</time>
      </trkpt>
      <trkpt lat="43.40364" lon="6.07238">
        <ele>205.80000305176</ele>
        <time>2016-01-27T13:11:36Z</time>
      </trkpt>
      <trkpt lat="43.40361" lon="6.07235">
        <ele>205.80000305176</ele>
        <time>2016-01-27T13:11:37Z</time>
      </trkpt>
      <trkpt lat="43.40358" lon="6.07231">
        <ele>206</ele>
        <time>2016-01-27T13:11:38Z</time>
      </trkpt>
      <trkpt lat="43.40351" lon="6.07225">
        <ele>206.39999389648</ele>
        <time>2016-01-27T13:11:40Z</time>
      </trkpt>
      <trkpt lat="43.40343" lon="6.07221">
        <ele>206.60000610352</ele>
        <time>2016-01-27T13:11:42Z</time>
      </trkpt>
      <trkpt lat="43.4034" lon="6.0722">
        <ele>206.60000610352</ele>
        <time>2016-01-27T13:11:43Z</time>
      </trkpt>
      <trkpt lat="43.40335" lon="6.07219">
        <ele>206.80000305176</ele>
        <time>2016-01-27T13:11:44Z</time>
      </trkpt>
      <trkpt lat="43.40328" lon="6.07216">
        <ele>207.19999694824</ele>
        <time>2016-01-27T13:11:46Z</time>
      </trkpt>
      <trkpt lat="43.40321" lon="6.07213">
        <ele>207.39999389648</ele>
        <time>2016-01-27T13:11:48Z</time>
      </trkpt>
      <trkpt lat="43.40313" lon="6.07209">
        <ele>207.60000610352</ele>
        <time>2016-01-27T13:11:50Z</time>
      </trkpt>
      <trkpt lat="43.4031" lon="6.07208">
        <ele>207.80000305176</ele>
        <time>2016-01-27T13:11:51Z</time>
      </trkpt>
      <trkpt lat="43.40305" lon="6.07205">
        <ele>208</ele>
        <time>2016-01-27T13:11:52Z</time>
      </trkpt>
      <trkpt lat="43.40299" lon="6.07199">
        <ele>208.19999694824</ele>
        <time>2016-01-27T13:11:54Z</time>
      </trkpt>
      <trkpt lat="43.40292" lon="6.07192">
        <ele>208.39999389648</ele>
        <time>2016-01-27T13:11:56Z</time>
      </trkpt>
      <trkpt lat="43.40289" lon="6.07189">
        <ele>208.60000610352</ele>
        <time>2016-01-27T13:11:57Z</time>
      </trkpt>
      <trkpt lat="43.40286" lon="6.07185">
        <ele>208.60000610352</ele>
        <time>2016-01-27T13:11:58Z</time>
      </trkpt>
      <trkpt lat="43.40281" lon="6.07177">
        <ele>208.60000610352</ele>
        <time>2016-01-27T13:12:00Z</time>
      </trkpt>
      <trkpt lat="43.40275" lon="6.0717">
        <ele>208.80000305176</ele>
        <time>2016-01-27T13:12:02Z</time>
      </trkpt>
      <trkpt lat="43.40268" lon="6.07166">
        <ele>208.19999694824</ele>
        <time>2016-01-27T13:12:04Z</time>
      </trkpt>
      <trkpt lat="43.40262" lon="6.07163">
        <ele>208.19999694824</ele>
        <time>2016-01-27T13:12:06Z</time>
      </trkpt>
      <trkpt lat="43.40255" lon="6.07163">
        <ele>208.19999694824</ele>
        <time>2016-01-27T13:12:08Z</time>
      </trkpt>
      <trkpt lat="43.40252" lon="6.07163">
        <ele>208.19999694824</ele>
        <time>2016-01-27T13:12:09Z</time>
      </trkpt>
      <trkpt lat="43.40248" lon="6.07163">
        <ele>208.19999694824</ele>
        <time>2016-01-27T13:12:10Z</time>
      </trkpt>
      <trkpt lat="43.40242" lon="6.07164">
        <ele>208.60000610352</ele>
        <time>2016-01-27T13:12:12Z</time>
      </trkpt>
      <trkpt lat="43.40237" lon="6.07165">
        <ele>208.80000305176</ele>
        <time>2016-01-27T13:12:14Z</time>
      </trkpt>
      <trkpt lat="43.40231" lon="6.07166">
        <ele>209.19999694824</ele>
        <time>2016-01-27T13:12:16Z</time>
      </trkpt>
      <trkpt lat="43.40225" lon="6.07167">
        <ele>209.60000610352</ele>
        <time>2016-01-27T13:12:18Z</time>
      </trkpt>
      <trkpt lat="43.40219" lon="6.0717">
        <ele>209.80000305176</ele>
        <time>2016-01-27T13:12:20Z</time>
      </trkpt>
      <trkpt lat="43.40214" lon="6.07173">
        <ele>210.39999389648</ele>
        <time>2016-01-27T13:12:22Z</time>
      </trkpt>
      <trkpt lat="43.40211" lon="6.07174">
        <ele>210.80000305176</ele>
        <time>2016-01-27T13:12:23Z</time>
      </trkpt>
      <trkpt lat="43.40209" lon="6.07175">
        <ele>211.19999694824</ele>
        <time>2016-01-27T13:12:24Z</time>
      </trkpt>
      <trkpt lat="43.40204" lon="6.07178">
        <ele>211.39999389648</ele>
        <time>2016-01-27T13:12:26Z</time>
      </trkpt>
      <trkpt lat="43.402" lon="6.0718">
        <ele>211.80000305176</ele>
        <time>2016-01-27T13:12:28Z</time>
      </trkpt>
      <trkpt lat="43.40198" lon="6.07182">
        <ele>212.19999694824</ele>
        <time>2016-01-27T13:12:29Z</time>
      </trkpt>
      <trkpt lat="43.40195" lon="6.07183">
        <ele>212.39999389648</ele>
        <time>2016-01-27T13:12:30Z</time>
      </trkpt>
      <trkpt lat="43.40191" lon="6.07186">
        <ele>212.80000305176</ele>
        <time>2016-01-27T13:12:32Z</time>
      </trkpt>
      <trkpt lat="43.40189" lon="6.07187">
        <ele>213</ele>
        <time>2016-01-27T13:12:33Z</time>
      </trkpt>
      <trkpt lat="43.40186" lon="6.07188">
        <ele>213.39999389648</ele>
        <time>2016-01-27T13:12:34Z</time>
      </trkpt>
      <trkpt lat="43.40182" lon="6.07191">
        <ele>213.80000305176</ele>
        <time>2016-01-27T13:12:36Z</time>
      </trkpt>
      <trkpt lat="43.4018" lon="6.07192">
        <ele>214.19999694824</ele>
        <time>2016-01-27T13:12:37Z</time>
      </trkpt>
      <trkpt lat="43.40178" lon="6.07194">
        <ele>214.60000610352</ele>
        <time>2016-01-27T13:12:38Z</time>
      </trkpt>
      <trkpt lat="43.40173" lon="6.07197">
        <ele>215</ele>
        <time>2016-01-27T13:12:40Z</time>
      </trkpt>
      <trkpt lat="43.40169" lon="6.07201">
        <ele>215.39999389648</ele>
        <time>2016-01-27T13:12:42Z</time>
      </trkpt>
      <trkpt lat="43.40165" lon="6.07204">
        <ele>215.80000305176</ele>
        <time>2016-01-27T13:12:44Z</time>
      </trkpt>
      <trkpt lat="43.40163" lon="6.07206">
        <ele>216.19999694824</ele>
        <time>2016-01-27T13:12:45Z</time>
      </trkpt>
      <trkpt lat="43.40161" lon="6.07209">
        <ele>216.39999389648</ele>
        <time>2016-01-27T13:12:46Z</time>
      </trkpt>
      <trkpt lat="43.40159" lon="6.0721">
        <ele>216.60000610352</ele>
        <time>2016-01-27T13:12:47Z</time>
      </trkpt>
      <trkpt lat="43.40157" lon="6.07213">
        <ele>216.80000305176</ele>
        <time>2016-01-27T13:12:48Z</time>
      </trkpt>
      <trkpt lat="43.40153" lon="6.07217">
        <ele>217</ele>
        <time>2016-01-27T13:12:50Z</time>
      </trkpt>
      <trkpt lat="43.40152" lon="6.07219">
        <ele>217.19999694824</ele>
        <time>2016-01-27T13:12:51Z</time>
      </trkpt>
      <trkpt lat="43.40151" lon="6.0722">
        <ele>217.19999694824</ele>
        <time>2016-01-27T13:12:52Z</time>
      </trkpt>
      <trkpt lat="43.4015" lon="6.07222">
        <ele>217.19999694824</ele>
        <time>2016-01-27T13:12:53Z</time>
      </trkpt>
      <trkpt lat="43.40149" lon="6.07224">
        <ele>217.39999389648</ele>
        <time>2016-01-27T13:12:54Z</time>
      </trkpt>
      <trkpt lat="43.40148" lon="6.07229">
        <ele>217.60000610352</ele>
        <time>2016-01-27T13:12:56Z</time>
      </trkpt>
      <trkpt lat="43.40147" lon="6.07234">
        <ele>217.60000610352</ele>
        <time>2016-01-27T13:12:58Z</time>
      </trkpt>
      <trkpt lat="43.40146" lon="6.07241">
        <ele>217.80000305176</ele>
        <time>2016-01-27T13:13:00Z</time>
      </trkpt>
      <trkpt lat="43.40146" lon="6.07247">
        <ele>218</ele>
        <time>2016-01-27T13:13:02Z</time>
      </trkpt>
      <trkpt lat="43.40147" lon="6.0725">
        <ele>218</ele>
        <time>2016-01-27T13:13:03Z</time>
      </trkpt>
      <trkpt lat="43.40147" lon="6.07254">
        <ele>218</ele>
        <time>2016-01-27T13:13:04Z</time>
      </trkpt>
      <trkpt lat="43.40147" lon="6.07262">
        <ele>218</ele>
        <time>2016-01-27T13:13:06Z</time>
      </trkpt>
      <trkpt lat="43.40147" lon="6.07271">
        <ele>218.19999694824</ele>
        <time>2016-01-27T13:13:08Z</time>
      </trkpt>
      <trkpt lat="43.40148" lon="6.07279">
        <ele>218.19999694824</ele>
        <time>2016-01-27T13:13:10Z</time>
      </trkpt>
      <trkpt lat="43.40148" lon="6.07284">
        <ele>218.19999694824</ele>
        <time>2016-01-27T13:13:11Z</time>
      </trkpt>
      <trkpt lat="43.40147" lon="6.07289">
        <ele>218.39999389648</ele>
        <time>2016-01-27T13:13:12Z</time>
      </trkpt>
      <trkpt lat="43.40147" lon="6.07298">
        <ele>218.39999389648</ele>
        <time>2016-01-27T13:13:14Z</time>
      </trkpt>
      <trkpt lat="43.40147" lon="6.07308">
        <ele>218.60000610352</ele>
        <time>2016-01-27T13:13:16Z</time>
      </trkpt>
      <trkpt lat="43.40146" lon="6.07317">
        <ele>218.39999389648</ele>
        <time>2016-01-27T13:13:18Z</time>
      </trkpt>
      <trkpt lat="43.40146" lon="6.07321">
        <ele>218.39999389648</ele>
        <time>2016-01-27T13:13:19Z</time>
      </trkpt>
      <trkpt lat="43.40145" lon="6.07325">
        <ele>218.39999389648</ele>
        <time>2016-01-27T13:13:20Z</time>
      </trkpt>
      <trkpt lat="43.40144" lon="6.07334">
        <ele>218.60000610352</ele>
        <time>2016-01-27T13:13:22Z</time>
      </trkpt>
      <trkpt lat="43.40143" lon="6.07343">
        <ele>218.60000610352</ele>
        <time>2016-01-27T13:13:24Z</time>
      </trkpt>
      <trkpt lat="43.40142" lon="6.07352">
        <ele>218.80000305176</ele>
        <time>2016-01-27T13:13:26Z</time>
      </trkpt>
      <trkpt lat="43.40141" lon="6.0736">
        <ele>219</ele>
        <time>2016-01-27T13:13:28Z</time>
      </trkpt>
      <trkpt lat="43.4014" lon="6.07369">
        <ele>219</ele>
        <time>2016-01-27T13:13:30Z</time>
      </trkpt>
      <trkpt lat="43.40139" lon="6.07377">
        <ele>219.39999389648</ele>
        <time>2016-01-27T13:13:32Z</time>
      </trkpt>
      <trkpt lat="43.40139" lon="6.07386">
        <ele>219.39999389648</ele>
        <time>2016-01-27T13:13:34Z</time>
      </trkpt>
      <trkpt lat="43.4014" lon="6.07395">
        <ele>219.60000610352</ele>
        <time>2016-01-27T13:13:36Z</time>
      </trkpt>
      <trkpt lat="43.40141" lon="6.07404">
        <ele>219.60000610352</ele>
        <time>2016-01-27T13:13:38Z</time>
      </trkpt>
      <trkpt lat="43.40144" lon="6.07413">
        <ele>220</ele>
        <time>2016-01-27T13:13:40Z</time>
      </trkpt>
      <trkpt lat="43.40145" lon="6.07422">
        <ele>219.80000305176</ele>
        <time>2016-01-27T13:13:42Z</time>
      </trkpt>
      <trkpt lat="43.40147" lon="6.07431">
        <ele>220</ele>
        <time>2016-01-27T13:13:44Z</time>
      </trkpt>
      <trkpt lat="43.40148" lon="6.07439">
        <ele>220.39999389648</ele>
        <time>2016-01-27T13:13:46Z</time>
      </trkpt>
      <trkpt lat="43.40147" lon="6.07447">
        <ele>220.39999389648</ele>
        <time>2016-01-27T13:13:48Z</time>
      </trkpt>
      <trkpt lat="43.40147" lon="6.07456">
        <ele>220.60000610352</ele>
        <time>2016-01-27T13:13:50Z</time>
      </trkpt>
      <trkpt lat="43.40147" lon="6.0746">
        <ele>220.60000610352</ele>
        <time>2016-01-27T13:13:51Z</time>
      </trkpt>
      <trkpt lat="43.40147" lon="6.07464">
        <ele>220.80000305176</ele>
        <time>2016-01-27T13:13:52Z</time>
      </trkpt>
      <trkpt lat="43.40145" lon="6.07473">
        <ele>220.80000305176</ele>
        <time>2016-01-27T13:13:54Z</time>
      </trkpt>
      <trkpt lat="43.40144" lon="6.07481">
        <ele>221</ele>
        <time>2016-01-27T13:13:56Z</time>
      </trkpt>
      <trkpt lat="43.40144" lon="6.07484">
        <ele>221.19999694824</ele>
        <time>2016-01-27T13:13:57Z</time>
      </trkpt>
      <trkpt lat="43.40143" lon="6.07488">
        <ele>221.60000610352</ele>
        <time>2016-01-27T13:13:58Z</time>
      </trkpt>
      <trkpt lat="43.40141" lon="6.07496">
        <ele>222</ele>
        <time>2016-01-27T13:14:00Z</time>
      </trkpt>
      <trkpt lat="43.40139" lon="6.07503">
        <ele>222.39999389648</ele>
        <time>2016-01-27T13:14:02Z</time>
      </trkpt>
      <trkpt lat="43.40137" lon="6.07509">
        <ele>222.80000305176</ele>
        <time>2016-01-27T13:14:04Z</time>
      </trkpt>
      <trkpt lat="43.40136" lon="6.07512">
        <ele>223.39999389648</ele>
        <time>2016-01-27T13:14:05Z</time>
      </trkpt>
      <trkpt lat="43.40135" lon="6.07515">
        <ele>223.60000610352</ele>
        <time>2016-01-27T13:14:06Z</time>
      </trkpt>
      <trkpt lat="43.40132" lon="6.07521">
        <ele>223.60000610352</ele>
        <time>2016-01-27T13:14:08Z</time>
      </trkpt>
      <trkpt lat="43.40129" lon="6.07528">
        <ele>224</ele>
        <time>2016-01-27T13:14:10Z</time>
      </trkpt>
      <trkpt lat="43.40126" lon="6.07534">
        <ele>224</ele>
        <time>2016-01-27T13:14:12Z</time>
      </trkpt>
      <trkpt lat="43.40125" lon="6.07537">
        <ele>224.19999694824</ele>
        <time>2016-01-27T13:14:13Z</time>
      </trkpt>
      <trkpt lat="43.40123" lon="6.07541">
        <ele>224.19999694824</ele>
        <time>2016-01-27T13:14:14Z</time>
      </trkpt>
      <trkpt lat="43.4012" lon="6.07547">
        <ele>224.19999694824</ele>
        <time>2016-01-27T13:14:16Z</time>
      </trkpt>
      <trkpt lat="43.40117" lon="6.07554">
        <ele>224.39999389648</ele>
        <time>2016-01-27T13:14:18Z</time>
      </trkpt>
      <trkpt lat="43.40113" lon="6.0756">
        <ele>224.80000305176</ele>
        <time>2016-01-27T13:14:20Z</time>
      </trkpt>
      <trkpt lat="43.40111" lon="6.07563">
        <ele>224.60000610352</ele>
        <time>2016-01-27T13:14:21Z</time>
      </trkpt>
      <trkpt lat="43.40109" lon="6.07566">
        <ele>224.60000610352</ele>
        <time>2016-01-27T13:14:22Z</time>
      </trkpt>
      <trkpt lat="43.40105" lon="6.07572">
        <ele>225</ele>
        <time>2016-01-27T13:14:24Z</time>
      </trkpt>
      <trkpt lat="43.40102" lon="6.07579">
        <ele>225</ele>
        <time>2016-01-27T13:14:26Z</time>
      </trkpt>
      <trkpt lat="43.40099" lon="6.07585">
        <ele>224.80000305176</ele>
        <time>2016-01-27T13:14:28Z</time>
      </trkpt>
      <trkpt lat="43.40097" lon="6.07588">
        <ele>224.80000305176</ele>
        <time>2016-01-27T13:14:29Z</time>
      </trkpt>
      <trkpt lat="43.40096" lon="6.07591">
        <ele>224.80000305176</ele>
        <time>2016-01-27T13:14:30Z</time>
      </trkpt>
      <trkpt lat="43.40095" lon="6.07598">
        <ele>225</ele>
        <time>2016-01-27T13:14:32Z</time>
      </trkpt>
      <trkpt lat="43.40094" lon="6.07604">
        <ele>225.39999389648</ele>
        <time>2016-01-27T13:14:34Z</time>
      </trkpt>
      <trkpt lat="43.40094" lon="6.07606">
        <ele>225.60000610352</ele>
        <time>2016-01-27T13:14:35Z</time>
      </trkpt>
      <trkpt lat="43.40094" lon="6.0761">
        <ele>225.80000305176</ele>
        <time>2016-01-27T13:14:36Z</time>
      </trkpt>
      <trkpt lat="43.40094" lon="6.07617">
        <ele>226</ele>
        <time>2016-01-27T13:14:38Z</time>
      </trkpt>
      <trkpt lat="43.40094" lon="6.07623">
        <ele>226.19999694824</ele>
        <time>2016-01-27T13:14:40Z</time>
      </trkpt>
      <trkpt lat="43.40094" lon="6.07629">
        <ele>226.60000610352</ele>
        <time>2016-01-27T13:14:42Z</time>
      </trkpt>
      <trkpt lat="43.40093" lon="6.07632">
        <ele>226.80000305176</ele>
        <time>2016-01-27T13:14:43Z</time>
      </trkpt>
      <trkpt lat="43.40093" lon="6.07636">
        <ele>227</ele>
        <time>2016-01-27T13:14:44Z</time>
      </trkpt>
      <trkpt lat="43.40093" lon="6.07638">
        <ele>227.19999694824</ele>
        <time>2016-01-27T13:14:45Z</time>
      </trkpt>
      <trkpt lat="43.40093" lon="6.07642">
        <ele>227.39999389648</ele>
        <time>2016-01-27T13:14:46Z</time>
      </trkpt>
      <trkpt lat="43.40092" lon="6.07647">
        <ele>227.80000305176</ele>
        <time>2016-01-27T13:14:48Z</time>
      </trkpt>
      <trkpt lat="43.40091" lon="6.07653">
        <ele>228.19999694824</ele>
        <time>2016-01-27T13:14:50Z</time>
      </trkpt>
      <trkpt lat="43.4009" lon="6.07658">
        <ele>228.60000610352</ele>
        <time>2016-01-27T13:14:52Z</time>
      </trkpt>
      <trkpt lat="43.40089" lon="6.07661">
        <ele>228.80000305176</ele>
        <time>2016-01-27T13:14:53Z</time>
      </trkpt>
      <trkpt lat="43.40088" lon="6.07664">
        <ele>229</ele>
        <time>2016-01-27T13:14:54Z</time>
      </trkpt>
      <trkpt lat="43.40086" lon="6.07669">
        <ele>229.19999694824</ele>
        <time>2016-01-27T13:14:56Z</time>
      </trkpt>
      <trkpt lat="43.40084" lon="6.07674">
        <ele>229.80000305176</ele>
        <time>2016-01-27T13:14:58Z</time>
      </trkpt>
      <trkpt lat="43.40081" lon="6.07679">
        <ele>230.39999389648</ele>
        <time>2016-01-27T13:15:00Z</time>
      </trkpt>
      <trkpt lat="43.40079" lon="6.07684">
        <ele>230.60000610352</ele>
        <time>2016-01-27T13:15:02Z</time>
      </trkpt>
      <trkpt lat="43.40078" lon="6.07686">
        <ele>230.39999389648</ele>
        <time>2016-01-27T13:15:03Z</time>
      </trkpt>
      <trkpt lat="43.40077" lon="6.07689">
        <ele>230.60000610352</ele>
        <time>2016-01-27T13:15:04Z</time>
      </trkpt>
      <trkpt lat="43.40074" lon="6.07693">
        <ele>231</ele>
        <time>2016-01-27T13:15:06Z</time>
      </trkpt>
      <trkpt lat="43.40073" lon="6.07695">
        <ele>231.19999694824</ele>
        <time>2016-01-27T13:15:07Z</time>
      </trkpt>
      <trkpt lat="43.40071" lon="6.07697">
        <ele>231.39999389648</ele>
        <time>2016-01-27T13:15:08Z</time>
      </trkpt>
      <trkpt lat="43.40068" lon="6.07702">
        <ele>231.39999389648</ele>
        <time>2016-01-27T13:15:10Z</time>
      </trkpt>
      <trkpt lat="43.40067" lon="6.07704">
        <ele>231.39999389648</ele>
        <time>2016-01-27T13:15:11Z</time>
      </trkpt>
      <trkpt lat="43.40064" lon="6.07705">
        <ele>231.60000610352</ele>
        <time>2016-01-27T13:15:12Z</time>
      </trkpt>
      <trkpt lat="43.40061" lon="6.0771">
        <ele>231.60000610352</ele>
        <time>2016-01-27T13:15:14Z</time>
      </trkpt>
      <trkpt lat="43.40057" lon="6.07715">
        <ele>231.80000305176</ele>
        <time>2016-01-27T13:15:16Z</time>
      </trkpt>
      <trkpt lat="43.40054" lon="6.0772">
        <ele>232</ele>
        <time>2016-01-27T13:15:18Z</time>
      </trkpt>
      <trkpt lat="43.40052" lon="6.07722">
        <ele>232</ele>
        <time>2016-01-27T13:15:19Z</time>
      </trkpt>
      <trkpt lat="43.4005" lon="6.07725">
        <ele>231.80000305176</ele>
        <time>2016-01-27T13:15:20Z</time>
      </trkpt>
      <trkpt lat="43.40047" lon="6.0773">
        <ele>232</ele>
        <time>2016-01-27T13:15:22Z</time>
      </trkpt>
      <trkpt lat="43.40045" lon="6.07733">
        <ele>232.19999694824</ele>
        <time>2016-01-27T13:15:23Z</time>
      </trkpt>
      <trkpt lat="43.40043" lon="6.07736">
        <ele>232.19999694824</ele>
        <time>2016-01-27T13:15:24Z</time>
      </trkpt>
      <trkpt lat="43.40041" lon="6.07738">
        <ele>232.19999694824</ele>
        <time>2016-01-27T13:15:25Z</time>
      </trkpt>
      <trkpt lat="43.4004" lon="6.07741">
        <ele>232.19999694824</ele>
        <time>2016-01-27T13:15:26Z</time>
      </trkpt>
      <trkpt lat="43.40037" lon="6.07748">
        <ele>232.19999694824</ele>
        <time>2016-01-27T13:15:28Z</time>
      </trkpt>
      <trkpt lat="43.40034" lon="6.07754">
        <ele>232.19999694824</ele>
        <time>2016-01-27T13:15:30Z</time>
      </trkpt>
      <trkpt lat="43.40034" lon="6.07757">
        <ele>232.19999694824</ele>
        <time>2016-01-27T13:15:31Z</time>
      </trkpt>
      <trkpt lat="43.40033" lon="6.0776">
        <ele>232.19999694824</ele>
        <time>2016-01-27T13:15:32Z</time>
      </trkpt>
      <trkpt lat="43.40031" lon="6.07767">
        <ele>232.39999389648</ele>
        <time>2016-01-27T13:15:34Z</time>
      </trkpt>
      <trkpt lat="43.40028" lon="6.07772">
        <ele>232.80000305176</ele>
        <time>2016-01-27T13:15:36Z</time>
      </trkpt>
      <trkpt lat="43.40026" lon="6.07779">
        <ele>232.80000305176</ele>
        <time>2016-01-27T13:15:38Z</time>
      </trkpt>
      <trkpt lat="43.40026" lon="6.07782">
        <ele>232.60000610352</ele>
        <time>2016-01-27T13:15:39Z</time>
      </trkpt>
      <trkpt lat="43.40025" lon="6.07786">
        <ele>232.60000610352</ele>
        <time>2016-01-27T13:15:40Z</time>
      </trkpt>
      <trkpt lat="43.40022" lon="6.07793">
        <ele>232.60000610352</ele>
        <time>2016-01-27T13:15:42Z</time>
      </trkpt>
      <trkpt lat="43.4002" lon="6.07799">
        <ele>232.80000305176</ele>
        <time>2016-01-27T13:15:44Z</time>
      </trkpt>
      <trkpt lat="43.40018" lon="6.07802">
        <ele>233</ele>
        <time>2016-01-27T13:15:45Z</time>
      </trkpt>
      <trkpt lat="43.40017" lon="6.07805">
        <ele>233</ele>
        <time>2016-01-27T13:15:46Z</time>
      </trkpt>
      <trkpt lat="43.40015" lon="6.07812">
        <ele>233.19999694824</ele>
        <time>2016-01-27T13:15:48Z</time>
      </trkpt>
      <trkpt lat="43.40014" lon="6.07819">
        <ele>233.19999694824</ele>
        <time>2016-01-27T13:15:50Z</time>
      </trkpt>
      <trkpt lat="43.40012" lon="6.07826">
        <ele>233.39999389648</ele>
        <time>2016-01-27T13:15:52Z</time>
      </trkpt>
      <trkpt lat="43.40012" lon="6.07829">
        <ele>233.60000610352</ele>
        <time>2016-01-27T13:15:53Z</time>
      </trkpt>
      <trkpt lat="43.4001" lon="6.07833">
        <ele>233.60000610352</ele>
        <time>2016-01-27T13:15:54Z</time>
      </trkpt>
      <trkpt lat="43.40008" lon="6.07841">
        <ele>233.39999389648</ele>
        <time>2016-01-27T13:15:56Z</time>
      </trkpt>
      <trkpt lat="43.40006" lon="6.07848">
        <ele>233.60000610352</ele>
        <time>2016-01-27T13:15:58Z</time>
      </trkpt>
      <trkpt lat="43.40005" lon="6.07851">
        <ele>233.60000610352</ele>
        <time>2016-01-27T13:15:59Z</time>
      </trkpt>
      <trkpt lat="43.40005" lon="6.07855">
        <ele>233.60000610352</ele>
        <time>2016-01-27T13:16:00Z</time>
      </trkpt>
      <trkpt lat="43.40003" lon="6.07862">
        <ele>233.60000610352</ele>
        <time>2016-01-27T13:16:02Z</time>
      </trkpt>
      <trkpt lat="43.40001" lon="6.07868">
        <ele>233.80000305176</ele>
        <time>2016-01-27T13:16:04Z</time>
      </trkpt>
      <trkpt lat="43.4" lon="6.07875">
        <ele>233.60000610352</ele>
        <time>2016-01-27T13:16:06Z</time>
      </trkpt>
      <trkpt lat="43.39998" lon="6.07882">
        <ele>233.80000305176</ele>
        <time>2016-01-27T13:16:08Z</time>
      </trkpt>
      <trkpt lat="43.39996" lon="6.07889">
        <ele>233.80000305176</ele>
        <time>2016-01-27T13:16:10Z</time>
      </trkpt>
      <trkpt lat="43.39996" lon="6.07895">
        <ele>234.19999694824</ele>
        <time>2016-01-27T13:16:12Z</time>
      </trkpt>
      <trkpt lat="43.39994" lon="6.07901">
        <ele>234.60000610352</ele>
        <time>2016-01-27T13:16:14Z</time>
      </trkpt>
      <trkpt lat="43.39993" lon="6.07904">
        <ele>234.80000305176</ele>
        <time>2016-01-27T13:16:15Z</time>
      </trkpt>
      <trkpt lat="43.39993" lon="6.07907">
        <ele>235</ele>
        <time>2016-01-27T13:16:16Z</time>
      </trkpt>
      <trkpt lat="43.39991" lon="6.07913">
        <ele>235.19999694824</ele>
        <time>2016-01-27T13:16:18Z</time>
      </trkpt>
      <trkpt lat="43.39989" lon="6.07919">
        <ele>235.60000610352</ele>
        <time>2016-01-27T13:16:20Z</time>
      </trkpt>
      <trkpt lat="43.39986" lon="6.07926">
        <ele>235.80000305176</ele>
        <time>2016-01-27T13:16:22Z</time>
      </trkpt>
      <trkpt lat="43.39985" lon="6.07928">
        <ele>236</ele>
        <time>2016-01-27T13:16:23Z</time>
      </trkpt>
      <trkpt lat="43.39985" lon="6.07932">
        <ele>236.19999694824</ele>
        <time>2016-01-27T13:16:24Z</time>
      </trkpt>
      <trkpt lat="43.39983" lon="6.07938">
        <ele>236.39999389648</ele>
        <time>2016-01-27T13:16:26Z</time>
      </trkpt>
      <trkpt lat="43.39983" lon="6.07944">
        <ele>236.39999389648</ele>
        <time>2016-01-27T13:16:28Z</time>
      </trkpt>
      <trkpt lat="43.39981" lon="6.07946">
        <ele>236.80000305176</ele>
        <time>2016-01-27T13:16:29Z</time>
      </trkpt>
      <trkpt lat="43.3998" lon="6.07949">
        <ele>237</ele>
        <time>2016-01-27T13:16:30Z</time>
      </trkpt>
      <trkpt lat="43.39979" lon="6.07951">
        <ele>237.19999694824</ele>
        <time>2016-01-27T13:16:31Z</time>
      </trkpt>
      <trkpt lat="43.39978" lon="6.07954">
        <ele>237.19999694824</ele>
        <time>2016-01-27T13:16:32Z</time>
      </trkpt>
      <trkpt lat="43.39976" lon="6.0796">
        <ele>237.80000305176</ele>
        <time>2016-01-27T13:16:34Z</time>
      </trkpt>
      <trkpt lat="43.39975" lon="6.07962">
        <ele>238</ele>
        <time>2016-01-27T13:16:35Z</time>
      </trkpt>
      <trkpt lat="43.39975" lon="6.07964">
        <ele>238.19999694824</ele>
        <time>2016-01-27T13:16:36Z</time>
      </trkpt>
      <trkpt lat="43.39973" lon="6.07967">
        <ele>238.60000610352</ele>
        <time>2016-01-27T13:16:38Z</time>
      </trkpt>
      <trkpt lat="43.39972" lon="6.07968">
        <ele>238.80000305176</ele>
        <time>2016-01-27T13:16:40Z</time>
      </trkpt>
      <trkpt lat="43.39972" lon="6.0797">
        <ele>239</ele>
        <time>2016-01-27T13:16:42Z</time>
      </trkpt>
      <trkpt lat="43.39971" lon="6.0797">
        <ele>239</ele>
        <time>2016-01-27T13:16:44Z</time>
      </trkpt>
      <trkpt lat="43.39971" lon="6.0797">
        <ele>238.60000610352</ele>
        <time>2016-01-27T13:16:46Z</time>
      </trkpt>
      <trkpt lat="43.39971" lon="6.07971">
        <ele>238.60000610352</ele>
        <time>2016-01-27T13:16:48Z</time>
      </trkpt>
      <trkpt lat="43.39971" lon="6.07971">
        <ele>238.80000305176</ele>
        <time>2016-01-27T13:16:50Z</time>
      </trkpt>
      <trkpt lat="43.39971" lon="6.07971">
        <ele>238.80000305176</ele>
        <time>2016-01-27T13:16:52Z</time>
      </trkpt>
      <trkpt lat="43.39971" lon="6.07971">
        <ele>238.60000610352</ele>
        <time>2016-01-27T13:16:54Z</time>
      </trkpt>
      <trkpt lat="43.39971" lon="6.07971">
        <ele>238.80000305176</ele>
        <time>2016-01-27T13:16:56Z</time>
      </trkpt>
      <trkpt lat="43.39971" lon="6.07971">
        <ele>238.80000305176</ele>
        <time>2016-01-27T13:16:58Z</time>
      </trkpt>
      <trkpt lat="43.39971" lon="6.07972">
        <ele>238.80000305176</ele>
        <time>2016-01-27T13:17:00Z</time>
      </trkpt>
      <trkpt lat="43.39971" lon="6.07972">
        <ele>238.80000305176</ele>
        <time>2016-01-27T13:17:02Z</time>
      </trkpt>
      <trkpt lat="43.39971" lon="6.07972">
        <ele>238.80000305176</ele>
        <time>2016-01-27T13:17:04Z</time>
      </trkpt>
      <trkpt lat="43.39971" lon="6.07972">
        <ele>238.80000305176</ele>
        <time>2016-01-27T13:17:06Z</time>
      </trkpt>
      <trkpt lat="43.39971" lon="6.07972">
        <ele>239</ele>
        <time>2016-01-27T13:17:07Z</time>
      </trkpt>
      <trkpt lat="43.39971" lon="6.07972">
        <ele>238.80000305176</ele>
        <time>2016-01-27T13:17:08Z</time>
      </trkpt>
      <trkpt lat="43.39971" lon="6.07972">
        <ele>238.80000305176</ele>
        <time>2016-01-27T13:17:10Z</time>
      </trkpt>
      <trkpt lat="43.39971" lon="6.07972">
        <ele>238.60000610352</ele>
        <time>2016-01-27T13:17:12Z</time>
      </trkpt>
      <trkpt lat="43.39971" lon="6.07972">
        <ele>238.80000305176</ele>
        <time>2016-01-27T13:17:14Z</time>
      </trkpt>
      <trkpt lat="43.39971" lon="6.07972">
        <ele>238.80000305176</ele>
        <time>2016-01-27T13:17:16Z</time>
      </trkpt>
      <trkpt lat="43.39971" lon="6.07971">
        <ele>238.80000305176</ele>
        <time>2016-01-27T13:17:18Z</time>
      </trkpt>
      <trkpt lat="43.39971" lon="6.07971">
        <ele>238.80000305176</ele>
        <time>2016-01-27T13:17:20Z</time>
      </trkpt>
      <trkpt lat="43.39971" lon="6.07971">
        <ele>239</ele>
        <time>2016-01-27T13:17:22Z</time>
      </trkpt>
      <trkpt lat="43.39971" lon="6.07971">
        <ele>239</ele>
        <time>2016-01-27T13:17:24Z</time>
      </trkpt>
      <trkpt lat="43.39971" lon="6.07971">
        <ele>239</ele>
        <time>2016-01-27T13:17:25Z</time>
      </trkpt>
      <trkpt lat="43.39971" lon="6.07971">
        <ele>239</ele>
        <time>2016-01-27T13:17:26Z</time>
      </trkpt>
      <trkpt lat="43.39971" lon="6.07971">
        <ele>238.60000610352</ele>
        <time>2016-01-27T13:17:28Z</time>
      </trkpt>
      <trkpt lat="43.39971" lon="6.07971">
        <ele>238.60000610352</ele>
        <time>2016-01-27T13:17:30Z</time>
      </trkpt>
      <trkpt lat="43.39971" lon="6.07971">
        <ele>238.80000305176</ele>
        <time>2016-01-27T13:17:32Z</time>
      </trkpt>
      <trkpt lat="43.39971" lon="6.07971">
        <ele>238.60000610352</ele>
        <time>2016-01-27T13:17:34Z</time>
      </trkpt>
      <trkpt lat="43.39971" lon="6.07971">
        <ele>238.60000610352</ele>
        <time>2016-01-27T13:17:36Z</time>
      </trkpt>
      <trkpt lat="43.39971" lon="6.07971">
        <ele>238.60000610352</ele>
        <time>2016-01-27T13:17:38Z</time>
      </trkpt>
      <trkpt lat="43.39971" lon="6.07971">
        <ele>238.80000305176</ele>
        <time>2016-01-27T13:17:39Z</time>
      </trkpt>
      <trkpt lat="43.39971" lon="6.07971">
        <ele>238.80000305176</ele>
        <time>2016-01-27T13:17:42Z</time>
      </trkpt>
      <trkpt lat="43.39971" lon="6.07971">
        <ele>238.80000305176</ele>
        <time>2016-01-27T13:17:44Z</time>
      </trkpt>
      <trkpt lat="43.39971" lon="6.07971">
        <ele>239</ele>
        <time>2016-01-27T13:17:46Z</time>
      </trkpt>
      <trkpt lat="43.39971" lon="6.07972">
        <ele>238.80000305176</ele>
        <time>2016-01-27T13:17:48Z</time>
      </trkpt>
      <trkpt lat="43.39971" lon="6.07972">
        <ele>238.80000305176</ele>
        <time>2016-01-27T13:17:50Z</time>
      </trkpt>
      <trkpt lat="43.39971" lon="6.07972">
        <ele>238.80000305176</ele>
        <time>2016-01-27T13:17:52Z</time>
      </trkpt>
      <trkpt lat="43.39971" lon="6.07972">
        <ele>238.80000305176</ele>
        <time>2016-01-27T13:17:54Z</time>
      </trkpt>
      <trkpt lat="43.39971" lon="6.07972">
        <ele>238.60000610352</ele>
        <time>2016-01-27T13:17:56Z</time>
      </trkpt>
      <trkpt lat="43.39971" lon="6.07972">
        <ele>238.80000305176</ele>
        <time>2016-01-27T13:17:58Z</time>
      </trkpt>
      <trkpt lat="43.39971" lon="6.07972">
        <ele>239</ele>
        <time>2016-01-27T13:18:00Z</time>
      </trkpt>
      <trkpt lat="43.39971" lon="6.07972">
        <ele>239.19999694824</ele>
        <time>2016-01-27T13:18:02Z</time>
      </trkpt>
      <trkpt lat="43.39971" lon="6.07972">
        <ele>239.19999694824</ele>
        <time>2016-01-27T13:18:04Z</time>
      </trkpt>
      <trkpt lat="43.39971" lon="6.07971">
        <ele>239</ele>
        <time>2016-01-27T13:18:06Z</time>
      </trkpt>
      <trkpt lat="43.39971" lon="6.07971">
        <ele>238.60000610352</ele>
        <time>2016-01-27T13:18:08Z</time>
      </trkpt>
      <trkpt lat="43.39971" lon="6.07971">
        <ele>238.80000305176</ele>
        <time>2016-01-27T13:18:10Z</time>
      </trkpt>
      <trkpt lat="43.39971" lon="6.07971">
        <ele>238.60000610352</ele>
        <time>2016-01-27T13:18:12Z</time>
      </trkpt>
      <trkpt lat="43.39971" lon="6.07971">
        <ele>238.80000305176</ele>
        <time>2016-01-27T13:18:14Z</time>
      </trkpt>
      <trkpt lat="43.39971" lon="6.07971">
        <ele>238.80000305176</ele>
        <time>2016-01-27T13:18:16Z</time>
      </trkpt>
      <trkpt lat="43.39971" lon="6.07971">
        <ele>238.80000305176</ele>
        <time>2016-01-27T13:18:18Z</time>
      </trkpt>
      <trkpt lat="43.39971" lon="6.07971">
        <ele>238.80000305176</ele>
        <time>2016-01-27T13:18:20Z</time>
      </trkpt>
      <trkpt lat="43.39971" lon="6.07971">
        <ele>238.80000305176</ele>
        <time>2016-01-27T13:18:22Z</time>
      </trkpt>
      <trkpt lat="43.39971" lon="6.07971">
        <ele>238.80000305176</ele>
        <time>2016-01-27T13:18:24Z</time>
      </trkpt>
      <trkpt lat="43.39971" lon="6.07971">
        <ele>238.80000305176</ele>
        <time>2016-01-27T13:18:26Z</time>
      </trkpt>
      <trkpt lat="43.39971" lon="6.07971">
        <ele>238.80000305176</ele>
        <time>2016-01-27T13:18:28Z</time>
      </trkpt>
      <trkpt lat="43.39971" lon="6.07971">
        <ele>239</ele>
        <time>2016-01-27T13:18:30Z</time>
      </trkpt>
      <trkpt lat="43.39971" lon="6.07971">
        <ele>238.80000305176</ele>
        <time>2016-01-27T13:18:32Z</time>
      </trkpt>
      <trkpt lat="43.39971" lon="6.07971">
        <ele>238.80000305176</ele>
        <time>2016-01-27T13:18:33Z</time>
      </trkpt>
      <trkpt lat="43.39971" lon="6.07971">
        <ele>238.80000305176</ele>
        <time>2016-01-27T13:18:36Z</time>
      </trkpt>
      <trkpt lat="43.39971" lon="6.07971">
        <ele>238.80000305176</ele>
        <time>2016-01-27T13:18:38Z</time>
      </trkpt>
      <trkpt lat="43.39971" lon="6.07971">
        <ele>239</ele>
        <time>2016-01-27T13:18:40Z</time>
      </trkpt>
      <trkpt lat="43.39971" lon="6.07971">
        <ele>239</ele>
        <time>2016-01-27T13:18:42Z</time>
      </trkpt>
      <trkpt lat="43.39971" lon="6.07971">
        <ele>239</ele>
        <time>2016-01-27T13:18:44Z</time>
      </trkpt>
      <trkpt lat="43.39971" lon="6.07971">
        <ele>239</ele>
        <time>2016-01-27T13:18:46Z</time>
      </trkpt>
      <trkpt lat="43.39971" lon="6.07971">
        <ele>239</ele>
        <time>2016-01-27T13:18:48Z</time>
      </trkpt>
      <trkpt lat="43.39971" lon="6.07971">
        <ele>239</ele>
        <time>2016-01-27T13:18:50Z</time>
      </trkpt>
      <trkpt lat="43.39971" lon="6.07971">
        <ele>239</ele>
        <time>2016-01-27T13:18:52Z</time>
      </trkpt>
      <trkpt lat="43.39971" lon="6.07971">
        <ele>239</ele>
        <time>2016-01-27T13:18:54Z</time>
      </trkpt>
      <trkpt lat="43.39971" lon="6.07971">
        <ele>239</ele>
        <time>2016-01-27T13:18:56Z</time>
      </trkpt>
      <trkpt lat="43.39971" lon="6.07971">
        <ele>239</ele>
        <time>2016-01-27T13:18:58Z</time>
      </trkpt>
      <trkpt lat="43.39971" lon="6.07971">
        <ele>239</ele>
        <time>2016-01-27T13:19:00Z</time>
      </trkpt>
      <trkpt lat="43.39971" lon="6.07971">
        <ele>239</ele>
        <time>2016-01-27T13:19:02Z</time>
      </trkpt>
      <trkpt lat="43.39971" lon="6.07971">
        <ele>239</ele>
        <time>2016-01-27T13:19:04Z</time>
      </trkpt>
      <trkpt lat="43.39971" lon="6.07971">
        <ele>238.80000305176</ele>
        <time>2016-01-27T13:19:06Z</time>
      </trkpt>
      <trkpt lat="43.39971" lon="6.07971">
        <ele>238.80000305176</ele>
        <time>2016-01-27T13:19:08Z</time>
      </trkpt>
      <trkpt lat="43.39971" lon="6.07971">
        <ele>238.80000305176</ele>
        <time>2016-01-27T13:19:10Z</time>
      </trkpt>
      <trkpt lat="43.39971" lon="6.07971">
        <ele>238.80000305176</ele>
        <time>2016-01-27T13:19:12Z</time>
      </trkpt>
      <trkpt lat="43.39971" lon="6.07971">
        <ele>238.80000305176</ele>
        <time>2016-01-27T13:19:14Z</time>
      </trkpt>
      <trkpt lat="43.39971" lon="6.07972">
        <ele>238.80000305176</ele>
        <time>2016-01-27T13:19:16Z</time>
      </trkpt>
      <trkpt lat="43.39971" lon="6.07972">
        <ele>239</ele>
        <time>2016-01-27T13:19:18Z</time>
      </trkpt>
      <trkpt lat="43.39971" lon="6.07972">
        <ele>239</ele>
        <time>2016-01-27T13:19:20Z</time>
      </trkpt>
      <trkpt lat="43.39971" lon="6.07971">
        <ele>238.80000305176</ele>
        <time>2016-01-27T13:19:22Z</time>
      </trkpt>
      <trkpt lat="43.39971" lon="6.07972">
        <ele>238.80000305176</ele>
        <time>2016-01-27T13:19:24Z</time>
      </trkpt>
      <trkpt lat="43.39971" lon="6.07971">
        <ele>239</ele>
        <time>2016-01-27T13:19:26Z</time>
      </trkpt>
      <trkpt lat="43.39971" lon="6.07972">
        <ele>239</ele>
        <time>2016-01-27T13:19:28Z</time>
      </trkpt>
      <trkpt lat="43.39971" lon="6.07972">
        <ele>239</ele>
        <time>2016-01-27T13:19:29Z</time>
      </trkpt>
      <trkpt lat="43.39971" lon="6.07971">
        <ele>239</ele>
        <time>2016-01-27T13:19:30Z</time>
      </trkpt>
      <trkpt lat="43.39971" lon="6.07971">
        <ele>239</ele>
        <time>2016-01-27T13:19:32Z</time>
      </trkpt>
      <trkpt lat="43.39971" lon="6.07971">
        <ele>239</ele>
        <time>2016-01-27T13:19:34Z</time>
      </trkpt>
      <trkpt lat="43.39971" lon="6.07972">
        <ele>239</ele>
        <time>2016-01-27T13:19:36Z</time>
      </trkpt>
      <trkpt lat="43.39971" lon="6.07972">
        <ele>239.19999694824</ele>
        <time>2016-01-27T13:19:38Z</time>
      </trkpt>
      <trkpt lat="43.39971" lon="6.07972">
        <ele>239</ele>
        <time>2016-01-27T13:19:40Z</time>
      </trkpt>
      <trkpt lat="43.39971" lon="6.07972">
        <ele>239.19999694824</ele>
        <time>2016-01-27T13:19:42Z</time>
      </trkpt>
      <trkpt lat="43.39971" lon="6.07972">
        <ele>239.19999694824</ele>
        <time>2016-01-27T13:19:44Z</time>
      </trkpt>
      <trkpt lat="43.39971" lon="6.07972">
        <ele>238.80000305176</ele>
        <time>2016-01-27T13:19:46Z</time>
      </trkpt>
      <trkpt lat="43.39971" lon="6.07972">
        <ele>238.80000305176</ele>
        <time>2016-01-27T13:19:48Z</time>
      </trkpt>
      <trkpt lat="43.39971" lon="6.07972">
        <ele>238.80000305176</ele>
        <time>2016-01-27T13:19:50Z</time>
      </trkpt>
      <trkpt lat="43.39971" lon="6.07971">
        <ele>238.80000305176</ele>
        <time>2016-01-27T13:19:52Z</time>
      </trkpt>
      <trkpt lat="43.39971" lon="6.07971">
        <ele>238.80000305176</ele>
        <time>2016-01-27T13:19:54Z</time>
      </trkpt>
      <trkpt lat="43.3997" lon="6.07971">
        <ele>238.80000305176</ele>
        <time>2016-01-27T13:19:56Z</time>
      </trkpt>
      <trkpt lat="43.3997" lon="6.07971">
        <ele>238.80000305176</ele>
        <time>2016-01-27T13:19:58Z</time>
      </trkpt>
      <trkpt lat="43.3997" lon="6.07971">
        <ele>239</ele>
        <time>2016-01-27T13:20:00Z</time>
      </trkpt>
      <trkpt lat="43.39971" lon="6.0797">
        <ele>238.80000305176</ele>
        <time>2016-01-27T13:20:02Z</time>
      </trkpt>
      <trkpt lat="43.39971" lon="6.0797">
        <ele>238.80000305176</ele>
        <time>2016-01-27T13:20:03Z</time>
      </trkpt>
      <trkpt lat="43.39972" lon="6.0797">
        <ele>239</ele>
        <time>2016-01-27T13:20:04Z</time>
      </trkpt>
      <trkpt lat="43.39972" lon="6.07969">
        <ele>238.60000610352</ele>
        <time>2016-01-27T13:20:06Z</time>
      </trkpt>
      <trkpt lat="43.39972" lon="6.07968">
        <ele>238.60000610352</ele>
        <time>2016-01-27T13:20:08Z</time>
      </trkpt>
      <trkpt lat="43.39972" lon="6.07968">
        <ele>238.80000305176</ele>
        <time>2016-01-27T13:20:10Z</time>
      </trkpt>
      <trkpt lat="43.39972" lon="6.07968">
        <ele>238.60000610352</ele>
        <time>2016-01-27T13:20:12Z</time>
      </trkpt>
      <trkpt lat="43.39972" lon="6.07968">
        <ele>238.60000610352</ele>
        <time>2016-01-27T13:20:14Z</time>
      </trkpt>
      <trkpt lat="43.39972" lon="6.07968">
        <ele>238.80000305176</ele>
        <time>2016-01-27T13:20:16Z</time>
      </trkpt>
      <trkpt lat="43.39972" lon="6.07968">
        <ele>238.60000610352</ele>
        <time>2016-01-27T13:20:18Z</time>
      </trkpt>
      <trkpt lat="43.39972" lon="6.07968">
        <ele>238.60000610352</ele>
        <time>2016-01-27T13:20:20Z</time>
      </trkpt>
      <trkpt lat="43.39972" lon="6.07968">
        <ele>238.60000610352</ele>
        <time>2016-01-27T13:20:22Z</time>
      </trkpt>
      <trkpt lat="43.39972" lon="6.07968">
        <ele>238.80000305176</ele>
        <time>2016-01-27T13:20:24Z</time>
      </trkpt>
      <trkpt lat="43.39972" lon="6.07968">
        <ele>238.60000610352</ele>
        <time>2016-01-27T13:20:26Z</time>
      </trkpt>
      <trkpt lat="43.39972" lon="6.07968">
        <ele>238.39999389648</ele>
        <time>2016-01-27T13:20:27Z</time>
      </trkpt>
      <trkpt lat="43.39972" lon="6.07968">
        <ele>238.39999389648</ele>
        <time>2016-01-27T13:20:28Z</time>
      </trkpt>
      <trkpt lat="43.39972" lon="6.07967">
        <ele>238.39999389648</ele>
        <time>2016-01-27T13:20:30Z</time>
      </trkpt>
      <trkpt lat="43.39972" lon="6.07967">
        <ele>238.60000610352</ele>
        <time>2016-01-27T13:20:32Z</time>
      </trkpt>
      <trkpt lat="43.39972" lon="6.07967">
        <ele>238.60000610352</ele>
        <time>2016-01-27T13:20:34Z</time>
      </trkpt>
      <trkpt lat="43.39972" lon="6.07967">
        <ele>238.39999389648</ele>
        <time>2016-01-27T13:20:36Z</time>
      </trkpt>
      <trkpt lat="43.39972" lon="6.07967">
        <ele>238.39999389648</ele>
        <time>2016-01-27T13:20:38Z</time>
      </trkpt>
      <trkpt lat="43.39972" lon="6.07967">
        <ele>238.39999389648</ele>
        <time>2016-01-27T13:20:40Z</time>
      </trkpt>
      <trkpt lat="43.39972" lon="6.07967">
        <ele>238.60000610352</ele>
        <time>2016-01-27T13:20:42Z</time>
      </trkpt>
      <trkpt lat="43.39972" lon="6.07967">
        <ele>238.60000610352</ele>
        <time>2016-01-27T13:20:44Z</time>
      </trkpt>
      <trkpt lat="43.39972" lon="6.07967">
        <ele>238.60000610352</ele>
        <time>2016-01-27T13:20:46Z</time>
      </trkpt>
      <trkpt lat="43.39972" lon="6.07967">
        <ele>238.60000610352</ele>
        <time>2016-01-27T13:20:48Z</time>
      </trkpt>
      <trkpt lat="43.39972" lon="6.07967">
        <ele>238.80000305176</ele>
        <time>2016-01-27T13:20:50Z</time>
      </trkpt>
      <trkpt lat="43.39972" lon="6.07967">
        <ele>238.60000610352</ele>
        <time>2016-01-27T13:20:52Z</time>
      </trkpt>
      <trkpt lat="43.39972" lon="6.07967">
        <ele>238.60000610352</ele>
        <time>2016-01-27T13:20:54Z</time>
      </trkpt>
      <trkpt lat="43.39972" lon="6.07967">
        <ele>238.60000610352</ele>
        <time>2016-01-27T13:20:56Z</time>
      </trkpt>
      <trkpt lat="43.39972" lon="6.07967">
        <ele>238.80000305176</ele>
        <time>2016-01-27T13:20:58Z</time>
      </trkpt>
      <trkpt lat="43.39973" lon="6.07967">
        <ele>238.60000610352</ele>
        <time>2016-01-27T13:21:00Z</time>
      </trkpt>
      <trkpt lat="43.39973" lon="6.07967">
        <ele>238.80000305176</ele>
        <time>2016-01-27T13:21:02Z</time>
      </trkpt>
      <trkpt lat="43.39973" lon="6.07967">
        <ele>238.60000610352</ele>
        <time>2016-01-27T13:21:04Z</time>
      </trkpt>
      <trkpt lat="43.39973" lon="6.07967">
        <ele>238.39999389648</ele>
        <time>2016-01-27T13:21:06Z</time>
      </trkpt>
      <trkpt lat="43.39973" lon="6.07967">
        <ele>238.60000610352</ele>
        <time>2016-01-27T13:21:08Z</time>
      </trkpt>
      <trkpt lat="43.39973" lon="6.07968">
        <ele>238.80000305176</ele>
        <time>2016-01-27T13:21:10Z</time>
      </trkpt>
      <trkpt lat="43.39973" lon="6.07968">
        <ele>238.80000305176</ele>
        <time>2016-01-27T13:21:12Z</time>
      </trkpt>
      <trkpt lat="43.39972" lon="6.07968">
        <ele>238.80000305176</ele>
        <time>2016-01-27T13:21:14Z</time>
      </trkpt>
      <trkpt lat="43.39972" lon="6.07968">
        <ele>238.80000305176</ele>
        <time>2016-01-27T13:21:16Z</time>
      </trkpt>
      <trkpt lat="43.39972" lon="6.07969">
        <ele>238.80000305176</ele>
        <time>2016-01-27T13:21:18Z</time>
      </trkpt>
      <trkpt lat="43.39972" lon="6.07969">
        <ele>238.80000305176</ele>
        <time>2016-01-27T13:21:20Z</time>
      </trkpt>
      <trkpt lat="43.39972" lon="6.07968">
        <ele>238.80000305176</ele>
        <time>2016-01-27T13:21:22Z</time>
      </trkpt>
      <trkpt lat="43.39972" lon="6.07969">
        <ele>238.60000610352</ele>
        <time>2016-01-27T13:21:24Z</time>
      </trkpt>
      <trkpt lat="43.39972" lon="6.07969">
        <ele>238.60000610352</ele>
        <time>2016-01-27T13:21:25Z</time>
      </trkpt>
      <trkpt lat="43.39972" lon="6.07969">
        <ele>238.60000610352</ele>
        <time>2016-01-27T13:21:26Z</time>
      </trkpt>
      <trkpt lat="43.39972" lon="6.07968">
        <ele>238.60000610352</ele>
        <time>2016-01-27T13:21:28Z</time>
      </trkpt>
      <trkpt lat="43.39972" lon="6.07969">
        <ele>238.60000610352</ele>
        <time>2016-01-27T13:21:30Z</time>
      </trkpt>
      <trkpt lat="43.39972" lon="6.07968">
        <ele>238.80000305176</ele>
        <time>2016-01-27T13:21:31Z</time>
      </trkpt>
      <trkpt lat="43.39972" lon="6.07968">
        <ele>238.80000305176</ele>
        <time>2016-01-27T13:21:32Z</time>
      </trkpt>
      <trkpt lat="43.39972" lon="6.07968">
        <ele>238.80000305176</ele>
        <time>2016-01-27T13:21:34Z</time>
      </trkpt>
      <trkpt lat="43.39972" lon="6.07968">
        <ele>238.80000305176</ele>
        <time>2016-01-27T13:21:36Z</time>
      </trkpt>
      <trkpt lat="43.39972" lon="6.07969">
        <ele>238.80000305176</ele>
        <time>2016-01-27T13:21:38Z</time>
      </trkpt>
      <trkpt lat="43.39972" lon="6.07969">
        <ele>238.80000305176</ele>
        <time>2016-01-27T13:21:40Z</time>
      </trkpt>
      <trkpt lat="43.39972" lon="6.07969">
        <ele>239</ele>
        <time>2016-01-27T13:21:42Z</time>
      </trkpt>
      <trkpt lat="43.39972" lon="6.07968">
        <ele>238.80000305176</ele>
        <time>2016-01-27T13:21:44Z</time>
      </trkpt>
      <trkpt lat="43.39972" lon="6.07968">
        <ele>238.80000305176</ele>
        <time>2016-01-27T13:21:46Z</time>
      </trkpt>
      <trkpt lat="43.39972" lon="6.07969">
        <ele>238.80000305176</ele>
        <time>2016-01-27T13:21:48Z</time>
      </trkpt>
      <trkpt lat="43.39972" lon="6.07969">
        <ele>239</ele>
        <time>2016-01-27T13:21:50Z</time>
      </trkpt>
      <trkpt lat="43.39972" lon="6.07969">
        <ele>239</ele>
        <time>2016-01-27T13:21:52Z</time>
      </trkpt>
      <trkpt lat="43.39971" lon="6.07968">
        <ele>239</ele>
        <time>2016-01-27T13:21:54Z</time>
      </trkpt>
      <trkpt lat="43.3997" lon="6.07968">
        <ele>239</ele>
        <time>2016-01-27T13:21:56Z</time>
      </trkpt>
      <trkpt lat="43.39969" lon="6.07969">
        <ele>239.19999694824</ele>
        <time>2016-01-27T13:21:57Z</time>
      </trkpt>
      <trkpt lat="43.39967" lon="6.0797">
        <ele>239.39999389648</ele>
        <time>2016-01-27T13:21:58Z</time>
      </trkpt>
      <trkpt lat="43.39964" lon="6.07972">
        <ele>239.39999389648</ele>
        <time>2016-01-27T13:22:00Z</time>
      </trkpt>
      <trkpt lat="43.39959" lon="6.07974">
        <ele>240</ele>
        <time>2016-01-27T13:22:02Z</time>
      </trkpt>
      <trkpt lat="43.39952" lon="6.07978">
        <ele>240.39999389648</ele>
        <time>2016-01-27T13:22:04Z</time>
      </trkpt>
      <trkpt lat="43.39949" lon="6.07979">
        <ele>240.60000610352</ele>
        <time>2016-01-27T13:22:05Z</time>
      </trkpt>
      <trkpt lat="43.39945" lon="6.07981">
        <ele>240.60000610352</ele>
        <time>2016-01-27T13:22:06Z</time>
      </trkpt>
      <trkpt lat="43.39938" lon="6.07984">
        <ele>240.60000610352</ele>
        <time>2016-01-27T13:22:08Z</time>
      </trkpt>
      <trkpt lat="43.39933" lon="6.07987">
        <ele>240.80000305176</ele>
        <time>2016-01-27T13:22:10Z</time>
      </trkpt>
      <trkpt lat="43.3993" lon="6.07988">
        <ele>240.60000610352</ele>
        <time>2016-01-27T13:22:11Z</time>
      </trkpt>
      <trkpt lat="43.39928" lon="6.0799">
        <ele>240.60000610352</ele>
        <time>2016-01-27T13:22:12Z</time>
      </trkpt>
      <trkpt lat="43.39923" lon="6.07994">
        <ele>240.80000305176</ele>
        <time>2016-01-27T13:22:14Z</time>
      </trkpt>
      <trkpt lat="43.39917" lon="6.08">
        <ele>240.39999389648</ele>
        <time>2016-01-27T13:22:16Z</time>
      </trkpt>
      <trkpt lat="43.39915" lon="6.08003">
        <ele>240.60000610352</ele>
        <time>2016-01-27T13:22:17Z</time>
      </trkpt>
      <trkpt lat="43.39912" lon="6.08006">
        <ele>240.80000305176</ele>
        <time>2016-01-27T13:22:18Z</time>
      </trkpt>
      <trkpt lat="43.39906" lon="6.08014">
        <ele>240.39999389648</ele>
        <time>2016-01-27T13:22:20Z</time>
      </trkpt>
      <trkpt lat="43.399" lon="6.08018">
        <ele>240.39999389648</ele>
        <time>2016-01-27T13:22:22Z</time>
      </trkpt>
      <trkpt lat="43.39893" lon="6.0802">
        <ele>240.60000610352</ele>
        <time>2016-01-27T13:22:24Z</time>
      </trkpt>
      <trkpt lat="43.39885" lon="6.08018">
        <ele>240.19999694824</ele>
        <time>2016-01-27T13:22:26Z</time>
      </trkpt>
      <trkpt lat="43.39879" lon="6.08015">
        <ele>239.80000305176</ele>
        <time>2016-01-27T13:22:28Z</time>
      </trkpt>
      <trkpt lat="43.39872" lon="6.08009">
        <ele>239</ele>
        <time>2016-01-27T13:22:30Z</time>
      </trkpt>
      <trkpt lat="43.39868" lon="6.08008">
        <ele>238.80000305176</ele>
        <time>2016-01-27T13:22:31Z</time>
      </trkpt>
      <trkpt lat="43.39863" lon="6.08006">
        <ele>238.60000610352</ele>
        <time>2016-01-27T13:22:32Z</time>
      </trkpt>
      <trkpt lat="43.39856" lon="6.08001">
        <ele>238.60000610352</ele>
        <time>2016-01-27T13:22:34Z</time>
      </trkpt>
      <trkpt lat="43.39848" lon="6.07997">
        <ele>238.80000305176</ele>
        <time>2016-01-27T13:22:36Z</time>
      </trkpt>
      <trkpt lat="43.39844" lon="6.07995">
        <ele>238.80000305176</ele>
        <time>2016-01-27T13:22:37Z</time>
      </trkpt>
      <trkpt lat="43.3984" lon="6.07993">
        <ele>239</ele>
        <time>2016-01-27T13:22:38Z</time>
      </trkpt>
      <trkpt lat="43.39832" lon="6.07988">
        <ele>239</ele>
        <time>2016-01-27T13:22:40Z</time>
      </trkpt>
      <trkpt lat="43.39824" lon="6.07985">
        <ele>238.80000305176</ele>
        <time>2016-01-27T13:22:42Z</time>
      </trkpt>
      <trkpt lat="43.39816" lon="6.07983">
        <ele>238.60000610352</ele>
        <time>2016-01-27T13:22:44Z</time>
      </trkpt>
      <trkpt lat="43.39808" lon="6.0798">
        <ele>238.80000305176</ele>
        <time>2016-01-27T13:22:46Z</time>
      </trkpt>
      <trkpt lat="43.39801" lon="6.07976">
        <ele>239</ele>
        <time>2016-01-27T13:22:48Z</time>
      </trkpt>
      <trkpt lat="43.39793" lon="6.07974">
        <ele>239.39999389648</ele>
        <time>2016-01-27T13:22:50Z</time>
      </trkpt>
      <trkpt lat="43.39787" lon="6.07973">
        <ele>239.60000610352</ele>
        <time>2016-01-27T13:22:52Z</time>
      </trkpt>
      <trkpt lat="43.39782" lon="6.0797">
        <ele>240</ele>
        <time>2016-01-27T13:22:54Z</time>
      </trkpt>
      <trkpt lat="43.39777" lon="6.07968">
        <ele>240.80000305176</ele>
        <time>2016-01-27T13:22:56Z</time>
      </trkpt>
      <trkpt lat="43.39772" lon="6.07965">
        <ele>240.60000610352</ele>
        <time>2016-01-27T13:22:58Z</time>
      </trkpt>
      <trkpt lat="43.39767" lon="6.07964">
        <ele>241.39999389648</ele>
        <time>2016-01-27T13:23:00Z</time>
      </trkpt>
      <trkpt lat="43.39761" lon="6.07962">
        <ele>241.60000610352</ele>
        <time>2016-01-27T13:23:02Z</time>
      </trkpt>
      <trkpt lat="43.39757" lon="6.0796">
        <ele>242.19999694824</ele>
        <time>2016-01-27T13:23:04Z</time>
      </trkpt>
      <trkpt lat="43.39755" lon="6.07959">
        <ele>242.39999389648</ele>
        <time>2016-01-27T13:23:05Z</time>
      </trkpt>
      <trkpt lat="43.39752" lon="6.07957">
        <ele>242.60000610352</ele>
        <time>2016-01-27T13:23:06Z</time>
      </trkpt>
      <trkpt lat="43.39747" lon="6.07955">
        <ele>243</ele>
        <time>2016-01-27T13:23:08Z</time>
      </trkpt>
      <trkpt lat="43.39742" lon="6.07951">
        <ele>243.19999694824</ele>
        <time>2016-01-27T13:23:10Z</time>
      </trkpt>
      <trkpt lat="43.39737" lon="6.07946">
        <ele>243.39999389648</ele>
        <time>2016-01-27T13:23:12Z</time>
      </trkpt>
      <trkpt lat="43.39732" lon="6.07941">
        <ele>243.60000610352</ele>
        <time>2016-01-27T13:23:14Z</time>
      </trkpt>
      <trkpt lat="43.39729" lon="6.07935">
        <ele>244</ele>
        <time>2016-01-27T13:23:16Z</time>
      </trkpt>
      <trkpt lat="43.39724" lon="6.0793">
        <ele>244.19999694824</ele>
        <time>2016-01-27T13:23:18Z</time>
      </trkpt>
      <trkpt lat="43.39722" lon="6.07928">
        <ele>244.19999694824</ele>
        <time>2016-01-27T13:23:19Z</time>
      </trkpt>
      <trkpt lat="43.39721" lon="6.07925">
        <ele>244.39999389648</ele>
        <time>2016-01-27T13:23:20Z</time>
      </trkpt>
      <trkpt lat="43.39717" lon="6.07921">
        <ele>245</ele>
        <time>2016-01-27T13:23:22Z</time>
      </trkpt>
      <trkpt lat="43.39714" lon="6.07917">
        <ele>245.39999389648</ele>
        <time>2016-01-27T13:23:24Z</time>
      </trkpt>
      <trkpt lat="43.39713" lon="6.07915">
        <ele>245.60000610352</ele>
        <time>2016-01-27T13:23:25Z</time>
      </trkpt>
      <trkpt lat="43.39711" lon="6.07914">
        <ele>246</ele>
        <time>2016-01-27T13:23:26Z</time>
      </trkpt>
      <trkpt lat="43.39708" lon="6.07911">
        <ele>246.39999389648</ele>
        <time>2016-01-27T13:23:28Z</time>
      </trkpt>
      <trkpt lat="43.39708" lon="6.07909">
        <ele>246.80000305176</ele>
        <time>2016-01-27T13:23:29Z</time>
      </trkpt>
      <trkpt lat="43.39706" lon="6.07907">
        <ele>247.19999694824</ele>
        <time>2016-01-27T13:23:30Z</time>
      </trkpt>
      <trkpt lat="43.39705" lon="6.07906">
        <ele>247.39999389648</ele>
        <time>2016-01-27T13:23:31Z</time>
      </trkpt>
      <trkpt lat="43.39703" lon="6.07904">
        <ele>247.80000305176</ele>
        <time>2016-01-27T13:23:32Z</time>
      </trkpt>
      <trkpt lat="43.397" lon="6.07901">
        <ele>248.19999694824</ele>
        <time>2016-01-27T13:23:34Z</time>
      </trkpt>
      <trkpt lat="43.39697" lon="6.07898">
        <ele>248.60000610352</ele>
        <time>2016-01-27T13:23:36Z</time>
      </trkpt>
      <trkpt lat="43.39695" lon="6.07897">
        <ele>249</ele>
        <time>2016-01-27T13:23:37Z</time>
      </trkpt>
      <trkpt lat="43.39694" lon="6.07896">
        <ele>249.19999694824</ele>
        <time>2016-01-27T13:23:38Z</time>
      </trkpt>
      <trkpt lat="43.39693" lon="6.07895">
        <ele>249.39999389648</ele>
        <time>2016-01-27T13:23:39Z</time>
      </trkpt>
      <trkpt lat="43.39691" lon="6.07894">
        <ele>249.60000610352</ele>
        <time>2016-01-27T13:23:40Z</time>
      </trkpt>
      <trkpt lat="43.39688" lon="6.07892">
        <ele>249.80000305176</ele>
        <time>2016-01-27T13:23:42Z</time>
      </trkpt>
      <trkpt lat="43.39686" lon="6.07891">
        <ele>249.80000305176</ele>
        <time>2016-01-27T13:23:43Z</time>
      </trkpt>
      <trkpt lat="43.39684" lon="6.07891">
        <ele>250</ele>
        <time>2016-01-27T13:23:44Z</time>
      </trkpt>
      <trkpt lat="43.39682" lon="6.07891">
        <ele>250.19999694824</ele>
        <time>2016-01-27T13:23:45Z</time>
      </trkpt>
      <trkpt lat="43.3968" lon="6.0789">
        <ele>250</ele>
        <time>2016-01-27T13:23:46Z</time>
      </trkpt>
      <trkpt lat="43.39676" lon="6.07889">
        <ele>250</ele>
        <time>2016-01-27T13:23:48Z</time>
      </trkpt>
      <trkpt lat="43.39672" lon="6.07888">
        <ele>250.39999389648</ele>
        <time>2016-01-27T13:23:50Z</time>
      </trkpt>
      <trkpt lat="43.39669" lon="6.07888">
        <ele>250.60000610352</ele>
        <time>2016-01-27T13:23:52Z</time>
      </trkpt>
      <trkpt lat="43.39664" lon="6.07888">
        <ele>250.60000610352</ele>
        <time>2016-01-27T13:23:54Z</time>
      </trkpt>
      <trkpt lat="43.39662" lon="6.07888">
        <ele>250.80000305176</ele>
        <time>2016-01-27T13:23:55Z</time>
      </trkpt>
      <trkpt lat="43.3966" lon="6.07888">
        <ele>251</ele>
        <time>2016-01-27T13:23:56Z</time>
      </trkpt>
      <trkpt lat="43.39655" lon="6.07888">
        <ele>251.19999694824</ele>
        <time>2016-01-27T13:23:58Z</time>
      </trkpt>
      <trkpt lat="43.3965" lon="6.07888">
        <ele>251.60000610352</ele>
        <time>2016-01-27T13:24:00Z</time>
      </trkpt>
      <trkpt lat="43.39646" lon="6.07888">
        <ele>251.60000610352</ele>
        <time>2016-01-27T13:24:02Z</time>
      </trkpt>
      <trkpt lat="43.3964" lon="6.07889">
        <ele>251.80000305176</ele>
        <time>2016-01-27T13:24:04Z</time>
      </trkpt>
      <trkpt lat="43.39635" lon="6.0789">
        <ele>252</ele>
        <time>2016-01-27T13:24:06Z</time>
      </trkpt>
      <trkpt lat="43.3963" lon="6.07892">
        <ele>252</ele>
        <time>2016-01-27T13:24:08Z</time>
      </trkpt>
      <trkpt lat="43.39624" lon="6.07894">
        <ele>252</ele>
        <time>2016-01-27T13:24:10Z</time>
      </trkpt>
      <trkpt lat="43.3962" lon="6.07896">
        <ele>252.19999694824</ele>
        <time>2016-01-27T13:24:12Z</time>
      </trkpt>
      <trkpt lat="43.39616" lon="6.07898">
        <ele>252.39999389648</ele>
        <time>2016-01-27T13:24:14Z</time>
      </trkpt>
      <trkpt lat="43.39612" lon="6.07899">
        <ele>252.60000610352</ele>
        <time>2016-01-27T13:24:16Z</time>
      </trkpt>
      <trkpt lat="43.39608" lon="6.07901">
        <ele>253</ele>
        <time>2016-01-27T13:24:18Z</time>
      </trkpt>
      <trkpt lat="43.39606" lon="6.07901">
        <ele>253.19999694824</ele>
        <time>2016-01-27T13:24:19Z</time>
      </trkpt>
      <trkpt lat="43.39604" lon="6.07902">
        <ele>253.39999389648</ele>
        <time>2016-01-27T13:24:20Z</time>
      </trkpt>
      <trkpt lat="43.396" lon="6.07903">
        <ele>253.80000305176</ele>
        <time>2016-01-27T13:24:22Z</time>
      </trkpt>
      <trkpt lat="43.39598" lon="6.07903">
        <ele>254</ele>
        <time>2016-01-27T13:24:23Z</time>
      </trkpt>
      <trkpt lat="43.39597" lon="6.07903">
        <ele>254.19999694824</ele>
        <time>2016-01-27T13:24:24Z</time>
      </trkpt>
      <trkpt lat="43.39594" lon="6.07903">
        <ele>254.80000305176</ele>
        <time>2016-01-27T13:24:26Z</time>
      </trkpt>
      <trkpt lat="43.39591" lon="6.07902">
        <ele>255.60000610352</ele>
        <time>2016-01-27T13:24:28Z</time>
      </trkpt>
      <trkpt lat="43.39588" lon="6.07903">
        <ele>256.20001220703</ele>
        <time>2016-01-27T13:24:30Z</time>
      </trkpt>
      <trkpt lat="43.39587" lon="6.07904">
        <ele>256.39999389648</ele>
        <time>2016-01-27T13:24:31Z</time>
      </trkpt>
      <trkpt lat="43.39585" lon="6.07905">
        <ele>256.60000610352</ele>
        <time>2016-01-27T13:24:32Z</time>
      </trkpt>
      <trkpt lat="43.39584" lon="6.07908">
        <ele>256.60000610352</ele>
        <time>2016-01-27T13:24:34Z</time>
      </trkpt>
      <trkpt lat="43.39582" lon="6.07912">
        <ele>256.60000610352</ele>
        <time>2016-01-27T13:24:36Z</time>
      </trkpt>
      <trkpt lat="43.39581" lon="6.07914">
        <ele>256.60000610352</ele>
        <time>2016-01-27T13:24:37Z</time>
      </trkpt>
      <trkpt lat="43.39581" lon="6.07916">
        <ele>256.60000610352</ele>
        <time>2016-01-27T13:24:38Z</time>
      </trkpt>
      <trkpt lat="43.39581" lon="6.0792">
        <ele>256.79998779297</ele>
        <time>2016-01-27T13:24:40Z</time>
      </trkpt>
      <trkpt lat="43.3958" lon="6.07922">
        <ele>257</ele>
        <time>2016-01-27T13:24:41Z</time>
      </trkpt>
      <trkpt lat="43.39579" lon="6.07924">
        <ele>257</ele>
        <time>2016-01-27T13:24:42Z</time>
      </trkpt>
      <trkpt lat="43.39578" lon="6.07926">
        <ele>257.20001220703</ele>
        <time>2016-01-27T13:24:43Z</time>
      </trkpt>
      <trkpt lat="43.39577" lon="6.07928">
        <ele>257.39999389648</ele>
        <time>2016-01-27T13:24:44Z</time>
      </trkpt>
      <trkpt lat="43.39574" lon="6.0793">
        <ele>257.79998779297</ele>
        <time>2016-01-27T13:24:46Z</time>
      </trkpt>
      <trkpt lat="43.39574" lon="6.07931">
        <ele>258</ele>
        <time>2016-01-27T13:24:47Z</time>
      </trkpt>
      <trkpt lat="43.39573" lon="6.07932">
        <ele>258.20001220703</ele>
        <time>2016-01-27T13:24:48Z</time>
      </trkpt>
      <trkpt lat="43.39569" lon="6.07933">
        <ele>258.60000610352</ele>
        <time>2016-01-27T13:24:50Z</time>
      </trkpt>
      <trkpt lat="43.39567" lon="6.07932">
        <ele>259.20001220703</ele>
        <time>2016-01-27T13:24:52Z</time>
      </trkpt>
      <trkpt lat="43.39565" lon="6.07933">
        <ele>259.79998779297</ele>
        <time>2016-01-27T13:24:54Z</time>
      </trkpt>
      <trkpt lat="43.39561" lon="6.07934">
        <ele>259.79998779297</ele>
        <time>2016-01-27T13:24:56Z</time>
      </trkpt>
      <trkpt lat="43.3956" lon="6.07935">
        <ele>260</ele>
        <time>2016-01-27T13:24:57Z</time>
      </trkpt>
      <trkpt lat="43.39558" lon="6.07936">
        <ele>260</ele>
        <time>2016-01-27T13:24:58Z</time>
      </trkpt>
      <trkpt lat="43.39557" lon="6.07936">
        <ele>260.39999389648</ele>
        <time>2016-01-27T13:24:59Z</time>
      </trkpt>
      <trkpt lat="43.39555" lon="6.07936">
        <ele>260.60000610352</ele>
        <time>2016-01-27T13:25:00Z</time>
      </trkpt>
      <trkpt lat="43.39552" lon="6.07937">
        <ele>260.79998779297</ele>
        <time>2016-01-27T13:25:02Z</time>
      </trkpt>
      <trkpt lat="43.3955" lon="6.07939">
        <ele>261.20001220703</ele>
        <time>2016-01-27T13:25:04Z</time>
      </trkpt>
      <trkpt lat="43.39547" lon="6.07941">
        <ele>261.39999389648</ele>
        <time>2016-01-27T13:25:06Z</time>
      </trkpt>
      <trkpt lat="43.39544" lon="6.07941">
        <ele>261.79998779297</ele>
        <time>2016-01-27T13:25:08Z</time>
      </trkpt>
      <trkpt lat="43.39542" lon="6.07943">
        <ele>262</ele>
        <time>2016-01-27T13:25:10Z</time>
      </trkpt>
      <trkpt lat="43.3954" lon="6.07944">
        <ele>262.20001220703</ele>
        <time>2016-01-27T13:25:11Z</time>
      </trkpt>
      <trkpt lat="43.39539" lon="6.07945">
        <ele>262.39999389648</ele>
        <time>2016-01-27T13:25:12Z</time>
      </trkpt>
      <trkpt lat="43.39535" lon="6.07946">
        <ele>262.79998779297</ele>
        <time>2016-01-27T13:25:14Z</time>
      </trkpt>
      <trkpt lat="43.39532" lon="6.07948">
        <ele>263</ele>
        <time>2016-01-27T13:25:16Z</time>
      </trkpt>
      <trkpt lat="43.3953" lon="6.07948">
        <ele>263.39999389648</ele>
        <time>2016-01-27T13:25:18Z</time>
      </trkpt>
      <trkpt lat="43.39527" lon="6.07949">
        <ele>263.79998779297</ele>
        <time>2016-01-27T13:25:20Z</time>
      </trkpt>
      <trkpt lat="43.39524" lon="6.0795">
        <ele>264</ele>
        <time>2016-01-27T13:25:22Z</time>
      </trkpt>
      <trkpt lat="43.39521" lon="6.07951">
        <ele>264.20001220703</ele>
        <time>2016-01-27T13:25:24Z</time>
      </trkpt>
      <trkpt lat="43.39518" lon="6.07951">
        <ele>264.39999389648</ele>
        <time>2016-01-27T13:25:26Z</time>
      </trkpt>
      <trkpt lat="43.39517" lon="6.07952">
        <ele>264.39999389648</ele>
        <time>2016-01-27T13:25:27Z</time>
      </trkpt>
      <trkpt lat="43.39516" lon="6.07952">
        <ele>264.60000610352</ele>
        <time>2016-01-27T13:25:28Z</time>
      </trkpt>
      <trkpt lat="43.39513" lon="6.07953">
        <ele>264.79998779297</ele>
        <time>2016-01-27T13:25:30Z</time>
      </trkpt>
      <trkpt lat="43.3951" lon="6.07954">
        <ele>264.79998779297</ele>
        <time>2016-01-27T13:25:32Z</time>
      </trkpt>
      <trkpt lat="43.39508" lon="6.07954">
        <ele>265</ele>
        <time>2016-01-27T13:25:34Z</time>
      </trkpt>
      <trkpt lat="43.39507" lon="6.07955">
        <ele>265.20001220703</ele>
        <time>2016-01-27T13:25:35Z</time>
      </trkpt>
      <trkpt lat="43.39506" lon="6.07956">
        <ele>265.39999389648</ele>
        <time>2016-01-27T13:25:36Z</time>
      </trkpt>
      <trkpt lat="43.39503" lon="6.07957">
        <ele>265.60000610352</ele>
        <time>2016-01-27T13:25:38Z</time>
      </trkpt>
      <trkpt lat="43.39501" lon="6.07958">
        <ele>265.60000610352</ele>
        <time>2016-01-27T13:25:40Z</time>
      </trkpt>
      <trkpt lat="43.39498" lon="6.07959">
        <ele>265.79998779297</ele>
        <time>2016-01-27T13:25:42Z</time>
      </trkpt>
      <trkpt lat="43.39497" lon="6.07958">
        <ele>265.79998779297</ele>
        <time>2016-01-27T13:25:43Z</time>
      </trkpt>
      <trkpt lat="43.39495" lon="6.07959">
        <ele>265.79998779297</ele>
        <time>2016-01-27T13:25:44Z</time>
      </trkpt>
      <trkpt lat="43.39492" lon="6.07959">
        <ele>266</ele>
        <time>2016-01-27T13:25:46Z</time>
      </trkpt>
      <trkpt lat="43.39487" lon="6.07958">
        <ele>265.60000610352</ele>
        <time>2016-01-27T13:25:48Z</time>
      </trkpt>
      <trkpt lat="43.39485" lon="6.07956">
        <ele>266.39999389648</ele>
        <time>2016-01-27T13:25:50Z</time>
      </trkpt>
      <trkpt lat="43.39484" lon="6.07955">
        <ele>266.60000610352</ele>
        <time>2016-01-27T13:25:51Z</time>
      </trkpt>
      <trkpt lat="43.39482" lon="6.07954">
        <ele>266.60000610352</ele>
        <time>2016-01-27T13:25:52Z</time>
      </trkpt>
      <trkpt lat="43.3948" lon="6.07951">
        <ele>266.79998779297</ele>
        <time>2016-01-27T13:25:54Z</time>
      </trkpt>
      <trkpt lat="43.39478" lon="6.07948">
        <ele>266.79998779297</ele>
        <time>2016-01-27T13:25:56Z</time>
      </trkpt>
      <trkpt lat="43.39474" lon="6.07947">
        <ele>266.60000610352</ele>
        <time>2016-01-27T13:25:58Z</time>
      </trkpt>
      <trkpt lat="43.39471" lon="6.07947">
        <ele>267</ele>
        <time>2016-01-27T13:26:00Z</time>
      </trkpt>
      <trkpt lat="43.3947" lon="6.0795">
        <ele>267.39999389648</ele>
        <time>2016-01-27T13:26:02Z</time>
      </trkpt>
      <trkpt lat="43.39467" lon="6.07953">
        <ele>267.60000610352</ele>
        <time>2016-01-27T13:26:04Z</time>
      </trkpt>
      <trkpt lat="43.39465" lon="6.07956">
        <ele>267.60000610352</ele>
        <time>2016-01-27T13:26:06Z</time>
      </trkpt>
      <trkpt lat="43.39463" lon="6.07959">
        <ele>267.39999389648</ele>
        <time>2016-01-27T13:26:08Z</time>
      </trkpt>
      <trkpt lat="43.39461" lon="6.07959">
        <ele>267.60000610352</ele>
        <time>2016-01-27T13:26:09Z</time>
      </trkpt>
      <trkpt lat="43.39459" lon="6.07959">
        <ele>267.79998779297</ele>
        <time>2016-01-27T13:26:10Z</time>
      </trkpt>
      <trkpt lat="43.39457" lon="6.0796">
        <ele>267.79998779297</ele>
        <time>2016-01-27T13:26:12Z</time>
      </trkpt>
      <trkpt lat="43.39454" lon="6.07962">
        <ele>268</ele>
        <time>2016-01-27T13:26:14Z</time>
      </trkpt>
      <trkpt lat="43.39451" lon="6.07964">
        <ele>268.39999389648</ele>
        <time>2016-01-27T13:26:16Z</time>
      </trkpt>
      <trkpt lat="43.39449" lon="6.07966">
        <ele>268.39999389648</ele>
        <time>2016-01-27T13:26:18Z</time>
      </trkpt>
      <trkpt lat="43.39447" lon="6.07967">
        <ele>268.39999389648</ele>
        <time>2016-01-27T13:26:19Z</time>
      </trkpt>
      <trkpt lat="43.39446" lon="6.07968">
        <ele>268.60000610352</ele>
        <time>2016-01-27T13:26:20Z</time>
      </trkpt>
      <trkpt lat="43.39442" lon="6.0797">
        <ele>268.79998779297</ele>
        <time>2016-01-27T13:26:22Z</time>
      </trkpt>
      <trkpt lat="43.3944" lon="6.07971">
        <ele>269.20001220703</ele>
        <time>2016-01-27T13:26:24Z</time>
      </trkpt>
      <trkpt lat="43.39439" lon="6.07971">
        <ele>269</ele>
        <time>2016-01-27T13:26:25Z</time>
      </trkpt>
      <trkpt lat="43.39438" lon="6.07972">
        <ele>269.20001220703</ele>
        <time>2016-01-27T13:26:26Z</time>
      </trkpt>
      <trkpt lat="43.39436" lon="6.07973">
        <ele>269.79998779297</ele>
        <time>2016-01-27T13:26:28Z</time>
      </trkpt>
      <trkpt lat="43.39433" lon="6.07972">
        <ele>270.20001220703</ele>
        <time>2016-01-27T13:26:30Z</time>
      </trkpt>
      <trkpt lat="43.39431" lon="6.07971">
        <ele>270.39999389648</ele>
        <time>2016-01-27T13:26:31Z</time>
      </trkpt>
      <trkpt lat="43.3943" lon="6.0797">
        <ele>270.39999389648</ele>
        <time>2016-01-27T13:26:32Z</time>
      </trkpt>
      <trkpt lat="43.39427" lon="6.07969">
        <ele>270.60000610352</ele>
        <time>2016-01-27T13:26:34Z</time>
      </trkpt>
      <trkpt lat="43.39424" lon="6.07969">
        <ele>270.60000610352</ele>
        <time>2016-01-27T13:26:36Z</time>
      </trkpt>
      <trkpt lat="43.39422" lon="6.07969">
        <ele>270.79998779297</ele>
        <time>2016-01-27T13:26:37Z</time>
      </trkpt>
      <trkpt lat="43.3942" lon="6.07969">
        <ele>270.79998779297</ele>
        <time>2016-01-27T13:26:38Z</time>
      </trkpt>
      <trkpt lat="43.39419" lon="6.0797">
        <ele>270.79998779297</ele>
        <time>2016-01-27T13:26:39Z</time>
      </trkpt>
      <trkpt lat="43.39417" lon="6.07971">
        <ele>270.79998779297</ele>
        <time>2016-01-27T13:26:40Z</time>
      </trkpt>
      <trkpt lat="43.39414" lon="6.07972">
        <ele>271</ele>
        <time>2016-01-27T13:26:42Z</time>
      </trkpt>
      <trkpt lat="43.39411" lon="6.07973">
        <ele>271.20001220703</ele>
        <time>2016-01-27T13:26:44Z</time>
      </trkpt>
      <trkpt lat="43.39407" lon="6.07973">
        <ele>271.39999389648</ele>
        <time>2016-01-27T13:26:46Z</time>
      </trkpt>
      <trkpt lat="43.39406" lon="6.07973">
        <ele>271.60000610352</ele>
        <time>2016-01-27T13:26:47Z</time>
      </trkpt>
      <trkpt lat="43.39404" lon="6.07973">
        <ele>271.60000610352</ele>
        <time>2016-01-27T13:26:48Z</time>
      </trkpt>
      <trkpt lat="43.39401" lon="6.07973">
        <ele>271.39999389648</ele>
        <time>2016-01-27T13:26:50Z</time>
      </trkpt>
      <trkpt lat="43.39399" lon="6.07972">
        <ele>272</ele>
        <time>2016-01-27T13:26:52Z</time>
      </trkpt>
      <trkpt lat="43.39398" lon="6.07973">
        <ele>272.39999389648</ele>
        <time>2016-01-27T13:26:53Z</time>
      </trkpt>
      <trkpt lat="43.39397" lon="6.07974">
        <ele>272.79998779297</ele>
        <time>2016-01-27T13:26:54Z</time>
      </trkpt>
      <trkpt lat="43.39395" lon="6.07976">
        <ele>272.79998779297</ele>
        <time>2016-01-27T13:26:56Z</time>
      </trkpt>
      <trkpt lat="43.39394" lon="6.07979">
        <ele>272.79998779297</ele>
        <time>2016-01-27T13:26:58Z</time>
      </trkpt>
      <trkpt lat="43.39394" lon="6.0798">
        <ele>272.79998779297</ele>
        <time>2016-01-27T13:26:59Z</time>
      </trkpt>
      <trkpt lat="43.39393" lon="6.07982">
        <ele>273</ele>
        <time>2016-01-27T13:27:00Z</time>
      </trkpt>
      <trkpt lat="43.39392" lon="6.07983">
        <ele>273</ele>
        <time>2016-01-27T13:27:01Z</time>
      </trkpt>
      <trkpt lat="43.39391" lon="6.07983">
        <ele>272.79998779297</ele>
        <time>2016-01-27T13:27:02Z</time>
      </trkpt>
      <trkpt lat="43.3939" lon="6.07984">
        <ele>272.79998779297</ele>
        <time>2016-01-27T13:27:03Z</time>
      </trkpt>
      <trkpt lat="43.39389" lon="6.07985">
        <ele>272.79998779297</ele>
        <time>2016-01-27T13:27:04Z</time>
      </trkpt>
      <trkpt lat="43.39389" lon="6.07987">
        <ele>272.79998779297</ele>
        <time>2016-01-27T13:27:05Z</time>
      </trkpt>
      <trkpt lat="43.39387" lon="6.07988">
        <ele>272.79998779297</ele>
        <time>2016-01-27T13:27:06Z</time>
      </trkpt>
      <trkpt lat="43.39385" lon="6.0799">
        <ele>272.79998779297</ele>
        <time>2016-01-27T13:27:08Z</time>
      </trkpt>
      <trkpt lat="43.39384" lon="6.07991">
        <ele>272.79998779297</ele>
        <time>2016-01-27T13:27:10Z</time>
      </trkpt>
      <trkpt lat="43.39384" lon="6.07991">
        <ele>273</ele>
        <time>2016-01-27T13:27:11Z</time>
      </trkpt>
      <trkpt lat="43.39383" lon="6.07992">
        <ele>273</ele>
        <time>2016-01-27T13:27:12Z</time>
      </trkpt>
      <trkpt lat="43.39383" lon="6.07992">
        <ele>272.79998779297</ele>
        <time>2016-01-27T13:27:14Z</time>
      </trkpt>
      <trkpt lat="43.39383" lon="6.07992">
        <ele>273</ele>
        <time>2016-01-27T13:27:16Z</time>
      </trkpt>
      <trkpt lat="43.39383" lon="6.07992">
        <ele>273</ele>
        <time>2016-01-27T13:27:18Z</time>
      </trkpt>
      <trkpt lat="43.39383" lon="6.07992">
        <ele>273.20001220703</ele>
        <time>2016-01-27T13:27:20Z</time>
      </trkpt>
      <trkpt lat="43.39383" lon="6.07992">
        <ele>273</ele>
        <time>2016-01-27T13:27:22Z</time>
      </trkpt>
      <trkpt lat="43.39383" lon="6.07992">
        <ele>272.79998779297</ele>
        <time>2016-01-27T13:27:24Z</time>
      </trkpt>
      <trkpt lat="43.39383" lon="6.07992">
        <ele>273</ele>
        <time>2016-01-27T13:27:26Z</time>
      </trkpt>
      <trkpt lat="43.39382" lon="6.07992">
        <ele>273</ele>
        <time>2016-01-27T13:27:28Z</time>
      </trkpt>
      <trkpt lat="43.39382" lon="6.07992">
        <ele>273.20001220703</ele>
        <time>2016-01-27T13:27:30Z</time>
      </trkpt>
      <trkpt lat="43.39382" lon="6.07992">
        <ele>273.20001220703</ele>
        <time>2016-01-27T13:27:32Z</time>
      </trkpt>
      <trkpt lat="43.39382" lon="6.07992">
        <ele>273</ele>
        <time>2016-01-27T13:27:34Z</time>
      </trkpt>
      <trkpt lat="43.39382" lon="6.07992">
        <ele>273.39999389648</ele>
        <time>2016-01-27T13:27:36Z</time>
      </trkpt>
      <trkpt lat="43.39382" lon="6.07993">
        <ele>273.39999389648</ele>
        <time>2016-01-27T13:27:38Z</time>
      </trkpt>
      <trkpt lat="43.39381" lon="6.07991">
        <ele>273.39999389648</ele>
        <time>2016-01-27T13:27:39Z</time>
      </trkpt>
      <trkpt lat="43.3938" lon="6.0799">
        <ele>273.39999389648</ele>
        <time>2016-01-27T13:27:40Z</time>
      </trkpt>
      <trkpt lat="43.39378" lon="6.07987">
        <ele>273.79998779297</ele>
        <time>2016-01-27T13:27:42Z</time>
      </trkpt>
      <trkpt lat="43.39378" lon="6.07984">
        <ele>274.39999389648</ele>
        <time>2016-01-27T13:27:44Z</time>
      </trkpt>
      <trkpt lat="43.39378" lon="6.0798">
        <ele>274.39999389648</ele>
        <time>2016-01-27T13:27:46Z</time>
      </trkpt>
      <trkpt lat="43.39378" lon="6.07979">
        <ele>274.79998779297</ele>
        <time>2016-01-27T13:27:47Z</time>
      </trkpt>
      <trkpt lat="43.39378" lon="6.07977">
        <ele>275</ele>
        <time>2016-01-27T13:27:48Z</time>
      </trkpt>
      <trkpt lat="43.39378" lon="6.07975">
        <ele>275.39999389648</ele>
        <time>2016-01-27T13:27:50Z</time>
      </trkpt>
      <trkpt lat="43.39378" lon="6.07972">
        <ele>275.79998779297</ele>
        <time>2016-01-27T13:27:52Z</time>
      </trkpt>
      <trkpt lat="43.39377" lon="6.07972">
        <ele>276</ele>
        <time>2016-01-27T13:27:53Z</time>
      </trkpt>
      <trkpt lat="43.39376" lon="6.0797">
        <ele>276.20001220703</ele>
        <time>2016-01-27T13:27:54Z</time>
      </trkpt>
      <trkpt lat="43.39374" lon="6.07968">
        <ele>276.39999389648</ele>
        <time>2016-01-27T13:27:56Z</time>
      </trkpt>
      <trkpt lat="43.39372" lon="6.07969">
        <ele>276.39999389648</ele>
        <time>2016-01-27T13:27:57Z</time>
      </trkpt>
      <trkpt lat="43.39371" lon="6.07969">
        <ele>276.60000610352</ele>
        <time>2016-01-27T13:27:58Z</time>
      </trkpt>
      <trkpt lat="43.3937" lon="6.07969">
        <ele>277.20001220703</ele>
        <time>2016-01-27T13:27:59Z</time>
      </trkpt>
      <trkpt lat="43.3937" lon="6.07969">
        <ele>277.39999389648</ele>
        <time>2016-01-27T13:28:00Z</time>
      </trkpt>
      <trkpt lat="43.39369" lon="6.07969">
        <ele>277.60000610352</ele>
        <time>2016-01-27T13:28:02Z</time>
      </trkpt>
      <trkpt lat="43.39369" lon="6.07968">
        <ele>277.60000610352</ele>
        <time>2016-01-27T13:28:04Z</time>
      </trkpt>
      <trkpt lat="43.39368" lon="6.07968">
        <ele>277.60000610352</ele>
        <time>2016-01-27T13:28:05Z</time>
      </trkpt>
      <trkpt lat="43.39368" lon="6.07968">
        <ele>277.60000610352</ele>
        <time>2016-01-27T13:28:06Z</time>
      </trkpt>
      <trkpt lat="43.39368" lon="6.07968">
        <ele>277.79998779297</ele>
        <time>2016-01-27T13:28:08Z</time>
      </trkpt>
      <trkpt lat="43.39368" lon="6.07968">
        <ele>277.79998779297</ele>
        <time>2016-01-27T13:28:10Z</time>
      </trkpt>
      <trkpt lat="43.39368" lon="6.07968">
        <ele>277.60000610352</ele>
        <time>2016-01-27T13:28:12Z</time>
      </trkpt>
      <trkpt lat="43.39368" lon="6.07968">
        <ele>277.60000610352</ele>
        <time>2016-01-27T13:28:14Z</time>
      </trkpt>
      <trkpt lat="43.39368" lon="6.07968">
        <ele>277.60000610352</ele>
        <time>2016-01-27T13:28:16Z</time>
      </trkpt>
      <trkpt lat="43.39368" lon="6.07968">
        <ele>277.60000610352</ele>
        <time>2016-01-27T13:28:18Z</time>
      </trkpt>
      <trkpt lat="43.39368" lon="6.07968">
        <ele>277.60000610352</ele>
        <time>2016-01-27T13:28:20Z</time>
      </trkpt>
      <trkpt lat="43.39368" lon="6.07968">
        <ele>277.60000610352</ele>
        <time>2016-01-27T13:28:22Z</time>
      </trkpt>
      <trkpt lat="43.39368" lon="6.07968">
        <ele>277.39999389648</ele>
        <time>2016-01-27T13:28:24Z</time>
      </trkpt>
      <trkpt lat="43.39368" lon="6.07968">
        <ele>277.39999389648</ele>
        <time>2016-01-27T13:28:26Z</time>
      </trkpt>
      <trkpt lat="43.39368" lon="6.07968">
        <ele>277.39999389648</ele>
        <time>2016-01-27T13:28:28Z</time>
      </trkpt>
      <trkpt lat="43.39368" lon="6.07968">
        <ele>277.60000610352</ele>
        <time>2016-01-27T13:28:30Z</time>
      </trkpt>
      <trkpt lat="43.39369" lon="6.07968">
        <ele>277.79998779297</ele>
        <time>2016-01-27T13:28:32Z</time>
      </trkpt>
      <trkpt lat="43.39368" lon="6.07968">
        <ele>277.60000610352</ele>
        <time>2016-01-27T13:28:34Z</time>
      </trkpt>
      <trkpt lat="43.39369" lon="6.07968">
        <ele>277.60000610352</ele>
        <time>2016-01-27T13:28:36Z</time>
      </trkpt>
      <trkpt lat="43.39369" lon="6.07969">
        <ele>277.60000610352</ele>
        <time>2016-01-27T13:28:38Z</time>
      </trkpt>
      <trkpt lat="43.39368" lon="6.07969">
        <ele>277.79998779297</ele>
        <time>2016-01-27T13:28:40Z</time>
      </trkpt>
      <trkpt lat="43.39368" lon="6.07969">
        <ele>277.60000610352</ele>
        <time>2016-01-27T13:28:42Z</time>
      </trkpt>
      <trkpt lat="43.39368" lon="6.07969">
        <ele>277.60000610352</ele>
        <time>2016-01-27T13:28:44Z</time>
      </trkpt>
      <trkpt lat="43.39368" lon="6.07969">
        <ele>277.60000610352</ele>
        <time>2016-01-27T13:28:46Z</time>
      </trkpt>
      <trkpt lat="43.39368" lon="6.07969">
        <ele>277.60000610352</ele>
        <time>2016-01-27T13:28:48Z</time>
      </trkpt>
      <trkpt lat="43.39368" lon="6.07969">
        <ele>277.39999389648</ele>
        <time>2016-01-27T13:28:50Z</time>
      </trkpt>
      <trkpt lat="43.39368" lon="6.07969">
        <ele>277.39999389648</ele>
        <time>2016-01-27T13:28:52Z</time>
      </trkpt>
      <trkpt lat="43.39368" lon="6.07969">
        <ele>277.60000610352</ele>
        <time>2016-01-27T13:28:54Z</time>
      </trkpt>
      <trkpt lat="43.39368" lon="6.07969">
        <ele>277.60000610352</ele>
        <time>2016-01-27T13:28:56Z</time>
      </trkpt>
      <trkpt lat="43.39368" lon="6.07969">
        <ele>277.39999389648</ele>
        <time>2016-01-27T13:28:58Z</time>
      </trkpt>
      <trkpt lat="43.39368" lon="6.07969">
        <ele>277.39999389648</ele>
        <time>2016-01-27T13:29:00Z</time>
      </trkpt>
      <trkpt lat="43.39368" lon="6.07969">
        <ele>277.60000610352</ele>
        <time>2016-01-27T13:29:02Z</time>
      </trkpt>
      <trkpt lat="43.39368" lon="6.07969">
        <ele>277.79998779297</ele>
        <time>2016-01-27T13:29:04Z</time>
      </trkpt>
      <trkpt lat="43.39368" lon="6.07969">
        <ele>277.79998779297</ele>
        <time>2016-01-27T13:29:05Z</time>
      </trkpt>
      <trkpt lat="43.39368" lon="6.07969">
        <ele>277.60000610352</ele>
        <time>2016-01-27T13:29:06Z</time>
      </trkpt>
      <trkpt lat="43.39369" lon="6.07971">
        <ele>277.60000610352</ele>
        <time>2016-01-27T13:29:08Z</time>
      </trkpt>
      <trkpt lat="43.39369" lon="6.07974">
        <ele>277.60000610352</ele>
        <time>2016-01-27T13:29:10Z</time>
      </trkpt>
      <trkpt lat="43.39368" lon="6.07975">
        <ele>277.60000610352</ele>
        <time>2016-01-27T13:29:11Z</time>
      </trkpt>
      <trkpt lat="43.39368" lon="6.07977">
        <ele>277.60000610352</ele>
        <time>2016-01-27T13:29:12Z</time>
      </trkpt>
      <trkpt lat="43.39368" lon="6.07977">
        <ele>277.39999389648</ele>
        <time>2016-01-27T13:29:14Z</time>
      </trkpt>
      <trkpt lat="43.39368" lon="6.07978">
        <ele>277.79998779297</ele>
        <time>2016-01-27T13:29:16Z</time>
      </trkpt>
      <trkpt lat="43.39368" lon="6.07978">
        <ele>277.60000610352</ele>
        <time>2016-01-27T13:29:17Z</time>
      </trkpt>
      <trkpt lat="43.39368" lon="6.07978">
        <ele>277.60000610352</ele>
        <time>2016-01-27T13:29:18Z</time>
      </trkpt>
      <trkpt lat="43.39368" lon="6.07978">
        <ele>277.60000610352</ele>
        <time>2016-01-27T13:29:20Z</time>
      </trkpt>
      <trkpt lat="43.39368" lon="6.07978">
        <ele>277.60000610352</ele>
        <time>2016-01-27T13:29:22Z</time>
      </trkpt>
      <trkpt lat="43.39368" lon="6.07978">
        <ele>277.60000610352</ele>
        <time>2016-01-27T13:29:24Z</time>
      </trkpt>
      <trkpt lat="43.39368" lon="6.07978">
        <ele>277.60000610352</ele>
        <time>2016-01-27T13:29:26Z</time>
      </trkpt>
      <trkpt lat="43.39367" lon="6.07978">
        <ele>277.60000610352</ele>
        <time>2016-01-27T13:29:28Z</time>
      </trkpt>
      <trkpt lat="43.39367" lon="6.07978">
        <ele>277.60000610352</ele>
        <time>2016-01-27T13:29:30Z</time>
      </trkpt>
      <trkpt lat="43.39367" lon="6.07978">
        <ele>277.79998779297</ele>
        <time>2016-01-27T13:29:31Z</time>
      </trkpt>
      <trkpt lat="43.39367" lon="6.07978">
        <ele>277.60000610352</ele>
        <time>2016-01-27T13:29:32Z</time>
      </trkpt>
      <trkpt lat="43.39367" lon="6.07978">
        <ele>277.60000610352</ele>
        <time>2016-01-27T13:29:34Z</time>
      </trkpt>
      <trkpt lat="43.39367" lon="6.07978">
        <ele>277.39999389648</ele>
        <time>2016-01-27T13:29:36Z</time>
      </trkpt>
      <trkpt lat="43.39367" lon="6.07978">
        <ele>277.39999389648</ele>
        <time>2016-01-27T13:29:38Z</time>
      </trkpt>
      <trkpt lat="43.39367" lon="6.07978">
        <ele>277.39999389648</ele>
        <time>2016-01-27T13:29:40Z</time>
      </trkpt>
      <trkpt lat="43.39367" lon="6.07979">
        <ele>277.60000610352</ele>
        <time>2016-01-27T13:29:42Z</time>
      </trkpt>
      <trkpt lat="43.39367" lon="6.07979">
        <ele>277.60000610352</ele>
        <time>2016-01-27T13:29:44Z</time>
      </trkpt>
      <trkpt lat="43.39367" lon="6.0798">
        <ele>277.60000610352</ele>
        <time>2016-01-27T13:29:46Z</time>
      </trkpt>
      <trkpt lat="43.39367" lon="6.0798">
        <ele>277.79998779297</ele>
        <time>2016-01-27T13:29:48Z</time>
      </trkpt>
      <trkpt lat="43.39367" lon="6.0798">
        <ele>277.79998779297</ele>
        <time>2016-01-27T13:29:50Z</time>
      </trkpt>
      <trkpt lat="43.39367" lon="6.0798">
        <ele>277.60000610352</ele>
        <time>2016-01-27T13:29:52Z</time>
      </trkpt>
      <trkpt lat="43.39366" lon="6.0798">
        <ele>277.79998779297</ele>
        <time>2016-01-27T13:29:54Z</time>
      </trkpt>
      <trkpt lat="43.39365" lon="6.07979">
        <ele>278</ele>
        <time>2016-01-27T13:29:56Z</time>
      </trkpt>
      <trkpt lat="43.39366" lon="6.07978">
        <ele>278</ele>
        <time>2016-01-27T13:29:57Z</time>
      </trkpt>
      <trkpt lat="43.39366" lon="6.07978">
        <ele>278.20001220703</ele>
        <time>2016-01-27T13:29:58Z</time>
      </trkpt>
      <trkpt lat="43.39366" lon="6.07978">
        <ele>278</ele>
        <time>2016-01-27T13:30:00Z</time>
      </trkpt>
      <trkpt lat="43.39366" lon="6.07978">
        <ele>278</ele>
        <time>2016-01-27T13:30:02Z</time>
      </trkpt>
      <trkpt lat="43.39366" lon="6.07978">
        <ele>277.79998779297</ele>
        <time>2016-01-27T13:30:04Z</time>
      </trkpt>
      <trkpt lat="43.39366" lon="6.07978">
        <ele>277.79998779297</ele>
        <time>2016-01-27T13:30:06Z</time>
      </trkpt>
      <trkpt lat="43.39366" lon="6.07978">
        <ele>277.79998779297</ele>
        <time>2016-01-27T13:30:08Z</time>
      </trkpt>
      <trkpt lat="43.39366" lon="6.07978">
        <ele>277.79998779297</ele>
        <time>2016-01-27T13:30:10Z</time>
      </trkpt>
      <trkpt lat="43.39366" lon="6.07978">
        <ele>278</ele>
        <time>2016-01-27T13:30:12Z</time>
      </trkpt>
      <trkpt lat="43.39366" lon="6.07978">
        <ele>277.79998779297</ele>
        <time>2016-01-27T13:30:13Z</time>
      </trkpt>
      <trkpt lat="43.39366" lon="6.07978">
        <ele>277.79998779297</ele>
        <time>2016-01-27T13:30:14Z</time>
      </trkpt>
      <trkpt lat="43.39366" lon="6.07978">
        <ele>277.79998779297</ele>
        <time>2016-01-27T13:30:16Z</time>
      </trkpt>
      <trkpt lat="43.39366" lon="6.07978">
        <ele>277.79998779297</ele>
        <time>2016-01-27T13:30:18Z</time>
      </trkpt>
      <trkpt lat="43.39366" lon="6.07978">
        <ele>277.79998779297</ele>
        <time>2016-01-27T13:30:20Z</time>
      </trkpt>
      <trkpt lat="43.39366" lon="6.07978">
        <ele>277.79998779297</ele>
        <time>2016-01-27T13:30:22Z</time>
      </trkpt>
      <trkpt lat="43.39366" lon="6.07978">
        <ele>278</ele>
        <time>2016-01-27T13:30:24Z</time>
      </trkpt>
      <trkpt lat="43.39366" lon="6.07978">
        <ele>277.79998779297</ele>
        <time>2016-01-27T13:30:26Z</time>
      </trkpt>
      <trkpt lat="43.39366" lon="6.07978">
        <ele>278</ele>
        <time>2016-01-27T13:30:28Z</time>
      </trkpt>
      <trkpt lat="43.39366" lon="6.07978">
        <ele>278</ele>
        <time>2016-01-27T13:30:30Z</time>
      </trkpt>
      <trkpt lat="43.39366" lon="6.07978">
        <ele>278</ele>
        <time>2016-01-27T13:30:32Z</time>
      </trkpt>
      <trkpt lat="43.39366" lon="6.07978">
        <ele>278</ele>
        <time>2016-01-27T13:30:34Z</time>
      </trkpt>
      <trkpt lat="43.39366" lon="6.07978">
        <ele>278</ele>
        <time>2016-01-27T13:30:36Z</time>
      </trkpt>
      <trkpt lat="43.39366" lon="6.07978">
        <ele>278</ele>
        <time>2016-01-27T13:30:38Z</time>
      </trkpt>
      <trkpt lat="43.39366" lon="6.07978">
        <ele>278</ele>
        <time>2016-01-27T13:30:40Z</time>
      </trkpt>
      <trkpt lat="43.39366" lon="6.07978">
        <ele>277.79998779297</ele>
        <time>2016-01-27T13:30:42Z</time>
      </trkpt>
      <trkpt lat="43.39366" lon="6.07978">
        <ele>278</ele>
        <time>2016-01-27T13:30:44Z</time>
      </trkpt>
      <trkpt lat="43.39366" lon="6.07978">
        <ele>278</ele>
        <time>2016-01-27T13:30:46Z</time>
      </trkpt>
      <trkpt lat="43.39366" lon="6.07978">
        <ele>277.79998779297</ele>
        <time>2016-01-27T13:30:48Z</time>
      </trkpt>
      <trkpt lat="43.39366" lon="6.07978">
        <ele>277.79998779297</ele>
        <time>2016-01-27T13:30:50Z</time>
      </trkpt>
      <trkpt lat="43.39366" lon="6.07978">
        <ele>277.79998779297</ele>
        <time>2016-01-27T13:30:52Z</time>
      </trkpt>
      <trkpt lat="43.39366" lon="6.07978">
        <ele>277.79998779297</ele>
        <time>2016-01-27T13:30:54Z</time>
      </trkpt>
      <trkpt lat="43.39366" lon="6.07978">
        <ele>277.79998779297</ele>
        <time>2016-01-27T13:30:56Z</time>
      </trkpt>
      <trkpt lat="43.39366" lon="6.07978">
        <ele>277.79998779297</ele>
        <time>2016-01-27T13:30:58Z</time>
      </trkpt>
      <trkpt lat="43.39366" lon="6.07978">
        <ele>277.79998779297</ele>
        <time>2016-01-27T13:31:00Z</time>
      </trkpt>
      <trkpt lat="43.39366" lon="6.07978">
        <ele>278</ele>
        <time>2016-01-27T13:31:02Z</time>
      </trkpt>
      <trkpt lat="43.39366" lon="6.07978">
        <ele>277.79998779297</ele>
        <time>2016-01-27T13:31:04Z</time>
      </trkpt>
      <trkpt lat="43.39367" lon="6.07978">
        <ele>277.79998779297</ele>
        <time>2016-01-27T13:31:06Z</time>
      </trkpt>
      <trkpt lat="43.39367" lon="6.07977">
        <ele>277.79998779297</ele>
        <time>2016-01-27T13:31:08Z</time>
      </trkpt>
      <trkpt lat="43.39367" lon="6.07977">
        <ele>277.79998779297</ele>
        <time>2016-01-27T13:31:09Z</time>
      </trkpt>
      <trkpt lat="43.39367" lon="6.07977">
        <ele>278</ele>
        <time>2016-01-27T13:31:10Z</time>
      </trkpt>
      <trkpt lat="43.39367" lon="6.07977">
        <ele>277.79998779297</ele>
        <time>2016-01-27T13:31:12Z</time>
      </trkpt>
      <trkpt lat="43.39367" lon="6.07977">
        <ele>277.79998779297</ele>
        <time>2016-01-27T13:31:14Z</time>
      </trkpt>
      <trkpt lat="43.39367" lon="6.07977">
        <ele>277.79998779297</ele>
        <time>2016-01-27T13:31:16Z</time>
      </trkpt>
      <trkpt lat="43.39367" lon="6.07977">
        <ele>277.79998779297</ele>
        <time>2016-01-27T13:31:18Z</time>
      </trkpt>
      <trkpt lat="43.39367" lon="6.07977">
        <ele>277.79998779297</ele>
        <time>2016-01-27T13:31:20Z</time>
      </trkpt>
      <trkpt lat="43.39367" lon="6.07977">
        <ele>277.79998779297</ele>
        <time>2016-01-27T13:31:22Z</time>
      </trkpt>
      <trkpt lat="43.39367" lon="6.07977">
        <ele>278</ele>
        <time>2016-01-27T13:31:24Z</time>
      </trkpt>
      <trkpt lat="43.39367" lon="6.07977">
        <ele>277.79998779297</ele>
        <time>2016-01-27T13:31:26Z</time>
      </trkpt>
      <trkpt lat="43.39367" lon="6.07976">
        <ele>277.79998779297</ele>
        <time>2016-01-27T13:31:28Z</time>
      </trkpt>
      <trkpt lat="43.39367" lon="6.07976">
        <ele>277.79998779297</ele>
        <time>2016-01-27T13:31:30Z</time>
      </trkpt>
      <trkpt lat="43.39367" lon="6.07976">
        <ele>277.79998779297</ele>
        <time>2016-01-27T13:31:32Z</time>
      </trkpt>
      <trkpt lat="43.39366" lon="6.07976">
        <ele>277.79998779297</ele>
        <time>2016-01-27T13:31:34Z</time>
      </trkpt>
      <trkpt lat="43.39366" lon="6.07976">
        <ele>278</ele>
        <time>2016-01-27T13:31:36Z</time>
      </trkpt>
      <trkpt lat="43.39366" lon="6.07976">
        <ele>277.79998779297</ele>
        <time>2016-01-27T13:31:38Z</time>
      </trkpt>
      <trkpt lat="43.39366" lon="6.07976">
        <ele>277.79998779297</ele>
        <time>2016-01-27T13:31:40Z</time>
      </trkpt>
      <trkpt lat="43.39366" lon="6.07976">
        <ele>277.79998779297</ele>
        <time>2016-01-27T13:31:42Z</time>
      </trkpt>
      <trkpt lat="43.39366" lon="6.07976">
        <ele>277.79998779297</ele>
        <time>2016-01-27T13:31:44Z</time>
      </trkpt>
      <trkpt lat="43.39366" lon="6.07976">
        <ele>278</ele>
        <time>2016-01-27T13:31:46Z</time>
      </trkpt>
      <trkpt lat="43.39366" lon="6.07976">
        <ele>277.79998779297</ele>
        <time>2016-01-27T13:31:48Z</time>
      </trkpt>
      <trkpt lat="43.39366" lon="6.07976">
        <ele>277.79998779297</ele>
        <time>2016-01-27T13:31:50Z</time>
      </trkpt>
      <trkpt lat="43.39366" lon="6.07976">
        <ele>277.79998779297</ele>
        <time>2016-01-27T13:31:52Z</time>
      </trkpt>
      <trkpt lat="43.39366" lon="6.07976">
        <ele>277.79998779297</ele>
        <time>2016-01-27T13:31:54Z</time>
      </trkpt>
      <trkpt lat="43.39366" lon="6.07976">
        <ele>277.60000610352</ele>
        <time>2016-01-27T13:31:56Z</time>
      </trkpt>
      <trkpt lat="43.39366" lon="6.07976">
        <ele>277.60000610352</ele>
        <time>2016-01-27T13:31:58Z</time>
      </trkpt>
      <trkpt lat="43.39366" lon="6.07976">
        <ele>277.79998779297</ele>
        <time>2016-01-27T13:32:00Z</time>
      </trkpt>
      <trkpt lat="43.39366" lon="6.07976">
        <ele>277.60000610352</ele>
        <time>2016-01-27T13:32:02Z</time>
      </trkpt>
      <trkpt lat="43.39366" lon="6.07976">
        <ele>277.79998779297</ele>
        <time>2016-01-27T13:32:04Z</time>
      </trkpt>
      <trkpt lat="43.39366" lon="6.07976">
        <ele>277.79998779297</ele>
        <time>2016-01-27T13:32:06Z</time>
      </trkpt>
      <trkpt lat="43.39366" lon="6.07976">
        <ele>277.60000610352</ele>
        <time>2016-01-27T13:32:08Z</time>
      </trkpt>
      <trkpt lat="43.39366" lon="6.07976">
        <ele>277.79998779297</ele>
        <time>2016-01-27T13:32:09Z</time>
      </trkpt>
      <trkpt lat="43.39366" lon="6.07976">
        <ele>277.79998779297</ele>
        <time>2016-01-27T13:32:10Z</time>
      </trkpt>
      <trkpt lat="43.39366" lon="6.07976">
        <ele>277.79998779297</ele>
        <time>2016-01-27T13:32:12Z</time>
      </trkpt>
      <trkpt lat="43.39366" lon="6.07976">
        <ele>277.79998779297</ele>
        <time>2016-01-27T13:32:14Z</time>
      </trkpt>
      <trkpt lat="43.39366" lon="6.07976">
        <ele>277.60000610352</ele>
        <time>2016-01-27T13:32:16Z</time>
      </trkpt>
      <trkpt lat="43.39366" lon="6.07976">
        <ele>277.60000610352</ele>
        <time>2016-01-27T13:32:18Z</time>
      </trkpt>
      <trkpt lat="43.39366" lon="6.07976">
        <ele>277.79998779297</ele>
        <time>2016-01-27T13:32:20Z</time>
      </trkpt>
      <trkpt lat="43.39366" lon="6.07976">
        <ele>277.79998779297</ele>
        <time>2016-01-27T13:32:22Z</time>
      </trkpt>
      <trkpt lat="43.39366" lon="6.07976">
        <ele>277.79998779297</ele>
        <time>2016-01-27T13:32:24Z</time>
      </trkpt>
      <trkpt lat="43.39366" lon="6.07976">
        <ele>277.79998779297</ele>
        <time>2016-01-27T13:32:26Z</time>
      </trkpt>
      <trkpt lat="43.39366" lon="6.07976">
        <ele>277.79998779297</ele>
        <time>2016-01-27T13:32:28Z</time>
      </trkpt>
      <trkpt lat="43.39365" lon="6.07976">
        <ele>277.79998779297</ele>
        <time>2016-01-27T13:32:30Z</time>
      </trkpt>
      <trkpt lat="43.39363" lon="6.07973">
        <ele>278</ele>
        <time>2016-01-27T13:32:32Z</time>
      </trkpt>
      <trkpt lat="43.39362" lon="6.07971">
        <ele>278.79998779297</ele>
        <time>2016-01-27T13:32:33Z</time>
      </trkpt>
      <trkpt lat="43.39362" lon="6.0797">
        <ele>279.20001220703</ele>
        <time>2016-01-27T13:32:34Z</time>
      </trkpt>
      <trkpt lat="43.39361" lon="6.0797">
        <ele>279.60000610352</ele>
        <time>2016-01-27T13:32:35Z</time>
      </trkpt>
      <trkpt lat="43.39361" lon="6.07971">
        <ele>279.79998779297</ele>
        <time>2016-01-27T13:32:36Z</time>
      </trkpt>
      <trkpt lat="43.3936" lon="6.0797">
        <ele>280</ele>
        <time>2016-01-27T13:32:37Z</time>
      </trkpt>
      <trkpt lat="43.3936" lon="6.07971">
        <ele>280</ele>
        <time>2016-01-27T13:32:38Z</time>
      </trkpt>
      <trkpt lat="43.39359" lon="6.07969">
        <ele>280</ele>
        <time>2016-01-27T13:32:40Z</time>
      </trkpt>
      <trkpt lat="43.3936" lon="6.07968">
        <ele>280.20001220703</ele>
        <time>2016-01-27T13:32:42Z</time>
      </trkpt>
      <trkpt lat="43.39359" lon="6.07967">
        <ele>280.39999389648</ele>
        <time>2016-01-27T13:32:43Z</time>
      </trkpt>
      <trkpt lat="43.39359" lon="6.07968">
        <ele>280.39999389648</ele>
        <time>2016-01-27T13:32:44Z</time>
      </trkpt>
      <trkpt lat="43.39359" lon="6.07967">
        <ele>280.60000610352</ele>
        <time>2016-01-27T13:32:46Z</time>
      </trkpt>
      <trkpt lat="43.39359" lon="6.07966">
        <ele>280.39999389648</ele>
        <time>2016-01-27T13:32:48Z</time>
      </trkpt>
      <trkpt lat="43.39359" lon="6.07966">
        <ele>280.60000610352</ele>
        <time>2016-01-27T13:32:50Z</time>
      </trkpt>
      <trkpt lat="43.39359" lon="6.07966">
        <ele>280.39999389648</ele>
        <time>2016-01-27T13:32:52Z</time>
      </trkpt>
      <trkpt lat="43.39359" lon="6.07966">
        <ele>280.39999389648</ele>
        <time>2016-01-27T13:32:54Z</time>
      </trkpt>
      <trkpt lat="43.39359" lon="6.07966">
        <ele>280.39999389648</ele>
        <time>2016-01-27T13:32:56Z</time>
      </trkpt>
      <trkpt lat="43.39359" lon="6.07966">
        <ele>280.39999389648</ele>
        <time>2016-01-27T13:32:58Z</time>
      </trkpt>
      <trkpt lat="43.39359" lon="6.07966">
        <ele>280.79998779297</ele>
        <time>2016-01-27T13:33:00Z</time>
      </trkpt>
      <trkpt lat="43.39359" lon="6.07966">
        <ele>280.60000610352</ele>
        <time>2016-01-27T13:33:02Z</time>
      </trkpt>
      <trkpt lat="43.39359" lon="6.07966">
        <ele>280.60000610352</ele>
        <time>2016-01-27T13:33:04Z</time>
      </trkpt>
      <trkpt lat="43.39359" lon="6.07967">
        <ele>280.60000610352</ele>
        <time>2016-01-27T13:33:06Z</time>
      </trkpt>
      <trkpt lat="43.39359" lon="6.07967">
        <ele>280.60000610352</ele>
        <time>2016-01-27T13:33:08Z</time>
      </trkpt>
      <trkpt lat="43.39359" lon="6.07967">
        <ele>280.60000610352</ele>
        <time>2016-01-27T13:33:10Z</time>
      </trkpt>
      <trkpt lat="43.39359" lon="6.07967">
        <ele>280.60000610352</ele>
        <time>2016-01-27T13:33:12Z</time>
      </trkpt>
      <trkpt lat="43.39359" lon="6.07967">
        <ele>280.60000610352</ele>
        <time>2016-01-27T13:33:13Z</time>
      </trkpt>
      <trkpt lat="43.39359" lon="6.07967">
        <ele>280.60000610352</ele>
        <time>2016-01-27T13:33:14Z</time>
      </trkpt>
      <trkpt lat="43.39359" lon="6.07967">
        <ele>280.60000610352</ele>
        <time>2016-01-27T13:33:16Z</time>
      </trkpt>
      <trkpt lat="43.39359" lon="6.07967">
        <ele>280.60000610352</ele>
        <time>2016-01-27T13:33:18Z</time>
      </trkpt>
      <trkpt lat="43.39359" lon="6.07967">
        <ele>280.60000610352</ele>
        <time>2016-01-27T13:33:20Z</time>
      </trkpt>
      <trkpt lat="43.39359" lon="6.07967">
        <ele>280.60000610352</ele>
        <time>2016-01-27T13:33:22Z</time>
      </trkpt>
      <trkpt lat="43.39359" lon="6.07967">
        <ele>280.39999389648</ele>
        <time>2016-01-27T13:33:24Z</time>
      </trkpt>
      <trkpt lat="43.39359" lon="6.07967">
        <ele>280.39999389648</ele>
        <time>2016-01-27T13:33:26Z</time>
      </trkpt>
      <trkpt lat="43.39359" lon="6.07967">
        <ele>280.20001220703</ele>
        <time>2016-01-27T13:33:28Z</time>
      </trkpt>
      <trkpt lat="43.39359" lon="6.07967">
        <ele>280.39999389648</ele>
        <time>2016-01-27T13:33:30Z</time>
      </trkpt>
      <trkpt lat="43.39359" lon="6.07967">
        <ele>280.60000610352</ele>
        <time>2016-01-27T13:33:32Z</time>
      </trkpt>
      <trkpt lat="43.39359" lon="6.07967">
        <ele>280.39999389648</ele>
        <time>2016-01-27T13:33:34Z</time>
      </trkpt>
      <trkpt lat="43.39359" lon="6.07967">
        <ele>280.39999389648</ele>
        <time>2016-01-27T13:33:36Z</time>
      </trkpt>
      <trkpt lat="43.39359" lon="6.07967">
        <ele>280.39999389648</ele>
        <time>2016-01-27T13:33:38Z</time>
      </trkpt>
      <trkpt lat="43.39359" lon="6.07967">
        <ele>280.20001220703</ele>
        <time>2016-01-27T13:33:40Z</time>
      </trkpt>
      <trkpt lat="43.39359" lon="6.07967">
        <ele>280.20001220703</ele>
        <time>2016-01-27T13:33:41Z</time>
      </trkpt>
      <trkpt lat="43.39359" lon="6.07967">
        <ele>280.20001220703</ele>
        <time>2016-01-27T13:33:42Z</time>
      </trkpt>
      <trkpt lat="43.39359" lon="6.07967">
        <ele>280.39999389648</ele>
        <time>2016-01-27T13:33:44Z</time>
      </trkpt>
      <trkpt lat="43.39359" lon="6.07967">
        <ele>280.20001220703</ele>
        <time>2016-01-27T13:33:46Z</time>
      </trkpt>
      <trkpt lat="43.39359" lon="6.07967">
        <ele>280.39999389648</ele>
        <time>2016-01-27T13:33:48Z</time>
      </trkpt>
      <trkpt lat="43.39359" lon="6.07967">
        <ele>280.39999389648</ele>
        <time>2016-01-27T13:33:50Z</time>
      </trkpt>
      <trkpt lat="43.3936" lon="6.07969">
        <ele>280.20001220703</ele>
        <time>2016-01-27T13:33:52Z</time>
      </trkpt>
      <trkpt lat="43.39361" lon="6.07974">
        <ele>279.60000610352</ele>
        <time>2016-01-27T13:33:54Z</time>
      </trkpt>
      <trkpt lat="43.39363" lon="6.07979">
        <ele>278.20001220703</ele>
        <time>2016-01-27T13:33:56Z</time>
      </trkpt>
      <trkpt lat="43.39363" lon="6.07982">
        <ele>277.79998779297</ele>
        <time>2016-01-27T13:33:58Z</time>
      </trkpt>
      <trkpt lat="43.39363" lon="6.07987">
        <ele>277.20001220703</ele>
        <time>2016-01-27T13:34:00Z</time>
      </trkpt>
      <trkpt lat="43.39362" lon="6.07991">
        <ele>276.60000610352</ele>
        <time>2016-01-27T13:34:02Z</time>
      </trkpt>
      <trkpt lat="43.3936" lon="6.07992">
        <ele>276.60000610352</ele>
        <time>2016-01-27T13:34:03Z</time>
      </trkpt>
      <trkpt lat="43.3936" lon="6.07994">
        <ele>276.79998779297</ele>
        <time>2016-01-27T13:34:04Z</time>
      </trkpt>
      <trkpt lat="43.39358" lon="6.07997">
        <ele>276.79998779297</ele>
        <time>2016-01-27T13:34:06Z</time>
      </trkpt>
      <trkpt lat="43.39357" lon="6.08001">
        <ele>276.79998779297</ele>
        <time>2016-01-27T13:34:08Z</time>
      </trkpt>
      <trkpt lat="43.39357" lon="6.08003">
        <ele>276.79998779297</ele>
        <time>2016-01-27T13:34:09Z</time>
      </trkpt>
      <trkpt lat="43.39357" lon="6.08005">
        <ele>276.79998779297</ele>
        <time>2016-01-27T13:34:10Z</time>
      </trkpt>
      <trkpt lat="43.39359" lon="6.08009">
        <ele>275.79998779297</ele>
        <time>2016-01-27T13:34:12Z</time>
      </trkpt>
      <trkpt lat="43.3936" lon="6.08012">
        <ele>275</ele>
        <time>2016-01-27T13:34:14Z</time>
      </trkpt>
      <trkpt lat="43.39359" lon="6.08014">
        <ele>274.79998779297</ele>
        <time>2016-01-27T13:34:15Z</time>
      </trkpt>
      <trkpt lat="43.39359" lon="6.08015">
        <ele>274.79998779297</ele>
        <time>2016-01-27T13:34:16Z</time>
      </trkpt>
      <trkpt lat="43.39358" lon="6.08017">
        <ele>274.79998779297</ele>
        <time>2016-01-27T13:34:17Z</time>
      </trkpt>
      <trkpt lat="43.39357" lon="6.08018">
        <ele>275</ele>
        <time>2016-01-27T13:34:18Z</time>
      </trkpt>
      <trkpt lat="43.39356" lon="6.0802">
        <ele>275</ele>
        <time>2016-01-27T13:34:20Z</time>
      </trkpt>
      <trkpt lat="43.39356" lon="6.0802">
        <ele>275</ele>
        <time>2016-01-27T13:34:21Z</time>
      </trkpt>
      <trkpt lat="43.39355" lon="6.08022">
        <ele>275</ele>
        <time>2016-01-27T13:34:22Z</time>
      </trkpt>
      <trkpt lat="43.39356" lon="6.08023">
        <ele>275.20001220703</ele>
        <time>2016-01-27T13:34:23Z</time>
      </trkpt>
      <trkpt lat="43.39356" lon="6.08024">
        <ele>275</ele>
        <time>2016-01-27T13:34:24Z</time>
      </trkpt>
      <trkpt lat="43.39356" lon="6.08026">
        <ele>275</ele>
        <time>2016-01-27T13:34:26Z</time>
      </trkpt>
      <trkpt lat="43.39357" lon="6.08025">
        <ele>275</ele>
        <time>2016-01-27T13:34:28Z</time>
      </trkpt>
      <trkpt lat="43.39359" lon="6.08024">
        <ele>275</ele>
        <time>2016-01-27T13:34:30Z</time>
      </trkpt>
      <trkpt lat="43.39359" lon="6.08023">
        <ele>275</ele>
        <time>2016-01-27T13:34:31Z</time>
      </trkpt>
      <trkpt lat="43.39359" lon="6.08023">
        <ele>275</ele>
        <time>2016-01-27T13:34:32Z</time>
      </trkpt>
      <trkpt lat="43.3936" lon="6.08022">
        <ele>274.79998779297</ele>
        <time>2016-01-27T13:34:34Z</time>
      </trkpt>
      <trkpt lat="43.39362" lon="6.08021">
        <ele>274.79998779297</ele>
        <time>2016-01-27T13:34:36Z</time>
      </trkpt>
      <trkpt lat="43.39363" lon="6.0802">
        <ele>274.79998779297</ele>
        <time>2016-01-27T13:34:37Z</time>
      </trkpt>
      <trkpt lat="43.39365" lon="6.08017">
        <ele>274.79998779297</ele>
        <time>2016-01-27T13:34:38Z</time>
      </trkpt>
      <trkpt lat="43.3937" lon="6.08009">
        <ele>274.60000610352</ele>
        <time>2016-01-27T13:34:40Z</time>
      </trkpt>
      <trkpt lat="43.39372" lon="6.08007">
        <ele>274.39999389648</ele>
        <time>2016-01-27T13:34:41Z</time>
      </trkpt>
      <trkpt lat="43.39374" lon="6.08005">
        <ele>274.20001220703</ele>
        <time>2016-01-27T13:34:42Z</time>
      </trkpt>
      <trkpt lat="43.39375" lon="6.08005">
        <ele>273.60000610352</ele>
        <time>2016-01-27T13:34:43Z</time>
      </trkpt>
      <trkpt lat="43.39377" lon="6.08005">
        <ele>273.39999389648</ele>
        <time>2016-01-27T13:34:44Z</time>
      </trkpt>
      <trkpt lat="43.39378" lon="6.08005">
        <ele>273.39999389648</ele>
        <time>2016-01-27T13:34:45Z</time>
      </trkpt>
      <trkpt lat="43.39378" lon="6.08005">
        <ele>273.39999389648</ele>
        <time>2016-01-27T13:34:46Z</time>
      </trkpt>
      <trkpt lat="43.39378" lon="6.08005">
        <ele>273.20001220703</ele>
        <time>2016-01-27T13:34:48Z</time>
      </trkpt>
      <trkpt lat="43.39378" lon="6.08005">
        <ele>273.20001220703</ele>
        <time>2016-01-27T13:34:50Z</time>
      </trkpt>
      <trkpt lat="43.39378" lon="6.08005">
        <ele>273.60000610352</ele>
        <time>2016-01-27T13:34:52Z</time>
      </trkpt>
      <trkpt lat="43.39378" lon="6.08005">
        <ele>273.39999389648</ele>
        <time>2016-01-27T13:34:54Z</time>
      </trkpt>
      <trkpt lat="43.39378" lon="6.08005">
        <ele>273.39999389648</ele>
        <time>2016-01-27T13:34:56Z</time>
      </trkpt>
      <trkpt lat="43.39378" lon="6.08005">
        <ele>273.39999389648</ele>
        <time>2016-01-27T13:34:58Z</time>
      </trkpt>
      <trkpt lat="43.39379" lon="6.08005">
        <ele>273.39999389648</ele>
        <time>2016-01-27T13:35:00Z</time>
      </trkpt>
      <trkpt lat="43.39379" lon="6.08005">
        <ele>273.60000610352</ele>
        <time>2016-01-27T13:35:02Z</time>
      </trkpt>
      <trkpt lat="43.39379" lon="6.08005">
        <ele>273.39999389648</ele>
        <time>2016-01-27T13:35:04Z</time>
      </trkpt>
      <trkpt lat="43.39379" lon="6.08005">
        <ele>273.39999389648</ele>
        <time>2016-01-27T13:35:06Z</time>
      </trkpt>
      <trkpt lat="43.39379" lon="6.08005">
        <ele>273.39999389648</ele>
        <time>2016-01-27T13:35:08Z</time>
      </trkpt>
      <trkpt lat="43.39379" lon="6.08005">
        <ele>273.39999389648</ele>
        <time>2016-01-27T13:35:10Z</time>
      </trkpt>
      <trkpt lat="43.39379" lon="6.08005">
        <ele>273.20001220703</ele>
        <time>2016-01-27T13:35:12Z</time>
      </trkpt>
      <trkpt lat="43.3938" lon="6.08004">
        <ele>273</ele>
        <time>2016-01-27T13:35:14Z</time>
      </trkpt>
      <trkpt lat="43.3938" lon="6.08004">
        <ele>273</ele>
        <time>2016-01-27T13:35:16Z</time>
      </trkpt>
      <trkpt lat="43.39381" lon="6.08003">
        <ele>273.20001220703</ele>
        <time>2016-01-27T13:35:17Z</time>
      </trkpt>
      <trkpt lat="43.39382" lon="6.08004">
        <ele>273.20001220703</ele>
        <time>2016-01-27T13:35:18Z</time>
      </trkpt>
      <trkpt lat="43.39383" lon="6.08002">
        <ele>273.39999389648</ele>
        <time>2016-01-27T13:35:20Z</time>
      </trkpt>
      <trkpt lat="43.39383" lon="6.08">
        <ele>273.39999389648</ele>
        <time>2016-01-27T13:35:21Z</time>
      </trkpt>
      <trkpt lat="43.39382" lon="6.07999">
        <ele>273.20001220703</ele>
        <time>2016-01-27T13:35:22Z</time>
      </trkpt>
      <trkpt lat="43.39379" lon="6.07999">
        <ele>273</ele>
        <time>2016-01-27T13:35:24Z</time>
      </trkpt>
      <trkpt lat="43.39377" lon="6.08">
        <ele>273.20001220703</ele>
        <time>2016-01-27T13:35:26Z</time>
      </trkpt>
      <trkpt lat="43.39376" lon="6.08">
        <ele>273.20001220703</ele>
        <time>2016-01-27T13:35:27Z</time>
      </trkpt>
      <trkpt lat="43.39375" lon="6.08002">
        <ele>273.39999389648</ele>
        <time>2016-01-27T13:35:28Z</time>
      </trkpt>
      <trkpt lat="43.39372" lon="6.08004">
        <ele>273.60000610352</ele>
        <time>2016-01-27T13:35:30Z</time>
      </trkpt>
      <trkpt lat="43.3937" lon="6.08006">
        <ele>273.79998779297</ele>
        <time>2016-01-27T13:35:32Z</time>
      </trkpt>
      <trkpt lat="43.39368" lon="6.08007">
        <ele>274.20001220703</ele>
        <time>2016-01-27T13:35:34Z</time>
      </trkpt>
      <trkpt lat="43.39366" lon="6.08009">
        <ele>274.20001220703</ele>
        <time>2016-01-27T13:35:36Z</time>
      </trkpt>
      <trkpt lat="43.39366" lon="6.0801">
        <ele>274.39999389648</ele>
        <time>2016-01-27T13:35:37Z</time>
      </trkpt>
      <trkpt lat="43.39365" lon="6.0801">
        <ele>274.60000610352</ele>
        <time>2016-01-27T13:35:38Z</time>
      </trkpt>
      <trkpt lat="43.39363" lon="6.08013">
        <ele>274.79998779297</ele>
        <time>2016-01-27T13:35:40Z</time>
      </trkpt>
      <trkpt lat="43.39361" lon="6.08016">
        <ele>275.20001220703</ele>
        <time>2016-01-27T13:35:42Z</time>
      </trkpt>
      <trkpt lat="43.3936" lon="6.08019">
        <ele>275.20001220703</ele>
        <time>2016-01-27T13:35:43Z</time>
      </trkpt>
      <trkpt lat="43.39359" lon="6.08022">
        <ele>275.20001220703</ele>
        <time>2016-01-27T13:35:44Z</time>
      </trkpt>
      <trkpt lat="43.39356" lon="6.08025">
        <ele>275.39999389648</ele>
        <time>2016-01-27T13:35:46Z</time>
      </trkpt>
      <trkpt lat="43.39355" lon="6.08029">
        <ele>275.60000610352</ele>
        <time>2016-01-27T13:35:48Z</time>
      </trkpt>
      <trkpt lat="43.39354" lon="6.08028">
        <ele>275.60000610352</ele>
        <time>2016-01-27T13:35:49Z</time>
      </trkpt>
      <trkpt lat="43.39354" lon="6.08029">
        <ele>275.79998779297</ele>
        <time>2016-01-27T13:35:50Z</time>
      </trkpt>
      <trkpt lat="43.39352" lon="6.08031">
        <ele>275.79998779297</ele>
        <time>2016-01-27T13:35:52Z</time>
      </trkpt>
      <trkpt lat="43.39352" lon="6.08031">
        <ele>275.79998779297</ele>
        <time>2016-01-27T13:35:53Z</time>
      </trkpt>
      <trkpt lat="43.39351" lon="6.08031">
        <ele>275.79998779297</ele>
        <time>2016-01-27T13:35:54Z</time>
      </trkpt>
      <trkpt lat="43.3935" lon="6.08032">
        <ele>276</ele>
        <time>2016-01-27T13:35:56Z</time>
      </trkpt>
      <trkpt lat="43.39349" lon="6.08033">
        <ele>276</ele>
        <time>2016-01-27T13:35:58Z</time>
      </trkpt>
      <trkpt lat="43.39347" lon="6.08035">
        <ele>276.39999389648</ele>
        <time>2016-01-27T13:36:00Z</time>
      </trkpt>
      <trkpt lat="43.39344" lon="6.08038">
        <ele>277</ele>
        <time>2016-01-27T13:36:02Z</time>
      </trkpt>
      <trkpt lat="43.39341" lon="6.08041">
        <ele>277.39999389648</ele>
        <time>2016-01-27T13:36:04Z</time>
      </trkpt>
      <trkpt lat="43.3934" lon="6.08043">
        <ele>277.60000610352</ele>
        <time>2016-01-27T13:36:05Z</time>
      </trkpt>
      <trkpt lat="43.39338" lon="6.08045">
        <ele>277.79998779297</ele>
        <time>2016-01-27T13:36:06Z</time>
      </trkpt>
      <trkpt lat="43.39336" lon="6.0805">
        <ele>278.20001220703</ele>
        <time>2016-01-27T13:36:08Z</time>
      </trkpt>
      <trkpt lat="43.39334" lon="6.08054">
        <ele>278.20001220703</ele>
        <time>2016-01-27T13:36:10Z</time>
      </trkpt>
      <trkpt lat="43.39333" lon="6.08056">
        <ele>278.20001220703</ele>
        <time>2016-01-27T13:36:11Z</time>
      </trkpt>
      <trkpt lat="43.39331" lon="6.08059">
        <ele>278</ele>
        <time>2016-01-27T13:36:12Z</time>
      </trkpt>
      <trkpt lat="43.39328" lon="6.08063">
        <ele>278</ele>
        <time>2016-01-27T13:36:14Z</time>
      </trkpt>
      <trkpt lat="43.39326" lon="6.08067">
        <ele>278.20001220703</ele>
        <time>2016-01-27T13:36:16Z</time>
      </trkpt>
      <trkpt lat="43.39325" lon="6.08069">
        <ele>278.20001220703</ele>
        <time>2016-01-27T13:36:17Z</time>
      </trkpt>
      <trkpt lat="43.39323" lon="6.08072">
        <ele>278.39999389648</ele>
        <time>2016-01-27T13:36:18Z</time>
      </trkpt>
      <trkpt lat="43.3932" lon="6.08075">
        <ele>278.79998779297</ele>
        <time>2016-01-27T13:36:20Z</time>
      </trkpt>
      <trkpt lat="43.39317" lon="6.0808">
        <ele>278.79998779297</ele>
        <time>2016-01-27T13:36:22Z</time>
      </trkpt>
      <trkpt lat="43.39313" lon="6.08084">
        <ele>279</ele>
        <time>2016-01-27T13:36:24Z</time>
      </trkpt>
      <trkpt lat="43.3931" lon="6.08088">
        <ele>279</ele>
        <time>2016-01-27T13:36:26Z</time>
      </trkpt>
      <trkpt lat="43.39307" lon="6.08093">
        <ele>279.39999389648</ele>
        <time>2016-01-27T13:36:28Z</time>
      </trkpt>
      <trkpt lat="43.39304" lon="6.08098">
        <ele>279.79998779297</ele>
        <time>2016-01-27T13:36:30Z</time>
      </trkpt>
      <trkpt lat="43.39302" lon="6.08101">
        <ele>280</ele>
        <time>2016-01-27T13:36:32Z</time>
      </trkpt>
      <trkpt lat="43.39301" lon="6.08104">
        <ele>280.39999389648</ele>
        <time>2016-01-27T13:36:34Z</time>
      </trkpt>
      <trkpt lat="43.39299" lon="6.08107">
        <ele>280.60000610352</ele>
        <time>2016-01-27T13:36:35Z</time>
      </trkpt>
      <trkpt lat="43.39299" lon="6.0811">
        <ele>280.60000610352</ele>
        <time>2016-01-27T13:36:36Z</time>
      </trkpt>
      <trkpt lat="43.39296" lon="6.08114">
        <ele>281</ele>
        <time>2016-01-27T13:36:38Z</time>
      </trkpt>
      <trkpt lat="43.39294" lon="6.08118">
        <ele>281.20001220703</ele>
        <time>2016-01-27T13:36:40Z</time>
      </trkpt>
      <trkpt lat="43.39291" lon="6.08123">
        <ele>281</ele>
        <time>2016-01-27T13:36:42Z</time>
      </trkpt>
      <trkpt lat="43.39289" lon="6.08128">
        <ele>281.20001220703</ele>
        <time>2016-01-27T13:36:44Z</time>
      </trkpt>
      <trkpt lat="43.39289" lon="6.08132">
        <ele>281.20001220703</ele>
        <time>2016-01-27T13:36:46Z</time>
      </trkpt>
      <trkpt lat="43.39288" lon="6.08133">
        <ele>281.39999389648</ele>
        <time>2016-01-27T13:36:47Z</time>
      </trkpt>
      <trkpt lat="43.39288" lon="6.08134">
        <ele>281.39999389648</ele>
        <time>2016-01-27T13:36:48Z</time>
      </trkpt>
      <trkpt lat="43.39289" lon="6.08137">
        <ele>281.60000610352</ele>
        <time>2016-01-27T13:36:50Z</time>
      </trkpt>
      <trkpt lat="43.39289" lon="6.08138">
        <ele>281.39999389648</ele>
        <time>2016-01-27T13:36:52Z</time>
      </trkpt>
      <trkpt lat="43.39288" lon="6.08139">
        <ele>281.39999389648</ele>
        <time>2016-01-27T13:36:54Z</time>
      </trkpt>
      <trkpt lat="43.39288" lon="6.08139">
        <ele>281.39999389648</ele>
        <time>2016-01-27T13:36:56Z</time>
      </trkpt>
      <trkpt lat="43.39289" lon="6.08139">
        <ele>281.60000610352</ele>
        <time>2016-01-27T13:36:58Z</time>
      </trkpt>
      <trkpt lat="43.39288" lon="6.08139">
        <ele>281.60000610352</ele>
        <time>2016-01-27T13:36:59Z</time>
      </trkpt>
      <trkpt lat="43.39288" lon="6.0814">
        <ele>281.79998779297</ele>
        <time>2016-01-27T13:37:00Z</time>
      </trkpt>
      <trkpt lat="43.39288" lon="6.08141">
        <ele>281.60000610352</ele>
        <time>2016-01-27T13:37:02Z</time>
      </trkpt>
      <trkpt lat="43.39288" lon="6.08142">
        <ele>281.79998779297</ele>
        <time>2016-01-27T13:37:04Z</time>
      </trkpt>
      <trkpt lat="43.39288" lon="6.08141">
        <ele>281.79998779297</ele>
        <time>2016-01-27T13:37:05Z</time>
      </trkpt>
      <trkpt lat="43.39288" lon="6.08141">
        <ele>282</ele>
        <time>2016-01-27T13:37:06Z</time>
      </trkpt>
      <trkpt lat="43.39288" lon="6.08141">
        <ele>282</ele>
        <time>2016-01-27T13:37:08Z</time>
      </trkpt>
      <trkpt lat="43.39288" lon="6.08141">
        <ele>282</ele>
        <time>2016-01-27T13:37:10Z</time>
      </trkpt>
      <trkpt lat="43.39288" lon="6.08142">
        <ele>282</ele>
        <time>2016-01-27T13:37:12Z</time>
      </trkpt>
      <trkpt lat="43.39288" lon="6.08142">
        <ele>282</ele>
        <time>2016-01-27T13:37:14Z</time>
      </trkpt>
      <trkpt lat="43.39288" lon="6.08142">
        <ele>281.79998779297</ele>
        <time>2016-01-27T13:37:15Z</time>
      </trkpt>
      <trkpt lat="43.39288" lon="6.08142">
        <ele>282</ele>
        <time>2016-01-27T13:37:16Z</time>
      </trkpt>
      <trkpt lat="43.39288" lon="6.08142">
        <ele>282</ele>
        <time>2016-01-27T13:37:18Z</time>
      </trkpt>
      <trkpt lat="43.39288" lon="6.08142">
        <ele>281.79998779297</ele>
        <time>2016-01-27T13:37:20Z</time>
      </trkpt>
      <trkpt lat="43.39288" lon="6.08142">
        <ele>281.79998779297</ele>
        <time>2016-01-27T13:37:22Z</time>
      </trkpt>
      <trkpt lat="43.39288" lon="6.08142">
        <ele>281.79998779297</ele>
        <time>2016-01-27T13:37:24Z</time>
      </trkpt>
      <trkpt lat="43.39288" lon="6.08142">
        <ele>282</ele>
        <time>2016-01-27T13:37:26Z</time>
      </trkpt>
      <trkpt lat="43.39288" lon="6.08143">
        <ele>282</ele>
        <time>2016-01-27T13:37:28Z</time>
      </trkpt>
      <trkpt lat="43.39288" lon="6.08143">
        <ele>282</ele>
        <time>2016-01-27T13:37:29Z</time>
      </trkpt>
      <trkpt lat="43.39288" lon="6.08144">
        <ele>282</ele>
        <time>2016-01-27T13:37:30Z</time>
      </trkpt>
      <trkpt lat="43.39288" lon="6.08145">
        <ele>282.20001220703</ele>
        <time>2016-01-27T13:37:32Z</time>
      </trkpt>
      <trkpt lat="43.39288" lon="6.08145">
        <ele>282.20001220703</ele>
        <time>2016-01-27T13:37:34Z</time>
      </trkpt>
      <trkpt lat="43.39288" lon="6.08146">
        <ele>282.20001220703</ele>
        <time>2016-01-27T13:37:36Z</time>
      </trkpt>
      <trkpt lat="43.39288" lon="6.08146">
        <ele>282.20001220703</ele>
        <time>2016-01-27T13:37:37Z</time>
      </trkpt>
      <trkpt lat="43.39288" lon="6.08146">
        <ele>282.39999389648</ele>
        <time>2016-01-27T13:37:38Z</time>
      </trkpt>
      <trkpt lat="43.39288" lon="6.08148">
        <ele>282.60000610352</ele>
        <time>2016-01-27T13:37:40Z</time>
      </trkpt>
      <trkpt lat="43.39288" lon="6.08148">
        <ele>282.79998779297</ele>
        <time>2016-01-27T13:37:42Z</time>
      </trkpt>
      <trkpt lat="43.39288" lon="6.08149">
        <ele>282.79998779297</ele>
        <time>2016-01-27T13:37:43Z</time>
      </trkpt>
      <trkpt lat="43.39288" lon="6.0815">
        <ele>283</ele>
        <time>2016-01-27T13:37:44Z</time>
      </trkpt>
      <trkpt lat="43.39286" lon="6.08154">
        <ele>283.20001220703</ele>
        <time>2016-01-27T13:37:46Z</time>
      </trkpt>
      <trkpt lat="43.39285" lon="6.08158">
        <ele>283.20001220703</ele>
        <time>2016-01-27T13:37:48Z</time>
      </trkpt>
      <trkpt lat="43.39284" lon="6.08159">
        <ele>283.20001220703</ele>
        <time>2016-01-27T13:37:49Z</time>
      </trkpt>
      <trkpt lat="43.39283" lon="6.08162">
        <ele>283.39999389648</ele>
        <time>2016-01-27T13:37:50Z</time>
      </trkpt>
      <trkpt lat="43.39282" lon="6.08165">
        <ele>283.60000610352</ele>
        <time>2016-01-27T13:37:52Z</time>
      </trkpt>
      <trkpt lat="43.39281" lon="6.08167">
        <ele>283.79998779297</ele>
        <time>2016-01-27T13:37:53Z</time>
      </trkpt>
      <trkpt lat="43.39281" lon="6.08168">
        <ele>284.20001220703</ele>
        <time>2016-01-27T13:37:54Z</time>
      </trkpt>
      <trkpt lat="43.3928" lon="6.08169">
        <ele>284.39999389648</ele>
        <time>2016-01-27T13:37:55Z</time>
      </trkpt>
      <trkpt lat="43.39279" lon="6.08171">
        <ele>284.39999389648</ele>
        <time>2016-01-27T13:37:56Z</time>
      </trkpt>
      <trkpt lat="43.39279" lon="6.08174">
        <ele>284.60000610352</ele>
        <time>2016-01-27T13:37:58Z</time>
      </trkpt>
      <trkpt lat="43.39279" lon="6.08175">
        <ele>284.60000610352</ele>
        <time>2016-01-27T13:37:59Z</time>
      </trkpt>
      <trkpt lat="43.39279" lon="6.08177">
        <ele>284.60000610352</ele>
        <time>2016-01-27T13:38:00Z</time>
      </trkpt>
      <trkpt lat="43.39278" lon="6.08178">
        <ele>285</ele>
        <time>2016-01-27T13:38:02Z</time>
      </trkpt>
      <trkpt lat="43.39279" lon="6.08178">
        <ele>285</ele>
        <time>2016-01-27T13:38:04Z</time>
      </trkpt>
      <trkpt lat="43.39279" lon="6.08178">
        <ele>285</ele>
        <time>2016-01-27T13:38:05Z</time>
      </trkpt>
      <trkpt lat="43.39279" lon="6.08179">
        <ele>285</ele>
        <time>2016-01-27T13:38:06Z</time>
      </trkpt>
      <trkpt lat="43.3928" lon="6.08179">
        <ele>284.79998779297</ele>
        <time>2016-01-27T13:38:08Z</time>
      </trkpt>
      <trkpt lat="43.3928" lon="6.08179">
        <ele>285</ele>
        <time>2016-01-27T13:38:10Z</time>
      </trkpt>
      <trkpt lat="43.3928" lon="6.08179">
        <ele>285</ele>
        <time>2016-01-27T13:38:12Z</time>
      </trkpt>
      <trkpt lat="43.39279" lon="6.08179">
        <ele>285</ele>
        <time>2016-01-27T13:38:13Z</time>
      </trkpt>
      <trkpt lat="43.39279" lon="6.08179">
        <ele>285</ele>
        <time>2016-01-27T13:38:14Z</time>
      </trkpt>
      <trkpt lat="43.39279" lon="6.08181">
        <ele>285</ele>
        <time>2016-01-27T13:38:16Z</time>
      </trkpt>
      <trkpt lat="43.39279" lon="6.08181">
        <ele>285.20001220703</ele>
        <time>2016-01-27T13:38:18Z</time>
      </trkpt>
      <trkpt lat="43.39279" lon="6.08182">
        <ele>285.20001220703</ele>
        <time>2016-01-27T13:38:20Z</time>
      </trkpt>
      <trkpt lat="43.39278" lon="6.08183">
        <ele>285.20001220703</ele>
        <time>2016-01-27T13:38:22Z</time>
      </trkpt>
      <trkpt lat="43.39277" lon="6.08184">
        <ele>285.39999389648</ele>
        <time>2016-01-27T13:38:23Z</time>
      </trkpt>
      <trkpt lat="43.39277" lon="6.08184">
        <ele>285.60000610352</ele>
        <time>2016-01-27T13:38:24Z</time>
      </trkpt>
      <trkpt lat="43.39277" lon="6.08184">
        <ele>286</ele>
        <time>2016-01-27T13:38:26Z</time>
      </trkpt>
      <trkpt lat="43.39276" lon="6.08185">
        <ele>286.20001220703</ele>
        <time>2016-01-27T13:38:28Z</time>
      </trkpt>
      <trkpt lat="43.39275" lon="6.08187">
        <ele>286.39999389648</ele>
        <time>2016-01-27T13:38:30Z</time>
      </trkpt>
      <trkpt lat="43.39276" lon="6.08188">
        <ele>286.39999389648</ele>
        <time>2016-01-27T13:38:31Z</time>
      </trkpt>
      <trkpt lat="43.39276" lon="6.08189">
        <ele>286.39999389648</ele>
        <time>2016-01-27T13:38:32Z</time>
      </trkpt>
      <trkpt lat="43.39276" lon="6.08189">
        <ele>286.39999389648</ele>
        <time>2016-01-27T13:38:33Z</time>
      </trkpt>
      <trkpt lat="43.39276" lon="6.08189">
        <ele>286.39999389648</ele>
        <time>2016-01-27T13:38:34Z</time>
      </trkpt>
      <trkpt lat="43.39276" lon="6.08189">
        <ele>286.39999389648</ele>
        <time>2016-01-27T13:38:36Z</time>
      </trkpt>
      <trkpt lat="43.39276" lon="6.0819">
        <ele>286.39999389648</ele>
        <time>2016-01-27T13:38:38Z</time>
      </trkpt>
      <trkpt lat="43.39276" lon="6.08193">
        <ele>286.39999389648</ele>
        <time>2016-01-27T13:38:40Z</time>
      </trkpt>
      <trkpt lat="43.39276" lon="6.08195">
        <ele>286.39999389648</ele>
        <time>2016-01-27T13:38:41Z</time>
      </trkpt>
      <trkpt lat="43.39275" lon="6.08198">
        <ele>286.20001220703</ele>
        <time>2016-01-27T13:38:42Z</time>
      </trkpt>
      <trkpt lat="43.39275" lon="6.08203">
        <ele>286.60000610352</ele>
        <time>2016-01-27T13:38:44Z</time>
      </trkpt>
      <trkpt lat="43.39274" lon="6.08209">
        <ele>286.60000610352</ele>
        <time>2016-01-27T13:38:46Z</time>
      </trkpt>
      <trkpt lat="43.39274" lon="6.08211">
        <ele>286.79998779297</ele>
        <time>2016-01-27T13:38:47Z</time>
      </trkpt>
      <trkpt lat="43.39274" lon="6.08214">
        <ele>287.20001220703</ele>
        <time>2016-01-27T13:38:48Z</time>
      </trkpt>
      <trkpt lat="43.39273" lon="6.08217">
        <ele>287.20001220703</ele>
        <time>2016-01-27T13:38:49Z</time>
      </trkpt>
      <trkpt lat="43.39273" lon="6.08219">
        <ele>287.39999389648</ele>
        <time>2016-01-27T13:38:50Z</time>
      </trkpt>
      <trkpt lat="43.39272" lon="6.08224">
        <ele>287.60000610352</ele>
        <time>2016-01-27T13:38:52Z</time>
      </trkpt>
      <trkpt lat="43.3927" lon="6.08228">
        <ele>288</ele>
        <time>2016-01-27T13:38:54Z</time>
      </trkpt>
      <trkpt lat="43.3927" lon="6.08232">
        <ele>288.60000610352</ele>
        <time>2016-01-27T13:38:56Z</time>
      </trkpt>
      <trkpt lat="43.3927" lon="6.08236">
        <ele>288.60000610352</ele>
        <time>2016-01-27T13:38:58Z</time>
      </trkpt>
      <trkpt lat="43.39269" lon="6.08239">
        <ele>288.79998779297</ele>
        <time>2016-01-27T13:39:00Z</time>
      </trkpt>
      <trkpt lat="43.39269" lon="6.08242">
        <ele>289</ele>
        <time>2016-01-27T13:39:02Z</time>
      </trkpt>
      <trkpt lat="43.39269" lon="6.08242">
        <ele>289.20001220703</ele>
        <time>2016-01-27T13:39:04Z</time>
      </trkpt>
      <trkpt lat="43.39269" lon="6.08242">
        <ele>289.20001220703</ele>
        <time>2016-01-27T13:39:05Z</time>
      </trkpt>
      <trkpt lat="43.39269" lon="6.08242">
        <ele>289.20001220703</ele>
        <time>2016-01-27T13:39:06Z</time>
      </trkpt>
      <trkpt lat="43.39268" lon="6.08243">
        <ele>289.20001220703</ele>
        <time>2016-01-27T13:39:08Z</time>
      </trkpt>
      <trkpt lat="43.39268" lon="6.08246">
        <ele>289.39999389648</ele>
        <time>2016-01-27T13:39:10Z</time>
      </trkpt>
      <trkpt lat="43.39268" lon="6.08247">
        <ele>289.60000610352</ele>
        <time>2016-01-27T13:39:11Z</time>
      </trkpt>
      <trkpt lat="43.39268" lon="6.0825">
        <ele>289.60000610352</ele>
        <time>2016-01-27T13:39:12Z</time>
      </trkpt>
      <trkpt lat="43.39267" lon="6.08254">
        <ele>289.79998779297</ele>
        <time>2016-01-27T13:39:14Z</time>
      </trkpt>
      <trkpt lat="43.39265" lon="6.08258">
        <ele>290.20001220703</ele>
        <time>2016-01-27T13:39:16Z</time>
      </trkpt>
      <trkpt lat="43.39264" lon="6.0826">
        <ele>290.39999389648</ele>
        <time>2016-01-27T13:39:17Z</time>
      </trkpt>
      <trkpt lat="43.39263" lon="6.08262">
        <ele>290.39999389648</ele>
        <time>2016-01-27T13:39:18Z</time>
      </trkpt>
      <trkpt lat="43.39262" lon="6.08263">
        <ele>290.79998779297</ele>
        <time>2016-01-27T13:39:19Z</time>
      </trkpt>
      <trkpt lat="43.39261" lon="6.08264">
        <ele>291</ele>
        <time>2016-01-27T13:39:20Z</time>
      </trkpt>
      <trkpt lat="43.3926" lon="6.08266">
        <ele>291.20001220703</ele>
        <time>2016-01-27T13:39:22Z</time>
      </trkpt>
      <trkpt lat="43.3926" lon="6.08265">
        <ele>291.39999389648</ele>
        <time>2016-01-27T13:39:24Z</time>
      </trkpt>
      <trkpt lat="43.39259" lon="6.08266">
        <ele>291.60000610352</ele>
        <time>2016-01-27T13:39:26Z</time>
      </trkpt>
      <trkpt lat="43.39259" lon="6.08266">
        <ele>291.39999389648</ele>
        <time>2016-01-27T13:39:28Z</time>
      </trkpt>
      <trkpt lat="43.39259" lon="6.08266">
        <ele>291.39999389648</ele>
        <time>2016-01-27T13:39:29Z</time>
      </trkpt>
      <trkpt lat="43.39259" lon="6.08266">
        <ele>291.39999389648</ele>
        <time>2016-01-27T13:39:30Z</time>
      </trkpt>
      <trkpt lat="43.39258" lon="6.08266">
        <ele>291.60000610352</ele>
        <time>2016-01-27T13:39:32Z</time>
      </trkpt>
      <trkpt lat="43.39258" lon="6.08266">
        <ele>291.39999389648</ele>
        <time>2016-01-27T13:39:34Z</time>
      </trkpt>
      <trkpt lat="43.39257" lon="6.08267">
        <ele>291.60000610352</ele>
        <time>2016-01-27T13:39:36Z</time>
      </trkpt>
      <trkpt lat="43.39257" lon="6.08267">
        <ele>291.39999389648</ele>
        <time>2016-01-27T13:39:38Z</time>
      </trkpt>
      <trkpt lat="43.39257" lon="6.08268">
        <ele>291.39999389648</ele>
        <time>2016-01-27T13:39:40Z</time>
      </trkpt>
      <trkpt lat="43.39257" lon="6.08268">
        <ele>291.60000610352</ele>
        <time>2016-01-27T13:39:42Z</time>
      </trkpt>
      <trkpt lat="43.39256" lon="6.0827">
        <ele>291.60000610352</ele>
        <time>2016-01-27T13:39:44Z</time>
      </trkpt>
      <trkpt lat="43.39253" lon="6.08272">
        <ele>292</ele>
        <time>2016-01-27T13:39:46Z</time>
      </trkpt>
      <trkpt lat="43.39251" lon="6.08273">
        <ele>292</ele>
        <time>2016-01-27T13:39:47Z</time>
      </trkpt>
      <trkpt lat="43.39249" lon="6.08275">
        <ele>292.20001220703</ele>
        <time>2016-01-27T13:39:48Z</time>
      </trkpt>
      <trkpt lat="43.39248" lon="6.08278">
        <ele>292.39999389648</ele>
        <time>2016-01-27T13:39:50Z</time>
      </trkpt>
      <trkpt lat="43.39248" lon="6.08279">
        <ele>292.60000610352</ele>
        <time>2016-01-27T13:39:51Z</time>
      </trkpt>
      <trkpt lat="43.39247" lon="6.0828">
        <ele>292.60000610352</ele>
        <time>2016-01-27T13:39:52Z</time>
      </trkpt>
      <trkpt lat="43.39247" lon="6.0828">
        <ele>292.60000610352</ele>
        <time>2016-01-27T13:39:54Z</time>
      </trkpt>
      <trkpt lat="43.39247" lon="6.0828">
        <ele>292.39999389648</ele>
        <time>2016-01-27T13:39:56Z</time>
      </trkpt>
      <trkpt lat="43.39247" lon="6.0828">
        <ele>292.39999389648</ele>
        <time>2016-01-27T13:39:57Z</time>
      </trkpt>
      <trkpt lat="43.39247" lon="6.0828">
        <ele>292.39999389648</ele>
        <time>2016-01-27T13:39:58Z</time>
      </trkpt>
      <trkpt lat="43.39247" lon="6.0828">
        <ele>292.39999389648</ele>
        <time>2016-01-27T13:40:00Z</time>
      </trkpt>
      <trkpt lat="43.39246" lon="6.08281">
        <ele>292.39999389648</ele>
        <time>2016-01-27T13:40:02Z</time>
      </trkpt>
      <trkpt lat="43.39245" lon="6.08283">
        <ele>292.39999389648</ele>
        <time>2016-01-27T13:40:04Z</time>
      </trkpt>
      <trkpt lat="43.39245" lon="6.08283">
        <ele>292.79998779297</ele>
        <time>2016-01-27T13:40:06Z</time>
      </trkpt>
      <trkpt lat="43.39245" lon="6.08284">
        <ele>292.79998779297</ele>
        <time>2016-01-27T13:40:08Z</time>
      </trkpt>
      <trkpt lat="43.39245" lon="6.08284">
        <ele>292.79998779297</ele>
        <time>2016-01-27T13:40:10Z</time>
      </trkpt>
      <trkpt lat="43.39245" lon="6.08285">
        <ele>293.20001220703</ele>
        <time>2016-01-27T13:40:12Z</time>
      </trkpt>
      <trkpt lat="43.39244" lon="6.08286">
        <ele>293.60000610352</ele>
        <time>2016-01-27T13:40:14Z</time>
      </trkpt>
      <trkpt lat="43.39244" lon="6.08287">
        <ele>293.60000610352</ele>
        <time>2016-01-27T13:40:15Z</time>
      </trkpt>
      <trkpt lat="43.39244" lon="6.08287">
        <ele>293.60000610352</ele>
        <time>2016-01-27T13:40:16Z</time>
      </trkpt>
      <trkpt lat="43.39244" lon="6.08288">
        <ele>293.79998779297</ele>
        <time>2016-01-27T13:40:18Z</time>
      </trkpt>
      <trkpt lat="43.39244" lon="6.08288">
        <ele>293.79998779297</ele>
        <time>2016-01-27T13:40:20Z</time>
      </trkpt>
      <trkpt lat="43.39244" lon="6.08288">
        <ele>293.60000610352</ele>
        <time>2016-01-27T13:40:22Z</time>
      </trkpt>
      <trkpt lat="43.39244" lon="6.08288">
        <ele>293.60000610352</ele>
        <time>2016-01-27T13:40:23Z</time>
      </trkpt>
      <trkpt lat="43.39244" lon="6.08288">
        <ele>293.79998779297</ele>
        <time>2016-01-27T13:40:24Z</time>
      </trkpt>
      <trkpt lat="43.39243" lon="6.0829">
        <ele>293.79998779297</ele>
        <time>2016-01-27T13:40:26Z</time>
      </trkpt>
      <trkpt lat="43.39242" lon="6.08294">
        <ele>293.60000610352</ele>
        <time>2016-01-27T13:40:28Z</time>
      </trkpt>
      <trkpt lat="43.39239" lon="6.08297">
        <ele>293.79998779297</ele>
        <time>2016-01-27T13:40:30Z</time>
      </trkpt>
      <trkpt lat="43.39237" lon="6.083">
        <ele>294.60000610352</ele>
        <time>2016-01-27T13:40:32Z</time>
      </trkpt>
      <trkpt lat="43.39237" lon="6.08302">
        <ele>294.60000610352</ele>
        <time>2016-01-27T13:40:33Z</time>
      </trkpt>
      <trkpt lat="43.39237" lon="6.08304">
        <ele>295</ele>
        <time>2016-01-27T13:40:34Z</time>
      </trkpt>
      <trkpt lat="43.39236" lon="6.08308">
        <ele>295.20001220703</ele>
        <time>2016-01-27T13:40:36Z</time>
      </trkpt>
      <trkpt lat="43.39236" lon="6.08309">
        <ele>295.60000610352</ele>
        <time>2016-01-27T13:40:38Z</time>
      </trkpt>
      <trkpt lat="43.39235" lon="6.08309">
        <ele>295.60000610352</ele>
        <time>2016-01-27T13:40:40Z</time>
      </trkpt>
      <trkpt lat="43.39235" lon="6.0831">
        <ele>295.60000610352</ele>
        <time>2016-01-27T13:40:42Z</time>
      </trkpt>
      <trkpt lat="43.39235" lon="6.08311">
        <ele>296.20001220703</ele>
        <time>2016-01-27T13:40:44Z</time>
      </trkpt>
      <trkpt lat="43.39234" lon="6.08313">
        <ele>296.39999389648</ele>
        <time>2016-01-27T13:40:45Z</time>
      </trkpt>
      <trkpt lat="43.39233" lon="6.08313">
        <ele>296.39999389648</ele>
        <time>2016-01-27T13:40:46Z</time>
      </trkpt>
      <trkpt lat="43.39233" lon="6.08315">
        <ele>296.20001220703</ele>
        <time>2016-01-27T13:40:48Z</time>
      </trkpt>
      <trkpt lat="43.39233" lon="6.08316">
        <ele>296.39999389648</ele>
        <time>2016-01-27T13:40:50Z</time>
      </trkpt>
      <trkpt lat="43.39233" lon="6.08315">
        <ele>296.39999389648</ele>
        <time>2016-01-27T13:40:51Z</time>
      </trkpt>
      <trkpt lat="43.39233" lon="6.08316">
        <ele>296.39999389648</ele>
        <time>2016-01-27T13:40:52Z</time>
      </trkpt>
      <trkpt lat="43.39233" lon="6.08317">
        <ele>296.60000610352</ele>
        <time>2016-01-27T13:40:54Z</time>
      </trkpt>
      <trkpt lat="43.39233" lon="6.08317">
        <ele>296.39999389648</ele>
        <time>2016-01-27T13:40:56Z</time>
      </trkpt>
      <trkpt lat="43.39233" lon="6.08317">
        <ele>296.39999389648</ele>
        <time>2016-01-27T13:40:58Z</time>
      </trkpt>
      <trkpt lat="43.39233" lon="6.08317">
        <ele>296.60000610352</ele>
        <time>2016-01-27T13:41:00Z</time>
      </trkpt>
      <trkpt lat="43.39233" lon="6.08317">
        <ele>296.39999389648</ele>
        <time>2016-01-27T13:41:02Z</time>
      </trkpt>
      <trkpt lat="43.39233" lon="6.08319">
        <ele>296.39999389648</ele>
        <time>2016-01-27T13:41:04Z</time>
      </trkpt>
      <trkpt lat="43.39234" lon="6.0832">
        <ele>296.60000610352</ele>
        <time>2016-01-27T13:41:06Z</time>
      </trkpt>
      <trkpt lat="43.39235" lon="6.08322">
        <ele>296.39999389648</ele>
        <time>2016-01-27T13:41:07Z</time>
      </trkpt>
      <trkpt lat="43.39234" lon="6.08324">
        <ele>296.60000610352</ele>
        <time>2016-01-27T13:41:08Z</time>
      </trkpt>
      <trkpt lat="43.39232" lon="6.08327">
        <ele>296.79998779297</ele>
        <time>2016-01-27T13:41:10Z</time>
      </trkpt>
      <trkpt lat="43.39231" lon="6.08327">
        <ele>297</ele>
        <time>2016-01-27T13:41:11Z</time>
      </trkpt>
      <trkpt lat="43.3923" lon="6.08326">
        <ele>297.20001220703</ele>
        <time>2016-01-27T13:41:12Z</time>
      </trkpt>
      <trkpt lat="43.39227" lon="6.08326">
        <ele>297.20001220703</ele>
        <time>2016-01-27T13:41:14Z</time>
      </trkpt>
      <trkpt lat="43.39225" lon="6.08328">
        <ele>297.60000610352</ele>
        <time>2016-01-27T13:41:16Z</time>
      </trkpt>
      <trkpt lat="43.39224" lon="6.08329">
        <ele>298</ele>
        <time>2016-01-27T13:41:17Z</time>
      </trkpt>
      <trkpt lat="43.39223" lon="6.08331">
        <ele>298</ele>
        <time>2016-01-27T13:41:18Z</time>
      </trkpt>
      <trkpt lat="43.39223" lon="6.08335">
        <ele>298.20001220703</ele>
        <time>2016-01-27T13:41:20Z</time>
      </trkpt>
      <trkpt lat="43.39222" lon="6.08337">
        <ele>298.20001220703</ele>
        <time>2016-01-27T13:41:21Z</time>
      </trkpt>
      <trkpt lat="43.39222" lon="6.08339">
        <ele>298.60000610352</ele>
        <time>2016-01-27T13:41:22Z</time>
      </trkpt>
      <trkpt lat="43.39222" lon="6.08342">
        <ele>299</ele>
        <time>2016-01-27T13:41:24Z</time>
      </trkpt>
      <trkpt lat="43.39221" lon="6.08346">
        <ele>299.20001220703</ele>
        <time>2016-01-27T13:41:26Z</time>
      </trkpt>
      <trkpt lat="43.3922" lon="6.08348">
        <ele>299.39999389648</ele>
        <time>2016-01-27T13:41:28Z</time>
      </trkpt>
      <trkpt lat="43.3922" lon="6.0835">
        <ele>299.60000610352</ele>
        <time>2016-01-27T13:41:30Z</time>
      </trkpt>
      <trkpt lat="43.3922" lon="6.08353">
        <ele>299.60000610352</ele>
        <time>2016-01-27T13:41:32Z</time>
      </trkpt>
      <trkpt lat="43.39219" lon="6.08356">
        <ele>299.79998779297</ele>
        <time>2016-01-27T13:41:34Z</time>
      </trkpt>
      <trkpt lat="43.39218" lon="6.08358">
        <ele>300</ele>
        <time>2016-01-27T13:41:35Z</time>
      </trkpt>
      <trkpt lat="43.39218" lon="6.0836">
        <ele>299.79998779297</ele>
        <time>2016-01-27T13:41:36Z</time>
      </trkpt>
      <trkpt lat="43.39217" lon="6.08365">
        <ele>300</ele>
        <time>2016-01-27T13:41:38Z</time>
      </trkpt>
      <trkpt lat="43.39217" lon="6.0837">
        <ele>300.39999389648</ele>
        <time>2016-01-27T13:41:40Z</time>
      </trkpt>
      <trkpt lat="43.39216" lon="6.08371">
        <ele>300.60000610352</ele>
        <time>2016-01-27T13:41:41Z</time>
      </trkpt>
      <trkpt lat="43.39215" lon="6.08374">
        <ele>301</ele>
        <time>2016-01-27T13:41:42Z</time>
      </trkpt>
      <trkpt lat="43.39213" lon="6.08378">
        <ele>301.60000610352</ele>
        <time>2016-01-27T13:41:44Z</time>
      </trkpt>
      <trkpt lat="43.39213" lon="6.0838">
        <ele>302</ele>
        <time>2016-01-27T13:41:45Z</time>
      </trkpt>
      <trkpt lat="43.39213" lon="6.08382">
        <ele>302.20001220703</ele>
        <time>2016-01-27T13:41:46Z</time>
      </trkpt>
      <trkpt lat="43.39212" lon="6.08384">
        <ele>302.20001220703</ele>
        <time>2016-01-27T13:41:47Z</time>
      </trkpt>
      <trkpt lat="43.39213" lon="6.08386">
        <ele>302.20001220703</ele>
        <time>2016-01-27T13:41:48Z</time>
      </trkpt>
      <trkpt lat="43.39213" lon="6.08391">
        <ele>302.60000610352</ele>
        <time>2016-01-27T13:41:50Z</time>
      </trkpt>
      <trkpt lat="43.39212" lon="6.08393">
        <ele>302.79998779297</ele>
        <time>2016-01-27T13:41:51Z</time>
      </trkpt>
      <trkpt lat="43.39212" lon="6.08396">
        <ele>303</ele>
        <time>2016-01-27T13:41:52Z</time>
      </trkpt>
      <trkpt lat="43.39213" lon="6.08401">
        <ele>303</ele>
        <time>2016-01-27T13:41:54Z</time>
      </trkpt>
      <trkpt lat="43.39213" lon="6.08403">
        <ele>303.20001220703</ele>
        <time>2016-01-27T13:41:55Z</time>
      </trkpt>
      <trkpt lat="43.39212" lon="6.08405">
        <ele>303</ele>
        <time>2016-01-27T13:41:56Z</time>
      </trkpt>
      <trkpt lat="43.3921" lon="6.08409">
        <ele>303.79998779297</ele>
        <time>2016-01-27T13:41:58Z</time>
      </trkpt>
      <trkpt lat="43.3921" lon="6.08409">
        <ele>304</ele>
        <time>2016-01-27T13:42:00Z</time>
      </trkpt>
      <trkpt lat="43.3921" lon="6.08409">
        <ele>304</ele>
        <time>2016-01-27T13:42:02Z</time>
      </trkpt>
      <trkpt lat="43.3921" lon="6.0841">
        <ele>304</ele>
        <time>2016-01-27T13:42:04Z</time>
      </trkpt>
      <trkpt lat="43.3921" lon="6.0841">
        <ele>304</ele>
        <time>2016-01-27T13:42:05Z</time>
      </trkpt>
      <trkpt lat="43.3921" lon="6.08411">
        <ele>304.20001220703</ele>
        <time>2016-01-27T13:42:06Z</time>
      </trkpt>
      <trkpt lat="43.3921" lon="6.08412">
        <ele>304.20001220703</ele>
        <time>2016-01-27T13:42:08Z</time>
      </trkpt>
      <trkpt lat="43.3921" lon="6.08412">
        <ele>304.20001220703</ele>
        <time>2016-01-27T13:42:09Z</time>
      </trkpt>
      <trkpt lat="43.3921" lon="6.08412">
        <ele>304.20001220703</ele>
        <time>2016-01-27T13:42:10Z</time>
      </trkpt>
      <trkpt lat="43.3921" lon="6.08413">
        <ele>304.39999389648</ele>
        <time>2016-01-27T13:42:12Z</time>
      </trkpt>
      <trkpt lat="43.39208" lon="6.08416">
        <ele>304.60000610352</ele>
        <time>2016-01-27T13:42:14Z</time>
      </trkpt>
      <trkpt lat="43.39207" lon="6.08417">
        <ele>304.79998779297</ele>
        <time>2016-01-27T13:42:15Z</time>
      </trkpt>
      <trkpt lat="43.39207" lon="6.08419">
        <ele>304.79998779297</ele>
        <time>2016-01-27T13:42:16Z</time>
      </trkpt>
      <trkpt lat="43.39207" lon="6.0842">
        <ele>304.79998779297</ele>
        <time>2016-01-27T13:42:17Z</time>
      </trkpt>
      <trkpt lat="43.39206" lon="6.08422">
        <ele>305</ele>
        <time>2016-01-27T13:42:18Z</time>
      </trkpt>
      <trkpt lat="43.39206" lon="6.08427">
        <ele>305.39999389648</ele>
        <time>2016-01-27T13:42:20Z</time>
      </trkpt>
      <trkpt lat="43.39206" lon="6.08433">
        <ele>305.79998779297</ele>
        <time>2016-01-27T13:42:22Z</time>
      </trkpt>
      <trkpt lat="43.39205" lon="6.08435">
        <ele>306.39999389648</ele>
        <time>2016-01-27T13:42:24Z</time>
      </trkpt>
      <trkpt lat="43.39205" lon="6.08436">
        <ele>306.60000610352</ele>
        <time>2016-01-27T13:42:26Z</time>
      </trkpt>
      <trkpt lat="43.39206" lon="6.08438">
        <ele>306.79998779297</ele>
        <time>2016-01-27T13:42:27Z</time>
      </trkpt>
      <trkpt lat="43.39206" lon="6.0844">
        <ele>307</ele>
        <time>2016-01-27T13:42:28Z</time>
      </trkpt>
      <trkpt lat="43.39206" lon="6.08441">
        <ele>307.20001220703</ele>
        <time>2016-01-27T13:42:29Z</time>
      </trkpt>
      <trkpt lat="43.39206" lon="6.08443">
        <ele>307.39999389648</ele>
        <time>2016-01-27T13:42:30Z</time>
      </trkpt>
      <trkpt lat="43.39206" lon="6.08445">
        <ele>307.60000610352</ele>
        <time>2016-01-27T13:42:31Z</time>
      </trkpt>
      <trkpt lat="43.39205" lon="6.08448">
        <ele>307.39999389648</ele>
        <time>2016-01-27T13:42:32Z</time>
      </trkpt>
      <trkpt lat="43.39205" lon="6.0845">
        <ele>307.39999389648</ele>
        <time>2016-01-27T13:42:33Z</time>
      </trkpt>
      <trkpt lat="43.39204" lon="6.08452">
        <ele>307.60000610352</ele>
        <time>2016-01-27T13:42:34Z</time>
      </trkpt>
      <trkpt lat="43.39203" lon="6.08456">
        <ele>307.79998779297</ele>
        <time>2016-01-27T13:42:36Z</time>
      </trkpt>
      <trkpt lat="43.39202" lon="6.0846">
        <ele>308.20001220703</ele>
        <time>2016-01-27T13:42:38Z</time>
      </trkpt>
      <trkpt lat="43.39202" lon="6.08464">
        <ele>308.60000610352</ele>
        <time>2016-01-27T13:42:40Z</time>
      </trkpt>
      <trkpt lat="43.39201" lon="6.08468">
        <ele>309</ele>
        <time>2016-01-27T13:42:42Z</time>
      </trkpt>
      <trkpt lat="43.392" lon="6.08472">
        <ele>309.20001220703</ele>
        <time>2016-01-27T13:42:44Z</time>
      </trkpt>
      <trkpt lat="43.392" lon="6.08476">
        <ele>309.39999389648</ele>
        <time>2016-01-27T13:42:46Z</time>
      </trkpt>
      <trkpt lat="43.392" lon="6.08477">
        <ele>309.39999389648</ele>
        <time>2016-01-27T13:42:47Z</time>
      </trkpt>
      <trkpt lat="43.392" lon="6.08479">
        <ele>309.60000610352</ele>
        <time>2016-01-27T13:42:48Z</time>
      </trkpt>
      <trkpt lat="43.39199" lon="6.08482">
        <ele>309.60000610352</ele>
        <time>2016-01-27T13:42:49Z</time>
      </trkpt>
      <trkpt lat="43.392" lon="6.08484">
        <ele>309.60000610352</ele>
        <time>2016-01-27T13:42:50Z</time>
      </trkpt>
      <trkpt lat="43.392" lon="6.08488">
        <ele>309.79998779297</ele>
        <time>2016-01-27T13:42:52Z</time>
      </trkpt>
      <trkpt lat="43.392" lon="6.08492">
        <ele>310</ele>
        <time>2016-01-27T13:42:54Z</time>
      </trkpt>
      <trkpt lat="43.392" lon="6.08494">
        <ele>310</ele>
        <time>2016-01-27T13:42:55Z</time>
      </trkpt>
      <trkpt lat="43.39199" lon="6.08496">
        <ele>310.20001220703</ele>
        <time>2016-01-27T13:42:56Z</time>
      </trkpt>
      <trkpt lat="43.39199" lon="6.08497">
        <ele>310.39999389648</ele>
        <time>2016-01-27T13:42:57Z</time>
      </trkpt>
      <trkpt lat="43.39198" lon="6.08498">
        <ele>310.39999389648</ele>
        <time>2016-01-27T13:42:58Z</time>
      </trkpt>
      <trkpt lat="43.39197" lon="6.08498">
        <ele>310.39999389648</ele>
        <time>2016-01-27T13:42:59Z</time>
      </trkpt>
      <trkpt lat="43.39196" lon="6.08499">
        <ele>310.39999389648</ele>
        <time>2016-01-27T13:43:00Z</time>
      </trkpt>
      <trkpt lat="43.39194" lon="6.085">
        <ele>310.20001220703</ele>
        <time>2016-01-27T13:43:02Z</time>
      </trkpt>
      <trkpt lat="43.39193" lon="6.08501">
        <ele>310.39999389648</ele>
        <time>2016-01-27T13:43:04Z</time>
      </trkpt>
      <trkpt lat="43.39193" lon="6.08502">
        <ele>310.39999389648</ele>
        <time>2016-01-27T13:43:06Z</time>
      </trkpt>
      <trkpt lat="43.39193" lon="6.08502">
        <ele>310.20001220703</ele>
        <time>2016-01-27T13:43:07Z</time>
      </trkpt>
      <trkpt lat="43.39193" lon="6.08502">
        <ele>310.20001220703</ele>
        <time>2016-01-27T13:43:08Z</time>
      </trkpt>
      <trkpt lat="43.39193" lon="6.08502">
        <ele>310.39999389648</ele>
        <time>2016-01-27T13:43:10Z</time>
      </trkpt>
      <trkpt lat="43.39193" lon="6.08502">
        <ele>310.20001220703</ele>
        <time>2016-01-27T13:43:12Z</time>
      </trkpt>
      <trkpt lat="43.39193" lon="6.08502">
        <ele>310.20001220703</ele>
        <time>2016-01-27T13:43:14Z</time>
      </trkpt>
      <trkpt lat="43.39193" lon="6.08502">
        <ele>310.20001220703</ele>
        <time>2016-01-27T13:43:16Z</time>
      </trkpt>
      <trkpt lat="43.39193" lon="6.08502">
        <ele>310.20001220703</ele>
        <time>2016-01-27T13:43:18Z</time>
      </trkpt>
      <trkpt lat="43.39193" lon="6.08502">
        <ele>310.20001220703</ele>
        <time>2016-01-27T13:43:20Z</time>
      </trkpt>
      <trkpt lat="43.39193" lon="6.08502">
        <ele>310.20001220703</ele>
        <time>2016-01-27T13:43:21Z</time>
      </trkpt>
      <trkpt lat="43.39193" lon="6.08502">
        <ele>310.39999389648</ele>
        <time>2016-01-27T13:43:23Z</time>
      </trkpt>
      <trkpt lat="43.39193" lon="6.08502">
        <ele>310.20001220703</ele>
        <time>2016-01-27T13:43:24Z</time>
      </trkpt>
      <trkpt lat="43.39193" lon="6.08502">
        <ele>310.20001220703</ele>
        <time>2016-01-27T13:43:26Z</time>
      </trkpt>
      <trkpt lat="43.39193" lon="6.08502">
        <ele>310.20001220703</ele>
        <time>2016-01-27T13:43:28Z</time>
      </trkpt>
      <trkpt lat="43.39193" lon="6.08502">
        <ele>310</ele>
        <time>2016-01-27T13:43:30Z</time>
      </trkpt>
      <trkpt lat="43.39193" lon="6.08502">
        <ele>310.20001220703</ele>
        <time>2016-01-27T13:43:32Z</time>
      </trkpt>
      <trkpt lat="43.39193" lon="6.08502">
        <ele>310.20001220703</ele>
        <time>2016-01-27T13:43:34Z</time>
      </trkpt>
      <trkpt lat="43.39193" lon="6.08502">
        <ele>310.20001220703</ele>
        <time>2016-01-27T13:43:35Z</time>
      </trkpt>
      <trkpt lat="43.39193" lon="6.08502">
        <ele>310.20001220703</ele>
        <time>2016-01-27T13:43:36Z</time>
      </trkpt>
      <trkpt lat="43.39193" lon="6.08502">
        <ele>310.20001220703</ele>
        <time>2016-01-27T13:43:38Z</time>
      </trkpt>
      <trkpt lat="43.39193" lon="6.08502">
        <ele>310.20001220703</ele>
        <time>2016-01-27T13:43:40Z</time>
      </trkpt>
      <trkpt lat="43.39193" lon="6.08502">
        <ele>310.20001220703</ele>
        <time>2016-01-27T13:43:42Z</time>
      </trkpt>
      <trkpt lat="43.39193" lon="6.08502">
        <ele>310.20001220703</ele>
        <time>2016-01-27T13:43:44Z</time>
      </trkpt>
      <trkpt lat="43.39193" lon="6.08502">
        <ele>310.39999389648</ele>
        <time>2016-01-27T13:43:46Z</time>
      </trkpt>
      <trkpt lat="43.39193" lon="6.08502">
        <ele>310.39999389648</ele>
        <time>2016-01-27T13:43:48Z</time>
      </trkpt>
      <trkpt lat="43.39193" lon="6.08502">
        <ele>310.20001220703</ele>
        <time>2016-01-27T13:43:50Z</time>
      </trkpt>
      <trkpt lat="43.39193" lon="6.08502">
        <ele>310.20001220703</ele>
        <time>2016-01-27T13:43:52Z</time>
      </trkpt>
      <trkpt lat="43.39193" lon="6.08502">
        <ele>310</ele>
        <time>2016-01-27T13:43:54Z</time>
      </trkpt>
      <trkpt lat="43.39193" lon="6.08502">
        <ele>310.20001220703</ele>
        <time>2016-01-27T13:43:56Z</time>
      </trkpt>
      <trkpt lat="43.39193" lon="6.08502">
        <ele>310.20001220703</ele>
        <time>2016-01-27T13:43:58Z</time>
      </trkpt>
      <trkpt lat="43.39193" lon="6.08502">
        <ele>310.20001220703</ele>
        <time>2016-01-27T13:44:00Z</time>
      </trkpt>
      <trkpt lat="43.39193" lon="6.08502">
        <ele>310</ele>
        <time>2016-01-27T13:44:02Z</time>
      </trkpt>
      <trkpt lat="43.39193" lon="6.08502">
        <ele>310</ele>
        <time>2016-01-27T13:44:04Z</time>
      </trkpt>
      <trkpt lat="43.39193" lon="6.08502">
        <ele>310.20001220703</ele>
        <time>2016-01-27T13:44:06Z</time>
      </trkpt>
      <trkpt lat="43.39193" lon="6.08502">
        <ele>310.20001220703</ele>
        <time>2016-01-27T13:44:08Z</time>
      </trkpt>
      <trkpt lat="43.39193" lon="6.08502">
        <ele>310.20001220703</ele>
        <time>2016-01-27T13:44:10Z</time>
      </trkpt>
      <trkpt lat="43.39193" lon="6.08502">
        <ele>310.20001220703</ele>
        <time>2016-01-27T13:44:12Z</time>
      </trkpt>
      <trkpt lat="43.39193" lon="6.08502">
        <ele>310.20001220703</ele>
        <time>2016-01-27T13:44:14Z</time>
      </trkpt>
      <trkpt lat="43.39193" lon="6.08502">
        <ele>310.20001220703</ele>
        <time>2016-01-27T13:44:16Z</time>
      </trkpt>
      <trkpt lat="43.39193" lon="6.08502">
        <ele>310.20001220703</ele>
        <time>2016-01-27T13:44:18Z</time>
      </trkpt>
      <trkpt lat="43.39193" lon="6.08502">
        <ele>310.39999389648</ele>
        <time>2016-01-27T13:44:20Z</time>
      </trkpt>
      <trkpt lat="43.39193" lon="6.08502">
        <ele>310.20001220703</ele>
        <time>2016-01-27T13:44:22Z</time>
      </trkpt>
      <trkpt lat="43.39193" lon="6.08502">
        <ele>310.20001220703</ele>
        <time>2016-01-27T13:44:24Z</time>
      </trkpt>
      <trkpt lat="43.39193" lon="6.08502">
        <ele>310.20001220703</ele>
        <time>2016-01-27T13:44:26Z</time>
      </trkpt>
      <trkpt lat="43.39193" lon="6.08502">
        <ele>310.20001220703</ele>
        <time>2016-01-27T13:44:28Z</time>
      </trkpt>
      <trkpt lat="43.39191" lon="6.08503">
        <ele>310.20001220703</ele>
        <time>2016-01-27T13:44:30Z</time>
      </trkpt>
      <trkpt lat="43.39191" lon="6.08504">
        <ele>310</ele>
        <time>2016-01-27T13:44:31Z</time>
      </trkpt>
      <trkpt lat="43.39191" lon="6.08504">
        <ele>310.20001220703</ele>
        <time>2016-01-27T13:44:32Z</time>
      </trkpt>
      <trkpt lat="43.39191" lon="6.08504">
        <ele>310.20001220703</ele>
        <time>2016-01-27T13:44:34Z</time>
      </trkpt>
      <trkpt lat="43.39191" lon="6.08505">
        <ele>310</ele>
        <time>2016-01-27T13:44:36Z</time>
      </trkpt>
      <trkpt lat="43.39191" lon="6.08505">
        <ele>310.20001220703</ele>
        <time>2016-01-27T13:44:38Z</time>
      </trkpt>
      <trkpt lat="43.39191" lon="6.08505">
        <ele>310.20001220703</ele>
        <time>2016-01-27T13:44:39Z</time>
      </trkpt>
      <trkpt lat="43.39191" lon="6.08505">
        <ele>310.20001220703</ele>
        <time>2016-01-27T13:44:40Z</time>
      </trkpt>
      <trkpt lat="43.39191" lon="6.08505">
        <ele>310.20001220703</ele>
        <time>2016-01-27T13:44:42Z</time>
      </trkpt>
      <trkpt lat="43.39191" lon="6.08505">
        <ele>310.20001220703</ele>
        <time>2016-01-27T13:44:44Z</time>
      </trkpt>
      <trkpt lat="43.39191" lon="6.08505">
        <ele>310.20001220703</ele>
        <time>2016-01-27T13:44:46Z</time>
      </trkpt>
      <trkpt lat="43.39191" lon="6.08505">
        <ele>310.20001220703</ele>
        <time>2016-01-27T13:44:48Z</time>
      </trkpt>
      <trkpt lat="43.39191" lon="6.08505">
        <ele>310.20001220703</ele>
        <time>2016-01-27T13:44:50Z</time>
      </trkpt>
      <trkpt lat="43.39191" lon="6.08505">
        <ele>310.39999389648</ele>
        <time>2016-01-27T13:44:52Z</time>
      </trkpt>
      <trkpt lat="43.39191" lon="6.08505">
        <ele>310.39999389648</ele>
        <time>2016-01-27T13:44:53Z</time>
      </trkpt>
      <trkpt lat="43.39191" lon="6.08505">
        <ele>310.39999389648</ele>
        <time>2016-01-27T13:44:54Z</time>
      </trkpt>
      <trkpt lat="43.39191" lon="6.08505">
        <ele>310.39999389648</ele>
        <time>2016-01-27T13:44:56Z</time>
      </trkpt>
      <trkpt lat="43.39191" lon="6.08505">
        <ele>310.20001220703</ele>
        <time>2016-01-27T13:44:58Z</time>
      </trkpt>
      <trkpt lat="43.39191" lon="6.08505">
        <ele>310.20001220703</ele>
        <time>2016-01-27T13:45:00Z</time>
      </trkpt>
      <trkpt lat="43.39191" lon="6.08505">
        <ele>310.39999389648</ele>
        <time>2016-01-27T13:45:02Z</time>
      </trkpt>
      <trkpt lat="43.39191" lon="6.08505">
        <ele>310</ele>
        <time>2016-01-27T13:45:04Z</time>
      </trkpt>
      <trkpt lat="43.39191" lon="6.08505">
        <ele>310</ele>
        <time>2016-01-27T13:45:06Z</time>
      </trkpt>
      <trkpt lat="43.39191" lon="6.08505">
        <ele>310</ele>
        <time>2016-01-27T13:45:08Z</time>
      </trkpt>
      <trkpt lat="43.39191" lon="6.08505">
        <ele>310</ele>
        <time>2016-01-27T13:45:10Z</time>
      </trkpt>
      <trkpt lat="43.39191" lon="6.08505">
        <ele>310.39999389648</ele>
        <time>2016-01-27T13:45:12Z</time>
      </trkpt>
      <trkpt lat="43.39191" lon="6.08505">
        <ele>310.20001220703</ele>
        <time>2016-01-27T13:45:14Z</time>
      </trkpt>
      <trkpt lat="43.39191" lon="6.08505">
        <ele>310.20001220703</ele>
        <time>2016-01-27T13:45:16Z</time>
      </trkpt>
      <trkpt lat="43.39191" lon="6.08505">
        <ele>310.20001220703</ele>
        <time>2016-01-27T13:45:18Z</time>
      </trkpt>
      <trkpt lat="43.39191" lon="6.08505">
        <ele>310.20001220703</ele>
        <time>2016-01-27T13:45:20Z</time>
      </trkpt>
      <trkpt lat="43.39191" lon="6.08505">
        <ele>310.20001220703</ele>
        <time>2016-01-27T13:45:22Z</time>
      </trkpt>
      <trkpt lat="43.39191" lon="6.08506">
        <ele>310.20001220703</ele>
        <time>2016-01-27T13:45:24Z</time>
      </trkpt>
      <trkpt lat="43.3919" lon="6.08508">
        <ele>310.20001220703</ele>
        <time>2016-01-27T13:45:26Z</time>
      </trkpt>
      <trkpt lat="43.3919" lon="6.0851">
        <ele>310.20001220703</ele>
        <time>2016-01-27T13:45:27Z</time>
      </trkpt>
      <trkpt lat="43.3919" lon="6.08513">
        <ele>309.79998779297</ele>
        <time>2016-01-27T13:45:28Z</time>
      </trkpt>
      <trkpt lat="43.39188" lon="6.08518">
        <ele>309.60000610352</ele>
        <time>2016-01-27T13:45:30Z</time>
      </trkpt>
      <trkpt lat="43.39186" lon="6.08523">
        <ele>310</ele>
        <time>2016-01-27T13:45:32Z</time>
      </trkpt>
      <trkpt lat="43.39185" lon="6.08526">
        <ele>310</ele>
        <time>2016-01-27T13:45:33Z</time>
      </trkpt>
      <trkpt lat="43.39185" lon="6.08528">
        <ele>310</ele>
        <time>2016-01-27T13:45:34Z</time>
      </trkpt>
      <trkpt lat="43.39182" lon="6.08535">
        <ele>309.60000610352</ele>
        <time>2016-01-27T13:45:36Z</time>
      </trkpt>
      <trkpt lat="43.39179" lon="6.08542">
        <ele>309.60000610352</ele>
        <time>2016-01-27T13:45:38Z</time>
      </trkpt>
      <trkpt lat="43.39179" lon="6.08546">
        <ele>309.39999389648</ele>
        <time>2016-01-27T13:45:39Z</time>
      </trkpt>
      <trkpt lat="43.39177" lon="6.08551">
        <ele>309.39999389648</ele>
        <time>2016-01-27T13:45:40Z</time>
      </trkpt>
      <trkpt lat="43.39175" lon="6.08558">
        <ele>309.20001220703</ele>
        <time>2016-01-27T13:45:42Z</time>
      </trkpt>
      <trkpt lat="43.39173" lon="6.08566">
        <ele>308.60000610352</ele>
        <time>2016-01-27T13:45:44Z</time>
      </trkpt>
      <trkpt lat="43.39172" lon="6.08569">
        <ele>308.60000610352</ele>
        <time>2016-01-27T13:45:45Z</time>
      </trkpt>
      <trkpt lat="43.39171" lon="6.08573">
        <ele>308.60000610352</ele>
        <time>2016-01-27T13:45:46Z</time>
      </trkpt>
      <trkpt lat="43.39171" lon="6.08576">
        <ele>308.39999389648</ele>
        <time>2016-01-27T13:45:47Z</time>
      </trkpt>
      <trkpt lat="43.3917" lon="6.08578">
        <ele>307.79998779297</ele>
        <time>2016-01-27T13:45:48Z</time>
      </trkpt>
      <trkpt lat="43.3917" lon="6.08585">
        <ele>308.20001220703</ele>
        <time>2016-01-27T13:45:50Z</time>
      </trkpt>
      <trkpt lat="43.39169" lon="6.08589">
        <ele>308.20001220703</ele>
        <time>2016-01-27T13:45:51Z</time>
      </trkpt>
      <trkpt lat="43.39168" lon="6.08594">
        <ele>308</ele>
        <time>2016-01-27T13:45:52Z</time>
      </trkpt>
      <trkpt lat="43.39167" lon="6.08603">
        <ele>307.60000610352</ele>
        <time>2016-01-27T13:45:54Z</time>
      </trkpt>
      <trkpt lat="43.39165" lon="6.08612">
        <ele>307.39999389648</ele>
        <time>2016-01-27T13:45:56Z</time>
      </trkpt>
      <trkpt lat="43.39165" lon="6.08617">
        <ele>307.60000610352</ele>
        <time>2016-01-27T13:45:57Z</time>
      </trkpt>
      <trkpt lat="43.39163" lon="6.08623">
        <ele>307.79998779297</ele>
        <time>2016-01-27T13:45:58Z</time>
      </trkpt>
      <trkpt lat="43.3916" lon="6.08632">
        <ele>307.79998779297</ele>
        <time>2016-01-27T13:46:00Z</time>
      </trkpt>
      <trkpt lat="43.39159" lon="6.08638">
        <ele>307.60000610352</ele>
        <time>2016-01-27T13:46:01Z</time>
      </trkpt>
      <trkpt lat="43.39159" lon="6.08643">
        <ele>307.60000610352</ele>
        <time>2016-01-27T13:46:02Z</time>
      </trkpt>
      <trkpt lat="43.39158" lon="6.08653">
        <ele>308.20001220703</ele>
        <time>2016-01-27T13:46:04Z</time>
      </trkpt>
      <trkpt lat="43.39158" lon="6.08657">
        <ele>307.39999389648</ele>
        <time>2016-01-27T13:46:05Z</time>
      </trkpt>
      <trkpt lat="43.39157" lon="6.08661">
        <ele>307.39999389648</ele>
        <time>2016-01-27T13:46:06Z</time>
      </trkpt>
      <trkpt lat="43.39154" lon="6.08668">
        <ele>307.60000610352</ele>
        <time>2016-01-27T13:46:08Z</time>
      </trkpt>
      <trkpt lat="43.39153" lon="6.08677">
        <ele>307.79998779297</ele>
        <time>2016-01-27T13:46:10Z</time>
      </trkpt>
      <trkpt lat="43.39153" lon="6.08688">
        <ele>308.39999389648</ele>
        <time>2016-01-27T13:46:12Z</time>
      </trkpt>
      <trkpt lat="43.39151" lon="6.08698">
        <ele>308.20001220703</ele>
        <time>2016-01-27T13:46:14Z</time>
      </trkpt>
      <trkpt lat="43.39149" lon="6.08708">
        <ele>308.39999389648</ele>
        <time>2016-01-27T13:46:16Z</time>
      </trkpt>
      <trkpt lat="43.39148" lon="6.08718">
        <ele>308.39999389648</ele>
        <time>2016-01-27T13:46:18Z</time>
      </trkpt>
      <trkpt lat="43.39146" lon="6.08728">
        <ele>308.79998779297</ele>
        <time>2016-01-27T13:46:20Z</time>
      </trkpt>
      <trkpt lat="43.39143" lon="6.08737">
        <ele>308.60000610352</ele>
        <time>2016-01-27T13:46:22Z</time>
      </trkpt>
      <trkpt lat="43.39142" lon="6.08741">
        <ele>309</ele>
        <time>2016-01-27T13:46:23Z</time>
      </trkpt>
      <trkpt lat="43.39141" lon="6.08747">
        <ele>309</ele>
        <time>2016-01-27T13:46:24Z</time>
      </trkpt>
      <trkpt lat="43.39138" lon="6.08758">
        <ele>308.79998779297</ele>
        <time>2016-01-27T13:46:26Z</time>
      </trkpt>
      <trkpt lat="43.39136" lon="6.08768">
        <ele>309.39999389648</ele>
        <time>2016-01-27T13:46:28Z</time>
      </trkpt>
      <trkpt lat="43.39134" lon="6.08774">
        <ele>309.39999389648</ele>
        <time>2016-01-27T13:46:29Z</time>
      </trkpt>
      <trkpt lat="43.39133" lon="6.0878">
        <ele>309.39999389648</ele>
        <time>2016-01-27T13:46:30Z</time>
      </trkpt>
      <trkpt lat="43.3913" lon="6.0879">
        <ele>309.79998779297</ele>
        <time>2016-01-27T13:46:32Z</time>
      </trkpt>
      <trkpt lat="43.39127" lon="6.088">
        <ele>309.79998779297</ele>
        <time>2016-01-27T13:46:34Z</time>
      </trkpt>
      <trkpt lat="43.39125" lon="6.08811">
        <ele>309.79998779297</ele>
        <time>2016-01-27T13:46:36Z</time>
      </trkpt>
      <trkpt lat="43.39122" lon="6.08822">
        <ele>310.20001220703</ele>
        <time>2016-01-27T13:46:38Z</time>
      </trkpt>
      <trkpt lat="43.39121" lon="6.08827">
        <ele>310.39999389648</ele>
        <time>2016-01-27T13:46:39Z</time>
      </trkpt>
      <trkpt lat="43.3912" lon="6.08833">
        <ele>310.20001220703</ele>
        <time>2016-01-27T13:46:40Z</time>
      </trkpt>
      <trkpt lat="43.3912" lon="6.08838">
        <ele>310.39999389648</ele>
        <time>2016-01-27T13:46:41Z</time>
      </trkpt>
      <trkpt lat="43.39119" lon="6.08843">
        <ele>310.60000610352</ele>
        <time>2016-01-27T13:46:42Z</time>
      </trkpt>
      <trkpt lat="43.39116" lon="6.08853">
        <ele>311.20001220703</ele>
        <time>2016-01-27T13:46:44Z</time>
      </trkpt>
      <trkpt lat="43.39114" lon="6.08864">
        <ele>311</ele>
        <time>2016-01-27T13:46:46Z</time>
      </trkpt>
      <trkpt lat="43.39114" lon="6.08868">
        <ele>311</ele>
        <time>2016-01-27T13:46:47Z</time>
      </trkpt>
      <trkpt lat="43.39112" lon="6.08872">
        <ele>311.20001220703</ele>
        <time>2016-01-27T13:46:48Z</time>
      </trkpt>
      <trkpt lat="43.3911" lon="6.08879">
        <ele>311.60000610352</ele>
        <time>2016-01-27T13:46:50Z</time>
      </trkpt>
      <trkpt lat="43.3911" lon="6.08883">
        <ele>311.60000610352</ele>
        <time>2016-01-27T13:46:51Z</time>
      </trkpt>
      <trkpt lat="43.39109" lon="6.08888">
        <ele>311.20001220703</ele>
        <time>2016-01-27T13:46:52Z</time>
      </trkpt>
      <trkpt lat="43.39107" lon="6.08898">
        <ele>311.20001220703</ele>
        <time>2016-01-27T13:46:54Z</time>
      </trkpt>
      <trkpt lat="43.39104" lon="6.08907">
        <ele>311.39999389648</ele>
        <time>2016-01-27T13:46:56Z</time>
      </trkpt>
      <trkpt lat="43.39103" lon="6.08912">
        <ele>311.20001220703</ele>
        <time>2016-01-27T13:46:57Z</time>
      </trkpt>
      <trkpt lat="43.39103" lon="6.08916">
        <ele>311.20001220703</ele>
        <time>2016-01-27T13:46:58Z</time>
      </trkpt>
      <trkpt lat="43.391" lon="6.08925">
        <ele>311.39999389648</ele>
        <time>2016-01-27T13:47:00Z</time>
      </trkpt>
      <trkpt lat="43.39097" lon="6.08933">
        <ele>311.79998779297</ele>
        <time>2016-01-27T13:47:02Z</time>
      </trkpt>
      <trkpt lat="43.39096" lon="6.08937">
        <ele>311.79998779297</ele>
        <time>2016-01-27T13:47:03Z</time>
      </trkpt>
      <trkpt lat="43.39095" lon="6.08941">
        <ele>311.79998779297</ele>
        <time>2016-01-27T13:47:04Z</time>
      </trkpt>
      <trkpt lat="43.39093" lon="6.08949">
        <ele>311.79998779297</ele>
        <time>2016-01-27T13:47:06Z</time>
      </trkpt>
      <trkpt lat="43.39091" lon="6.08957">
        <ele>311.60000610352</ele>
        <time>2016-01-27T13:47:08Z</time>
      </trkpt>
      <trkpt lat="43.39088" lon="6.08965">
        <ele>312</ele>
        <time>2016-01-27T13:47:10Z</time>
      </trkpt>
      <trkpt lat="43.39085" lon="6.0897">
        <ele>312</ele>
        <time>2016-01-27T13:47:12Z</time>
      </trkpt>
      <trkpt lat="43.39083" lon="6.08977">
        <ele>312.60000610352</ele>
        <time>2016-01-27T13:47:14Z</time>
      </trkpt>
      <trkpt lat="43.39082" lon="6.0898">
        <ele>312.60000610352</ele>
        <time>2016-01-27T13:47:15Z</time>
      </trkpt>
      <trkpt lat="43.39082" lon="6.08982">
        <ele>312.39999389648</ele>
        <time>2016-01-27T13:47:16Z</time>
      </trkpt>
      <trkpt lat="43.39079" lon="6.08989">
        <ele>312.39999389648</ele>
        <time>2016-01-27T13:47:18Z</time>
      </trkpt>
      <trkpt lat="43.39077" lon="6.08994">
        <ele>312.79998779297</ele>
        <time>2016-01-27T13:47:20Z</time>
      </trkpt>
      <trkpt lat="43.39074" lon="6.08996">
        <ele>313</ele>
        <time>2016-01-27T13:47:22Z</time>
      </trkpt>
      <trkpt lat="43.39073" lon="6.08999">
        <ele>312.79998779297</ele>
        <time>2016-01-27T13:47:23Z</time>
      </trkpt>
      <trkpt lat="43.39072" lon="6.09002">
        <ele>312.60000610352</ele>
        <time>2016-01-27T13:47:24Z</time>
      </trkpt>
      <trkpt lat="43.3907" lon="6.09005">
        <ele>312.79998779297</ele>
        <time>2016-01-27T13:47:25Z</time>
      </trkpt>
      <trkpt lat="43.39069" lon="6.09008">
        <ele>313</ele>
        <time>2016-01-27T13:47:26Z</time>
      </trkpt>
      <trkpt lat="43.39066" lon="6.09015">
        <ele>313.39999389648</ele>
        <time>2016-01-27T13:47:28Z</time>
      </trkpt>
      <trkpt lat="43.39064" lon="6.09021">
        <ele>313</ele>
        <time>2016-01-27T13:47:30Z</time>
      </trkpt>
      <trkpt lat="43.39062" lon="6.09024">
        <ele>313.20001220703</ele>
        <time>2016-01-27T13:47:31Z</time>
      </trkpt>
      <trkpt lat="43.39061" lon="6.09028">
        <ele>313.39999389648</ele>
        <time>2016-01-27T13:47:32Z</time>
      </trkpt>
      <trkpt lat="43.3906" lon="6.0903">
        <ele>313.60000610352</ele>
        <time>2016-01-27T13:47:33Z</time>
      </trkpt>
      <trkpt lat="43.39058" lon="6.09033">
        <ele>313.79998779297</ele>
        <time>2016-01-27T13:47:34Z</time>
      </trkpt>
      <trkpt lat="43.39054" lon="6.09039">
        <ele>313.60000610352</ele>
        <time>2016-01-27T13:47:36Z</time>
      </trkpt>
      <trkpt lat="43.39052" lon="6.09045">
        <ele>313.79998779297</ele>
        <time>2016-01-27T13:47:38Z</time>
      </trkpt>
      <trkpt lat="43.39049" lon="6.09051">
        <ele>314</ele>
        <time>2016-01-27T13:47:40Z</time>
      </trkpt>
      <trkpt lat="43.39047" lon="6.09058">
        <ele>314.20001220703</ele>
        <time>2016-01-27T13:47:42Z</time>
      </trkpt>
      <trkpt lat="43.39045" lon="6.09065">
        <ele>314</ele>
        <time>2016-01-27T13:47:44Z</time>
      </trkpt>
      <trkpt lat="43.39042" lon="6.09071">
        <ele>314</ele>
        <time>2016-01-27T13:47:46Z</time>
      </trkpt>
      <trkpt lat="43.3904" lon="6.09078">
        <ele>314.39999389648</ele>
        <time>2016-01-27T13:47:48Z</time>
      </trkpt>
      <trkpt lat="43.39037" lon="6.09085">
        <ele>314.39999389648</ele>
        <time>2016-01-27T13:47:50Z</time>
      </trkpt>
      <trkpt lat="43.39036" lon="6.09092">
        <ele>314.60000610352</ele>
        <time>2016-01-27T13:47:52Z</time>
      </trkpt>
      <trkpt lat="43.39035" lon="6.09095">
        <ele>314.79998779297</ele>
        <time>2016-01-27T13:47:53Z</time>
      </trkpt>
      <trkpt lat="43.39035" lon="6.09097">
        <ele>315</ele>
        <time>2016-01-27T13:47:54Z</time>
      </trkpt>
      <trkpt lat="43.39034" lon="6.091">
        <ele>315</ele>
        <time>2016-01-27T13:47:55Z</time>
      </trkpt>
      <trkpt lat="43.39033" lon="6.09102">
        <ele>315</ele>
        <time>2016-01-27T13:47:56Z</time>
      </trkpt>
      <trkpt lat="43.39031" lon="6.09108">
        <ele>315</ele>
        <time>2016-01-27T13:47:58Z</time>
      </trkpt>
      <trkpt lat="43.39029" lon="6.09115">
        <ele>315</ele>
        <time>2016-01-27T13:48:00Z</time>
      </trkpt>
      <trkpt lat="43.39028" lon="6.09119">
        <ele>315.20001220703</ele>
        <time>2016-01-27T13:48:01Z</time>
      </trkpt>
      <trkpt lat="43.39027" lon="6.09122">
        <ele>315.20001220703</ele>
        <time>2016-01-27T13:48:02Z</time>
      </trkpt>
      <trkpt lat="43.39025" lon="6.09128">
        <ele>315.20001220703</ele>
        <time>2016-01-27T13:48:04Z</time>
      </trkpt>
      <trkpt lat="43.39025" lon="6.09133">
        <ele>315.60000610352</ele>
        <time>2016-01-27T13:48:06Z</time>
      </trkpt>
      <trkpt lat="43.39024" lon="6.09135">
        <ele>315.39999389648</ele>
        <time>2016-01-27T13:48:07Z</time>
      </trkpt>
      <trkpt lat="43.39024" lon="6.09137">
        <ele>315.39999389648</ele>
        <time>2016-01-27T13:48:08Z</time>
      </trkpt>
      <trkpt lat="43.39024" lon="6.09142">
        <ele>315.39999389648</ele>
        <time>2016-01-27T13:48:10Z</time>
      </trkpt>
      <trkpt lat="43.39023" lon="6.09145">
        <ele>315.60000610352</ele>
        <time>2016-01-27T13:48:12Z</time>
      </trkpt>
      <trkpt lat="43.39023" lon="6.09147">
        <ele>315.60000610352</ele>
        <time>2016-01-27T13:48:13Z</time>
      </trkpt>
      <trkpt lat="43.39022" lon="6.09149">
        <ele>315.79998779297</ele>
        <time>2016-01-27T13:48:14Z</time>
      </trkpt>
      <trkpt lat="43.39022" lon="6.09151">
        <ele>315.60000610352</ele>
        <time>2016-01-27T13:48:15Z</time>
      </trkpt>
      <trkpt lat="43.39021" lon="6.09153">
        <ele>315.60000610352</ele>
        <time>2016-01-27T13:48:16Z</time>
      </trkpt>
      <trkpt lat="43.39021" lon="6.09158">
        <ele>315.60000610352</ele>
        <time>2016-01-27T13:48:18Z</time>
      </trkpt>
      <trkpt lat="43.3902" lon="6.09161">
        <ele>315.79998779297</ele>
        <time>2016-01-27T13:48:19Z</time>
      </trkpt>
      <trkpt lat="43.39019" lon="6.09164">
        <ele>315.79998779297</ele>
        <time>2016-01-27T13:48:20Z</time>
      </trkpt>
      <trkpt lat="43.39018" lon="6.0917">
        <ele>315.79998779297</ele>
        <time>2016-01-27T13:48:22Z</time>
      </trkpt>
      <trkpt lat="43.39016" lon="6.09176">
        <ele>316.60000610352</ele>
        <time>2016-01-27T13:48:24Z</time>
      </trkpt>
      <trkpt lat="43.39016" lon="6.0918">
        <ele>316.60000610352</ele>
        <time>2016-01-27T13:48:25Z</time>
      </trkpt>
      <trkpt lat="43.39015" lon="6.09184">
        <ele>316.79998779297</ele>
        <time>2016-01-27T13:48:26Z</time>
      </trkpt>
      <trkpt lat="43.39013" lon="6.09192">
        <ele>316.79998779297</ele>
        <time>2016-01-27T13:48:28Z</time>
      </trkpt>
      <trkpt lat="43.39012" lon="6.09201">
        <ele>316.79998779297</ele>
        <time>2016-01-27T13:48:30Z</time>
      </trkpt>
      <trkpt lat="43.39011" lon="6.09205">
        <ele>317.20001220703</ele>
        <time>2016-01-27T13:48:31Z</time>
      </trkpt>
      <trkpt lat="43.39011" lon="6.0921">
        <ele>317.20001220703</ele>
        <time>2016-01-27T13:48:32Z</time>
      </trkpt>
      <trkpt lat="43.39009" lon="6.09219">
        <ele>317.20001220703</ele>
        <time>2016-01-27T13:48:34Z</time>
      </trkpt>
      <trkpt lat="43.39008" lon="6.09229">
        <ele>317.20001220703</ele>
        <time>2016-01-27T13:48:36Z</time>
      </trkpt>
      <trkpt lat="43.39006" lon="6.09237">
        <ele>317</ele>
        <time>2016-01-27T13:48:38Z</time>
      </trkpt>
      <trkpt lat="43.39005" lon="6.09244">
        <ele>317.20001220703</ele>
        <time>2016-01-27T13:48:40Z</time>
      </trkpt>
      <trkpt lat="43.39004" lon="6.09248">
        <ele>317.20001220703</ele>
        <time>2016-01-27T13:48:42Z</time>
      </trkpt>
      <trkpt lat="43.39002" lon="6.09253">
        <ele>317</ele>
        <time>2016-01-27T13:48:44Z</time>
      </trkpt>
      <trkpt lat="43.39002" lon="6.09254">
        <ele>317</ele>
        <time>2016-01-27T13:48:45Z</time>
      </trkpt>
      <trkpt lat="43.39001" lon="6.09257">
        <ele>316.79998779297</ele>
        <time>2016-01-27T13:48:46Z</time>
      </trkpt>
      <trkpt lat="43.39" lon="6.09261">
        <ele>317.20001220703</ele>
        <time>2016-01-27T13:48:48Z</time>
      </trkpt>
      <trkpt lat="43.38998" lon="6.09267">
        <ele>317.60000610352</ele>
        <time>2016-01-27T13:48:50Z</time>
      </trkpt>
      <trkpt lat="43.38997" lon="6.09272">
        <ele>318</ele>
        <time>2016-01-27T13:48:52Z</time>
      </trkpt>
      <trkpt lat="43.38994" lon="6.09277">
        <ele>318.39999389648</ele>
        <time>2016-01-27T13:48:54Z</time>
      </trkpt>
      <trkpt lat="43.38991" lon="6.09282">
        <ele>318.39999389648</ele>
        <time>2016-01-27T13:48:56Z</time>
      </trkpt>
      <trkpt lat="43.38989" lon="6.09284">
        <ele>318.39999389648</ele>
        <time>2016-01-27T13:48:57Z</time>
      </trkpt>
      <trkpt lat="43.38987" lon="6.09286">
        <ele>318.20001220703</ele>
        <time>2016-01-27T13:48:58Z</time>
      </trkpt>
      <trkpt lat="43.38982" lon="6.09292">
        <ele>318.79998779297</ele>
        <time>2016-01-27T13:49:00Z</time>
      </trkpt>
      <trkpt lat="43.3898" lon="6.09294">
        <ele>319</ele>
        <time>2016-01-27T13:49:01Z</time>
      </trkpt>
      <trkpt lat="43.38978" lon="6.09296">
        <ele>319.20001220703</ele>
        <time>2016-01-27T13:49:02Z</time>
      </trkpt>
      <trkpt lat="43.38977" lon="6.093">
        <ele>319.20001220703</ele>
        <time>2016-01-27T13:49:03Z</time>
      </trkpt>
      <trkpt lat="43.38975" lon="6.09302">
        <ele>319.60000610352</ele>
        <time>2016-01-27T13:49:04Z</time>
      </trkpt>
      <trkpt lat="43.38972" lon="6.09306">
        <ele>320</ele>
        <time>2016-01-27T13:49:06Z</time>
      </trkpt>
      <trkpt lat="43.3897" lon="6.09311">
        <ele>320.20001220703</ele>
        <time>2016-01-27T13:49:08Z</time>
      </trkpt>
      <trkpt lat="43.38967" lon="6.09315">
        <ele>320.20001220703</ele>
        <time>2016-01-27T13:49:10Z</time>
      </trkpt>
      <trkpt lat="43.38965" lon="6.09322">
        <ele>320.39999389648</ele>
        <time>2016-01-27T13:49:12Z</time>
      </trkpt>
      <trkpt lat="43.38963" lon="6.09328">
        <ele>320.60000610352</ele>
        <time>2016-01-27T13:49:14Z</time>
      </trkpt>
      <trkpt lat="43.38958" lon="6.09332">
        <ele>320.79998779297</ele>
        <time>2016-01-27T13:49:16Z</time>
      </trkpt>
      <trkpt lat="43.38954" lon="6.09335">
        <ele>320.79998779297</ele>
        <time>2016-01-27T13:49:18Z</time>
      </trkpt>
      <trkpt lat="43.3895" lon="6.09339">
        <ele>321</ele>
        <time>2016-01-27T13:49:20Z</time>
      </trkpt>
      <trkpt lat="43.38947" lon="6.09342">
        <ele>321.20001220703</ele>
        <time>2016-01-27T13:49:22Z</time>
      </trkpt>
      <trkpt lat="43.38947" lon="6.09343">
        <ele>321.20001220703</ele>
        <time>2016-01-27T13:49:23Z</time>
      </trkpt>
      <trkpt lat="43.38945" lon="6.09345">
        <ele>321.20001220703</ele>
        <time>2016-01-27T13:49:24Z</time>
      </trkpt>
      <trkpt lat="43.38942" lon="6.09348">
        <ele>321.20001220703</ele>
        <time>2016-01-27T13:49:26Z</time>
      </trkpt>
      <trkpt lat="43.38937" lon="6.09351">
        <ele>321.20001220703</ele>
        <time>2016-01-27T13:49:28Z</time>
      </trkpt>
      <trkpt lat="43.38935" lon="6.09353">
        <ele>321.20001220703</ele>
        <time>2016-01-27T13:49:29Z</time>
      </trkpt>
      <trkpt lat="43.38933" lon="6.09355">
        <ele>321.20001220703</ele>
        <time>2016-01-27T13:49:30Z</time>
      </trkpt>
      <trkpt lat="43.38929" lon="6.09358">
        <ele>321.20001220703</ele>
        <time>2016-01-27T13:49:32Z</time>
      </trkpt>
      <trkpt lat="43.38926" lon="6.0936">
        <ele>321.60000610352</ele>
        <time>2016-01-27T13:49:34Z</time>
      </trkpt>
      <trkpt lat="43.38924" lon="6.09362">
        <ele>322</ele>
        <time>2016-01-27T13:49:35Z</time>
      </trkpt>
      <trkpt lat="43.38923" lon="6.09364">
        <ele>322.39999389648</ele>
        <time>2016-01-27T13:49:36Z</time>
      </trkpt>
      <trkpt lat="43.3892" lon="6.09365">
        <ele>322.20001220703</ele>
        <time>2016-01-27T13:49:38Z</time>
      </trkpt>
      <trkpt lat="43.38918" lon="6.09368">
        <ele>322.60000610352</ele>
        <time>2016-01-27T13:49:40Z</time>
      </trkpt>
      <trkpt lat="43.38918" lon="6.09368">
        <ele>322.79998779297</ele>
        <time>2016-01-27T13:49:42Z</time>
      </trkpt>
      <trkpt lat="43.38917" lon="6.09369">
        <ele>322.79998779297</ele>
        <time>2016-01-27T13:49:44Z</time>
      </trkpt>
      <trkpt lat="43.38916" lon="6.0937">
        <ele>322.79998779297</ele>
        <time>2016-01-27T13:49:46Z</time>
      </trkpt>
      <trkpt lat="43.38916" lon="6.09371">
        <ele>323</ele>
        <time>2016-01-27T13:49:48Z</time>
      </trkpt>
      <trkpt lat="43.38916" lon="6.09372">
        <ele>323</ele>
        <time>2016-01-27T13:49:50Z</time>
      </trkpt>
      <trkpt lat="43.38915" lon="6.09372">
        <ele>323.20001220703</ele>
        <time>2016-01-27T13:49:52Z</time>
      </trkpt>
      <trkpt lat="43.38915" lon="6.09373">
        <ele>323.20001220703</ele>
        <time>2016-01-27T13:49:53Z</time>
      </trkpt>
      <trkpt lat="43.38914" lon="6.09373">
        <ele>323.39999389648</ele>
        <time>2016-01-27T13:49:54Z</time>
      </trkpt>
      <trkpt lat="43.38914" lon="6.09373">
        <ele>323.39999389648</ele>
        <time>2016-01-27T13:49:56Z</time>
      </trkpt>
      <trkpt lat="43.38915" lon="6.09373">
        <ele>323.39999389648</ele>
        <time>2016-01-27T13:49:58Z</time>
      </trkpt>
      <trkpt lat="43.38914" lon="6.09373">
        <ele>323.60000610352</ele>
        <time>2016-01-27T13:50:00Z</time>
      </trkpt>
      <trkpt lat="43.38914" lon="6.09373">
        <ele>323.39999389648</ele>
        <time>2016-01-27T13:50:01Z</time>
      </trkpt>
      <trkpt lat="43.38914" lon="6.09374">
        <ele>323.60000610352</ele>
        <time>2016-01-27T13:50:02Z</time>
      </trkpt>
      <trkpt lat="43.38914" lon="6.09374">
        <ele>323.60000610352</ele>
        <time>2016-01-27T13:50:04Z</time>
      </trkpt>
      <trkpt lat="43.38914" lon="6.09374">
        <ele>323.60000610352</ele>
        <time>2016-01-27T13:50:06Z</time>
      </trkpt>
      <trkpt lat="43.38914" lon="6.09374">
        <ele>323.60000610352</ele>
        <time>2016-01-27T13:50:08Z</time>
      </trkpt>
      <trkpt lat="43.38914" lon="6.09374">
        <ele>323.39999389648</ele>
        <time>2016-01-27T13:50:10Z</time>
      </trkpt>
      <trkpt lat="43.38914" lon="6.09374">
        <ele>323.39999389648</ele>
        <time>2016-01-27T13:50:12Z</time>
      </trkpt>
      <trkpt lat="43.38914" lon="6.09374">
        <ele>323.39999389648</ele>
        <time>2016-01-27T13:50:14Z</time>
      </trkpt>
      <trkpt lat="43.38914" lon="6.09374">
        <ele>323.39999389648</ele>
        <time>2016-01-27T13:50:16Z</time>
      </trkpt>
      <trkpt lat="43.38914" lon="6.09374">
        <ele>323.60000610352</ele>
        <time>2016-01-27T13:50:17Z</time>
      </trkpt>
      <trkpt lat="43.38914" lon="6.09374">
        <ele>323.39999389648</ele>
        <time>2016-01-27T13:50:20Z</time>
      </trkpt>
      <trkpt lat="43.38914" lon="6.09374">
        <ele>323.60000610352</ele>
        <time>2016-01-27T13:50:22Z</time>
      </trkpt>
      <trkpt lat="43.38914" lon="6.09374">
        <ele>323.39999389648</ele>
        <time>2016-01-27T13:50:24Z</time>
      </trkpt>
      <trkpt lat="43.38914" lon="6.09374">
        <ele>323.60000610352</ele>
        <time>2016-01-27T13:50:26Z</time>
      </trkpt>
      <trkpt lat="43.38914" lon="6.09374">
        <ele>323.39999389648</ele>
        <time>2016-01-27T13:50:28Z</time>
      </trkpt>
      <trkpt lat="43.38914" lon="6.09374">
        <ele>323.39999389648</ele>
        <time>2016-01-27T13:50:30Z</time>
      </trkpt>
      <trkpt lat="43.38914" lon="6.09374">
        <ele>323.39999389648</ele>
        <time>2016-01-27T13:50:32Z</time>
      </trkpt>
      <trkpt lat="43.38914" lon="6.09374">
        <ele>323.39999389648</ele>
        <time>2016-01-27T13:50:34Z</time>
      </trkpt>
      <trkpt lat="43.38914" lon="6.09374">
        <ele>323.39999389648</ele>
        <time>2016-01-27T13:50:36Z</time>
      </trkpt>
      <trkpt lat="43.38914" lon="6.09374">
        <ele>323.39999389648</ele>
        <time>2016-01-27T13:50:37Z</time>
      </trkpt>
      <trkpt lat="43.38914" lon="6.09374">
        <ele>323.39999389648</ele>
        <time>2016-01-27T13:50:38Z</time>
      </trkpt>
      <trkpt lat="43.38912" lon="6.09375">
        <ele>323.39999389648</ele>
        <time>2016-01-27T13:50:40Z</time>
      </trkpt>
      <trkpt lat="43.38911" lon="6.09377">
        <ele>323.79998779297</ele>
        <time>2016-01-27T13:50:42Z</time>
      </trkpt>
      <trkpt lat="43.38908" lon="6.0938">
        <ele>324.20001220703</ele>
        <time>2016-01-27T13:50:44Z</time>
      </trkpt>
      <trkpt lat="43.38907" lon="6.09381">
        <ele>324.60000610352</ele>
        <time>2016-01-27T13:50:46Z</time>
      </trkpt>
      <trkpt lat="43.38906" lon="6.09382">
        <ele>324.60000610352</ele>
        <time>2016-01-27T13:50:48Z</time>
      </trkpt>
      <trkpt lat="43.38907" lon="6.09382">
        <ele>324.60000610352</ele>
        <time>2016-01-27T13:50:50Z</time>
      </trkpt>
      <trkpt lat="43.38907" lon="6.09383">
        <ele>324.39999389648</ele>
        <time>2016-01-27T13:50:52Z</time>
      </trkpt>
      <trkpt lat="43.38907" lon="6.09383">
        <ele>324.60000610352</ele>
        <time>2016-01-27T13:50:54Z</time>
      </trkpt>
      <trkpt lat="43.38907" lon="6.09383">
        <ele>324.20001220703</ele>
        <time>2016-01-27T13:50:56Z</time>
      </trkpt>
      <trkpt lat="43.38907" lon="6.09383">
        <ele>324.20001220703</ele>
        <time>2016-01-27T13:50:58Z</time>
      </trkpt>
      <trkpt lat="43.38907" lon="6.09383">
        <ele>324.39999389648</ele>
        <time>2016-01-27T13:51:00Z</time>
      </trkpt>
      <trkpt lat="43.38906" lon="6.09383">
        <ele>324.60000610352</ele>
        <time>2016-01-27T13:51:01Z</time>
      </trkpt>
      <trkpt lat="43.38906" lon="6.09383">
        <ele>324.39999389648</ele>
        <time>2016-01-27T13:51:02Z</time>
      </trkpt>
      <trkpt lat="43.38906" lon="6.09384">
        <ele>324.60000610352</ele>
        <time>2016-01-27T13:51:04Z</time>
      </trkpt>
      <trkpt lat="43.38905" lon="6.09387">
        <ele>324.79998779297</ele>
        <time>2016-01-27T13:51:06Z</time>
      </trkpt>
      <trkpt lat="43.38903" lon="6.09389">
        <ele>325.20001220703</ele>
        <time>2016-01-27T13:51:08Z</time>
      </trkpt>
      <trkpt lat="43.38902" lon="6.0939">
        <ele>325</ele>
        <time>2016-01-27T13:51:09Z</time>
      </trkpt>
      <trkpt lat="43.389" lon="6.09391">
        <ele>325.20001220703</ele>
        <time>2016-01-27T13:51:10Z</time>
      </trkpt>
      <trkpt lat="43.38899" lon="6.09392">
        <ele>325.60000610352</ele>
        <time>2016-01-27T13:51:12Z</time>
      </trkpt>
      <trkpt lat="43.38898" lon="6.09395">
        <ele>325.79998779297</ele>
        <time>2016-01-27T13:51:14Z</time>
      </trkpt>
      <trkpt lat="43.38898" lon="6.09397">
        <ele>326</ele>
        <time>2016-01-27T13:51:15Z</time>
      </trkpt>
      <trkpt lat="43.38897" lon="6.09399">
        <ele>326.20001220703</ele>
        <time>2016-01-27T13:51:16Z</time>
      </trkpt>
      <trkpt lat="43.38897" lon="6.09405">
        <ele>326.39999389648</ele>
        <time>2016-01-27T13:51:18Z</time>
      </trkpt>
      <trkpt lat="43.38895" lon="6.09406">
        <ele>326.39999389648</ele>
        <time>2016-01-27T13:51:19Z</time>
      </trkpt>
      <trkpt lat="43.38893" lon="6.09407">
        <ele>326.79998779297</ele>
        <time>2016-01-27T13:51:20Z</time>
      </trkpt>
      <trkpt lat="43.3889" lon="6.09409">
        <ele>327</ele>
        <time>2016-01-27T13:51:22Z</time>
      </trkpt>
      <trkpt lat="43.3889" lon="6.0941">
        <ele>327.20001220703</ele>
        <time>2016-01-27T13:51:23Z</time>
      </trkpt>
      <trkpt lat="43.3889" lon="6.09412">
        <ele>327.20001220703</ele>
        <time>2016-01-27T13:51:24Z</time>
      </trkpt>
      <trkpt lat="43.38889" lon="6.09413">
        <ele>327.20001220703</ele>
        <time>2016-01-27T13:51:26Z</time>
      </trkpt>
      <trkpt lat="43.38887" lon="6.09414">
        <ele>327.79998779297</ele>
        <time>2016-01-27T13:51:28Z</time>
      </trkpt>
      <trkpt lat="43.38886" lon="6.09415">
        <ele>327.79998779297</ele>
        <time>2016-01-27T13:51:30Z</time>
      </trkpt>
      <trkpt lat="43.38885" lon="6.09416">
        <ele>328</ele>
        <time>2016-01-27T13:51:32Z</time>
      </trkpt>
      <trkpt lat="43.38884" lon="6.09416">
        <ele>328.20001220703</ele>
        <time>2016-01-27T13:51:34Z</time>
      </trkpt>
      <trkpt lat="43.38884" lon="6.09417">
        <ele>328.39999389648</ele>
        <time>2016-01-27T13:51:35Z</time>
      </trkpt>
      <trkpt lat="43.38884" lon="6.09418">
        <ele>328.60000610352</ele>
        <time>2016-01-27T13:51:36Z</time>
      </trkpt>
      <trkpt lat="43.38883" lon="6.09418">
        <ele>328.79998779297</ele>
        <time>2016-01-27T13:51:38Z</time>
      </trkpt>
      <trkpt lat="43.38882" lon="6.09419">
        <ele>328.79998779297</ele>
        <time>2016-01-27T13:51:40Z</time>
      </trkpt>
      <trkpt lat="43.38882" lon="6.09419">
        <ele>328.79998779297</ele>
        <time>2016-01-27T13:51:41Z</time>
      </trkpt>
      <trkpt lat="43.38881" lon="6.09419">
        <ele>328.79998779297</ele>
        <time>2016-01-27T13:51:42Z</time>
      </trkpt>
      <trkpt lat="43.38882" lon="6.0942">
        <ele>329</ele>
        <time>2016-01-27T13:51:44Z</time>
      </trkpt>
      <trkpt lat="43.38882" lon="6.0942">
        <ele>328.79998779297</ele>
        <time>2016-01-27T13:51:46Z</time>
      </trkpt>
      <trkpt lat="43.38882" lon="6.0942">
        <ele>328.79998779297</ele>
        <time>2016-01-27T13:51:48Z</time>
      </trkpt>
      <trkpt lat="43.38882" lon="6.0942">
        <ele>328.79998779297</ele>
        <time>2016-01-27T13:51:50Z</time>
      </trkpt>
      <trkpt lat="43.38882" lon="6.0942">
        <ele>329</ele>
        <time>2016-01-27T13:51:52Z</time>
      </trkpt>
      <trkpt lat="43.38882" lon="6.0942">
        <ele>329</ele>
        <time>2016-01-27T13:51:54Z</time>
      </trkpt>
      <trkpt lat="43.3888" lon="6.0942">
        <ele>329.39999389648</ele>
        <time>2016-01-27T13:51:56Z</time>
      </trkpt>
      <trkpt lat="43.38878" lon="6.0942">
        <ele>329.20001220703</ele>
        <time>2016-01-27T13:51:58Z</time>
      </trkpt>
      <trkpt lat="43.38876" lon="6.0942">
        <ele>328.20001220703</ele>
        <time>2016-01-27T13:52:00Z</time>
      </trkpt>
      <trkpt lat="43.38875" lon="6.09421">
        <ele>328</ele>
        <time>2016-01-27T13:52:02Z</time>
      </trkpt>
      <trkpt lat="43.38874" lon="6.09421">
        <ele>327.60000610352</ele>
        <time>2016-01-27T13:52:04Z</time>
      </trkpt>
      <trkpt lat="43.38872" lon="6.09419">
        <ele>327.39999389648</ele>
        <time>2016-01-27T13:52:06Z</time>
      </trkpt>
      <trkpt lat="43.3887" lon="6.09416">
        <ele>327</ele>
        <time>2016-01-27T13:52:08Z</time>
      </trkpt>
      <trkpt lat="43.38868" lon="6.09413">
        <ele>326.79998779297</ele>
        <time>2016-01-27T13:52:10Z</time>
      </trkpt>
      <trkpt lat="43.38867" lon="6.09412">
        <ele>326.60000610352</ele>
        <time>2016-01-27T13:52:11Z</time>
      </trkpt>
      <trkpt lat="43.38866" lon="6.09411">
        <ele>326.39999389648</ele>
        <time>2016-01-27T13:52:12Z</time>
      </trkpt>
      <trkpt lat="43.38864" lon="6.09408">
        <ele>325.79998779297</ele>
        <time>2016-01-27T13:52:14Z</time>
      </trkpt>
      <trkpt lat="43.38862" lon="6.09404">
        <ele>325.20001220703</ele>
        <time>2016-01-27T13:52:16Z</time>
      </trkpt>
      <trkpt lat="43.38861" lon="6.09402">
        <ele>325.60000610352</ele>
        <time>2016-01-27T13:52:17Z</time>
      </trkpt>
      <trkpt lat="43.3886" lon="6.09399">
        <ele>325</ele>
        <time>2016-01-27T13:52:18Z</time>
      </trkpt>
      <trkpt lat="43.38857" lon="6.09395">
        <ele>324.60000610352</ele>
        <time>2016-01-27T13:52:20Z</time>
      </trkpt>
      <trkpt lat="43.38856" lon="6.09392">
        <ele>324</ele>
        <time>2016-01-27T13:52:21Z</time>
      </trkpt>
      <trkpt lat="43.38855" lon="6.09389">
        <ele>323.60000610352</ele>
        <time>2016-01-27T13:52:22Z</time>
      </trkpt>
      <trkpt lat="43.38853" lon="6.09387">
        <ele>323.20001220703</ele>
        <time>2016-01-27T13:52:23Z</time>
      </trkpt>
      <trkpt lat="43.38852" lon="6.09385">
        <ele>322.60000610352</ele>
        <time>2016-01-27T13:52:24Z</time>
      </trkpt>
      <trkpt lat="43.38851" lon="6.09384">
        <ele>322.39999389648</ele>
        <time>2016-01-27T13:52:25Z</time>
      </trkpt>
      <trkpt lat="43.38849" lon="6.09384">
        <ele>322.39999389648</ele>
        <time>2016-01-27T13:52:26Z</time>
      </trkpt>
      <trkpt lat="43.38848" lon="6.09386">
        <ele>322.39999389648</ele>
        <time>2016-01-27T13:52:27Z</time>
      </trkpt>
      <trkpt lat="43.38847" lon="6.09387">
        <ele>321.39999389648</ele>
        <time>2016-01-27T13:52:28Z</time>
      </trkpt>
      <trkpt lat="43.38846" lon="6.09388">
        <ele>320.39999389648</ele>
        <time>2016-01-27T13:52:29Z</time>
      </trkpt>
      <trkpt lat="43.38845" lon="6.09391">
        <ele>320.20001220703</ele>
        <time>2016-01-27T13:52:30Z</time>
      </trkpt>
      <trkpt lat="43.38843" lon="6.09396">
        <ele>320.20001220703</ele>
        <time>2016-01-27T13:52:32Z</time>
      </trkpt>
      <trkpt lat="43.38842" lon="6.094">
        <ele>319.79998779297</ele>
        <time>2016-01-27T13:52:34Z</time>
      </trkpt>
      <trkpt lat="43.38841" lon="6.09404">
        <ele>319.39999389648</ele>
        <time>2016-01-27T13:52:36Z</time>
      </trkpt>
      <trkpt lat="43.3884" lon="6.09406">
        <ele>319.20001220703</ele>
        <time>2016-01-27T13:52:37Z</time>
      </trkpt>
      <trkpt lat="43.3884" lon="6.09408">
        <ele>318.79998779297</ele>
        <time>2016-01-27T13:52:38Z</time>
      </trkpt>
      <trkpt lat="43.38839" lon="6.09411">
        <ele>318.20001220703</ele>
        <time>2016-01-27T13:52:40Z</time>
      </trkpt>
      <trkpt lat="43.38838" lon="6.09413">
        <ele>318</ele>
        <time>2016-01-27T13:52:41Z</time>
      </trkpt>
      <trkpt lat="43.38837" lon="6.09414">
        <ele>318</ele>
        <time>2016-01-27T13:52:42Z</time>
      </trkpt>
      <trkpt lat="43.38837" lon="6.09415">
        <ele>317</ele>
        <time>2016-01-27T13:52:44Z</time>
      </trkpt>
      <trkpt lat="43.38834" lon="6.09419">
        <ele>316.60000610352</ele>
        <time>2016-01-27T13:52:46Z</time>
      </trkpt>
      <trkpt lat="43.38834" lon="6.09422">
        <ele>316.39999389648</ele>
        <time>2016-01-27T13:52:48Z</time>
      </trkpt>
      <trkpt lat="43.38834" lon="6.09425">
        <ele>316.60000610352</ele>
        <time>2016-01-27T13:52:49Z</time>
      </trkpt>
      <trkpt lat="43.38834" lon="6.09427">
        <ele>316.79998779297</ele>
        <time>2016-01-27T13:52:50Z</time>
      </trkpt>
      <trkpt lat="43.38832" lon="6.09431">
        <ele>317</ele>
        <time>2016-01-27T13:52:52Z</time>
      </trkpt>
      <trkpt lat="43.38832" lon="6.09434">
        <ele>317.39999389648</ele>
        <time>2016-01-27T13:52:54Z</time>
      </trkpt>
      <trkpt lat="43.38832" lon="6.09435">
        <ele>317.39999389648</ele>
        <time>2016-01-27T13:52:55Z</time>
      </trkpt>
      <trkpt lat="43.38832" lon="6.09437">
        <ele>317.39999389648</ele>
        <time>2016-01-27T13:52:56Z</time>
      </trkpt>
      <trkpt lat="43.38831" lon="6.0944">
        <ele>317.79998779297</ele>
        <time>2016-01-27T13:52:58Z</time>
      </trkpt>
      <trkpt lat="43.38832" lon="6.09441">
        <ele>317.79998779297</ele>
        <time>2016-01-27T13:53:00Z</time>
      </trkpt>
      <trkpt lat="43.38833" lon="6.09444">
        <ele>317.60000610352</ele>
        <time>2016-01-27T13:53:02Z</time>
      </trkpt>
      <trkpt lat="43.38834" lon="6.09448">
        <ele>317.60000610352</ele>
        <time>2016-01-27T13:53:04Z</time>
      </trkpt>
      <trkpt lat="43.38836" lon="6.09451">
        <ele>318</ele>
        <time>2016-01-27T13:53:06Z</time>
      </trkpt>
      <trkpt lat="43.38838" lon="6.09452">
        <ele>318</ele>
        <time>2016-01-27T13:53:08Z</time>
      </trkpt>
      <trkpt lat="43.38839" lon="6.09453">
        <ele>318.39999389648</ele>
        <time>2016-01-27T13:53:09Z</time>
      </trkpt>
      <trkpt lat="43.3884" lon="6.09453">
        <ele>318.60000610352</ele>
        <time>2016-01-27T13:53:10Z</time>
      </trkpt>
      <trkpt lat="43.38843" lon="6.09454">
        <ele>319</ele>
        <time>2016-01-27T13:53:12Z</time>
      </trkpt>
      <trkpt lat="43.38846" lon="6.09455">
        <ele>319.20001220703</ele>
        <time>2016-01-27T13:53:14Z</time>
      </trkpt>
      <trkpt lat="43.38848" lon="6.09457">
        <ele>319.60000610352</ele>
        <time>2016-01-27T13:53:16Z</time>
      </trkpt>
      <trkpt lat="43.38849" lon="6.09458">
        <ele>320</ele>
        <time>2016-01-27T13:53:17Z</time>
      </trkpt>
      <trkpt lat="43.38849" lon="6.09458">
        <ele>320.60000610352</ele>
        <time>2016-01-27T13:53:18Z</time>
      </trkpt>
      <trkpt lat="43.38848" lon="6.09458">
        <ele>320.79998779297</ele>
        <time>2016-01-27T13:53:20Z</time>
      </trkpt>
      <trkpt lat="43.38848" lon="6.09459">
        <ele>321</ele>
        <time>2016-01-27T13:53:22Z</time>
      </trkpt>
      <trkpt lat="43.38848" lon="6.09459">
        <ele>321</ele>
        <time>2016-01-27T13:53:24Z</time>
      </trkpt>
      <trkpt lat="43.38848" lon="6.09459">
        <ele>321</ele>
        <time>2016-01-27T13:53:26Z</time>
      </trkpt>
      <trkpt lat="43.38848" lon="6.0946">
        <ele>321.20001220703</ele>
        <time>2016-01-27T13:53:28Z</time>
      </trkpt>
      <trkpt lat="43.38848" lon="6.09459">
        <ele>321.20001220703</ele>
        <time>2016-01-27T13:53:30Z</time>
      </trkpt>
      <trkpt lat="43.38849" lon="6.0946">
        <ele>321</ele>
        <time>2016-01-27T13:53:32Z</time>
      </trkpt>
      <trkpt lat="43.38849" lon="6.09461">
        <ele>321.20001220703</ele>
        <time>2016-01-27T13:53:34Z</time>
      </trkpt>
      <trkpt lat="43.38849" lon="6.09461">
        <ele>321.20001220703</ele>
        <time>2016-01-27T13:53:35Z</time>
      </trkpt>
      <trkpt lat="43.38849" lon="6.09461">
        <ele>321.20001220703</ele>
        <time>2016-01-27T13:53:36Z</time>
      </trkpt>
      <trkpt lat="43.38849" lon="6.09462">
        <ele>321.20001220703</ele>
        <time>2016-01-27T13:53:38Z</time>
      </trkpt>
      <trkpt lat="43.38849" lon="6.09461">
        <ele>321.20001220703</ele>
        <time>2016-01-27T13:53:40Z</time>
      </trkpt>
      <trkpt lat="43.38849" lon="6.09461">
        <ele>321.20001220703</ele>
        <time>2016-01-27T13:53:42Z</time>
      </trkpt>
      <trkpt lat="43.38849" lon="6.09461">
        <ele>321.39999389648</ele>
        <time>2016-01-27T13:53:44Z</time>
      </trkpt>
      <trkpt lat="43.38849" lon="6.09461">
        <ele>321.39999389648</ele>
        <time>2016-01-27T13:53:45Z</time>
      </trkpt>
      <trkpt lat="43.38849" lon="6.09461">
        <ele>321.39999389648</ele>
        <time>2016-01-27T13:53:46Z</time>
      </trkpt>
      <trkpt lat="43.38848" lon="6.0946">
        <ele>321.39999389648</ele>
        <time>2016-01-27T13:53:48Z</time>
      </trkpt>
      <trkpt lat="43.38847" lon="6.09461">
        <ele>321.60000610352</ele>
        <time>2016-01-27T13:53:49Z</time>
      </trkpt>
      <trkpt lat="43.38847" lon="6.09461">
        <ele>321.39999389648</ele>
        <time>2016-01-27T13:53:50Z</time>
      </trkpt>
      <trkpt lat="43.38847" lon="6.09461">
        <ele>321</ele>
        <time>2016-01-27T13:53:51Z</time>
      </trkpt>
      <trkpt lat="43.38847" lon="6.09461">
        <ele>321</ele>
        <time>2016-01-27T13:53:52Z</time>
      </trkpt>
      <trkpt lat="43.38846" lon="6.09461">
        <ele>320.79998779297</ele>
        <time>2016-01-27T13:53:54Z</time>
      </trkpt>
      <trkpt lat="43.38845" lon="6.09461">
        <ele>320.39999389648</ele>
        <time>2016-01-27T13:53:55Z</time>
      </trkpt>
      <trkpt lat="43.38845" lon="6.0946">
        <ele>320.20001220703</ele>
        <time>2016-01-27T13:53:56Z</time>
      </trkpt>
      <trkpt lat="43.38844" lon="6.0946">
        <ele>320</ele>
        <time>2016-01-27T13:53:57Z</time>
      </trkpt>
      <trkpt lat="43.38844" lon="6.0946">
        <ele>320</ele>
        <time>2016-01-27T13:53:58Z</time>
      </trkpt>
      <trkpt lat="43.38844" lon="6.0946">
        <ele>319.79998779297</ele>
        <time>2016-01-27T13:54:00Z</time>
      </trkpt>
      <trkpt lat="43.38843" lon="6.0946">
        <ele>320</ele>
        <time>2016-01-27T13:54:02Z</time>
      </trkpt>
      <trkpt lat="43.38843" lon="6.0946">
        <ele>320</ele>
        <time>2016-01-27T13:54:04Z</time>
      </trkpt>
      <trkpt lat="43.38843" lon="6.0946">
        <ele>320</ele>
        <time>2016-01-27T13:54:05Z</time>
      </trkpt>
      <trkpt lat="43.38843" lon="6.09459">
        <ele>319.79998779297</ele>
        <time>2016-01-27T13:54:06Z</time>
      </trkpt>
      <trkpt lat="43.38841" lon="6.09457">
        <ele>319.60000610352</ele>
        <time>2016-01-27T13:54:08Z</time>
      </trkpt>
      <trkpt lat="43.3884" lon="6.09455">
        <ele>319.39999389648</ele>
        <time>2016-01-27T13:54:10Z</time>
      </trkpt>
      <trkpt lat="43.38839" lon="6.09455">
        <ele>319.39999389648</ele>
        <time>2016-01-27T13:54:11Z</time>
      </trkpt>
      <trkpt lat="43.38839" lon="6.09454">
        <ele>319.39999389648</ele>
        <time>2016-01-27T13:54:12Z</time>
      </trkpt>
      <trkpt lat="43.38837" lon="6.09453">
        <ele>318.79998779297</ele>
        <time>2016-01-27T13:54:14Z</time>
      </trkpt>
      <trkpt lat="43.38835" lon="6.09453">
        <ele>318.79998779297</ele>
        <time>2016-01-27T13:54:16Z</time>
      </trkpt>
      <trkpt lat="43.38834" lon="6.09453">
        <ele>318.39999389648</ele>
        <time>2016-01-27T13:54:18Z</time>
      </trkpt>
      <trkpt lat="43.38833" lon="6.09452">
        <ele>318.20001220703</ele>
        <time>2016-01-27T13:54:20Z</time>
      </trkpt>
      <trkpt lat="43.38833" lon="6.09453">
        <ele>318</ele>
        <time>2016-01-27T13:54:22Z</time>
      </trkpt>
      <trkpt lat="43.38832" lon="6.09453">
        <ele>318</ele>
        <time>2016-01-27T13:54:24Z</time>
      </trkpt>
      <trkpt lat="43.38832" lon="6.09453">
        <ele>318</ele>
        <time>2016-01-27T13:54:26Z</time>
      </trkpt>
      <trkpt lat="43.38832" lon="6.09453">
        <ele>318.20001220703</ele>
        <time>2016-01-27T13:54:28Z</time>
      </trkpt>
      <trkpt lat="43.38832" lon="6.09453">
        <ele>318.20001220703</ele>
        <time>2016-01-27T13:54:30Z</time>
      </trkpt>
      <trkpt lat="43.38832" lon="6.09453">
        <ele>318.20001220703</ele>
        <time>2016-01-27T13:54:32Z</time>
      </trkpt>
      <trkpt lat="43.38832" lon="6.09453">
        <ele>318</ele>
        <time>2016-01-27T13:54:34Z</time>
      </trkpt>
      <trkpt lat="43.38832" lon="6.09453">
        <ele>318</ele>
        <time>2016-01-27T13:54:35Z</time>
      </trkpt>
      <trkpt lat="43.38832" lon="6.09453">
        <ele>318.20001220703</ele>
        <time>2016-01-27T13:54:36Z</time>
      </trkpt>
      <trkpt lat="43.38832" lon="6.09453">
        <ele>318.39999389648</ele>
        <time>2016-01-27T13:54:38Z</time>
      </trkpt>
      <trkpt lat="43.38832" lon="6.09453">
        <ele>318.20001220703</ele>
        <time>2016-01-27T13:54:40Z</time>
      </trkpt>
      <trkpt lat="43.38832" lon="6.09453">
        <ele>318</ele>
        <time>2016-01-27T13:54:42Z</time>
      </trkpt>
      <trkpt lat="43.38832" lon="6.09453">
        <ele>317.79998779297</ele>
        <time>2016-01-27T13:54:44Z</time>
      </trkpt>
      <trkpt lat="43.38832" lon="6.09453">
        <ele>317.79998779297</ele>
        <time>2016-01-27T13:54:46Z</time>
      </trkpt>
      <trkpt lat="43.38832" lon="6.09453">
        <ele>317.79998779297</ele>
        <time>2016-01-27T13:54:48Z</time>
      </trkpt>
      <trkpt lat="43.38832" lon="6.09453">
        <ele>317.79998779297</ele>
        <time>2016-01-27T13:54:50Z</time>
      </trkpt>
      <trkpt lat="43.38832" lon="6.09453">
        <ele>318</ele>
        <time>2016-01-27T13:54:52Z</time>
      </trkpt>
      <trkpt lat="43.38832" lon="6.09453">
        <ele>318</ele>
        <time>2016-01-27T13:54:54Z</time>
      </trkpt>
      <trkpt lat="43.38832" lon="6.09453">
        <ele>317.79998779297</ele>
        <time>2016-01-27T13:54:56Z</time>
      </trkpt>
      <trkpt lat="43.38832" lon="6.09453">
        <ele>318</ele>
        <time>2016-01-27T13:54:58Z</time>
      </trkpt>
      <trkpt lat="43.38834" lon="6.09454">
        <ele>318</ele>
        <time>2016-01-27T13:55:00Z</time>
      </trkpt>
      <trkpt lat="43.38835" lon="6.09454">
        <ele>317.79998779297</ele>
        <time>2016-01-27T13:55:01Z</time>
      </trkpt>
      <trkpt lat="43.38837" lon="6.09454">
        <ele>318</ele>
        <time>2016-01-27T13:55:02Z</time>
      </trkpt>
      <trkpt lat="43.3884" lon="6.09455">
        <ele>318.39999389648</ele>
        <time>2016-01-27T13:55:04Z</time>
      </trkpt>
      <trkpt lat="43.38844" lon="6.09456">
        <ele>319</ele>
        <time>2016-01-27T13:55:06Z</time>
      </trkpt>
      <trkpt lat="43.38846" lon="6.09457">
        <ele>319.39999389648</ele>
        <time>2016-01-27T13:55:07Z</time>
      </trkpt>
      <trkpt lat="43.38847" lon="6.09459">
        <ele>320.20001220703</ele>
        <time>2016-01-27T13:55:08Z</time>
      </trkpt>
      <trkpt lat="43.38848" lon="6.09459">
        <ele>320.79998779297</ele>
        <time>2016-01-27T13:55:09Z</time>
      </trkpt>
      <trkpt lat="43.38849" lon="6.09461">
        <ele>321.20001220703</ele>
        <time>2016-01-27T13:55:10Z</time>
      </trkpt>
      <trkpt lat="43.3885" lon="6.09461">
        <ele>321.20001220703</ele>
        <time>2016-01-27T13:55:11Z</time>
      </trkpt>
      <trkpt lat="43.38852" lon="6.09461">
        <ele>321.60000610352</ele>
        <time>2016-01-27T13:55:12Z</time>
      </trkpt>
      <trkpt lat="43.38852" lon="6.0946">
        <ele>322.20001220703</ele>
        <time>2016-01-27T13:55:13Z</time>
      </trkpt>
      <trkpt lat="43.38853" lon="6.09459">
        <ele>322.39999389648</ele>
        <time>2016-01-27T13:55:14Z</time>
      </trkpt>
      <trkpt lat="43.38855" lon="6.09458">
        <ele>322.60000610352</ele>
        <time>2016-01-27T13:55:15Z</time>
      </trkpt>
      <trkpt lat="43.38856" lon="6.09457">
        <ele>323</ele>
        <time>2016-01-27T13:55:16Z</time>
      </trkpt>
      <trkpt lat="43.38857" lon="6.09456">
        <ele>323.20001220703</ele>
        <time>2016-01-27T13:55:17Z</time>
      </trkpt>
      <trkpt lat="43.38858" lon="6.09457">
        <ele>323.60000610352</ele>
        <time>2016-01-27T13:55:18Z</time>
      </trkpt>
      <trkpt lat="43.38857" lon="6.09457">
        <ele>323.79998779297</ele>
        <time>2016-01-27T13:55:19Z</time>
      </trkpt>
      <trkpt lat="43.38857" lon="6.09456">
        <ele>324</ele>
        <time>2016-01-27T13:55:20Z</time>
      </trkpt>
      <trkpt lat="43.38857" lon="6.09456">
        <ele>324</ele>
        <time>2016-01-27T13:55:22Z</time>
      </trkpt>
      <trkpt lat="43.38859" lon="6.09457">
        <ele>324.20001220703</ele>
        <time>2016-01-27T13:55:24Z</time>
      </trkpt>
      <trkpt lat="43.38859" lon="6.09457">
        <ele>324.20001220703</ele>
        <time>2016-01-27T13:55:25Z</time>
      </trkpt>
      <trkpt lat="43.3886" lon="6.09457">
        <ele>324.39999389648</ele>
        <time>2016-01-27T13:55:26Z</time>
      </trkpt>
      <trkpt lat="43.3886" lon="6.09457">
        <ele>324.60000610352</ele>
        <time>2016-01-27T13:55:27Z</time>
      </trkpt>
      <trkpt lat="43.38861" lon="6.09458">
        <ele>324.79998779297</ele>
        <time>2016-01-27T13:55:28Z</time>
      </trkpt>
      <trkpt lat="43.38861" lon="6.09458">
        <ele>324.79998779297</ele>
        <time>2016-01-27T13:55:30Z</time>
      </trkpt>
      <trkpt lat="43.38861" lon="6.09458">
        <ele>324.79998779297</ele>
        <time>2016-01-27T13:55:32Z</time>
      </trkpt>
      <trkpt lat="43.38861" lon="6.09458">
        <ele>324.79998779297</ele>
        <time>2016-01-27T13:55:33Z</time>
      </trkpt>
      <trkpt lat="43.38861" lon="6.09458">
        <ele>324.79998779297</ele>
        <time>2016-01-27T13:55:34Z</time>
      </trkpt>
      <trkpt lat="43.38861" lon="6.09458">
        <ele>324.79998779297</ele>
        <time>2016-01-27T13:55:36Z</time>
      </trkpt>
      <trkpt lat="43.38861" lon="6.09457">
        <ele>324.79998779297</ele>
        <time>2016-01-27T13:55:38Z</time>
      </trkpt>
      <trkpt lat="43.38861" lon="6.09458">
        <ele>325</ele>
        <time>2016-01-27T13:55:40Z</time>
      </trkpt>
      <trkpt lat="43.38861" lon="6.09458">
        <ele>325</ele>
        <time>2016-01-27T13:55:42Z</time>
      </trkpt>
      <trkpt lat="43.38861" lon="6.09458">
        <ele>325.20001220703</ele>
        <time>2016-01-27T13:55:44Z</time>
      </trkpt>
      <trkpt lat="43.38862" lon="6.09458">
        <ele>325.20001220703</ele>
        <time>2016-01-27T13:55:46Z</time>
      </trkpt>
      <trkpt lat="43.38863" lon="6.09459">
        <ele>325.20001220703</ele>
        <time>2016-01-27T13:55:48Z</time>
      </trkpt>
      <trkpt lat="43.38863" lon="6.0946">
        <ele>325.39999389648</ele>
        <time>2016-01-27T13:55:49Z</time>
      </trkpt>
      <trkpt lat="43.38864" lon="6.09461">
        <ele>325.60000610352</ele>
        <time>2016-01-27T13:55:50Z</time>
      </trkpt>
      <trkpt lat="43.38866" lon="6.09465">
        <ele>325.79998779297</ele>
        <time>2016-01-27T13:55:52Z</time>
      </trkpt>
      <trkpt lat="43.38868" lon="6.09467">
        <ele>326.60000610352</ele>
        <time>2016-01-27T13:55:54Z</time>
      </trkpt>
      <trkpt lat="43.3887" lon="6.0947">
        <ele>327</ele>
        <time>2016-01-27T13:55:56Z</time>
      </trkpt>
      <trkpt lat="43.38871" lon="6.09472">
        <ele>327.39999389648</ele>
        <time>2016-01-27T13:55:58Z</time>
      </trkpt>
      <trkpt lat="43.38871" lon="6.09475">
        <ele>327.60000610352</ele>
        <time>2016-01-27T13:56:00Z</time>
      </trkpt>
      <trkpt lat="43.38872" lon="6.09476">
        <ele>327.60000610352</ele>
        <time>2016-01-27T13:56:01Z</time>
      </trkpt>
      <trkpt lat="43.38873" lon="6.09477">
        <ele>327.39999389648</ele>
        <time>2016-01-27T13:56:02Z</time>
      </trkpt>
      <trkpt lat="43.38873" lon="6.09479">
        <ele>327.39999389648</ele>
        <time>2016-01-27T13:56:04Z</time>
      </trkpt>
      <trkpt lat="43.38873" lon="6.09481">
        <ele>327.60000610352</ele>
        <time>2016-01-27T13:56:06Z</time>
      </trkpt>
      <trkpt lat="43.38873" lon="6.09482">
        <ele>327.60000610352</ele>
        <time>2016-01-27T13:56:08Z</time>
      </trkpt>
      <trkpt lat="43.38873" lon="6.09482">
        <ele>327.79998779297</ele>
        <time>2016-01-27T13:56:09Z</time>
      </trkpt>
      <trkpt lat="43.38874" lon="6.09482">
        <ele>327.79998779297</ele>
        <time>2016-01-27T13:56:10Z</time>
      </trkpt>
      <trkpt lat="43.38874" lon="6.09483">
        <ele>327.79998779297</ele>
        <time>2016-01-27T13:56:11Z</time>
      </trkpt>
      <trkpt lat="43.38874" lon="6.09483">
        <ele>327.60000610352</ele>
        <time>2016-01-27T13:56:12Z</time>
      </trkpt>
      <trkpt lat="43.38874" lon="6.09483">
        <ele>327.60000610352</ele>
        <time>2016-01-27T13:56:14Z</time>
      </trkpt>
      <trkpt lat="43.38874" lon="6.09483">
        <ele>327.60000610352</ele>
        <time>2016-01-27T13:56:16Z</time>
      </trkpt>
      <trkpt lat="43.38874" lon="6.09483">
        <ele>327.39999389648</ele>
        <time>2016-01-27T13:56:18Z</time>
      </trkpt>
      <trkpt lat="43.38874" lon="6.09483">
        <ele>327.39999389648</ele>
        <time>2016-01-27T13:56:20Z</time>
      </trkpt>
      <trkpt lat="43.38873" lon="6.09483">
        <ele>327.39999389648</ele>
        <time>2016-01-27T13:56:22Z</time>
      </trkpt>
      <trkpt lat="43.38873" lon="6.09483">
        <ele>327.60000610352</ele>
        <time>2016-01-27T13:56:23Z</time>
      </trkpt>
      <trkpt lat="43.38873" lon="6.09483">
        <ele>327.60000610352</ele>
        <time>2016-01-27T13:56:26Z</time>
      </trkpt>
      <trkpt lat="43.38873" lon="6.09483">
        <ele>327.60000610352</ele>
        <time>2016-01-27T13:56:28Z</time>
      </trkpt>
      <trkpt lat="43.38873" lon="6.09483">
        <ele>327.79998779297</ele>
        <time>2016-01-27T13:56:30Z</time>
      </trkpt>
      <trkpt lat="43.38873" lon="6.09483">
        <ele>327.60000610352</ele>
        <time>2016-01-27T13:56:32Z</time>
      </trkpt>
      <trkpt lat="43.38873" lon="6.09483">
        <ele>327.39999389648</ele>
        <time>2016-01-27T13:56:34Z</time>
      </trkpt>
      <trkpt lat="43.38873" lon="6.09483">
        <ele>327.60000610352</ele>
        <time>2016-01-27T13:56:36Z</time>
      </trkpt>
      <trkpt lat="43.38873" lon="6.09483">
        <ele>327.60000610352</ele>
        <time>2016-01-27T13:56:38Z</time>
      </trkpt>
      <trkpt lat="43.38873" lon="6.09483">
        <ele>327.60000610352</ele>
        <time>2016-01-27T13:56:40Z</time>
      </trkpt>
      <trkpt lat="43.38873" lon="6.09483">
        <ele>327.60000610352</ele>
        <time>2016-01-27T13:56:42Z</time>
      </trkpt>
      <trkpt lat="43.38873" lon="6.09483">
        <ele>327.60000610352</ele>
        <time>2016-01-27T13:56:44Z</time>
      </trkpt>
      <trkpt lat="43.38873" lon="6.09483">
        <ele>327.60000610352</ele>
        <time>2016-01-27T13:56:46Z</time>
      </trkpt>
      <trkpt lat="43.38873" lon="6.09483">
        <ele>327.60000610352</ele>
        <time>2016-01-27T13:56:48Z</time>
      </trkpt>
      <trkpt lat="43.38873" lon="6.09483">
        <ele>327.60000610352</ele>
        <time>2016-01-27T13:56:50Z</time>
      </trkpt>
      <trkpt lat="43.38873" lon="6.09483">
        <ele>327.60000610352</ele>
        <time>2016-01-27T13:56:52Z</time>
      </trkpt>
      <trkpt lat="43.38873" lon="6.09483">
        <ele>327.60000610352</ele>
        <time>2016-01-27T13:56:54Z</time>
      </trkpt>
      <trkpt lat="43.38873" lon="6.09483">
        <ele>327.60000610352</ele>
        <time>2016-01-27T13:56:56Z</time>
      </trkpt>
      <trkpt lat="43.38873" lon="6.09483">
        <ele>327.60000610352</ele>
        <time>2016-01-27T13:56:58Z</time>
      </trkpt>
      <trkpt lat="43.38873" lon="6.09483">
        <ele>327.60000610352</ele>
        <time>2016-01-27T13:56:59Z</time>
      </trkpt>
      <trkpt lat="43.38873" lon="6.09483">
        <ele>327.60000610352</ele>
        <time>2016-01-27T13:57:00Z</time>
      </trkpt>
      <trkpt lat="43.38873" lon="6.09483">
        <ele>327.60000610352</ele>
        <time>2016-01-27T13:57:02Z</time>
      </trkpt>
      <trkpt lat="43.38873" lon="6.09483">
        <ele>327.60000610352</ele>
        <time>2016-01-27T13:57:04Z</time>
      </trkpt>
      <trkpt lat="43.38873" lon="6.09483">
        <ele>327.60000610352</ele>
        <time>2016-01-27T13:57:06Z</time>
      </trkpt>
      <trkpt lat="43.38873" lon="6.09483">
        <ele>327.60000610352</ele>
        <time>2016-01-27T13:57:08Z</time>
      </trkpt>
      <trkpt lat="43.38873" lon="6.09483">
        <ele>327.39999389648</ele>
        <time>2016-01-27T13:57:10Z</time>
      </trkpt>
      <trkpt lat="43.38873" lon="6.09483">
        <ele>327.60000610352</ele>
        <time>2016-01-27T13:57:12Z</time>
      </trkpt>
      <trkpt lat="43.38873" lon="6.09483">
        <ele>327.39999389648</ele>
        <time>2016-01-27T13:57:14Z</time>
      </trkpt>
      <trkpt lat="43.38873" lon="6.09483">
        <ele>327.79998779297</ele>
        <time>2016-01-27T13:57:16Z</time>
      </trkpt>
      <trkpt lat="43.38873" lon="6.09483">
        <ele>327.79998779297</ele>
        <time>2016-01-27T13:57:18Z</time>
      </trkpt>
      <trkpt lat="43.38873" lon="6.09483">
        <ele>327.79998779297</ele>
        <time>2016-01-27T13:57:20Z</time>
      </trkpt>
      <trkpt lat="43.38873" lon="6.09484">
        <ele>327.79998779297</ele>
        <time>2016-01-27T13:57:22Z</time>
      </trkpt>
      <trkpt lat="43.38873" lon="6.09486">
        <ele>327.79998779297</ele>
        <time>2016-01-27T13:57:23Z</time>
      </trkpt>
      <trkpt lat="43.38874" lon="6.09488">
        <ele>327.79998779297</ele>
        <time>2016-01-27T13:57:24Z</time>
      </trkpt>
      <trkpt lat="43.38873" lon="6.09492">
        <ele>327.79998779297</ele>
        <time>2016-01-27T13:57:26Z</time>
      </trkpt>
      <trkpt lat="43.38874" lon="6.09496">
        <ele>327.79998779297</ele>
        <time>2016-01-27T13:57:28Z</time>
      </trkpt>
      <trkpt lat="43.38874" lon="6.09501">
        <ele>327.79998779297</ele>
        <time>2016-01-27T13:57:30Z</time>
      </trkpt>
      <trkpt lat="43.38874" lon="6.09509">
        <ele>327.60000610352</ele>
        <time>2016-01-27T13:57:32Z</time>
      </trkpt>
      <trkpt lat="43.38875" lon="6.09516">
        <ele>327.60000610352</ele>
        <time>2016-01-27T13:57:34Z</time>
      </trkpt>
      <trkpt lat="43.38875" lon="6.09525">
        <ele>327.60000610352</ele>
        <time>2016-01-27T13:57:36Z</time>
      </trkpt>
      <trkpt lat="43.38875" lon="6.09534">
        <ele>327.79998779297</ele>
        <time>2016-01-27T13:57:38Z</time>
      </trkpt>
      <trkpt lat="43.38876" lon="6.09543">
        <ele>327.79998779297</ele>
        <time>2016-01-27T13:57:40Z</time>
      </trkpt>
      <trkpt lat="43.38876" lon="6.09552">
        <ele>327.79998779297</ele>
        <time>2016-01-27T13:57:42Z</time>
      </trkpt>
      <trkpt lat="43.38876" lon="6.09557">
        <ele>327.79998779297</ele>
        <time>2016-01-27T13:57:43Z</time>
      </trkpt>
      <trkpt lat="43.38876" lon="6.09563">
        <ele>327.79998779297</ele>
        <time>2016-01-27T13:57:44Z</time>
      </trkpt>
      <trkpt lat="43.38878" lon="6.09575">
        <ele>327.39999389648</ele>
        <time>2016-01-27T13:57:46Z</time>
      </trkpt>
      <trkpt lat="43.38879" lon="6.09588">
        <ele>326.60000610352</ele>
        <time>2016-01-27T13:57:48Z</time>
      </trkpt>
      <trkpt lat="43.3888" lon="6.09595">
        <ele>326.20001220703</ele>
        <time>2016-01-27T13:57:49Z</time>
      </trkpt>
      <trkpt lat="43.38881" lon="6.09601">
        <ele>325.60000610352</ele>
        <time>2016-01-27T13:57:50Z</time>
      </trkpt>
      <trkpt lat="43.38884" lon="6.09607">
        <ele>325.20001220703</ele>
        <time>2016-01-27T13:57:51Z</time>
      </trkpt>
      <trkpt lat="43.38886" lon="6.09613">
        <ele>325.39999389648</ele>
        <time>2016-01-27T13:57:52Z</time>
      </trkpt>
      <trkpt lat="43.38892" lon="6.09621">
        <ele>325.60000610352</ele>
        <time>2016-01-27T13:57:54Z</time>
      </trkpt>
      <trkpt lat="43.38894" lon="6.09625">
        <ele>325.60000610352</ele>
        <time>2016-01-27T13:57:55Z</time>
      </trkpt>
      <trkpt lat="43.38897" lon="6.0963">
        <ele>325.60000610352</ele>
        <time>2016-01-27T13:57:56Z</time>
      </trkpt>
      <trkpt lat="43.38898" lon="6.09635">
        <ele>325.79998779297</ele>
        <time>2016-01-27T13:57:57Z</time>
      </trkpt>
      <trkpt lat="43.38899" lon="6.09642">
        <ele>325.79998779297</ele>
        <time>2016-01-27T13:57:58Z</time>
      </trkpt>
      <trkpt lat="43.38899" lon="6.09649">
        <ele>325.60000610352</ele>
        <time>2016-01-27T13:57:59Z</time>
      </trkpt>
      <trkpt lat="43.389" lon="6.09658">
        <ele>325.60000610352</ele>
        <time>2016-01-27T13:58:00Z</time>
      </trkpt>
      <trkpt lat="43.389" lon="6.09674">
        <ele>325.20001220703</ele>
        <time>2016-01-27T13:58:02Z</time>
      </trkpt>
      <trkpt lat="43.38901" lon="6.09692">
        <ele>324.20001220703</ele>
        <time>2016-01-27T13:58:04Z</time>
      </trkpt>
      <trkpt lat="43.38901" lon="6.09701">
        <ele>323.79998779297</ele>
        <time>2016-01-27T13:58:05Z</time>
      </trkpt>
      <trkpt lat="43.38902" lon="6.09711">
        <ele>322.79998779297</ele>
        <time>2016-01-27T13:58:06Z</time>
      </trkpt>
      <trkpt lat="43.38905" lon="6.0973">
        <ele>323.39999389648</ele>
        <time>2016-01-27T13:58:08Z</time>
      </trkpt>
      <trkpt lat="43.38905" lon="6.09739">
        <ele>322.79998779297</ele>
        <time>2016-01-27T13:58:09Z</time>
      </trkpt>
      <trkpt lat="43.38905" lon="6.09749">
        <ele>322.20001220703</ele>
        <time>2016-01-27T13:58:10Z</time>
      </trkpt>
      <trkpt lat="43.38902" lon="6.09769">
        <ele>321.79998779297</ele>
        <time>2016-01-27T13:58:12Z</time>
      </trkpt>
      <trkpt lat="43.38898" lon="6.09791">
        <ele>321</ele>
        <time>2016-01-27T13:58:14Z</time>
      </trkpt>
      <trkpt lat="43.38895" lon="6.09801">
        <ele>319.60000610352</ele>
        <time>2016-01-27T13:58:15Z</time>
      </trkpt>
      <trkpt lat="43.38892" lon="6.09813">
        <ele>318.60000610352</ele>
        <time>2016-01-27T13:58:16Z</time>
      </trkpt>
      <trkpt lat="43.38891" lon="6.09823">
        <ele>317</ele>
        <time>2016-01-27T13:58:17Z</time>
      </trkpt>
      <trkpt lat="43.3889" lon="6.09835">
        <ele>315.79998779297</ele>
        <time>2016-01-27T13:58:18Z</time>
      </trkpt>
      <trkpt lat="43.38889" lon="6.09846">
        <ele>314.60000610352</ele>
        <time>2016-01-27T13:58:19Z</time>
      </trkpt>
      <trkpt lat="43.38888" lon="6.09857">
        <ele>313.60000610352</ele>
        <time>2016-01-27T13:58:20Z</time>
      </trkpt>
      <trkpt lat="43.38887" lon="6.09868">
        <ele>312.39999389648</ele>
        <time>2016-01-27T13:58:21Z</time>
      </trkpt>
      <trkpt lat="43.38885" lon="6.0988">
        <ele>311.20001220703</ele>
        <time>2016-01-27T13:58:22Z</time>
      </trkpt>
      <trkpt lat="43.38882" lon="6.09891">
        <ele>309.79998779297</ele>
        <time>2016-01-27T13:58:23Z</time>
      </trkpt>
      <trkpt lat="43.3888" lon="6.09903">
        <ele>308.39999389648</ele>
        <time>2016-01-27T13:58:24Z</time>
      </trkpt>
      <trkpt lat="43.38877" lon="6.09915">
        <ele>307.20001220703</ele>
        <time>2016-01-27T13:58:25Z</time>
      </trkpt>
      <trkpt lat="43.38874" lon="6.09927">
        <ele>306.39999389648</ele>
        <time>2016-01-27T13:58:26Z</time>
      </trkpt>
      <trkpt lat="43.38871" lon="6.09939">
        <ele>306</ele>
        <time>2016-01-27T13:58:27Z</time>
      </trkpt>
      <trkpt lat="43.38868" lon="6.09952">
        <ele>305</ele>
        <time>2016-01-27T13:58:28Z</time>
      </trkpt>
      <trkpt lat="43.38866" lon="6.09964">
        <ele>304</ele>
        <time>2016-01-27T13:58:29Z</time>
      </trkpt>
      <trkpt lat="43.38865" lon="6.09978">
        <ele>303</ele>
        <time>2016-01-27T13:58:30Z</time>
      </trkpt>
      <trkpt lat="43.38861" lon="6.10005">
        <ele>301.79998779297</ele>
        <time>2016-01-27T13:58:32Z</time>
      </trkpt>
      <trkpt lat="43.38858" lon="6.10018">
        <ele>301.60000610352</ele>
        <time>2016-01-27T13:58:33Z</time>
      </trkpt>
      <trkpt lat="43.38855" lon="6.10031">
        <ele>301.20001220703</ele>
        <time>2016-01-27T13:58:34Z</time>
      </trkpt>
      <trkpt lat="43.38852" lon="6.10043">
        <ele>300</ele>
        <time>2016-01-27T13:58:35Z</time>
      </trkpt>
      <trkpt lat="43.38848" lon="6.10056">
        <ele>298.39999389648</ele>
        <time>2016-01-27T13:58:36Z</time>
      </trkpt>
      <trkpt lat="43.3884" lon="6.10081">
        <ele>297</ele>
        <time>2016-01-27T13:58:38Z</time>
      </trkpt>
      <trkpt lat="43.38837" lon="6.10092">
        <ele>296.60000610352</ele>
        <time>2016-01-27T13:58:39Z</time>
      </trkpt>
      <trkpt lat="43.38836" lon="6.10103">
        <ele>296.20001220703</ele>
        <time>2016-01-27T13:58:40Z</time>
      </trkpt>
      <trkpt lat="43.38833" lon="6.10113">
        <ele>295.60000610352</ele>
        <time>2016-01-27T13:58:41Z</time>
      </trkpt>
      <trkpt lat="43.38831" lon="6.10122">
        <ele>295.20001220703</ele>
        <time>2016-01-27T13:58:42Z</time>
      </trkpt>
      <trkpt lat="43.38827" lon="6.10136">
        <ele>294.39999389648</ele>
        <time>2016-01-27T13:58:44Z</time>
      </trkpt>
      <trkpt lat="43.38826" lon="6.10139">
        <ele>294</ele>
        <time>2016-01-27T13:58:45Z</time>
      </trkpt>
      <trkpt lat="43.38825" lon="6.10142">
        <ele>293.39999389648</ele>
        <time>2016-01-27T13:58:46Z</time>
      </trkpt>
      <trkpt lat="43.38826" lon="6.10143">
        <ele>293.20001220703</ele>
        <time>2016-01-27T13:58:47Z</time>
      </trkpt>
      <trkpt lat="43.38826" lon="6.10145">
        <ele>293</ele>
        <time>2016-01-27T13:58:48Z</time>
      </trkpt>
      <trkpt lat="43.38827" lon="6.10146">
        <ele>292.39999389648</ele>
        <time>2016-01-27T13:58:50Z</time>
      </trkpt>
      <trkpt lat="43.38827" lon="6.10146">
        <ele>292.20001220703</ele>
        <time>2016-01-27T13:58:52Z</time>
      </trkpt>
      <trkpt lat="43.38827" lon="6.10146">
        <ele>292.20001220703</ele>
        <time>2016-01-27T13:58:54Z</time>
      </trkpt>
      <trkpt lat="43.38827" lon="6.10146">
        <ele>292.20001220703</ele>
        <time>2016-01-27T13:58:56Z</time>
      </trkpt>
      <trkpt lat="43.38828" lon="6.1015">
        <ele>292.20001220703</ele>
        <time>2016-01-27T13:58:58Z</time>
      </trkpt>
      <trkpt lat="43.38829" lon="6.10153">
        <ele>292.39999389648</ele>
        <time>2016-01-27T13:59:00Z</time>
      </trkpt>
      <trkpt lat="43.38829" lon="6.10154">
        <ele>292.39999389648</ele>
        <time>2016-01-27T13:59:02Z</time>
      </trkpt>
      <trkpt lat="43.38829" lon="6.10155">
        <ele>292.20001220703</ele>
        <time>2016-01-27T13:59:04Z</time>
      </trkpt>
      <trkpt lat="43.38829" lon="6.10155">
        <ele>292.20001220703</ele>
        <time>2016-01-27T13:59:05Z</time>
      </trkpt>
      <trkpt lat="43.38829" lon="6.10155">
        <ele>292.39999389648</ele>
        <time>2016-01-27T13:59:06Z</time>
      </trkpt>
      <trkpt lat="43.38829" lon="6.10155">
        <ele>292.39999389648</ele>
        <time>2016-01-27T13:59:08Z</time>
      </trkpt>
      <trkpt lat="43.38828" lon="6.10156">
        <ele>292.39999389648</ele>
        <time>2016-01-27T13:59:10Z</time>
      </trkpt>
      <trkpt lat="43.38828" lon="6.10156">
        <ele>292.39999389648</ele>
        <time>2016-01-27T13:59:12Z</time>
      </trkpt>
      <trkpt lat="43.38828" lon="6.10156">
        <ele>292.39999389648</ele>
        <time>2016-01-27T13:59:14Z</time>
      </trkpt>
      <trkpt lat="43.38828" lon="6.10156">
        <ele>292.20001220703</ele>
        <time>2016-01-27T13:59:16Z</time>
      </trkpt>
      <trkpt lat="43.38828" lon="6.10156">
        <ele>292.20001220703</ele>
        <time>2016-01-27T13:59:18Z</time>
      </trkpt>
      <trkpt lat="43.38828" lon="6.10156">
        <ele>292.20001220703</ele>
        <time>2016-01-27T13:59:20Z</time>
      </trkpt>
      <trkpt lat="43.38828" lon="6.10156">
        <ele>292.20001220703</ele>
        <time>2016-01-27T13:59:22Z</time>
      </trkpt>
      <trkpt lat="43.38828" lon="6.10156">
        <ele>292.20001220703</ele>
        <time>2016-01-27T13:59:24Z</time>
      </trkpt>
      <trkpt lat="43.38828" lon="6.10156">
        <ele>292.39999389648</ele>
        <time>2016-01-27T13:59:26Z</time>
      </trkpt>
      <trkpt lat="43.38828" lon="6.10156">
        <ele>292.39999389648</ele>
        <time>2016-01-27T13:59:28Z</time>
      </trkpt>
      <trkpt lat="43.38828" lon="6.10156">
        <ele>292.20001220703</ele>
        <time>2016-01-27T13:59:30Z</time>
      </trkpt>
      <trkpt lat="43.38828" lon="6.10156">
        <ele>292.20001220703</ele>
        <time>2016-01-27T13:59:32Z</time>
      </trkpt>
      <trkpt lat="43.38828" lon="6.10156">
        <ele>292.39999389648</ele>
        <time>2016-01-27T13:59:34Z</time>
      </trkpt>
      <trkpt lat="43.38828" lon="6.10156">
        <ele>292.39999389648</ele>
        <time>2016-01-27T13:59:36Z</time>
      </trkpt>
      <trkpt lat="43.38828" lon="6.10156">
        <ele>292.39999389648</ele>
        <time>2016-01-27T13:59:38Z</time>
      </trkpt>
      <trkpt lat="43.38828" lon="6.10156">
        <ele>292.39999389648</ele>
        <time>2016-01-27T13:59:40Z</time>
      </trkpt>
      <trkpt lat="43.38828" lon="6.10156">
        <ele>292.39999389648</ele>
        <time>2016-01-27T13:59:42Z</time>
      </trkpt>
      <trkpt lat="43.38828" lon="6.10156">
        <ele>292.60000610352</ele>
        <time>2016-01-27T13:59:44Z</time>
      </trkpt>
      <trkpt lat="43.38828" lon="6.10156">
        <ele>292.60000610352</ele>
        <time>2016-01-27T13:59:46Z</time>
      </trkpt>
      <trkpt lat="43.38828" lon="6.10156">
        <ele>292.60000610352</ele>
        <time>2016-01-27T13:59:47Z</time>
      </trkpt>
      <trkpt lat="43.38828" lon="6.10156">
        <ele>292.39999389648</ele>
        <time>2016-01-27T13:59:48Z</time>
      </trkpt>
      <trkpt lat="43.38828" lon="6.10156">
        <ele>292.39999389648</ele>
        <time>2016-01-27T13:59:50Z</time>
      </trkpt>
      <trkpt lat="43.38828" lon="6.10156">
        <ele>292.20001220703</ele>
        <time>2016-01-27T13:59:52Z</time>
      </trkpt>
      <trkpt lat="43.38828" lon="6.10156">
        <ele>292.20001220703</ele>
        <time>2016-01-27T13:59:54Z</time>
      </trkpt>
      <trkpt lat="43.38828" lon="6.10156">
        <ele>292.20001220703</ele>
        <time>2016-01-27T13:59:56Z</time>
      </trkpt>
      <trkpt lat="43.38828" lon="6.10156">
        <ele>292.20001220703</ele>
        <time>2016-01-27T13:59:58Z</time>
      </trkpt>
      <trkpt lat="43.38828" lon="6.10156">
        <ele>292.20001220703</ele>
        <time>2016-01-27T14:00:00Z</time>
      </trkpt>
      <trkpt lat="43.38828" lon="6.10156">
        <ele>292.39999389648</ele>
        <time>2016-01-27T14:00:02Z</time>
      </trkpt>
      <trkpt lat="43.38828" lon="6.10156">
        <ele>292.39999389648</ele>
        <time>2016-01-27T14:00:04Z</time>
      </trkpt>
      <trkpt lat="43.38828" lon="6.10155">
        <ele>292.39999389648</ele>
        <time>2016-01-27T14:00:06Z</time>
      </trkpt>
      <trkpt lat="43.38828" lon="6.10155">
        <ele>292.20001220703</ele>
        <time>2016-01-27T14:00:08Z</time>
      </trkpt>
      <trkpt lat="43.38828" lon="6.10155">
        <ele>292</ele>
        <time>2016-01-27T14:00:10Z</time>
      </trkpt>
      <trkpt lat="43.38827" lon="6.10157">
        <ele>292</ele>
        <time>2016-01-27T14:00:11Z</time>
      </trkpt>
      <trkpt lat="43.38826" lon="6.10159">
        <ele>292</ele>
        <time>2016-01-27T14:00:12Z</time>
      </trkpt>
      <trkpt lat="43.38827" lon="6.10166">
        <ele>292</ele>
        <time>2016-01-27T14:00:14Z</time>
      </trkpt>
      <trkpt lat="43.38827" lon="6.10169">
        <ele>292</ele>
        <time>2016-01-27T14:00:15Z</time>
      </trkpt>
      <trkpt lat="43.38828" lon="6.10173">
        <ele>292</ele>
        <time>2016-01-27T14:00:16Z</time>
      </trkpt>
      <trkpt lat="43.38827" lon="6.10177">
        <ele>292.20001220703</ele>
        <time>2016-01-27T14:00:17Z</time>
      </trkpt>
      <trkpt lat="43.38826" lon="6.10181">
        <ele>292.39999389648</ele>
        <time>2016-01-27T14:00:18Z</time>
      </trkpt>
      <trkpt lat="43.38823" lon="6.10188">
        <ele>292.60000610352</ele>
        <time>2016-01-27T14:00:20Z</time>
      </trkpt>
      <trkpt lat="43.38821" lon="6.10191">
        <ele>293.20001220703</ele>
        <time>2016-01-27T14:00:21Z</time>
      </trkpt>
      <trkpt lat="43.38821" lon="6.10192">
        <ele>293.39999389648</ele>
        <time>2016-01-27T14:00:22Z</time>
      </trkpt>
      <trkpt lat="43.3882" lon="6.10192">
        <ele>293.39999389648</ele>
        <time>2016-01-27T14:00:24Z</time>
      </trkpt>
      <trkpt lat="43.38821" lon="6.10194">
        <ele>293.39999389648</ele>
        <time>2016-01-27T14:00:25Z</time>
      </trkpt>
      <trkpt lat="43.38821" lon="6.10194">
        <ele>293.60000610352</ele>
        <time>2016-01-27T14:00:26Z</time>
      </trkpt>
      <trkpt lat="43.38821" lon="6.10195">
        <ele>293.79998779297</ele>
        <time>2016-01-27T14:00:28Z</time>
      </trkpt>
      <trkpt lat="43.38821" lon="6.10195">
        <ele>293.79998779297</ele>
        <time>2016-01-27T14:00:30Z</time>
      </trkpt>
      <trkpt lat="43.3882" lon="6.10195">
        <ele>293.60000610352</ele>
        <time>2016-01-27T14:00:32Z</time>
      </trkpt>
      <trkpt lat="43.3882" lon="6.10198">
        <ele>293.60000610352</ele>
        <time>2016-01-27T14:00:34Z</time>
      </trkpt>
      <trkpt lat="43.3882" lon="6.10204">
        <ele>293.79998779297</ele>
        <time>2016-01-27T14:00:36Z</time>
      </trkpt>
      <trkpt lat="43.38819" lon="6.10209">
        <ele>294.39999389648</ele>
        <time>2016-01-27T14:00:38Z</time>
      </trkpt>
      <trkpt lat="43.38819" lon="6.10215">
        <ele>294.79998779297</ele>
        <time>2016-01-27T14:00:40Z</time>
      </trkpt>
      <trkpt lat="43.3882" lon="6.10221">
        <ele>294.79998779297</ele>
        <time>2016-01-27T14:00:42Z</time>
      </trkpt>
      <trkpt lat="43.3882" lon="6.10223">
        <ele>294.79998779297</ele>
        <time>2016-01-27T14:00:43Z</time>
      </trkpt>
      <trkpt lat="43.38821" lon="6.10225">
        <ele>295</ele>
        <time>2016-01-27T14:00:44Z</time>
      </trkpt>
      <trkpt lat="43.38824" lon="6.10232">
        <ele>294.39999389648</ele>
        <time>2016-01-27T14:00:46Z</time>
      </trkpt>
      <trkpt lat="43.38825" lon="6.10241">
        <ele>294</ele>
        <time>2016-01-27T14:00:48Z</time>
      </trkpt>
      <trkpt lat="43.38827" lon="6.10249">
        <ele>293.60000610352</ele>
        <time>2016-01-27T14:00:50Z</time>
      </trkpt>
      <trkpt lat="43.38828" lon="6.10259">
        <ele>293.20001220703</ele>
        <time>2016-01-27T14:00:52Z</time>
      </trkpt>
      <trkpt lat="43.38829" lon="6.10265">
        <ele>292.79998779297</ele>
        <time>2016-01-27T14:00:53Z</time>
      </trkpt>
      <trkpt lat="43.3883" lon="6.10272">
        <ele>292.60000610352</ele>
        <time>2016-01-27T14:00:54Z</time>
      </trkpt>
      <trkpt lat="43.38831" lon="6.10286">
        <ele>292.39999389648</ele>
        <time>2016-01-27T14:00:56Z</time>
      </trkpt>
      <trkpt lat="43.38832" lon="6.10301">
        <ele>292.20001220703</ele>
        <time>2016-01-27T14:00:58Z</time>
      </trkpt>
      <trkpt lat="43.38832" lon="6.10308">
        <ele>291.79998779297</ele>
        <time>2016-01-27T14:00:59Z</time>
      </trkpt>
      <trkpt lat="43.38832" lon="6.10315">
        <ele>291</ele>
        <time>2016-01-27T14:01:00Z</time>
      </trkpt>
      <trkpt lat="43.38832" lon="6.10326">
        <ele>290.79998779297</ele>
        <time>2016-01-27T14:01:02Z</time>
      </trkpt>
      <trkpt lat="43.38832" lon="6.10335">
        <ele>290.60000610352</ele>
        <time>2016-01-27T14:01:04Z</time>
      </trkpt>
      <trkpt lat="43.38832" lon="6.10344">
        <ele>290.39999389648</ele>
        <time>2016-01-27T14:01:06Z</time>
      </trkpt>
      <trkpt lat="43.38832" lon="6.10348">
        <ele>290</ele>
        <time>2016-01-27T14:01:07Z</time>
      </trkpt>
      <trkpt lat="43.38832" lon="6.10353">
        <ele>290</ele>
        <time>2016-01-27T14:01:08Z</time>
      </trkpt>
      <trkpt lat="43.38833" lon="6.10364">
        <ele>290.20001220703</ele>
        <time>2016-01-27T14:01:10Z</time>
      </trkpt>
      <trkpt lat="43.38833" lon="6.10375">
        <ele>290</ele>
        <time>2016-01-27T14:01:12Z</time>
      </trkpt>
      <trkpt lat="43.38833" lon="6.1038">
        <ele>289.79998779297</ele>
        <time>2016-01-27T14:01:13Z</time>
      </trkpt>
      <trkpt lat="43.38833" lon="6.10385">
        <ele>289.39999389648</ele>
        <time>2016-01-27T14:01:14Z</time>
      </trkpt>
      <trkpt lat="43.38833" lon="6.10395">
        <ele>288.79998779297</ele>
        <time>2016-01-27T14:01:16Z</time>
      </trkpt>
      <trkpt lat="43.38833" lon="6.10399">
        <ele>288.79998779297</ele>
        <time>2016-01-27T14:01:17Z</time>
      </trkpt>
      <trkpt lat="43.38832" lon="6.10404">
        <ele>288.79998779297</ele>
        <time>2016-01-27T14:01:18Z</time>
      </trkpt>
      <trkpt lat="43.38832" lon="6.10413">
        <ele>288.39999389648</ele>
        <time>2016-01-27T14:01:20Z</time>
      </trkpt>
      <trkpt lat="43.38831" lon="6.10417">
        <ele>287.79998779297</ele>
        <time>2016-01-27T14:01:21Z</time>
      </trkpt>
      <trkpt lat="43.38831" lon="6.10421">
        <ele>287.60000610352</ele>
        <time>2016-01-27T14:01:22Z</time>
      </trkpt>
      <trkpt lat="43.38829" lon="6.10431">
        <ele>287.60000610352</ele>
        <time>2016-01-27T14:01:24Z</time>
      </trkpt>
      <trkpt lat="43.38827" lon="6.1044">
        <ele>287.39999389648</ele>
        <time>2016-01-27T14:01:26Z</time>
      </trkpt>
      <trkpt lat="43.38827" lon="6.10445">
        <ele>287.20001220703</ele>
        <time>2016-01-27T14:01:27Z</time>
      </trkpt>
      <trkpt lat="43.38827" lon="6.10449">
        <ele>287</ele>
        <time>2016-01-27T14:01:28Z</time>
      </trkpt>
      <trkpt lat="43.38827" lon="6.10452">
        <ele>286.60000610352</ele>
        <time>2016-01-27T14:01:29Z</time>
      </trkpt>
      <trkpt lat="43.38826" lon="6.10455">
        <ele>286.20001220703</ele>
        <time>2016-01-27T14:01:30Z</time>
      </trkpt>
      <trkpt lat="43.38827" lon="6.10463">
        <ele>286</ele>
        <time>2016-01-27T14:01:32Z</time>
      </trkpt>
      <trkpt lat="43.38826" lon="6.10472">
        <ele>285.20001220703</ele>
        <time>2016-01-27T14:01:34Z</time>
      </trkpt>
      <trkpt lat="43.38825" lon="6.10482">
        <ele>285.20001220703</ele>
        <time>2016-01-27T14:01:36Z</time>
      </trkpt>
      <trkpt lat="43.38823" lon="6.10491">
        <ele>285</ele>
        <time>2016-01-27T14:01:38Z</time>
      </trkpt>
      <trkpt lat="43.38821" lon="6.105">
        <ele>285</ele>
        <time>2016-01-27T14:01:40Z</time>
      </trkpt>
      <trkpt lat="43.38818" lon="6.10509">
        <ele>284.39999389648</ele>
        <time>2016-01-27T14:01:42Z</time>
      </trkpt>
      <trkpt lat="43.38817" lon="6.10513">
        <ele>284.39999389648</ele>
        <time>2016-01-27T14:01:43Z</time>
      </trkpt>
      <trkpt lat="43.38816" lon="6.10518">
        <ele>284</ele>
        <time>2016-01-27T14:01:44Z</time>
      </trkpt>
      <trkpt lat="43.38814" lon="6.10523">
        <ele>283.79998779297</ele>
        <time>2016-01-27T14:01:46Z</time>
      </trkpt>
      <trkpt lat="43.38814" lon="6.10528">
        <ele>283.39999389648</ele>
        <time>2016-01-27T14:01:48Z</time>
      </trkpt>
      <trkpt lat="43.38814" lon="6.10535">
        <ele>283.60000610352</ele>
        <time>2016-01-27T14:01:50Z</time>
      </trkpt>
      <trkpt lat="43.38814" lon="6.10542">
        <ele>282.79998779297</ele>
        <time>2016-01-27T14:01:52Z</time>
      </trkpt>
      <trkpt lat="43.38812" lon="6.1055">
        <ele>282.79998779297</ele>
        <time>2016-01-27T14:01:54Z</time>
      </trkpt>
      <trkpt lat="43.38809" lon="6.10558">
        <ele>282.79998779297</ele>
        <time>2016-01-27T14:01:56Z</time>
      </trkpt>
      <trkpt lat="43.38808" lon="6.10563">
        <ele>283</ele>
        <time>2016-01-27T14:01:58Z</time>
      </trkpt>
      <trkpt lat="43.38807" lon="6.10571">
        <ele>282.79998779297</ele>
        <time>2016-01-27T14:02:00Z</time>
      </trkpt>
      <trkpt lat="43.38806" lon="6.10581">
        <ele>282.39999389648</ele>
        <time>2016-01-27T14:02:02Z</time>
      </trkpt>
      <trkpt lat="43.38805" lon="6.10592">
        <ele>282</ele>
        <time>2016-01-27T14:02:04Z</time>
      </trkpt>
      <trkpt lat="43.38803" lon="6.10602">
        <ele>281.79998779297</ele>
        <time>2016-01-27T14:02:06Z</time>
      </trkpt>
      <trkpt lat="43.388" lon="6.1061">
        <ele>281.20001220703</ele>
        <time>2016-01-27T14:02:08Z</time>
      </trkpt>
      <trkpt lat="43.38799" lon="6.10614">
        <ele>281</ele>
        <time>2016-01-27T14:02:09Z</time>
      </trkpt>
      <trkpt lat="43.38799" lon="6.10619">
        <ele>280.79998779297</ele>
        <time>2016-01-27T14:02:10Z</time>
      </trkpt>
      <trkpt lat="43.38798" lon="6.10623">
        <ele>280.79998779297</ele>
        <time>2016-01-27T14:02:11Z</time>
      </trkpt>
      <trkpt lat="43.38797" lon="6.10627">
        <ele>280.79998779297</ele>
        <time>2016-01-27T14:02:12Z</time>
      </trkpt>
      <trkpt lat="43.38796" lon="6.10634">
        <ele>280.20001220703</ele>
        <time>2016-01-27T14:02:14Z</time>
      </trkpt>
      <trkpt lat="43.38796" lon="6.10636">
        <ele>279.79998779297</ele>
        <time>2016-01-27T14:02:15Z</time>
      </trkpt>
      <trkpt lat="43.38796" lon="6.10638">
        <ele>279.60000610352</ele>
        <time>2016-01-27T14:02:16Z</time>
      </trkpt>
      <trkpt lat="43.38796" lon="6.10642">
        <ele>279.39999389648</ele>
        <time>2016-01-27T14:02:18Z</time>
      </trkpt>
      <trkpt lat="43.38794" lon="6.10646">
        <ele>279</ele>
        <time>2016-01-27T14:02:20Z</time>
      </trkpt>
      <trkpt lat="43.38793" lon="6.10652">
        <ele>278.60000610352</ele>
        <time>2016-01-27T14:02:22Z</time>
      </trkpt>
      <trkpt lat="43.38791" lon="6.10659">
        <ele>278.60000610352</ele>
        <time>2016-01-27T14:02:24Z</time>
      </trkpt>
      <trkpt lat="43.38788" lon="6.10665">
        <ele>278.39999389648</ele>
        <time>2016-01-27T14:02:26Z</time>
      </trkpt>
      <trkpt lat="43.38787" lon="6.10667">
        <ele>278.39999389648</ele>
        <time>2016-01-27T14:02:27Z</time>
      </trkpt>
      <trkpt lat="43.38787" lon="6.1067">
        <ele>278.60000610352</ele>
        <time>2016-01-27T14:02:28Z</time>
      </trkpt>
      <trkpt lat="43.38785" lon="6.10677">
        <ele>278.39999389648</ele>
        <time>2016-01-27T14:02:30Z</time>
      </trkpt>
      <trkpt lat="43.38783" lon="6.10685">
        <ele>278.39999389648</ele>
        <time>2016-01-27T14:02:32Z</time>
      </trkpt>
      <trkpt lat="43.38781" lon="6.10693">
        <ele>278.20001220703</ele>
        <time>2016-01-27T14:02:34Z</time>
      </trkpt>
      <trkpt lat="43.38779" lon="6.10701">
        <ele>278.20001220703</ele>
        <time>2016-01-27T14:02:36Z</time>
      </trkpt>
      <trkpt lat="43.38778" lon="6.10709">
        <ele>278</ele>
        <time>2016-01-27T14:02:38Z</time>
      </trkpt>
      <trkpt lat="43.38777" lon="6.10714">
        <ele>277.60000610352</ele>
        <time>2016-01-27T14:02:39Z</time>
      </trkpt>
      <trkpt lat="43.38776" lon="6.10718">
        <ele>277.39999389648</ele>
        <time>2016-01-27T14:02:40Z</time>
      </trkpt>
      <trkpt lat="43.38774" lon="6.10728">
        <ele>277.20001220703</ele>
        <time>2016-01-27T14:02:42Z</time>
      </trkpt>
      <trkpt lat="43.38773" lon="6.10732">
        <ele>277</ele>
        <time>2016-01-27T14:02:43Z</time>
      </trkpt>
      <trkpt lat="43.38773" lon="6.10736">
        <ele>276.79998779297</ele>
        <time>2016-01-27T14:02:44Z</time>
      </trkpt>
      <trkpt lat="43.38773" lon="6.10742">
        <ele>276.79998779297</ele>
        <time>2016-01-27T14:02:46Z</time>
      </trkpt>
      <trkpt lat="43.38773" lon="6.10748">
        <ele>276</ele>
        <time>2016-01-27T14:02:48Z</time>
      </trkpt>
      <trkpt lat="43.38771" lon="6.10751">
        <ele>276</ele>
        <time>2016-01-27T14:02:50Z</time>
      </trkpt>
      <trkpt lat="43.38771" lon="6.10753">
        <ele>275.79998779297</ele>
        <time>2016-01-27T14:02:52Z</time>
      </trkpt>
      <trkpt lat="43.3877" lon="6.10754">
        <ele>275.79998779297</ele>
        <time>2016-01-27T14:02:54Z</time>
      </trkpt>
      <trkpt lat="43.38769" lon="6.10755">
        <ele>276</ele>
        <time>2016-01-27T14:02:56Z</time>
      </trkpt>
      <trkpt lat="43.38768" lon="6.10755">
        <ele>276</ele>
        <time>2016-01-27T14:02:58Z</time>
      </trkpt>
      <trkpt lat="43.38766" lon="6.10756">
        <ele>276</ele>
        <time>2016-01-27T14:02:59Z</time>
      </trkpt>
      <trkpt lat="43.38764" lon="6.10757">
        <ele>276.20001220703</ele>
        <time>2016-01-27T14:03:00Z</time>
      </trkpt>
      <trkpt lat="43.38761" lon="6.1076">
        <ele>276.20001220703</ele>
        <time>2016-01-27T14:03:02Z</time>
      </trkpt>
      <trkpt lat="43.38757" lon="6.10761">
        <ele>277.20001220703</ele>
        <time>2016-01-27T14:03:04Z</time>
      </trkpt>
      <trkpt lat="43.38755" lon="6.10761">
        <ele>277.39999389648</ele>
        <time>2016-01-27T14:03:05Z</time>
      </trkpt>
      <trkpt lat="43.38754" lon="6.10761">
        <ele>277.39999389648</ele>
        <time>2016-01-27T14:03:06Z</time>
      </trkpt>
      <trkpt lat="43.3875" lon="6.10762">
        <ele>277.60000610352</ele>
        <time>2016-01-27T14:03:08Z</time>
      </trkpt>
      <trkpt lat="43.38747" lon="6.10763">
        <ele>277.60000610352</ele>
        <time>2016-01-27T14:03:10Z</time>
      </trkpt>
      <trkpt lat="43.38747" lon="6.10764">
        <ele>277.60000610352</ele>
        <time>2016-01-27T14:03:11Z</time>
      </trkpt>
      <trkpt lat="43.38745" lon="6.10766">
        <ele>277.79998779297</ele>
        <time>2016-01-27T14:03:12Z</time>
      </trkpt>
      <trkpt lat="43.38742" lon="6.10768">
        <ele>278.20001220703</ele>
        <time>2016-01-27T14:03:14Z</time>
      </trkpt>
      <trkpt lat="43.3874" lon="6.10769">
        <ele>278.39999389648</ele>
        <time>2016-01-27T14:03:16Z</time>
      </trkpt>
      <trkpt lat="43.38739" lon="6.10769">
        <ele>278.39999389648</ele>
        <time>2016-01-27T14:03:17Z</time>
      </trkpt>
      <trkpt lat="43.38737" lon="6.1077">
        <ele>278.39999389648</ele>
        <time>2016-01-27T14:03:18Z</time>
      </trkpt>
      <trkpt lat="43.38736" lon="6.10772">
        <ele>278.20001220703</ele>
        <time>2016-01-27T14:03:19Z</time>
      </trkpt>
      <trkpt lat="43.38736" lon="6.10773">
        <ele>278.20001220703</ele>
        <time>2016-01-27T14:03:20Z</time>
      </trkpt>
      <trkpt lat="43.38735" lon="6.10776">
        <ele>278.20001220703</ele>
        <time>2016-01-27T14:03:22Z</time>
      </trkpt>
      <trkpt lat="43.38734" lon="6.10777">
        <ele>278</ele>
        <time>2016-01-27T14:03:23Z</time>
      </trkpt>
      <trkpt lat="43.38733" lon="6.10778">
        <ele>278</ele>
        <time>2016-01-27T14:03:24Z</time>
      </trkpt>
      <trkpt lat="43.38733" lon="6.10781">
        <ele>277.79998779297</ele>
        <time>2016-01-27T14:03:26Z</time>
      </trkpt>
      <trkpt lat="43.38732" lon="6.10785">
        <ele>277.79998779297</ele>
        <time>2016-01-27T14:03:28Z</time>
      </trkpt>
      <trkpt lat="43.38733" lon="6.10787">
        <ele>277.79998779297</ele>
        <time>2016-01-27T14:03:30Z</time>
      </trkpt>
      <trkpt lat="43.38732" lon="6.10788">
        <ele>277.79998779297</ele>
        <time>2016-01-27T14:03:32Z</time>
      </trkpt>
      <trkpt lat="43.38732" lon="6.10789">
        <ele>277.60000610352</ele>
        <time>2016-01-27T14:03:34Z</time>
      </trkpt>
      <trkpt lat="43.38732" lon="6.10789">
        <ele>277.60000610352</ele>
        <time>2016-01-27T14:03:36Z</time>
      </trkpt>
      <trkpt lat="43.38732" lon="6.10789">
        <ele>277.39999389648</ele>
        <time>2016-01-27T14:03:37Z</time>
      </trkpt>
      <trkpt lat="43.38732" lon="6.10789">
        <ele>277.79998779297</ele>
        <time>2016-01-27T14:03:40Z</time>
      </trkpt>
      <trkpt lat="43.38732" lon="6.10789">
        <ele>277.79998779297</ele>
        <time>2016-01-27T14:03:42Z</time>
      </trkpt>
      <trkpt lat="43.38732" lon="6.10789">
        <ele>277.79998779297</ele>
        <time>2016-01-27T14:03:44Z</time>
      </trkpt>
      <trkpt lat="43.38732" lon="6.10789">
        <ele>277.79998779297</ele>
        <time>2016-01-27T14:03:46Z</time>
      </trkpt>
      <trkpt lat="43.38732" lon="6.10789">
        <ele>277.79998779297</ele>
        <time>2016-01-27T14:03:48Z</time>
      </trkpt>
      <trkpt lat="43.38732" lon="6.10789">
        <ele>277.79998779297</ele>
        <time>2016-01-27T14:03:50Z</time>
      </trkpt>
      <trkpt lat="43.38732" lon="6.10789">
        <ele>277.79998779297</ele>
        <time>2016-01-27T14:03:52Z</time>
      </trkpt>
      <trkpt lat="43.38731" lon="6.1079">
        <ele>277.79998779297</ele>
        <time>2016-01-27T14:03:53Z</time>
      </trkpt>
      <trkpt lat="43.38731" lon="6.10792">
        <ele>277.79998779297</ele>
        <time>2016-01-27T14:03:54Z</time>
      </trkpt>
      <trkpt lat="43.38729" lon="6.10796">
        <ele>277.79998779297</ele>
        <time>2016-01-27T14:03:56Z</time>
      </trkpt>
      <trkpt lat="43.38727" lon="6.10798">
        <ele>277.79998779297</ele>
        <time>2016-01-27T14:03:58Z</time>
      </trkpt>
      <trkpt lat="43.38725" lon="6.10798">
        <ele>278</ele>
        <time>2016-01-27T14:04:00Z</time>
      </trkpt>
      <trkpt lat="43.38725" lon="6.10798">
        <ele>278.20001220703</ele>
        <time>2016-01-27T14:04:01Z</time>
      </trkpt>
      <trkpt lat="43.38725" lon="6.10798">
        <ele>278.20001220703</ele>
        <time>2016-01-27T14:04:02Z</time>
      </trkpt>
      <trkpt lat="43.38724" lon="6.10798">
        <ele>278.20001220703</ele>
        <time>2016-01-27T14:04:04Z</time>
      </trkpt>
      <trkpt lat="43.38724" lon="6.10798">
        <ele>278</ele>
        <time>2016-01-27T14:04:06Z</time>
      </trkpt>
      <trkpt lat="43.38724" lon="6.10798">
        <ele>278</ele>
        <time>2016-01-27T14:04:08Z</time>
      </trkpt>
      <trkpt lat="43.38724" lon="6.10798">
        <ele>278.20001220703</ele>
        <time>2016-01-27T14:04:10Z</time>
      </trkpt>
      <trkpt lat="43.38724" lon="6.10798">
        <ele>278</ele>
        <time>2016-01-27T14:04:12Z</time>
      </trkpt>
      <trkpt lat="43.38724" lon="6.10798">
        <ele>278</ele>
        <time>2016-01-27T14:04:14Z</time>
      </trkpt>
      <trkpt lat="43.38724" lon="6.10798">
        <ele>277.79998779297</ele>
        <time>2016-01-27T14:04:16Z</time>
      </trkpt>
      <trkpt lat="43.38724" lon="6.10798">
        <ele>278</ele>
        <time>2016-01-27T14:04:18Z</time>
      </trkpt>
      <trkpt lat="43.38724" lon="6.10798">
        <ele>277.79998779297</ele>
        <time>2016-01-27T14:04:20Z</time>
      </trkpt>
      <trkpt lat="43.38724" lon="6.10798">
        <ele>278</ele>
        <time>2016-01-27T14:04:22Z</time>
      </trkpt>
      <trkpt lat="43.38723" lon="6.10798">
        <ele>278</ele>
        <time>2016-01-27T14:04:24Z</time>
      </trkpt>
      <trkpt lat="43.38723" lon="6.10797">
        <ele>278</ele>
        <time>2016-01-27T14:04:25Z</time>
      </trkpt>
      <trkpt lat="43.38721" lon="6.10798">
        <ele>278</ele>
        <time>2016-01-27T14:04:26Z</time>
      </trkpt>
      <trkpt lat="43.38719" lon="6.10798">
        <ele>278.20001220703</ele>
        <time>2016-01-27T14:04:28Z</time>
      </trkpt>
      <trkpt lat="43.38714" lon="6.10799">
        <ele>278.60000610352</ele>
        <time>2016-01-27T14:04:30Z</time>
      </trkpt>
      <trkpt lat="43.3871" lon="6.10803">
        <ele>278.79998779297</ele>
        <time>2016-01-27T14:04:32Z</time>
      </trkpt>
      <trkpt lat="43.38708" lon="6.10805">
        <ele>279.20001220703</ele>
        <time>2016-01-27T14:04:33Z</time>
      </trkpt>
      <trkpt lat="43.38705" lon="6.10807">
        <ele>279.39999389648</ele>
        <time>2016-01-27T14:04:34Z</time>
      </trkpt>
      <trkpt lat="43.38702" lon="6.10812">
        <ele>279.60000610352</ele>
        <time>2016-01-27T14:04:36Z</time>
      </trkpt>
      <trkpt lat="43.38699" lon="6.10817">
        <ele>279.20001220703</ele>
        <time>2016-01-27T14:04:38Z</time>
      </trkpt>
      <trkpt lat="43.38698" lon="6.10823">
        <ele>279.39999389648</ele>
        <time>2016-01-27T14:04:40Z</time>
      </trkpt>
      <trkpt lat="43.38696" lon="6.10829">
        <ele>280</ele>
        <time>2016-01-27T14:04:42Z</time>
      </trkpt>
      <trkpt lat="43.38694" lon="6.10834">
        <ele>279.60000610352</ele>
        <time>2016-01-27T14:04:44Z</time>
      </trkpt>
      <trkpt lat="43.38692" lon="6.10843">
        <ele>279.60000610352</ele>
        <time>2016-01-27T14:04:46Z</time>
      </trkpt>
      <trkpt lat="43.38691" lon="6.10853">
        <ele>279</ele>
        <time>2016-01-27T14:04:48Z</time>
      </trkpt>
      <trkpt lat="43.38689" lon="6.10863">
        <ele>279.20001220703</ele>
        <time>2016-01-27T14:04:50Z</time>
      </trkpt>
      <trkpt lat="43.38686" lon="6.10873">
        <ele>279</ele>
        <time>2016-01-27T14:04:52Z</time>
      </trkpt>
      <trkpt lat="43.38684" lon="6.10877">
        <ele>278.79998779297</ele>
        <time>2016-01-27T14:04:53Z</time>
      </trkpt>
      <trkpt lat="43.38683" lon="6.10881">
        <ele>279</ele>
        <time>2016-01-27T14:04:54Z</time>
      </trkpt>
      <trkpt lat="43.3868" lon="6.10892">
        <ele>278.60000610352</ele>
        <time>2016-01-27T14:04:56Z</time>
      </trkpt>
      <trkpt lat="43.38678" lon="6.10896">
        <ele>278.79998779297</ele>
        <time>2016-01-27T14:04:57Z</time>
      </trkpt>
      <trkpt lat="43.38676" lon="6.109">
        <ele>279</ele>
        <time>2016-01-27T14:04:58Z</time>
      </trkpt>
      <trkpt lat="43.38675" lon="6.1091">
        <ele>279.20001220703</ele>
        <time>2016-01-27T14:05:00Z</time>
      </trkpt>
      <trkpt lat="43.38672" lon="6.10919">
        <ele>279.39999389648</ele>
        <time>2016-01-27T14:05:02Z</time>
      </trkpt>
      <trkpt lat="43.3867" lon="6.10928">
        <ele>279.20001220703</ele>
        <time>2016-01-27T14:05:04Z</time>
      </trkpt>
      <trkpt lat="43.38668" lon="6.10936">
        <ele>279</ele>
        <time>2016-01-27T14:05:06Z</time>
      </trkpt>
      <trkpt lat="43.38667" lon="6.10946">
        <ele>279.39999389648</ele>
        <time>2016-01-27T14:05:08Z</time>
      </trkpt>
      <trkpt lat="43.38666" lon="6.1095">
        <ele>279.39999389648</ele>
        <time>2016-01-27T14:05:09Z</time>
      </trkpt>
      <trkpt lat="43.38665" lon="6.10954">
        <ele>279.39999389648</ele>
        <time>2016-01-27T14:05:10Z</time>
      </trkpt>
      <trkpt lat="43.38665" lon="6.10963">
        <ele>279.60000610352</ele>
        <time>2016-01-27T14:05:12Z</time>
      </trkpt>
      <trkpt lat="43.38664" lon="6.10972">
        <ele>279.39999389648</ele>
        <time>2016-01-27T14:05:14Z</time>
      </trkpt>
      <trkpt lat="43.38663" lon="6.1098">
        <ele>279.39999389648</ele>
        <time>2016-01-27T14:05:16Z</time>
      </trkpt>
      <trkpt lat="43.38662" lon="6.10987">
        <ele>279.79998779297</ele>
        <time>2016-01-27T14:05:18Z</time>
      </trkpt>
      <trkpt lat="43.38662" lon="6.10994">
        <ele>279.79998779297</ele>
        <time>2016-01-27T14:05:20Z</time>
      </trkpt>
      <trkpt lat="43.38659" lon="6.11">
        <ele>279.79998779297</ele>
        <time>2016-01-27T14:05:22Z</time>
      </trkpt>
      <trkpt lat="43.38658" lon="6.11">
        <ele>280</ele>
        <time>2016-01-27T14:05:23Z</time>
      </trkpt>
      <trkpt lat="43.38657" lon="6.11001">
        <ele>280</ele>
        <time>2016-01-27T14:05:24Z</time>
      </trkpt>
      <trkpt lat="43.38656" lon="6.11001">
        <ele>280</ele>
        <time>2016-01-27T14:05:25Z</time>
      </trkpt>
      <trkpt lat="43.38653" lon="6.11001">
        <ele>280</ele>
        <time>2016-01-27T14:05:26Z</time>
      </trkpt>
      <trkpt lat="43.38652" lon="6.11">
        <ele>280.20001220703</ele>
        <time>2016-01-27T14:05:27Z</time>
      </trkpt>
      <trkpt lat="43.38651" lon="6.10999">
        <ele>280.39999389648</ele>
        <time>2016-01-27T14:05:28Z</time>
      </trkpt>
      <trkpt lat="43.38649" lon="6.10999">
        <ele>280.60000610352</ele>
        <time>2016-01-27T14:05:29Z</time>
      </trkpt>
      <trkpt lat="43.38647" lon="6.10999">
        <ele>280.79998779297</ele>
        <time>2016-01-27T14:05:30Z</time>
      </trkpt>
      <trkpt lat="43.38644" lon="6.11001">
        <ele>281.20001220703</ele>
        <time>2016-01-27T14:05:32Z</time>
      </trkpt>
      <trkpt lat="43.38642" lon="6.11003">
        <ele>281.60000610352</ele>
        <time>2016-01-27T14:05:34Z</time>
      </trkpt>
      <trkpt lat="43.38641" lon="6.11003">
        <ele>281.60000610352</ele>
        <time>2016-01-27T14:05:35Z</time>
      </trkpt>
      <trkpt lat="43.3864" lon="6.11004">
        <ele>281.60000610352</ele>
        <time>2016-01-27T14:05:36Z</time>
      </trkpt>
      <trkpt lat="43.38639" lon="6.11005">
        <ele>281.79998779297</ele>
        <time>2016-01-27T14:05:37Z</time>
      </trkpt>
      <trkpt lat="43.38637" lon="6.11005">
        <ele>281.79998779297</ele>
        <time>2016-01-27T14:05:38Z</time>
      </trkpt>
      <trkpt lat="43.38635" lon="6.11003">
        <ele>281.79998779297</ele>
        <time>2016-01-27T14:05:40Z</time>
      </trkpt>
      <trkpt lat="43.38634" lon="6.11002">
        <ele>282</ele>
        <time>2016-01-27T14:05:41Z</time>
      </trkpt>
      <trkpt lat="43.38633" lon="6.11001">
        <ele>282.20001220703</ele>
        <time>2016-01-27T14:05:42Z</time>
      </trkpt>
      <trkpt lat="43.3863" lon="6.10999">
        <ele>282.79998779297</ele>
        <time>2016-01-27T14:05:44Z</time>
      </trkpt>
      <trkpt lat="43.38628" lon="6.10997">
        <ele>283</ele>
        <time>2016-01-27T14:05:46Z</time>
      </trkpt>
      <trkpt lat="43.38627" lon="6.10997">
        <ele>283.20001220703</ele>
        <time>2016-01-27T14:05:48Z</time>
      </trkpt>
      <trkpt lat="43.38626" lon="6.10997">
        <ele>283.20001220703</ele>
        <time>2016-01-27T14:05:49Z</time>
      </trkpt>
      <trkpt lat="43.38626" lon="6.10997">
        <ele>283.39999389648</ele>
        <time>2016-01-27T14:05:50Z</time>
      </trkpt>
      <trkpt lat="43.38624" lon="6.10997">
        <ele>283.39999389648</ele>
        <time>2016-01-27T14:05:52Z</time>
      </trkpt>
      <trkpt lat="43.38624" lon="6.10997">
        <ele>283.39999389648</ele>
        <time>2016-01-27T14:05:54Z</time>
      </trkpt>
      <trkpt lat="43.38623" lon="6.10997">
        <ele>283.39999389648</ele>
        <time>2016-01-27T14:05:56Z</time>
      </trkpt>
      <trkpt lat="43.38623" lon="6.10997">
        <ele>283.39999389648</ele>
        <time>2016-01-27T14:05:57Z</time>
      </trkpt>
      <trkpt lat="43.38623" lon="6.10997">
        <ele>283.39999389648</ele>
        <time>2016-01-27T14:05:58Z</time>
      </trkpt>
      <trkpt lat="43.38623" lon="6.10997">
        <ele>283.39999389648</ele>
        <time>2016-01-27T14:06:00Z</time>
      </trkpt>
      <trkpt lat="43.38623" lon="6.10997">
        <ele>283.20001220703</ele>
        <time>2016-01-27T14:06:02Z</time>
      </trkpt>
      <trkpt lat="43.38623" lon="6.10997">
        <ele>283.20001220703</ele>
        <time>2016-01-27T14:06:04Z</time>
      </trkpt>
      <trkpt lat="43.38623" lon="6.10997">
        <ele>283.39999389648</ele>
        <time>2016-01-27T14:06:06Z</time>
      </trkpt>
      <trkpt lat="43.38623" lon="6.10997">
        <ele>283.39999389648</ele>
        <time>2016-01-27T14:06:08Z</time>
      </trkpt>
      <trkpt lat="43.38623" lon="6.10997">
        <ele>283.39999389648</ele>
        <time>2016-01-27T14:06:10Z</time>
      </trkpt>
      <trkpt lat="43.38623" lon="6.10997">
        <ele>283.20001220703</ele>
        <time>2016-01-27T14:06:12Z</time>
      </trkpt>
      <trkpt lat="43.38623" lon="6.10997">
        <ele>283.39999389648</ele>
        <time>2016-01-27T14:06:14Z</time>
      </trkpt>
      <trkpt lat="43.38623" lon="6.10997">
        <ele>283.60000610352</ele>
        <time>2016-01-27T14:06:16Z</time>
      </trkpt>
      <trkpt lat="43.38623" lon="6.10997">
        <ele>283.60000610352</ele>
        <time>2016-01-27T14:06:18Z</time>
      </trkpt>
      <trkpt lat="43.38623" lon="6.10997">
        <ele>283.60000610352</ele>
        <time>2016-01-27T14:06:19Z</time>
      </trkpt>
      <trkpt lat="43.38623" lon="6.10997">
        <ele>283.39999389648</ele>
        <time>2016-01-27T14:06:20Z</time>
      </trkpt>
      <trkpt lat="43.38623" lon="6.10996">
        <ele>283.39999389648</ele>
        <time>2016-01-27T14:06:22Z</time>
      </trkpt>
      <trkpt lat="43.38622" lon="6.10994">
        <ele>283.60000610352</ele>
        <time>2016-01-27T14:06:24Z</time>
      </trkpt>
      <trkpt lat="43.38622" lon="6.10994">
        <ele>283.39999389648</ele>
        <time>2016-01-27T14:06:25Z</time>
      </trkpt>
      <trkpt lat="43.3862" lon="6.10994">
        <ele>283.39999389648</ele>
        <time>2016-01-27T14:06:26Z</time>
      </trkpt>
      <trkpt lat="43.38617" lon="6.10992">
        <ele>283.39999389648</ele>
        <time>2016-01-27T14:06:28Z</time>
      </trkpt>
      <trkpt lat="43.38613" lon="6.10989">
        <ele>283.20001220703</ele>
        <time>2016-01-27T14:06:30Z</time>
      </trkpt>
      <trkpt lat="43.38607" lon="6.10986">
        <ele>283.20001220703</ele>
        <time>2016-01-27T14:06:32Z</time>
      </trkpt>
      <trkpt lat="43.38601" lon="6.10987">
        <ele>283.20001220703</ele>
        <time>2016-01-27T14:06:34Z</time>
      </trkpt>
      <trkpt lat="43.38598" lon="6.10987">
        <ele>283</ele>
        <time>2016-01-27T14:06:35Z</time>
      </trkpt>
      <trkpt lat="43.38594" lon="6.10987">
        <ele>282.79998779297</ele>
        <time>2016-01-27T14:06:36Z</time>
      </trkpt>
      <trkpt lat="43.38586" lon="6.10987">
        <ele>282.60000610352</ele>
        <time>2016-01-27T14:06:38Z</time>
      </trkpt>
      <trkpt lat="43.38578" lon="6.10986">
        <ele>282.60000610352</ele>
        <time>2016-01-27T14:06:40Z</time>
      </trkpt>
      <trkpt lat="43.38573" lon="6.10986">
        <ele>282</ele>
        <time>2016-01-27T14:06:41Z</time>
      </trkpt>
      <trkpt lat="43.38568" lon="6.10986">
        <ele>281.79998779297</ele>
        <time>2016-01-27T14:06:42Z</time>
      </trkpt>
      <trkpt lat="43.38556" lon="6.10982">
        <ele>280.79998779297</ele>
        <time>2016-01-27T14:06:44Z</time>
      </trkpt>
      <trkpt lat="43.38551" lon="6.10979">
        <ele>280.79998779297</ele>
        <time>2016-01-27T14:06:45Z</time>
      </trkpt>
      <trkpt lat="43.38544" lon="6.10976">
        <ele>280.60000610352</ele>
        <time>2016-01-27T14:06:46Z</time>
      </trkpt>
      <trkpt lat="43.38533" lon="6.10971">
        <ele>280</ele>
        <time>2016-01-27T14:06:48Z</time>
      </trkpt>
      <trkpt lat="43.38526" lon="6.10968">
        <ele>279.60000610352</ele>
        <time>2016-01-27T14:06:49Z</time>
      </trkpt>
      <trkpt lat="43.38519" lon="6.10966">
        <ele>279.20001220703</ele>
        <time>2016-01-27T14:06:50Z</time>
      </trkpt>
      <trkpt lat="43.38512" lon="6.10964">
        <ele>278.39999389648</ele>
        <time>2016-01-27T14:06:51Z</time>
      </trkpt>
      <trkpt lat="43.38504" lon="6.10962">
        <ele>277.39999389648</ele>
        <time>2016-01-27T14:06:52Z</time>
      </trkpt>
      <trkpt lat="43.38498" lon="6.10959">
        <ele>277</ele>
        <time>2016-01-27T14:06:53Z</time>
      </trkpt>
      <trkpt lat="43.3849" lon="6.10958">
        <ele>276.39999389648</ele>
        <time>2016-01-27T14:06:54Z</time>
      </trkpt>
      <trkpt lat="43.38484" lon="6.10957">
        <ele>275.60000610352</ele>
        <time>2016-01-27T14:06:55Z</time>
      </trkpt>
      <trkpt lat="43.3848" lon="6.10957">
        <ele>274.79998779297</ele>
        <time>2016-01-27T14:06:56Z</time>
      </trkpt>
      <trkpt lat="43.38478" lon="6.10956">
        <ele>274.39999389648</ele>
        <time>2016-01-27T14:06:57Z</time>
      </trkpt>
      <trkpt lat="43.38476" lon="6.10955">
        <ele>274</ele>
        <time>2016-01-27T14:06:58Z</time>
      </trkpt>
      <trkpt lat="43.38474" lon="6.10955">
        <ele>274</ele>
        <time>2016-01-27T14:06:59Z</time>
      </trkpt>
      <trkpt lat="43.3847" lon="6.10955">
        <ele>273.79998779297</ele>
        <time>2016-01-27T14:07:00Z</time>
      </trkpt>
      <trkpt lat="43.38463" lon="6.10955">
        <ele>273.79998779297</ele>
        <time>2016-01-27T14:07:02Z</time>
      </trkpt>
      <trkpt lat="43.38454" lon="6.10954">
        <ele>273.79998779297</ele>
        <time>2016-01-27T14:07:04Z</time>
      </trkpt>
      <trkpt lat="43.38445" lon="6.10953">
        <ele>273.39999389648</ele>
        <time>2016-01-27T14:07:06Z</time>
      </trkpt>
      <trkpt lat="43.38441" lon="6.10952">
        <ele>273.39999389648</ele>
        <time>2016-01-27T14:07:07Z</time>
      </trkpt>
      <trkpt lat="43.38435" lon="6.1095">
        <ele>273.20001220703</ele>
        <time>2016-01-27T14:07:08Z</time>
      </trkpt>
      <trkpt lat="43.38424" lon="6.10949">
        <ele>273</ele>
        <time>2016-01-27T14:07:10Z</time>
      </trkpt>
      <trkpt lat="43.38414" lon="6.10946">
        <ele>273</ele>
        <time>2016-01-27T14:07:12Z</time>
      </trkpt>
      <trkpt lat="43.38402" lon="6.10943">
        <ele>272.79998779297</ele>
        <time>2016-01-27T14:07:14Z</time>
      </trkpt>
      <trkpt lat="43.38391" lon="6.1094">
        <ele>272</ele>
        <time>2016-01-27T14:07:16Z</time>
      </trkpt>
      <trkpt lat="43.38379" lon="6.10937">
        <ele>271.39999389648</ele>
        <time>2016-01-27T14:07:18Z</time>
      </trkpt>
      <trkpt lat="43.38367" lon="6.10933">
        <ele>271.60000610352</ele>
        <time>2016-01-27T14:07:20Z</time>
      </trkpt>
      <trkpt lat="43.38358" lon="6.10929">
        <ele>271.60000610352</ele>
        <time>2016-01-27T14:07:22Z</time>
      </trkpt>
      <trkpt lat="43.38352" lon="6.10927">
        <ele>271.60000610352</ele>
        <time>2016-01-27T14:07:23Z</time>
      </trkpt>
      <trkpt lat="43.38347" lon="6.10925">
        <ele>271.39999389648</ele>
        <time>2016-01-27T14:07:24Z</time>
      </trkpt>
      <trkpt lat="43.38337" lon="6.10922">
        <ele>271.39999389648</ele>
        <time>2016-01-27T14:07:26Z</time>
      </trkpt>
      <trkpt lat="43.38331" lon="6.1092">
        <ele>271</ele>
        <time>2016-01-27T14:07:27Z</time>
      </trkpt>
      <trkpt lat="43.38325" lon="6.10919">
        <ele>270.60000610352</ele>
        <time>2016-01-27T14:07:28Z</time>
      </trkpt>
      <trkpt lat="43.38313" lon="6.10914">
        <ele>270.79998779297</ele>
        <time>2016-01-27T14:07:30Z</time>
      </trkpt>
      <trkpt lat="43.383" lon="6.1091">
        <ele>270.79998779297</ele>
        <time>2016-01-27T14:07:32Z</time>
      </trkpt>
      <trkpt lat="43.38287" lon="6.10907">
        <ele>270.39999389648</ele>
        <time>2016-01-27T14:07:34Z</time>
      </trkpt>
      <trkpt lat="43.38281" lon="6.10906">
        <ele>270.39999389648</ele>
        <time>2016-01-27T14:07:35Z</time>
      </trkpt>
      <trkpt lat="43.38275" lon="6.10904">
        <ele>270.20001220703</ele>
        <time>2016-01-27T14:07:36Z</time>
      </trkpt>
      <trkpt lat="43.38263" lon="6.10902">
        <ele>270</ele>
        <time>2016-01-27T14:07:38Z</time>
      </trkpt>
      <trkpt lat="43.38252" lon="6.10898">
        <ele>270.20001220703</ele>
        <time>2016-01-27T14:07:40Z</time>
      </trkpt>
      <trkpt lat="43.38241" lon="6.10895">
        <ele>270.20001220703</ele>
        <time>2016-01-27T14:07:42Z</time>
      </trkpt>
      <trkpt lat="43.38236" lon="6.10894">
        <ele>270.20001220703</ele>
        <time>2016-01-27T14:07:43Z</time>
      </trkpt>
      <trkpt lat="43.38231" lon="6.10892">
        <ele>270.39999389648</ele>
        <time>2016-01-27T14:07:44Z</time>
      </trkpt>
      <trkpt lat="43.38221" lon="6.1089">
        <ele>270.20001220703</ele>
        <time>2016-01-27T14:07:46Z</time>
      </trkpt>
      <trkpt lat="43.38213" lon="6.10888">
        <ele>270.20001220703</ele>
        <time>2016-01-27T14:07:48Z</time>
      </trkpt>
      <trkpt lat="43.38209" lon="6.10887">
        <ele>270.20001220703</ele>
        <time>2016-01-27T14:07:49Z</time>
      </trkpt>
      <trkpt lat="43.38206" lon="6.10886">
        <ele>270</ele>
        <time>2016-01-27T14:07:50Z</time>
      </trkpt>
      <trkpt lat="43.38202" lon="6.10884">
        <ele>270</ele>
        <time>2016-01-27T14:07:52Z</time>
      </trkpt>
      <trkpt lat="43.38202" lon="6.10883">
        <ele>270</ele>
        <time>2016-01-27T14:07:53Z</time>
      </trkpt>
      <trkpt lat="43.382" lon="6.10883">
        <ele>270.20001220703</ele>
        <time>2016-01-27T14:07:54Z</time>
      </trkpt>
      <trkpt lat="43.38199" lon="6.10882">
        <ele>270.20001220703</ele>
        <time>2016-01-27T14:07:56Z</time>
      </trkpt>
      <trkpt lat="43.38199" lon="6.10883">
        <ele>270.20001220703</ele>
        <time>2016-01-27T14:07:58Z</time>
      </trkpt>
      <trkpt lat="43.38199" lon="6.10882">
        <ele>270.20001220703</ele>
        <time>2016-01-27T14:08:00Z</time>
      </trkpt>
      <trkpt lat="43.38199" lon="6.10882">
        <ele>270.39999389648</ele>
        <time>2016-01-27T14:08:02Z</time>
      </trkpt>
      <trkpt lat="43.38199" lon="6.10882">
        <ele>270.39999389648</ele>
        <time>2016-01-27T14:08:04Z</time>
      </trkpt>
      <trkpt lat="43.38199" lon="6.10882">
        <ele>270.39999389648</ele>
        <time>2016-01-27T14:08:06Z</time>
      </trkpt>
      <trkpt lat="43.38199" lon="6.10882">
        <ele>270.39999389648</ele>
        <time>2016-01-27T14:08:08Z</time>
      </trkpt>
      <trkpt lat="43.38199" lon="6.10882">
        <ele>270.39999389648</ele>
        <time>2016-01-27T14:08:10Z</time>
      </trkpt>
      <trkpt lat="43.38199" lon="6.10882">
        <ele>270.20001220703</ele>
        <time>2016-01-27T14:08:12Z</time>
      </trkpt>
      <trkpt lat="43.38199" lon="6.10882">
        <ele>270.39999389648</ele>
        <time>2016-01-27T14:08:14Z</time>
      </trkpt>
      <trkpt lat="43.38199" lon="6.10882">
        <ele>270.39999389648</ele>
        <time>2016-01-27T14:08:16Z</time>
      </trkpt>
      <trkpt lat="43.38199" lon="6.10882">
        <ele>270.39999389648</ele>
        <time>2016-01-27T14:08:18Z</time>
      </trkpt>
      <trkpt lat="43.38197" lon="6.10881">
        <ele>270.39999389648</ele>
        <time>2016-01-27T14:08:20Z</time>
      </trkpt>
      <trkpt lat="43.38195" lon="6.10879">
        <ele>270.20001220703</ele>
        <time>2016-01-27T14:08:22Z</time>
      </trkpt>
      <trkpt lat="43.38195" lon="6.10878">
        <ele>270.20001220703</ele>
        <time>2016-01-27T14:08:23Z</time>
      </trkpt>
      <trkpt lat="43.38194" lon="6.10877">
        <ele>270.20001220703</ele>
        <time>2016-01-27T14:08:24Z</time>
      </trkpt>
      <trkpt lat="43.38192" lon="6.10876">
        <ele>270.20001220703</ele>
        <time>2016-01-27T14:08:26Z</time>
      </trkpt>
      <trkpt lat="43.3819" lon="6.10876">
        <ele>270.60000610352</ele>
        <time>2016-01-27T14:08:28Z</time>
      </trkpt>
      <trkpt lat="43.38189" lon="6.10875">
        <ele>270.79998779297</ele>
        <time>2016-01-27T14:08:30Z</time>
      </trkpt>
      <trkpt lat="43.38186" lon="6.10875">
        <ele>271</ele>
        <time>2016-01-27T14:08:32Z</time>
      </trkpt>
      <trkpt lat="43.38183" lon="6.10875">
        <ele>271</ele>
        <time>2016-01-27T14:08:34Z</time>
      </trkpt>
      <trkpt lat="43.38178" lon="6.10874">
        <ele>271</ele>
        <time>2016-01-27T14:08:36Z</time>
      </trkpt>
      <trkpt lat="43.38174" lon="6.10874">
        <ele>271.39999389648</ele>
        <time>2016-01-27T14:08:38Z</time>
      </trkpt>
      <trkpt lat="43.38169" lon="6.10873">
        <ele>271.60000610352</ele>
        <time>2016-01-27T14:08:40Z</time>
      </trkpt>
      <trkpt lat="43.38164" lon="6.10872">
        <ele>271.60000610352</ele>
        <time>2016-01-27T14:08:42Z</time>
      </trkpt>
      <trkpt lat="43.3816" lon="6.10872">
        <ele>271.79998779297</ele>
        <time>2016-01-27T14:08:43Z</time>
      </trkpt>
      <trkpt lat="43.38157" lon="6.10872">
        <ele>272</ele>
        <time>2016-01-27T14:08:44Z</time>
      </trkpt>
      <trkpt lat="43.3815" lon="6.10872">
        <ele>272.20001220703</ele>
        <time>2016-01-27T14:08:46Z</time>
      </trkpt>
      <trkpt lat="43.38142" lon="6.10873">
        <ele>272</ele>
        <time>2016-01-27T14:08:48Z</time>
      </trkpt>
      <trkpt lat="43.38138" lon="6.10874">
        <ele>272</ele>
        <time>2016-01-27T14:08:49Z</time>
      </trkpt>
      <trkpt lat="43.38134" lon="6.10873">
        <ele>272</ele>
        <time>2016-01-27T14:08:50Z</time>
      </trkpt>
      <trkpt lat="43.38127" lon="6.10872">
        <ele>271.79998779297</ele>
        <time>2016-01-27T14:08:52Z</time>
      </trkpt>
      <trkpt lat="43.3812" lon="6.1087">
        <ele>272.20001220703</ele>
        <time>2016-01-27T14:08:54Z</time>
      </trkpt>
      <trkpt lat="43.38114" lon="6.10869">
        <ele>272.39999389648</ele>
        <time>2016-01-27T14:08:56Z</time>
      </trkpt>
      <trkpt lat="43.38107" lon="6.10869">
        <ele>272.60000610352</ele>
        <time>2016-01-27T14:08:58Z</time>
      </trkpt>
      <trkpt lat="43.38105" lon="6.1087">
        <ele>272.79998779297</ele>
        <time>2016-01-27T14:08:59Z</time>
      </trkpt>
      <trkpt lat="43.38101" lon="6.10873">
        <ele>272.79998779297</ele>
        <time>2016-01-27T14:09:00Z</time>
      </trkpt>
      <trkpt lat="43.38097" lon="6.10882">
        <ele>273</ele>
        <time>2016-01-27T14:09:02Z</time>
      </trkpt>
      <trkpt lat="43.38095" lon="6.10891">
        <ele>272.79998779297</ele>
        <time>2016-01-27T14:09:04Z</time>
      </trkpt>
      <trkpt lat="43.38091" lon="6.10901">
        <ele>273.20001220703</ele>
        <time>2016-01-27T14:09:06Z</time>
      </trkpt>
      <trkpt lat="43.38086" lon="6.10905">
        <ele>274</ele>
        <time>2016-01-27T14:09:08Z</time>
      </trkpt>
      <trkpt lat="43.38083" lon="6.10905">
        <ele>274</ele>
        <time>2016-01-27T14:09:09Z</time>
      </trkpt>
      <trkpt lat="43.38079" lon="6.10903">
        <ele>273.79998779297</ele>
        <time>2016-01-27T14:09:10Z</time>
      </trkpt>
      <trkpt lat="43.38071" lon="6.10898">
        <ele>273.39999389648</ele>
        <time>2016-01-27T14:09:12Z</time>
      </trkpt>
      <trkpt lat="43.38067" lon="6.10897">
        <ele>273.39999389648</ele>
        <time>2016-01-27T14:09:13Z</time>
      </trkpt>
      <trkpt lat="43.38063" lon="6.10895">
        <ele>273.39999389648</ele>
        <time>2016-01-27T14:09:14Z</time>
      </trkpt>
      <trkpt lat="43.38055" lon="6.10891">
        <ele>273.20001220703</ele>
        <time>2016-01-27T14:09:16Z</time>
      </trkpt>
      <trkpt lat="43.38047" lon="6.10888">
        <ele>272.79998779297</ele>
        <time>2016-01-27T14:09:18Z</time>
      </trkpt>
      <trkpt lat="43.38043" lon="6.10886">
        <ele>272.60000610352</ele>
        <time>2016-01-27T14:09:19Z</time>
      </trkpt>
      <trkpt lat="43.38041" lon="6.10885">
        <ele>272.79998779297</ele>
        <time>2016-01-27T14:09:20Z</time>
      </trkpt>
      <trkpt lat="43.38036" lon="6.10882">
        <ele>273</ele>
        <time>2016-01-27T14:09:22Z</time>
      </trkpt>
      <trkpt lat="43.3803" lon="6.10879">
        <ele>272.79998779297</ele>
        <time>2016-01-27T14:09:24Z</time>
      </trkpt>
      <trkpt lat="43.38024" lon="6.10877">
        <ele>272.79998779297</ele>
        <time>2016-01-27T14:09:26Z</time>
      </trkpt>
      <trkpt lat="43.38017" lon="6.10874">
        <ele>272.79998779297</ele>
        <time>2016-01-27T14:09:28Z</time>
      </trkpt>
      <trkpt lat="43.3801" lon="6.10874">
        <ele>272.60000610352</ele>
        <time>2016-01-27T14:09:30Z</time>
      </trkpt>
      <trkpt lat="43.38002" lon="6.10876">
        <ele>271.79998779297</ele>
        <time>2016-01-27T14:09:32Z</time>
      </trkpt>
      <trkpt lat="43.37991" lon="6.10876">
        <ele>271</ele>
        <time>2016-01-27T14:09:34Z</time>
      </trkpt>
      <trkpt lat="43.37984" lon="6.10873">
        <ele>270.79998779297</ele>
        <time>2016-01-27T14:09:35Z</time>
      </trkpt>
      <trkpt lat="43.37977" lon="6.10869">
        <ele>270.20001220703</ele>
        <time>2016-01-27T14:09:36Z</time>
      </trkpt>
      <trkpt lat="43.37971" lon="6.10864">
        <ele>269.20001220703</ele>
        <time>2016-01-27T14:09:37Z</time>
      </trkpt>
      <trkpt lat="43.37965" lon="6.10857">
        <ele>268.39999389648</ele>
        <time>2016-01-27T14:09:38Z</time>
      </trkpt>
      <trkpt lat="43.3796" lon="6.10849">
        <ele>268</ele>
        <time>2016-01-27T14:09:39Z</time>
      </trkpt>
      <trkpt lat="43.37955" lon="6.10842">
        <ele>267.60000610352</ele>
        <time>2016-01-27T14:09:40Z</time>
      </trkpt>
      <trkpt lat="43.37947" lon="6.10829">
        <ele>267.20001220703</ele>
        <time>2016-01-27T14:09:42Z</time>
      </trkpt>
      <trkpt lat="43.37944" lon="6.10823">
        <ele>266.79998779297</ele>
        <time>2016-01-27T14:09:43Z</time>
      </trkpt>
      <trkpt lat="43.37941" lon="6.10818">
        <ele>265.60000610352</ele>
        <time>2016-01-27T14:09:44Z</time>
      </trkpt>
      <trkpt lat="43.37936" lon="6.10807">
        <ele>265.60000610352</ele>
        <time>2016-01-27T14:09:46Z</time>
      </trkpt>
      <trkpt lat="43.3793" lon="6.10798">
        <ele>265.79998779297</ele>
        <time>2016-01-27T14:09:48Z</time>
      </trkpt>
      <trkpt lat="43.37926" lon="6.10788">
        <ele>265.20001220703</ele>
        <time>2016-01-27T14:09:50Z</time>
      </trkpt>
      <trkpt lat="43.37923" lon="6.10778">
        <ele>264.79998779297</ele>
        <time>2016-01-27T14:09:52Z</time>
      </trkpt>
      <trkpt lat="43.37922" lon="6.10775">
        <ele>264.60000610352</ele>
        <time>2016-01-27T14:09:53Z</time>
      </trkpt>
      <trkpt lat="43.37919" lon="6.10772">
        <ele>264.60000610352</ele>
        <time>2016-01-27T14:09:54Z</time>
      </trkpt>
      <trkpt lat="43.37917" lon="6.1077">
        <ele>264.20001220703</ele>
        <time>2016-01-27T14:09:55Z</time>
      </trkpt>
      <trkpt lat="43.37914" lon="6.10769">
        <ele>263.79998779297</ele>
        <time>2016-01-27T14:09:56Z</time>
      </trkpt>
      <trkpt lat="43.37911" lon="6.10769">
        <ele>263.39999389648</ele>
        <time>2016-01-27T14:09:57Z</time>
      </trkpt>
      <trkpt lat="43.37909" lon="6.10768">
        <ele>263.20001220703</ele>
        <time>2016-01-27T14:09:58Z</time>
      </trkpt>
      <trkpt lat="43.37906" lon="6.10768">
        <ele>263</ele>
        <time>2016-01-27T14:09:59Z</time>
      </trkpt>
      <trkpt lat="43.37903" lon="6.10767">
        <ele>262.79998779297</ele>
        <time>2016-01-27T14:10:00Z</time>
      </trkpt>
      <trkpt lat="43.37897" lon="6.10764">
        <ele>262.60000610352</ele>
        <time>2016-01-27T14:10:02Z</time>
      </trkpt>
      <trkpt lat="43.37892" lon="6.10764">
        <ele>262.79998779297</ele>
        <time>2016-01-27T14:10:04Z</time>
      </trkpt>
      <trkpt lat="43.37889" lon="6.10764">
        <ele>262.79998779297</ele>
        <time>2016-01-27T14:10:06Z</time>
      </trkpt>
      <trkpt lat="43.37885" lon="6.10765">
        <ele>262.79998779297</ele>
        <time>2016-01-27T14:10:08Z</time>
      </trkpt>
      <trkpt lat="43.37882" lon="6.10764">
        <ele>262.79998779297</ele>
        <time>2016-01-27T14:10:10Z</time>
      </trkpt>
      <trkpt lat="43.37879" lon="6.10764">
        <ele>262.79998779297</ele>
        <time>2016-01-27T14:10:12Z</time>
      </trkpt>
      <trkpt lat="43.37874" lon="6.10761">
        <ele>262.79998779297</ele>
        <time>2016-01-27T14:10:14Z</time>
      </trkpt>
      <trkpt lat="43.37868" lon="6.10759">
        <ele>263.20001220703</ele>
        <time>2016-01-27T14:10:16Z</time>
      </trkpt>
      <trkpt lat="43.3786" lon="6.10757">
        <ele>262.79998779297</ele>
        <time>2016-01-27T14:10:18Z</time>
      </trkpt>
      <trkpt lat="43.37856" lon="6.10756">
        <ele>262.79998779297</ele>
        <time>2016-01-27T14:10:19Z</time>
      </trkpt>
      <trkpt lat="43.37853" lon="6.10755">
        <ele>263</ele>
        <time>2016-01-27T14:10:20Z</time>
      </trkpt>
      <trkpt lat="43.37846" lon="6.10755">
        <ele>263</ele>
        <time>2016-01-27T14:10:22Z</time>
      </trkpt>
      <trkpt lat="43.37837" lon="6.10755">
        <ele>263</ele>
        <time>2016-01-27T14:10:24Z</time>
      </trkpt>
      <trkpt lat="43.37829" lon="6.10754">
        <ele>262.79998779297</ele>
        <time>2016-01-27T14:10:26Z</time>
      </trkpt>
      <trkpt lat="43.37822" lon="6.10753">
        <ele>263.20001220703</ele>
        <time>2016-01-27T14:10:28Z</time>
      </trkpt>
      <trkpt lat="43.37813" lon="6.10751">
        <ele>263.39999389648</ele>
        <time>2016-01-27T14:10:30Z</time>
      </trkpt>
      <trkpt lat="43.37806" lon="6.10748">
        <ele>263.20001220703</ele>
        <time>2016-01-27T14:10:32Z</time>
      </trkpt>
      <trkpt lat="43.37798" lon="6.10745">
        <ele>263.39999389648</ele>
        <time>2016-01-27T14:10:34Z</time>
      </trkpt>
      <trkpt lat="43.37791" lon="6.10744">
        <ele>263.39999389648</ele>
        <time>2016-01-27T14:10:36Z</time>
      </trkpt>
      <trkpt lat="43.37788" lon="6.10745">
        <ele>263.60000610352</ele>
        <time>2016-01-27T14:10:37Z</time>
      </trkpt>
      <trkpt lat="43.37785" lon="6.10746">
        <ele>263.60000610352</ele>
        <time>2016-01-27T14:10:38Z</time>
      </trkpt>
      <trkpt lat="43.37782" lon="6.10749">
        <ele>263.79998779297</ele>
        <time>2016-01-27T14:10:40Z</time>
      </trkpt>
      <trkpt lat="43.37779" lon="6.10751">
        <ele>263.79998779297</ele>
        <time>2016-01-27T14:10:42Z</time>
      </trkpt>
      <trkpt lat="43.37778" lon="6.10753">
        <ele>263.79998779297</ele>
        <time>2016-01-27T14:10:43Z</time>
      </trkpt>
      <trkpt lat="43.37777" lon="6.10755">
        <ele>263.60000610352</ele>
        <time>2016-01-27T14:10:44Z</time>
      </trkpt>
      <trkpt lat="43.37777" lon="6.10755">
        <ele>263.60000610352</ele>
        <time>2016-01-27T14:10:46Z</time>
      </trkpt>
      <trkpt lat="43.37777" lon="6.10755">
        <ele>263.79998779297</ele>
        <time>2016-01-27T14:10:47Z</time>
      </trkpt>
      <trkpt lat="43.37777" lon="6.10755">
        <ele>263.79998779297</ele>
        <time>2016-01-27T14:10:48Z</time>
      </trkpt>
      <trkpt lat="43.37777" lon="6.10755">
        <ele>263.79998779297</ele>
        <time>2016-01-27T14:10:50Z</time>
      </trkpt>
      <trkpt lat="43.37777" lon="6.10755">
        <ele>263.60000610352</ele>
        <time>2016-01-27T14:10:52Z</time>
      </trkpt>
      <trkpt lat="43.37777" lon="6.10755">
        <ele>263.39999389648</ele>
        <time>2016-01-27T14:10:54Z</time>
      </trkpt>
      <trkpt lat="43.37777" lon="6.10755">
        <ele>263.79998779297</ele>
        <time>2016-01-27T14:10:56Z</time>
      </trkpt>
      <trkpt lat="43.37777" lon="6.10755">
        <ele>263.79998779297</ele>
        <time>2016-01-27T14:10:58Z</time>
      </trkpt>
      <trkpt lat="43.37777" lon="6.10755">
        <ele>263.79998779297</ele>
        <time>2016-01-27T14:11:00Z</time>
      </trkpt>
      <trkpt lat="43.37775" lon="6.10759">
        <ele>263.79998779297</ele>
        <time>2016-01-27T14:11:02Z</time>
      </trkpt>
      <trkpt lat="43.37773" lon="6.10764">
        <ele>263.60000610352</ele>
        <time>2016-01-27T14:11:04Z</time>
      </trkpt>
      <trkpt lat="43.37769" lon="6.1077">
        <ele>264</ele>
        <time>2016-01-27T14:11:06Z</time>
      </trkpt>
      <trkpt lat="43.37766" lon="6.10778">
        <ele>264.20001220703</ele>
        <time>2016-01-27T14:11:08Z</time>
      </trkpt>
      <trkpt lat="43.37764" lon="6.10786">
        <ele>263.60000610352</ele>
        <time>2016-01-27T14:11:10Z</time>
      </trkpt>
      <trkpt lat="43.37763" lon="6.10795">
        <ele>264</ele>
        <time>2016-01-27T14:11:12Z</time>
      </trkpt>
      <trkpt lat="43.37763" lon="6.10802">
        <ele>264</ele>
        <time>2016-01-27T14:11:14Z</time>
      </trkpt>
      <trkpt lat="43.37764" lon="6.10807">
        <ele>264.39999389648</ele>
        <time>2016-01-27T14:11:16Z</time>
      </trkpt>
      <trkpt lat="43.37765" lon="6.10813">
        <ele>264.20001220703</ele>
        <time>2016-01-27T14:11:18Z</time>
      </trkpt>
      <trkpt lat="43.37765" lon="6.10822">
        <ele>264.60000610352</ele>
        <time>2016-01-27T14:11:20Z</time>
      </trkpt>
      <trkpt lat="43.37765" lon="6.10832">
        <ele>264.20001220703</ele>
        <time>2016-01-27T14:11:22Z</time>
      </trkpt>
      <trkpt lat="43.37764" lon="6.10842">
        <ele>264.39999389648</ele>
        <time>2016-01-27T14:11:24Z</time>
      </trkpt>
      <trkpt lat="43.37762" lon="6.1085">
        <ele>265</ele>
        <time>2016-01-27T14:11:26Z</time>
      </trkpt>
      <trkpt lat="43.37761" lon="6.10856">
        <ele>265.79998779297</ele>
        <time>2016-01-27T14:11:28Z</time>
      </trkpt>
      <trkpt lat="43.3776" lon="6.10857">
        <ele>266</ele>
        <time>2016-01-27T14:11:29Z</time>
      </trkpt>
      <trkpt lat="43.37759" lon="6.10858">
        <ele>266.20001220703</ele>
        <time>2016-01-27T14:11:30Z</time>
      </trkpt>
      <trkpt lat="43.37759" lon="6.10859">
        <ele>266.39999389648</ele>
        <time>2016-01-27T14:11:31Z</time>
      </trkpt>
      <trkpt lat="43.37759" lon="6.10859">
        <ele>266.39999389648</ele>
        <time>2016-01-27T14:11:32Z</time>
      </trkpt>
      <trkpt lat="43.37759" lon="6.10859">
        <ele>266.20001220703</ele>
        <time>2016-01-27T14:11:34Z</time>
      </trkpt>
      <trkpt lat="43.37759" lon="6.10859">
        <ele>266.20001220703</ele>
        <time>2016-01-27T14:11:36Z</time>
      </trkpt>
      <trkpt lat="43.37759" lon="6.10859">
        <ele>266.20001220703</ele>
        <time>2016-01-27T14:11:38Z</time>
      </trkpt>
      <trkpt lat="43.37759" lon="6.10859">
        <ele>266.20001220703</ele>
        <time>2016-01-27T14:11:39Z</time>
      </trkpt>
      <trkpt lat="43.37759" lon="6.10859">
        <ele>266.39999389648</ele>
        <time>2016-01-27T14:11:40Z</time>
      </trkpt>
      <trkpt lat="43.37759" lon="6.10859">
        <ele>266.20001220703</ele>
        <time>2016-01-27T14:11:42Z</time>
      </trkpt>
      <trkpt lat="43.37758" lon="6.1086">
        <ele>266.39999389648</ele>
        <time>2016-01-27T14:11:44Z</time>
      </trkpt>
      <trkpt lat="43.37759" lon="6.1086">
        <ele>266.39999389648</ele>
        <time>2016-01-27T14:11:46Z</time>
      </trkpt>
      <trkpt lat="43.37759" lon="6.1086">
        <ele>266.39999389648</ele>
        <time>2016-01-27T14:11:47Z</time>
      </trkpt>
      <trkpt lat="43.37759" lon="6.1086">
        <ele>266.20001220703</ele>
        <time>2016-01-27T14:11:48Z</time>
      </trkpt>
      <trkpt lat="43.37759" lon="6.10861">
        <ele>266.20001220703</ele>
        <time>2016-01-27T14:11:50Z</time>
      </trkpt>
      <trkpt lat="43.37757" lon="6.10864">
        <ele>266.20001220703</ele>
        <time>2016-01-27T14:11:52Z</time>
      </trkpt>
      <trkpt lat="43.37756" lon="6.10866">
        <ele>266.39999389648</ele>
        <time>2016-01-27T14:11:53Z</time>
      </trkpt>
      <trkpt lat="43.37755" lon="6.10868">
        <ele>266.39999389648</ele>
        <time>2016-01-27T14:11:54Z</time>
      </trkpt>
      <trkpt lat="43.37753" lon="6.10873">
        <ele>266.79998779297</ele>
        <time>2016-01-27T14:11:56Z</time>
      </trkpt>
      <trkpt lat="43.3775" lon="6.10877">
        <ele>267</ele>
        <time>2016-01-27T14:11:58Z</time>
      </trkpt>
      <trkpt lat="43.37748" lon="6.1088">
        <ele>267.39999389648</ele>
        <time>2016-01-27T14:12:00Z</time>
      </trkpt>
      <trkpt lat="43.37745" lon="6.10883">
        <ele>267.79998779297</ele>
        <time>2016-01-27T14:12:02Z</time>
      </trkpt>
      <trkpt lat="43.37743" lon="6.10887">
        <ele>268.39999389648</ele>
        <time>2016-01-27T14:12:04Z</time>
      </trkpt>
      <trkpt lat="43.3774" lon="6.1089">
        <ele>268.79998779297</ele>
        <time>2016-01-27T14:12:06Z</time>
      </trkpt>
      <trkpt lat="43.37739" lon="6.10892">
        <ele>268.79998779297</ele>
        <time>2016-01-27T14:12:07Z</time>
      </trkpt>
      <trkpt lat="43.37737" lon="6.10893">
        <ele>269</ele>
        <time>2016-01-27T14:12:08Z</time>
      </trkpt>
      <trkpt lat="43.37735" lon="6.10896">
        <ele>269</ele>
        <time>2016-01-27T14:12:10Z</time>
      </trkpt>
      <trkpt lat="43.37733" lon="6.10897">
        <ele>269.20001220703</ele>
        <time>2016-01-27T14:12:11Z</time>
      </trkpt>
      <trkpt lat="43.37732" lon="6.10898">
        <ele>269.60000610352</ele>
        <time>2016-01-27T14:12:12Z</time>
      </trkpt>
      <trkpt lat="43.37729" lon="6.109">
        <ele>270</ele>
        <time>2016-01-27T14:12:14Z</time>
      </trkpt>
      <trkpt lat="43.37727" lon="6.10901">
        <ele>269.79998779297</ele>
        <time>2016-01-27T14:12:16Z</time>
      </trkpt>
      <trkpt lat="43.37725" lon="6.10905">
        <ele>270</ele>
        <time>2016-01-27T14:12:18Z</time>
      </trkpt>
      <trkpt lat="43.37722" lon="6.10909">
        <ele>270.39999389648</ele>
        <time>2016-01-27T14:12:20Z</time>
      </trkpt>
      <trkpt lat="43.37719" lon="6.10914">
        <ele>270.60000610352</ele>
        <time>2016-01-27T14:12:22Z</time>
      </trkpt>
      <trkpt lat="43.37717" lon="6.10915">
        <ele>270.79998779297</ele>
        <time>2016-01-27T14:12:23Z</time>
      </trkpt>
      <trkpt lat="43.37716" lon="6.10916">
        <ele>271</ele>
        <time>2016-01-27T14:12:24Z</time>
      </trkpt>
      <trkpt lat="43.37714" lon="6.1092">
        <ele>271</ele>
        <time>2016-01-27T14:12:26Z</time>
      </trkpt>
      <trkpt lat="43.37711" lon="6.10923">
        <ele>271</ele>
        <time>2016-01-27T14:12:28Z</time>
      </trkpt>
      <trkpt lat="43.37708" lon="6.10927">
        <ele>271.39999389648</ele>
        <time>2016-01-27T14:12:30Z</time>
      </trkpt>
      <trkpt lat="43.37707" lon="6.10928">
        <ele>271.79998779297</ele>
        <time>2016-01-27T14:12:31Z</time>
      </trkpt>
      <trkpt lat="43.37706" lon="6.10931">
        <ele>272</ele>
        <time>2016-01-27T14:12:32Z</time>
      </trkpt>
      <trkpt lat="43.37704" lon="6.10933">
        <ele>272.20001220703</ele>
        <time>2016-01-27T14:12:33Z</time>
      </trkpt>
      <trkpt lat="43.37703" lon="6.10934">
        <ele>272.20001220703</ele>
        <time>2016-01-27T14:12:34Z</time>
      </trkpt>
      <trkpt lat="43.37702" lon="6.10937">
        <ele>272.20001220703</ele>
        <time>2016-01-27T14:12:35Z</time>
      </trkpt>
      <trkpt lat="43.37701" lon="6.10939">
        <ele>272.20001220703</ele>
        <time>2016-01-27T14:12:36Z</time>
      </trkpt>
      <trkpt lat="43.377" lon="6.10942">
        <ele>272.39999389648</ele>
        <time>2016-01-27T14:12:37Z</time>
      </trkpt>
      <trkpt lat="43.37699" lon="6.10944">
        <ele>272.39999389648</ele>
        <time>2016-01-27T14:12:38Z</time>
      </trkpt>
      <trkpt lat="43.37698" lon="6.10947">
        <ele>272.60000610352</ele>
        <time>2016-01-27T14:12:39Z</time>
      </trkpt>
      <trkpt lat="43.37696" lon="6.10949">
        <ele>272.79998779297</ele>
        <time>2016-01-27T14:12:40Z</time>
      </trkpt>
      <trkpt lat="43.37695" lon="6.10951">
        <ele>273</ele>
        <time>2016-01-27T14:12:41Z</time>
      </trkpt>
      <trkpt lat="43.37694" lon="6.10952">
        <ele>273.20001220703</ele>
        <time>2016-01-27T14:12:42Z</time>
      </trkpt>
      <trkpt lat="43.37691" lon="6.10954">
        <ele>273.39999389648</ele>
        <time>2016-01-27T14:12:44Z</time>
      </trkpt>
      <trkpt lat="43.3769" lon="6.10957">
        <ele>273.79998779297</ele>
        <time>2016-01-27T14:12:46Z</time>
      </trkpt>
      <trkpt lat="43.37687" lon="6.1096">
        <ele>274</ele>
        <time>2016-01-27T14:12:48Z</time>
      </trkpt>
      <trkpt lat="43.37685" lon="6.10963">
        <ele>274.20001220703</ele>
        <time>2016-01-27T14:12:50Z</time>
      </trkpt>
      <trkpt lat="43.37684" lon="6.10964">
        <ele>274.39999389648</ele>
        <time>2016-01-27T14:12:51Z</time>
      </trkpt>
      <trkpt lat="43.37683" lon="6.10965">
        <ele>274.79998779297</ele>
        <time>2016-01-27T14:12:52Z</time>
      </trkpt>
      <trkpt lat="43.37681" lon="6.10968">
        <ele>275.20001220703</ele>
        <time>2016-01-27T14:12:54Z</time>
      </trkpt>
      <trkpt lat="43.37679" lon="6.10971">
        <ele>275.60000610352</ele>
        <time>2016-01-27T14:12:56Z</time>
      </trkpt>
      <trkpt lat="43.37677" lon="6.10972">
        <ele>275.79998779297</ele>
        <time>2016-01-27T14:12:57Z</time>
      </trkpt>
      <trkpt lat="43.37677" lon="6.10973">
        <ele>276.20001220703</ele>
        <time>2016-01-27T14:12:58Z</time>
      </trkpt>
      <trkpt lat="43.37675" lon="6.10975">
        <ele>276.20001220703</ele>
        <time>2016-01-27T14:13:00Z</time>
      </trkpt>
      <trkpt lat="43.37674" lon="6.10976">
        <ele>276.60000610352</ele>
        <time>2016-01-27T14:13:01Z</time>
      </trkpt>
      <trkpt lat="43.37673" lon="6.10978">
        <ele>276.79998779297</ele>
        <time>2016-01-27T14:13:02Z</time>
      </trkpt>
      <trkpt lat="43.37671" lon="6.10981">
        <ele>276.79998779297</ele>
        <time>2016-01-27T14:13:04Z</time>
      </trkpt>
      <trkpt lat="43.37669" lon="6.10983">
        <ele>277.20001220703</ele>
        <time>2016-01-27T14:13:06Z</time>
      </trkpt>
      <trkpt lat="43.37667" lon="6.10985">
        <ele>277.60000610352</ele>
        <time>2016-01-27T14:13:08Z</time>
      </trkpt>
      <trkpt lat="43.37666" lon="6.10988">
        <ele>277.79998779297</ele>
        <time>2016-01-27T14:13:10Z</time>
      </trkpt>
      <trkpt lat="43.37665" lon="6.10991">
        <ele>277.79998779297</ele>
        <time>2016-01-27T14:13:11Z</time>
      </trkpt>
      <trkpt lat="43.37664" lon="6.10993">
        <ele>278</ele>
        <time>2016-01-27T14:13:12Z</time>
      </trkpt>
      <trkpt lat="43.37663" lon="6.10997">
        <ele>278.20001220703</ele>
        <time>2016-01-27T14:13:14Z</time>
      </trkpt>
      <trkpt lat="43.37661" lon="6.11">
        <ele>278.39999389648</ele>
        <time>2016-01-27T14:13:16Z</time>
      </trkpt>
      <trkpt lat="43.37659" lon="6.11004">
        <ele>278.60000610352</ele>
        <time>2016-01-27T14:13:18Z</time>
      </trkpt>
      <trkpt lat="43.37658" lon="6.11005">
        <ele>278.79998779297</ele>
        <time>2016-01-27T14:13:19Z</time>
      </trkpt>
      <trkpt lat="43.37657" lon="6.11007">
        <ele>279</ele>
        <time>2016-01-27T14:13:20Z</time>
      </trkpt>
      <trkpt lat="43.37655" lon="6.1101">
        <ele>279.39999389648</ele>
        <time>2016-01-27T14:13:22Z</time>
      </trkpt>
      <trkpt lat="43.37653" lon="6.11014">
        <ele>279.60000610352</ele>
        <time>2016-01-27T14:13:24Z</time>
      </trkpt>
      <trkpt lat="43.37651" lon="6.11017">
        <ele>279.60000610352</ele>
        <time>2016-01-27T14:13:26Z</time>
      </trkpt>
      <trkpt lat="43.3765" lon="6.1102">
        <ele>279.79998779297</ele>
        <time>2016-01-27T14:13:28Z</time>
      </trkpt>
      <trkpt lat="43.37649" lon="6.11022">
        <ele>280</ele>
        <time>2016-01-27T14:13:29Z</time>
      </trkpt>
      <trkpt lat="43.37649" lon="6.11024">
        <ele>280</ele>
        <time>2016-01-27T14:13:30Z</time>
      </trkpt>
      <trkpt lat="43.37648" lon="6.11027">
        <ele>280.20001220703</ele>
        <time>2016-01-27T14:13:32Z</time>
      </trkpt>
      <trkpt lat="43.37646" lon="6.11031">
        <ele>280.20001220703</ele>
        <time>2016-01-27T14:13:34Z</time>
      </trkpt>
      <trkpt lat="43.37645" lon="6.11033">
        <ele>280.60000610352</ele>
        <time>2016-01-27T14:13:35Z</time>
      </trkpt>
      <trkpt lat="43.37645" lon="6.11034">
        <ele>280.79998779297</ele>
        <time>2016-01-27T14:13:36Z</time>
      </trkpt>
      <trkpt lat="43.37643" lon="6.11035">
        <ele>281.20001220703</ele>
        <time>2016-01-27T14:13:37Z</time>
      </trkpt>
      <trkpt lat="43.37643" lon="6.11036">
        <ele>281.39999389648</ele>
        <time>2016-01-27T14:13:38Z</time>
      </trkpt>
      <trkpt lat="43.37641" lon="6.11039">
        <ele>281.79998779297</ele>
        <time>2016-01-27T14:13:40Z</time>
      </trkpt>
      <trkpt lat="43.3764" lon="6.1104">
        <ele>282</ele>
        <time>2016-01-27T14:13:41Z</time>
      </trkpt>
      <trkpt lat="43.37639" lon="6.11041">
        <ele>282.20001220703</ele>
        <time>2016-01-27T14:13:42Z</time>
      </trkpt>
      <trkpt lat="43.37638" lon="6.11042">
        <ele>282.20001220703</ele>
        <time>2016-01-27T14:13:43Z</time>
      </trkpt>
      <trkpt lat="43.37637" lon="6.11043">
        <ele>282.60000610352</ele>
        <time>2016-01-27T14:13:44Z</time>
      </trkpt>
      <trkpt lat="43.37636" lon="6.11047">
        <ele>282.79998779297</ele>
        <time>2016-01-27T14:13:46Z</time>
      </trkpt>
      <trkpt lat="43.37635" lon="6.1105">
        <ele>282.79998779297</ele>
        <time>2016-01-27T14:13:48Z</time>
      </trkpt>
      <trkpt lat="43.37634" lon="6.11052">
        <ele>283.20001220703</ele>
        <time>2016-01-27T14:13:49Z</time>
      </trkpt>
      <trkpt lat="43.37633" lon="6.11053">
        <ele>283.20001220703</ele>
        <time>2016-01-27T14:13:50Z</time>
      </trkpt>
      <trkpt lat="43.37632" lon="6.11056">
        <ele>283.39999389648</ele>
        <time>2016-01-27T14:13:51Z</time>
      </trkpt>
      <trkpt lat="43.37632" lon="6.11058">
        <ele>283.60000610352</ele>
        <time>2016-01-27T14:13:52Z</time>
      </trkpt>
      <trkpt lat="43.3763" lon="6.11061">
        <ele>284</ele>
        <time>2016-01-27T14:13:54Z</time>
      </trkpt>
      <trkpt lat="43.3763" lon="6.11063">
        <ele>284</ele>
        <time>2016-01-27T14:13:55Z</time>
      </trkpt>
      <trkpt lat="43.3763" lon="6.11064">
        <ele>284.20001220703</ele>
        <time>2016-01-27T14:13:56Z</time>
      </trkpt>
      <trkpt lat="43.37629" lon="6.11067">
        <ele>284.20001220703</ele>
        <time>2016-01-27T14:13:58Z</time>
      </trkpt>
      <trkpt lat="43.37627" lon="6.11069">
        <ele>284.39999389648</ele>
        <time>2016-01-27T14:14:00Z</time>
      </trkpt>
      <trkpt lat="43.37626" lon="6.11072">
        <ele>284.60000610352</ele>
        <time>2016-01-27T14:14:02Z</time>
      </trkpt>
      <trkpt lat="43.37626" lon="6.11074">
        <ele>284.60000610352</ele>
        <time>2016-01-27T14:14:03Z</time>
      </trkpt>
      <trkpt lat="43.37625" lon="6.11076">
        <ele>284.79998779297</ele>
        <time>2016-01-27T14:14:04Z</time>
      </trkpt>
      <trkpt lat="43.37623" lon="6.11078">
        <ele>285.20001220703</ele>
        <time>2016-01-27T14:14:06Z</time>
      </trkpt>
      <trkpt lat="43.37623" lon="6.11078">
        <ele>285.20001220703</ele>
        <time>2016-01-27T14:14:07Z</time>
      </trkpt>
      <trkpt lat="43.37623" lon="6.11079">
        <ele>285.20001220703</ele>
        <time>2016-01-27T14:14:08Z</time>
      </trkpt>
      <trkpt lat="43.37623" lon="6.11079">
        <ele>285.20001220703</ele>
        <time>2016-01-27T14:14:10Z</time>
      </trkpt>
      <trkpt lat="43.37623" lon="6.1108">
        <ele>285.39999389648</ele>
        <time>2016-01-27T14:14:12Z</time>
      </trkpt>
      <trkpt lat="43.37622" lon="6.11081">
        <ele>285.39999389648</ele>
        <time>2016-01-27T14:14:14Z</time>
      </trkpt>
      <trkpt lat="43.37622" lon="6.11081">
        <ele>285.60000610352</ele>
        <time>2016-01-27T14:14:16Z</time>
      </trkpt>
      <trkpt lat="43.37622" lon="6.11082">
        <ele>285.79998779297</ele>
        <time>2016-01-27T14:14:17Z</time>
      </trkpt>
      <trkpt lat="43.37622" lon="6.11083">
        <ele>286</ele>
        <time>2016-01-27T14:14:18Z</time>
      </trkpt>
      <trkpt lat="43.37622" lon="6.11083">
        <ele>286</ele>
        <time>2016-01-27T14:14:20Z</time>
      </trkpt>
      <trkpt lat="43.37622" lon="6.11085">
        <ele>285.79998779297</ele>
        <time>2016-01-27T14:14:22Z</time>
      </trkpt>
      <trkpt lat="43.37621" lon="6.11087">
        <ele>286.20001220703</ele>
        <time>2016-01-27T14:14:24Z</time>
      </trkpt>
      <trkpt lat="43.37621" lon="6.11087">
        <ele>286.20001220703</ele>
        <time>2016-01-27T14:14:25Z</time>
      </trkpt>
      <trkpt lat="43.37621" lon="6.11088">
        <ele>286.20001220703</ele>
        <time>2016-01-27T14:14:26Z</time>
      </trkpt>
      <trkpt lat="43.37621" lon="6.11088">
        <ele>286.39999389648</ele>
        <time>2016-01-27T14:14:28Z</time>
      </trkpt>
      <trkpt lat="43.3762" lon="6.11089">
        <ele>286.20001220703</ele>
        <time>2016-01-27T14:14:30Z</time>
      </trkpt>
      <trkpt lat="43.3762" lon="6.11089">
        <ele>286.39999389648</ele>
        <time>2016-01-27T14:14:32Z</time>
      </trkpt>
      <trkpt lat="43.3762" lon="6.11089">
        <ele>286.39999389648</ele>
        <time>2016-01-27T14:14:33Z</time>
      </trkpt>
      <trkpt lat="43.3762" lon="6.11089">
        <ele>286.39999389648</ele>
        <time>2016-01-27T14:14:34Z</time>
      </trkpt>
      <trkpt lat="43.37619" lon="6.11089">
        <ele>286.39999389648</ele>
        <time>2016-01-27T14:14:36Z</time>
      </trkpt>
      <trkpt lat="43.37619" lon="6.1109">
        <ele>286.39999389648</ele>
        <time>2016-01-27T14:14:38Z</time>
      </trkpt>
      <trkpt lat="43.37619" lon="6.1109">
        <ele>286.39999389648</ele>
        <time>2016-01-27T14:14:40Z</time>
      </trkpt>
      <trkpt lat="43.37619" lon="6.1109">
        <ele>286.39999389648</ele>
        <time>2016-01-27T14:14:42Z</time>
      </trkpt>
      <trkpt lat="43.37619" lon="6.1109">
        <ele>286.60000610352</ele>
        <time>2016-01-27T14:14:44Z</time>
      </trkpt>
      <trkpt lat="43.37619" lon="6.1109">
        <ele>286.39999389648</ele>
        <time>2016-01-27T14:14:46Z</time>
      </trkpt>
      <trkpt lat="43.37617" lon="6.11091">
        <ele>286.60000610352</ele>
        <time>2016-01-27T14:14:48Z</time>
      </trkpt>
      <trkpt lat="43.37616" lon="6.11093">
        <ele>286.79998779297</ele>
        <time>2016-01-27T14:14:50Z</time>
      </trkpt>
      <trkpt lat="43.37616" lon="6.11093">
        <ele>286.60000610352</ele>
        <time>2016-01-27T14:14:52Z</time>
      </trkpt>
      <trkpt lat="43.37616" lon="6.11094">
        <ele>286.60000610352</ele>
        <time>2016-01-27T14:14:54Z</time>
      </trkpt>
      <trkpt lat="43.37615" lon="6.11096">
        <ele>287</ele>
        <time>2016-01-27T14:14:56Z</time>
      </trkpt>
      <trkpt lat="43.37614" lon="6.11098">
        <ele>287</ele>
        <time>2016-01-27T14:14:58Z</time>
      </trkpt>
      <trkpt lat="43.37614" lon="6.11099">
        <ele>287.20001220703</ele>
        <time>2016-01-27T14:15:00Z</time>
      </trkpt>
      <trkpt lat="43.37613" lon="6.11101">
        <ele>287.60000610352</ele>
        <time>2016-01-27T14:15:02Z</time>
      </trkpt>
      <trkpt lat="43.37613" lon="6.11102">
        <ele>287.79998779297</ele>
        <time>2016-01-27T14:15:04Z</time>
      </trkpt>
      <trkpt lat="43.37612" lon="6.11103">
        <ele>288</ele>
        <time>2016-01-27T14:15:06Z</time>
      </trkpt>
      <trkpt lat="43.37611" lon="6.11104">
        <ele>288.20001220703</ele>
        <time>2016-01-27T14:15:08Z</time>
      </trkpt>
      <trkpt lat="43.37611" lon="6.11103">
        <ele>288.20001220703</ele>
        <time>2016-01-27T14:15:09Z</time>
      </trkpt>
      <trkpt lat="43.37611" lon="6.11104">
        <ele>288.20001220703</ele>
        <time>2016-01-27T14:15:10Z</time>
      </trkpt>
      <trkpt lat="43.3761" lon="6.11104">
        <ele>288.60000610352</ele>
        <time>2016-01-27T14:15:12Z</time>
      </trkpt>
      <trkpt lat="43.3761" lon="6.11105">
        <ele>288.79998779297</ele>
        <time>2016-01-27T14:15:14Z</time>
      </trkpt>
      <trkpt lat="43.37609" lon="6.11105">
        <ele>289</ele>
        <time>2016-01-27T14:15:16Z</time>
      </trkpt>
      <trkpt lat="43.37609" lon="6.11105">
        <ele>289</ele>
        <time>2016-01-27T14:15:18Z</time>
      </trkpt>
      <trkpt lat="43.37609" lon="6.11105">
        <ele>288.79998779297</ele>
        <time>2016-01-27T14:15:20Z</time>
      </trkpt>
      <trkpt lat="43.37609" lon="6.11105">
        <ele>288.79998779297</ele>
        <time>2016-01-27T14:15:22Z</time>
      </trkpt>
      <trkpt lat="43.37609" lon="6.11105">
        <ele>288.79998779297</ele>
        <time>2016-01-27T14:15:24Z</time>
      </trkpt>
      <trkpt lat="43.37608" lon="6.11105">
        <ele>289</ele>
        <time>2016-01-27T14:15:26Z</time>
      </trkpt>
      <trkpt lat="43.37606" lon="6.11106">
        <ele>289</ele>
        <time>2016-01-27T14:15:28Z</time>
      </trkpt>
      <trkpt lat="43.37604" lon="6.11109">
        <ele>289.39999389648</ele>
        <time>2016-01-27T14:15:30Z</time>
      </trkpt>
      <trkpt lat="43.37603" lon="6.1111">
        <ele>289.79998779297</ele>
        <time>2016-01-27T14:15:32Z</time>
      </trkpt>
      <trkpt lat="43.37602" lon="6.11112">
        <ele>290.20001220703</ele>
        <time>2016-01-27T14:15:33Z</time>
      </trkpt>
      <trkpt lat="43.37602" lon="6.11114">
        <ele>290.60000610352</ele>
        <time>2016-01-27T14:15:34Z</time>
      </trkpt>
      <trkpt lat="43.376" lon="6.11118">
        <ele>291</ele>
        <time>2016-01-27T14:15:36Z</time>
      </trkpt>
      <trkpt lat="43.37599" lon="6.11121">
        <ele>291.79998779297</ele>
        <time>2016-01-27T14:15:38Z</time>
      </trkpt>
      <trkpt lat="43.37598" lon="6.11123">
        <ele>291.79998779297</ele>
        <time>2016-01-27T14:15:39Z</time>
      </trkpt>
      <trkpt lat="43.37597" lon="6.11125">
        <ele>291.39999389648</ele>
        <time>2016-01-27T14:15:40Z</time>
      </trkpt>
      <trkpt lat="43.37597" lon="6.11126">
        <ele>292</ele>
        <time>2016-01-27T14:15:42Z</time>
      </trkpt>
      <trkpt lat="43.37596" lon="6.11127">
        <ele>292</ele>
        <time>2016-01-27T14:15:44Z</time>
      </trkpt>
      <trkpt lat="43.37596" lon="6.11127">
        <ele>292</ele>
        <time>2016-01-27T14:15:45Z</time>
      </trkpt>
      <trkpt lat="43.37595" lon="6.11128">
        <ele>292</ele>
        <time>2016-01-27T14:15:46Z</time>
      </trkpt>
      <trkpt lat="43.37594" lon="6.11129">
        <ele>292.39999389648</ele>
        <time>2016-01-27T14:15:48Z</time>
      </trkpt>
      <trkpt lat="43.37593" lon="6.11131">
        <ele>292.39999389648</ele>
        <time>2016-01-27T14:15:50Z</time>
      </trkpt>
      <trkpt lat="43.37593" lon="6.11131">
        <ele>292.60000610352</ele>
        <time>2016-01-27T14:15:52Z</time>
      </trkpt>
      <trkpt lat="43.37593" lon="6.11132">
        <ele>292.60000610352</ele>
        <time>2016-01-27T14:15:53Z</time>
      </trkpt>
      <trkpt lat="43.37593" lon="6.11132">
        <ele>292.60000610352</ele>
        <time>2016-01-27T14:15:54Z</time>
      </trkpt>
      <trkpt lat="43.37592" lon="6.11133">
        <ele>292.79998779297</ele>
        <time>2016-01-27T14:15:56Z</time>
      </trkpt>
      <trkpt lat="43.37592" lon="6.11133">
        <ele>292.79998779297</ele>
        <time>2016-01-27T14:15:58Z</time>
      </trkpt>
      <trkpt lat="43.37591" lon="6.11133">
        <ele>292.79998779297</ele>
        <time>2016-01-27T14:15:59Z</time>
      </trkpt>
      <trkpt lat="43.37591" lon="6.11133">
        <ele>292.79998779297</ele>
        <time>2016-01-27T14:16:00Z</time>
      </trkpt>
      <trkpt lat="43.37591" lon="6.11133">
        <ele>292.79998779297</ele>
        <time>2016-01-27T14:16:01Z</time>
      </trkpt>
      <trkpt lat="43.37591" lon="6.11133">
        <ele>293</ele>
        <time>2016-01-27T14:16:02Z</time>
      </trkpt>
      <trkpt lat="43.3759" lon="6.11134">
        <ele>293.20001220703</ele>
        <time>2016-01-27T14:16:04Z</time>
      </trkpt>
      <trkpt lat="43.37589" lon="6.11135">
        <ele>293.20001220703</ele>
        <time>2016-01-27T14:16:06Z</time>
      </trkpt>
      <trkpt lat="43.37589" lon="6.11136">
        <ele>293.20001220703</ele>
        <time>2016-01-27T14:16:08Z</time>
      </trkpt>
      <trkpt lat="43.37589" lon="6.11137">
        <ele>293.39999389648</ele>
        <time>2016-01-27T14:16:09Z</time>
      </trkpt>
      <trkpt lat="43.37588" lon="6.11138">
        <ele>293.39999389648</ele>
        <time>2016-01-27T14:16:10Z</time>
      </trkpt>
      <trkpt lat="43.37588" lon="6.11138">
        <ele>293.60000610352</ele>
        <time>2016-01-27T14:16:12Z</time>
      </trkpt>
      <trkpt lat="43.37588" lon="6.11139">
        <ele>293.60000610352</ele>
        <time>2016-01-27T14:16:14Z</time>
      </trkpt>
      <trkpt lat="43.37588" lon="6.11139">
        <ele>293.79998779297</ele>
        <time>2016-01-27T14:16:16Z</time>
      </trkpt>
      <trkpt lat="43.37589" lon="6.11139">
        <ele>293.79998779297</ele>
        <time>2016-01-27T14:16:18Z</time>
      </trkpt>
      <trkpt lat="43.37589" lon="6.11139">
        <ele>293.79998779297</ele>
        <time>2016-01-27T14:16:20Z</time>
      </trkpt>
      <trkpt lat="43.37589" lon="6.11139">
        <ele>293.79998779297</ele>
        <time>2016-01-27T14:16:22Z</time>
      </trkpt>
      <trkpt lat="43.37589" lon="6.11139">
        <ele>293.79998779297</ele>
        <time>2016-01-27T14:16:24Z</time>
      </trkpt>
      <trkpt lat="43.37589" lon="6.11139">
        <ele>293.79998779297</ele>
        <time>2016-01-27T14:16:26Z</time>
      </trkpt>
      <trkpt lat="43.37588" lon="6.11139">
        <ele>294</ele>
        <time>2016-01-27T14:16:28Z</time>
      </trkpt>
      <trkpt lat="43.37587" lon="6.11141">
        <ele>294</ele>
        <time>2016-01-27T14:16:29Z</time>
      </trkpt>
      <trkpt lat="43.37587" lon="6.11143">
        <ele>294</ele>
        <time>2016-01-27T14:16:30Z</time>
      </trkpt>
      <trkpt lat="43.37586" lon="6.11147">
        <ele>294</ele>
        <time>2016-01-27T14:16:32Z</time>
      </trkpt>
      <trkpt lat="43.37585" lon="6.11148">
        <ele>294.20001220703</ele>
        <time>2016-01-27T14:16:33Z</time>
      </trkpt>
      <trkpt lat="43.37584" lon="6.1115">
        <ele>295</ele>
        <time>2016-01-27T14:16:34Z</time>
      </trkpt>
      <trkpt lat="43.37584" lon="6.1115">
        <ele>295.39999389648</ele>
        <time>2016-01-27T14:16:35Z</time>
      </trkpt>
      <trkpt lat="43.37582" lon="6.11152">
        <ele>295.39999389648</ele>
        <time>2016-01-27T14:16:36Z</time>
      </trkpt>
      <trkpt lat="43.3758" lon="6.11154">
        <ele>295.39999389648</ele>
        <time>2016-01-27T14:16:38Z</time>
      </trkpt>
      <trkpt lat="43.37579" lon="6.11157">
        <ele>296.20001220703</ele>
        <time>2016-01-27T14:16:40Z</time>
      </trkpt>
      <trkpt lat="43.37577" lon="6.11159">
        <ele>296.39999389648</ele>
        <time>2016-01-27T14:16:41Z</time>
      </trkpt>
      <trkpt lat="43.37576" lon="6.1116">
        <ele>296.60000610352</ele>
        <time>2016-01-27T14:16:42Z</time>
      </trkpt>
      <trkpt lat="43.37575" lon="6.11162">
        <ele>297</ele>
        <time>2016-01-27T14:16:44Z</time>
      </trkpt>
      <trkpt lat="43.37574" lon="6.11164">
        <ele>296.79998779297</ele>
        <time>2016-01-27T14:16:45Z</time>
      </trkpt>
      <trkpt lat="43.37574" lon="6.11167">
        <ele>297</ele>
        <time>2016-01-27T14:16:46Z</time>
      </trkpt>
      <trkpt lat="43.37573" lon="6.1117">
        <ele>297.20001220703</ele>
        <time>2016-01-27T14:16:47Z</time>
      </trkpt>
      <trkpt lat="43.37573" lon="6.11171">
        <ele>297.60000610352</ele>
        <time>2016-01-27T14:16:48Z</time>
      </trkpt>
      <trkpt lat="43.37573" lon="6.11171">
        <ele>297.79998779297</ele>
        <time>2016-01-27T14:16:50Z</time>
      </trkpt>
      <trkpt lat="43.37573" lon="6.11172">
        <ele>298</ele>
        <time>2016-01-27T14:16:52Z</time>
      </trkpt>
      <trkpt lat="43.37572" lon="6.11174">
        <ele>298.20001220703</ele>
        <time>2016-01-27T14:16:54Z</time>
      </trkpt>
      <trkpt lat="43.37572" lon="6.11177">
        <ele>298.20001220703</ele>
        <time>2016-01-27T14:16:56Z</time>
      </trkpt>
      <trkpt lat="43.37571" lon="6.11179">
        <ele>298.20001220703</ele>
        <time>2016-01-27T14:16:57Z</time>
      </trkpt>
      <trkpt lat="43.37571" lon="6.1118">
        <ele>298.39999389648</ele>
        <time>2016-01-27T14:16:58Z</time>
      </trkpt>
      <trkpt lat="43.37571" lon="6.11181">
        <ele>298.60000610352</ele>
        <time>2016-01-27T14:17:00Z</time>
      </trkpt>
      <trkpt lat="43.37569" lon="6.11182">
        <ele>299</ele>
        <time>2016-01-27T14:17:02Z</time>
      </trkpt>
      <trkpt lat="43.37569" lon="6.11184">
        <ele>299.20001220703</ele>
        <time>2016-01-27T14:17:04Z</time>
      </trkpt>
      <trkpt lat="43.37568" lon="6.11185">
        <ele>299.20001220703</ele>
        <time>2016-01-27T14:17:06Z</time>
      </trkpt>
      <trkpt lat="43.37568" lon="6.11187">
        <ele>299.20001220703</ele>
        <time>2016-01-27T14:17:08Z</time>
      </trkpt>
      <trkpt lat="43.37568" lon="6.11188">
        <ele>299.20001220703</ele>
        <time>2016-01-27T14:17:10Z</time>
      </trkpt>
      <trkpt lat="43.37568" lon="6.11189">
        <ele>299.60000610352</ele>
        <time>2016-01-27T14:17:12Z</time>
      </trkpt>
      <trkpt lat="43.37568" lon="6.1119">
        <ele>300</ele>
        <time>2016-01-27T14:17:13Z</time>
      </trkpt>
      <trkpt lat="43.37568" lon="6.1119">
        <ele>300</ele>
        <time>2016-01-27T14:17:14Z</time>
      </trkpt>
      <trkpt lat="43.37568" lon="6.11192">
        <ele>300</ele>
        <time>2016-01-27T14:17:16Z</time>
      </trkpt>
      <trkpt lat="43.37568" lon="6.11193">
        <ele>300</ele>
        <time>2016-01-27T14:17:18Z</time>
      </trkpt>
      <trkpt lat="43.37567" lon="6.11194">
        <ele>300</ele>
        <time>2016-01-27T14:17:20Z</time>
      </trkpt>
      <trkpt lat="43.37567" lon="6.11195">
        <ele>300</ele>
        <time>2016-01-27T14:17:22Z</time>
      </trkpt>
      <trkpt lat="43.37567" lon="6.11196">
        <ele>300.20001220703</ele>
        <time>2016-01-27T14:17:24Z</time>
      </trkpt>
      <trkpt lat="43.37567" lon="6.11197">
        <ele>300.39999389648</ele>
        <time>2016-01-27T14:17:25Z</time>
      </trkpt>
      <trkpt lat="43.37567" lon="6.11197">
        <ele>300.39999389648</ele>
        <time>2016-01-27T14:17:26Z</time>
      </trkpt>
      <trkpt lat="43.37567" lon="6.11198">
        <ele>300.39999389648</ele>
        <time>2016-01-27T14:17:28Z</time>
      </trkpt>
      <trkpt lat="43.37566" lon="6.11199">
        <ele>300.60000610352</ele>
        <time>2016-01-27T14:17:30Z</time>
      </trkpt>
      <trkpt lat="43.37565" lon="6.112">
        <ele>300.79998779297</ele>
        <time>2016-01-27T14:17:32Z</time>
      </trkpt>
      <trkpt lat="43.37565" lon="6.112">
        <ele>300.79998779297</ele>
        <time>2016-01-27T14:17:33Z</time>
      </trkpt>
      <trkpt lat="43.37565" lon="6.11201">
        <ele>300.79998779297</ele>
        <time>2016-01-27T14:17:34Z</time>
      </trkpt>
      <trkpt lat="43.37565" lon="6.11201">
        <ele>300.60000610352</ele>
        <time>2016-01-27T14:17:36Z</time>
      </trkpt>
      <trkpt lat="43.37565" lon="6.11201">
        <ele>301.20001220703</ele>
        <time>2016-01-27T14:17:38Z</time>
      </trkpt>
      <trkpt lat="43.37565" lon="6.11202">
        <ele>301.39999389648</ele>
        <time>2016-01-27T14:17:40Z</time>
      </trkpt>
      <trkpt lat="43.37564" lon="6.11204">
        <ele>301.39999389648</ele>
        <time>2016-01-27T14:17:41Z</time>
      </trkpt>
      <trkpt lat="43.37565" lon="6.11203">
        <ele>301.60000610352</ele>
        <time>2016-01-27T14:17:42Z</time>
      </trkpt>
      <trkpt lat="43.37564" lon="6.11204">
        <ele>301.60000610352</ele>
        <time>2016-01-27T14:17:44Z</time>
      </trkpt>
      <trkpt lat="43.37564" lon="6.11204">
        <ele>301.60000610352</ele>
        <time>2016-01-27T14:17:46Z</time>
      </trkpt>
      <trkpt lat="43.37564" lon="6.11205">
        <ele>301.79998779297</ele>
        <time>2016-01-27T14:17:48Z</time>
      </trkpt>
      <trkpt lat="43.37564" lon="6.11205">
        <ele>302</ele>
        <time>2016-01-27T14:17:50Z</time>
      </trkpt>
      <trkpt lat="43.37564" lon="6.11206">
        <ele>302</ele>
        <time>2016-01-27T14:17:52Z</time>
      </trkpt>
      <trkpt lat="43.37564" lon="6.11206">
        <ele>302.20001220703</ele>
        <time>2016-01-27T14:17:54Z</time>
      </trkpt>
      <trkpt lat="43.37564" lon="6.11206">
        <ele>302.20001220703</ele>
        <time>2016-01-27T14:17:56Z</time>
      </trkpt>
      <trkpt lat="43.37564" lon="6.11206">
        <ele>302.39999389648</ele>
        <time>2016-01-27T14:17:58Z</time>
      </trkpt>
      <trkpt lat="43.37564" lon="6.11206">
        <ele>302.39999389648</ele>
        <time>2016-01-27T14:18:00Z</time>
      </trkpt>
      <trkpt lat="43.37564" lon="6.11206">
        <ele>302.20001220703</ele>
        <time>2016-01-27T14:18:02Z</time>
      </trkpt>
      <trkpt lat="43.37564" lon="6.11206">
        <ele>302.20001220703</ele>
        <time>2016-01-27T14:18:04Z</time>
      </trkpt>
      <trkpt lat="43.37563" lon="6.11208">
        <ele>302.60000610352</ele>
        <time>2016-01-27T14:18:06Z</time>
      </trkpt>
      <trkpt lat="43.37562" lon="6.11209">
        <ele>302.79998779297</ele>
        <time>2016-01-27T14:18:07Z</time>
      </trkpt>
      <trkpt lat="43.37561" lon="6.1121">
        <ele>303</ele>
        <time>2016-01-27T14:18:08Z</time>
      </trkpt>
      <trkpt lat="43.37561" lon="6.11211">
        <ele>302.79998779297</ele>
        <time>2016-01-27T14:18:10Z</time>
      </trkpt>
      <trkpt lat="43.37561" lon="6.11212">
        <ele>302.79998779297</ele>
        <time>2016-01-27T14:18:12Z</time>
      </trkpt>
      <trkpt lat="43.37561" lon="6.11212">
        <ele>302.79998779297</ele>
        <time>2016-01-27T14:18:13Z</time>
      </trkpt>
      <trkpt lat="43.3756" lon="6.11212">
        <ele>302.79998779297</ele>
        <time>2016-01-27T14:18:14Z</time>
      </trkpt>
      <trkpt lat="43.37561" lon="6.11212">
        <ele>302.79998779297</ele>
        <time>2016-01-27T14:18:16Z</time>
      </trkpt>
      <trkpt lat="43.3756" lon="6.11213">
        <ele>303</ele>
        <time>2016-01-27T14:18:18Z</time>
      </trkpt>
      <trkpt lat="43.3756" lon="6.11214">
        <ele>303.39999389648</ele>
        <time>2016-01-27T14:18:19Z</time>
      </trkpt>
      <trkpt lat="43.3756" lon="6.11214">
        <ele>303.60000610352</ele>
        <time>2016-01-27T14:18:20Z</time>
      </trkpt>
      <trkpt lat="43.37559" lon="6.11215">
        <ele>303.39999389648</ele>
        <time>2016-01-27T14:18:22Z</time>
      </trkpt>
      <trkpt lat="43.37558" lon="6.11216">
        <ele>303.79998779297</ele>
        <time>2016-01-27T14:18:24Z</time>
      </trkpt>
      <trkpt lat="43.37558" lon="6.11217">
        <ele>303.79998779297</ele>
        <time>2016-01-27T14:18:26Z</time>
      </trkpt>
      <trkpt lat="43.37558" lon="6.11218">
        <ele>304</ele>
        <time>2016-01-27T14:18:27Z</time>
      </trkpt>
      <trkpt lat="43.37558" lon="6.11219">
        <ele>304.20001220703</ele>
        <time>2016-01-27T14:18:28Z</time>
      </trkpt>
      <trkpt lat="43.37557" lon="6.1122">
        <ele>304.39999389648</ele>
        <time>2016-01-27T14:18:30Z</time>
      </trkpt>
      <trkpt lat="43.37557" lon="6.11221">
        <ele>304.60000610352</ele>
        <time>2016-01-27T14:18:32Z</time>
      </trkpt>
      <trkpt lat="43.37556" lon="6.11222">
        <ele>304.79998779297</ele>
        <time>2016-01-27T14:18:34Z</time>
      </trkpt>
      <trkpt lat="43.37555" lon="6.11224">
        <ele>304.60000610352</ele>
        <time>2016-01-27T14:18:36Z</time>
      </trkpt>
      <trkpt lat="43.37555" lon="6.11225">
        <ele>304.60000610352</ele>
        <time>2016-01-27T14:18:37Z</time>
      </trkpt>
      <trkpt lat="43.37555" lon="6.11226">
        <ele>304.79998779297</ele>
        <time>2016-01-27T14:18:38Z</time>
      </trkpt>
      <trkpt lat="43.37555" lon="6.11227">
        <ele>305</ele>
        <time>2016-01-27T14:18:39Z</time>
      </trkpt>
      <trkpt lat="43.37554" lon="6.11227">
        <ele>305.20001220703</ele>
        <time>2016-01-27T14:18:40Z</time>
      </trkpt>
      <trkpt lat="43.37553" lon="6.11229">
        <ele>305.20001220703</ele>
        <time>2016-01-27T14:18:42Z</time>
      </trkpt>
      <trkpt lat="43.37552" lon="6.1123">
        <ele>305.39999389648</ele>
        <time>2016-01-27T14:18:44Z</time>
      </trkpt>
      <trkpt lat="43.37552" lon="6.11231">
        <ele>305.60000610352</ele>
        <time>2016-01-27T14:18:45Z</time>
      </trkpt>
      <trkpt lat="43.37551" lon="6.11232">
        <ele>305.39999389648</ele>
        <time>2016-01-27T14:18:46Z</time>
      </trkpt>
      <trkpt lat="43.37551" lon="6.11232">
        <ele>305.39999389648</ele>
        <time>2016-01-27T14:18:48Z</time>
      </trkpt>
      <trkpt lat="43.37551" lon="6.11233">
        <ele>305.60000610352</ele>
        <time>2016-01-27T14:18:50Z</time>
      </trkpt>
      <trkpt lat="43.37551" lon="6.11233">
        <ele>305.60000610352</ele>
        <time>2016-01-27T14:18:52Z</time>
      </trkpt>
      <trkpt lat="43.37551" lon="6.11233">
        <ele>305.60000610352</ele>
        <time>2016-01-27T14:18:53Z</time>
      </trkpt>
      <trkpt lat="43.37551" lon="6.11233">
        <ele>305.39999389648</ele>
        <time>2016-01-27T14:18:54Z</time>
      </trkpt>
      <trkpt lat="43.37551" lon="6.11233">
        <ele>305.39999389648</ele>
        <time>2016-01-27T14:18:56Z</time>
      </trkpt>
      <trkpt lat="43.37551" lon="6.11233">
        <ele>305.39999389648</ele>
        <time>2016-01-27T14:18:58Z</time>
      </trkpt>
      <trkpt lat="43.37551" lon="6.11233">
        <ele>305.39999389648</ele>
        <time>2016-01-27T14:19:00Z</time>
      </trkpt>
      <trkpt lat="43.37551" lon="6.11233">
        <ele>305.39999389648</ele>
        <time>2016-01-27T14:19:02Z</time>
      </trkpt>
      <trkpt lat="43.37551" lon="6.11233">
        <ele>305.39999389648</ele>
        <time>2016-01-27T14:19:04Z</time>
      </trkpt>
      <trkpt lat="43.37551" lon="6.11233">
        <ele>305.39999389648</ele>
        <time>2016-01-27T14:19:06Z</time>
      </trkpt>
      <trkpt lat="43.3755" lon="6.11235">
        <ele>305.39999389648</ele>
        <time>2016-01-27T14:19:08Z</time>
      </trkpt>
      <trkpt lat="43.37548" lon="6.11238">
        <ele>306</ele>
        <time>2016-01-27T14:19:10Z</time>
      </trkpt>
      <trkpt lat="43.37547" lon="6.1124">
        <ele>306.39999389648</ele>
        <time>2016-01-27T14:19:11Z</time>
      </trkpt>
      <trkpt lat="43.37547" lon="6.11242">
        <ele>306.60000610352</ele>
        <time>2016-01-27T14:19:12Z</time>
      </trkpt>
      <trkpt lat="43.37547" lon="6.11246">
        <ele>307</ele>
        <time>2016-01-27T14:19:14Z</time>
      </trkpt>
      <trkpt lat="43.37545" lon="6.11247">
        <ele>307.20001220703</ele>
        <time>2016-01-27T14:19:15Z</time>
      </trkpt>
      <trkpt lat="43.37544" lon="6.11249">
        <ele>307.20001220703</ele>
        <time>2016-01-27T14:19:16Z</time>
      </trkpt>
      <trkpt lat="43.37543" lon="6.11253">
        <ele>307.39999389648</ele>
        <time>2016-01-27T14:19:18Z</time>
      </trkpt>
      <trkpt lat="43.37542" lon="6.11256">
        <ele>308</ele>
        <time>2016-01-27T14:19:20Z</time>
      </trkpt>
      <trkpt lat="43.37541" lon="6.11256">
        <ele>308</ele>
        <time>2016-01-27T14:19:21Z</time>
      </trkpt>
      <trkpt lat="43.37541" lon="6.11258">
        <ele>308</ele>
        <time>2016-01-27T14:19:22Z</time>
      </trkpt>
      <trkpt lat="43.3754" lon="6.11261">
        <ele>308.60000610352</ele>
        <time>2016-01-27T14:19:24Z</time>
      </trkpt>
      <trkpt lat="43.3754" lon="6.11264">
        <ele>308.79998779297</ele>
        <time>2016-01-27T14:19:26Z</time>
      </trkpt>
      <trkpt lat="43.37539" lon="6.11266">
        <ele>308.79998779297</ele>
        <time>2016-01-27T14:19:28Z</time>
      </trkpt>
      <trkpt lat="43.37538" lon="6.11268">
        <ele>309</ele>
        <time>2016-01-27T14:19:30Z</time>
      </trkpt>
      <trkpt lat="43.37536" lon="6.11272">
        <ele>309</ele>
        <time>2016-01-27T14:19:32Z</time>
      </trkpt>
      <trkpt lat="43.37536" lon="6.11273">
        <ele>309</ele>
        <time>2016-01-27T14:19:33Z</time>
      </trkpt>
      <trkpt lat="43.37536" lon="6.11274">
        <ele>309</ele>
        <time>2016-01-27T14:19:34Z</time>
      </trkpt>
      <trkpt lat="43.37534" lon="6.11278">
        <ele>309.39999389648</ele>
        <time>2016-01-27T14:19:36Z</time>
      </trkpt>
      <trkpt lat="43.37533" lon="6.11281">
        <ele>309.79998779297</ele>
        <time>2016-01-27T14:19:38Z</time>
      </trkpt>
      <trkpt lat="43.37533" lon="6.11283">
        <ele>309.79998779297</ele>
        <time>2016-01-27T14:19:39Z</time>
      </trkpt>
      <trkpt lat="43.37532" lon="6.11285">
        <ele>310</ele>
        <time>2016-01-27T14:19:40Z</time>
      </trkpt>
      <trkpt lat="43.37531" lon="6.11286">
        <ele>310.20001220703</ele>
        <time>2016-01-27T14:19:41Z</time>
      </trkpt>
      <trkpt lat="43.3753" lon="6.11287">
        <ele>310.39999389648</ele>
        <time>2016-01-27T14:19:42Z</time>
      </trkpt>
      <trkpt lat="43.3753" lon="6.11289">
        <ele>310.79998779297</ele>
        <time>2016-01-27T14:19:43Z</time>
      </trkpt>
      <trkpt lat="43.37529" lon="6.1129">
        <ele>311</ele>
        <time>2016-01-27T14:19:44Z</time>
      </trkpt>
      <trkpt lat="43.37528" lon="6.11293">
        <ele>311</ele>
        <time>2016-01-27T14:19:46Z</time>
      </trkpt>
      <trkpt lat="43.37528" lon="6.11293">
        <ele>311.20001220703</ele>
        <time>2016-01-27T14:19:48Z</time>
      </trkpt>
      <trkpt lat="43.37528" lon="6.11294">
        <ele>311.20001220703</ele>
        <time>2016-01-27T14:19:49Z</time>
      </trkpt>
      <trkpt lat="43.37528" lon="6.11294">
        <ele>311.20001220703</ele>
        <time>2016-01-27T14:19:50Z</time>
      </trkpt>
      <trkpt lat="43.37528" lon="6.11294">
        <ele>311.20001220703</ele>
        <time>2016-01-27T14:19:51Z</time>
      </trkpt>
      <trkpt lat="43.37528" lon="6.11295">
        <ele>311</ele>
        <time>2016-01-27T14:19:52Z</time>
      </trkpt>
      <trkpt lat="43.37528" lon="6.11295">
        <ele>311.20001220703</ele>
        <time>2016-01-27T14:19:54Z</time>
      </trkpt>
      <trkpt lat="43.37528" lon="6.11295">
        <ele>311</ele>
        <time>2016-01-27T14:19:56Z</time>
      </trkpt>
      <trkpt lat="43.37528" lon="6.11295">
        <ele>311</ele>
        <time>2016-01-27T14:19:58Z</time>
      </trkpt>
      <trkpt lat="43.37528" lon="6.11295">
        <ele>311</ele>
        <time>2016-01-27T14:19:59Z</time>
      </trkpt>
      <trkpt lat="43.37528" lon="6.11295">
        <ele>311.20001220703</ele>
        <time>2016-01-27T14:20:00Z</time>
      </trkpt>
      <trkpt lat="43.37528" lon="6.11296">
        <ele>311.39999389648</ele>
        <time>2016-01-27T14:20:02Z</time>
      </trkpt>
      <trkpt lat="43.37528" lon="6.11298">
        <ele>311.39999389648</ele>
        <time>2016-01-27T14:20:04Z</time>
      </trkpt>
      <trkpt lat="43.37527" lon="6.11299">
        <ele>311.39999389648</ele>
        <time>2016-01-27T14:20:05Z</time>
      </trkpt>
      <trkpt lat="43.37527" lon="6.11299">
        <ele>311.60000610352</ele>
        <time>2016-01-27T14:20:06Z</time>
      </trkpt>
      <trkpt lat="43.37526" lon="6.11302">
        <ele>312</ele>
        <time>2016-01-27T14:20:08Z</time>
      </trkpt>
      <trkpt lat="43.37525" lon="6.11305">
        <ele>312.20001220703</ele>
        <time>2016-01-27T14:20:10Z</time>
      </trkpt>
      <trkpt lat="43.37524" lon="6.11307">
        <ele>312.79998779297</ele>
        <time>2016-01-27T14:20:12Z</time>
      </trkpt>
      <trkpt lat="43.37523" lon="6.11308">
        <ele>312.79998779297</ele>
        <time>2016-01-27T14:20:13Z</time>
      </trkpt>
      <trkpt lat="43.37523" lon="6.11309">
        <ele>313</ele>
        <time>2016-01-27T14:20:14Z</time>
      </trkpt>
      <trkpt lat="43.37522" lon="6.1131">
        <ele>313</ele>
        <time>2016-01-27T14:20:15Z</time>
      </trkpt>
      <trkpt lat="43.37521" lon="6.11312">
        <ele>313.60000610352</ele>
        <time>2016-01-27T14:20:16Z</time>
      </trkpt>
      <trkpt lat="43.3752" lon="6.11313">
        <ele>313.79998779297</ele>
        <time>2016-01-27T14:20:17Z</time>
      </trkpt>
      <trkpt lat="43.3752" lon="6.11313">
        <ele>313.79998779297</ele>
        <time>2016-01-27T14:20:18Z</time>
      </trkpt>
      <trkpt lat="43.3752" lon="6.11313">
        <ele>313.79998779297</ele>
        <time>2016-01-27T14:20:20Z</time>
      </trkpt>
      <trkpt lat="43.3752" lon="6.11313">
        <ele>313.60000610352</ele>
        <time>2016-01-27T14:20:22Z</time>
      </trkpt>
      <trkpt lat="43.3752" lon="6.11313">
        <ele>313.79998779297</ele>
        <time>2016-01-27T14:20:24Z</time>
      </trkpt>
      <trkpt lat="43.3752" lon="6.11313">
        <ele>313.79998779297</ele>
        <time>2016-01-27T14:20:26Z</time>
      </trkpt>
      <trkpt lat="43.37519" lon="6.11314">
        <ele>314.20001220703</ele>
        <time>2016-01-27T14:20:28Z</time>
      </trkpt>
      <trkpt lat="43.37519" lon="6.11314">
        <ele>314</ele>
        <time>2016-01-27T14:20:29Z</time>
      </trkpt>
      <trkpt lat="43.37519" lon="6.11315">
        <ele>314</ele>
        <time>2016-01-27T14:20:30Z</time>
      </trkpt>
      <trkpt lat="43.37519" lon="6.11315">
        <ele>314.20001220703</ele>
        <time>2016-01-27T14:20:32Z</time>
      </trkpt>
      <trkpt lat="43.37518" lon="6.11315">
        <ele>314.39999389648</ele>
        <time>2016-01-27T14:20:33Z</time>
      </trkpt>
      <trkpt lat="43.37518" lon="6.11316">
        <ele>314.60000610352</ele>
        <time>2016-01-27T14:20:34Z</time>
      </trkpt>
      <trkpt lat="43.37518" lon="6.11317">
        <ele>314.39999389648</ele>
        <time>2016-01-27T14:20:36Z</time>
      </trkpt>
      <trkpt lat="43.37518" lon="6.11317">
        <ele>314.20001220703</ele>
        <time>2016-01-27T14:20:38Z</time>
      </trkpt>
      <trkpt lat="43.37518" lon="6.11317">
        <ele>314.39999389648</ele>
        <time>2016-01-27T14:20:40Z</time>
      </trkpt>
      <trkpt lat="43.37518" lon="6.11317">
        <ele>314.39999389648</ele>
        <time>2016-01-27T14:20:42Z</time>
      </trkpt>
      <trkpt lat="43.37518" lon="6.11318">
        <ele>314.39999389648</ele>
        <time>2016-01-27T14:20:44Z</time>
      </trkpt>
      <trkpt lat="43.37518" lon="6.11318">
        <ele>314.39999389648</ele>
        <time>2016-01-27T14:20:46Z</time>
      </trkpt>
      <trkpt lat="43.37518" lon="6.11318">
        <ele>314.60000610352</ele>
        <time>2016-01-27T14:20:48Z</time>
      </trkpt>
      <trkpt lat="43.37518" lon="6.11319">
        <ele>314.39999389648</ele>
        <time>2016-01-27T14:20:50Z</time>
      </trkpt>
      <trkpt lat="43.37518" lon="6.11319">
        <ele>314.39999389648</ele>
        <time>2016-01-27T14:20:52Z</time>
      </trkpt>
      <trkpt lat="43.37518" lon="6.11319">
        <ele>314.20001220703</ele>
        <time>2016-01-27T14:20:54Z</time>
      </trkpt>
      <trkpt lat="43.37518" lon="6.11319">
        <ele>314.20001220703</ele>
        <time>2016-01-27T14:20:56Z</time>
      </trkpt>
      <trkpt lat="43.37518" lon="6.11319">
        <ele>314.20001220703</ele>
        <time>2016-01-27T14:20:58Z</time>
      </trkpt>
      <trkpt lat="43.37518" lon="6.1132">
        <ele>314.39999389648</ele>
        <time>2016-01-27T14:21:00Z</time>
      </trkpt>
      <trkpt lat="43.37517" lon="6.11323">
        <ele>314.60000610352</ele>
        <time>2016-01-27T14:21:02Z</time>
      </trkpt>
      <trkpt lat="43.37516" lon="6.11326">
        <ele>315.20001220703</ele>
        <time>2016-01-27T14:21:04Z</time>
      </trkpt>
      <trkpt lat="43.37516" lon="6.11328">
        <ele>315.39999389648</ele>
        <time>2016-01-27T14:21:06Z</time>
      </trkpt>
      <trkpt lat="43.37516" lon="6.11329">
        <ele>315.60000610352</ele>
        <time>2016-01-27T14:21:07Z</time>
      </trkpt>
      <trkpt lat="43.37516" lon="6.11331">
        <ele>315.79998779297</ele>
        <time>2016-01-27T14:21:08Z</time>
      </trkpt>
      <trkpt lat="43.37515" lon="6.11332">
        <ele>316</ele>
        <time>2016-01-27T14:21:09Z</time>
      </trkpt>
      <trkpt lat="43.37514" lon="6.11334">
        <ele>315.79998779297</ele>
        <time>2016-01-27T14:21:10Z</time>
      </trkpt>
      <trkpt lat="43.37514" lon="6.11338">
        <ele>316.20001220703</ele>
        <time>2016-01-27T14:21:12Z</time>
      </trkpt>
      <trkpt lat="43.37513" lon="6.11341">
        <ele>316.20001220703</ele>
        <time>2016-01-27T14:21:14Z</time>
      </trkpt>
      <trkpt lat="43.37512" lon="6.11345">
        <ele>316.39999389648</ele>
        <time>2016-01-27T14:21:16Z</time>
      </trkpt>
      <trkpt lat="43.37511" lon="6.1135">
        <ele>316.39999389648</ele>
        <time>2016-01-27T14:21:18Z</time>
      </trkpt>
      <trkpt lat="43.3751" lon="6.11352">
        <ele>316.60000610352</ele>
        <time>2016-01-27T14:21:19Z</time>
      </trkpt>
      <trkpt lat="43.3751" lon="6.11353">
        <ele>316.79998779297</ele>
        <time>2016-01-27T14:21:20Z</time>
      </trkpt>
      <trkpt lat="43.37509" lon="6.11358">
        <ele>317</ele>
        <time>2016-01-27T14:21:22Z</time>
      </trkpt>
      <trkpt lat="43.37508" lon="6.11362">
        <ele>317</ele>
        <time>2016-01-27T14:21:24Z</time>
      </trkpt>
      <trkpt lat="43.37506" lon="6.11364">
        <ele>317.39999389648</ele>
        <time>2016-01-27T14:21:26Z</time>
      </trkpt>
      <trkpt lat="43.37506" lon="6.11365">
        <ele>317.60000610352</ele>
        <time>2016-01-27T14:21:28Z</time>
      </trkpt>
      <trkpt lat="43.37506" lon="6.11366">
        <ele>317.79998779297</ele>
        <time>2016-01-27T14:21:29Z</time>
      </trkpt>
      <trkpt lat="43.37505" lon="6.11368">
        <ele>318.20001220703</ele>
        <time>2016-01-27T14:21:30Z</time>
      </trkpt>
      <trkpt lat="43.37503" lon="6.1137">
        <ele>319</ele>
        <time>2016-01-27T14:21:32Z</time>
      </trkpt>
      <trkpt lat="43.37502" lon="6.11373">
        <ele>319.39999389648</ele>
        <time>2016-01-27T14:21:34Z</time>
      </trkpt>
      <trkpt lat="43.37502" lon="6.11375">
        <ele>319.60000610352</ele>
        <time>2016-01-27T14:21:36Z</time>
      </trkpt>
      <trkpt lat="43.375" lon="6.11379">
        <ele>320</ele>
        <time>2016-01-27T14:21:38Z</time>
      </trkpt>
      <trkpt lat="43.37498" lon="6.11381">
        <ele>320.20001220703</ele>
        <time>2016-01-27T14:21:39Z</time>
      </trkpt>
      <trkpt lat="43.37498" lon="6.11383">
        <ele>320.20001220703</ele>
        <time>2016-01-27T14:21:40Z</time>
      </trkpt>
      <trkpt lat="43.37497" lon="6.11387">
        <ele>320.39999389648</ele>
        <time>2016-01-27T14:21:42Z</time>
      </trkpt>
      <trkpt lat="43.37497" lon="6.11387">
        <ele>320.39999389648</ele>
        <time>2016-01-27T14:21:44Z</time>
      </trkpt>
      <trkpt lat="43.37497" lon="6.11387">
        <ele>320.39999389648</ele>
        <time>2016-01-27T14:21:45Z</time>
      </trkpt>
      <trkpt lat="43.37497" lon="6.11388">
        <ele>320.39999389648</ele>
        <time>2016-01-27T14:21:46Z</time>
      </trkpt>
      <trkpt lat="43.37497" lon="6.11389">
        <ele>320.39999389648</ele>
        <time>2016-01-27T14:21:48Z</time>
      </trkpt>
      <trkpt lat="43.37497" lon="6.11389">
        <ele>320.39999389648</ele>
        <time>2016-01-27T14:21:50Z</time>
      </trkpt>
      <trkpt lat="43.37497" lon="6.1139">
        <ele>320.60000610352</ele>
        <time>2016-01-27T14:21:52Z</time>
      </trkpt>
      <trkpt lat="43.37495" lon="6.11392">
        <ele>320.79998779297</ele>
        <time>2016-01-27T14:21:54Z</time>
      </trkpt>
      <trkpt lat="43.37495" lon="6.11394">
        <ele>320.60000610352</ele>
        <time>2016-01-27T14:21:55Z</time>
      </trkpt>
      <trkpt lat="43.37495" lon="6.11396">
        <ele>320.79998779297</ele>
        <time>2016-01-27T14:21:56Z</time>
      </trkpt>
      <trkpt lat="43.37494" lon="6.11399">
        <ele>321</ele>
        <time>2016-01-27T14:21:58Z</time>
      </trkpt>
      <trkpt lat="43.37494" lon="6.11403">
        <ele>321</ele>
        <time>2016-01-27T14:22:00Z</time>
      </trkpt>
      <trkpt lat="43.37494" lon="6.11405">
        <ele>321.20001220703</ele>
        <time>2016-01-27T14:22:01Z</time>
      </trkpt>
      <trkpt lat="43.37493" lon="6.11406">
        <ele>321.39999389648</ele>
        <time>2016-01-27T14:22:02Z</time>
      </trkpt>
      <trkpt lat="43.37492" lon="6.1141">
        <ele>321.60000610352</ele>
        <time>2016-01-27T14:22:04Z</time>
      </trkpt>
      <trkpt lat="43.37491" lon="6.11414">
        <ele>321.60000610352</ele>
        <time>2016-01-27T14:22:06Z</time>
      </trkpt>
      <trkpt lat="43.3749" lon="6.11417">
        <ele>322</ele>
        <time>2016-01-27T14:22:08Z</time>
      </trkpt>
      <trkpt lat="43.37489" lon="6.11421">
        <ele>321.79998779297</ele>
        <time>2016-01-27T14:22:10Z</time>
      </trkpt>
      <trkpt lat="43.37488" lon="6.11425">
        <ele>322</ele>
        <time>2016-01-27T14:22:12Z</time>
      </trkpt>
      <trkpt lat="43.37488" lon="6.11429">
        <ele>322.39999389648</ele>
        <time>2016-01-27T14:22:14Z</time>
      </trkpt>
      <trkpt lat="43.37487" lon="6.11433">
        <ele>322.60000610352</ele>
        <time>2016-01-27T14:22:16Z</time>
      </trkpt>
      <trkpt lat="43.37486" lon="6.11438">
        <ele>322.39999389648</ele>
        <time>2016-01-27T14:22:18Z</time>
      </trkpt>
      <trkpt lat="43.37485" lon="6.11442">
        <ele>322.20001220703</ele>
        <time>2016-01-27T14:22:20Z</time>
      </trkpt>
      <trkpt lat="43.37484" lon="6.11447">
        <ele>322.39999389648</ele>
        <time>2016-01-27T14:22:22Z</time>
      </trkpt>
      <trkpt lat="43.37484" lon="6.11451">
        <ele>322.60000610352</ele>
        <time>2016-01-27T14:22:24Z</time>
      </trkpt>
      <trkpt lat="43.37484" lon="6.11453">
        <ele>322.79998779297</ele>
        <time>2016-01-27T14:22:25Z</time>
      </trkpt>
      <trkpt lat="43.37484" lon="6.11454">
        <ele>322.79998779297</ele>
        <time>2016-01-27T14:22:26Z</time>
      </trkpt>
      <trkpt lat="43.37483" lon="6.11458">
        <ele>323</ele>
        <time>2016-01-27T14:22:28Z</time>
      </trkpt>
      <trkpt lat="43.37482" lon="6.11462">
        <ele>323</ele>
        <time>2016-01-27T14:22:30Z</time>
      </trkpt>
      <trkpt lat="43.37482" lon="6.11464">
        <ele>323.20001220703</ele>
        <time>2016-01-27T14:22:31Z</time>
      </trkpt>
      <trkpt lat="43.37481" lon="6.11466">
        <ele>323.20001220703</ele>
        <time>2016-01-27T14:22:32Z</time>
      </trkpt>
      <trkpt lat="43.3748" lon="6.1147">
        <ele>323.20001220703</ele>
        <time>2016-01-27T14:22:34Z</time>
      </trkpt>
      <trkpt lat="43.37479" lon="6.11474">
        <ele>323.60000610352</ele>
        <time>2016-01-27T14:22:36Z</time>
      </trkpt>
      <trkpt lat="43.37479" lon="6.11478">
        <ele>323.60000610352</ele>
        <time>2016-01-27T14:22:38Z</time>
      </trkpt>
      <trkpt lat="43.37478" lon="6.11481">
        <ele>323.79998779297</ele>
        <time>2016-01-27T14:22:39Z</time>
      </trkpt>
      <trkpt lat="43.37477" lon="6.11483">
        <ele>324</ele>
        <time>2016-01-27T14:22:40Z</time>
      </trkpt>
      <trkpt lat="43.37477" lon="6.11487">
        <ele>324.20001220703</ele>
        <time>2016-01-27T14:22:42Z</time>
      </trkpt>
      <trkpt lat="43.37476" lon="6.11491">
        <ele>324.20001220703</ele>
        <time>2016-01-27T14:22:44Z</time>
      </trkpt>
      <trkpt lat="43.37476" lon="6.11493">
        <ele>324.60000610352</ele>
        <time>2016-01-27T14:22:45Z</time>
      </trkpt>
      <trkpt lat="43.37476" lon="6.11493">
        <ele>324.79998779297</ele>
        <time>2016-01-27T14:22:46Z</time>
      </trkpt>
      <trkpt lat="43.37476" lon="6.11494">
        <ele>324.79998779297</ele>
        <time>2016-01-27T14:22:48Z</time>
      </trkpt>
      <trkpt lat="43.37476" lon="6.11494">
        <ele>324.79998779297</ele>
        <time>2016-01-27T14:22:49Z</time>
      </trkpt>
      <trkpt lat="43.37476" lon="6.11495">
        <ele>324.79998779297</ele>
        <time>2016-01-27T14:22:50Z</time>
      </trkpt>
      <trkpt lat="43.37476" lon="6.11495">
        <ele>324.79998779297</ele>
        <time>2016-01-27T14:22:52Z</time>
      </trkpt>
      <trkpt lat="43.37476" lon="6.11495">
        <ele>324.60000610352</ele>
        <time>2016-01-27T14:22:54Z</time>
      </trkpt>
      <trkpt lat="43.37476" lon="6.11495">
        <ele>324.60000610352</ele>
        <time>2016-01-27T14:22:56Z</time>
      </trkpt>
      <trkpt lat="43.37476" lon="6.11495">
        <ele>324.79998779297</ele>
        <time>2016-01-27T14:22:58Z</time>
      </trkpt>
      <trkpt lat="43.37476" lon="6.11495">
        <ele>324.60000610352</ele>
        <time>2016-01-27T14:23:00Z</time>
      </trkpt>
      <trkpt lat="43.37476" lon="6.11495">
        <ele>324.60000610352</ele>
        <time>2016-01-27T14:23:02Z</time>
      </trkpt>
      <trkpt lat="43.37476" lon="6.11495">
        <ele>324.79998779297</ele>
        <time>2016-01-27T14:23:04Z</time>
      </trkpt>
      <trkpt lat="43.37476" lon="6.11495">
        <ele>324.79998779297</ele>
        <time>2016-01-27T14:23:06Z</time>
      </trkpt>
      <trkpt lat="43.37476" lon="6.11495">
        <ele>324.79998779297</ele>
        <time>2016-01-27T14:23:08Z</time>
      </trkpt>
      <trkpt lat="43.37476" lon="6.11495">
        <ele>324.60000610352</ele>
        <time>2016-01-27T14:23:10Z</time>
      </trkpt>
      <trkpt lat="43.37476" lon="6.11495">
        <ele>324.60000610352</ele>
        <time>2016-01-27T14:23:12Z</time>
      </trkpt>
      <trkpt lat="43.37476" lon="6.11495">
        <ele>324.79998779297</ele>
        <time>2016-01-27T14:23:14Z</time>
      </trkpt>
      <trkpt lat="43.37476" lon="6.11495">
        <ele>324.79998779297</ele>
        <time>2016-01-27T14:23:16Z</time>
      </trkpt>
      <trkpt lat="43.37476" lon="6.11495">
        <ele>324.60000610352</ele>
        <time>2016-01-27T14:23:18Z</time>
      </trkpt>
      <trkpt lat="43.37476" lon="6.11495">
        <ele>324.79998779297</ele>
        <time>2016-01-27T14:23:20Z</time>
      </trkpt>
      <trkpt lat="43.37476" lon="6.11495">
        <ele>324.79998779297</ele>
        <time>2016-01-27T14:23:22Z</time>
      </trkpt>
      <trkpt lat="43.37476" lon="6.11495">
        <ele>324.79998779297</ele>
        <time>2016-01-27T14:23:24Z</time>
      </trkpt>
      <trkpt lat="43.37476" lon="6.11495">
        <ele>324.79998779297</ele>
        <time>2016-01-27T14:23:26Z</time>
      </trkpt>
      <trkpt lat="43.37476" lon="6.11495">
        <ele>324.60000610352</ele>
        <time>2016-01-27T14:23:28Z</time>
      </trkpt>
      <trkpt lat="43.37476" lon="6.11495">
        <ele>324.60000610352</ele>
        <time>2016-01-27T14:23:30Z</time>
      </trkpt>
      <trkpt lat="43.37476" lon="6.11495">
        <ele>324.39999389648</ele>
        <time>2016-01-27T14:23:32Z</time>
      </trkpt>
      <trkpt lat="43.37476" lon="6.11495">
        <ele>324.39999389648</ele>
        <time>2016-01-27T14:23:34Z</time>
      </trkpt>
      <trkpt lat="43.37476" lon="6.11495">
        <ele>324.60000610352</ele>
        <time>2016-01-27T14:23:35Z</time>
      </trkpt>
      <trkpt lat="43.37476" lon="6.11495">
        <ele>324.79998779297</ele>
        <time>2016-01-27T14:23:36Z</time>
      </trkpt>
      <trkpt lat="43.37476" lon="6.11495">
        <ele>324.60000610352</ele>
        <time>2016-01-27T14:23:38Z</time>
      </trkpt>
      <trkpt lat="43.37475" lon="6.11496">
        <ele>324.60000610352</ele>
        <time>2016-01-27T14:23:40Z</time>
      </trkpt>
      <trkpt lat="43.37475" lon="6.11496">
        <ele>324.60000610352</ele>
        <time>2016-01-27T14:23:42Z</time>
      </trkpt>
      <trkpt lat="43.37474" lon="6.11496">
        <ele>324.79998779297</ele>
        <time>2016-01-27T14:23:44Z</time>
      </trkpt>
      <trkpt lat="43.37474" lon="6.11496">
        <ele>324.79998779297</ele>
        <time>2016-01-27T14:23:46Z</time>
      </trkpt>
      <trkpt lat="43.37474" lon="6.11498">
        <ele>325</ele>
        <time>2016-01-27T14:23:48Z</time>
      </trkpt>
      <trkpt lat="43.37474" lon="6.11498">
        <ele>325</ele>
        <time>2016-01-27T14:23:50Z</time>
      </trkpt>
      <trkpt lat="43.37474" lon="6.11498">
        <ele>325</ele>
        <time>2016-01-27T14:23:52Z</time>
      </trkpt>
      <trkpt lat="43.37474" lon="6.11499">
        <ele>325</ele>
        <time>2016-01-27T14:23:54Z</time>
      </trkpt>
      <trkpt lat="43.37474" lon="6.115">
        <ele>324.79998779297</ele>
        <time>2016-01-27T14:23:56Z</time>
      </trkpt>
      <trkpt lat="43.37474" lon="6.115">
        <ele>324.79998779297</ele>
        <time>2016-01-27T14:23:58Z</time>
      </trkpt>
      <trkpt lat="43.37474" lon="6.115">
        <ele>325</ele>
        <time>2016-01-27T14:24:00Z</time>
      </trkpt>
      <trkpt lat="43.37474" lon="6.115">
        <ele>325</ele>
        <time>2016-01-27T14:24:02Z</time>
      </trkpt>
      <trkpt lat="43.37474" lon="6.115">
        <ele>325</ele>
        <time>2016-01-27T14:24:04Z</time>
      </trkpt>
      <trkpt lat="43.37474" lon="6.115">
        <ele>325</ele>
        <time>2016-01-27T14:24:06Z</time>
      </trkpt>
      <trkpt lat="43.37474" lon="6.115">
        <ele>324.79998779297</ele>
        <time>2016-01-27T14:24:08Z</time>
      </trkpt>
      <trkpt lat="43.37474" lon="6.115">
        <ele>325</ele>
        <time>2016-01-27T14:24:10Z</time>
      </trkpt>
      <trkpt lat="43.37474" lon="6.115">
        <ele>325</ele>
        <time>2016-01-27T14:24:12Z</time>
      </trkpt>
      <trkpt lat="43.37474" lon="6.115">
        <ele>325.20001220703</ele>
        <time>2016-01-27T14:24:14Z</time>
      </trkpt>
      <trkpt lat="43.37474" lon="6.115">
        <ele>325</ele>
        <time>2016-01-27T14:24:16Z</time>
      </trkpt>
      <trkpt lat="43.37474" lon="6.115">
        <ele>324.79998779297</ele>
        <time>2016-01-27T14:24:18Z</time>
      </trkpt>
      <trkpt lat="43.37474" lon="6.115">
        <ele>324.79998779297</ele>
        <time>2016-01-27T14:24:20Z</time>
      </trkpt>
      <trkpt lat="43.37474" lon="6.115">
        <ele>325</ele>
        <time>2016-01-27T14:24:22Z</time>
      </trkpt>
      <trkpt lat="43.37474" lon="6.115">
        <ele>325</ele>
        <time>2016-01-27T14:24:24Z</time>
      </trkpt>
      <trkpt lat="43.37474" lon="6.11501">
        <ele>325</ele>
        <time>2016-01-27T14:24:26Z</time>
      </trkpt>
      <trkpt lat="43.37474" lon="6.11501">
        <ele>325</ele>
        <time>2016-01-27T14:24:28Z</time>
      </trkpt>
      <trkpt lat="43.37474" lon="6.11501">
        <ele>325</ele>
        <time>2016-01-27T14:24:29Z</time>
      </trkpt>
      <trkpt lat="43.37474" lon="6.11501">
        <ele>324.79998779297</ele>
        <time>2016-01-27T14:24:30Z</time>
      </trkpt>
      <trkpt lat="43.37474" lon="6.11501">
        <ele>324.79998779297</ele>
        <time>2016-01-27T14:24:32Z</time>
      </trkpt>
      <trkpt lat="43.37474" lon="6.11501">
        <ele>325</ele>
        <time>2016-01-27T14:24:34Z</time>
      </trkpt>
      <trkpt lat="43.37474" lon="6.11501">
        <ele>325</ele>
        <time>2016-01-27T14:24:36Z</time>
      </trkpt>
      <trkpt lat="43.37474" lon="6.11501">
        <ele>325.20001220703</ele>
        <time>2016-01-27T14:24:38Z</time>
      </trkpt>
      <trkpt lat="43.37474" lon="6.11501">
        <ele>325</ele>
        <time>2016-01-27T14:24:40Z</time>
      </trkpt>
      <trkpt lat="43.37474" lon="6.11501">
        <ele>324.79998779297</ele>
        <time>2016-01-27T14:24:42Z</time>
      </trkpt>
      <trkpt lat="43.37474" lon="6.11501">
        <ele>324.79998779297</ele>
        <time>2016-01-27T14:24:44Z</time>
      </trkpt>
      <trkpt lat="43.37474" lon="6.11501">
        <ele>324.79998779297</ele>
        <time>2016-01-27T14:24:46Z</time>
      </trkpt>
      <trkpt lat="43.37474" lon="6.11501">
        <ele>324.79998779297</ele>
        <time>2016-01-27T14:24:48Z</time>
      </trkpt>
      <trkpt lat="43.37474" lon="6.11501">
        <ele>325</ele>
        <time>2016-01-27T14:24:50Z</time>
      </trkpt>
      <trkpt lat="43.37474" lon="6.11501">
        <ele>324.79998779297</ele>
        <time>2016-01-27T14:24:52Z</time>
      </trkpt>
      <trkpt lat="43.37474" lon="6.11501">
        <ele>324.79998779297</ele>
        <time>2016-01-27T14:24:54Z</time>
      </trkpt>
      <trkpt lat="43.37474" lon="6.11501">
        <ele>325</ele>
        <time>2016-01-27T14:24:56Z</time>
      </trkpt>
      <trkpt lat="43.37474" lon="6.11501">
        <ele>325</ele>
        <time>2016-01-27T14:24:58Z</time>
      </trkpt>
      <trkpt lat="43.37474" lon="6.11502">
        <ele>325</ele>
        <time>2016-01-27T14:25:00Z</time>
      </trkpt>
      <trkpt lat="43.37474" lon="6.11502">
        <ele>325</ele>
        <time>2016-01-27T14:25:02Z</time>
      </trkpt>
      <trkpt lat="43.37474" lon="6.11502">
        <ele>325</ele>
        <time>2016-01-27T14:25:04Z</time>
      </trkpt>
      <trkpt lat="43.37474" lon="6.11502">
        <ele>325</ele>
        <time>2016-01-27T14:25:06Z</time>
      </trkpt>
      <trkpt lat="43.37474" lon="6.11502">
        <ele>324.79998779297</ele>
        <time>2016-01-27T14:25:08Z</time>
      </trkpt>
      <trkpt lat="43.37474" lon="6.11502">
        <ele>324.79998779297</ele>
        <time>2016-01-27T14:25:10Z</time>
      </trkpt>
      <trkpt lat="43.37474" lon="6.11502">
        <ele>324.79998779297</ele>
        <time>2016-01-27T14:25:12Z</time>
      </trkpt>
      <trkpt lat="43.37474" lon="6.11502">
        <ele>324.79998779297</ele>
        <time>2016-01-27T14:25:14Z</time>
      </trkpt>
      <trkpt lat="43.37474" lon="6.11502">
        <ele>324.79998779297</ele>
        <time>2016-01-27T14:25:16Z</time>
      </trkpt>
      <trkpt lat="43.37474" lon="6.11502">
        <ele>325.20001220703</ele>
        <time>2016-01-27T14:25:18Z</time>
      </trkpt>
      <trkpt lat="43.37474" lon="6.11502">
        <ele>325</ele>
        <time>2016-01-27T14:25:20Z</time>
      </trkpt>
      <trkpt lat="43.37474" lon="6.11502">
        <ele>325</ele>
        <time>2016-01-27T14:25:22Z</time>
      </trkpt>
      <trkpt lat="43.37474" lon="6.11502">
        <ele>325</ele>
        <time>2016-01-27T14:25:24Z</time>
      </trkpt>
      <trkpt lat="43.37474" lon="6.11502">
        <ele>325</ele>
        <time>2016-01-27T14:25:26Z</time>
      </trkpt>
      <trkpt lat="43.37474" lon="6.11502">
        <ele>325</ele>
        <time>2016-01-27T14:25:28Z</time>
      </trkpt>
      <trkpt lat="43.37474" lon="6.11502">
        <ele>325</ele>
        <time>2016-01-27T14:25:30Z</time>
      </trkpt>
      <trkpt lat="43.37474" lon="6.11502">
        <ele>325</ele>
        <time>2016-01-27T14:25:32Z</time>
      </trkpt>
      <trkpt lat="43.37474" lon="6.11502">
        <ele>325</ele>
        <time>2016-01-27T14:25:34Z</time>
      </trkpt>
      <trkpt lat="43.37474" lon="6.11502">
        <ele>324.79998779297</ele>
        <time>2016-01-27T14:25:36Z</time>
      </trkpt>
      <trkpt lat="43.37474" lon="6.11502">
        <ele>324.79998779297</ele>
        <time>2016-01-27T14:25:38Z</time>
      </trkpt>
      <trkpt lat="43.37474" lon="6.11502">
        <ele>324.79998779297</ele>
        <time>2016-01-27T14:25:40Z</time>
      </trkpt>
      <trkpt lat="43.37474" lon="6.11502">
        <ele>324.79998779297</ele>
        <time>2016-01-27T14:25:42Z</time>
      </trkpt>
      <trkpt lat="43.37474" lon="6.11502">
        <ele>324.60000610352</ele>
        <time>2016-01-27T14:25:44Z</time>
      </trkpt>
      <trkpt lat="43.37474" lon="6.11502">
        <ele>325</ele>
        <time>2016-01-27T14:25:46Z</time>
      </trkpt>
      <trkpt lat="43.37474" lon="6.11502">
        <ele>324.79998779297</ele>
        <time>2016-01-27T14:25:48Z</time>
      </trkpt>
      <trkpt lat="43.37474" lon="6.11502">
        <ele>325</ele>
        <time>2016-01-27T14:25:50Z</time>
      </trkpt>
      <trkpt lat="43.37474" lon="6.11502">
        <ele>325</ele>
        <time>2016-01-27T14:25:52Z</time>
      </trkpt>
      <trkpt lat="43.37474" lon="6.11502">
        <ele>325</ele>
        <time>2016-01-27T14:25:54Z</time>
      </trkpt>
      <trkpt lat="43.37474" lon="6.11502">
        <ele>324.79998779297</ele>
        <time>2016-01-27T14:25:56Z</time>
      </trkpt>
      <trkpt lat="43.37474" lon="6.11502">
        <ele>324.60000610352</ele>
        <time>2016-01-27T14:25:58Z</time>
      </trkpt>
      <trkpt lat="43.37474" lon="6.11502">
        <ele>324.60000610352</ele>
        <time>2016-01-27T14:25:59Z</time>
      </trkpt>
      <trkpt lat="43.37474" lon="6.11502">
        <ele>324.79998779297</ele>
        <time>2016-01-27T14:26:02Z</time>
      </trkpt>
      <trkpt lat="43.37474" lon="6.11502">
        <ele>324.79998779297</ele>
        <time>2016-01-27T14:26:04Z</time>
      </trkpt>
      <trkpt lat="43.37474" lon="6.11502">
        <ele>324.79998779297</ele>
        <time>2016-01-27T14:26:06Z</time>
      </trkpt>
      <trkpt lat="43.37474" lon="6.11502">
        <ele>325</ele>
        <time>2016-01-27T14:26:08Z</time>
      </trkpt>
      <trkpt lat="43.37474" lon="6.11502">
        <ele>325</ele>
        <time>2016-01-27T14:26:10Z</time>
      </trkpt>
      <trkpt lat="43.37474" lon="6.11502">
        <ele>324.79998779297</ele>
        <time>2016-01-27T14:26:12Z</time>
      </trkpt>
      <trkpt lat="43.37474" lon="6.11502">
        <ele>324.79998779297</ele>
        <time>2016-01-27T14:26:14Z</time>
      </trkpt>
      <trkpt lat="43.37474" lon="6.11502">
        <ele>324.79998779297</ele>
        <time>2016-01-27T14:26:16Z</time>
      </trkpt>
      <trkpt lat="43.37474" lon="6.11503">
        <ele>324.60000610352</ele>
        <time>2016-01-27T14:26:18Z</time>
      </trkpt>
      <trkpt lat="43.37474" lon="6.11503">
        <ele>324.79998779297</ele>
        <time>2016-01-27T14:26:20Z</time>
      </trkpt>
      <trkpt lat="43.37474" lon="6.11503">
        <ele>325</ele>
        <time>2016-01-27T14:26:22Z</time>
      </trkpt>
      <trkpt lat="43.37474" lon="6.11503">
        <ele>324.79998779297</ele>
        <time>2016-01-27T14:26:24Z</time>
      </trkpt>
      <trkpt lat="43.37474" lon="6.11503">
        <ele>324.60000610352</ele>
        <time>2016-01-27T14:26:26Z</time>
      </trkpt>
      <trkpt lat="43.37474" lon="6.11503">
        <ele>324.79998779297</ele>
        <time>2016-01-27T14:26:28Z</time>
      </trkpt>
      <trkpt lat="43.37474" lon="6.11503">
        <ele>324.60000610352</ele>
        <time>2016-01-27T14:26:30Z</time>
      </trkpt>
      <trkpt lat="43.37474" lon="6.11503">
        <ele>324.60000610352</ele>
        <time>2016-01-27T14:26:32Z</time>
      </trkpt>
      <trkpt lat="43.37474" lon="6.11503">
        <ele>324.79998779297</ele>
        <time>2016-01-27T14:26:34Z</time>
      </trkpt>
      <trkpt lat="43.37474" lon="6.11503">
        <ele>324.79998779297</ele>
        <time>2016-01-27T14:26:36Z</time>
      </trkpt>
      <trkpt lat="43.37473" lon="6.11503">
        <ele>324.79998779297</ele>
        <time>2016-01-27T14:26:38Z</time>
      </trkpt>
      <trkpt lat="43.37474" lon="6.11503">
        <ele>324.79998779297</ele>
        <time>2016-01-27T14:26:40Z</time>
      </trkpt>
      <trkpt lat="43.37474" lon="6.11503">
        <ele>325</ele>
        <time>2016-01-27T14:26:42Z</time>
      </trkpt>
      <trkpt lat="43.37474" lon="6.11503">
        <ele>324.79998779297</ele>
        <time>2016-01-27T14:26:44Z</time>
      </trkpt>
      <trkpt lat="43.37474" lon="6.11503">
        <ele>324.79998779297</ele>
        <time>2016-01-27T14:26:46Z</time>
      </trkpt>
      <trkpt lat="43.37474" lon="6.11503">
        <ele>324.79998779297</ele>
        <time>2016-01-27T14:26:48Z</time>
      </trkpt>
      <trkpt lat="43.37474" lon="6.11503">
        <ele>324.79998779297</ele>
        <time>2016-01-27T14:26:50Z</time>
      </trkpt>
      <trkpt lat="43.37474" lon="6.11503">
        <ele>324.79998779297</ele>
        <time>2016-01-27T14:26:52Z</time>
      </trkpt>
      <trkpt lat="43.37474" lon="6.11503">
        <ele>324.79998779297</ele>
        <time>2016-01-27T14:26:54Z</time>
      </trkpt>
      <trkpt lat="43.37474" lon="6.11503">
        <ele>324.79998779297</ele>
        <time>2016-01-27T14:26:56Z</time>
      </trkpt>
      <trkpt lat="43.37474" lon="6.11503">
        <ele>325</ele>
        <time>2016-01-27T14:26:58Z</time>
      </trkpt>
      <trkpt lat="43.37474" lon="6.11503">
        <ele>324.79998779297</ele>
        <time>2016-01-27T14:27:00Z</time>
      </trkpt>
      <trkpt lat="43.37474" lon="6.11503">
        <ele>324.60000610352</ele>
        <time>2016-01-27T14:27:01Z</time>
      </trkpt>
      <trkpt lat="43.37474" lon="6.11503">
        <ele>324.60000610352</ele>
        <time>2016-01-27T14:27:02Z</time>
      </trkpt>
      <trkpt lat="43.37474" lon="6.11503">
        <ele>324.60000610352</ele>
        <time>2016-01-27T14:27:04Z</time>
      </trkpt>
      <trkpt lat="43.37474" lon="6.11503">
        <ele>324.79998779297</ele>
        <time>2016-01-27T14:27:06Z</time>
      </trkpt>
      <trkpt lat="43.37474" lon="6.11503">
        <ele>324.60000610352</ele>
        <time>2016-01-27T14:27:08Z</time>
      </trkpt>
      <trkpt lat="43.37474" lon="6.11503">
        <ele>324.79998779297</ele>
        <time>2016-01-27T14:27:10Z</time>
      </trkpt>
      <trkpt lat="43.37474" lon="6.11503">
        <ele>324.60000610352</ele>
        <time>2016-01-27T14:27:12Z</time>
      </trkpt>
      <trkpt lat="43.37474" lon="6.11503">
        <ele>324.79998779297</ele>
        <time>2016-01-27T14:27:14Z</time>
      </trkpt>
      <trkpt lat="43.37474" lon="6.11503">
        <ele>324.79998779297</ele>
        <time>2016-01-27T14:27:16Z</time>
      </trkpt>
      <trkpt lat="43.37474" lon="6.11503">
        <ele>324.79998779297</ele>
        <time>2016-01-27T14:27:18Z</time>
      </trkpt>
      <trkpt lat="43.37474" lon="6.11503">
        <ele>324.79998779297</ele>
        <time>2016-01-27T14:27:20Z</time>
      </trkpt>
      <trkpt lat="43.37473" lon="6.11503">
        <ele>324.60000610352</ele>
        <time>2016-01-27T14:27:22Z</time>
      </trkpt>
      <trkpt lat="43.37473" lon="6.11503">
        <ele>324.60000610352</ele>
        <time>2016-01-27T14:27:24Z</time>
      </trkpt>
      <trkpt lat="43.37474" lon="6.11503">
        <ele>324.60000610352</ele>
        <time>2016-01-27T14:27:26Z</time>
      </trkpt>
      <trkpt lat="43.37474" lon="6.11503">
        <ele>324.79998779297</ele>
        <time>2016-01-27T14:27:28Z</time>
      </trkpt>
      <trkpt lat="43.37474" lon="6.11503">
        <ele>324.79998779297</ele>
        <time>2016-01-27T14:27:30Z</time>
      </trkpt>
      <trkpt lat="43.37474" lon="6.11503">
        <ele>324.79998779297</ele>
        <time>2016-01-27T14:27:32Z</time>
      </trkpt>
      <trkpt lat="43.37474" lon="6.11503">
        <ele>324.79998779297</ele>
        <time>2016-01-27T14:27:34Z</time>
      </trkpt>
      <trkpt lat="43.37474" lon="6.11503">
        <ele>324.79998779297</ele>
        <time>2016-01-27T14:27:36Z</time>
      </trkpt>
      <trkpt lat="43.37474" lon="6.11503">
        <ele>325</ele>
        <time>2016-01-27T14:27:38Z</time>
      </trkpt>
      <trkpt lat="43.37473" lon="6.11503">
        <ele>325</ele>
        <time>2016-01-27T14:27:40Z</time>
      </trkpt>
      <trkpt lat="43.37473" lon="6.11503">
        <ele>324.79998779297</ele>
        <time>2016-01-27T14:27:42Z</time>
      </trkpt>
      <trkpt lat="43.37473" lon="6.11503">
        <ele>325</ele>
        <time>2016-01-27T14:27:44Z</time>
      </trkpt>
      <trkpt lat="43.37473" lon="6.11503">
        <ele>324.79998779297</ele>
        <time>2016-01-27T14:27:46Z</time>
      </trkpt>
      <trkpt lat="43.37473" lon="6.11503">
        <ele>325</ele>
        <time>2016-01-27T14:27:48Z</time>
      </trkpt>
      <trkpt lat="43.37473" lon="6.11503">
        <ele>325</ele>
        <time>2016-01-27T14:27:50Z</time>
      </trkpt>
      <trkpt lat="43.37473" lon="6.11504">
        <ele>324.79998779297</ele>
        <time>2016-01-27T14:27:52Z</time>
      </trkpt>
      <trkpt lat="43.37473" lon="6.11504">
        <ele>324.79998779297</ele>
        <time>2016-01-27T14:27:54Z</time>
      </trkpt>
      <trkpt lat="43.37473" lon="6.11504">
        <ele>325</ele>
        <time>2016-01-27T14:27:56Z</time>
      </trkpt>
      <trkpt lat="43.37473" lon="6.11504">
        <ele>325</ele>
        <time>2016-01-27T14:27:58Z</time>
      </trkpt>
      <trkpt lat="43.37473" lon="6.11504">
        <ele>324.79998779297</ele>
        <time>2016-01-27T14:28:00Z</time>
      </trkpt>
      <trkpt lat="43.37473" lon="6.11504">
        <ele>324.79998779297</ele>
        <time>2016-01-27T14:28:01Z</time>
      </trkpt>
      <trkpt lat="43.37473" lon="6.11504">
        <ele>324.60000610352</ele>
        <time>2016-01-27T14:28:04Z</time>
      </trkpt>
      <trkpt lat="43.37473" lon="6.11504">
        <ele>325.20001220703</ele>
        <time>2016-01-27T14:28:06Z</time>
      </trkpt>
      <trkpt lat="43.37473" lon="6.11504">
        <ele>325</ele>
        <time>2016-01-27T14:28:08Z</time>
      </trkpt>
      <trkpt lat="43.37473" lon="6.11504">
        <ele>324.79998779297</ele>
        <time>2016-01-27T14:28:10Z</time>
      </trkpt>
      <trkpt lat="43.37473" lon="6.11504">
        <ele>324.79998779297</ele>
        <time>2016-01-27T14:28:12Z</time>
      </trkpt>
      <trkpt lat="43.37473" lon="6.11504">
        <ele>324.79998779297</ele>
        <time>2016-01-27T14:28:14Z</time>
      </trkpt>
      <trkpt lat="43.37473" lon="6.11504">
        <ele>325.20001220703</ele>
        <time>2016-01-27T14:28:16Z</time>
      </trkpt>
      <trkpt lat="43.37473" lon="6.11504">
        <ele>325</ele>
        <time>2016-01-27T14:28:18Z</time>
      </trkpt>
      <trkpt lat="43.37473" lon="6.11504">
        <ele>324.79998779297</ele>
        <time>2016-01-27T14:28:20Z</time>
      </trkpt>
      <trkpt lat="43.37473" lon="6.11504">
        <ele>324.79998779297</ele>
        <time>2016-01-27T14:28:22Z</time>
      </trkpt>
      <trkpt lat="43.37473" lon="6.11504">
        <ele>324.79998779297</ele>
        <time>2016-01-27T14:28:24Z</time>
      </trkpt>
      <trkpt lat="43.37473" lon="6.11504">
        <ele>324.79998779297</ele>
        <time>2016-01-27T14:28:26Z</time>
      </trkpt>
      <trkpt lat="43.37474" lon="6.11504">
        <ele>324.79998779297</ele>
        <time>2016-01-27T14:28:28Z</time>
      </trkpt>
      <trkpt lat="43.37474" lon="6.11504">
        <ele>324.79998779297</ele>
        <time>2016-01-27T14:28:30Z</time>
      </trkpt>
      <trkpt lat="43.37474" lon="6.11504">
        <ele>324.79998779297</ele>
        <time>2016-01-27T14:28:32Z</time>
      </trkpt>
      <trkpt lat="43.37473" lon="6.11504">
        <ele>325</ele>
        <time>2016-01-27T14:28:34Z</time>
      </trkpt>
      <trkpt lat="43.37473" lon="6.11504">
        <ele>324.79998779297</ele>
        <time>2016-01-27T14:28:36Z</time>
      </trkpt>
      <trkpt lat="43.37473" lon="6.11504">
        <ele>324.79998779297</ele>
        <time>2016-01-27T14:28:38Z</time>
      </trkpt>
      <trkpt lat="43.37473" lon="6.11504">
        <ele>324.79998779297</ele>
        <time>2016-01-27T14:28:40Z</time>
      </trkpt>
      <trkpt lat="43.37473" lon="6.11504">
        <ele>324.79998779297</ele>
        <time>2016-01-27T14:28:42Z</time>
      </trkpt>
      <trkpt lat="43.37473" lon="6.11504">
        <ele>324.79998779297</ele>
        <time>2016-01-27T14:28:44Z</time>
      </trkpt>
      <trkpt lat="43.37473" lon="6.11504">
        <ele>325</ele>
        <time>2016-01-27T14:28:46Z</time>
      </trkpt>
      <trkpt lat="43.37473" lon="6.11504">
        <ele>325</ele>
        <time>2016-01-27T14:28:48Z</time>
      </trkpt>
      <trkpt lat="43.37473" lon="6.11504">
        <ele>325</ele>
        <time>2016-01-27T14:28:50Z</time>
      </trkpt>
      <trkpt lat="43.37473" lon="6.11504">
        <ele>324.79998779297</ele>
        <time>2016-01-27T14:28:52Z</time>
      </trkpt>
      <trkpt lat="43.37473" lon="6.11504">
        <ele>325</ele>
        <time>2016-01-27T14:28:53Z</time>
      </trkpt>
      <trkpt lat="43.37473" lon="6.11505">
        <ele>325</ele>
        <time>2016-01-27T14:28:56Z</time>
      </trkpt>
      <trkpt lat="43.37473" lon="6.11505">
        <ele>325</ele>
        <time>2016-01-27T14:28:58Z</time>
      </trkpt>
      <trkpt lat="43.37473" lon="6.11505">
        <ele>324.79998779297</ele>
        <time>2016-01-27T14:29:00Z</time>
      </trkpt>
      <trkpt lat="43.37473" lon="6.11505">
        <ele>324.79998779297</ele>
        <time>2016-01-27T14:29:02Z</time>
      </trkpt>
      <trkpt lat="43.37473" lon="6.11505">
        <ele>324.79998779297</ele>
        <time>2016-01-27T14:29:04Z</time>
      </trkpt>
      <trkpt lat="43.37473" lon="6.11505">
        <ele>324.79998779297</ele>
        <time>2016-01-27T14:29:06Z</time>
      </trkpt>
      <trkpt lat="43.37473" lon="6.11505">
        <ele>324.79998779297</ele>
        <time>2016-01-27T14:29:08Z</time>
      </trkpt>
      <trkpt lat="43.37473" lon="6.11505">
        <ele>324.79998779297</ele>
        <time>2016-01-27T14:29:10Z</time>
      </trkpt>
      <trkpt lat="43.37473" lon="6.11505">
        <ele>324.79998779297</ele>
        <time>2016-01-27T14:29:12Z</time>
      </trkpt>
      <trkpt lat="43.37473" lon="6.11505">
        <ele>324.79998779297</ele>
        <time>2016-01-27T14:29:14Z</time>
      </trkpt>
      <trkpt lat="43.37473" lon="6.11505">
        <ele>325</ele>
        <time>2016-01-27T14:29:16Z</time>
      </trkpt>
      <trkpt lat="43.37473" lon="6.11505">
        <ele>325</ele>
        <time>2016-01-27T14:29:17Z</time>
      </trkpt>
      <trkpt lat="43.37473" lon="6.11505">
        <ele>324.79998779297</ele>
        <time>2016-01-27T14:29:18Z</time>
      </trkpt>
      <trkpt lat="43.37473" lon="6.11505">
        <ele>324.79998779297</ele>
        <time>2016-01-27T14:29:20Z</time>
      </trkpt>
      <trkpt lat="43.37473" lon="6.11505">
        <ele>324.79998779297</ele>
        <time>2016-01-27T14:29:22Z</time>
      </trkpt>
      <trkpt lat="43.37473" lon="6.11505">
        <ele>324.79998779297</ele>
        <time>2016-01-27T14:29:24Z</time>
      </trkpt>
      <trkpt lat="43.37473" lon="6.11505">
        <ele>324.79998779297</ele>
        <time>2016-01-27T14:29:26Z</time>
      </trkpt>
      <trkpt lat="43.37473" lon="6.11505">
        <ele>324.79998779297</ele>
        <time>2016-01-27T14:29:28Z</time>
      </trkpt>
      <trkpt lat="43.37473" lon="6.11505">
        <ele>324.79998779297</ele>
        <time>2016-01-27T14:29:30Z</time>
      </trkpt>
      <trkpt lat="43.37473" lon="6.11505">
        <ele>325</ele>
        <time>2016-01-27T14:29:32Z</time>
      </trkpt>
      <trkpt lat="43.37473" lon="6.11505">
        <ele>324.79998779297</ele>
        <time>2016-01-27T14:29:34Z</time>
      </trkpt>
      <trkpt lat="43.37473" lon="6.11505">
        <ele>324.79998779297</ele>
        <time>2016-01-27T14:29:36Z</time>
      </trkpt>
      <trkpt lat="43.37473" lon="6.11505">
        <ele>325</ele>
        <time>2016-01-27T14:29:38Z</time>
      </trkpt>
      <trkpt lat="43.37473" lon="6.11505">
        <ele>325.20001220703</ele>
        <time>2016-01-27T14:29:40Z</time>
      </trkpt>
      <trkpt lat="43.37473" lon="6.11505">
        <ele>325</ele>
        <time>2016-01-27T14:29:42Z</time>
      </trkpt>
      <trkpt lat="43.37473" lon="6.11505">
        <ele>324.79998779297</ele>
        <time>2016-01-27T14:29:44Z</time>
      </trkpt>
      <trkpt lat="43.37473" lon="6.11505">
        <ele>324.79998779297</ele>
        <time>2016-01-27T14:29:46Z</time>
      </trkpt>
      <trkpt lat="43.37473" lon="6.11505">
        <ele>324.79998779297</ele>
        <time>2016-01-27T14:29:48Z</time>
      </trkpt>
      <trkpt lat="43.37473" lon="6.11505">
        <ele>324.79998779297</ele>
        <time>2016-01-27T14:29:50Z</time>
      </trkpt>
      <trkpt lat="43.37473" lon="6.11505">
        <ele>324.79998779297</ele>
        <time>2016-01-27T14:29:52Z</time>
      </trkpt>
      <trkpt lat="43.37473" lon="6.11505">
        <ele>324.60000610352</ele>
        <time>2016-01-27T14:29:54Z</time>
      </trkpt>
      <trkpt lat="43.37473" lon="6.11505">
        <ele>324.39999389648</ele>
        <time>2016-01-27T14:29:56Z</time>
      </trkpt>
      <trkpt lat="43.37473" lon="6.11505">
        <ele>324.60000610352</ele>
        <time>2016-01-27T14:29:58Z</time>
      </trkpt>
      <trkpt lat="43.37473" lon="6.11505">
        <ele>324.79998779297</ele>
        <time>2016-01-27T14:30:00Z</time>
      </trkpt>
      <trkpt lat="43.37473" lon="6.11505">
        <ele>324.79998779297</ele>
        <time>2016-01-27T14:30:01Z</time>
      </trkpt>
      <trkpt lat="43.37473" lon="6.11505">
        <ele>324.79998779297</ele>
        <time>2016-01-27T14:30:02Z</time>
      </trkpt>
      <trkpt lat="43.37473" lon="6.11505">
        <ele>324.79998779297</ele>
        <time>2016-01-27T14:30:04Z</time>
      </trkpt>
      <trkpt lat="43.37473" lon="6.11505">
        <ele>324.60000610352</ele>
        <time>2016-01-27T14:30:06Z</time>
      </trkpt>
      <trkpt lat="43.37473" lon="6.11505">
        <ele>324.79998779297</ele>
        <time>2016-01-27T14:30:08Z</time>
      </trkpt>
      <trkpt lat="43.37473" lon="6.11505">
        <ele>325</ele>
        <time>2016-01-27T14:30:10Z</time>
      </trkpt>
      <trkpt lat="43.37473" lon="6.11505">
        <ele>325</ele>
        <time>2016-01-27T14:30:12Z</time>
      </trkpt>
      <trkpt lat="43.37473" lon="6.11505">
        <ele>325</ele>
        <time>2016-01-27T14:30:14Z</time>
      </trkpt>
      <trkpt lat="43.37473" lon="6.11505">
        <ele>324.79998779297</ele>
        <time>2016-01-27T14:30:16Z</time>
      </trkpt>
      <trkpt lat="43.37473" lon="6.11505">
        <ele>324.79998779297</ele>
        <time>2016-01-27T14:30:18Z</time>
      </trkpt>
      <trkpt lat="43.37473" lon="6.11505">
        <ele>324.79998779297</ele>
        <time>2016-01-27T14:30:20Z</time>
      </trkpt>
      <trkpt lat="43.37473" lon="6.11505">
        <ele>324.79998779297</ele>
        <time>2016-01-27T14:30:22Z</time>
      </trkpt>
      <trkpt lat="43.37473" lon="6.11505">
        <ele>324.79998779297</ele>
        <time>2016-01-27T14:30:24Z</time>
      </trkpt>
      <trkpt lat="43.37473" lon="6.11505">
        <ele>325</ele>
        <time>2016-01-27T14:30:26Z</time>
      </trkpt>
      <trkpt lat="43.37473" lon="6.11505">
        <ele>325</ele>
        <time>2016-01-27T14:30:28Z</time>
      </trkpt>
      <trkpt lat="43.37473" lon="6.11505">
        <ele>325</ele>
        <time>2016-01-27T14:30:30Z</time>
      </trkpt>
      <trkpt lat="43.37473" lon="6.11505">
        <ele>324.79998779297</ele>
        <time>2016-01-27T14:30:32Z</time>
      </trkpt>
      <trkpt lat="43.37473" lon="6.11505">
        <ele>324.79998779297</ele>
        <time>2016-01-27T14:30:36Z</time>
      </trkpt>
      <trkpt lat="43.37473" lon="6.11505">
        <ele>325</ele>
        <time>2016-01-27T14:30:38Z</time>
      </trkpt>
      <trkpt lat="43.37473" lon="6.11505">
        <ele>324.60000610352</ele>
        <time>2016-01-27T14:30:40Z</time>
      </trkpt>
      <trkpt lat="43.37473" lon="6.11505">
        <ele>324.60000610352</ele>
        <time>2016-01-27T14:30:42Z</time>
      </trkpt>
      <trkpt lat="43.37473" lon="6.11505">
        <ele>324.79998779297</ele>
        <time>2016-01-27T14:30:44Z</time>
      </trkpt>
      <trkpt lat="43.37473" lon="6.11505">
        <ele>324.79998779297</ele>
        <time>2016-01-27T14:30:46Z</time>
      </trkpt>
      <trkpt lat="43.37473" lon="6.11505">
        <ele>325</ele>
        <time>2016-01-27T14:30:48Z</time>
      </trkpt>
      <trkpt lat="43.37473" lon="6.11505">
        <ele>324.79998779297</ele>
        <time>2016-01-27T14:30:50Z</time>
      </trkpt>
      <trkpt lat="43.37473" lon="6.11505">
        <ele>324.79998779297</ele>
        <time>2016-01-27T14:30:52Z</time>
      </trkpt>
      <trkpt lat="43.37473" lon="6.11505">
        <ele>324.79998779297</ele>
        <time>2016-01-27T14:30:54Z</time>
      </trkpt>
      <trkpt lat="43.37473" lon="6.11505">
        <ele>324.79998779297</ele>
        <time>2016-01-27T14:30:56Z</time>
      </trkpt>
      <trkpt lat="43.37473" lon="6.11505">
        <ele>324.79998779297</ele>
        <time>2016-01-27T14:30:58Z</time>
      </trkpt>
      <trkpt lat="43.37473" lon="6.11505">
        <ele>324.79998779297</ele>
        <time>2016-01-27T14:31:02Z</time>
      </trkpt>
      <trkpt lat="43.37473" lon="6.11506">
        <ele>324.79998779297</ele>
        <time>2016-01-27T14:31:04Z</time>
      </trkpt>
      <trkpt lat="43.37473" lon="6.11506">
        <ele>324.79998779297</ele>
        <time>2016-01-27T14:31:06Z</time>
      </trkpt>
      <trkpt lat="43.37473" lon="6.11506">
        <ele>324.79998779297</ele>
        <time>2016-01-27T14:31:08Z</time>
      </trkpt>
      <trkpt lat="43.37473" lon="6.11506">
        <ele>325</ele>
        <time>2016-01-27T14:31:10Z</time>
      </trkpt>
      <trkpt lat="43.37473" lon="6.11506">
        <ele>324.79998779297</ele>
        <time>2016-01-27T14:31:12Z</time>
      </trkpt>
      <trkpt lat="43.37473" lon="6.11506">
        <ele>324.79998779297</ele>
        <time>2016-01-27T14:31:14Z</time>
      </trkpt>
      <trkpt lat="43.37473" lon="6.11506">
        <ele>325</ele>
        <time>2016-01-27T14:31:16Z</time>
      </trkpt>
      <trkpt lat="43.37473" lon="6.11506">
        <ele>324.79998779297</ele>
        <time>2016-01-27T14:31:18Z</time>
      </trkpt>
      <trkpt lat="43.37473" lon="6.11506">
        <ele>325</ele>
        <time>2016-01-27T14:31:20Z</time>
      </trkpt>
      <trkpt lat="43.37473" lon="6.11506">
        <ele>325</ele>
        <time>2016-01-27T14:31:22Z</time>
      </trkpt>
      <trkpt lat="43.37473" lon="6.11506">
        <ele>325</ele>
        <time>2016-01-27T14:31:24Z</time>
      </trkpt>
      <trkpt lat="43.37473" lon="6.11506">
        <ele>325.20001220703</ele>
        <time>2016-01-27T14:31:26Z</time>
      </trkpt>
      <trkpt lat="43.37473" lon="6.11506">
        <ele>325</ele>
        <time>2016-01-27T14:31:28Z</time>
      </trkpt>
      <trkpt lat="43.37473" lon="6.11506">
        <ele>324.79998779297</ele>
        <time>2016-01-27T14:31:30Z</time>
      </trkpt>
      <trkpt lat="43.37473" lon="6.11506">
        <ele>324.79998779297</ele>
        <time>2016-01-27T14:31:32Z</time>
      </trkpt>
      <trkpt lat="43.37473" lon="6.11506">
        <ele>325</ele>
        <time>2016-01-27T14:31:34Z</time>
      </trkpt>
      <trkpt lat="43.37473" lon="6.11506">
        <ele>325</ele>
        <time>2016-01-27T14:31:36Z</time>
      </trkpt>
      <trkpt lat="43.37473" lon="6.11506">
        <ele>325</ele>
        <time>2016-01-27T14:31:38Z</time>
      </trkpt>
      <trkpt lat="43.37473" lon="6.11506">
        <ele>325</ele>
        <time>2016-01-27T14:31:40Z</time>
      </trkpt>
      <trkpt lat="43.37473" lon="6.11506">
        <ele>325</ele>
        <time>2016-01-27T14:31:42Z</time>
      </trkpt>
      <trkpt lat="43.37473" lon="6.11506">
        <ele>325</ele>
        <time>2016-01-27T14:31:44Z</time>
      </trkpt>
      <trkpt lat="43.37473" lon="6.11506">
        <ele>325.20001220703</ele>
        <time>2016-01-27T14:31:46Z</time>
      </trkpt>
      <trkpt lat="43.37473" lon="6.11506">
        <ele>325</ele>
        <time>2016-01-27T14:31:48Z</time>
      </trkpt>
      <trkpt lat="43.37473" lon="6.11506">
        <ele>325.20001220703</ele>
        <time>2016-01-27T14:31:50Z</time>
      </trkpt>
      <trkpt lat="43.37473" lon="6.11506">
        <ele>325</ele>
        <time>2016-01-27T14:31:52Z</time>
      </trkpt>
      <trkpt lat="43.37473" lon="6.11507">
        <ele>325</ele>
        <time>2016-01-27T14:31:54Z</time>
      </trkpt>
      <trkpt lat="43.37473" lon="6.11507">
        <ele>325</ele>
        <time>2016-01-27T14:31:56Z</time>
      </trkpt>
      <trkpt lat="43.37473" lon="6.11507">
        <ele>325</ele>
        <time>2016-01-27T14:31:58Z</time>
      </trkpt>
      <trkpt lat="43.37473" lon="6.11507">
        <ele>324.79998779297</ele>
        <time>2016-01-27T14:32:00Z</time>
      </trkpt>
      <trkpt lat="43.37473" lon="6.11507">
        <ele>324.79998779297</ele>
        <time>2016-01-27T14:32:02Z</time>
      </trkpt>
      <trkpt lat="43.37473" lon="6.11507">
        <ele>325</ele>
        <time>2016-01-27T14:32:04Z</time>
      </trkpt>
      <trkpt lat="43.37473" lon="6.11507">
        <ele>325</ele>
        <time>2016-01-27T14:32:06Z</time>
      </trkpt>
      <trkpt lat="43.37473" lon="6.11507">
        <ele>325.20001220703</ele>
        <time>2016-01-27T14:32:08Z</time>
      </trkpt>
      <trkpt lat="43.37473" lon="6.11507">
        <ele>325</ele>
        <time>2016-01-27T14:32:10Z</time>
      </trkpt>
      <trkpt lat="43.37473" lon="6.11507">
        <ele>325</ele>
        <time>2016-01-27T14:32:12Z</time>
      </trkpt>
      <trkpt lat="43.37473" lon="6.11507">
        <ele>325</ele>
        <time>2016-01-27T14:32:14Z</time>
      </trkpt>
      <trkpt lat="43.37473" lon="6.11507">
        <ele>325.20001220703</ele>
        <time>2016-01-27T14:32:16Z</time>
      </trkpt>
      <trkpt lat="43.37473" lon="6.11507">
        <ele>325.20001220703</ele>
        <time>2016-01-27T14:32:18Z</time>
      </trkpt>
      <trkpt lat="43.37473" lon="6.11507">
        <ele>324.79998779297</ele>
        <time>2016-01-27T14:32:20Z</time>
      </trkpt>
      <trkpt lat="43.37473" lon="6.11507">
        <ele>325</ele>
        <time>2016-01-27T14:32:22Z</time>
      </trkpt>
      <trkpt lat="43.37473" lon="6.11507">
        <ele>325</ele>
        <time>2016-01-27T14:32:24Z</time>
      </trkpt>
      <trkpt lat="43.37473" lon="6.11507">
        <ele>325</ele>
        <time>2016-01-27T14:32:26Z</time>
      </trkpt>
      <trkpt lat="43.37473" lon="6.11507">
        <ele>325</ele>
        <time>2016-01-27T14:32:28Z</time>
      </trkpt>
      <trkpt lat="43.37473" lon="6.11507">
        <ele>325</ele>
        <time>2016-01-27T14:32:30Z</time>
      </trkpt>
      <trkpt lat="43.37473" lon="6.11507">
        <ele>325</ele>
        <time>2016-01-27T14:32:32Z</time>
      </trkpt>
      <trkpt lat="43.37473" lon="6.11507">
        <ele>325.20001220703</ele>
        <time>2016-01-27T14:32:34Z</time>
      </trkpt>
      <trkpt lat="43.37473" lon="6.11507">
        <ele>324.79998779297</ele>
        <time>2016-01-27T14:32:36Z</time>
      </trkpt>
      <trkpt lat="43.37473" lon="6.11507">
        <ele>324.79998779297</ele>
        <time>2016-01-27T14:32:38Z</time>
      </trkpt>
      <trkpt lat="43.37473" lon="6.11507">
        <ele>325</ele>
        <time>2016-01-27T14:32:39Z</time>
      </trkpt>
      <trkpt lat="43.37473" lon="6.11507">
        <ele>325</ele>
        <time>2016-01-27T14:32:40Z</time>
      </trkpt>
      <trkpt lat="43.37473" lon="6.11507">
        <ele>325.20001220703</ele>
        <time>2016-01-27T14:32:42Z</time>
      </trkpt>
      <trkpt lat="43.37473" lon="6.11507">
        <ele>325.20001220703</ele>
        <time>2016-01-27T14:32:44Z</time>
      </trkpt>
      <trkpt lat="43.37473" lon="6.11507">
        <ele>325</ele>
        <time>2016-01-27T14:32:46Z</time>
      </trkpt>
      <trkpt lat="43.37473" lon="6.11507">
        <ele>325</ele>
        <time>2016-01-27T14:32:48Z</time>
      </trkpt>
      <trkpt lat="43.37473" lon="6.11507">
        <ele>325</ele>
        <time>2016-01-27T14:32:50Z</time>
      </trkpt>
      <trkpt lat="43.37473" lon="6.11508">
        <ele>325.20001220703</ele>
        <time>2016-01-27T14:32:52Z</time>
      </trkpt>
      <trkpt lat="43.37473" lon="6.11508">
        <ele>325</ele>
        <time>2016-01-27T14:32:53Z</time>
      </trkpt>
      <trkpt lat="43.37473" lon="6.11508">
        <ele>325</ele>
        <time>2016-01-27T14:32:54Z</time>
      </trkpt>
      <trkpt lat="43.37472" lon="6.11508">
        <ele>325.20001220703</ele>
        <time>2016-01-27T14:32:56Z</time>
      </trkpt>
      <trkpt lat="43.37473" lon="6.11508">
        <ele>325.20001220703</ele>
        <time>2016-01-27T14:32:58Z</time>
      </trkpt>
      <trkpt lat="43.37473" lon="6.11508">
        <ele>325.20001220703</ele>
        <time>2016-01-27T14:33:00Z</time>
      </trkpt>
      <trkpt lat="43.37472" lon="6.11508">
        <ele>325</ele>
        <time>2016-01-27T14:33:02Z</time>
      </trkpt>
      <trkpt lat="43.37472" lon="6.11508">
        <ele>325.20001220703</ele>
        <time>2016-01-27T14:33:04Z</time>
      </trkpt>
      <trkpt lat="43.37472" lon="6.11508">
        <ele>325.20001220703</ele>
        <time>2016-01-27T14:33:06Z</time>
      </trkpt>
      <trkpt lat="43.37472" lon="6.11508">
        <ele>325.20001220703</ele>
        <time>2016-01-27T14:33:07Z</time>
      </trkpt>
      <trkpt lat="43.37472" lon="6.11508">
        <ele>325</ele>
        <time>2016-01-27T14:33:08Z</time>
      </trkpt>
      <trkpt lat="43.37472" lon="6.11508">
        <ele>325</ele>
        <time>2016-01-27T14:33:10Z</time>
      </trkpt>
      <trkpt lat="43.37472" lon="6.11508">
        <ele>325.20001220703</ele>
        <time>2016-01-27T14:33:12Z</time>
      </trkpt>
      <trkpt lat="43.37472" lon="6.11508">
        <ele>325</ele>
        <time>2016-01-27T14:33:14Z</time>
      </trkpt>
      <trkpt lat="43.37472" lon="6.11508">
        <ele>325</ele>
        <time>2016-01-27T14:33:16Z</time>
      </trkpt>
      <trkpt lat="43.37472" lon="6.11508">
        <ele>325</ele>
        <time>2016-01-27T14:33:18Z</time>
      </trkpt>
      <trkpt lat="43.37473" lon="6.11508">
        <ele>325</ele>
        <time>2016-01-27T14:33:20Z</time>
      </trkpt>
      <trkpt lat="43.37473" lon="6.11508">
        <ele>325</ele>
        <time>2016-01-27T14:33:22Z</time>
      </trkpt>
      <trkpt lat="43.37473" lon="6.1151">
        <ele>325</ele>
        <time>2016-01-27T14:33:24Z</time>
      </trkpt>
      <trkpt lat="43.37473" lon="6.11512">
        <ele>325.20001220703</ele>
        <time>2016-01-27T14:33:25Z</time>
      </trkpt>
      <trkpt lat="43.37473" lon="6.11514">
        <ele>325.39999389648</ele>
        <time>2016-01-27T14:33:26Z</time>
      </trkpt>
      <trkpt lat="43.37472" lon="6.11515">
        <ele>325.39999389648</ele>
        <time>2016-01-27T14:33:27Z</time>
      </trkpt>
      <trkpt lat="43.37472" lon="6.11517">
        <ele>325.39999389648</ele>
        <time>2016-01-27T14:33:28Z</time>
      </trkpt>
      <trkpt lat="43.37472" lon="6.11519">
        <ele>325.20001220703</ele>
        <time>2016-01-27T14:33:30Z</time>
      </trkpt>
      <trkpt lat="43.37472" lon="6.11521">
        <ele>325.39999389648</ele>
        <time>2016-01-27T14:33:31Z</time>
      </trkpt>
      <trkpt lat="43.37472" lon="6.11523">
        <ele>325.39999389648</ele>
        <time>2016-01-27T14:33:32Z</time>
      </trkpt>
      <trkpt lat="43.37472" lon="6.11524">
        <ele>325.20001220703</ele>
        <time>2016-01-27T14:33:33Z</time>
      </trkpt>
      <trkpt lat="43.37472" lon="6.11526">
        <ele>325</ele>
        <time>2016-01-27T14:33:34Z</time>
      </trkpt>
      <trkpt lat="43.37471" lon="6.11529">
        <ele>325.60000610352</ele>
        <time>2016-01-27T14:33:36Z</time>
      </trkpt>
      <trkpt lat="43.37471" lon="6.1153">
        <ele>325.60000610352</ele>
        <time>2016-01-27T14:33:37Z</time>
      </trkpt>
      <trkpt lat="43.37471" lon="6.11532">
        <ele>325.60000610352</ele>
        <time>2016-01-27T14:33:38Z</time>
      </trkpt>
      <trkpt lat="43.37471" lon="6.11534">
        <ele>325.60000610352</ele>
        <time>2016-01-27T14:33:39Z</time>
      </trkpt>
      <trkpt lat="43.37471" lon="6.11536">
        <ele>325.60000610352</ele>
        <time>2016-01-27T14:33:40Z</time>
      </trkpt>
      <trkpt lat="43.37472" lon="6.11539">
        <ele>325.39999389648</ele>
        <time>2016-01-27T14:33:42Z</time>
      </trkpt>
      <trkpt lat="43.37471" lon="6.11542">
        <ele>325.60000610352</ele>
        <time>2016-01-27T14:33:44Z</time>
      </trkpt>
      <trkpt lat="43.37471" lon="6.11545">
        <ele>325.60000610352</ele>
        <time>2016-01-27T14:33:46Z</time>
      </trkpt>
      <trkpt lat="43.37471" lon="6.11549">
        <ele>325.60000610352</ele>
        <time>2016-01-27T14:33:48Z</time>
      </trkpt>
      <trkpt lat="43.3747" lon="6.11554">
        <ele>325.60000610352</ele>
        <time>2016-01-27T14:33:50Z</time>
      </trkpt>
      <trkpt lat="43.37469" lon="6.11558">
        <ele>325.79998779297</ele>
        <time>2016-01-27T14:33:52Z</time>
      </trkpt>
      <trkpt lat="43.37468" lon="6.11563">
        <ele>326</ele>
        <time>2016-01-27T14:33:54Z</time>
      </trkpt>
      <trkpt lat="43.37467" lon="6.11569">
        <ele>326.20001220703</ele>
        <time>2016-01-27T14:33:56Z</time>
      </trkpt>
      <trkpt lat="43.37467" lon="6.11572">
        <ele>326.20001220703</ele>
        <time>2016-01-27T14:33:57Z</time>
      </trkpt>
      <trkpt lat="43.37466" lon="6.11574">
        <ele>326.20001220703</ele>
        <time>2016-01-27T14:33:58Z</time>
      </trkpt>
      <trkpt lat="43.37466" lon="6.11579">
        <ele>326.39999389648</ele>
        <time>2016-01-27T14:34:00Z</time>
      </trkpt>
      <trkpt lat="43.37466" lon="6.11583">
        <ele>326.39999389648</ele>
        <time>2016-01-27T14:34:02Z</time>
      </trkpt>
      <trkpt lat="43.37466" lon="6.11585">
        <ele>326.20001220703</ele>
        <time>2016-01-27T14:34:03Z</time>
      </trkpt>
      <trkpt lat="43.37465" lon="6.11588">
        <ele>326.20001220703</ele>
        <time>2016-01-27T14:34:04Z</time>
      </trkpt>
      <trkpt lat="43.37465" lon="6.11593">
        <ele>326.39999389648</ele>
        <time>2016-01-27T14:34:06Z</time>
      </trkpt>
      <trkpt lat="43.37464" lon="6.11597">
        <ele>326.39999389648</ele>
        <time>2016-01-27T14:34:08Z</time>
      </trkpt>
      <trkpt lat="43.37464" lon="6.116">
        <ele>326.60000610352</ele>
        <time>2016-01-27T14:34:09Z</time>
      </trkpt>
      <trkpt lat="43.37463" lon="6.11602">
        <ele>326.60000610352</ele>
        <time>2016-01-27T14:34:10Z</time>
      </trkpt>
      <trkpt lat="43.37463" lon="6.11608">
        <ele>327</ele>
        <time>2016-01-27T14:34:12Z</time>
      </trkpt>
      <trkpt lat="43.37462" lon="6.11613">
        <ele>326.79998779297</ele>
        <time>2016-01-27T14:34:14Z</time>
      </trkpt>
      <trkpt lat="43.37461" lon="6.11617">
        <ele>327</ele>
        <time>2016-01-27T14:34:16Z</time>
      </trkpt>
      <trkpt lat="43.3746" lon="6.11622">
        <ele>327.20001220703</ele>
        <time>2016-01-27T14:34:18Z</time>
      </trkpt>
      <trkpt lat="43.37459" lon="6.11624">
        <ele>327.20001220703</ele>
        <time>2016-01-27T14:34:19Z</time>
      </trkpt>
      <trkpt lat="43.37458" lon="6.11626">
        <ele>327.20001220703</ele>
        <time>2016-01-27T14:34:20Z</time>
      </trkpt>
      <trkpt lat="43.37457" lon="6.1163">
        <ele>327.39999389648</ele>
        <time>2016-01-27T14:34:22Z</time>
      </trkpt>
      <trkpt lat="43.37456" lon="6.11635">
        <ele>327.60000610352</ele>
        <time>2016-01-27T14:34:24Z</time>
      </trkpt>
      <trkpt lat="43.37456" lon="6.11637">
        <ele>327.60000610352</ele>
        <time>2016-01-27T14:34:25Z</time>
      </trkpt>
      <trkpt lat="43.37455" lon="6.11639">
        <ele>327.60000610352</ele>
        <time>2016-01-27T14:34:26Z</time>
      </trkpt>
      <trkpt lat="43.37455" lon="6.11641">
        <ele>327.60000610352</ele>
        <time>2016-01-27T14:34:27Z</time>
      </trkpt>
      <trkpt lat="43.37454" lon="6.11643">
        <ele>327.79998779297</ele>
        <time>2016-01-27T14:34:28Z</time>
      </trkpt>
      <trkpt lat="43.37454" lon="6.11647">
        <ele>328</ele>
        <time>2016-01-27T14:34:30Z</time>
      </trkpt>
      <trkpt lat="43.37453" lon="6.11651">
        <ele>328</ele>
        <time>2016-01-27T14:34:31Z</time>
      </trkpt>
      <trkpt lat="43.37452" lon="6.11653">
        <ele>328</ele>
        <time>2016-01-27T14:34:32Z</time>
      </trkpt>
      <trkpt lat="43.37451" lon="6.1166">
        <ele>328.20001220703</ele>
        <time>2016-01-27T14:34:34Z</time>
      </trkpt>
      <trkpt lat="43.3745" lon="6.11665">
        <ele>328</ele>
        <time>2016-01-27T14:34:36Z</time>
      </trkpt>
      <trkpt lat="43.3745" lon="6.11669">
        <ele>328.39999389648</ele>
        <time>2016-01-27T14:34:37Z</time>
      </trkpt>
      <trkpt lat="43.3745" lon="6.11671">
        <ele>328.39999389648</ele>
        <time>2016-01-27T14:34:38Z</time>
      </trkpt>
      <trkpt lat="43.37449" lon="6.11679">
        <ele>329</ele>
        <time>2016-01-27T14:34:40Z</time>
      </trkpt>
      <trkpt lat="43.37449" lon="6.11687">
        <ele>329.79998779297</ele>
        <time>2016-01-27T14:34:42Z</time>
      </trkpt>
      <trkpt lat="43.37448" lon="6.1169">
        <ele>330.39999389648</ele>
        <time>2016-01-27T14:34:43Z</time>
      </trkpt>
      <trkpt lat="43.37449" lon="6.11693">
        <ele>330.60000610352</ele>
        <time>2016-01-27T14:34:44Z</time>
      </trkpt>
      <trkpt lat="43.37447" lon="6.117">
        <ele>330.20001220703</ele>
        <time>2016-01-27T14:34:46Z</time>
      </trkpt>
      <trkpt lat="43.37447" lon="6.11703">
        <ele>330.20001220703</ele>
        <time>2016-01-27T14:34:47Z</time>
      </trkpt>
      <trkpt lat="43.37447" lon="6.11706">
        <ele>330.20001220703</ele>
        <time>2016-01-27T14:34:48Z</time>
      </trkpt>
      <trkpt lat="43.37446" lon="6.11711">
        <ele>330.79998779297</ele>
        <time>2016-01-27T14:34:50Z</time>
      </trkpt>
      <trkpt lat="43.37445" lon="6.11718">
        <ele>331</ele>
        <time>2016-01-27T14:34:52Z</time>
      </trkpt>
      <trkpt lat="43.37445" lon="6.11721">
        <ele>331</ele>
        <time>2016-01-27T14:34:53Z</time>
      </trkpt>
      <trkpt lat="43.37445" lon="6.11724">
        <ele>331.20001220703</ele>
        <time>2016-01-27T14:34:54Z</time>
      </trkpt>
      <trkpt lat="43.37444" lon="6.11731">
        <ele>331.20001220703</ele>
        <time>2016-01-27T14:34:56Z</time>
      </trkpt>
      <trkpt lat="43.37444" lon="6.11737">
        <ele>331.20001220703</ele>
        <time>2016-01-27T14:34:58Z</time>
      </trkpt>
      <trkpt lat="43.37444" lon="6.1174">
        <ele>331.20001220703</ele>
        <time>2016-01-27T14:34:59Z</time>
      </trkpt>
      <trkpt lat="43.37444" lon="6.11744">
        <ele>331.39999389648</ele>
        <time>2016-01-27T14:35:00Z</time>
      </trkpt>
      <trkpt lat="43.37443" lon="6.11751">
        <ele>331.39999389648</ele>
        <time>2016-01-27T14:35:02Z</time>
      </trkpt>
      <trkpt lat="43.37443" lon="6.11757">
        <ele>331.79998779297</ele>
        <time>2016-01-27T14:35:04Z</time>
      </trkpt>
      <trkpt lat="43.37441" lon="6.11763">
        <ele>332</ele>
        <time>2016-01-27T14:35:06Z</time>
      </trkpt>
      <trkpt lat="43.3744" lon="6.11769">
        <ele>332.20001220703</ele>
        <time>2016-01-27T14:35:08Z</time>
      </trkpt>
      <trkpt lat="43.37439" lon="6.11774">
        <ele>332.79998779297</ele>
        <time>2016-01-27T14:35:10Z</time>
      </trkpt>
      <trkpt lat="43.37439" lon="6.1178">
        <ele>332.60000610352</ele>
        <time>2016-01-27T14:35:12Z</time>
      </trkpt>
      <trkpt lat="43.37439" lon="6.11786">
        <ele>332.79998779297</ele>
        <time>2016-01-27T14:35:14Z</time>
      </trkpt>
      <trkpt lat="43.37438" lon="6.1179">
        <ele>333.20001220703</ele>
        <time>2016-01-27T14:35:16Z</time>
      </trkpt>
      <trkpt lat="43.37437" lon="6.11795">
        <ele>333.20001220703</ele>
        <time>2016-01-27T14:35:18Z</time>
      </trkpt>
      <trkpt lat="43.37436" lon="6.11799">
        <ele>333.39999389648</ele>
        <time>2016-01-27T14:35:20Z</time>
      </trkpt>
      <trkpt lat="43.37436" lon="6.11805">
        <ele>334</ele>
        <time>2016-01-27T14:35:22Z</time>
      </trkpt>
      <trkpt lat="43.37435" lon="6.1181">
        <ele>334.20001220703</ele>
        <time>2016-01-27T14:35:24Z</time>
      </trkpt>
      <trkpt lat="43.37434" lon="6.11812">
        <ele>334.39999389648</ele>
        <time>2016-01-27T14:35:25Z</time>
      </trkpt>
      <trkpt lat="43.37434" lon="6.11814">
        <ele>334.39999389648</ele>
        <time>2016-01-27T14:35:26Z</time>
      </trkpt>
      <trkpt lat="43.37434" lon="6.11819">
        <ele>334.79998779297</ele>
        <time>2016-01-27T14:35:28Z</time>
      </trkpt>
      <trkpt lat="43.37433" lon="6.11824">
        <ele>334.60000610352</ele>
        <time>2016-01-27T14:35:30Z</time>
      </trkpt>
      <trkpt lat="43.37432" lon="6.11828">
        <ele>334.79998779297</ele>
        <time>2016-01-27T14:35:32Z</time>
      </trkpt>
      <trkpt lat="43.37432" lon="6.11832">
        <ele>334.79998779297</ele>
        <time>2016-01-27T14:35:34Z</time>
      </trkpt>
      <trkpt lat="43.37432" lon="6.11834">
        <ele>334.79998779297</ele>
        <time>2016-01-27T14:35:35Z</time>
      </trkpt>
      <trkpt lat="43.37431" lon="6.11837">
        <ele>335</ele>
        <time>2016-01-27T14:35:36Z</time>
      </trkpt>
      <trkpt lat="43.3743" lon="6.11841">
        <ele>335</ele>
        <time>2016-01-27T14:35:38Z</time>
      </trkpt>
      <trkpt lat="43.37429" lon="6.11847">
        <ele>335</ele>
        <time>2016-01-27T14:35:40Z</time>
      </trkpt>
      <trkpt lat="43.37427" lon="6.11852">
        <ele>335.20001220703</ele>
        <time>2016-01-27T14:35:42Z</time>
      </trkpt>
      <trkpt lat="43.37426" lon="6.11856">
        <ele>335.39999389648</ele>
        <time>2016-01-27T14:35:44Z</time>
      </trkpt>
      <trkpt lat="43.37425" lon="6.1186">
        <ele>335.39999389648</ele>
        <time>2016-01-27T14:35:46Z</time>
      </trkpt>
      <trkpt lat="43.37424" lon="6.11864">
        <ele>335.60000610352</ele>
        <time>2016-01-27T14:35:48Z</time>
      </trkpt>
      <trkpt lat="43.37424" lon="6.11868">
        <ele>335.60000610352</ele>
        <time>2016-01-27T14:35:50Z</time>
      </trkpt>
      <trkpt lat="43.37422" lon="6.11874">
        <ele>335.39999389648</ele>
        <time>2016-01-27T14:35:52Z</time>
      </trkpt>
      <trkpt lat="43.37421" lon="6.11879">
        <ele>335.39999389648</ele>
        <time>2016-01-27T14:35:54Z</time>
      </trkpt>
      <trkpt lat="43.3742" lon="6.11885">
        <ele>335.60000610352</ele>
        <time>2016-01-27T14:35:56Z</time>
      </trkpt>
      <trkpt lat="43.37418" lon="6.11891">
        <ele>335.79998779297</ele>
        <time>2016-01-27T14:35:58Z</time>
      </trkpt>
      <trkpt lat="43.37418" lon="6.11896">
        <ele>336</ele>
        <time>2016-01-27T14:36:00Z</time>
      </trkpt>
      <trkpt lat="43.37417" lon="6.11898">
        <ele>336.20001220703</ele>
        <time>2016-01-27T14:36:01Z</time>
      </trkpt>
      <trkpt lat="43.37417" lon="6.119">
        <ele>336.39999389648</ele>
        <time>2016-01-27T14:36:02Z</time>
      </trkpt>
      <trkpt lat="43.37417" lon="6.11905">
        <ele>336.79998779297</ele>
        <time>2016-01-27T14:36:04Z</time>
      </trkpt>
      <trkpt lat="43.37416" lon="6.11912">
        <ele>337.39999389648</ele>
        <time>2016-01-27T14:36:06Z</time>
      </trkpt>
      <trkpt lat="43.37416" lon="6.11916">
        <ele>337.60000610352</ele>
        <time>2016-01-27T14:36:07Z</time>
      </trkpt>
      <trkpt lat="43.37415" lon="6.11919">
        <ele>337.39999389648</ele>
        <time>2016-01-27T14:36:08Z</time>
      </trkpt>
      <trkpt lat="43.37414" lon="6.11925">
        <ele>337.39999389648</ele>
        <time>2016-01-27T14:36:10Z</time>
      </trkpt>
      <trkpt lat="43.37413" lon="6.1193">
        <ele>337.60000610352</ele>
        <time>2016-01-27T14:36:12Z</time>
      </trkpt>
      <trkpt lat="43.37412" lon="6.11934">
        <ele>337.79998779297</ele>
        <time>2016-01-27T14:36:14Z</time>
      </trkpt>
      <trkpt lat="43.37411" lon="6.11939">
        <ele>337.79998779297</ele>
        <time>2016-01-27T14:36:16Z</time>
      </trkpt>
      <trkpt lat="43.37411" lon="6.11944">
        <ele>338</ele>
        <time>2016-01-27T14:36:18Z</time>
      </trkpt>
      <trkpt lat="43.37411" lon="6.1195">
        <ele>338.39999389648</ele>
        <time>2016-01-27T14:36:20Z</time>
      </trkpt>
      <trkpt lat="43.37412" lon="6.11955">
        <ele>338.60000610352</ele>
        <time>2016-01-27T14:36:22Z</time>
      </trkpt>
      <trkpt lat="43.37411" lon="6.1196">
        <ele>338.60000610352</ele>
        <time>2016-01-27T14:36:24Z</time>
      </trkpt>
      <trkpt lat="43.37411" lon="6.11965">
        <ele>338.79998779297</ele>
        <time>2016-01-27T14:36:26Z</time>
      </trkpt>
      <trkpt lat="43.37411" lon="6.11967">
        <ele>338.79998779297</ele>
        <time>2016-01-27T14:36:27Z</time>
      </trkpt>
      <trkpt lat="43.37411" lon="6.1197">
        <ele>338.79998779297</ele>
        <time>2016-01-27T14:36:28Z</time>
      </trkpt>
      <trkpt lat="43.37411" lon="6.11976">
        <ele>338.79998779297</ele>
        <time>2016-01-27T14:36:30Z</time>
      </trkpt>
      <trkpt lat="43.37411" lon="6.11982">
        <ele>339</ele>
        <time>2016-01-27T14:36:32Z</time>
      </trkpt>
      <trkpt lat="43.37412" lon="6.11989">
        <ele>339</ele>
        <time>2016-01-27T14:36:34Z</time>
      </trkpt>
      <trkpt lat="43.37411" lon="6.11996">
        <ele>339</ele>
        <time>2016-01-27T14:36:36Z</time>
      </trkpt>
      <trkpt lat="43.37411" lon="6.12002">
        <ele>338.79998779297</ele>
        <time>2016-01-27T14:36:38Z</time>
      </trkpt>
      <trkpt lat="43.37411" lon="6.12008">
        <ele>338.79998779297</ele>
        <time>2016-01-27T14:36:40Z</time>
      </trkpt>
      <trkpt lat="43.37411" lon="6.12015">
        <ele>338.60000610352</ele>
        <time>2016-01-27T14:36:42Z</time>
      </trkpt>
      <trkpt lat="43.37411" lon="6.12022">
        <ele>338.79998779297</ele>
        <time>2016-01-27T14:36:44Z</time>
      </trkpt>
      <trkpt lat="43.37411" lon="6.12028">
        <ele>338.79998779297</ele>
        <time>2016-01-27T14:36:46Z</time>
      </trkpt>
      <trkpt lat="43.37411" lon="6.12032">
        <ele>338.39999389648</ele>
        <time>2016-01-27T14:36:47Z</time>
      </trkpt>
      <trkpt lat="43.37411" lon="6.12036">
        <ele>338.20001220703</ele>
        <time>2016-01-27T14:36:48Z</time>
      </trkpt>
      <trkpt lat="43.37411" lon="6.1204">
        <ele>338.20001220703</ele>
        <time>2016-01-27T14:36:49Z</time>
      </trkpt>
      <trkpt lat="43.37411" lon="6.12043">
        <ele>338</ele>
        <time>2016-01-27T14:36:50Z</time>
      </trkpt>
      <trkpt lat="43.37412" lon="6.12049">
        <ele>338</ele>
        <time>2016-01-27T14:36:52Z</time>
      </trkpt>
      <trkpt lat="43.37412" lon="6.12055">
        <ele>338.39999389648</ele>
        <time>2016-01-27T14:36:54Z</time>
      </trkpt>
      <trkpt lat="43.37412" lon="6.12057">
        <ele>338.39999389648</ele>
        <time>2016-01-27T14:36:55Z</time>
      </trkpt>
      <trkpt lat="43.37411" lon="6.12059">
        <ele>338.39999389648</ele>
        <time>2016-01-27T14:36:56Z</time>
      </trkpt>
      <trkpt lat="43.37411" lon="6.12064">
        <ele>338.39999389648</ele>
        <time>2016-01-27T14:36:58Z</time>
      </trkpt>
      <trkpt lat="43.37411" lon="6.12068">
        <ele>338.60000610352</ele>
        <time>2016-01-27T14:37:00Z</time>
      </trkpt>
      <trkpt lat="43.37411" lon="6.1207">
        <ele>338.79998779297</ele>
        <time>2016-01-27T14:37:01Z</time>
      </trkpt>
      <trkpt lat="43.37412" lon="6.12072">
        <ele>338.79998779297</ele>
        <time>2016-01-27T14:37:02Z</time>
      </trkpt>
      <trkpt lat="43.37413" lon="6.12074">
        <ele>338.79998779297</ele>
        <time>2016-01-27T14:37:04Z</time>
      </trkpt>
      <trkpt lat="43.37413" lon="6.12075">
        <ele>338.79998779297</ele>
        <time>2016-01-27T14:37:05Z</time>
      </trkpt>
      <trkpt lat="43.37413" lon="6.12076">
        <ele>338.79998779297</ele>
        <time>2016-01-27T14:37:06Z</time>
      </trkpt>
      <trkpt lat="43.37414" lon="6.12077">
        <ele>338.79998779297</ele>
        <time>2016-01-27T14:37:08Z</time>
      </trkpt>
      <trkpt lat="43.37414" lon="6.12078">
        <ele>338.60000610352</ele>
        <time>2016-01-27T14:37:10Z</time>
      </trkpt>
      <trkpt lat="43.37414" lon="6.12077">
        <ele>338.79998779297</ele>
        <time>2016-01-27T14:37:12Z</time>
      </trkpt>
      <trkpt lat="43.37414" lon="6.12077">
        <ele>338.79998779297</ele>
        <time>2016-01-27T14:37:14Z</time>
      </trkpt>
      <trkpt lat="43.37414" lon="6.12077">
        <ele>338.79998779297</ele>
        <time>2016-01-27T14:37:15Z</time>
      </trkpt>
      <trkpt lat="43.37414" lon="6.12077">
        <ele>338.60000610352</ele>
        <time>2016-01-27T14:37:16Z</time>
      </trkpt>
      <trkpt lat="43.37414" lon="6.12077">
        <ele>338.60000610352</ele>
        <time>2016-01-27T14:37:18Z</time>
      </trkpt>
      <trkpt lat="43.37414" lon="6.12077">
        <ele>338.60000610352</ele>
        <time>2016-01-27T14:37:20Z</time>
      </trkpt>
      <trkpt lat="43.37414" lon="6.12077">
        <ele>338.60000610352</ele>
        <time>2016-01-27T14:37:22Z</time>
      </trkpt>
      <trkpt lat="43.37414" lon="6.12077">
        <ele>338.60000610352</ele>
        <time>2016-01-27T14:37:24Z</time>
      </trkpt>
      <trkpt lat="43.37414" lon="6.12077">
        <ele>338.60000610352</ele>
        <time>2016-01-27T14:37:26Z</time>
      </trkpt>
      <trkpt lat="43.37414" lon="6.12077">
        <ele>338.60000610352</ele>
        <time>2016-01-27T14:37:28Z</time>
      </trkpt>
      <trkpt lat="43.37414" lon="6.12077">
        <ele>338.60000610352</ele>
        <time>2016-01-27T14:37:30Z</time>
      </trkpt>
      <trkpt lat="43.37414" lon="6.12077">
        <ele>338.60000610352</ele>
        <time>2016-01-27T14:37:32Z</time>
      </trkpt>
      <trkpt lat="43.37414" lon="6.12077">
        <ele>338.60000610352</ele>
        <time>2016-01-27T14:37:34Z</time>
      </trkpt>
      <trkpt lat="43.37414" lon="6.12077">
        <ele>338.60000610352</ele>
        <time>2016-01-27T14:37:36Z</time>
      </trkpt>
      <trkpt lat="43.37414" lon="6.12077">
        <ele>338.79998779297</ele>
        <time>2016-01-27T14:37:38Z</time>
      </trkpt>
      <trkpt lat="43.37414" lon="6.12077">
        <ele>338.39999389648</ele>
        <time>2016-01-27T14:37:40Z</time>
      </trkpt>
      <trkpt lat="43.37414" lon="6.12077">
        <ele>338.60000610352</ele>
        <time>2016-01-27T14:37:42Z</time>
      </trkpt>
      <trkpt lat="43.37414" lon="6.12077">
        <ele>338.60000610352</ele>
        <time>2016-01-27T14:37:44Z</time>
      </trkpt>
      <trkpt lat="43.37414" lon="6.12077">
        <ele>338.39999389648</ele>
        <time>2016-01-27T14:37:46Z</time>
      </trkpt>
      <trkpt lat="43.37414" lon="6.12077">
        <ele>338.39999389648</ele>
        <time>2016-01-27T14:37:48Z</time>
      </trkpt>
      <trkpt lat="43.37414" lon="6.12077">
        <ele>338.39999389648</ele>
        <time>2016-01-27T14:37:50Z</time>
      </trkpt>
      <trkpt lat="43.37414" lon="6.12078">
        <ele>338.60000610352</ele>
        <time>2016-01-27T14:37:52Z</time>
      </trkpt>
      <trkpt lat="43.37414" lon="6.12078">
        <ele>338.60000610352</ele>
        <time>2016-01-27T14:37:54Z</time>
      </trkpt>
      <trkpt lat="43.37414" lon="6.12078">
        <ele>338.60000610352</ele>
        <time>2016-01-27T14:37:56Z</time>
      </trkpt>
      <trkpt lat="43.37414" lon="6.12078">
        <ele>338.60000610352</ele>
        <time>2016-01-27T14:37:58Z</time>
      </trkpt>
      <trkpt lat="43.37414" lon="6.12078">
        <ele>338.60000610352</ele>
        <time>2016-01-27T14:38:00Z</time>
      </trkpt>
      <trkpt lat="43.37414" lon="6.12078">
        <ele>338.60000610352</ele>
        <time>2016-01-27T14:38:02Z</time>
      </trkpt>
      <trkpt lat="43.37414" lon="6.12078">
        <ele>338.60000610352</ele>
        <time>2016-01-27T14:38:04Z</time>
      </trkpt>
      <trkpt lat="43.37414" lon="6.12078">
        <ele>338.39999389648</ele>
        <time>2016-01-27T14:38:06Z</time>
      </trkpt>
      <trkpt lat="43.37414" lon="6.12078">
        <ele>338.39999389648</ele>
        <time>2016-01-27T14:38:08Z</time>
      </trkpt>
      <trkpt lat="43.37414" lon="6.12078">
        <ele>338.39999389648</ele>
        <time>2016-01-27T14:38:10Z</time>
      </trkpt>
      <trkpt lat="43.37414" lon="6.12078">
        <ele>338.60000610352</ele>
        <time>2016-01-27T14:38:12Z</time>
      </trkpt>
      <trkpt lat="43.37414" lon="6.12078">
        <ele>338.60000610352</ele>
        <time>2016-01-27T14:38:14Z</time>
      </trkpt>
      <trkpt lat="43.37414" lon="6.12078">
        <ele>338.60000610352</ele>
        <time>2016-01-27T14:38:16Z</time>
      </trkpt>
      <trkpt lat="43.37414" lon="6.12078">
        <ele>338.60000610352</ele>
        <time>2016-01-27T14:38:18Z</time>
      </trkpt>
      <trkpt lat="43.37414" lon="6.12078">
        <ele>338.60000610352</ele>
        <time>2016-01-27T14:38:20Z</time>
      </trkpt>
      <trkpt lat="43.37414" lon="6.12078">
        <ele>338.60000610352</ele>
        <time>2016-01-27T14:38:22Z</time>
      </trkpt>
      <trkpt lat="43.37414" lon="6.12078">
        <ele>338.60000610352</ele>
        <time>2016-01-27T14:38:24Z</time>
      </trkpt>
      <trkpt lat="43.37414" lon="6.12078">
        <ele>338.60000610352</ele>
        <time>2016-01-27T14:38:26Z</time>
      </trkpt>
      <trkpt lat="43.37414" lon="6.12078">
        <ele>338.60000610352</ele>
        <time>2016-01-27T14:38:28Z</time>
      </trkpt>
      <trkpt lat="43.37414" lon="6.12078">
        <ele>338.60000610352</ele>
        <time>2016-01-27T14:38:30Z</time>
      </trkpt>
      <trkpt lat="43.37414" lon="6.12078">
        <ele>338.79998779297</ele>
        <time>2016-01-27T14:38:32Z</time>
      </trkpt>
      <trkpt lat="43.37414" lon="6.12078">
        <ele>338.79998779297</ele>
        <time>2016-01-27T14:38:34Z</time>
      </trkpt>
      <trkpt lat="43.37414" lon="6.12078">
        <ele>338.79998779297</ele>
        <time>2016-01-27T14:38:36Z</time>
      </trkpt>
      <trkpt lat="43.37414" lon="6.12078">
        <ele>338.79998779297</ele>
        <time>2016-01-27T14:38:38Z</time>
      </trkpt>
      <trkpt lat="43.37414" lon="6.12078">
        <ele>338.79998779297</ele>
        <time>2016-01-27T14:38:40Z</time>
      </trkpt>
      <trkpt lat="43.37414" lon="6.12078">
        <ele>339</ele>
        <time>2016-01-27T14:38:42Z</time>
      </trkpt>
      <trkpt lat="43.37414" lon="6.12078">
        <ele>338.79998779297</ele>
        <time>2016-01-27T14:38:44Z</time>
      </trkpt>
      <trkpt lat="43.37414" lon="6.12078">
        <ele>338.79998779297</ele>
        <time>2016-01-27T14:38:46Z</time>
      </trkpt>
      <trkpt lat="43.37414" lon="6.12078">
        <ele>338.79998779297</ele>
        <time>2016-01-27T14:38:48Z</time>
      </trkpt>
      <trkpt lat="43.37414" lon="6.12078">
        <ele>338.79998779297</ele>
        <time>2016-01-27T14:38:50Z</time>
      </trkpt>
      <trkpt lat="43.37414" lon="6.12078">
        <ele>338.79998779297</ele>
        <time>2016-01-27T14:38:52Z</time>
      </trkpt>
      <trkpt lat="43.37414" lon="6.12078">
        <ele>338.79998779297</ele>
        <time>2016-01-27T14:38:54Z</time>
      </trkpt>
      <trkpt lat="43.37414" lon="6.12078">
        <ele>339</ele>
        <time>2016-01-27T14:38:56Z</time>
      </trkpt>
      <trkpt lat="43.37414" lon="6.12078">
        <ele>339</ele>
        <time>2016-01-27T14:38:58Z</time>
      </trkpt>
      <trkpt lat="43.37414" lon="6.12078">
        <ele>338.79998779297</ele>
        <time>2016-01-27T14:39:00Z</time>
      </trkpt>
      <trkpt lat="43.37414" lon="6.12078">
        <ele>338.79998779297</ele>
        <time>2016-01-27T14:39:02Z</time>
      </trkpt>
      <trkpt lat="43.37414" lon="6.12078">
        <ele>338.79998779297</ele>
        <time>2016-01-27T14:39:04Z</time>
      </trkpt>
      <trkpt lat="43.37414" lon="6.12078">
        <ele>339</ele>
        <time>2016-01-27T14:39:05Z</time>
      </trkpt>
      <trkpt lat="43.37414" lon="6.12078">
        <ele>339</ele>
        <time>2016-01-27T14:39:06Z</time>
      </trkpt>
      <trkpt lat="43.37414" lon="6.12078">
        <ele>338.79998779297</ele>
        <time>2016-01-27T14:39:08Z</time>
      </trkpt>
      <trkpt lat="43.37414" lon="6.12078">
        <ele>338.79998779297</ele>
        <time>2016-01-27T14:39:10Z</time>
      </trkpt>
      <trkpt lat="43.37414" lon="6.12078">
        <ele>338.79998779297</ele>
        <time>2016-01-27T14:39:12Z</time>
      </trkpt>
      <trkpt lat="43.37414" lon="6.12078">
        <ele>338.79998779297</ele>
        <time>2016-01-27T14:39:14Z</time>
      </trkpt>
      <trkpt lat="43.37414" lon="6.12078">
        <ele>338.79998779297</ele>
        <time>2016-01-27T14:39:16Z</time>
      </trkpt>
      <trkpt lat="43.37414" lon="6.12078">
        <ele>338.79998779297</ele>
        <time>2016-01-27T14:39:18Z</time>
      </trkpt>
      <trkpt lat="43.37414" lon="6.12078">
        <ele>338.79998779297</ele>
        <time>2016-01-27T14:39:20Z</time>
      </trkpt>
      <trkpt lat="43.37414" lon="6.12079">
        <ele>338.79998779297</ele>
        <time>2016-01-27T14:39:22Z</time>
      </trkpt>
      <trkpt lat="43.37414" lon="6.12079">
        <ele>338.79998779297</ele>
        <time>2016-01-27T14:39:24Z</time>
      </trkpt>
      <trkpt lat="43.37414" lon="6.12079">
        <ele>338.79998779297</ele>
        <time>2016-01-27T14:39:26Z</time>
      </trkpt>
      <trkpt lat="43.37414" lon="6.12079">
        <ele>338.79998779297</ele>
        <time>2016-01-27T14:39:28Z</time>
      </trkpt>
      <trkpt lat="43.37414" lon="6.12079">
        <ele>338.79998779297</ele>
        <time>2016-01-27T14:39:30Z</time>
      </trkpt>
      <trkpt lat="43.37415" lon="6.12081">
        <ele>339</ele>
        <time>2016-01-27T14:39:32Z</time>
      </trkpt>
      <trkpt lat="43.37419" lon="6.12081">
        <ele>339</ele>
        <time>2016-01-27T14:39:34Z</time>
      </trkpt>
      <trkpt lat="43.37423" lon="6.1208">
        <ele>339.60000610352</ele>
        <time>2016-01-27T14:39:36Z</time>
      </trkpt>
      <trkpt lat="43.37424" lon="6.1208">
        <ele>339.79998779297</ele>
        <time>2016-01-27T14:39:37Z</time>
      </trkpt>
      <trkpt lat="43.37426" lon="6.1208">
        <ele>339.79998779297</ele>
        <time>2016-01-27T14:39:38Z</time>
      </trkpt>
      <trkpt lat="43.37431" lon="6.12081">
        <ele>339.60000610352</ele>
        <time>2016-01-27T14:39:40Z</time>
      </trkpt>
      <trkpt lat="43.37437" lon="6.12083">
        <ele>339.39999389648</ele>
        <time>2016-01-27T14:39:42Z</time>
      </trkpt>
      <trkpt lat="43.37447" lon="6.12081">
        <ele>338.79998779297</ele>
        <time>2016-01-27T14:39:44Z</time>
      </trkpt>
      <trkpt lat="43.37453" lon="6.12079">
        <ele>338.60000610352</ele>
        <time>2016-01-27T14:39:45Z</time>
      </trkpt>
      <trkpt lat="43.37459" lon="6.12076">
        <ele>338.39999389648</ele>
        <time>2016-01-27T14:39:46Z</time>
      </trkpt>
      <trkpt lat="43.3747" lon="6.12069">
        <ele>337.60000610352</ele>
        <time>2016-01-27T14:39:48Z</time>
      </trkpt>
      <trkpt lat="43.37475" lon="6.12065">
        <ele>336.39999389648</ele>
        <time>2016-01-27T14:39:49Z</time>
      </trkpt>
      <trkpt lat="43.37481" lon="6.1206">
        <ele>335.20001220703</ele>
        <time>2016-01-27T14:39:50Z</time>
      </trkpt>
      <trkpt lat="43.37486" lon="6.12055">
        <ele>334.20001220703</ele>
        <time>2016-01-27T14:39:51Z</time>
      </trkpt>
      <trkpt lat="43.3749" lon="6.1205">
        <ele>332.79998779297</ele>
        <time>2016-01-27T14:39:52Z</time>
      </trkpt>
      <trkpt lat="43.37499" lon="6.12042">
        <ele>331.39999389648</ele>
        <time>2016-01-27T14:39:54Z</time>
      </trkpt>
      <trkpt lat="43.37504" lon="6.12038">
        <ele>330.20001220703</ele>
        <time>2016-01-27T14:39:55Z</time>
      </trkpt>
      <trkpt lat="43.37509" lon="6.12033">
        <ele>329.20001220703</ele>
        <time>2016-01-27T14:39:56Z</time>
      </trkpt>
      <trkpt lat="43.37513" lon="6.12028">
        <ele>328.39999389648</ele>
        <time>2016-01-27T14:39:57Z</time>
      </trkpt>
      <trkpt lat="43.37518" lon="6.12023">
        <ele>327</ele>
        <time>2016-01-27T14:39:58Z</time>
      </trkpt>
      <trkpt lat="43.37522" lon="6.12018">
        <ele>326</ele>
        <time>2016-01-27T14:39:59Z</time>
      </trkpt>
      <trkpt lat="43.37527" lon="6.12012">
        <ele>325.39999389648</ele>
        <time>2016-01-27T14:40:00Z</time>
      </trkpt>
      <trkpt lat="43.37532" lon="6.12007">
        <ele>324.79998779297</ele>
        <time>2016-01-27T14:40:01Z</time>
      </trkpt>
      <trkpt lat="43.37537" lon="6.12001">
        <ele>324</ele>
        <time>2016-01-27T14:40:02Z</time>
      </trkpt>
      <trkpt lat="43.37543" lon="6.11996">
        <ele>323</ele>
        <time>2016-01-27T14:40:03Z</time>
      </trkpt>
      <trkpt lat="43.37549" lon="6.11989">
        <ele>322.20001220703</ele>
        <time>2016-01-27T14:40:04Z</time>
      </trkpt>
      <trkpt lat="43.37555" lon="6.11983">
        <ele>321.20001220703</ele>
        <time>2016-01-27T14:40:05Z</time>
      </trkpt>
      <trkpt lat="43.37561" lon="6.11978">
        <ele>320.39999389648</ele>
        <time>2016-01-27T14:40:06Z</time>
      </trkpt>
      <trkpt lat="43.37567" lon="6.11975">
        <ele>319.20001220703</ele>
        <time>2016-01-27T14:40:07Z</time>
      </trkpt>
      <trkpt lat="43.37573" lon="6.11972">
        <ele>318.20001220703</ele>
        <time>2016-01-27T14:40:08Z</time>
      </trkpt>
      <trkpt lat="43.37577" lon="6.11968">
        <ele>317.60000610352</ele>
        <time>2016-01-27T14:40:09Z</time>
      </trkpt>
      <trkpt lat="43.37582" lon="6.11964">
        <ele>317</ele>
        <time>2016-01-27T14:40:10Z</time>
      </trkpt>
      <trkpt lat="43.37587" lon="6.11958">
        <ele>316.20001220703</ele>
        <time>2016-01-27T14:40:11Z</time>
      </trkpt>
      <trkpt lat="43.37592" lon="6.11953">
        <ele>315.39999389648</ele>
        <time>2016-01-27T14:40:12Z</time>
      </trkpt>
      <trkpt lat="43.37595" lon="6.11946">
        <ele>314.60000610352</ele>
        <time>2016-01-27T14:40:13Z</time>
      </trkpt>
      <trkpt lat="43.376" lon="6.11941">
        <ele>314</ele>
        <time>2016-01-27T14:40:14Z</time>
      </trkpt>
      <trkpt lat="43.37603" lon="6.11936">
        <ele>313.20001220703</ele>
        <time>2016-01-27T14:40:15Z</time>
      </trkpt>
      <trkpt lat="43.37608" lon="6.11929">
        <ele>312.39999389648</ele>
        <time>2016-01-27T14:40:16Z</time>
      </trkpt>
      <trkpt lat="43.37611" lon="6.11922">
        <ele>311.60000610352</ele>
        <time>2016-01-27T14:40:17Z</time>
      </trkpt>
      <trkpt lat="43.37616" lon="6.11913">
        <ele>311</ele>
        <time>2016-01-27T14:40:18Z</time>
      </trkpt>
      <trkpt lat="43.37621" lon="6.11905">
        <ele>310.39999389648</ele>
        <time>2016-01-27T14:40:19Z</time>
      </trkpt>
      <trkpt lat="43.37626" lon="6.11897">
        <ele>309.20001220703</ele>
        <time>2016-01-27T14:40:20Z</time>
      </trkpt>
      <trkpt lat="43.37638" lon="6.11878">
        <ele>307.20001220703</ele>
        <time>2016-01-27T14:40:22Z</time>
      </trkpt>
      <trkpt lat="43.37648" lon="6.11863">
        <ele>306</ele>
        <time>2016-01-27T14:40:24Z</time>
      </trkpt>
      <trkpt lat="43.37658" lon="6.11851">
        <ele>304.20001220703</ele>
        <time>2016-01-27T14:40:26Z</time>
      </trkpt>
      <trkpt lat="43.37667" lon="6.11841">
        <ele>303.60000610352</ele>
        <time>2016-01-27T14:40:28Z</time>
      </trkpt>
      <trkpt lat="43.3767" lon="6.11836">
        <ele>303</ele>
        <time>2016-01-27T14:40:29Z</time>
      </trkpt>
      <trkpt lat="43.37674" lon="6.1183">
        <ele>302.79998779297</ele>
        <time>2016-01-27T14:40:30Z</time>
      </trkpt>
      <trkpt lat="43.37679" lon="6.11816">
        <ele>301.20001220703</ele>
        <time>2016-01-27T14:40:32Z</time>
      </trkpt>
      <trkpt lat="43.37682" lon="6.11807">
        <ele>300.60000610352</ele>
        <time>2016-01-27T14:40:33Z</time>
      </trkpt>
      <trkpt lat="43.37685" lon="6.11797">
        <ele>300</ele>
        <time>2016-01-27T14:40:34Z</time>
      </trkpt>
      <trkpt lat="43.37693" lon="6.11778">
        <ele>298.39999389648</ele>
        <time>2016-01-27T14:40:36Z</time>
      </trkpt>
      <trkpt lat="43.37701" lon="6.11762">
        <ele>297.20001220703</ele>
        <time>2016-01-27T14:40:38Z</time>
      </trkpt>
      <trkpt lat="43.37709" lon="6.11744">
        <ele>297</ele>
        <time>2016-01-27T14:40:40Z</time>
      </trkpt>
      <trkpt lat="43.37718" lon="6.11728">
        <ele>297.39999389648</ele>
        <time>2016-01-27T14:40:42Z</time>
      </trkpt>
      <trkpt lat="43.37726" lon="6.1171">
        <ele>297</ele>
        <time>2016-01-27T14:40:44Z</time>
      </trkpt>
      <trkpt lat="43.37735" lon="6.11692">
        <ele>296.39999389648</ele>
        <time>2016-01-27T14:40:46Z</time>
      </trkpt>
      <trkpt lat="43.3774" lon="6.11684">
        <ele>296</ele>
        <time>2016-01-27T14:40:47Z</time>
      </trkpt>
      <trkpt lat="43.37744" lon="6.11674">
        <ele>294.79998779297</ele>
        <time>2016-01-27T14:40:48Z</time>
      </trkpt>
      <trkpt lat="43.37747" lon="6.11666">
        <ele>293.60000610352</ele>
        <time>2016-01-27T14:40:49Z</time>
      </trkpt>
      <trkpt lat="43.3775" lon="6.11657">
        <ele>293.60000610352</ele>
        <time>2016-01-27T14:40:50Z</time>
      </trkpt>
      <trkpt lat="43.37757" lon="6.11641">
        <ele>293.39999389648</ele>
        <time>2016-01-27T14:40:52Z</time>
      </trkpt>
      <trkpt lat="43.37766" lon="6.11625">
        <ele>292.39999389648</ele>
        <time>2016-01-27T14:40:54Z</time>
      </trkpt>
      <trkpt lat="43.37774" lon="6.11611">
        <ele>291.79998779297</ele>
        <time>2016-01-27T14:40:56Z</time>
      </trkpt>
      <trkpt lat="43.3778" lon="6.11605">
        <ele>291</ele>
        <time>2016-01-27T14:40:57Z</time>
      </trkpt>
      <trkpt lat="43.37786" lon="6.11598">
        <ele>290.79998779297</ele>
        <time>2016-01-27T14:40:58Z</time>
      </trkpt>
      <trkpt lat="43.37791" lon="6.11592">
        <ele>290.60000610352</ele>
        <time>2016-01-27T14:40:59Z</time>
      </trkpt>
      <trkpt lat="43.37796" lon="6.11584">
        <ele>290.20001220703</ele>
        <time>2016-01-27T14:41:00Z</time>
      </trkpt>
      <trkpt lat="43.37802" lon="6.11578">
        <ele>289.39999389648</ele>
        <time>2016-01-27T14:41:01Z</time>
      </trkpt>
      <trkpt lat="43.37807" lon="6.11572">
        <ele>288.60000610352</ele>
        <time>2016-01-27T14:41:02Z</time>
      </trkpt>
      <trkpt lat="43.37811" lon="6.11566">
        <ele>288.20001220703</ele>
        <time>2016-01-27T14:41:03Z</time>
      </trkpt>
      <trkpt lat="43.37816" lon="6.11559">
        <ele>288.20001220703</ele>
        <time>2016-01-27T14:41:04Z</time>
      </trkpt>
      <trkpt lat="43.37819" lon="6.11552">
        <ele>288.20001220703</ele>
        <time>2016-01-27T14:41:05Z</time>
      </trkpt>
      <trkpt lat="43.37822" lon="6.11543">
        <ele>288</ele>
        <time>2016-01-27T14:41:06Z</time>
      </trkpt>
      <trkpt lat="43.37829" lon="6.11526">
        <ele>287.60000610352</ele>
        <time>2016-01-27T14:41:08Z</time>
      </trkpt>
      <trkpt lat="43.37837" lon="6.1151">
        <ele>286.79998779297</ele>
        <time>2016-01-27T14:41:10Z</time>
      </trkpt>
      <trkpt lat="43.37843" lon="6.11495">
        <ele>286.20001220703</ele>
        <time>2016-01-27T14:41:12Z</time>
      </trkpt>
      <trkpt lat="43.37845" lon="6.11489">
        <ele>285.60000610352</ele>
        <time>2016-01-27T14:41:13Z</time>
      </trkpt>
      <trkpt lat="43.37848" lon="6.11484">
        <ele>285.20001220703</ele>
        <time>2016-01-27T14:41:14Z</time>
      </trkpt>
      <trkpt lat="43.37851" lon="6.11479">
        <ele>285.20001220703</ele>
        <time>2016-01-27T14:41:15Z</time>
      </trkpt>
      <trkpt lat="43.37857" lon="6.11474">
        <ele>284.79998779297</ele>
        <time>2016-01-27T14:41:16Z</time>
      </trkpt>
      <trkpt lat="43.37862" lon="6.11471">
        <ele>284.39999389648</ele>
        <time>2016-01-27T14:41:17Z</time>
      </trkpt>
      <trkpt lat="43.37867" lon="6.11469">
        <ele>284</ele>
        <time>2016-01-27T14:41:18Z</time>
      </trkpt>
      <trkpt lat="43.37877" lon="6.11468">
        <ele>283.60000610352</ele>
        <time>2016-01-27T14:41:20Z</time>
      </trkpt>
      <trkpt lat="43.37881" lon="6.11466">
        <ele>283.60000610352</ele>
        <time>2016-01-27T14:41:21Z</time>
      </trkpt>
      <trkpt lat="43.37886" lon="6.11464">
        <ele>283.79998779297</ele>
        <time>2016-01-27T14:41:22Z</time>
      </trkpt>
      <trkpt lat="43.37894" lon="6.11459">
        <ele>283.39999389648</ele>
        <time>2016-01-27T14:41:24Z</time>
      </trkpt>
      <trkpt lat="43.37897" lon="6.11456">
        <ele>283.39999389648</ele>
        <time>2016-01-27T14:41:25Z</time>
      </trkpt>
      <trkpt lat="43.37901" lon="6.11452">
        <ele>283.20001220703</ele>
        <time>2016-01-27T14:41:26Z</time>
      </trkpt>
      <trkpt lat="43.37908" lon="6.11445">
        <ele>283</ele>
        <time>2016-01-27T14:41:28Z</time>
      </trkpt>
      <trkpt lat="43.37915" lon="6.11438">
        <ele>282.79998779297</ele>
        <time>2016-01-27T14:41:30Z</time>
      </trkpt>
      <trkpt lat="43.37922" lon="6.11429">
        <ele>282.79998779297</ele>
        <time>2016-01-27T14:41:32Z</time>
      </trkpt>
      <trkpt lat="43.37927" lon="6.11422">
        <ele>283.20001220703</ele>
        <time>2016-01-27T14:41:34Z</time>
      </trkpt>
      <trkpt lat="43.3793" lon="6.11419">
        <ele>283.20001220703</ele>
        <time>2016-01-27T14:41:35Z</time>
      </trkpt>
      <trkpt lat="43.37932" lon="6.11415">
        <ele>283.20001220703</ele>
        <time>2016-01-27T14:41:36Z</time>
      </trkpt>
      <trkpt lat="43.37937" lon="6.11407">
        <ele>282.60000610352</ele>
        <time>2016-01-27T14:41:38Z</time>
      </trkpt>
      <trkpt lat="43.37943" lon="6.11399">
        <ele>282.79998779297</ele>
        <time>2016-01-27T14:41:40Z</time>
      </trkpt>
      <trkpt lat="43.37948" lon="6.11392">
        <ele>282.79998779297</ele>
        <time>2016-01-27T14:41:42Z</time>
      </trkpt>
      <trkpt lat="43.37951" lon="6.11389">
        <ele>282.60000610352</ele>
        <time>2016-01-27T14:41:43Z</time>
      </trkpt>
      <trkpt lat="43.37953" lon="6.11385">
        <ele>282.39999389648</ele>
        <time>2016-01-27T14:41:44Z</time>
      </trkpt>
      <trkpt lat="43.37959" lon="6.11379">
        <ele>282.20001220703</ele>
        <time>2016-01-27T14:41:46Z</time>
      </trkpt>
      <trkpt lat="43.37965" lon="6.11372">
        <ele>282.20001220703</ele>
        <time>2016-01-27T14:41:48Z</time>
      </trkpt>
      <trkpt lat="43.37968" lon="6.11369">
        <ele>282</ele>
        <time>2016-01-27T14:41:49Z</time>
      </trkpt>
      <trkpt lat="43.37971" lon="6.11365">
        <ele>282</ele>
        <time>2016-01-27T14:41:50Z</time>
      </trkpt>
      <trkpt lat="43.37977" lon="6.11358">
        <ele>282.20001220703</ele>
        <time>2016-01-27T14:41:52Z</time>
      </trkpt>
      <trkpt lat="43.37982" lon="6.11351">
        <ele>282.60000610352</ele>
        <time>2016-01-27T14:41:54Z</time>
      </trkpt>
      <trkpt lat="43.37987" lon="6.11343">
        <ele>282.20001220703</ele>
        <time>2016-01-27T14:41:56Z</time>
      </trkpt>
      <trkpt lat="43.37989" lon="6.1134">
        <ele>282.20001220703</ele>
        <time>2016-01-27T14:41:57Z</time>
      </trkpt>
      <trkpt lat="43.37991" lon="6.11336">
        <ele>282.39999389648</ele>
        <time>2016-01-27T14:41:58Z</time>
      </trkpt>
      <trkpt lat="43.37995" lon="6.11329">
        <ele>282.60000610352</ele>
        <time>2016-01-27T14:42:00Z</time>
      </trkpt>
      <trkpt lat="43.37999" lon="6.11321">
        <ele>282.60000610352</ele>
        <time>2016-01-27T14:42:02Z</time>
      </trkpt>
      <trkpt lat="43.38" lon="6.11318">
        <ele>282.79998779297</ele>
        <time>2016-01-27T14:42:03Z</time>
      </trkpt>
      <trkpt lat="43.38003" lon="6.11315">
        <ele>283.20001220703</ele>
        <time>2016-01-27T14:42:04Z</time>
      </trkpt>
      <trkpt lat="43.38007" lon="6.11308">
        <ele>283</ele>
        <time>2016-01-27T14:42:06Z</time>
      </trkpt>
      <trkpt lat="43.38009" lon="6.11305">
        <ele>282.60000610352</ele>
        <time>2016-01-27T14:42:07Z</time>
      </trkpt>
      <trkpt lat="43.38011" lon="6.113">
        <ele>282.39999389648</ele>
        <time>2016-01-27T14:42:08Z</time>
      </trkpt>
      <trkpt lat="43.38015" lon="6.11292">
        <ele>282.39999389648</ele>
        <time>2016-01-27T14:42:10Z</time>
      </trkpt>
      <trkpt lat="43.38019" lon="6.11284">
        <ele>282.60000610352</ele>
        <time>2016-01-27T14:42:12Z</time>
      </trkpt>
      <trkpt lat="43.38021" lon="6.1128">
        <ele>282.60000610352</ele>
        <time>2016-01-27T14:42:13Z</time>
      </trkpt>
      <trkpt lat="43.38024" lon="6.11276">
        <ele>282.79998779297</ele>
        <time>2016-01-27T14:42:14Z</time>
      </trkpt>
      <trkpt lat="43.38028" lon="6.11265">
        <ele>282.60000610352</ele>
        <time>2016-01-27T14:42:16Z</time>
      </trkpt>
      <trkpt lat="43.38032" lon="6.11257">
        <ele>282.60000610352</ele>
        <time>2016-01-27T14:42:18Z</time>
      </trkpt>
      <trkpt lat="43.38034" lon="6.11252">
        <ele>282.20001220703</ele>
        <time>2016-01-27T14:42:19Z</time>
      </trkpt>
      <trkpt lat="43.38037" lon="6.11247">
        <ele>282.39999389648</ele>
        <time>2016-01-27T14:42:20Z</time>
      </trkpt>
      <trkpt lat="43.38041" lon="6.11238">
        <ele>282.60000610352</ele>
        <time>2016-01-27T14:42:22Z</time>
      </trkpt>
      <trkpt lat="43.38044" lon="6.11229">
        <ele>282.39999389648</ele>
        <time>2016-01-27T14:42:24Z</time>
      </trkpt>
      <trkpt lat="43.38048" lon="6.11221">
        <ele>282.60000610352</ele>
        <time>2016-01-27T14:42:26Z</time>
      </trkpt>
      <trkpt lat="43.38052" lon="6.11212">
        <ele>282.79998779297</ele>
        <time>2016-01-27T14:42:28Z</time>
      </trkpt>
      <trkpt lat="43.38057" lon="6.11206">
        <ele>283.39999389648</ele>
        <time>2016-01-27T14:42:30Z</time>
      </trkpt>
      <trkpt lat="43.38062" lon="6.11199">
        <ele>282.79998779297</ele>
        <time>2016-01-27T14:42:32Z</time>
      </trkpt>
      <trkpt lat="43.38064" lon="6.11197">
        <ele>283</ele>
        <time>2016-01-27T14:42:33Z</time>
      </trkpt>
      <trkpt lat="43.38066" lon="6.11194">
        <ele>283</ele>
        <time>2016-01-27T14:42:34Z</time>
      </trkpt>
      <trkpt lat="43.38071" lon="6.1119">
        <ele>283</ele>
        <time>2016-01-27T14:42:36Z</time>
      </trkpt>
      <trkpt lat="43.38074" lon="6.11186">
        <ele>283</ele>
        <time>2016-01-27T14:42:38Z</time>
      </trkpt>
      <trkpt lat="43.38078" lon="6.11182">
        <ele>282.79998779297</ele>
        <time>2016-01-27T14:42:40Z</time>
      </trkpt>
      <trkpt lat="43.38081" lon="6.1118">
        <ele>282.79998779297</ele>
        <time>2016-01-27T14:42:42Z</time>
      </trkpt>
      <trkpt lat="43.38081" lon="6.11179">
        <ele>282.60000610352</ele>
        <time>2016-01-27T14:42:44Z</time>
      </trkpt>
      <trkpt lat="43.38081" lon="6.11179">
        <ele>282.60000610352</ele>
        <time>2016-01-27T14:42:45Z</time>
      </trkpt>
      <trkpt lat="43.38081" lon="6.11178">
        <ele>282.60000610352</ele>
        <time>2016-01-27T14:42:46Z</time>
      </trkpt>
      <trkpt lat="43.38081" lon="6.11178">
        <ele>282.39999389648</ele>
        <time>2016-01-27T14:42:48Z</time>
      </trkpt>
      <trkpt lat="43.38081" lon="6.11178">
        <ele>282.39999389648</ele>
        <time>2016-01-27T14:42:50Z</time>
      </trkpt>
      <trkpt lat="43.38081" lon="6.11178">
        <ele>282.20001220703</ele>
        <time>2016-01-27T14:42:52Z</time>
      </trkpt>
      <trkpt lat="43.38081" lon="6.11178">
        <ele>282.39999389648</ele>
        <time>2016-01-27T14:42:54Z</time>
      </trkpt>
      <trkpt lat="43.38081" lon="6.11178">
        <ele>282.20001220703</ele>
        <time>2016-01-27T14:42:56Z</time>
      </trkpt>
      <trkpt lat="43.38082" lon="6.11176">
        <ele>282.39999389648</ele>
        <time>2016-01-27T14:42:58Z</time>
      </trkpt>
      <trkpt lat="43.38084" lon="6.11175">
        <ele>282.20001220703</ele>
        <time>2016-01-27T14:43:00Z</time>
      </trkpt>
      <trkpt lat="43.38085" lon="6.11174">
        <ele>282</ele>
        <time>2016-01-27T14:43:02Z</time>
      </trkpt>
      <trkpt lat="43.38084" lon="6.11174">
        <ele>282</ele>
        <time>2016-01-27T14:43:04Z</time>
      </trkpt>
      <trkpt lat="43.38085" lon="6.11174">
        <ele>282</ele>
        <time>2016-01-27T14:43:06Z</time>
      </trkpt>
      <trkpt lat="43.38085" lon="6.11174">
        <ele>282</ele>
        <time>2016-01-27T14:43:08Z</time>
      </trkpt>
      <trkpt lat="43.38087" lon="6.11173">
        <ele>281.79998779297</ele>
        <time>2016-01-27T14:43:10Z</time>
      </trkpt>
      <trkpt lat="43.38088" lon="6.11171">
        <ele>281.60000610352</ele>
        <time>2016-01-27T14:43:11Z</time>
      </trkpt>
      <trkpt lat="43.3809" lon="6.11169">
        <ele>281.39999389648</ele>
        <time>2016-01-27T14:43:12Z</time>
      </trkpt>
      <trkpt lat="43.38095" lon="6.11165">
        <ele>281.60000610352</ele>
        <time>2016-01-27T14:43:14Z</time>
      </trkpt>
      <trkpt lat="43.38101" lon="6.11158">
        <ele>281.60000610352</ele>
        <time>2016-01-27T14:43:16Z</time>
      </trkpt>
      <trkpt lat="43.38109" lon="6.11149">
        <ele>281</ele>
        <time>2016-01-27T14:43:18Z</time>
      </trkpt>
      <trkpt lat="43.38117" lon="6.1114">
        <ele>280.79998779297</ele>
        <time>2016-01-27T14:43:20Z</time>
      </trkpt>
      <trkpt lat="43.38122" lon="6.11136">
        <ele>280.60000610352</ele>
        <time>2016-01-27T14:43:21Z</time>
      </trkpt>
      <trkpt lat="43.38127" lon="6.1113">
        <ele>280.20001220703</ele>
        <time>2016-01-27T14:43:22Z</time>
      </trkpt>
      <trkpt lat="43.38136" lon="6.1112">
        <ele>279.79998779297</ele>
        <time>2016-01-27T14:43:24Z</time>
      </trkpt>
      <trkpt lat="43.38145" lon="6.11108">
        <ele>279.39999389648</ele>
        <time>2016-01-27T14:43:26Z</time>
      </trkpt>
      <trkpt lat="43.38148" lon="6.11101">
        <ele>279</ele>
        <time>2016-01-27T14:43:27Z</time>
      </trkpt>
      <trkpt lat="43.38152" lon="6.11094">
        <ele>278.79998779297</ele>
        <time>2016-01-27T14:43:28Z</time>
      </trkpt>
      <trkpt lat="43.38158" lon="6.11078">
        <ele>278.60000610352</ele>
        <time>2016-01-27T14:43:30Z</time>
      </trkpt>
      <trkpt lat="43.38162" lon="6.11063">
        <ele>278</ele>
        <time>2016-01-27T14:43:32Z</time>
      </trkpt>
      <trkpt lat="43.38164" lon="6.11056">
        <ele>277.79998779297</ele>
        <time>2016-01-27T14:43:33Z</time>
      </trkpt>
      <trkpt lat="43.38166" lon="6.11047">
        <ele>277.60000610352</ele>
        <time>2016-01-27T14:43:34Z</time>
      </trkpt>
      <trkpt lat="43.38169" lon="6.11033">
        <ele>277.20001220703</ele>
        <time>2016-01-27T14:43:36Z</time>
      </trkpt>
      <trkpt lat="43.38171" lon="6.11026">
        <ele>277</ele>
        <time>2016-01-27T14:43:37Z</time>
      </trkpt>
      <trkpt lat="43.38173" lon="6.11018">
        <ele>276.60000610352</ele>
        <time>2016-01-27T14:43:38Z</time>
      </trkpt>
      <trkpt lat="43.38174" lon="6.11011">
        <ele>276.39999389648</ele>
        <time>2016-01-27T14:43:39Z</time>
      </trkpt>
      <trkpt lat="43.38175" lon="6.11002">
        <ele>276.20001220703</ele>
        <time>2016-01-27T14:43:40Z</time>
      </trkpt>
      <trkpt lat="43.38179" lon="6.10986">
        <ele>275.79998779297</ele>
        <time>2016-01-27T14:43:42Z</time>
      </trkpt>
      <trkpt lat="43.38182" lon="6.1097">
        <ele>275.20001220703</ele>
        <time>2016-01-27T14:43:44Z</time>
      </trkpt>
      <trkpt lat="43.38186" lon="6.10952">
        <ele>274.79998779297</ele>
        <time>2016-01-27T14:43:46Z</time>
      </trkpt>
      <trkpt lat="43.38189" lon="6.10934">
        <ele>274</ele>
        <time>2016-01-27T14:43:48Z</time>
      </trkpt>
      <trkpt lat="43.38191" lon="6.10926">
        <ele>273.60000610352</ele>
        <time>2016-01-27T14:43:49Z</time>
      </trkpt>
      <trkpt lat="43.38192" lon="6.10918">
        <ele>273.20001220703</ele>
        <time>2016-01-27T14:43:50Z</time>
      </trkpt>
      <trkpt lat="43.38194" lon="6.10906">
        <ele>273.20001220703</ele>
        <time>2016-01-27T14:43:52Z</time>
      </trkpt>
      <trkpt lat="43.38195" lon="6.10899">
        <ele>272.60000610352</ele>
        <time>2016-01-27T14:43:54Z</time>
      </trkpt>
      <trkpt lat="43.38196" lon="6.10896">
        <ele>272.20001220703</ele>
        <time>2016-01-27T14:43:55Z</time>
      </trkpt>
      <trkpt lat="43.38197" lon="6.10894">
        <ele>272</ele>
        <time>2016-01-27T14:43:56Z</time>
      </trkpt>
      <trkpt lat="43.38197" lon="6.10891">
        <ele>272</ele>
        <time>2016-01-27T14:43:58Z</time>
      </trkpt>
      <trkpt lat="43.38198" lon="6.10887">
        <ele>271.79998779297</ele>
        <time>2016-01-27T14:44:00Z</time>
      </trkpt>
      <trkpt lat="43.38198" lon="6.10887">
        <ele>272</ele>
        <time>2016-01-27T14:44:01Z</time>
      </trkpt>
      <trkpt lat="43.38198" lon="6.10888">
        <ele>272</ele>
        <time>2016-01-27T14:44:02Z</time>
      </trkpt>
      <trkpt lat="43.38198" lon="6.10887">
        <ele>272</ele>
        <time>2016-01-27T14:44:04Z</time>
      </trkpt>
      <trkpt lat="43.38198" lon="6.10887">
        <ele>272</ele>
        <time>2016-01-27T14:44:06Z</time>
      </trkpt>
      <trkpt lat="43.38198" lon="6.10887">
        <ele>272</ele>
        <time>2016-01-27T14:44:08Z</time>
      </trkpt>
      <trkpt lat="43.38198" lon="6.10887">
        <ele>272</ele>
        <time>2016-01-27T14:44:10Z</time>
      </trkpt>
      <trkpt lat="43.38198" lon="6.10887">
        <ele>272</ele>
        <time>2016-01-27T14:44:12Z</time>
      </trkpt>
      <trkpt lat="43.38198" lon="6.10887">
        <ele>271.79998779297</ele>
        <time>2016-01-27T14:44:14Z</time>
      </trkpt>
      <trkpt lat="43.38198" lon="6.10887">
        <ele>272</ele>
        <time>2016-01-27T14:44:16Z</time>
      </trkpt>
      <trkpt lat="43.38198" lon="6.10887">
        <ele>272</ele>
        <time>2016-01-27T14:44:18Z</time>
      </trkpt>
      <trkpt lat="43.38198" lon="6.10887">
        <ele>272</ele>
        <time>2016-01-27T14:44:20Z</time>
      </trkpt>
      <trkpt lat="43.38198" lon="6.10887">
        <ele>272</ele>
        <time>2016-01-27T14:44:22Z</time>
      </trkpt>
      <trkpt lat="43.38198" lon="6.10887">
        <ele>271.79998779297</ele>
        <time>2016-01-27T14:44:24Z</time>
      </trkpt>
      <trkpt lat="43.38198" lon="6.10887">
        <ele>271.79998779297</ele>
        <time>2016-01-27T14:44:26Z</time>
      </trkpt>
      <trkpt lat="43.38198" lon="6.10887">
        <ele>271.60000610352</ele>
        <time>2016-01-27T14:44:28Z</time>
      </trkpt>
      <trkpt lat="43.38198" lon="6.10887">
        <ele>271.79998779297</ele>
        <time>2016-01-27T14:44:30Z</time>
      </trkpt>
      <trkpt lat="43.38198" lon="6.10887">
        <ele>271.79998779297</ele>
        <time>2016-01-27T14:44:32Z</time>
      </trkpt>
      <trkpt lat="43.38198" lon="6.10887">
        <ele>272</ele>
        <time>2016-01-27T14:44:34Z</time>
      </trkpt>
      <trkpt lat="43.38198" lon="6.10887">
        <ele>272</ele>
        <time>2016-01-27T14:44:36Z</time>
      </trkpt>
      <trkpt lat="43.38198" lon="6.10887">
        <ele>272</ele>
        <time>2016-01-27T14:44:38Z</time>
      </trkpt>
      <trkpt lat="43.38198" lon="6.10887">
        <ele>272</ele>
        <time>2016-01-27T14:44:40Z</time>
      </trkpt>
      <trkpt lat="43.38198" lon="6.10887">
        <ele>272</ele>
        <time>2016-01-27T14:44:42Z</time>
      </trkpt>
      <trkpt lat="43.382" lon="6.10887">
        <ele>272</ele>
        <time>2016-01-27T14:44:44Z</time>
      </trkpt>
      <trkpt lat="43.38204" lon="6.10887">
        <ele>271.79998779297</ele>
        <time>2016-01-27T14:44:46Z</time>
      </trkpt>
      <trkpt lat="43.38208" lon="6.10888">
        <ele>271.79998779297</ele>
        <time>2016-01-27T14:44:48Z</time>
      </trkpt>
      <trkpt lat="43.38211" lon="6.1089">
        <ele>271.79998779297</ele>
        <time>2016-01-27T14:44:50Z</time>
      </trkpt>
      <trkpt lat="43.38216" lon="6.10891">
        <ele>271.79998779297</ele>
        <time>2016-01-27T14:44:52Z</time>
      </trkpt>
      <trkpt lat="43.38221" lon="6.10892">
        <ele>271.79998779297</ele>
        <time>2016-01-27T14:44:54Z</time>
      </trkpt>
      <trkpt lat="43.38227" lon="6.10895">
        <ele>271.79998779297</ele>
        <time>2016-01-27T14:44:56Z</time>
      </trkpt>
      <trkpt lat="43.38235" lon="6.10897">
        <ele>271.79998779297</ele>
        <time>2016-01-27T14:44:58Z</time>
      </trkpt>
      <trkpt lat="43.38242" lon="6.10899">
        <ele>271.39999389648</ele>
        <time>2016-01-27T14:45:00Z</time>
      </trkpt>
      <trkpt lat="43.38249" lon="6.10902">
        <ele>271.39999389648</ele>
        <time>2016-01-27T14:45:02Z</time>
      </trkpt>
      <trkpt lat="43.38257" lon="6.10904">
        <ele>271.60000610352</ele>
        <time>2016-01-27T14:45:04Z</time>
      </trkpt>
      <trkpt lat="43.38265" lon="6.10906">
        <ele>271.79998779297</ele>
        <time>2016-01-27T14:45:06Z</time>
      </trkpt>
      <trkpt lat="43.38269" lon="6.10907">
        <ele>271.79998779297</ele>
        <time>2016-01-27T14:45:07Z</time>
      </trkpt>
      <trkpt lat="43.38272" lon="6.10907">
        <ele>272</ele>
        <time>2016-01-27T14:45:08Z</time>
      </trkpt>
      <trkpt lat="43.3828" lon="6.10909">
        <ele>271.79998779297</ele>
        <time>2016-01-27T14:45:10Z</time>
      </trkpt>
      <trkpt lat="43.38287" lon="6.10912">
        <ele>271.60000610352</ele>
        <time>2016-01-27T14:45:12Z</time>
      </trkpt>
      <trkpt lat="43.38295" lon="6.10914">
        <ele>272</ele>
        <time>2016-01-27T14:45:14Z</time>
      </trkpt>
      <trkpt lat="43.38301" lon="6.10916">
        <ele>271.60000610352</ele>
        <time>2016-01-27T14:45:16Z</time>
      </trkpt>
      <trkpt lat="43.38308" lon="6.10918">
        <ele>271.39999389648</ele>
        <time>2016-01-27T14:45:18Z</time>
      </trkpt>
      <trkpt lat="43.38314" lon="6.1092">
        <ele>271.79998779297</ele>
        <time>2016-01-27T14:45:20Z</time>
      </trkpt>
      <trkpt lat="43.38321" lon="6.10923">
        <ele>272.20001220703</ele>
        <time>2016-01-27T14:45:22Z</time>
      </trkpt>
      <trkpt lat="43.38324" lon="6.10924">
        <ele>272.20001220703</ele>
        <time>2016-01-27T14:45:23Z</time>
      </trkpt>
      <trkpt lat="43.38327" lon="6.10925">
        <ele>272.39999389648</ele>
        <time>2016-01-27T14:45:24Z</time>
      </trkpt>
      <trkpt lat="43.38334" lon="6.10928">
        <ele>272.39999389648</ele>
        <time>2016-01-27T14:45:26Z</time>
      </trkpt>
      <trkpt lat="43.3834" lon="6.10929">
        <ele>272.20001220703</ele>
        <time>2016-01-27T14:45:28Z</time>
      </trkpt>
      <trkpt lat="43.38346" lon="6.10932">
        <ele>272.39999389648</ele>
        <time>2016-01-27T14:45:30Z</time>
      </trkpt>
      <trkpt lat="43.38354" lon="6.10934">
        <ele>272.60000610352</ele>
        <time>2016-01-27T14:45:32Z</time>
      </trkpt>
      <trkpt lat="43.3836" lon="6.10935">
        <ele>272.60000610352</ele>
        <time>2016-01-27T14:45:34Z</time>
      </trkpt>
      <trkpt lat="43.38367" lon="6.10937">
        <ele>272.79998779297</ele>
        <time>2016-01-27T14:45:36Z</time>
      </trkpt>
      <trkpt lat="43.38374" lon="6.10939">
        <ele>272.60000610352</ele>
        <time>2016-01-27T14:45:38Z</time>
      </trkpt>
      <trkpt lat="43.38381" lon="6.1094">
        <ele>273.20001220703</ele>
        <time>2016-01-27T14:45:40Z</time>
      </trkpt>
      <trkpt lat="43.38388" lon="6.10942">
        <ele>273.60000610352</ele>
        <time>2016-01-27T14:45:42Z</time>
      </trkpt>
      <trkpt lat="43.38395" lon="6.10944">
        <ele>273.79998779297</ele>
        <time>2016-01-27T14:45:44Z</time>
      </trkpt>
      <trkpt lat="43.38398" lon="6.10945">
        <ele>273.79998779297</ele>
        <time>2016-01-27T14:45:45Z</time>
      </trkpt>
      <trkpt lat="43.38402" lon="6.10945">
        <ele>273.79998779297</ele>
        <time>2016-01-27T14:45:46Z</time>
      </trkpt>
      <trkpt lat="43.38408" lon="6.10947">
        <ele>273.79998779297</ele>
        <time>2016-01-27T14:45:48Z</time>
      </trkpt>
      <trkpt lat="43.38411" lon="6.10947">
        <ele>274</ele>
        <time>2016-01-27T14:45:49Z</time>
      </trkpt>
      <trkpt lat="43.38415" lon="6.10949">
        <ele>274.20001220703</ele>
        <time>2016-01-27T14:45:50Z</time>
      </trkpt>
      <trkpt lat="43.38422" lon="6.10951">
        <ele>274.60000610352</ele>
        <time>2016-01-27T14:45:52Z</time>
      </trkpt>
      <trkpt lat="43.38428" lon="6.10952">
        <ele>274.39999389648</ele>
        <time>2016-01-27T14:45:54Z</time>
      </trkpt>
      <trkpt lat="43.38435" lon="6.10953">
        <ele>274.79998779297</ele>
        <time>2016-01-27T14:45:56Z</time>
      </trkpt>
      <trkpt lat="43.38438" lon="6.10954">
        <ele>274.79998779297</ele>
        <time>2016-01-27T14:45:57Z</time>
      </trkpt>
      <trkpt lat="43.38441" lon="6.10955">
        <ele>275</ele>
        <time>2016-01-27T14:45:58Z</time>
      </trkpt>
      <trkpt lat="43.38444" lon="6.10955">
        <ele>275</ele>
        <time>2016-01-27T14:45:59Z</time>
      </trkpt>
      <trkpt lat="43.38447" lon="6.10955">
        <ele>275</ele>
        <time>2016-01-27T14:46:00Z</time>
      </trkpt>
      <trkpt lat="43.38449" lon="6.10956">
        <ele>275</ele>
        <time>2016-01-27T14:46:01Z</time>
      </trkpt>
      <trkpt lat="43.38453" lon="6.10956">
        <ele>275.20001220703</ele>
        <time>2016-01-27T14:46:02Z</time>
      </trkpt>
      <trkpt lat="43.38457" lon="6.10956">
        <ele>275.20001220703</ele>
        <time>2016-01-27T14:46:04Z</time>
      </trkpt>
      <trkpt lat="43.38462" lon="6.10956">
        <ele>275</ele>
        <time>2016-01-27T14:46:06Z</time>
      </trkpt>
      <trkpt lat="43.38464" lon="6.10957">
        <ele>275.20001220703</ele>
        <time>2016-01-27T14:46:07Z</time>
      </trkpt>
      <trkpt lat="43.38466" lon="6.10957">
        <ele>275.39999389648</ele>
        <time>2016-01-27T14:46:08Z</time>
      </trkpt>
      <trkpt lat="43.38468" lon="6.10957">
        <ele>275.60000610352</ele>
        <time>2016-01-27T14:46:10Z</time>
      </trkpt>
      <trkpt lat="43.3847" lon="6.10956">
        <ele>275.39999389648</ele>
        <time>2016-01-27T14:46:12Z</time>
      </trkpt>
      <trkpt lat="43.38472" lon="6.10957">
        <ele>275.60000610352</ele>
        <time>2016-01-27T14:46:13Z</time>
      </trkpt>
      <trkpt lat="43.38473" lon="6.10958">
        <ele>275.60000610352</ele>
        <time>2016-01-27T14:46:14Z</time>
      </trkpt>
      <trkpt lat="43.38476" lon="6.10958">
        <ele>275.79998779297</ele>
        <time>2016-01-27T14:46:16Z</time>
      </trkpt>
      <trkpt lat="43.38481" lon="6.10959">
        <ele>275.79998779297</ele>
        <time>2016-01-27T14:46:18Z</time>
      </trkpt>
      <trkpt lat="43.38484" lon="6.1096">
        <ele>276</ele>
        <time>2016-01-27T14:46:19Z</time>
      </trkpt>
      <trkpt lat="43.38487" lon="6.1096">
        <ele>276.20001220703</ele>
        <time>2016-01-27T14:46:20Z</time>
      </trkpt>
      <trkpt lat="43.38494" lon="6.10961">
        <ele>276.60000610352</ele>
        <time>2016-01-27T14:46:22Z</time>
      </trkpt>
      <trkpt lat="43.38501" lon="6.10964">
        <ele>277.20001220703</ele>
        <time>2016-01-27T14:46:24Z</time>
      </trkpt>
      <trkpt lat="43.38504" lon="6.10964">
        <ele>277.60000610352</ele>
        <time>2016-01-27T14:46:25Z</time>
      </trkpt>
      <trkpt lat="43.38506" lon="6.10965">
        <ele>277.60000610352</ele>
        <time>2016-01-27T14:46:26Z</time>
      </trkpt>
      <trkpt lat="43.38509" lon="6.10967">
        <ele>278.20001220703</ele>
        <time>2016-01-27T14:46:28Z</time>
      </trkpt>
      <trkpt lat="43.38512" lon="6.10967">
        <ele>278.39999389648</ele>
        <time>2016-01-27T14:46:29Z</time>
      </trkpt>
      <trkpt lat="43.38514" lon="6.10967">
        <ele>278.79998779297</ele>
        <time>2016-01-27T14:46:30Z</time>
      </trkpt>
      <trkpt lat="43.38519" lon="6.10969">
        <ele>279</ele>
        <time>2016-01-27T14:46:32Z</time>
      </trkpt>
      <trkpt lat="43.38521" lon="6.10969">
        <ele>279.20001220703</ele>
        <time>2016-01-27T14:46:33Z</time>
      </trkpt>
      <trkpt lat="43.38523" lon="6.1097">
        <ele>279.60000610352</ele>
        <time>2016-01-27T14:46:34Z</time>
      </trkpt>
      <trkpt lat="43.38525" lon="6.10971">
        <ele>279.79998779297</ele>
        <time>2016-01-27T14:46:35Z</time>
      </trkpt>
      <trkpt lat="43.38527" lon="6.10971">
        <ele>280.20001220703</ele>
        <time>2016-01-27T14:46:36Z</time>
      </trkpt>
      <trkpt lat="43.38528" lon="6.10972">
        <ele>280.39999389648</ele>
        <time>2016-01-27T14:46:37Z</time>
      </trkpt>
      <trkpt lat="43.3853" lon="6.10973">
        <ele>280.60000610352</ele>
        <time>2016-01-27T14:46:38Z</time>
      </trkpt>
      <trkpt lat="43.38534" lon="6.10974">
        <ele>280.79998779297</ele>
        <time>2016-01-27T14:46:40Z</time>
      </trkpt>
      <trkpt lat="43.38538" lon="6.10976">
        <ele>281</ele>
        <time>2016-01-27T14:46:42Z</time>
      </trkpt>
      <trkpt lat="43.3854" lon="6.10977">
        <ele>281</ele>
        <time>2016-01-27T14:46:43Z</time>
      </trkpt>
      <trkpt lat="43.38543" lon="6.10978">
        <ele>281.39999389648</ele>
        <time>2016-01-27T14:46:44Z</time>
      </trkpt>
      <trkpt lat="43.38547" lon="6.10981">
        <ele>281.60000610352</ele>
        <time>2016-01-27T14:46:46Z</time>
      </trkpt>
      <trkpt lat="43.38549" lon="6.10983">
        <ele>281.79998779297</ele>
        <time>2016-01-27T14:46:47Z</time>
      </trkpt>
      <trkpt lat="43.38551" lon="6.10984">
        <ele>281.79998779297</ele>
        <time>2016-01-27T14:46:48Z</time>
      </trkpt>
      <trkpt lat="43.38555" lon="6.10987">
        <ele>281.79998779297</ele>
        <time>2016-01-27T14:46:50Z</time>
      </trkpt>
      <trkpt lat="43.3856" lon="6.10989">
        <ele>282</ele>
        <time>2016-01-27T14:46:52Z</time>
      </trkpt>
      <trkpt lat="43.38564" lon="6.10989">
        <ele>282.39999389648</ele>
        <time>2016-01-27T14:46:54Z</time>
      </trkpt>
      <trkpt lat="43.38566" lon="6.10989">
        <ele>282.39999389648</ele>
        <time>2016-01-27T14:46:55Z</time>
      </trkpt>
      <trkpt lat="43.38568" lon="6.10989">
        <ele>282.60000610352</ele>
        <time>2016-01-27T14:46:56Z</time>
      </trkpt>
      <trkpt lat="43.38572" lon="6.10988">
        <ele>283</ele>
        <time>2016-01-27T14:46:58Z</time>
      </trkpt>
      <trkpt lat="43.38577" lon="6.10988">
        <ele>283.39999389648</ele>
        <time>2016-01-27T14:47:00Z</time>
      </trkpt>
      <trkpt lat="43.38579" lon="6.10988">
        <ele>283.60000610352</ele>
        <time>2016-01-27T14:47:01Z</time>
      </trkpt>
      <trkpt lat="43.38581" lon="6.10988">
        <ele>283.60000610352</ele>
        <time>2016-01-27T14:47:02Z</time>
      </trkpt>
      <trkpt lat="43.38585" lon="6.10988">
        <ele>283.79998779297</ele>
        <time>2016-01-27T14:47:04Z</time>
      </trkpt>
      <trkpt lat="43.38587" lon="6.10987">
        <ele>284</ele>
        <time>2016-01-27T14:47:05Z</time>
      </trkpt>
      <trkpt lat="43.38589" lon="6.10987">
        <ele>284.39999389648</ele>
        <time>2016-01-27T14:47:06Z</time>
      </trkpt>
      <trkpt lat="43.38591" lon="6.10987">
        <ele>284.60000610352</ele>
        <time>2016-01-27T14:47:07Z</time>
      </trkpt>
      <trkpt lat="43.38593" lon="6.10987">
        <ele>284.39999389648</ele>
        <time>2016-01-27T14:47:08Z</time>
      </trkpt>
      <trkpt lat="43.38596" lon="6.10987">
        <ele>284.60000610352</ele>
        <time>2016-01-27T14:47:10Z</time>
      </trkpt>
      <trkpt lat="43.386" lon="6.10987">
        <ele>284.79998779297</ele>
        <time>2016-01-27T14:47:12Z</time>
      </trkpt>
      <trkpt lat="43.38604" lon="6.10988">
        <ele>284.79998779297</ele>
        <time>2016-01-27T14:47:14Z</time>
      </trkpt>
      <trkpt lat="43.38608" lon="6.1099">
        <ele>284.79998779297</ele>
        <time>2016-01-27T14:47:16Z</time>
      </trkpt>
      <trkpt lat="43.38611" lon="6.10993">
        <ele>285</ele>
        <time>2016-01-27T14:47:18Z</time>
      </trkpt>
      <trkpt lat="43.38615" lon="6.10996">
        <ele>285.20001220703</ele>
        <time>2016-01-27T14:47:20Z</time>
      </trkpt>
      <trkpt lat="43.38618" lon="6.10997">
        <ele>285.39999389648</ele>
        <time>2016-01-27T14:47:22Z</time>
      </trkpt>
      <trkpt lat="43.38621" lon="6.11">
        <ele>285</ele>
        <time>2016-01-27T14:47:24Z</time>
      </trkpt>
      <trkpt lat="43.38622" lon="6.11001">
        <ele>285.20001220703</ele>
        <time>2016-01-27T14:47:25Z</time>
      </trkpt>
      <trkpt lat="43.38623" lon="6.11003">
        <ele>285</ele>
        <time>2016-01-27T14:47:26Z</time>
      </trkpt>
      <trkpt lat="43.38626" lon="6.11007">
        <ele>285</ele>
        <time>2016-01-27T14:47:28Z</time>
      </trkpt>
      <trkpt lat="43.38627" lon="6.11008">
        <ele>284.60000610352</ele>
        <time>2016-01-27T14:47:29Z</time>
      </trkpt>
      <trkpt lat="43.38628" lon="6.11009">
        <ele>284.39999389648</ele>
        <time>2016-01-27T14:47:30Z</time>
      </trkpt>
      <trkpt lat="43.38629" lon="6.1101">
        <ele>284.20001220703</ele>
        <time>2016-01-27T14:47:31Z</time>
      </trkpt>
      <trkpt lat="43.38631" lon="6.1101">
        <ele>284</ele>
        <time>2016-01-27T14:47:32Z</time>
      </trkpt>
      <trkpt lat="43.38633" lon="6.11008">
        <ele>283.79998779297</ele>
        <time>2016-01-27T14:47:34Z</time>
      </trkpt>
      <trkpt lat="43.38634" lon="6.11007">
        <ele>283.79998779297</ele>
        <time>2016-01-27T14:47:35Z</time>
      </trkpt>
      <trkpt lat="43.38636" lon="6.11005">
        <ele>283.79998779297</ele>
        <time>2016-01-27T14:47:36Z</time>
      </trkpt>
      <trkpt lat="43.38638" lon="6.11002">
        <ele>284</ele>
        <time>2016-01-27T14:47:37Z</time>
      </trkpt>
      <trkpt lat="43.3864" lon="6.11001">
        <ele>283.60000610352</ele>
        <time>2016-01-27T14:47:38Z</time>
      </trkpt>
      <trkpt lat="43.38643" lon="6.11001">
        <ele>283.20001220703</ele>
        <time>2016-01-27T14:47:39Z</time>
      </trkpt>
      <trkpt lat="43.38645" lon="6.11002">
        <ele>283</ele>
        <time>2016-01-27T14:47:40Z</time>
      </trkpt>
      <trkpt lat="43.38649" lon="6.11004">
        <ele>282.79998779297</ele>
        <time>2016-01-27T14:47:42Z</time>
      </trkpt>
      <trkpt lat="43.38655" lon="6.11">
        <ele>282.20001220703</ele>
        <time>2016-01-27T14:47:44Z</time>
      </trkpt>
      <trkpt lat="43.38657" lon="6.10991">
        <ele>282</ele>
        <time>2016-01-27T14:47:46Z</time>
      </trkpt>
      <trkpt lat="43.38657" lon="6.10987">
        <ele>281.79998779297</ele>
        <time>2016-01-27T14:47:47Z</time>
      </trkpt>
      <trkpt lat="43.38658" lon="6.10983">
        <ele>281.79998779297</ele>
        <time>2016-01-27T14:47:48Z</time>
      </trkpt>
      <trkpt lat="43.38659" lon="6.10974">
        <ele>281.60000610352</ele>
        <time>2016-01-27T14:47:50Z</time>
      </trkpt>
      <trkpt lat="43.3866" lon="6.10965">
        <ele>281.39999389648</ele>
        <time>2016-01-27T14:47:52Z</time>
      </trkpt>
      <trkpt lat="43.38662" lon="6.10956">
        <ele>281.39999389648</ele>
        <time>2016-01-27T14:47:54Z</time>
      </trkpt>
      <trkpt lat="43.38662" lon="6.10952">
        <ele>281.39999389648</ele>
        <time>2016-01-27T14:47:55Z</time>
      </trkpt>
      <trkpt lat="43.38663" lon="6.10947">
        <ele>281.60000610352</ele>
        <time>2016-01-27T14:47:56Z</time>
      </trkpt>
      <trkpt lat="43.38665" lon="6.10938">
        <ele>281.79998779297</ele>
        <time>2016-01-27T14:47:58Z</time>
      </trkpt>
      <trkpt lat="43.38667" lon="6.1093">
        <ele>281.39999389648</ele>
        <time>2016-01-27T14:48:00Z</time>
      </trkpt>
      <trkpt lat="43.38668" lon="6.10925">
        <ele>281</ele>
        <time>2016-01-27T14:48:01Z</time>
      </trkpt>
      <trkpt lat="43.38669" lon="6.10921">
        <ele>281</ele>
        <time>2016-01-27T14:48:02Z</time>
      </trkpt>
      <trkpt lat="43.38671" lon="6.10913">
        <ele>281.20001220703</ele>
        <time>2016-01-27T14:48:04Z</time>
      </trkpt>
      <trkpt lat="43.38673" lon="6.10905">
        <ele>281.20001220703</ele>
        <time>2016-01-27T14:48:06Z</time>
      </trkpt>
      <trkpt lat="43.38676" lon="6.10898">
        <ele>281</ele>
        <time>2016-01-27T14:48:08Z</time>
      </trkpt>
      <trkpt lat="43.38677" lon="6.10894">
        <ele>281</ele>
        <time>2016-01-27T14:48:09Z</time>
      </trkpt>
      <trkpt lat="43.38678" lon="6.10889">
        <ele>281</ele>
        <time>2016-01-27T14:48:10Z</time>
      </trkpt>
      <trkpt lat="43.38681" lon="6.10882">
        <ele>280.79998779297</ele>
        <time>2016-01-27T14:48:12Z</time>
      </trkpt>
      <trkpt lat="43.38683" lon="6.10876">
        <ele>280.79998779297</ele>
        <time>2016-01-27T14:48:14Z</time>
      </trkpt>
      <trkpt lat="43.38683" lon="6.10874">
        <ele>280.79998779297</ele>
        <time>2016-01-27T14:48:15Z</time>
      </trkpt>
      <trkpt lat="43.38683" lon="6.10871">
        <ele>280.60000610352</ele>
        <time>2016-01-27T14:48:16Z</time>
      </trkpt>
      <trkpt lat="43.38684" lon="6.10869">
        <ele>280.79998779297</ele>
        <time>2016-01-27T14:48:17Z</time>
      </trkpt>
      <trkpt lat="43.38685" lon="6.10866">
        <ele>280.79998779297</ele>
        <time>2016-01-27T14:48:18Z</time>
      </trkpt>
      <trkpt lat="43.38685" lon="6.10862">
        <ele>281</ele>
        <time>2016-01-27T14:48:20Z</time>
      </trkpt>
      <trkpt lat="43.38686" lon="6.1086">
        <ele>281</ele>
        <time>2016-01-27T14:48:21Z</time>
      </trkpt>
      <trkpt lat="43.38686" lon="6.10857">
        <ele>281</ele>
        <time>2016-01-27T14:48:22Z</time>
      </trkpt>
      <trkpt lat="43.38688" lon="6.10851">
        <ele>281</ele>
        <time>2016-01-27T14:48:24Z</time>
      </trkpt>
      <trkpt lat="43.38689" lon="6.10845">
        <ele>281.39999389648</ele>
        <time>2016-01-27T14:48:26Z</time>
      </trkpt>
      <trkpt lat="43.38689" lon="6.10843">
        <ele>281.39999389648</ele>
        <time>2016-01-27T14:48:27Z</time>
      </trkpt>
      <trkpt lat="43.3869" lon="6.10839">
        <ele>281.39999389648</ele>
        <time>2016-01-27T14:48:28Z</time>
      </trkpt>
      <trkpt lat="43.3869" lon="6.10833">
        <ele>281.60000610352</ele>
        <time>2016-01-27T14:48:30Z</time>
      </trkpt>
      <trkpt lat="43.38691" lon="6.1083">
        <ele>281.60000610352</ele>
        <time>2016-01-27T14:48:31Z</time>
      </trkpt>
      <trkpt lat="43.38694" lon="6.10827">
        <ele>281.39999389648</ele>
        <time>2016-01-27T14:48:32Z</time>
      </trkpt>
      <trkpt lat="43.38697" lon="6.1082">
        <ele>281.60000610352</ele>
        <time>2016-01-27T14:48:34Z</time>
      </trkpt>
      <trkpt lat="43.38701" lon="6.10814">
        <ele>281.79998779297</ele>
        <time>2016-01-27T14:48:36Z</time>
      </trkpt>
      <trkpt lat="43.38707" lon="6.10809">
        <ele>281.39999389648</ele>
        <time>2016-01-27T14:48:38Z</time>
      </trkpt>
      <trkpt lat="43.38714" lon="6.10804">
        <ele>281.20001220703</ele>
        <time>2016-01-27T14:48:40Z</time>
      </trkpt>
      <trkpt lat="43.38721" lon="6.108">
        <ele>280.79998779297</ele>
        <time>2016-01-27T14:48:42Z</time>
      </trkpt>
      <trkpt lat="43.38728" lon="6.10793">
        <ele>280.20001220703</ele>
        <time>2016-01-27T14:48:44Z</time>
      </trkpt>
      <trkpt lat="43.38731" lon="6.10784">
        <ele>280</ele>
        <time>2016-01-27T14:48:46Z</time>
      </trkpt>
      <trkpt lat="43.38733" lon="6.10777">
        <ele>280.39999389648</ele>
        <time>2016-01-27T14:48:48Z</time>
      </trkpt>
      <trkpt lat="43.38736" lon="6.10771">
        <ele>280.79998779297</ele>
        <time>2016-01-27T14:48:50Z</time>
      </trkpt>
      <trkpt lat="43.38738" lon="6.10771">
        <ele>280.60000610352</ele>
        <time>2016-01-27T14:48:51Z</time>
      </trkpt>
      <trkpt lat="43.3874" lon="6.1077">
        <ele>280</ele>
        <time>2016-01-27T14:48:52Z</time>
      </trkpt>
      <trkpt lat="43.38743" lon="6.10769">
        <ele>279.60000610352</ele>
        <time>2016-01-27T14:48:53Z</time>
      </trkpt>
      <trkpt lat="43.38747" lon="6.10767">
        <ele>279.79998779297</ele>
        <time>2016-01-27T14:48:54Z</time>
      </trkpt>
      <trkpt lat="43.38752" lon="6.10765">
        <ele>280</ele>
        <time>2016-01-27T14:48:56Z</time>
      </trkpt>
      <trkpt lat="43.38757" lon="6.10766">
        <ele>279.39999389648</ele>
        <time>2016-01-27T14:48:58Z</time>
      </trkpt>
      <trkpt lat="43.38759" lon="6.10764">
        <ele>279.20001220703</ele>
        <time>2016-01-27T14:48:59Z</time>
      </trkpt>
      <trkpt lat="43.3876" lon="6.10762">
        <ele>278.79998779297</ele>
        <time>2016-01-27T14:49:00Z</time>
      </trkpt>
      <trkpt lat="43.38761" lon="6.10761">
        <ele>278.60000610352</ele>
        <time>2016-01-27T14:49:01Z</time>
      </trkpt>
      <trkpt lat="43.38762" lon="6.10761">
        <ele>278.39999389648</ele>
        <time>2016-01-27T14:49:02Z</time>
      </trkpt>
      <trkpt lat="43.38763" lon="6.10758">
        <ele>278.39999389648</ele>
        <time>2016-01-27T14:49:04Z</time>
      </trkpt>
      <trkpt lat="43.38763" lon="6.10758">
        <ele>278.39999389648</ele>
        <time>2016-01-27T14:49:06Z</time>
      </trkpt>
      <trkpt lat="43.38763" lon="6.10758">
        <ele>278.20001220703</ele>
        <time>2016-01-27T14:49:08Z</time>
      </trkpt>
      <trkpt lat="43.38763" lon="6.10758">
        <ele>278.20001220703</ele>
        <time>2016-01-27T14:49:10Z</time>
      </trkpt>
      <trkpt lat="43.38763" lon="6.10758">
        <ele>278.20001220703</ele>
        <time>2016-01-27T14:49:12Z</time>
      </trkpt>
      <trkpt lat="43.38763" lon="6.10758">
        <ele>278.20001220703</ele>
        <time>2016-01-27T14:49:14Z</time>
      </trkpt>
      <trkpt lat="43.38763" lon="6.10758">
        <ele>278.20001220703</ele>
        <time>2016-01-27T14:49:16Z</time>
      </trkpt>
      <trkpt lat="43.38763" lon="6.10758">
        <ele>278.20001220703</ele>
        <time>2016-01-27T14:49:18Z</time>
      </trkpt>
      <trkpt lat="43.38764" lon="6.10758">
        <ele>278.39999389648</ele>
        <time>2016-01-27T14:49:20Z</time>
      </trkpt>
      <trkpt lat="43.38766" lon="6.10757">
        <ele>278.20001220703</ele>
        <time>2016-01-27T14:49:22Z</time>
      </trkpt>
      <trkpt lat="43.38768" lon="6.10756">
        <ele>278.20001220703</ele>
        <time>2016-01-27T14:49:24Z</time>
      </trkpt>
      <trkpt lat="43.3877" lon="6.10756">
        <ele>278.20001220703</ele>
        <time>2016-01-27T14:49:26Z</time>
      </trkpt>
      <trkpt lat="43.3877" lon="6.10756">
        <ele>278</ele>
        <time>2016-01-27T14:49:27Z</time>
      </trkpt>
      <trkpt lat="43.38771" lon="6.10756">
        <ele>278</ele>
        <time>2016-01-27T14:49:28Z</time>
      </trkpt>
      <trkpt lat="43.3877" lon="6.10756">
        <ele>278</ele>
        <time>2016-01-27T14:49:30Z</time>
      </trkpt>
      <trkpt lat="43.38771" lon="6.10755">
        <ele>277.79998779297</ele>
        <time>2016-01-27T14:49:32Z</time>
      </trkpt>
      <trkpt lat="43.38771" lon="6.10755">
        <ele>277.60000610352</ele>
        <time>2016-01-27T14:49:34Z</time>
      </trkpt>
      <trkpt lat="43.38771" lon="6.10755">
        <ele>277.79998779297</ele>
        <time>2016-01-27T14:49:36Z</time>
      </trkpt>
      <trkpt lat="43.38771" lon="6.10755">
        <ele>278</ele>
        <time>2016-01-27T14:49:38Z</time>
      </trkpt>
      <trkpt lat="43.38771" lon="6.10755">
        <ele>278</ele>
        <time>2016-01-27T14:49:40Z</time>
      </trkpt>
      <trkpt lat="43.38771" lon="6.10755">
        <ele>277.79998779297</ele>
        <time>2016-01-27T14:49:42Z</time>
      </trkpt>
      <trkpt lat="43.38771" lon="6.10755">
        <ele>278</ele>
        <time>2016-01-27T14:49:44Z</time>
      </trkpt>
      <trkpt lat="43.38771" lon="6.10755">
        <ele>278</ele>
        <time>2016-01-27T14:49:46Z</time>
      </trkpt>
      <trkpt lat="43.38771" lon="6.10755">
        <ele>277.79998779297</ele>
        <time>2016-01-27T14:49:48Z</time>
      </trkpt>
      <trkpt lat="43.38771" lon="6.10755">
        <ele>278</ele>
        <time>2016-01-27T14:49:50Z</time>
      </trkpt>
      <trkpt lat="43.38771" lon="6.10755">
        <ele>277.79998779297</ele>
        <time>2016-01-27T14:49:52Z</time>
      </trkpt>
      <trkpt lat="43.38771" lon="6.10755">
        <ele>277.79998779297</ele>
        <time>2016-01-27T14:49:54Z</time>
      </trkpt>
      <trkpt lat="43.38771" lon="6.10755">
        <ele>277.79998779297</ele>
        <time>2016-01-27T14:49:55Z</time>
      </trkpt>
      <trkpt lat="43.38771" lon="6.10755">
        <ele>277.79998779297</ele>
        <time>2016-01-27T14:49:56Z</time>
      </trkpt>
      <trkpt lat="43.38771" lon="6.10755">
        <ele>278</ele>
        <time>2016-01-27T14:49:58Z</time>
      </trkpt>
      <trkpt lat="43.38771" lon="6.10755">
        <ele>278</ele>
        <time>2016-01-27T14:50:00Z</time>
      </trkpt>
      <trkpt lat="43.38771" lon="6.10755">
        <ele>277.79998779297</ele>
        <time>2016-01-27T14:50:02Z</time>
      </trkpt>
      <trkpt lat="43.38771" lon="6.10755">
        <ele>278</ele>
        <time>2016-01-27T14:50:04Z</time>
      </trkpt>
      <trkpt lat="43.38771" lon="6.10755">
        <ele>278</ele>
        <time>2016-01-27T14:50:06Z</time>
      </trkpt>
      <trkpt lat="43.38771" lon="6.10755">
        <ele>278</ele>
        <time>2016-01-27T14:50:08Z</time>
      </trkpt>
      <trkpt lat="43.38771" lon="6.10755">
        <ele>277.79998779297</ele>
        <time>2016-01-27T14:50:10Z</time>
      </trkpt>
      <trkpt lat="43.38771" lon="6.10755">
        <ele>277.79998779297</ele>
        <time>2016-01-27T14:50:12Z</time>
      </trkpt>
      <trkpt lat="43.38771" lon="6.10755">
        <ele>278</ele>
        <time>2016-01-27T14:50:14Z</time>
      </trkpt>
      <trkpt lat="43.38771" lon="6.10755">
        <ele>277.79998779297</ele>
        <time>2016-01-27T14:50:16Z</time>
      </trkpt>
      <trkpt lat="43.38771" lon="6.10755">
        <ele>278</ele>
        <time>2016-01-27T14:50:18Z</time>
      </trkpt>
      <trkpt lat="43.38771" lon="6.10755">
        <ele>278</ele>
        <time>2016-01-27T14:50:20Z</time>
      </trkpt>
      <trkpt lat="43.38771" lon="6.10755">
        <ele>278</ele>
        <time>2016-01-27T14:50:22Z</time>
      </trkpt>
      <trkpt lat="43.38771" lon="6.10755">
        <ele>277.79998779297</ele>
        <time>2016-01-27T14:50:24Z</time>
      </trkpt>
      <trkpt lat="43.38772" lon="6.10756">
        <ele>277.60000610352</ele>
        <time>2016-01-27T14:50:25Z</time>
      </trkpt>
      <trkpt lat="43.38776" lon="6.10756">
        <ele>277.60000610352</ele>
        <time>2016-01-27T14:50:26Z</time>
      </trkpt>
      <trkpt lat="43.38783" lon="6.10757">
        <ele>277.39999389648</ele>
        <time>2016-01-27T14:50:28Z</time>
      </trkpt>
      <trkpt lat="43.38792" lon="6.10756">
        <ele>276.60000610352</ele>
        <time>2016-01-27T14:50:30Z</time>
      </trkpt>
      <trkpt lat="43.38797" lon="6.10756">
        <ele>276.39999389648</ele>
        <time>2016-01-27T14:50:31Z</time>
      </trkpt>
      <trkpt lat="43.38802" lon="6.10756">
        <ele>276.39999389648</ele>
        <time>2016-01-27T14:50:32Z</time>
      </trkpt>
      <trkpt lat="43.38813" lon="6.10755">
        <ele>276.20001220703</ele>
        <time>2016-01-27T14:50:34Z</time>
      </trkpt>
      <trkpt lat="43.38823" lon="6.10755">
        <ele>276.20001220703</ele>
        <time>2016-01-27T14:50:36Z</time>
      </trkpt>
      <trkpt lat="43.38833" lon="6.10755">
        <ele>275.60000610352</ele>
        <time>2016-01-27T14:50:38Z</time>
      </trkpt>
      <trkpt lat="43.38838" lon="6.10755">
        <ele>275.60000610352</ele>
        <time>2016-01-27T14:50:39Z</time>
      </trkpt>
      <trkpt lat="43.38843" lon="6.10754">
        <ele>275.60000610352</ele>
        <time>2016-01-27T14:50:40Z</time>
      </trkpt>
      <trkpt lat="43.38853" lon="6.10753">
        <ele>275.20001220703</ele>
        <time>2016-01-27T14:50:42Z</time>
      </trkpt>
      <trkpt lat="43.38857" lon="6.10754">
        <ele>275.20001220703</ele>
        <time>2016-01-27T14:50:43Z</time>
      </trkpt>
      <trkpt lat="43.38863" lon="6.10754">
        <ele>275</ele>
        <time>2016-01-27T14:50:44Z</time>
      </trkpt>
      <trkpt lat="43.38868" lon="6.10755">
        <ele>275</ele>
        <time>2016-01-27T14:50:45Z</time>
      </trkpt>
      <trkpt lat="43.38873" lon="6.10756">
        <ele>274.79998779297</ele>
        <time>2016-01-27T14:50:46Z</time>
      </trkpt>
      <trkpt lat="43.38883" lon="6.10758">
        <ele>274.20001220703</ele>
        <time>2016-01-27T14:50:48Z</time>
      </trkpt>
      <trkpt lat="43.38894" lon="6.10762">
        <ele>274.39999389648</ele>
        <time>2016-01-27T14:50:50Z</time>
      </trkpt>
      <trkpt lat="43.38904" lon="6.10766">
        <ele>273.79998779297</ele>
        <time>2016-01-27T14:50:52Z</time>
      </trkpt>
      <trkpt lat="43.38911" lon="6.10777">
        <ele>273.60000610352</ele>
        <time>2016-01-27T14:50:54Z</time>
      </trkpt>
      <trkpt lat="43.38914" lon="6.10783">
        <ele>273.39999389648</ele>
        <time>2016-01-27T14:50:55Z</time>
      </trkpt>
      <trkpt lat="43.38916" lon="6.1079">
        <ele>273.39999389648</ele>
        <time>2016-01-27T14:50:56Z</time>
      </trkpt>
      <trkpt lat="43.38919" lon="6.10804">
        <ele>273.20001220703</ele>
        <time>2016-01-27T14:50:58Z</time>
      </trkpt>
      <trkpt lat="43.38921" lon="6.1081">
        <ele>273.39999389648</ele>
        <time>2016-01-27T14:50:59Z</time>
      </trkpt>
      <trkpt lat="43.38925" lon="6.10816">
        <ele>273.20001220703</ele>
        <time>2016-01-27T14:51:00Z</time>
      </trkpt>
      <trkpt lat="43.38929" lon="6.10821">
        <ele>273</ele>
        <time>2016-01-27T14:51:01Z</time>
      </trkpt>
      <trkpt lat="43.38934" lon="6.10825">
        <ele>272.79998779297</ele>
        <time>2016-01-27T14:51:02Z</time>
      </trkpt>
      <trkpt lat="43.3894" lon="6.10827">
        <ele>272.79998779297</ele>
        <time>2016-01-27T14:51:03Z</time>
      </trkpt>
      <trkpt lat="43.38946" lon="6.1083">
        <ele>273</ele>
        <time>2016-01-27T14:51:04Z</time>
      </trkpt>
      <trkpt lat="43.38951" lon="6.10832">
        <ele>273</ele>
        <time>2016-01-27T14:51:05Z</time>
      </trkpt>
      <trkpt lat="43.38957" lon="6.10834">
        <ele>272.79998779297</ele>
        <time>2016-01-27T14:51:06Z</time>
      </trkpt>
      <trkpt lat="43.38968" lon="6.10839">
        <ele>273</ele>
        <time>2016-01-27T14:51:08Z</time>
      </trkpt>
      <trkpt lat="43.38972" lon="6.1084">
        <ele>273</ele>
        <time>2016-01-27T14:51:09Z</time>
      </trkpt>
      <trkpt lat="43.38978" lon="6.10842">
        <ele>272.79998779297</ele>
        <time>2016-01-27T14:51:10Z</time>
      </trkpt>
      <trkpt lat="43.38988" lon="6.10846">
        <ele>272.60000610352</ele>
        <time>2016-01-27T14:51:12Z</time>
      </trkpt>
      <trkpt lat="43.38993" lon="6.10846">
        <ele>272.60000610352</ele>
        <time>2016-01-27T14:51:13Z</time>
      </trkpt>
      <trkpt lat="43.38999" lon="6.10845">
        <ele>272.60000610352</ele>
        <time>2016-01-27T14:51:14Z</time>
      </trkpt>
      <trkpt lat="43.39003" lon="6.10841">
        <ele>272.60000610352</ele>
        <time>2016-01-27T14:51:15Z</time>
      </trkpt>
      <trkpt lat="43.39008" lon="6.10838">
        <ele>272.60000610352</ele>
        <time>2016-01-27T14:51:16Z</time>
      </trkpt>
      <trkpt lat="43.39017" lon="6.10833">
        <ele>272</ele>
        <time>2016-01-27T14:51:18Z</time>
      </trkpt>
      <trkpt lat="43.39023" lon="6.10832">
        <ele>271.79998779297</ele>
        <time>2016-01-27T14:51:19Z</time>
      </trkpt>
      <trkpt lat="43.39029" lon="6.1083">
        <ele>271.39999389648</ele>
        <time>2016-01-27T14:51:20Z</time>
      </trkpt>
      <trkpt lat="43.3904" lon="6.10828">
        <ele>271.20001220703</ele>
        <time>2016-01-27T14:51:22Z</time>
      </trkpt>
      <trkpt lat="43.39051" lon="6.10825">
        <ele>271.39999389648</ele>
        <time>2016-01-27T14:51:24Z</time>
      </trkpt>
      <trkpt lat="43.39055" lon="6.10823">
        <ele>271.60000610352</ele>
        <time>2016-01-27T14:51:25Z</time>
      </trkpt>
      <trkpt lat="43.39061" lon="6.10822">
        <ele>271.60000610352</ele>
        <time>2016-01-27T14:51:26Z</time>
      </trkpt>
      <trkpt lat="43.39069" lon="6.10818">
        <ele>271.39999389648</ele>
        <time>2016-01-27T14:51:28Z</time>
      </trkpt>
      <trkpt lat="43.39077" lon="6.10811">
        <ele>271.60000610352</ele>
        <time>2016-01-27T14:51:30Z</time>
      </trkpt>
      <trkpt lat="43.39081" lon="6.10808">
        <ele>271.60000610352</ele>
        <time>2016-01-27T14:51:31Z</time>
      </trkpt>
      <trkpt lat="43.39085" lon="6.10803">
        <ele>271.60000610352</ele>
        <time>2016-01-27T14:51:32Z</time>
      </trkpt>
      <trkpt lat="43.39092" lon="6.10794">
        <ele>271.20001220703</ele>
        <time>2016-01-27T14:51:34Z</time>
      </trkpt>
      <trkpt lat="43.391" lon="6.10785">
        <ele>271.20001220703</ele>
        <time>2016-01-27T14:51:36Z</time>
      </trkpt>
      <trkpt lat="43.39104" lon="6.10782">
        <ele>271.39999389648</ele>
        <time>2016-01-27T14:51:37Z</time>
      </trkpt>
      <trkpt lat="43.39109" lon="6.10778">
        <ele>271.20001220703</ele>
        <time>2016-01-27T14:51:38Z</time>
      </trkpt>
      <trkpt lat="43.39119" lon="6.10771">
        <ele>270.60000610352</ele>
        <time>2016-01-27T14:51:40Z</time>
      </trkpt>
      <trkpt lat="43.39125" lon="6.10768">
        <ele>270.20001220703</ele>
        <time>2016-01-27T14:51:41Z</time>
      </trkpt>
      <trkpt lat="43.39131" lon="6.10764">
        <ele>270</ele>
        <time>2016-01-27T14:51:42Z</time>
      </trkpt>
      <trkpt lat="43.39143" lon="6.10757">
        <ele>270.20001220703</ele>
        <time>2016-01-27T14:51:44Z</time>
      </trkpt>
      <trkpt lat="43.39154" lon="6.10747">
        <ele>269.39999389648</ele>
        <time>2016-01-27T14:51:46Z</time>
      </trkpt>
      <trkpt lat="43.39164" lon="6.10736">
        <ele>269</ele>
        <time>2016-01-27T14:51:48Z</time>
      </trkpt>
      <trkpt lat="43.39167" lon="6.10729">
        <ele>268.39999389648</ele>
        <time>2016-01-27T14:51:49Z</time>
      </trkpt>
      <trkpt lat="43.39169" lon="6.10719">
        <ele>268</ele>
        <time>2016-01-27T14:51:50Z</time>
      </trkpt>
      <trkpt lat="43.39172" lon="6.10706">
        <ele>268</ele>
        <time>2016-01-27T14:51:52Z</time>
      </trkpt>
      <trkpt lat="43.39175" lon="6.10699">
        <ele>267</ele>
        <time>2016-01-27T14:51:54Z</time>
      </trkpt>
      <trkpt lat="43.39176" lon="6.10698">
        <ele>266.79998779297</ele>
        <time>2016-01-27T14:51:55Z</time>
      </trkpt>
      <trkpt lat="43.39178" lon="6.10697">
        <ele>266.79998779297</ele>
        <time>2016-01-27T14:51:56Z</time>
      </trkpt>
      <trkpt lat="43.3918" lon="6.10694">
        <ele>266.60000610352</ele>
        <time>2016-01-27T14:51:58Z</time>
      </trkpt>
      <trkpt lat="43.39182" lon="6.10694">
        <ele>266.20001220703</ele>
        <time>2016-01-27T14:52:00Z</time>
      </trkpt>
      <trkpt lat="43.39183" lon="6.10693">
        <ele>266.20001220703</ele>
        <time>2016-01-27T14:52:02Z</time>
      </trkpt>
      <trkpt lat="43.39183" lon="6.10692">
        <ele>266.39999389648</ele>
        <time>2016-01-27T14:52:04Z</time>
      </trkpt>
      <trkpt lat="43.39183" lon="6.10691">
        <ele>266.20001220703</ele>
        <time>2016-01-27T14:52:06Z</time>
      </trkpt>
      <trkpt lat="43.39183" lon="6.10691">
        <ele>266.20001220703</ele>
        <time>2016-01-27T14:52:08Z</time>
      </trkpt>
      <trkpt lat="43.39183" lon="6.10691">
        <ele>266.20001220703</ele>
        <time>2016-01-27T14:52:10Z</time>
      </trkpt>
      <trkpt lat="43.39183" lon="6.10691">
        <ele>266.39999389648</ele>
        <time>2016-01-27T14:52:12Z</time>
      </trkpt>
      <trkpt lat="43.39183" lon="6.10691">
        <ele>266.20001220703</ele>
        <time>2016-01-27T14:52:14Z</time>
      </trkpt>
      <trkpt lat="43.39183" lon="6.10691">
        <ele>266.20001220703</ele>
        <time>2016-01-27T14:52:16Z</time>
      </trkpt>
      <trkpt lat="43.39183" lon="6.10691">
        <ele>266.20001220703</ele>
        <time>2016-01-27T14:52:18Z</time>
      </trkpt>
      <trkpt lat="43.39183" lon="6.10691">
        <ele>266.20001220703</ele>
        <time>2016-01-27T14:52:20Z</time>
      </trkpt>
      <trkpt lat="43.39183" lon="6.10691">
        <ele>266.39999389648</ele>
        <time>2016-01-27T14:52:22Z</time>
      </trkpt>
      <trkpt lat="43.39183" lon="6.10691">
        <ele>266.39999389648</ele>
        <time>2016-01-27T14:52:24Z</time>
      </trkpt>
      <trkpt lat="43.39183" lon="6.10691">
        <ele>266.20001220703</ele>
        <time>2016-01-27T14:52:26Z</time>
      </trkpt>
      <trkpt lat="43.39183" lon="6.10691">
        <ele>266.20001220703</ele>
        <time>2016-01-27T14:52:28Z</time>
      </trkpt>
      <trkpt lat="43.39183" lon="6.10691">
        <ele>266.39999389648</ele>
        <time>2016-01-27T14:52:30Z</time>
      </trkpt>
      <trkpt lat="43.39183" lon="6.10691">
        <ele>266.20001220703</ele>
        <time>2016-01-27T14:52:32Z</time>
      </trkpt>
      <trkpt lat="43.39183" lon="6.10691">
        <ele>266.20001220703</ele>
        <time>2016-01-27T14:52:34Z</time>
      </trkpt>
      <trkpt lat="43.39183" lon="6.10691">
        <ele>266.20001220703</ele>
        <time>2016-01-27T14:52:36Z</time>
      </trkpt>
      <trkpt lat="43.39183" lon="6.10691">
        <ele>266.20001220703</ele>
        <time>2016-01-27T14:52:38Z</time>
      </trkpt>
      <trkpt lat="43.39183" lon="6.10691">
        <ele>266</ele>
        <time>2016-01-27T14:52:39Z</time>
      </trkpt>
      <trkpt lat="43.39183" lon="6.10691">
        <ele>266.20001220703</ele>
        <time>2016-01-27T14:52:40Z</time>
      </trkpt>
      <trkpt lat="43.39183" lon="6.10691">
        <ele>266.20001220703</ele>
        <time>2016-01-27T14:52:42Z</time>
      </trkpt>
      <trkpt lat="43.39183" lon="6.10691">
        <ele>266.20001220703</ele>
        <time>2016-01-27T14:52:44Z</time>
      </trkpt>
      <trkpt lat="43.39183" lon="6.10691">
        <ele>266.20001220703</ele>
        <time>2016-01-27T14:52:46Z</time>
      </trkpt>
      <trkpt lat="43.39183" lon="6.10691">
        <ele>266.39999389648</ele>
        <time>2016-01-27T14:52:48Z</time>
      </trkpt>
      <trkpt lat="43.39183" lon="6.10691">
        <ele>266.20001220703</ele>
        <time>2016-01-27T14:52:50Z</time>
      </trkpt>
      <trkpt lat="43.39183" lon="6.10691">
        <ele>266.20001220703</ele>
        <time>2016-01-27T14:52:52Z</time>
      </trkpt>
      <trkpt lat="43.39183" lon="6.10691">
        <ele>266.20001220703</ele>
        <time>2016-01-27T14:52:54Z</time>
      </trkpt>
      <trkpt lat="43.39183" lon="6.10691">
        <ele>266.20001220703</ele>
        <time>2016-01-27T14:52:56Z</time>
      </trkpt>
      <trkpt lat="43.39183" lon="6.10691">
        <ele>266</ele>
        <time>2016-01-27T14:52:58Z</time>
      </trkpt>
      <trkpt lat="43.39183" lon="6.10691">
        <ele>266</ele>
        <time>2016-01-27T14:53:00Z</time>
      </trkpt>
      <trkpt lat="43.39183" lon="6.10691">
        <ele>266</ele>
        <time>2016-01-27T14:53:02Z</time>
      </trkpt>
      <trkpt lat="43.39183" lon="6.10691">
        <ele>266.20001220703</ele>
        <time>2016-01-27T14:53:03Z</time>
      </trkpt>
      <trkpt lat="43.39183" lon="6.10691">
        <ele>266.20001220703</ele>
        <time>2016-01-27T14:53:04Z</time>
      </trkpt>
      <trkpt lat="43.39183" lon="6.10691">
        <ele>266</ele>
        <time>2016-01-27T14:53:06Z</time>
      </trkpt>
      <trkpt lat="43.39183" lon="6.10691">
        <ele>266.20001220703</ele>
        <time>2016-01-27T14:53:08Z</time>
      </trkpt>
      <trkpt lat="43.39183" lon="6.10691">
        <ele>266.20001220703</ele>
        <time>2016-01-27T14:53:10Z</time>
      </trkpt>
      <trkpt lat="43.39183" lon="6.10691">
        <ele>266.20001220703</ele>
        <time>2016-01-27T14:53:12Z</time>
      </trkpt>
      <trkpt lat="43.39183" lon="6.10691">
        <ele>266.20001220703</ele>
        <time>2016-01-27T14:53:14Z</time>
      </trkpt>
      <trkpt lat="43.39183" lon="6.1069">
        <ele>266</ele>
        <time>2016-01-27T14:53:16Z</time>
      </trkpt>
      <trkpt lat="43.39183" lon="6.1069">
        <ele>266.20001220703</ele>
        <time>2016-01-27T14:53:18Z</time>
      </trkpt>
      <trkpt lat="43.39183" lon="6.1069">
        <ele>266</ele>
        <time>2016-01-27T14:53:20Z</time>
      </trkpt>
      <trkpt lat="43.39183" lon="6.1069">
        <ele>266.20001220703</ele>
        <time>2016-01-27T14:53:22Z</time>
      </trkpt>
      <trkpt lat="43.39183" lon="6.1069">
        <ele>266.20001220703</ele>
        <time>2016-01-27T14:53:24Z</time>
      </trkpt>
      <trkpt lat="43.39183" lon="6.1069">
        <ele>266</ele>
        <time>2016-01-27T14:53:26Z</time>
      </trkpt>
      <trkpt lat="43.39183" lon="6.1069">
        <ele>266.20001220703</ele>
        <time>2016-01-27T14:53:28Z</time>
      </trkpt>
      <trkpt lat="43.39183" lon="6.1069">
        <ele>266</ele>
        <time>2016-01-27T14:53:30Z</time>
      </trkpt>
      <trkpt lat="43.39183" lon="6.1069">
        <ele>266</ele>
        <time>2016-01-27T14:53:32Z</time>
      </trkpt>
      <trkpt lat="43.39183" lon="6.1069">
        <ele>266</ele>
        <time>2016-01-27T14:53:34Z</time>
      </trkpt>
      <trkpt lat="43.39183" lon="6.1069">
        <ele>266</ele>
        <time>2016-01-27T14:53:36Z</time>
      </trkpt>
      <trkpt lat="43.39183" lon="6.1069">
        <ele>266</ele>
        <time>2016-01-27T14:53:38Z</time>
      </trkpt>
      <trkpt lat="43.39183" lon="6.1069">
        <ele>266</ele>
        <time>2016-01-27T14:53:40Z</time>
      </trkpt>
      <trkpt lat="43.39183" lon="6.1069">
        <ele>266</ele>
        <time>2016-01-27T14:53:42Z</time>
      </trkpt>
      <trkpt lat="43.39183" lon="6.1069">
        <ele>266</ele>
        <time>2016-01-27T14:53:44Z</time>
      </trkpt>
      <trkpt lat="43.39183" lon="6.1069">
        <ele>266</ele>
        <time>2016-01-27T14:53:46Z</time>
      </trkpt>
      <trkpt lat="43.39183" lon="6.1069">
        <ele>266</ele>
        <time>2016-01-27T14:53:48Z</time>
      </trkpt>
      <trkpt lat="43.39183" lon="6.1069">
        <ele>265.79998779297</ele>
        <time>2016-01-27T14:53:50Z</time>
      </trkpt>
      <trkpt lat="43.39183" lon="6.1069">
        <ele>265.79998779297</ele>
        <time>2016-01-27T14:53:52Z</time>
      </trkpt>
      <trkpt lat="43.39183" lon="6.1069">
        <ele>266</ele>
        <time>2016-01-27T14:53:54Z</time>
      </trkpt>
      <trkpt lat="43.39183" lon="6.1069">
        <ele>266</ele>
        <time>2016-01-27T14:53:56Z</time>
      </trkpt>
      <trkpt lat="43.39183" lon="6.1069">
        <ele>266</ele>
        <time>2016-01-27T14:53:58Z</time>
      </trkpt>
      <trkpt lat="43.39183" lon="6.1069">
        <ele>266</ele>
        <time>2016-01-27T14:54:00Z</time>
      </trkpt>
      <trkpt lat="43.39183" lon="6.1069">
        <ele>266</ele>
        <time>2016-01-27T14:54:02Z</time>
      </trkpt>
      <trkpt lat="43.39183" lon="6.1069">
        <ele>266.20001220703</ele>
        <time>2016-01-27T14:54:04Z</time>
      </trkpt>
      <trkpt lat="43.39183" lon="6.1069">
        <ele>266</ele>
        <time>2016-01-27T14:54:06Z</time>
      </trkpt>
      <trkpt lat="43.39183" lon="6.1069">
        <ele>266.20001220703</ele>
        <time>2016-01-27T14:54:08Z</time>
      </trkpt>
      <trkpt lat="43.39183" lon="6.1069">
        <ele>266.20001220703</ele>
        <time>2016-01-27T14:54:10Z</time>
      </trkpt>
      <trkpt lat="43.39183" lon="6.10691">
        <ele>266.20001220703</ele>
        <time>2016-01-27T14:54:12Z</time>
      </trkpt>
      <trkpt lat="43.39183" lon="6.10691">
        <ele>266</ele>
        <time>2016-01-27T14:54:14Z</time>
      </trkpt>
      <trkpt lat="43.39183" lon="6.10691">
        <ele>266.20001220703</ele>
        <time>2016-01-27T14:54:16Z</time>
      </trkpt>
      <trkpt lat="43.39183" lon="6.10692">
        <ele>266.20001220703</ele>
        <time>2016-01-27T14:54:17Z</time>
      </trkpt>
      <trkpt lat="43.39183" lon="6.10692">
        <ele>266.39999389648</ele>
        <time>2016-01-27T14:54:18Z</time>
      </trkpt>
      <trkpt lat="43.39183" lon="6.10692">
        <ele>266.39999389648</ele>
        <time>2016-01-27T14:54:20Z</time>
      </trkpt>
      <trkpt lat="43.39182" lon="6.10691">
        <ele>266.20001220703</ele>
        <time>2016-01-27T14:54:22Z</time>
      </trkpt>
      <trkpt lat="43.39182" lon="6.10691">
        <ele>266.20001220703</ele>
        <time>2016-01-27T14:54:24Z</time>
      </trkpt>
      <trkpt lat="43.3918" lon="6.10691">
        <ele>266.39999389648</ele>
        <time>2016-01-27T14:54:26Z</time>
      </trkpt>
      <trkpt lat="43.39177" lon="6.10689">
        <ele>266.39999389648</ele>
        <time>2016-01-27T14:54:28Z</time>
      </trkpt>
      <trkpt lat="43.39175" lon="6.10688">
        <ele>266.39999389648</ele>
        <time>2016-01-27T14:54:29Z</time>
      </trkpt>
      <trkpt lat="43.39174" lon="6.10686">
        <ele>266.39999389648</ele>
        <time>2016-01-27T14:54:30Z</time>
      </trkpt>
      <trkpt lat="43.39173" lon="6.10682">
        <ele>266.39999389648</ele>
        <time>2016-01-27T14:54:31Z</time>
      </trkpt>
      <trkpt lat="43.39174" lon="6.10679">
        <ele>266.39999389648</ele>
        <time>2016-01-27T14:54:32Z</time>
      </trkpt>
      <trkpt lat="43.39175" lon="6.10676">
        <ele>266.39999389648</ele>
        <time>2016-01-27T14:54:33Z</time>
      </trkpt>
      <trkpt lat="43.39177" lon="6.10672">
        <ele>266.39999389648</ele>
        <time>2016-01-27T14:54:34Z</time>
      </trkpt>
      <trkpt lat="43.39179" lon="6.10665">
        <ele>266.39999389648</ele>
        <time>2016-01-27T14:54:36Z</time>
      </trkpt>
      <trkpt lat="43.39183" lon="6.10656">
        <ele>266.39999389648</ele>
        <time>2016-01-27T14:54:38Z</time>
      </trkpt>
      <trkpt lat="43.39186" lon="6.10649">
        <ele>266.79998779297</ele>
        <time>2016-01-27T14:54:40Z</time>
      </trkpt>
      <trkpt lat="43.39191" lon="6.10641">
        <ele>267</ele>
        <time>2016-01-27T14:54:42Z</time>
      </trkpt>
      <trkpt lat="43.39198" lon="6.10637">
        <ele>266.60000610352</ele>
        <time>2016-01-27T14:54:44Z</time>
      </trkpt>
      <trkpt lat="43.39201" lon="6.10636">
        <ele>266.60000610352</ele>
        <time>2016-01-27T14:54:45Z</time>
      </trkpt>
      <trkpt lat="43.39204" lon="6.10635">
        <ele>266.60000610352</ele>
        <time>2016-01-27T14:54:46Z</time>
      </trkpt>
      <trkpt lat="43.39209" lon="6.10633">
        <ele>266.20001220703</ele>
        <time>2016-01-27T14:54:48Z</time>
      </trkpt>
      <trkpt lat="43.39212" lon="6.10629">
        <ele>266.20001220703</ele>
        <time>2016-01-27T14:54:50Z</time>
      </trkpt>
      <trkpt lat="43.39215" lon="6.10625">
        <ele>266</ele>
        <time>2016-01-27T14:54:52Z</time>
      </trkpt>
      <trkpt lat="43.39219" lon="6.10621">
        <ele>266.39999389648</ele>
        <time>2016-01-27T14:54:54Z</time>
      </trkpt>
      <trkpt lat="43.39224" lon="6.10617">
        <ele>266.39999389648</ele>
        <time>2016-01-27T14:54:56Z</time>
      </trkpt>
      <trkpt lat="43.39226" lon="6.10614">
        <ele>266.39999389648</ele>
        <time>2016-01-27T14:54:57Z</time>
      </trkpt>
      <trkpt lat="43.39228" lon="6.10611">
        <ele>266.39999389648</ele>
        <time>2016-01-27T14:54:58Z</time>
      </trkpt>
      <trkpt lat="43.39233" lon="6.10605">
        <ele>266.79998779297</ele>
        <time>2016-01-27T14:55:00Z</time>
      </trkpt>
      <trkpt lat="43.39237" lon="6.10602">
        <ele>266.79998779297</ele>
        <time>2016-01-27T14:55:02Z</time>
      </trkpt>
      <trkpt lat="43.39242" lon="6.106">
        <ele>267</ele>
        <time>2016-01-27T14:55:04Z</time>
      </trkpt>
      <trkpt lat="43.39248" lon="6.10596">
        <ele>267.20001220703</ele>
        <time>2016-01-27T14:55:06Z</time>
      </trkpt>
      <trkpt lat="43.39252" lon="6.10589">
        <ele>267.39999389648</ele>
        <time>2016-01-27T14:55:08Z</time>
      </trkpt>
      <trkpt lat="43.39255" lon="6.10587">
        <ele>267.20001220703</ele>
        <time>2016-01-27T14:55:09Z</time>
      </trkpt>
      <trkpt lat="43.39257" lon="6.10583">
        <ele>267.20001220703</ele>
        <time>2016-01-27T14:55:10Z</time>
      </trkpt>
      <trkpt lat="43.3926" lon="6.10576">
        <ele>267.20001220703</ele>
        <time>2016-01-27T14:55:12Z</time>
      </trkpt>
      <trkpt lat="43.39262" lon="6.10568">
        <ele>267.20001220703</ele>
        <time>2016-01-27T14:55:14Z</time>
      </trkpt>
      <trkpt lat="43.39264" lon="6.10562">
        <ele>267</ele>
        <time>2016-01-27T14:55:16Z</time>
      </trkpt>
      <trkpt lat="43.39265" lon="6.10556">
        <ele>266.60000610352</ele>
        <time>2016-01-27T14:55:18Z</time>
      </trkpt>
      <trkpt lat="43.39266" lon="6.10553">
        <ele>266.60000610352</ele>
        <time>2016-01-27T14:55:19Z</time>
      </trkpt>
      <trkpt lat="43.39268" lon="6.10549">
        <ele>266.79998779297</ele>
        <time>2016-01-27T14:55:20Z</time>
      </trkpt>
      <trkpt lat="43.3927" lon="6.10542">
        <ele>266.79998779297</ele>
        <time>2016-01-27T14:55:22Z</time>
      </trkpt>
      <trkpt lat="43.39273" lon="6.10535">
        <ele>266.79998779297</ele>
        <time>2016-01-27T14:55:24Z</time>
      </trkpt>
      <trkpt lat="43.39277" lon="6.10527">
        <ele>266.39999389648</ele>
        <time>2016-01-27T14:55:26Z</time>
      </trkpt>
      <trkpt lat="43.39281" lon="6.10519">
        <ele>266.39999389648</ele>
        <time>2016-01-27T14:55:28Z</time>
      </trkpt>
      <trkpt lat="43.39285" lon="6.10511">
        <ele>266</ele>
        <time>2016-01-27T14:55:30Z</time>
      </trkpt>
      <trkpt lat="43.39286" lon="6.10507">
        <ele>265.60000610352</ele>
        <time>2016-01-27T14:55:31Z</time>
      </trkpt>
      <trkpt lat="43.39287" lon="6.10502">
        <ele>265.20001220703</ele>
        <time>2016-01-27T14:55:32Z</time>
      </trkpt>
      <trkpt lat="43.3929" lon="6.10494">
        <ele>265.39999389648</ele>
        <time>2016-01-27T14:55:34Z</time>
      </trkpt>
      <trkpt lat="43.39293" lon="6.10486">
        <ele>264.79998779297</ele>
        <time>2016-01-27T14:55:36Z</time>
      </trkpt>
      <trkpt lat="43.39296" lon="6.10482">
        <ele>264.79998779297</ele>
        <time>2016-01-27T14:55:37Z</time>
      </trkpt>
      <trkpt lat="43.39299" lon="6.10477">
        <ele>265.39999389648</ele>
        <time>2016-01-27T14:55:38Z</time>
      </trkpt>
      <trkpt lat="43.39304" lon="6.1047">
        <ele>264.39999389648</ele>
        <time>2016-01-27T14:55:40Z</time>
      </trkpt>
      <trkpt lat="43.39306" lon="6.10465">
        <ele>264.20001220703</ele>
        <time>2016-01-27T14:55:41Z</time>
      </trkpt>
      <trkpt lat="43.39309" lon="6.1046">
        <ele>264.20001220703</ele>
        <time>2016-01-27T14:55:42Z</time>
      </trkpt>
      <trkpt lat="43.39311" lon="6.10455">
        <ele>264.20001220703</ele>
        <time>2016-01-27T14:55:43Z</time>
      </trkpt>
      <trkpt lat="43.39314" lon="6.1045">
        <ele>264</ele>
        <time>2016-01-27T14:55:44Z</time>
      </trkpt>
      <trkpt lat="43.39317" lon="6.10445">
        <ele>263.60000610352</ele>
        <time>2016-01-27T14:55:45Z</time>
      </trkpt>
      <trkpt lat="43.3932" lon="6.10441">
        <ele>263.39999389648</ele>
        <time>2016-01-27T14:55:46Z</time>
      </trkpt>
      <trkpt lat="43.39325" lon="6.10432">
        <ele>263.20001220703</ele>
        <time>2016-01-27T14:55:48Z</time>
      </trkpt>
      <trkpt lat="43.39331" lon="6.10424">
        <ele>262.79998779297</ele>
        <time>2016-01-27T14:55:50Z</time>
      </trkpt>
      <trkpt lat="43.39334" lon="6.10421">
        <ele>262.39999389648</ele>
        <time>2016-01-27T14:55:51Z</time>
      </trkpt>
      <trkpt lat="43.39337" lon="6.10418">
        <ele>262.39999389648</ele>
        <time>2016-01-27T14:55:52Z</time>
      </trkpt>
      <trkpt lat="43.39342" lon="6.10414">
        <ele>262.39999389648</ele>
        <time>2016-01-27T14:55:54Z</time>
      </trkpt>
      <trkpt lat="43.39348" lon="6.10414">
        <ele>261.79998779297</ele>
        <time>2016-01-27T14:55:56Z</time>
      </trkpt>
      <trkpt lat="43.39355" lon="6.10415">
        <ele>261.60000610352</ele>
        <time>2016-01-27T14:55:58Z</time>
      </trkpt>
      <trkpt lat="43.3936" lon="6.10414">
        <ele>261</ele>
        <time>2016-01-27T14:56:00Z</time>
      </trkpt>
      <trkpt lat="43.39365" lon="6.10409">
        <ele>260.20001220703</ele>
        <time>2016-01-27T14:56:02Z</time>
      </trkpt>
      <trkpt lat="43.39367" lon="6.10405">
        <ele>259.79998779297</ele>
        <time>2016-01-27T14:56:03Z</time>
      </trkpt>
      <trkpt lat="43.39367" lon="6.10401">
        <ele>259.79998779297</ele>
        <time>2016-01-27T14:56:04Z</time>
      </trkpt>
      <trkpt lat="43.39368" lon="6.10391">
        <ele>260.60000610352</ele>
        <time>2016-01-27T14:56:06Z</time>
      </trkpt>
      <trkpt lat="43.39372" lon="6.10382">
        <ele>260.39999389648</ele>
        <time>2016-01-27T14:56:08Z</time>
      </trkpt>
      <trkpt lat="43.39378" lon="6.10375">
        <ele>260</ele>
        <time>2016-01-27T14:56:10Z</time>
      </trkpt>
      <trkpt lat="43.39381" lon="6.10372">
        <ele>259.60000610352</ele>
        <time>2016-01-27T14:56:11Z</time>
      </trkpt>
      <trkpt lat="43.39384" lon="6.10368">
        <ele>259.39999389648</ele>
        <time>2016-01-27T14:56:12Z</time>
      </trkpt>
      <trkpt lat="43.39387" lon="6.10362">
        <ele>259.39999389648</ele>
        <time>2016-01-27T14:56:14Z</time>
      </trkpt>
      <trkpt lat="43.39389" lon="6.10356">
        <ele>259.39999389648</ele>
        <time>2016-01-27T14:56:16Z</time>
      </trkpt>
      <trkpt lat="43.39392" lon="6.1035">
        <ele>259.20001220703</ele>
        <time>2016-01-27T14:56:18Z</time>
      </trkpt>
      <trkpt lat="43.39396" lon="6.10344">
        <ele>259.39999389648</ele>
        <time>2016-01-27T14:56:20Z</time>
      </trkpt>
      <trkpt lat="43.39401" lon="6.10338">
        <ele>259.20001220703</ele>
        <time>2016-01-27T14:56:22Z</time>
      </trkpt>
      <trkpt lat="43.39403" lon="6.10335">
        <ele>259.39999389648</ele>
        <time>2016-01-27T14:56:23Z</time>
      </trkpt>
      <trkpt lat="43.39405" lon="6.10331">
        <ele>259.39999389648</ele>
        <time>2016-01-27T14:56:24Z</time>
      </trkpt>
      <trkpt lat="43.39409" lon="6.10324">
        <ele>259.79998779297</ele>
        <time>2016-01-27T14:56:26Z</time>
      </trkpt>
      <trkpt lat="43.39413" lon="6.10317">
        <ele>259.39999389648</ele>
        <time>2016-01-27T14:56:28Z</time>
      </trkpt>
      <trkpt lat="43.39418" lon="6.1031">
        <ele>259.20001220703</ele>
        <time>2016-01-27T14:56:30Z</time>
      </trkpt>
      <trkpt lat="43.3942" lon="6.10307">
        <ele>259.20001220703</ele>
        <time>2016-01-27T14:56:31Z</time>
      </trkpt>
      <trkpt lat="43.39423" lon="6.10304">
        <ele>259.20001220703</ele>
        <time>2016-01-27T14:56:32Z</time>
      </trkpt>
      <trkpt lat="43.39429" lon="6.10298">
        <ele>259.20001220703</ele>
        <time>2016-01-27T14:56:34Z</time>
      </trkpt>
      <trkpt lat="43.39436" lon="6.10293">
        <ele>259</ele>
        <time>2016-01-27T14:56:36Z</time>
      </trkpt>
      <trkpt lat="43.39444" lon="6.10289">
        <ele>258.60000610352</ele>
        <time>2016-01-27T14:56:38Z</time>
      </trkpt>
      <trkpt lat="43.3945" lon="6.10281">
        <ele>257.60000610352</ele>
        <time>2016-01-27T14:56:40Z</time>
      </trkpt>
      <trkpt lat="43.39458" lon="6.10275">
        <ele>257.39999389648</ele>
        <time>2016-01-27T14:56:42Z</time>
      </trkpt>
      <trkpt lat="43.39466" lon="6.10267">
        <ele>257.39999389648</ele>
        <time>2016-01-27T14:56:44Z</time>
      </trkpt>
      <trkpt lat="43.39473" lon="6.10257">
        <ele>257.39999389648</ele>
        <time>2016-01-27T14:56:46Z</time>
      </trkpt>
      <trkpt lat="43.3948" lon="6.10248">
        <ele>257.20001220703</ele>
        <time>2016-01-27T14:56:48Z</time>
      </trkpt>
      <trkpt lat="43.39487" lon="6.10236">
        <ele>256</ele>
        <time>2016-01-27T14:56:50Z</time>
      </trkpt>
      <trkpt lat="43.3949" lon="6.1023">
        <ele>255.60000610352</ele>
        <time>2016-01-27T14:56:51Z</time>
      </trkpt>
      <trkpt lat="43.39493" lon="6.10223">
        <ele>255.60000610352</ele>
        <time>2016-01-27T14:56:52Z</time>
      </trkpt>
      <trkpt lat="43.39496" lon="6.10218">
        <ele>255.60000610352</ele>
        <time>2016-01-27T14:56:53Z</time>
      </trkpt>
      <trkpt lat="43.39499" lon="6.10211">
        <ele>255.60000610352</ele>
        <time>2016-01-27T14:56:54Z</time>
      </trkpt>
      <trkpt lat="43.39501" lon="6.10205">
        <ele>254.80000305176</ele>
        <time>2016-01-27T14:56:55Z</time>
      </trkpt>
      <trkpt lat="43.39503" lon="6.10198">
        <ele>254.19999694824</ele>
        <time>2016-01-27T14:56:56Z</time>
      </trkpt>
      <trkpt lat="43.39505" lon="6.10186">
        <ele>254.39999389648</ele>
        <time>2016-01-27T14:56:58Z</time>
      </trkpt>
      <trkpt lat="43.39507" lon="6.10179">
        <ele>254.60000610352</ele>
        <time>2016-01-27T14:56:59Z</time>
      </trkpt>
      <trkpt lat="43.39508" lon="6.10172">
        <ele>254.39999389648</ele>
        <time>2016-01-27T14:57:00Z</time>
      </trkpt>
      <trkpt lat="43.39511" lon="6.10159">
        <ele>254</ele>
        <time>2016-01-27T14:57:02Z</time>
      </trkpt>
      <trkpt lat="43.39514" lon="6.10153">
        <ele>253.80000305176</ele>
        <time>2016-01-27T14:57:03Z</time>
      </trkpt>
      <trkpt lat="43.39516" lon="6.10145">
        <ele>253.39999389648</ele>
        <time>2016-01-27T14:57:04Z</time>
      </trkpt>
      <trkpt lat="43.39518" lon="6.10138">
        <ele>253.19999694824</ele>
        <time>2016-01-27T14:57:05Z</time>
      </trkpt>
      <trkpt lat="43.3952" lon="6.10131">
        <ele>252.80000305176</ele>
        <time>2016-01-27T14:57:06Z</time>
      </trkpt>
      <trkpt lat="43.39524" lon="6.10118">
        <ele>252.80000305176</ele>
        <time>2016-01-27T14:57:08Z</time>
      </trkpt>
      <trkpt lat="43.39531" lon="6.10105">
        <ele>252.19999694824</ele>
        <time>2016-01-27T14:57:10Z</time>
      </trkpt>
      <trkpt lat="43.39533" lon="6.101">
        <ele>252</ele>
        <time>2016-01-27T14:57:11Z</time>
      </trkpt>
      <trkpt lat="43.39536" lon="6.10094">
        <ele>252</ele>
        <time>2016-01-27T14:57:12Z</time>
      </trkpt>
      <trkpt lat="43.39542" lon="6.10084">
        <ele>251.80000305176</ele>
        <time>2016-01-27T14:57:14Z</time>
      </trkpt>
      <trkpt lat="43.39546" lon="6.10072">
        <ele>250.60000610352</ele>
        <time>2016-01-27T14:57:16Z</time>
      </trkpt>
      <trkpt lat="43.39548" lon="6.10059">
        <ele>250.60000610352</ele>
        <time>2016-01-27T14:57:18Z</time>
      </trkpt>
      <trkpt lat="43.39551" lon="6.10046">
        <ele>250.60000610352</ele>
        <time>2016-01-27T14:57:20Z</time>
      </trkpt>
      <trkpt lat="43.39553" lon="6.1004">
        <ele>250.39999389648</ele>
        <time>2016-01-27T14:57:21Z</time>
      </trkpt>
      <trkpt lat="43.39554" lon="6.10033">
        <ele>250.39999389648</ele>
        <time>2016-01-27T14:57:22Z</time>
      </trkpt>
      <trkpt lat="43.39554" lon="6.10027">
        <ele>250.19999694824</ele>
        <time>2016-01-27T14:57:23Z</time>
      </trkpt>
      <trkpt lat="43.39554" lon="6.10022">
        <ele>249.80000305176</ele>
        <time>2016-01-27T14:57:24Z</time>
      </trkpt>
      <trkpt lat="43.39553" lon="6.10017">
        <ele>249.60000610352</ele>
        <time>2016-01-27T14:57:26Z</time>
      </trkpt>
      <trkpt lat="43.39553" lon="6.10014">
        <ele>249.60000610352</ele>
        <time>2016-01-27T14:57:28Z</time>
      </trkpt>
      <trkpt lat="43.39552" lon="6.10009">
        <ele>249.60000610352</ele>
        <time>2016-01-27T14:57:30Z</time>
      </trkpt>
      <trkpt lat="43.3955" lon="6.10004">
        <ele>249.80000305176</ele>
        <time>2016-01-27T14:57:32Z</time>
      </trkpt>
      <trkpt lat="43.39551" lon="6.09999">
        <ele>249.80000305176</ele>
        <time>2016-01-27T14:57:34Z</time>
      </trkpt>
      <trkpt lat="43.39552" lon="6.09991">
        <ele>249.39999389648</ele>
        <time>2016-01-27T14:57:36Z</time>
      </trkpt>
      <trkpt lat="43.39553" lon="6.09984">
        <ele>250</ele>
        <time>2016-01-27T14:57:38Z</time>
      </trkpt>
      <trkpt lat="43.39554" lon="6.09976">
        <ele>250</ele>
        <time>2016-01-27T14:57:40Z</time>
      </trkpt>
      <trkpt lat="43.39553" lon="6.09969">
        <ele>249.80000305176</ele>
        <time>2016-01-27T14:57:42Z</time>
      </trkpt>
      <trkpt lat="43.39555" lon="6.09963">
        <ele>250.19999694824</ele>
        <time>2016-01-27T14:57:44Z</time>
      </trkpt>
      <trkpt lat="43.39554" lon="6.09957">
        <ele>249.60000610352</ele>
        <time>2016-01-27T14:57:46Z</time>
      </trkpt>
      <trkpt lat="43.39554" lon="6.0995">
        <ele>250.80000305176</ele>
        <time>2016-01-27T14:57:48Z</time>
      </trkpt>
      <trkpt lat="43.39552" lon="6.09944">
        <ele>251.19999694824</ele>
        <time>2016-01-27T14:57:50Z</time>
      </trkpt>
      <trkpt lat="43.3955" lon="6.09938">
        <ele>251.60000610352</ele>
        <time>2016-01-27T14:57:52Z</time>
      </trkpt>
      <trkpt lat="43.39549" lon="6.09935">
        <ele>252</ele>
        <time>2016-01-27T14:57:53Z</time>
      </trkpt>
      <trkpt lat="43.39548" lon="6.09933">
        <ele>252.39999389648</ele>
        <time>2016-01-27T14:57:54Z</time>
      </trkpt>
      <trkpt lat="43.39547" lon="6.09929">
        <ele>252.60000610352</ele>
        <time>2016-01-27T14:57:56Z</time>
      </trkpt>
      <trkpt lat="43.39545" lon="6.09927">
        <ele>253</ele>
        <time>2016-01-27T14:57:57Z</time>
      </trkpt>
      <trkpt lat="43.39544" lon="6.09924">
        <ele>253.19999694824</ele>
        <time>2016-01-27T14:57:58Z</time>
      </trkpt>
      <trkpt lat="43.39544" lon="6.09922">
        <ele>253.19999694824</ele>
        <time>2016-01-27T14:57:59Z</time>
      </trkpt>
      <trkpt lat="43.39543" lon="6.0992">
        <ele>253.39999389648</ele>
        <time>2016-01-27T14:58:00Z</time>
      </trkpt>
      <trkpt lat="43.39543" lon="6.09918">
        <ele>253.39999389648</ele>
        <time>2016-01-27T14:58:01Z</time>
      </trkpt>
      <trkpt lat="43.39544" lon="6.09916">
        <ele>253.60000610352</ele>
        <time>2016-01-27T14:58:02Z</time>
      </trkpt>
      <trkpt lat="43.39543" lon="6.09911">
        <ele>253.80000305176</ele>
        <time>2016-01-27T14:58:04Z</time>
      </trkpt>
      <trkpt lat="43.39543" lon="6.09908">
        <ele>254.19999694824</ele>
        <time>2016-01-27T14:58:05Z</time>
      </trkpt>
      <trkpt lat="43.39543" lon="6.09905">
        <ele>254.39999389648</ele>
        <time>2016-01-27T14:58:06Z</time>
      </trkpt>
      <trkpt lat="43.39545" lon="6.099">
        <ele>254.60000610352</ele>
        <time>2016-01-27T14:58:08Z</time>
      </trkpt>
      <trkpt lat="43.39547" lon="6.09896">
        <ele>254.39999389648</ele>
        <time>2016-01-27T14:58:10Z</time>
      </trkpt>
      <trkpt lat="43.3955" lon="6.09891">
        <ele>254.60000610352</ele>
        <time>2016-01-27T14:58:12Z</time>
      </trkpt>
      <trkpt lat="43.39552" lon="6.09885">
        <ele>255</ele>
        <time>2016-01-27T14:58:14Z</time>
      </trkpt>
      <trkpt lat="43.39553" lon="6.09878">
        <ele>254.80000305176</ele>
        <time>2016-01-27T14:58:16Z</time>
      </trkpt>
      <trkpt lat="43.39553" lon="6.09875">
        <ele>254.80000305176</ele>
        <time>2016-01-27T14:58:17Z</time>
      </trkpt>
      <trkpt lat="43.39554" lon="6.09871">
        <ele>254.80000305176</ele>
        <time>2016-01-27T14:58:18Z</time>
      </trkpt>
      <trkpt lat="43.39556" lon="6.09863">
        <ele>254.80000305176</ele>
        <time>2016-01-27T14:58:20Z</time>
      </trkpt>
      <trkpt lat="43.39557" lon="6.09854">
        <ele>254.80000305176</ele>
        <time>2016-01-27T14:58:22Z</time>
      </trkpt>
      <trkpt lat="43.39558" lon="6.09845">
        <ele>254.60000610352</ele>
        <time>2016-01-27T14:58:24Z</time>
      </trkpt>
      <trkpt lat="43.39559" lon="6.09837">
        <ele>254.80000305176</ele>
        <time>2016-01-27T14:58:26Z</time>
      </trkpt>
      <trkpt lat="43.39561" lon="6.09829">
        <ele>255</ele>
        <time>2016-01-27T14:58:28Z</time>
      </trkpt>
      <trkpt lat="43.39563" lon="6.09821">
        <ele>255</ele>
        <time>2016-01-27T14:58:30Z</time>
      </trkpt>
      <trkpt lat="43.39565" lon="6.09813">
        <ele>254.60000610352</ele>
        <time>2016-01-27T14:58:32Z</time>
      </trkpt>
      <trkpt lat="43.39566" lon="6.09804">
        <ele>254.80000305176</ele>
        <time>2016-01-27T14:58:34Z</time>
      </trkpt>
      <trkpt lat="43.39568" lon="6.09796">
        <ele>254.80000305176</ele>
        <time>2016-01-27T14:58:36Z</time>
      </trkpt>
      <trkpt lat="43.39568" lon="6.09793">
        <ele>255</ele>
        <time>2016-01-27T14:58:37Z</time>
      </trkpt>
      <trkpt lat="43.39569" lon="6.09788">
        <ele>255</ele>
        <time>2016-01-27T14:58:38Z</time>
      </trkpt>
      <trkpt lat="43.39571" lon="6.09781">
        <ele>255</ele>
        <time>2016-01-27T14:58:40Z</time>
      </trkpt>
      <trkpt lat="43.39573" lon="6.09773">
        <ele>255</ele>
        <time>2016-01-27T14:58:42Z</time>
      </trkpt>
      <trkpt lat="43.39575" lon="6.09765">
        <ele>254.80000305176</ele>
        <time>2016-01-27T14:58:44Z</time>
      </trkpt>
      <trkpt lat="43.39577" lon="6.09757">
        <ele>254.60000610352</ele>
        <time>2016-01-27T14:58:46Z</time>
      </trkpt>
      <trkpt lat="43.3958" lon="6.09749">
        <ele>254.80000305176</ele>
        <time>2016-01-27T14:58:48Z</time>
      </trkpt>
      <trkpt lat="43.39583" lon="6.09741">
        <ele>254.80000305176</ele>
        <time>2016-01-27T14:58:50Z</time>
      </trkpt>
      <trkpt lat="43.39584" lon="6.09736">
        <ele>254.80000305176</ele>
        <time>2016-01-27T14:58:51Z</time>
      </trkpt>
      <trkpt lat="43.39585" lon="6.09731">
        <ele>254.60000610352</ele>
        <time>2016-01-27T14:58:52Z</time>
      </trkpt>
      <trkpt lat="43.39587" lon="6.09721">
        <ele>254.80000305176</ele>
        <time>2016-01-27T14:58:54Z</time>
      </trkpt>
      <trkpt lat="43.3959" lon="6.09712">
        <ele>254.60000610352</ele>
        <time>2016-01-27T14:58:56Z</time>
      </trkpt>
      <trkpt lat="43.39591" lon="6.09707">
        <ele>254.60000610352</ele>
        <time>2016-01-27T14:58:57Z</time>
      </trkpt>
      <trkpt lat="43.39592" lon="6.09702">
        <ele>254.60000610352</ele>
        <time>2016-01-27T14:58:58Z</time>
      </trkpt>
      <trkpt lat="43.39594" lon="6.09692">
        <ele>254.60000610352</ele>
        <time>2016-01-27T14:59:00Z</time>
      </trkpt>
      <trkpt lat="43.39597" lon="6.09682">
        <ele>254.60000610352</ele>
        <time>2016-01-27T14:59:02Z</time>
      </trkpt>
      <trkpt lat="43.39598" lon="6.09671">
        <ele>254.60000610352</ele>
        <time>2016-01-27T14:59:04Z</time>
      </trkpt>
      <trkpt lat="43.39601" lon="6.09661">
        <ele>254.60000610352</ele>
        <time>2016-01-27T14:59:06Z</time>
      </trkpt>
      <trkpt lat="43.39602" lon="6.09651">
        <ele>254.60000610352</ele>
        <time>2016-01-27T14:59:08Z</time>
      </trkpt>
      <trkpt lat="43.39604" lon="6.09641">
        <ele>254.39999389648</ele>
        <time>2016-01-27T14:59:10Z</time>
      </trkpt>
      <trkpt lat="43.39606" lon="6.09632">
        <ele>254.39999389648</ele>
        <time>2016-01-27T14:59:12Z</time>
      </trkpt>
      <trkpt lat="43.39607" lon="6.09623">
        <ele>254.60000610352</ele>
        <time>2016-01-27T14:59:14Z</time>
      </trkpt>
      <trkpt lat="43.39609" lon="6.09616">
        <ele>254.39999389648</ele>
        <time>2016-01-27T14:59:16Z</time>
      </trkpt>
      <trkpt lat="43.39611" lon="6.09609">
        <ele>254.19999694824</ele>
        <time>2016-01-27T14:59:18Z</time>
      </trkpt>
      <trkpt lat="43.39612" lon="6.09606">
        <ele>254.39999389648</ele>
        <time>2016-01-27T14:59:19Z</time>
      </trkpt>
      <trkpt lat="43.39613" lon="6.09602">
        <ele>254.39999389648</ele>
        <time>2016-01-27T14:59:20Z</time>
      </trkpt>
      <trkpt lat="43.39613" lon="6.09597">
        <ele>254.19999694824</ele>
        <time>2016-01-27T14:59:22Z</time>
      </trkpt>
      <trkpt lat="43.39615" lon="6.09592">
        <ele>254.39999389648</ele>
        <time>2016-01-27T14:59:24Z</time>
      </trkpt>
      <trkpt lat="43.39616" lon="6.0959">
        <ele>254.39999389648</ele>
        <time>2016-01-27T14:59:25Z</time>
      </trkpt>
      <trkpt lat="43.39616" lon="6.09587">
        <ele>254.19999694824</ele>
        <time>2016-01-27T14:59:26Z</time>
      </trkpt>
      <trkpt lat="43.39618" lon="6.09583">
        <ele>254.19999694824</ele>
        <time>2016-01-27T14:59:28Z</time>
      </trkpt>
      <trkpt lat="43.39619" lon="6.0958">
        <ele>254.19999694824</ele>
        <time>2016-01-27T14:59:30Z</time>
      </trkpt>
      <trkpt lat="43.39619" lon="6.09578">
        <ele>254.19999694824</ele>
        <time>2016-01-27T14:59:31Z</time>
      </trkpt>
      <trkpt lat="43.39619" lon="6.09579">
        <ele>254.19999694824</ele>
        <time>2016-01-27T14:59:32Z</time>
      </trkpt>
      <trkpt lat="43.39619" lon="6.09579">
        <ele>254</ele>
        <time>2016-01-27T14:59:34Z</time>
      </trkpt>
      <trkpt lat="43.39619" lon="6.09579">
        <ele>254</ele>
        <time>2016-01-27T14:59:36Z</time>
      </trkpt>
      <trkpt lat="43.39619" lon="6.09579">
        <ele>254.19999694824</ele>
        <time>2016-01-27T14:59:38Z</time>
      </trkpt>
      <trkpt lat="43.39619" lon="6.09579">
        <ele>254</ele>
        <time>2016-01-27T14:59:40Z</time>
      </trkpt>
      <trkpt lat="43.39619" lon="6.09579">
        <ele>254</ele>
        <time>2016-01-27T14:59:42Z</time>
      </trkpt>
      <trkpt lat="43.39619" lon="6.09579">
        <ele>254</ele>
        <time>2016-01-27T14:59:44Z</time>
      </trkpt>
      <trkpt lat="43.39619" lon="6.09579">
        <ele>254</ele>
        <time>2016-01-27T14:59:46Z</time>
      </trkpt>
      <trkpt lat="43.39619" lon="6.09579">
        <ele>254</ele>
        <time>2016-01-27T14:59:48Z</time>
      </trkpt>
      <trkpt lat="43.39619" lon="6.09579">
        <ele>254</ele>
        <time>2016-01-27T14:59:50Z</time>
      </trkpt>
      <trkpt lat="43.39619" lon="6.09579">
        <ele>254.19999694824</ele>
        <time>2016-01-27T14:59:52Z</time>
      </trkpt>
      <trkpt lat="43.39618" lon="6.09579">
        <ele>254</ele>
        <time>2016-01-27T14:59:54Z</time>
      </trkpt>
      <trkpt lat="43.39618" lon="6.09579">
        <ele>254</ele>
        <time>2016-01-27T14:59:56Z</time>
      </trkpt>
      <trkpt lat="43.39618" lon="6.09579">
        <ele>254.19999694824</ele>
        <time>2016-01-27T14:59:58Z</time>
      </trkpt>
      <trkpt lat="43.39618" lon="6.09579">
        <ele>254</ele>
        <time>2016-01-27T15:00:00Z</time>
      </trkpt>
      <trkpt lat="43.39619" lon="6.09579">
        <ele>254.19999694824</ele>
        <time>2016-01-27T15:00:02Z</time>
      </trkpt>
      <trkpt lat="43.39619" lon="6.09579">
        <ele>254.19999694824</ele>
        <time>2016-01-27T15:00:04Z</time>
      </trkpt>
      <trkpt lat="43.39618" lon="6.09578">
        <ele>254.19999694824</ele>
        <time>2016-01-27T15:00:06Z</time>
      </trkpt>
      <trkpt lat="43.39619" lon="6.09578">
        <ele>254</ele>
        <time>2016-01-27T15:00:08Z</time>
      </trkpt>
      <trkpt lat="43.39618" lon="6.09578">
        <ele>254</ele>
        <time>2016-01-27T15:00:10Z</time>
      </trkpt>
      <trkpt lat="43.39618" lon="6.09578">
        <ele>254</ele>
        <time>2016-01-27T15:00:12Z</time>
      </trkpt>
      <trkpt lat="43.39618" lon="6.09578">
        <ele>254.19999694824</ele>
        <time>2016-01-27T15:00:14Z</time>
      </trkpt>
      <trkpt lat="43.39618" lon="6.09578">
        <ele>254.19999694824</ele>
        <time>2016-01-27T15:00:16Z</time>
      </trkpt>
      <trkpt lat="43.39618" lon="6.09578">
        <ele>254.19999694824</ele>
        <time>2016-01-27T15:00:18Z</time>
      </trkpt>
      <trkpt lat="43.39618" lon="6.09578">
        <ele>254</ele>
        <time>2016-01-27T15:00:20Z</time>
      </trkpt>
      <trkpt lat="43.39618" lon="6.09578">
        <ele>254.19999694824</ele>
        <time>2016-01-27T15:00:22Z</time>
      </trkpt>
      <trkpt lat="43.39618" lon="6.09578">
        <ele>254.39999389648</ele>
        <time>2016-01-27T15:00:24Z</time>
      </trkpt>
      <trkpt lat="43.39618" lon="6.09578">
        <ele>254.39999389648</ele>
        <time>2016-01-27T15:00:26Z</time>
      </trkpt>
      <trkpt lat="43.39618" lon="6.09578">
        <ele>254.39999389648</ele>
        <time>2016-01-27T15:00:27Z</time>
      </trkpt>
      <trkpt lat="43.39618" lon="6.09578">
        <ele>254.39999389648</ele>
        <time>2016-01-27T15:00:28Z</time>
      </trkpt>
      <trkpt lat="43.39618" lon="6.09578">
        <ele>254.19999694824</ele>
        <time>2016-01-27T15:00:30Z</time>
      </trkpt>
      <trkpt lat="43.39618" lon="6.09578">
        <ele>254.19999694824</ele>
        <time>2016-01-27T15:00:32Z</time>
      </trkpt>
      <trkpt lat="43.39618" lon="6.09578">
        <ele>254.19999694824</ele>
        <time>2016-01-27T15:00:34Z</time>
      </trkpt>
      <trkpt lat="43.39618" lon="6.09578">
        <ele>254.19999694824</ele>
        <time>2016-01-27T15:00:36Z</time>
      </trkpt>
      <trkpt lat="43.39618" lon="6.09578">
        <ele>254.19999694824</ele>
        <time>2016-01-27T15:00:38Z</time>
      </trkpt>
      <trkpt lat="43.39618" lon="6.09578">
        <ele>254.19999694824</ele>
        <time>2016-01-27T15:00:40Z</time>
      </trkpt>
      <trkpt lat="43.39618" lon="6.09578">
        <ele>254.19999694824</ele>
        <time>2016-01-27T15:00:42Z</time>
      </trkpt>
      <trkpt lat="43.39618" lon="6.09578">
        <ele>254.19999694824</ele>
        <time>2016-01-27T15:00:44Z</time>
      </trkpt>
      <trkpt lat="43.39618" lon="6.09578">
        <ele>254.39999389648</ele>
        <time>2016-01-27T15:00:46Z</time>
      </trkpt>
      <trkpt lat="43.39618" lon="6.09578">
        <ele>254.39999389648</ele>
        <time>2016-01-27T15:00:48Z</time>
      </trkpt>
      <trkpt lat="43.39618" lon="6.09578">
        <ele>254.19999694824</ele>
        <time>2016-01-27T15:00:50Z</time>
      </trkpt>
      <trkpt lat="43.39618" lon="6.09578">
        <ele>254.19999694824</ele>
        <time>2016-01-27T15:00:52Z</time>
      </trkpt>
      <trkpt lat="43.39618" lon="6.09578">
        <ele>254.19999694824</ele>
        <time>2016-01-27T15:00:54Z</time>
      </trkpt>
      <trkpt lat="43.39618" lon="6.09578">
        <ele>254.19999694824</ele>
        <time>2016-01-27T15:00:56Z</time>
      </trkpt>
      <trkpt lat="43.39618" lon="6.09578">
        <ele>254.19999694824</ele>
        <time>2016-01-27T15:00:58Z</time>
      </trkpt>
      <trkpt lat="43.39618" lon="6.09578">
        <ele>254.39999389648</ele>
        <time>2016-01-27T15:01:00Z</time>
      </trkpt>
      <trkpt lat="43.39618" lon="6.09578">
        <ele>254.39999389648</ele>
        <time>2016-01-27T15:01:02Z</time>
      </trkpt>
      <trkpt lat="43.39618" lon="6.09578">
        <ele>254.19999694824</ele>
        <time>2016-01-27T15:01:04Z</time>
      </trkpt>
      <trkpt lat="43.39618" lon="6.09578">
        <ele>254</ele>
        <time>2016-01-27T15:01:06Z</time>
      </trkpt>
      <trkpt lat="43.39618" lon="6.09578">
        <ele>254.19999694824</ele>
        <time>2016-01-27T15:01:08Z</time>
      </trkpt>
      <trkpt lat="43.39618" lon="6.09578">
        <ele>254.39999389648</ele>
        <time>2016-01-27T15:01:10Z</time>
      </trkpt>
      <trkpt lat="43.39618" lon="6.09578">
        <ele>254.19999694824</ele>
        <time>2016-01-27T15:01:12Z</time>
      </trkpt>
      <trkpt lat="43.39618" lon="6.09578">
        <ele>254.19999694824</ele>
        <time>2016-01-27T15:01:14Z</time>
      </trkpt>
      <trkpt lat="43.39618" lon="6.09578">
        <ele>254.19999694824</ele>
        <time>2016-01-27T15:01:16Z</time>
      </trkpt>
      <trkpt lat="43.39618" lon="6.09578">
        <ele>254</ele>
        <time>2016-01-27T15:01:18Z</time>
      </trkpt>
      <trkpt lat="43.39618" lon="6.09578">
        <ele>254.39999389648</ele>
        <time>2016-01-27T15:01:20Z</time>
      </trkpt>
      <trkpt lat="43.39618" lon="6.09578">
        <ele>254.39999389648</ele>
        <time>2016-01-27T15:01:22Z</time>
      </trkpt>
      <trkpt lat="43.39618" lon="6.09578">
        <ele>254.19999694824</ele>
        <time>2016-01-27T15:01:24Z</time>
      </trkpt>
      <trkpt lat="43.39618" lon="6.09578">
        <ele>254.19999694824</ele>
        <time>2016-01-27T15:01:25Z</time>
      </trkpt>
      <trkpt lat="43.39618" lon="6.09578">
        <ele>254.19999694824</ele>
        <time>2016-01-27T15:01:28Z</time>
      </trkpt>
      <trkpt lat="43.39618" lon="6.09578">
        <ele>254.39999389648</ele>
        <time>2016-01-27T15:01:30Z</time>
      </trkpt>
      <trkpt lat="43.39618" lon="6.09578">
        <ele>254.39999389648</ele>
        <time>2016-01-27T15:01:32Z</time>
      </trkpt>
      <trkpt lat="43.39618" lon="6.09578">
        <ele>254.39999389648</ele>
        <time>2016-01-27T15:01:34Z</time>
      </trkpt>
      <trkpt lat="43.39618" lon="6.09578">
        <ele>254.19999694824</ele>
        <time>2016-01-27T15:01:36Z</time>
      </trkpt>
      <trkpt lat="43.39618" lon="6.09578">
        <ele>254.19999694824</ele>
        <time>2016-01-27T15:01:38Z</time>
      </trkpt>
      <trkpt lat="43.39618" lon="6.09578">
        <ele>254.19999694824</ele>
        <time>2016-01-27T15:01:40Z</time>
      </trkpt>
      <trkpt lat="43.39618" lon="6.09578">
        <ele>254.19999694824</ele>
        <time>2016-01-27T15:01:42Z</time>
      </trkpt>
      <trkpt lat="43.39618" lon="6.09578">
        <ele>254.39999389648</ele>
        <time>2016-01-27T15:01:44Z</time>
      </trkpt>
      <trkpt lat="43.39618" lon="6.09578">
        <ele>254.39999389648</ele>
        <time>2016-01-27T15:01:46Z</time>
      </trkpt>
      <trkpt lat="43.39618" lon="6.09578">
        <ele>254.19999694824</ele>
        <time>2016-01-27T15:01:48Z</time>
      </trkpt>
      <trkpt lat="43.39618" lon="6.09578">
        <ele>254.19999694824</ele>
        <time>2016-01-27T15:01:50Z</time>
      </trkpt>
      <trkpt lat="43.39618" lon="6.09578">
        <ele>254.39999389648</ele>
        <time>2016-01-27T15:01:52Z</time>
      </trkpt>
      <trkpt lat="43.39618" lon="6.09578">
        <ele>254.19999694824</ele>
        <time>2016-01-27T15:01:53Z</time>
      </trkpt>
      <trkpt lat="43.39618" lon="6.09578">
        <ele>254.19999694824</ele>
        <time>2016-01-27T15:01:56Z</time>
      </trkpt>
      <trkpt lat="43.39618" lon="6.09578">
        <ele>254.19999694824</ele>
        <time>2016-01-27T15:01:58Z</time>
      </trkpt>
      <trkpt lat="43.39618" lon="6.09578">
        <ele>254.19999694824</ele>
        <time>2016-01-27T15:02:00Z</time>
      </trkpt>
      <trkpt lat="43.39619" lon="6.09575">
        <ele>254.60000610352</ele>
        <time>2016-01-27T15:02:02Z</time>
      </trkpt>
      <trkpt lat="43.39622" lon="6.09571">
        <ele>254.39999389648</ele>
        <time>2016-01-27T15:02:04Z</time>
      </trkpt>
      <trkpt lat="43.39625" lon="6.09562">
        <ele>253.60000610352</ele>
        <time>2016-01-27T15:02:06Z</time>
      </trkpt>
      <trkpt lat="43.39628" lon="6.09551">
        <ele>253.19999694824</ele>
        <time>2016-01-27T15:02:08Z</time>
      </trkpt>
      <trkpt lat="43.39634" lon="6.09544">
        <ele>252.80000305176</ele>
        <time>2016-01-27T15:02:10Z</time>
      </trkpt>
      <trkpt lat="43.39638" lon="6.09538">
        <ele>252.19999694824</ele>
        <time>2016-01-27T15:02:12Z</time>
      </trkpt>
      <trkpt lat="43.39643" lon="6.09531">
        <ele>252</ele>
        <time>2016-01-27T15:02:14Z</time>
      </trkpt>
      <trkpt lat="43.39646" lon="6.09527">
        <ele>251</ele>
        <time>2016-01-27T15:02:15Z</time>
      </trkpt>
      <trkpt lat="43.39649" lon="6.09522">
        <ele>250.39999389648</ele>
        <time>2016-01-27T15:02:16Z</time>
      </trkpt>
      <trkpt lat="43.39652" lon="6.09517">
        <ele>249.80000305176</ele>
        <time>2016-01-27T15:02:17Z</time>
      </trkpt>
      <trkpt lat="43.39655" lon="6.0951">
        <ele>249.19999694824</ele>
        <time>2016-01-27T15:02:18Z</time>
      </trkpt>
      <trkpt lat="43.39658" lon="6.09504">
        <ele>248.19999694824</ele>
        <time>2016-01-27T15:02:19Z</time>
      </trkpt>
      <trkpt lat="43.39661" lon="6.09497">
        <ele>247.80000305176</ele>
        <time>2016-01-27T15:02:20Z</time>
      </trkpt>
      <trkpt lat="43.39663" lon="6.09491">
        <ele>247.19999694824</ele>
        <time>2016-01-27T15:02:21Z</time>
      </trkpt>
      <trkpt lat="43.39665" lon="6.09486">
        <ele>246.80000305176</ele>
        <time>2016-01-27T15:02:22Z</time>
      </trkpt>
      <trkpt lat="43.39668" lon="6.09478">
        <ele>246</ele>
        <time>2016-01-27T15:02:24Z</time>
      </trkpt>
      <trkpt lat="43.39668" lon="6.09469">
        <ele>245.19999694824</ele>
        <time>2016-01-27T15:02:26Z</time>
      </trkpt>
      <trkpt lat="43.39669" lon="6.09466">
        <ele>244.80000305176</ele>
        <time>2016-01-27T15:02:27Z</time>
      </trkpt>
      <trkpt lat="43.39669" lon="6.09464">
        <ele>244.80000305176</ele>
        <time>2016-01-27T15:02:28Z</time>
      </trkpt>
      <trkpt lat="43.39671" lon="6.09461">
        <ele>244.39999389648</ele>
        <time>2016-01-27T15:02:30Z</time>
      </trkpt>
      <trkpt lat="43.39672" lon="6.09461">
        <ele>244.39999389648</ele>
        <time>2016-01-27T15:02:31Z</time>
      </trkpt>
      <trkpt lat="43.39674" lon="6.09461">
        <ele>244.39999389648</ele>
        <time>2016-01-27T15:02:32Z</time>
      </trkpt>
      <trkpt lat="43.39678" lon="6.09463">
        <ele>243.19999694824</ele>
        <time>2016-01-27T15:02:34Z</time>
      </trkpt>
      <trkpt lat="43.39688" lon="6.09465">
        <ele>240.60000610352</ele>
        <time>2016-01-27T15:02:36Z</time>
      </trkpt>
      <trkpt lat="43.39692" lon="6.09459">
        <ele>239.60000610352</ele>
        <time>2016-01-27T15:02:38Z</time>
      </trkpt>
      <trkpt lat="43.39693" lon="6.09456">
        <ele>239.39999389648</ele>
        <time>2016-01-27T15:02:39Z</time>
      </trkpt>
      <trkpt lat="43.39695" lon="6.09454">
        <ele>239.19999694824</ele>
        <time>2016-01-27T15:02:40Z</time>
      </trkpt>
      <trkpt lat="43.39697" lon="6.0945">
        <ele>239</ele>
        <time>2016-01-27T15:02:42Z</time>
      </trkpt>
      <trkpt lat="43.39698" lon="6.09448">
        <ele>239.19999694824</ele>
        <time>2016-01-27T15:02:43Z</time>
      </trkpt>
      <trkpt lat="43.39698" lon="6.09447">
        <ele>239.19999694824</ele>
        <time>2016-01-27T15:02:44Z</time>
      </trkpt>
      <trkpt lat="43.39698" lon="6.09448">
        <ele>239.19999694824</ele>
        <time>2016-01-27T15:02:45Z</time>
      </trkpt>
      <trkpt lat="43.39698" lon="6.09448">
        <ele>239.19999694824</ele>
        <time>2016-01-27T15:02:46Z</time>
      </trkpt>
      <trkpt lat="43.39698" lon="6.09448">
        <ele>239</ele>
        <time>2016-01-27T15:02:48Z</time>
      </trkpt>
      <trkpt lat="43.39698" lon="6.09448">
        <ele>239</ele>
        <time>2016-01-27T15:02:50Z</time>
      </trkpt>
      <trkpt lat="43.39698" lon="6.09448">
        <ele>238.80000305176</ele>
        <time>2016-01-27T15:02:52Z</time>
      </trkpt>
      <trkpt lat="43.39698" lon="6.09448">
        <ele>239</ele>
        <time>2016-01-27T15:02:54Z</time>
      </trkpt>
      <trkpt lat="43.39698" lon="6.09448">
        <ele>238.80000305176</ele>
        <time>2016-01-27T15:02:56Z</time>
      </trkpt>
      <trkpt lat="43.39698" lon="6.09448">
        <ele>238.60000610352</ele>
        <time>2016-01-27T15:02:58Z</time>
      </trkpt>
      <trkpt lat="43.39698" lon="6.09448">
        <ele>238.80000305176</ele>
        <time>2016-01-27T15:03:00Z</time>
      </trkpt>
      <trkpt lat="43.39698" lon="6.09448">
        <ele>238.80000305176</ele>
        <time>2016-01-27T15:03:02Z</time>
      </trkpt>
      <trkpt lat="43.39698" lon="6.09448">
        <ele>239</ele>
        <time>2016-01-27T15:03:04Z</time>
      </trkpt>
      <trkpt lat="43.39698" lon="6.09448">
        <ele>238.80000305176</ele>
        <time>2016-01-27T15:03:05Z</time>
      </trkpt>
      <trkpt lat="43.39698" lon="6.09448">
        <ele>238.60000610352</ele>
        <time>2016-01-27T15:03:08Z</time>
      </trkpt>
      <trkpt lat="43.39698" lon="6.09448">
        <ele>238.80000305176</ele>
        <time>2016-01-27T15:03:10Z</time>
      </trkpt>
      <trkpt lat="43.39698" lon="6.09448">
        <ele>238.80000305176</ele>
        <time>2016-01-27T15:03:12Z</time>
      </trkpt>
      <trkpt lat="43.39698" lon="6.09448">
        <ele>239</ele>
        <time>2016-01-27T15:03:14Z</time>
      </trkpt>
      <trkpt lat="43.39698" lon="6.09448">
        <ele>238.80000305176</ele>
        <time>2016-01-27T15:03:16Z</time>
      </trkpt>
      <trkpt lat="43.39698" lon="6.09448">
        <ele>238.80000305176</ele>
        <time>2016-01-27T15:03:18Z</time>
      </trkpt>
      <trkpt lat="43.39698" lon="6.09448">
        <ele>238.60000610352</ele>
        <time>2016-01-27T15:03:20Z</time>
      </trkpt>
      <trkpt lat="43.39698" lon="6.09448">
        <ele>238.60000610352</ele>
        <time>2016-01-27T15:03:22Z</time>
      </trkpt>
      <trkpt lat="43.39698" lon="6.09448">
        <ele>238.80000305176</ele>
        <time>2016-01-27T15:03:24Z</time>
      </trkpt>
      <trkpt lat="43.39698" lon="6.09448">
        <ele>238.80000305176</ele>
        <time>2016-01-27T15:03:25Z</time>
      </trkpt>
      <trkpt lat="43.39698" lon="6.09448">
        <ele>238.80000305176</ele>
        <time>2016-01-27T15:03:26Z</time>
      </trkpt>
      <trkpt lat="43.39698" lon="6.09448">
        <ele>238.80000305176</ele>
        <time>2016-01-27T15:03:28Z</time>
      </trkpt>
      <trkpt lat="43.39698" lon="6.09448">
        <ele>238.80000305176</ele>
        <time>2016-01-27T15:03:30Z</time>
      </trkpt>
      <trkpt lat="43.39698" lon="6.09448">
        <ele>238.80000305176</ele>
        <time>2016-01-27T15:03:32Z</time>
      </trkpt>
      <trkpt lat="43.39698" lon="6.09448">
        <ele>238.80000305176</ele>
        <time>2016-01-27T15:03:34Z</time>
      </trkpt>
      <trkpt lat="43.39698" lon="6.09448">
        <ele>238.80000305176</ele>
        <time>2016-01-27T15:03:36Z</time>
      </trkpt>
      <trkpt lat="43.39698" lon="6.09448">
        <ele>238.80000305176</ele>
        <time>2016-01-27T15:03:38Z</time>
      </trkpt>
      <trkpt lat="43.39698" lon="6.09447">
        <ele>238.60000610352</ele>
        <time>2016-01-27T15:03:40Z</time>
      </trkpt>
      <trkpt lat="43.39698" lon="6.09447">
        <ele>238.80000305176</ele>
        <time>2016-01-27T15:03:42Z</time>
      </trkpt>
      <trkpt lat="43.39698" lon="6.09447">
        <ele>239</ele>
        <time>2016-01-27T15:03:44Z</time>
      </trkpt>
      <trkpt lat="43.39698" lon="6.09447">
        <ele>239</ele>
        <time>2016-01-27T15:03:45Z</time>
      </trkpt>
      <trkpt lat="43.397" lon="6.09445">
        <ele>239</ele>
        <time>2016-01-27T15:03:46Z</time>
      </trkpt>
      <trkpt lat="43.397" lon="6.09443">
        <ele>238.80000305176</ele>
        <time>2016-01-27T15:03:47Z</time>
      </trkpt>
      <trkpt lat="43.39701" lon="6.0944">
        <ele>238.80000305176</ele>
        <time>2016-01-27T15:03:48Z</time>
      </trkpt>
      <trkpt lat="43.39704" lon="6.09436">
        <ele>238.80000305176</ele>
        <time>2016-01-27T15:03:50Z</time>
      </trkpt>
      <trkpt lat="43.39705" lon="6.09433">
        <ele>238.60000610352</ele>
        <time>2016-01-27T15:03:52Z</time>
      </trkpt>
      <trkpt lat="43.39706" lon="6.09432">
        <ele>238.60000610352</ele>
        <time>2016-01-27T15:03:53Z</time>
      </trkpt>
      <trkpt lat="43.39708" lon="6.09431">
        <ele>238.60000610352</ele>
        <time>2016-01-27T15:03:54Z</time>
      </trkpt>
      <trkpt lat="43.39708" lon="6.09428">
        <ele>238.60000610352</ele>
        <time>2016-01-27T15:03:55Z</time>
      </trkpt>
      <trkpt lat="43.3971" lon="6.09425">
        <ele>238.60000610352</ele>
        <time>2016-01-27T15:03:56Z</time>
      </trkpt>
      <trkpt lat="43.39714" lon="6.0942">
        <ele>238.60000610352</ele>
        <time>2016-01-27T15:03:58Z</time>
      </trkpt>
      <trkpt lat="43.39717" lon="6.09417">
        <ele>238.60000610352</ele>
        <time>2016-01-27T15:03:59Z</time>
      </trkpt>
      <trkpt lat="43.3972" lon="6.09414">
        <ele>238.19999694824</ele>
        <time>2016-01-27T15:04:00Z</time>
      </trkpt>
      <trkpt lat="43.39726" lon="6.09405">
        <ele>238.39999389648</ele>
        <time>2016-01-27T15:04:02Z</time>
      </trkpt>
      <trkpt lat="43.39729" lon="6.094">
        <ele>238.60000610352</ele>
        <time>2016-01-27T15:04:03Z</time>
      </trkpt>
      <trkpt lat="43.39732" lon="6.09395">
        <ele>238.60000610352</ele>
        <time>2016-01-27T15:04:04Z</time>
      </trkpt>
      <trkpt lat="43.39737" lon="6.09383">
        <ele>238.80000305176</ele>
        <time>2016-01-27T15:04:06Z</time>
      </trkpt>
      <trkpt lat="43.39743" lon="6.09374">
        <ele>238.39999389648</ele>
        <time>2016-01-27T15:04:08Z</time>
      </trkpt>
      <trkpt lat="43.39747" lon="6.09369">
        <ele>238.19999694824</ele>
        <time>2016-01-27T15:04:09Z</time>
      </trkpt>
      <trkpt lat="43.3975" lon="6.09364">
        <ele>238.19999694824</ele>
        <time>2016-01-27T15:04:10Z</time>
      </trkpt>
      <trkpt lat="43.39756" lon="6.0935">
        <ele>238</ele>
        <time>2016-01-27T15:04:12Z</time>
      </trkpt>
      <trkpt lat="43.3976" lon="6.09344">
        <ele>238.39999389648</ele>
        <time>2016-01-27T15:04:13Z</time>
      </trkpt>
      <trkpt lat="43.39763" lon="6.09336">
        <ele>238.60000610352</ele>
        <time>2016-01-27T15:04:14Z</time>
      </trkpt>
      <trkpt lat="43.3977" lon="6.09322">
        <ele>238.60000610352</ele>
        <time>2016-01-27T15:04:16Z</time>
      </trkpt>
      <trkpt lat="43.39777" lon="6.09307">
        <ele>238</ele>
        <time>2016-01-27T15:04:18Z</time>
      </trkpt>
      <trkpt lat="43.39779" lon="6.093">
        <ele>237.80000305176</ele>
        <time>2016-01-27T15:04:19Z</time>
      </trkpt>
      <trkpt lat="43.39781" lon="6.09291">
        <ele>238.19999694824</ele>
        <time>2016-01-27T15:04:20Z</time>
      </trkpt>
      <trkpt lat="43.39785" lon="6.09275">
        <ele>238.19999694824</ele>
        <time>2016-01-27T15:04:22Z</time>
      </trkpt>
      <trkpt lat="43.39788" lon="6.09257">
        <ele>238.80000305176</ele>
        <time>2016-01-27T15:04:24Z</time>
      </trkpt>
      <trkpt lat="43.3979" lon="6.09249">
        <ele>238.80000305176</ele>
        <time>2016-01-27T15:04:25Z</time>
      </trkpt>
      <trkpt lat="43.39791" lon="6.0924">
        <ele>238.60000610352</ele>
        <time>2016-01-27T15:04:26Z</time>
      </trkpt>
      <trkpt lat="43.39792" lon="6.09232">
        <ele>238.60000610352</ele>
        <time>2016-01-27T15:04:27Z</time>
      </trkpt>
      <trkpt lat="43.39794" lon="6.09222">
        <ele>238.60000610352</ele>
        <time>2016-01-27T15:04:28Z</time>
      </trkpt>
      <trkpt lat="43.39796" lon="6.09204">
        <ele>239.19999694824</ele>
        <time>2016-01-27T15:04:30Z</time>
      </trkpt>
      <trkpt lat="43.39796" lon="6.09196">
        <ele>239.19999694824</ele>
        <time>2016-01-27T15:04:31Z</time>
      </trkpt>
      <trkpt lat="43.39796" lon="6.09187">
        <ele>239.19999694824</ele>
        <time>2016-01-27T15:04:32Z</time>
      </trkpt>
      <trkpt lat="43.39796" lon="6.09178">
        <ele>239.39999389648</ele>
        <time>2016-01-27T15:04:33Z</time>
      </trkpt>
      <trkpt lat="43.39796" lon="6.09169">
        <ele>239.60000610352</ele>
        <time>2016-01-27T15:04:34Z</time>
      </trkpt>
      <trkpt lat="43.39796" lon="6.09153">
        <ele>240</ele>
        <time>2016-01-27T15:04:36Z</time>
      </trkpt>
      <trkpt lat="43.39797" lon="6.09147">
        <ele>240.19999694824</ele>
        <time>2016-01-27T15:04:37Z</time>
      </trkpt>
      <trkpt lat="43.39798" lon="6.0914">
        <ele>240.19999694824</ele>
        <time>2016-01-27T15:04:38Z</time>
      </trkpt>
      <trkpt lat="43.39799" lon="6.09134">
        <ele>240</ele>
        <time>2016-01-27T15:04:39Z</time>
      </trkpt>
      <trkpt lat="43.39799" lon="6.09128">
        <ele>240.19999694824</ele>
        <time>2016-01-27T15:04:40Z</time>
      </trkpt>
      <trkpt lat="43.39801" lon="6.09123">
        <ele>240.39999389648</ele>
        <time>2016-01-27T15:04:41Z</time>
      </trkpt>
      <trkpt lat="43.39803" lon="6.09118">
        <ele>240.39999389648</ele>
        <time>2016-01-27T15:04:42Z</time>
      </trkpt>
      <trkpt lat="43.39803" lon="6.09112">
        <ele>240.60000610352</ele>
        <time>2016-01-27T15:04:43Z</time>
      </trkpt>
      <trkpt lat="43.39804" lon="6.09108">
        <ele>240.60000610352</ele>
        <time>2016-01-27T15:04:44Z</time>
      </trkpt>
      <trkpt lat="43.39808" lon="6.09099">
        <ele>241</ele>
        <time>2016-01-27T15:04:46Z</time>
      </trkpt>
      <trkpt lat="43.39809" lon="6.09092">
        <ele>241</ele>
        <time>2016-01-27T15:04:48Z</time>
      </trkpt>
      <trkpt lat="43.39812" lon="6.09083">
        <ele>241.19999694824</ele>
        <time>2016-01-27T15:04:50Z</time>
      </trkpt>
      <trkpt lat="43.39815" lon="6.09075">
        <ele>240.80000305176</ele>
        <time>2016-01-27T15:04:52Z</time>
      </trkpt>
      <trkpt lat="43.39819" lon="6.09067">
        <ele>241.19999694824</ele>
        <time>2016-01-27T15:04:54Z</time>
      </trkpt>
      <trkpt lat="43.39822" lon="6.09058">
        <ele>241</ele>
        <time>2016-01-27T15:04:56Z</time>
      </trkpt>
      <trkpt lat="43.39826" lon="6.09049">
        <ele>240.80000305176</ele>
        <time>2016-01-27T15:04:58Z</time>
      </trkpt>
      <trkpt lat="43.39829" lon="6.09045">
        <ele>240.60000610352</ele>
        <time>2016-01-27T15:04:59Z</time>
      </trkpt>
      <trkpt lat="43.39833" lon="6.0904">
        <ele>240.39999389648</ele>
        <time>2016-01-27T15:05:00Z</time>
      </trkpt>
      <trkpt lat="43.39837" lon="6.09037">
        <ele>240.19999694824</ele>
        <time>2016-01-27T15:05:01Z</time>
      </trkpt>
      <trkpt lat="43.39841" lon="6.09033">
        <ele>240.19999694824</ele>
        <time>2016-01-27T15:05:02Z</time>
      </trkpt>
      <trkpt lat="43.3985" lon="6.09024">
        <ele>240</ele>
        <time>2016-01-27T15:05:04Z</time>
      </trkpt>
      <trkpt lat="43.39854" lon="6.09019">
        <ele>239.60000610352</ele>
        <time>2016-01-27T15:05:05Z</time>
      </trkpt>
      <trkpt lat="43.39858" lon="6.09014">
        <ele>239.19999694824</ele>
        <time>2016-01-27T15:05:06Z</time>
      </trkpt>
      <trkpt lat="43.39866" lon="6.09002">
        <ele>238.80000305176</ele>
        <time>2016-01-27T15:05:08Z</time>
      </trkpt>
      <trkpt lat="43.39872" lon="6.08997">
        <ele>238.80000305176</ele>
        <time>2016-01-27T15:05:09Z</time>
      </trkpt>
      <trkpt lat="43.39877" lon="6.08993">
        <ele>238.60000610352</ele>
        <time>2016-01-27T15:05:10Z</time>
      </trkpt>
      <trkpt lat="43.39882" lon="6.0899">
        <ele>238.19999694824</ele>
        <time>2016-01-27T15:05:11Z</time>
      </trkpt>
      <trkpt lat="43.39888" lon="6.08988">
        <ele>237.80000305176</ele>
        <time>2016-01-27T15:05:12Z</time>
      </trkpt>
      <trkpt lat="43.39893" lon="6.08987">
        <ele>237.80000305176</ele>
        <time>2016-01-27T15:05:13Z</time>
      </trkpt>
      <trkpt lat="43.39899" lon="6.08987">
        <ele>238</ele>
        <time>2016-01-27T15:05:14Z</time>
      </trkpt>
      <trkpt lat="43.3991" lon="6.08987">
        <ele>237</ele>
        <time>2016-01-27T15:05:16Z</time>
      </trkpt>
      <trkpt lat="43.39916" lon="6.08988">
        <ele>236.80000305176</ele>
        <time>2016-01-27T15:05:17Z</time>
      </trkpt>
      <trkpt lat="43.39922" lon="6.08989">
        <ele>236.80000305176</ele>
        <time>2016-01-27T15:05:18Z</time>
      </trkpt>
      <trkpt lat="43.39929" lon="6.08988">
        <ele>236.39999389648</ele>
        <time>2016-01-27T15:05:19Z</time>
      </trkpt>
      <trkpt lat="43.39935" lon="6.08987">
        <ele>235.80000305176</ele>
        <time>2016-01-27T15:05:20Z</time>
      </trkpt>
      <trkpt lat="43.39943" lon="6.08986">
        <ele>235.19999694824</ele>
        <time>2016-01-27T15:05:21Z</time>
      </trkpt>
      <trkpt lat="43.39949" lon="6.08985">
        <ele>234.80000305176</ele>
        <time>2016-01-27T15:05:22Z</time>
      </trkpt>
      <trkpt lat="43.39957" lon="6.08982">
        <ele>234.60000610352</ele>
        <time>2016-01-27T15:05:23Z</time>
      </trkpt>
      <trkpt lat="43.39965" lon="6.0898">
        <ele>234.39999389648</ele>
        <time>2016-01-27T15:05:24Z</time>
      </trkpt>
      <trkpt lat="43.3998" lon="6.08978">
        <ele>234.19999694824</ele>
        <time>2016-01-27T15:05:26Z</time>
      </trkpt>
      <trkpt lat="43.39994" lon="6.08974">
        <ele>234.19999694824</ele>
        <time>2016-01-27T15:05:28Z</time>
      </trkpt>
      <trkpt lat="43.40009" lon="6.08971">
        <ele>233.60000610352</ele>
        <time>2016-01-27T15:05:30Z</time>
      </trkpt>
      <trkpt lat="43.40015" lon="6.08968">
        <ele>233.60000610352</ele>
        <time>2016-01-27T15:05:31Z</time>
      </trkpt>
      <trkpt lat="43.40021" lon="6.08964">
        <ele>233.80000305176</ele>
        <time>2016-01-27T15:05:32Z</time>
      </trkpt>
      <trkpt lat="43.40025" lon="6.0896">
        <ele>233.60000610352</ele>
        <time>2016-01-27T15:05:33Z</time>
      </trkpt>
      <trkpt lat="43.40028" lon="6.08953">
        <ele>233</ele>
        <time>2016-01-27T15:05:34Z</time>
      </trkpt>
      <trkpt lat="43.40029" lon="6.08947">
        <ele>232.60000610352</ele>
        <time>2016-01-27T15:05:35Z</time>
      </trkpt>
      <trkpt lat="43.4003" lon="6.0894">
        <ele>232.39999389648</ele>
        <time>2016-01-27T15:05:36Z</time>
      </trkpt>
      <trkpt lat="43.40034" lon="6.08925">
        <ele>233</ele>
        <time>2016-01-27T15:05:38Z</time>
      </trkpt>
      <trkpt lat="43.40036" lon="6.08918">
        <ele>232.80000305176</ele>
        <time>2016-01-27T15:05:39Z</time>
      </trkpt>
      <trkpt lat="43.40038" lon="6.0891">
        <ele>232.60000610352</ele>
        <time>2016-01-27T15:05:40Z</time>
      </trkpt>
      <trkpt lat="43.40041" lon="6.08895">
        <ele>233</ele>
        <time>2016-01-27T15:05:42Z</time>
      </trkpt>
      <trkpt lat="43.40046" lon="6.08881">
        <ele>233</ele>
        <time>2016-01-27T15:05:44Z</time>
      </trkpt>
      <trkpt lat="43.40051" lon="6.08866">
        <ele>233</ele>
        <time>2016-01-27T15:05:46Z</time>
      </trkpt>
      <trkpt lat="43.40056" lon="6.08851">
        <ele>232.60000610352</ele>
        <time>2016-01-27T15:05:48Z</time>
      </trkpt>
      <trkpt lat="43.40061" lon="6.08838">
        <ele>232.80000305176</ele>
        <time>2016-01-27T15:05:50Z</time>
      </trkpt>
      <trkpt lat="43.40065" lon="6.08824">
        <ele>233.19999694824</ele>
        <time>2016-01-27T15:05:52Z</time>
      </trkpt>
      <trkpt lat="43.40071" lon="6.08811">
        <ele>233</ele>
        <time>2016-01-27T15:05:54Z</time>
      </trkpt>
      <trkpt lat="43.40076" lon="6.088">
        <ele>233</ele>
        <time>2016-01-27T15:05:56Z</time>
      </trkpt>
      <trkpt lat="43.4008" lon="6.08788">
        <ele>233.19999694824</ele>
        <time>2016-01-27T15:05:58Z</time>
      </trkpt>
      <trkpt lat="43.40084" lon="6.08776">
        <ele>233.39999389648</ele>
        <time>2016-01-27T15:06:00Z</time>
      </trkpt>
      <trkpt lat="43.40088" lon="6.08764">
        <ele>233</ele>
        <time>2016-01-27T15:06:02Z</time>
      </trkpt>
      <trkpt lat="43.40092" lon="6.08751">
        <ele>233</ele>
        <time>2016-01-27T15:06:04Z</time>
      </trkpt>
      <trkpt lat="43.40096" lon="6.08739">
        <ele>232.80000305176</ele>
        <time>2016-01-27T15:06:06Z</time>
      </trkpt>
      <trkpt lat="43.40099" lon="6.08727">
        <ele>233</ele>
        <time>2016-01-27T15:06:08Z</time>
      </trkpt>
      <trkpt lat="43.40099" lon="6.08721">
        <ele>232.80000305176</ele>
        <time>2016-01-27T15:06:09Z</time>
      </trkpt>
      <trkpt lat="43.401" lon="6.08714">
        <ele>232.39999389648</ele>
        <time>2016-01-27T15:06:10Z</time>
      </trkpt>
      <trkpt lat="43.40102" lon="6.08702">
        <ele>232</ele>
        <time>2016-01-27T15:06:12Z</time>
      </trkpt>
      <trkpt lat="43.40103" lon="6.08696">
        <ele>232</ele>
        <time>2016-01-27T15:06:13Z</time>
      </trkpt>
      <trkpt lat="43.40103" lon="6.08689">
        <ele>232</ele>
        <time>2016-01-27T15:06:14Z</time>
      </trkpt>
      <trkpt lat="43.40103" lon="6.08678">
        <ele>231.80000305176</ele>
        <time>2016-01-27T15:06:16Z</time>
      </trkpt>
      <trkpt lat="43.40101" lon="6.08671">
        <ele>231.60000610352</ele>
        <time>2016-01-27T15:06:17Z</time>
      </trkpt>
      <trkpt lat="43.40099" lon="6.08663">
        <ele>231.19999694824</ele>
        <time>2016-01-27T15:06:18Z</time>
      </trkpt>
      <trkpt lat="43.40098" lon="6.08647">
        <ele>230.19999694824</ele>
        <time>2016-01-27T15:06:20Z</time>
      </trkpt>
      <trkpt lat="43.401" lon="6.08639">
        <ele>229.60000610352</ele>
        <time>2016-01-27T15:06:21Z</time>
      </trkpt>
      <trkpt lat="43.40104" lon="6.08632">
        <ele>229.19999694824</ele>
        <time>2016-01-27T15:06:22Z</time>
      </trkpt>
      <trkpt lat="43.40108" lon="6.08628">
        <ele>229</ele>
        <time>2016-01-27T15:06:23Z</time>
      </trkpt>
      <trkpt lat="43.40114" lon="6.08623">
        <ele>228.80000305176</ele>
        <time>2016-01-27T15:06:24Z</time>
      </trkpt>
      <trkpt lat="43.40119" lon="6.08618">
        <ele>229</ele>
        <time>2016-01-27T15:06:25Z</time>
      </trkpt>
      <trkpt lat="43.40124" lon="6.08614">
        <ele>229</ele>
        <time>2016-01-27T15:06:26Z</time>
      </trkpt>
      <trkpt lat="43.40133" lon="6.08605">
        <ele>228</ele>
        <time>2016-01-27T15:06:28Z</time>
      </trkpt>
      <trkpt lat="43.40142" lon="6.08597">
        <ele>228.39999389648</ele>
        <time>2016-01-27T15:06:30Z</time>
      </trkpt>
      <trkpt lat="43.40147" lon="6.08594">
        <ele>228.19999694824</ele>
        <time>2016-01-27T15:06:31Z</time>
      </trkpt>
      <trkpt lat="43.40151" lon="6.08591">
        <ele>227.80000305176</ele>
        <time>2016-01-27T15:06:32Z</time>
      </trkpt>
      <trkpt lat="43.4016" lon="6.08587">
        <ele>227.60000610352</ele>
        <time>2016-01-27T15:06:34Z</time>
      </trkpt>
      <trkpt lat="43.40166" lon="6.08581">
        <ele>227.60000610352</ele>
        <time>2016-01-27T15:06:36Z</time>
      </trkpt>
      <trkpt lat="43.40168" lon="6.08575">
        <ele>227.60000610352</ele>
        <time>2016-01-27T15:06:37Z</time>
      </trkpt>
      <trkpt lat="43.40169" lon="6.08568">
        <ele>227.60000610352</ele>
        <time>2016-01-27T15:06:38Z</time>
      </trkpt>
      <trkpt lat="43.40168" lon="6.08556">
        <ele>227.80000305176</ele>
        <time>2016-01-27T15:06:40Z</time>
      </trkpt>
      <trkpt lat="43.40168" lon="6.0855">
        <ele>228.19999694824</ele>
        <time>2016-01-27T15:06:41Z</time>
      </trkpt>
      <trkpt lat="43.40167" lon="6.08543">
        <ele>228.60000610352</ele>
        <time>2016-01-27T15:06:42Z</time>
      </trkpt>
      <trkpt lat="43.40167" lon="6.08532">
        <ele>228.80000305176</ele>
        <time>2016-01-27T15:06:44Z</time>
      </trkpt>
      <trkpt lat="43.40168" lon="6.0852">
        <ele>229.19999694824</ele>
        <time>2016-01-27T15:06:46Z</time>
      </trkpt>
      <trkpt lat="43.40168" lon="6.08514">
        <ele>229.19999694824</ele>
        <time>2016-01-27T15:06:47Z</time>
      </trkpt>
      <trkpt lat="43.40168" lon="6.08509">
        <ele>229.19999694824</ele>
        <time>2016-01-27T15:06:48Z</time>
      </trkpt>
      <trkpt lat="43.40171" lon="6.08499">
        <ele>229.39999389648</ele>
        <time>2016-01-27T15:06:50Z</time>
      </trkpt>
      <trkpt lat="43.40173" lon="6.08489">
        <ele>229.60000610352</ele>
        <time>2016-01-27T15:06:52Z</time>
      </trkpt>
      <trkpt lat="43.40174" lon="6.08485">
        <ele>229.60000610352</ele>
        <time>2016-01-27T15:06:53Z</time>
      </trkpt>
      <trkpt lat="43.40175" lon="6.08479">
        <ele>229.60000610352</ele>
        <time>2016-01-27T15:06:54Z</time>
      </trkpt>
      <trkpt lat="43.40177" lon="6.08469">
        <ele>229.80000305176</ele>
        <time>2016-01-27T15:06:56Z</time>
      </trkpt>
      <trkpt lat="43.40178" lon="6.08458">
        <ele>229.80000305176</ele>
        <time>2016-01-27T15:06:58Z</time>
      </trkpt>
      <trkpt lat="43.40179" lon="6.08452">
        <ele>230</ele>
        <time>2016-01-27T15:06:59Z</time>
      </trkpt>
      <trkpt lat="43.40179" lon="6.08446">
        <ele>230.19999694824</ele>
        <time>2016-01-27T15:07:00Z</time>
      </trkpt>
      <trkpt lat="43.40179" lon="6.0844">
        <ele>230.39999389648</ele>
        <time>2016-01-27T15:07:01Z</time>
      </trkpt>
      <trkpt lat="43.40181" lon="6.08435">
        <ele>230.39999389648</ele>
        <time>2016-01-27T15:07:02Z</time>
      </trkpt>
      <trkpt lat="43.40181" lon="6.08423">
        <ele>230</ele>
        <time>2016-01-27T15:07:04Z</time>
      </trkpt>
      <trkpt lat="43.40182" lon="6.08419">
        <ele>229.60000610352</ele>
        <time>2016-01-27T15:07:05Z</time>
      </trkpt>
      <trkpt lat="43.40182" lon="6.08414">
        <ele>229.39999389648</ele>
        <time>2016-01-27T15:07:06Z</time>
      </trkpt>
      <trkpt lat="43.40182" lon="6.08402">
        <ele>229.60000610352</ele>
        <time>2016-01-27T15:07:08Z</time>
      </trkpt>
      <trkpt lat="43.40182" lon="6.08391">
        <ele>229.39999389648</ele>
        <time>2016-01-27T15:07:10Z</time>
      </trkpt>
      <trkpt lat="43.40182" lon="6.08386">
        <ele>229</ele>
        <time>2016-01-27T15:07:11Z</time>
      </trkpt>
      <trkpt lat="43.40182" lon="6.0838">
        <ele>229</ele>
        <time>2016-01-27T15:07:12Z</time>
      </trkpt>
      <trkpt lat="43.40184" lon="6.08369">
        <ele>229.19999694824</ele>
        <time>2016-01-27T15:07:14Z</time>
      </trkpt>
      <trkpt lat="43.40184" lon="6.08363">
        <ele>229.19999694824</ele>
        <time>2016-01-27T15:07:15Z</time>
      </trkpt>
      <trkpt lat="43.40184" lon="6.08358">
        <ele>229.19999694824</ele>
        <time>2016-01-27T15:07:16Z</time>
      </trkpt>
      <trkpt lat="43.40184" lon="6.08345">
        <ele>229.19999694824</ele>
        <time>2016-01-27T15:07:18Z</time>
      </trkpt>
      <trkpt lat="43.40185" lon="6.08334">
        <ele>229.39999389648</ele>
        <time>2016-01-27T15:07:20Z</time>
      </trkpt>
      <trkpt lat="43.40185" lon="6.08323">
        <ele>228.80000305176</ele>
        <time>2016-01-27T15:07:22Z</time>
      </trkpt>
      <trkpt lat="43.40186" lon="6.08312">
        <ele>228.80000305176</ele>
        <time>2016-01-27T15:07:24Z</time>
      </trkpt>
      <trkpt lat="43.40187" lon="6.08302">
        <ele>228.60000610352</ele>
        <time>2016-01-27T15:07:26Z</time>
      </trkpt>
      <trkpt lat="43.40188" lon="6.08292">
        <ele>228.80000305176</ele>
        <time>2016-01-27T15:07:28Z</time>
      </trkpt>
      <trkpt lat="43.40189" lon="6.08287">
        <ele>228.60000610352</ele>
        <time>2016-01-27T15:07:29Z</time>
      </trkpt>
      <trkpt lat="43.40189" lon="6.08281">
        <ele>228.60000610352</ele>
        <time>2016-01-27T15:07:30Z</time>
      </trkpt>
      <trkpt lat="43.40189" lon="6.08274">
        <ele>228.39999389648</ele>
        <time>2016-01-27T15:07:32Z</time>
      </trkpt>
      <trkpt lat="43.40189" lon="6.08271">
        <ele>228.19999694824</ele>
        <time>2016-01-27T15:07:33Z</time>
      </trkpt>
      <trkpt lat="43.40189" lon="6.08269">
        <ele>228</ele>
        <time>2016-01-27T15:07:34Z</time>
      </trkpt>
      <trkpt lat="43.40188" lon="6.08268">
        <ele>227.80000305176</ele>
        <time>2016-01-27T15:07:36Z</time>
      </trkpt>
      <trkpt lat="43.40187" lon="6.08268">
        <ele>227.80000305176</ele>
        <time>2016-01-27T15:07:38Z</time>
      </trkpt>
      <trkpt lat="43.40187" lon="6.08268">
        <ele>227.80000305176</ele>
        <time>2016-01-27T15:07:40Z</time>
      </trkpt>
      <trkpt lat="43.40187" lon="6.08268">
        <ele>227.60000610352</ele>
        <time>2016-01-27T15:07:42Z</time>
      </trkpt>
      <trkpt lat="43.40187" lon="6.08268">
        <ele>227.80000305176</ele>
        <time>2016-01-27T15:07:44Z</time>
      </trkpt>
      <trkpt lat="43.40187" lon="6.08268">
        <ele>227.60000610352</ele>
        <time>2016-01-27T15:07:46Z</time>
      </trkpt>
      <trkpt lat="43.40187" lon="6.08268">
        <ele>227.60000610352</ele>
        <time>2016-01-27T15:07:48Z</time>
      </trkpt>
      <trkpt lat="43.40187" lon="6.08268">
        <ele>227.60000610352</ele>
        <time>2016-01-27T15:07:50Z</time>
      </trkpt>
      <trkpt lat="43.40187" lon="6.08268">
        <ele>227.60000610352</ele>
        <time>2016-01-27T15:07:52Z</time>
      </trkpt>
      <trkpt lat="43.40187" lon="6.08268">
        <ele>227.80000305176</ele>
        <time>2016-01-27T15:07:54Z</time>
      </trkpt>
      <trkpt lat="43.40187" lon="6.08268">
        <ele>227.60000610352</ele>
        <time>2016-01-27T15:07:56Z</time>
      </trkpt>
      <trkpt lat="43.40187" lon="6.08267">
        <ele>227.60000610352</ele>
        <time>2016-01-27T15:07:58Z</time>
      </trkpt>
      <trkpt lat="43.40187" lon="6.08267">
        <ele>227.80000305176</ele>
        <time>2016-01-27T15:08:00Z</time>
      </trkpt>
      <trkpt lat="43.40187" lon="6.08267">
        <ele>227.80000305176</ele>
        <time>2016-01-27T15:08:02Z</time>
      </trkpt>
      <trkpt lat="43.40187" lon="6.08267">
        <ele>228.60000610352</ele>
        <time>2016-01-27T15:08:04Z</time>
      </trkpt>
      <trkpt lat="43.40187" lon="6.08267">
        <ele>228.19999694824</ele>
        <time>2016-01-27T15:08:06Z</time>
      </trkpt>
      <trkpt lat="43.40187" lon="6.08267">
        <ele>227.80000305176</ele>
        <time>2016-01-27T15:08:08Z</time>
      </trkpt>
      <trkpt lat="43.40187" lon="6.08267">
        <ele>227.60000610352</ele>
        <time>2016-01-27T15:08:10Z</time>
      </trkpt>
      <trkpt lat="43.40187" lon="6.08267">
        <ele>227.60000610352</ele>
        <time>2016-01-27T15:08:11Z</time>
      </trkpt>
      <trkpt lat="43.40187" lon="6.08267">
        <ele>227.60000610352</ele>
        <time>2016-01-27T15:08:12Z</time>
      </trkpt>
      <trkpt lat="43.40187" lon="6.08267">
        <ele>227.60000610352</ele>
        <time>2016-01-27T15:08:14Z</time>
      </trkpt>
      <trkpt lat="43.40187" lon="6.08267">
        <ele>227.60000610352</ele>
        <time>2016-01-27T15:08:16Z</time>
      </trkpt>
      <trkpt lat="43.40187" lon="6.08267">
        <ele>227.39999389648</ele>
        <time>2016-01-27T15:08:18Z</time>
      </trkpt>
      <trkpt lat="43.40187" lon="6.08267">
        <ele>227.60000610352</ele>
        <time>2016-01-27T15:08:20Z</time>
      </trkpt>
      <trkpt lat="43.40187" lon="6.08267">
        <ele>227.60000610352</ele>
        <time>2016-01-27T15:08:22Z</time>
      </trkpt>
      <trkpt lat="43.40187" lon="6.08267">
        <ele>227.60000610352</ele>
        <time>2016-01-27T15:08:24Z</time>
      </trkpt>
      <trkpt lat="43.40187" lon="6.08267">
        <ele>227.60000610352</ele>
        <time>2016-01-27T15:08:26Z</time>
      </trkpt>
      <trkpt lat="43.40187" lon="6.08267">
        <ele>227.60000610352</ele>
        <time>2016-01-27T15:08:28Z</time>
      </trkpt>
      <trkpt lat="43.40187" lon="6.08267">
        <ele>227.60000610352</ele>
        <time>2016-01-27T15:08:30Z</time>
      </trkpt>
      <trkpt lat="43.40187" lon="6.08267">
        <ele>227.60000610352</ele>
        <time>2016-01-27T15:08:32Z</time>
      </trkpt>
      <trkpt lat="43.40187" lon="6.08267">
        <ele>227.60000610352</ele>
        <time>2016-01-27T15:08:34Z</time>
      </trkpt>
      <trkpt lat="43.40187" lon="6.08267">
        <ele>227.60000610352</ele>
        <time>2016-01-27T15:08:36Z</time>
      </trkpt>
      <trkpt lat="43.40187" lon="6.08267">
        <ele>227.80000305176</ele>
        <time>2016-01-27T15:08:38Z</time>
      </trkpt>
      <trkpt lat="43.40187" lon="6.08267">
        <ele>227.60000610352</ele>
        <time>2016-01-27T15:08:40Z</time>
      </trkpt>
      <trkpt lat="43.40187" lon="6.08267">
        <ele>227.60000610352</ele>
        <time>2016-01-27T15:08:42Z</time>
      </trkpt>
      <trkpt lat="43.40187" lon="6.08267">
        <ele>227.60000610352</ele>
        <time>2016-01-27T15:08:44Z</time>
      </trkpt>
      <trkpt lat="43.40187" lon="6.08267">
        <ele>227.60000610352</ele>
        <time>2016-01-27T15:08:46Z</time>
      </trkpt>
      <trkpt lat="43.40187" lon="6.08267">
        <ele>227.60000610352</ele>
        <time>2016-01-27T15:08:48Z</time>
      </trkpt>
      <trkpt lat="43.40187" lon="6.08267">
        <ele>227.60000610352</ele>
        <time>2016-01-27T15:08:50Z</time>
      </trkpt>
      <trkpt lat="43.40187" lon="6.08267">
        <ele>227.80000305176</ele>
        <time>2016-01-27T15:08:52Z</time>
      </trkpt>
      <trkpt lat="43.40187" lon="6.08267">
        <ele>227.60000610352</ele>
        <time>2016-01-27T15:08:54Z</time>
      </trkpt>
      <trkpt lat="43.40187" lon="6.08267">
        <ele>227.60000610352</ele>
        <time>2016-01-27T15:08:56Z</time>
      </trkpt>
      <trkpt lat="43.40186" lon="6.08268">
        <ele>227.80000305176</ele>
        <time>2016-01-27T15:08:58Z</time>
      </trkpt>
      <trkpt lat="43.40186" lon="6.08268">
        <ele>227.80000305176</ele>
        <time>2016-01-27T15:09:00Z</time>
      </trkpt>
      <trkpt lat="43.40186" lon="6.08268">
        <ele>227.80000305176</ele>
        <time>2016-01-27T15:09:02Z</time>
      </trkpt>
      <trkpt lat="43.40186" lon="6.08268">
        <ele>227.80000305176</ele>
        <time>2016-01-27T15:09:03Z</time>
      </trkpt>
      <trkpt lat="43.40186" lon="6.08268">
        <ele>227.80000305176</ele>
        <time>2016-01-27T15:09:04Z</time>
      </trkpt>
      <trkpt lat="43.40186" lon="6.08268">
        <ele>228</ele>
        <time>2016-01-27T15:09:06Z</time>
      </trkpt>
      <trkpt lat="43.40186" lon="6.08268">
        <ele>228</ele>
        <time>2016-01-27T15:09:08Z</time>
      </trkpt>
      <trkpt lat="43.40186" lon="6.08268">
        <ele>227.80000305176</ele>
        <time>2016-01-27T15:09:10Z</time>
      </trkpt>
      <trkpt lat="43.40186" lon="6.08268">
        <ele>228</ele>
        <time>2016-01-27T15:09:12Z</time>
      </trkpt>
      <trkpt lat="43.40186" lon="6.08268">
        <ele>228</ele>
        <time>2016-01-27T15:09:14Z</time>
      </trkpt>
      <trkpt lat="43.40186" lon="6.08268">
        <ele>228</ele>
        <time>2016-01-27T15:09:16Z</time>
      </trkpt>
      <trkpt lat="43.40186" lon="6.08268">
        <ele>228</ele>
        <time>2016-01-27T15:09:18Z</time>
      </trkpt>
      <trkpt lat="43.40186" lon="6.08267">
        <ele>228</ele>
        <time>2016-01-27T15:09:20Z</time>
      </trkpt>
      <trkpt lat="43.40186" lon="6.08267">
        <ele>228</ele>
        <time>2016-01-27T15:09:22Z</time>
      </trkpt>
      <trkpt lat="43.40186" lon="6.08267">
        <ele>227.80000305176</ele>
        <time>2016-01-27T15:09:24Z</time>
      </trkpt>
      <trkpt lat="43.40186" lon="6.08267">
        <ele>227.80000305176</ele>
        <time>2016-01-27T15:09:26Z</time>
      </trkpt>
      <trkpt lat="43.40186" lon="6.08267">
        <ele>227.80000305176</ele>
        <time>2016-01-27T15:09:28Z</time>
      </trkpt>
      <trkpt lat="43.40185" lon="6.08268">
        <ele>228</ele>
        <time>2016-01-27T15:09:30Z</time>
      </trkpt>
      <trkpt lat="43.40185" lon="6.08268">
        <ele>228</ele>
        <time>2016-01-27T15:09:32Z</time>
      </trkpt>
      <trkpt lat="43.40185" lon="6.08268">
        <ele>228</ele>
        <time>2016-01-27T15:09:34Z</time>
      </trkpt>
      <trkpt lat="43.40184" lon="6.08268">
        <ele>228</ele>
        <time>2016-01-27T15:09:35Z</time>
      </trkpt>
      <trkpt lat="43.40184" lon="6.08268">
        <ele>228</ele>
        <time>2016-01-27T15:09:36Z</time>
      </trkpt>
      <trkpt lat="43.40184" lon="6.08268">
        <ele>228</ele>
        <time>2016-01-27T15:09:38Z</time>
      </trkpt>
      <trkpt lat="43.40184" lon="6.08268">
        <ele>228</ele>
        <time>2016-01-27T15:09:40Z</time>
      </trkpt>
      <trkpt lat="43.40184" lon="6.08267">
        <ele>228</ele>
        <time>2016-01-27T15:09:42Z</time>
      </trkpt>
      <trkpt lat="43.40184" lon="6.08266">
        <ele>228</ele>
        <time>2016-01-27T15:09:44Z</time>
      </trkpt>
      <trkpt lat="43.40183" lon="6.08264">
        <ele>228</ele>
        <time>2016-01-27T15:09:45Z</time>
      </trkpt>
      <trkpt lat="43.40183" lon="6.08264">
        <ele>227.80000305176</ele>
        <time>2016-01-27T15:09:46Z</time>
      </trkpt>
      <trkpt lat="43.40182" lon="6.08259">
        <ele>228</ele>
        <time>2016-01-27T15:09:48Z</time>
      </trkpt>
      <trkpt lat="43.40182" lon="6.08251">
        <ele>228.19999694824</ele>
        <time>2016-01-27T15:09:50Z</time>
      </trkpt>
      <trkpt lat="43.40183" lon="6.08241">
        <ele>228.19999694824</ele>
        <time>2016-01-27T15:09:52Z</time>
      </trkpt>
      <trkpt lat="43.40183" lon="6.0823">
        <ele>228</ele>
        <time>2016-01-27T15:09:54Z</time>
      </trkpt>
      <trkpt lat="43.40184" lon="6.08225">
        <ele>227.80000305176</ele>
        <time>2016-01-27T15:09:55Z</time>
      </trkpt>
      <trkpt lat="43.40186" lon="6.08221">
        <ele>227.80000305176</ele>
        <time>2016-01-27T15:09:56Z</time>
      </trkpt>
      <trkpt lat="43.40188" lon="6.08211">
        <ele>228</ele>
        <time>2016-01-27T15:09:58Z</time>
      </trkpt>
      <trkpt lat="43.40191" lon="6.082">
        <ele>227.80000305176</ele>
        <time>2016-01-27T15:10:00Z</time>
      </trkpt>
      <trkpt lat="43.40193" lon="6.0819">
        <ele>228</ele>
        <time>2016-01-27T15:10:02Z</time>
      </trkpt>
      <trkpt lat="43.40196" lon="6.0818">
        <ele>227.39999389648</ele>
        <time>2016-01-27T15:10:04Z</time>
      </trkpt>
      <trkpt lat="43.40197" lon="6.08175">
        <ele>227.19999694824</ele>
        <time>2016-01-27T15:10:05Z</time>
      </trkpt>
      <trkpt lat="43.40198" lon="6.08169">
        <ele>227.19999694824</ele>
        <time>2016-01-27T15:10:06Z</time>
      </trkpt>
      <trkpt lat="43.40199" lon="6.08156">
        <ele>227.19999694824</ele>
        <time>2016-01-27T15:10:08Z</time>
      </trkpt>
      <trkpt lat="43.402" lon="6.08143">
        <ele>226.80000305176</ele>
        <time>2016-01-27T15:10:10Z</time>
      </trkpt>
      <trkpt lat="43.40199" lon="6.08132">
        <ele>226.19999694824</ele>
        <time>2016-01-27T15:10:12Z</time>
      </trkpt>
      <trkpt lat="43.40196" lon="6.08129">
        <ele>226.19999694824</ele>
        <time>2016-01-27T15:10:13Z</time>
      </trkpt>
      <trkpt lat="43.40194" lon="6.08126">
        <ele>226</ele>
        <time>2016-01-27T15:10:14Z</time>
      </trkpt>
      <trkpt lat="43.40193" lon="6.08124">
        <ele>225.80000305176</ele>
        <time>2016-01-27T15:10:15Z</time>
      </trkpt>
      <trkpt lat="43.40192" lon="6.08123">
        <ele>225.60000610352</ele>
        <time>2016-01-27T15:10:16Z</time>
      </trkpt>
      <trkpt lat="43.40192" lon="6.08121">
        <ele>225.39999389648</ele>
        <time>2016-01-27T15:10:18Z</time>
      </trkpt>
      <trkpt lat="43.40192" lon="6.08118">
        <ele>225.39999389648</ele>
        <time>2016-01-27T15:10:20Z</time>
      </trkpt>
      <trkpt lat="43.40192" lon="6.08116">
        <ele>225.19999694824</ele>
        <time>2016-01-27T15:10:21Z</time>
      </trkpt>
      <trkpt lat="43.40192" lon="6.08114">
        <ele>225.19999694824</ele>
        <time>2016-01-27T15:10:22Z</time>
      </trkpt>
      <trkpt lat="43.40192" lon="6.08107">
        <ele>225.39999389648</ele>
        <time>2016-01-27T15:10:24Z</time>
      </trkpt>
      <trkpt lat="43.40193" lon="6.08096">
        <ele>225.19999694824</ele>
        <time>2016-01-27T15:10:26Z</time>
      </trkpt>
      <trkpt lat="43.40194" lon="6.0809">
        <ele>225</ele>
        <time>2016-01-27T15:10:27Z</time>
      </trkpt>
      <trkpt lat="43.40195" lon="6.08085">
        <ele>224.80000305176</ele>
        <time>2016-01-27T15:10:28Z</time>
      </trkpt>
      <trkpt lat="43.40197" lon="6.08079">
        <ele>224.80000305176</ele>
        <time>2016-01-27T15:10:29Z</time>
      </trkpt>
      <trkpt lat="43.402" lon="6.08073">
        <ele>224.60000610352</ele>
        <time>2016-01-27T15:10:30Z</time>
      </trkpt>
      <trkpt lat="43.40203" lon="6.08068">
        <ele>224.19999694824</ele>
        <time>2016-01-27T15:10:31Z</time>
      </trkpt>
      <trkpt lat="43.40206" lon="6.08063">
        <ele>224.19999694824</ele>
        <time>2016-01-27T15:10:32Z</time>
      </trkpt>
      <trkpt lat="43.40213" lon="6.08053">
        <ele>224.19999694824</ele>
        <time>2016-01-27T15:10:34Z</time>
      </trkpt>
      <trkpt lat="43.4022" lon="6.08043">
        <ele>223.80000305176</ele>
        <time>2016-01-27T15:10:36Z</time>
      </trkpt>
      <trkpt lat="43.40228" lon="6.08032">
        <ele>223.60000610352</ele>
        <time>2016-01-27T15:10:38Z</time>
      </trkpt>
      <trkpt lat="43.40232" lon="6.08027">
        <ele>223.39999389648</ele>
        <time>2016-01-27T15:10:39Z</time>
      </trkpt>
      <trkpt lat="43.40237" lon="6.08022">
        <ele>223.19999694824</ele>
        <time>2016-01-27T15:10:40Z</time>
      </trkpt>
      <trkpt lat="43.40245" lon="6.08011">
        <ele>222.60000610352</ele>
        <time>2016-01-27T15:10:42Z</time>
      </trkpt>
      <trkpt lat="43.40254" lon="6.07999">
        <ele>222.19999694824</ele>
        <time>2016-01-27T15:10:44Z</time>
      </trkpt>
      <trkpt lat="43.40262" lon="6.07987">
        <ele>221.39999389648</ele>
        <time>2016-01-27T15:10:46Z</time>
      </trkpt>
      <trkpt lat="43.40265" lon="6.07982">
        <ele>221.39999389648</ele>
        <time>2016-01-27T15:10:47Z</time>
      </trkpt>
      <trkpt lat="43.40268" lon="6.07977">
        <ele>221.19999694824</ele>
        <time>2016-01-27T15:10:48Z</time>
      </trkpt>
      <trkpt lat="43.40274" lon="6.07966">
        <ele>220.60000610352</ele>
        <time>2016-01-27T15:10:50Z</time>
      </trkpt>
      <trkpt lat="43.40279" lon="6.07955">
        <ele>220.39999389648</ele>
        <time>2016-01-27T15:10:52Z</time>
      </trkpt>
      <trkpt lat="43.40281" lon="6.07948">
        <ele>220.39999389648</ele>
        <time>2016-01-27T15:10:53Z</time>
      </trkpt>
      <trkpt lat="43.40284" lon="6.07942">
        <ele>220.39999389648</ele>
        <time>2016-01-27T15:10:54Z</time>
      </trkpt>
      <trkpt lat="43.40285" lon="6.07935">
        <ele>220</ele>
        <time>2016-01-27T15:10:55Z</time>
      </trkpt>
      <trkpt lat="43.40287" lon="6.07928">
        <ele>219.80000305176</ele>
        <time>2016-01-27T15:10:56Z</time>
      </trkpt>
      <trkpt lat="43.4029" lon="6.07913">
        <ele>219.60000610352</ele>
        <time>2016-01-27T15:10:58Z</time>
      </trkpt>
      <trkpt lat="43.40291" lon="6.07905">
        <ele>219.60000610352</ele>
        <time>2016-01-27T15:10:59Z</time>
      </trkpt>
      <trkpt lat="43.40292" lon="6.07898">
        <ele>219.39999389648</ele>
        <time>2016-01-27T15:11:00Z</time>
      </trkpt>
      <trkpt lat="43.40294" lon="6.0789">
        <ele>219.39999389648</ele>
        <time>2016-01-27T15:11:01Z</time>
      </trkpt>
      <trkpt lat="43.40295" lon="6.07882">
        <ele>219.19999694824</ele>
        <time>2016-01-27T15:11:02Z</time>
      </trkpt>
      <trkpt lat="43.40297" lon="6.07866">
        <ele>219</ele>
        <time>2016-01-27T15:11:04Z</time>
      </trkpt>
      <trkpt lat="43.40299" lon="6.07851">
        <ele>219</ele>
        <time>2016-01-27T15:11:06Z</time>
      </trkpt>
      <trkpt lat="43.40301" lon="6.07838">
        <ele>218.39999389648</ele>
        <time>2016-01-27T15:11:08Z</time>
      </trkpt>
      <trkpt lat="43.40302" lon="6.07831">
        <ele>218.19999694824</ele>
        <time>2016-01-27T15:11:09Z</time>
      </trkpt>
      <trkpt lat="43.40303" lon="6.07824">
        <ele>218</ele>
        <time>2016-01-27T15:11:10Z</time>
      </trkpt>
      <trkpt lat="43.40303" lon="6.07817">
        <ele>217.80000305176</ele>
        <time>2016-01-27T15:11:11Z</time>
      </trkpt>
      <trkpt lat="43.40304" lon="6.0781">
        <ele>217.80000305176</ele>
        <time>2016-01-27T15:11:12Z</time>
      </trkpt>
      <trkpt lat="43.40306" lon="6.07797">
        <ele>217.80000305176</ele>
        <time>2016-01-27T15:11:14Z</time>
      </trkpt>
      <trkpt lat="43.40307" lon="6.07785">
        <ele>217.80000305176</ele>
        <time>2016-01-27T15:11:16Z</time>
      </trkpt>
      <trkpt lat="43.40308" lon="6.07778">
        <ele>217.60000610352</ele>
        <time>2016-01-27T15:11:17Z</time>
      </trkpt>
      <trkpt lat="43.40309" lon="6.07772">
        <ele>217.60000610352</ele>
        <time>2016-01-27T15:11:18Z</time>
      </trkpt>
      <trkpt lat="43.4031" lon="6.07759">
        <ele>216.80000305176</ele>
        <time>2016-01-27T15:11:20Z</time>
      </trkpt>
      <trkpt lat="43.40311" lon="6.07752">
        <ele>216.60000610352</ele>
        <time>2016-01-27T15:11:21Z</time>
      </trkpt>
      <trkpt lat="43.40312" lon="6.07745">
        <ele>216.60000610352</ele>
        <time>2016-01-27T15:11:22Z</time>
      </trkpt>
      <trkpt lat="43.40315" lon="6.07731">
        <ele>216.19999694824</ele>
        <time>2016-01-27T15:11:24Z</time>
      </trkpt>
      <trkpt lat="43.40317" lon="6.07724">
        <ele>216</ele>
        <time>2016-01-27T15:11:25Z</time>
      </trkpt>
      <trkpt lat="43.40319" lon="6.07716">
        <ele>216</ele>
        <time>2016-01-27T15:11:26Z</time>
      </trkpt>
      <trkpt lat="43.40322" lon="6.07709">
        <ele>216</ele>
        <time>2016-01-27T15:11:27Z</time>
      </trkpt>
      <trkpt lat="43.40326" lon="6.07702">
        <ele>215.80000305176</ele>
        <time>2016-01-27T15:11:28Z</time>
      </trkpt>
      <trkpt lat="43.4033" lon="6.07696">
        <ele>215.60000610352</ele>
        <time>2016-01-27T15:11:29Z</time>
      </trkpt>
      <trkpt lat="43.40334" lon="6.0769">
        <ele>215.39999389648</ele>
        <time>2016-01-27T15:11:30Z</time>
      </trkpt>
      <trkpt lat="43.40338" lon="6.07685">
        <ele>215.19999694824</ele>
        <time>2016-01-27T15:11:31Z</time>
      </trkpt>
      <trkpt lat="43.40343" lon="6.0768">
        <ele>215.19999694824</ele>
        <time>2016-01-27T15:11:32Z</time>
      </trkpt>
      <trkpt lat="43.40352" lon="6.07671">
        <ele>215.19999694824</ele>
        <time>2016-01-27T15:11:34Z</time>
      </trkpt>
      <trkpt lat="43.40356" lon="6.07666">
        <ele>215.19999694824</ele>
        <time>2016-01-27T15:11:35Z</time>
      </trkpt>
      <trkpt lat="43.4036" lon="6.07662">
        <ele>215.19999694824</ele>
        <time>2016-01-27T15:11:36Z</time>
      </trkpt>
      <trkpt lat="43.40363" lon="6.07655">
        <ele>215.19999694824</ele>
        <time>2016-01-27T15:11:37Z</time>
      </trkpt>
      <trkpt lat="43.40366" lon="6.07649">
        <ele>215</ele>
        <time>2016-01-27T15:11:38Z</time>
      </trkpt>
      <trkpt lat="43.40368" lon="6.07642">
        <ele>215</ele>
        <time>2016-01-27T15:11:39Z</time>
      </trkpt>
      <trkpt lat="43.40369" lon="6.07635">
        <ele>214.80000305176</ele>
        <time>2016-01-27T15:11:40Z</time>
      </trkpt>
      <trkpt lat="43.4037" lon="6.07628">
        <ele>214.80000305176</ele>
        <time>2016-01-27T15:11:41Z</time>
      </trkpt>
      <trkpt lat="43.40371" lon="6.07621">
        <ele>214.80000305176</ele>
        <time>2016-01-27T15:11:42Z</time>
      </trkpt>
      <trkpt lat="43.40373" lon="6.07607">
        <ele>215</ele>
        <time>2016-01-27T15:11:44Z</time>
      </trkpt>
      <trkpt lat="43.40373" lon="6.076">
        <ele>215</ele>
        <time>2016-01-27T15:11:45Z</time>
      </trkpt>
      <trkpt lat="43.40373" lon="6.07593">
        <ele>215</ele>
        <time>2016-01-27T15:11:46Z</time>
      </trkpt>
      <trkpt lat="43.40374" lon="6.0758">
        <ele>215.19999694824</ele>
        <time>2016-01-27T15:11:48Z</time>
      </trkpt>
      <trkpt lat="43.40374" lon="6.07567">
        <ele>215.39999389648</ele>
        <time>2016-01-27T15:11:50Z</time>
      </trkpt>
      <trkpt lat="43.40374" lon="6.07556">
        <ele>215.60000610352</ele>
        <time>2016-01-27T15:11:52Z</time>
      </trkpt>
      <trkpt lat="43.40375" lon="6.07547">
        <ele>215.80000305176</ele>
        <time>2016-01-27T15:11:54Z</time>
      </trkpt>
      <trkpt lat="43.40376" lon="6.07539">
        <ele>215.80000305176</ele>
        <time>2016-01-27T15:11:56Z</time>
      </trkpt>
      <trkpt lat="43.40376" lon="6.07529">
        <ele>216</ele>
        <time>2016-01-27T15:11:58Z</time>
      </trkpt>
      <trkpt lat="43.40376" lon="6.07518">
        <ele>216</ele>
        <time>2016-01-27T15:12:00Z</time>
      </trkpt>
      <trkpt lat="43.40377" lon="6.07512">
        <ele>216</ele>
        <time>2016-01-27T15:12:01Z</time>
      </trkpt>
      <trkpt lat="43.40378" lon="6.07507">
        <ele>216</ele>
        <time>2016-01-27T15:12:02Z</time>
      </trkpt>
      <trkpt lat="43.4038" lon="6.07495">
        <ele>215.80000305176</ele>
        <time>2016-01-27T15:12:04Z</time>
      </trkpt>
      <trkpt lat="43.40382" lon="6.07483">
        <ele>216</ele>
        <time>2016-01-27T15:12:06Z</time>
      </trkpt>
      <trkpt lat="43.40385" lon="6.07471">
        <ele>216.19999694824</ele>
        <time>2016-01-27T15:12:08Z</time>
      </trkpt>
      <trkpt lat="43.40386" lon="6.07464">
        <ele>216</ele>
        <time>2016-01-27T15:12:09Z</time>
      </trkpt>
      <trkpt lat="43.40387" lon="6.07457">
        <ele>216</ele>
        <time>2016-01-27T15:12:10Z</time>
      </trkpt>
      <trkpt lat="43.40388" lon="6.07443">
        <ele>216</ele>
        <time>2016-01-27T15:12:12Z</time>
      </trkpt>
      <trkpt lat="43.4039" lon="6.07429">
        <ele>216</ele>
        <time>2016-01-27T15:12:14Z</time>
      </trkpt>
      <trkpt lat="43.40391" lon="6.07414">
        <ele>215.80000305176</ele>
        <time>2016-01-27T15:12:16Z</time>
      </trkpt>
      <trkpt lat="43.40391" lon="6.07407">
        <ele>215.60000610352</ele>
        <time>2016-01-27T15:12:17Z</time>
      </trkpt>
      <trkpt lat="43.40392" lon="6.074">
        <ele>215.60000610352</ele>
        <time>2016-01-27T15:12:18Z</time>
      </trkpt>
      <trkpt lat="43.40391" lon="6.07386">
        <ele>215.60000610352</ele>
        <time>2016-01-27T15:12:20Z</time>
      </trkpt>
      <trkpt lat="43.4039" lon="6.07374">
        <ele>215.19999694824</ele>
        <time>2016-01-27T15:12:22Z</time>
      </trkpt>
      <trkpt lat="43.40389" lon="6.07364">
        <ele>214.80000305176</ele>
        <time>2016-01-27T15:12:24Z</time>
      </trkpt>
      <trkpt lat="43.40388" lon="6.07354">
        <ele>214.80000305176</ele>
        <time>2016-01-27T15:12:26Z</time>
      </trkpt>
      <trkpt lat="43.40386" lon="6.07343">
        <ele>214.60000610352</ele>
        <time>2016-01-27T15:12:28Z</time>
      </trkpt>
      <trkpt lat="43.40384" lon="6.07331">
        <ele>214.80000305176</ele>
        <time>2016-01-27T15:12:30Z</time>
      </trkpt>
      <trkpt lat="43.40384" lon="6.07325">
        <ele>214.60000610352</ele>
        <time>2016-01-27T15:12:31Z</time>
      </trkpt>
      <trkpt lat="43.40384" lon="6.0732">
        <ele>214.60000610352</ele>
        <time>2016-01-27T15:12:32Z</time>
      </trkpt>
      <trkpt lat="43.40382" lon="6.07309">
        <ele>214.19999694824</ele>
        <time>2016-01-27T15:12:34Z</time>
      </trkpt>
      <trkpt lat="43.40382" lon="6.07303">
        <ele>213.80000305176</ele>
        <time>2016-01-27T15:12:35Z</time>
      </trkpt>
      <trkpt lat="43.40383" lon="6.07298">
        <ele>213.80000305176</ele>
        <time>2016-01-27T15:12:36Z</time>
      </trkpt>
      <trkpt lat="43.40386" lon="6.07293">
        <ele>213.60000610352</ele>
        <time>2016-01-27T15:12:37Z</time>
      </trkpt>
      <trkpt lat="43.4039" lon="6.07288">
        <ele>213.19999694824</ele>
        <time>2016-01-27T15:12:38Z</time>
      </trkpt>
      <trkpt lat="43.40394" lon="6.07284">
        <ele>213</ele>
        <time>2016-01-27T15:12:39Z</time>
      </trkpt>
      <trkpt lat="43.40399" lon="6.07281">
        <ele>212.60000610352</ele>
        <time>2016-01-27T15:12:40Z</time>
      </trkpt>
      <trkpt lat="43.40405" lon="6.07283">
        <ele>212.39999389648</ele>
        <time>2016-01-27T15:12:41Z</time>
      </trkpt>
      <trkpt lat="43.40411" lon="6.07284">
        <ele>212.19999694824</ele>
        <time>2016-01-27T15:12:42Z</time>
      </trkpt>
      <trkpt lat="43.40417" lon="6.07283">
        <ele>212.19999694824</ele>
        <time>2016-01-27T15:12:43Z</time>
      </trkpt>
      <trkpt lat="43.40424" lon="6.07283">
        <ele>211.39999389648</ele>
        <time>2016-01-27T15:12:44Z</time>
      </trkpt>
      <trkpt lat="43.40438" lon="6.07282">
        <ele>211</ele>
        <time>2016-01-27T15:12:46Z</time>
      </trkpt>
      <trkpt lat="43.40444" lon="6.07282">
        <ele>210.80000305176</ele>
        <time>2016-01-27T15:12:47Z</time>
      </trkpt>
      <trkpt lat="43.4045" lon="6.07281">
        <ele>210.60000610352</ele>
        <time>2016-01-27T15:12:48Z</time>
      </trkpt>
      <trkpt lat="43.40456" lon="6.07281">
        <ele>210.19999694824</ele>
        <time>2016-01-27T15:12:49Z</time>
      </trkpt>
      <trkpt lat="43.40462" lon="6.07281">
        <ele>209.80000305176</ele>
        <time>2016-01-27T15:12:50Z</time>
      </trkpt>
      <trkpt lat="43.40472" lon="6.0728">
        <ele>208.80000305176</ele>
        <time>2016-01-27T15:12:52Z</time>
      </trkpt>
      <trkpt lat="43.40476" lon="6.07279">
        <ele>208.80000305176</ele>
        <time>2016-01-27T15:12:53Z</time>
      </trkpt>
      <trkpt lat="43.4048" lon="6.07279">
        <ele>208.60000610352</ele>
        <time>2016-01-27T15:12:54Z</time>
      </trkpt>
      <trkpt lat="43.40485" lon="6.07278">
        <ele>208.39999389648</ele>
        <time>2016-01-27T15:12:56Z</time>
      </trkpt>
      <trkpt lat="43.40489" lon="6.07278">
        <ele>208</ele>
        <time>2016-01-27T15:12:58Z</time>
      </trkpt>
      <trkpt lat="43.40493" lon="6.07279">
        <ele>208</ele>
        <time>2016-01-27T15:13:00Z</time>
      </trkpt>
      <trkpt lat="43.40494" lon="6.07279">
        <ele>207.80000305176</ele>
        <time>2016-01-27T15:13:01Z</time>
      </trkpt>
      <trkpt lat="43.40495" lon="6.07278">
        <ele>207.80000305176</ele>
        <time>2016-01-27T15:13:02Z</time>
      </trkpt>
      <trkpt lat="43.40496" lon="6.07279">
        <ele>207.80000305176</ele>
        <time>2016-01-27T15:13:04Z</time>
      </trkpt>
      <trkpt lat="43.40496" lon="6.07279">
        <ele>207.80000305176</ele>
        <time>2016-01-27T15:13:06Z</time>
      </trkpt>
      <trkpt lat="43.40496" lon="6.07279">
        <ele>207.60000610352</ele>
        <time>2016-01-27T15:13:08Z</time>
      </trkpt>
      <trkpt lat="43.40496" lon="6.07279">
        <ele>207.80000305176</ele>
        <time>2016-01-27T15:13:10Z</time>
      </trkpt>
      <trkpt lat="43.40496" lon="6.07279">
        <ele>207.80000305176</ele>
        <time>2016-01-27T15:13:11Z</time>
      </trkpt>
      <trkpt lat="43.40496" lon="6.07279">
        <ele>207.80000305176</ele>
        <time>2016-01-27T15:13:12Z</time>
      </trkpt>
      <trkpt lat="43.40496" lon="6.07279">
        <ele>207.80000305176</ele>
        <time>2016-01-27T15:13:14Z</time>
      </trkpt>
      <trkpt lat="43.40496" lon="6.07279">
        <ele>207.80000305176</ele>
        <time>2016-01-27T15:13:16Z</time>
      </trkpt>
      <trkpt lat="43.40496" lon="6.07279">
        <ele>207.80000305176</ele>
        <time>2016-01-27T15:13:18Z</time>
      </trkpt>
      <trkpt lat="43.40496" lon="6.07279">
        <ele>207.80000305176</ele>
        <time>2016-01-27T15:13:20Z</time>
      </trkpt>
      <trkpt lat="43.40496" lon="6.07279">
        <ele>207.80000305176</ele>
        <time>2016-01-27T15:13:22Z</time>
      </trkpt>
      <trkpt lat="43.40496" lon="6.07279">
        <ele>207.80000305176</ele>
        <time>2016-01-27T15:13:24Z</time>
      </trkpt>
      <trkpt lat="43.40496" lon="6.07279">
        <ele>207.60000610352</ele>
        <time>2016-01-27T15:13:26Z</time>
      </trkpt>
      <trkpt lat="43.40496" lon="6.07279">
        <ele>207.60000610352</ele>
        <time>2016-01-27T15:13:28Z</time>
      </trkpt>
      <trkpt lat="43.40496" lon="6.07279">
        <ele>207.80000305176</ele>
        <time>2016-01-27T15:13:30Z</time>
      </trkpt>
      <trkpt lat="43.40496" lon="6.07279">
        <ele>207.80000305176</ele>
        <time>2016-01-27T15:13:32Z</time>
      </trkpt>
      <trkpt lat="43.40496" lon="6.07279">
        <ele>207.60000610352</ele>
        <time>2016-01-27T15:13:34Z</time>
      </trkpt>
      <trkpt lat="43.40496" lon="6.07279">
        <ele>207.60000610352</ele>
        <time>2016-01-27T15:13:36Z</time>
      </trkpt>
      <trkpt lat="43.40496" lon="6.07279">
        <ele>207.60000610352</ele>
        <time>2016-01-27T15:13:38Z</time>
      </trkpt>
      <trkpt lat="43.40496" lon="6.07279">
        <ele>207.80000305176</ele>
        <time>2016-01-27T15:13:40Z</time>
      </trkpt>
      <trkpt lat="43.40496" lon="6.07279">
        <ele>207.60000610352</ele>
        <time>2016-01-27T15:13:42Z</time>
      </trkpt>
      <trkpt lat="43.40496" lon="6.07279">
        <ele>207.80000305176</ele>
        <time>2016-01-27T15:13:44Z</time>
      </trkpt>
      <trkpt lat="43.40496" lon="6.07279">
        <ele>207.80000305176</ele>
        <time>2016-01-27T15:13:46Z</time>
      </trkpt>
      <trkpt lat="43.40496" lon="6.07279">
        <ele>207.80000305176</ele>
        <time>2016-01-27T15:13:48Z</time>
      </trkpt>
      <trkpt lat="43.40496" lon="6.07279">
        <ele>207.80000305176</ele>
        <time>2016-01-27T15:13:50Z</time>
      </trkpt>
      <trkpt lat="43.40496" lon="6.07279">
        <ele>207.80000305176</ele>
        <time>2016-01-27T15:13:52Z</time>
      </trkpt>
      <trkpt lat="43.40496" lon="6.07279">
        <ele>207.80000305176</ele>
        <time>2016-01-27T15:13:54Z</time>
      </trkpt>
      <trkpt lat="43.40496" lon="6.07279">
        <ele>207.80000305176</ele>
        <time>2016-01-27T15:13:56Z</time>
      </trkpt>
      <trkpt lat="43.40496" lon="6.07279">
        <ele>207.80000305176</ele>
        <time>2016-01-27T15:13:58Z</time>
      </trkpt>
      <trkpt lat="43.40496" lon="6.07279">
        <ele>207.80000305176</ele>
        <time>2016-01-27T15:14:00Z</time>
      </trkpt>
      <trkpt lat="43.40496" lon="6.07279">
        <ele>207.80000305176</ele>
        <time>2016-01-27T15:14:02Z</time>
      </trkpt>
      <trkpt lat="43.40496" lon="6.07279">
        <ele>207.80000305176</ele>
        <time>2016-01-27T15:14:04Z</time>
      </trkpt>
      <trkpt lat="43.40496" lon="6.07279">
        <ele>207.80000305176</ele>
        <time>2016-01-27T15:14:06Z</time>
      </trkpt>
      <trkpt lat="43.40496" lon="6.07279">
        <ele>208</ele>
        <time>2016-01-27T15:14:08Z</time>
      </trkpt>
      <trkpt lat="43.40496" lon="6.07279">
        <ele>208</ele>
        <time>2016-01-27T15:14:10Z</time>
      </trkpt>
      <trkpt lat="43.40496" lon="6.07279">
        <ele>208</ele>
        <time>2016-01-27T15:14:12Z</time>
      </trkpt>
      <trkpt lat="43.40496" lon="6.07279">
        <ele>208</ele>
        <time>2016-01-27T15:14:14Z</time>
      </trkpt>
      <trkpt lat="43.40496" lon="6.07279">
        <ele>208</ele>
        <time>2016-01-27T15:14:16Z</time>
      </trkpt>
      <trkpt lat="43.40496" lon="6.07279">
        <ele>208.19999694824</ele>
        <time>2016-01-27T15:14:18Z</time>
      </trkpt>
      <trkpt lat="43.40496" lon="6.07279">
        <ele>208</ele>
        <time>2016-01-27T15:14:20Z</time>
      </trkpt>
      <trkpt lat="43.40496" lon="6.07279">
        <ele>208</ele>
        <time>2016-01-27T15:14:22Z</time>
      </trkpt>
      <trkpt lat="43.40496" lon="6.07279">
        <ele>208.19999694824</ele>
        <time>2016-01-27T15:14:24Z</time>
      </trkpt>
      <trkpt lat="43.40496" lon="6.07279">
        <ele>207.80000305176</ele>
        <time>2016-01-27T15:14:26Z</time>
      </trkpt>
      <trkpt lat="43.40496" lon="6.07279">
        <ele>208</ele>
        <time>2016-01-27T15:14:28Z</time>
      </trkpt>
      <trkpt lat="43.40496" lon="6.07279">
        <ele>208</ele>
        <time>2016-01-27T15:14:30Z</time>
      </trkpt>
      <trkpt lat="43.40496" lon="6.07279">
        <ele>208.19999694824</ele>
        <time>2016-01-27T15:14:32Z</time>
      </trkpt>
      <trkpt lat="43.40496" lon="6.07279">
        <ele>208</ele>
        <time>2016-01-27T15:14:34Z</time>
      </trkpt>
      <trkpt lat="43.40496" lon="6.07279">
        <ele>208.19999694824</ele>
        <time>2016-01-27T15:14:36Z</time>
      </trkpt>
      <trkpt lat="43.40496" lon="6.07279">
        <ele>208.19999694824</ele>
        <time>2016-01-27T15:14:37Z</time>
      </trkpt>
      <trkpt lat="43.40496" lon="6.07279">
        <ele>208</ele>
        <time>2016-01-27T15:14:38Z</time>
      </trkpt>
      <trkpt lat="43.40496" lon="6.07279">
        <ele>208.19999694824</ele>
        <time>2016-01-27T15:14:40Z</time>
      </trkpt>
      <trkpt lat="43.40496" lon="6.07279">
        <ele>208.19999694824</ele>
        <time>2016-01-27T15:14:42Z</time>
      </trkpt>
      <trkpt lat="43.40496" lon="6.07279">
        <ele>208</ele>
        <time>2016-01-27T15:14:44Z</time>
      </trkpt>
      <trkpt lat="43.40496" lon="6.07279">
        <ele>208</ele>
        <time>2016-01-27T15:14:46Z</time>
      </trkpt>
      <trkpt lat="43.40496" lon="6.07279">
        <ele>208</ele>
        <time>2016-01-27T15:14:48Z</time>
      </trkpt>
      <trkpt lat="43.40496" lon="6.07279">
        <ele>208</ele>
        <time>2016-01-27T15:14:50Z</time>
      </trkpt>
      <trkpt lat="43.40496" lon="6.07279">
        <ele>208</ele>
        <time>2016-01-27T15:14:52Z</time>
      </trkpt>
      <trkpt lat="43.40496" lon="6.07279">
        <ele>208</ele>
        <time>2016-01-27T15:14:54Z</time>
      </trkpt>
      <trkpt lat="43.40496" lon="6.07279">
        <ele>208</ele>
        <time>2016-01-27T15:14:56Z</time>
      </trkpt>
      <trkpt lat="43.40496" lon="6.07279">
        <ele>208.19999694824</ele>
        <time>2016-01-27T15:14:58Z</time>
      </trkpt>
      <trkpt lat="43.40496" lon="6.07278">
        <ele>208</ele>
        <time>2016-01-27T15:15:00Z</time>
      </trkpt>
      <trkpt lat="43.40497" lon="6.07279">
        <ele>208</ele>
        <time>2016-01-27T15:15:01Z</time>
      </trkpt>
      <trkpt lat="43.40497" lon="6.07279">
        <ele>207.80000305176</ele>
        <time>2016-01-27T15:15:02Z</time>
      </trkpt>
      <trkpt lat="43.40501" lon="6.0728">
        <ele>207.80000305176</ele>
        <time>2016-01-27T15:15:04Z</time>
      </trkpt>
      <trkpt lat="43.40503" lon="6.07282">
        <ele>208</ele>
        <time>2016-01-27T15:15:05Z</time>
      </trkpt>
      <trkpt lat="43.40505" lon="6.07284">
        <ele>207.80000305176</ele>
        <time>2016-01-27T15:15:06Z</time>
      </trkpt>
      <trkpt lat="43.40508" lon="6.07291">
        <ele>208</ele>
        <time>2016-01-27T15:15:08Z</time>
      </trkpt>
      <trkpt lat="43.40512" lon="6.07297">
        <ele>208</ele>
        <time>2016-01-27T15:15:10Z</time>
      </trkpt>
      <trkpt lat="43.40516" lon="6.07298">
        <ele>208</ele>
        <time>2016-01-27T15:15:11Z</time>
      </trkpt>
      <trkpt lat="43.40519" lon="6.07298">
        <ele>207.80000305176</ele>
        <time>2016-01-27T15:15:12Z</time>
      </trkpt>
      <trkpt lat="43.40525" lon="6.07298">
        <ele>207.60000610352</ele>
        <time>2016-01-27T15:15:14Z</time>
      </trkpt>
      <trkpt lat="43.40533" lon="6.07297">
        <ele>207.60000610352</ele>
        <time>2016-01-27T15:15:16Z</time>
      </trkpt>
      <trkpt lat="43.4054" lon="6.07299">
        <ele>207.39999389648</ele>
        <time>2016-01-27T15:15:18Z</time>
      </trkpt>
      <trkpt lat="43.40546" lon="6.073">
        <ele>207.19999694824</ele>
        <time>2016-01-27T15:15:20Z</time>
      </trkpt>
      <trkpt lat="43.40548" lon="6.07301">
        <ele>207</ele>
        <time>2016-01-27T15:15:22Z</time>
      </trkpt>
      <trkpt lat="43.40549" lon="6.07302">
        <ele>207</ele>
        <time>2016-01-27T15:15:23Z</time>
      </trkpt>
      <trkpt lat="43.4055" lon="6.07302">
        <ele>207</ele>
        <time>2016-01-27T15:15:24Z</time>
      </trkpt>
      <trkpt lat="43.4055" lon="6.07302">
        <ele>207</ele>
        <time>2016-01-27T15:15:26Z</time>
      </trkpt>
      <trkpt lat="43.40551" lon="6.07302">
        <ele>207</ele>
        <time>2016-01-27T15:15:28Z</time>
      </trkpt>
      <trkpt lat="43.4055" lon="6.07302">
        <ele>207</ele>
        <time>2016-01-27T15:15:30Z</time>
      </trkpt>
      <trkpt lat="43.4055" lon="6.07302">
        <ele>207</ele>
        <time>2016-01-27T15:15:31Z</time>
      </trkpt>
      <trkpt lat="43.4055" lon="6.07302">
        <ele>207.19999694824</ele>
        <time>2016-01-27T15:15:32Z</time>
      </trkpt>
      <trkpt lat="43.4055" lon="6.07302">
        <ele>207.19999694824</ele>
        <time>2016-01-27T15:15:34Z</time>
      </trkpt>
      <trkpt lat="43.40551" lon="6.07302">
        <ele>207.39999389648</ele>
        <time>2016-01-27T15:15:36Z</time>
      </trkpt>
      <trkpt lat="43.40551" lon="6.07302">
        <ele>207.19999694824</ele>
        <time>2016-01-27T15:15:37Z</time>
      </trkpt>
      <trkpt lat="43.40552" lon="6.07302">
        <ele>207.19999694824</ele>
        <time>2016-01-27T15:15:38Z</time>
      </trkpt>
      <trkpt lat="43.40553" lon="6.07302">
        <ele>207</ele>
        <time>2016-01-27T15:15:39Z</time>
      </trkpt>
      <trkpt lat="43.40554" lon="6.07302">
        <ele>207</ele>
        <time>2016-01-27T15:15:40Z</time>
      </trkpt>
      <trkpt lat="43.40557" lon="6.07303">
        <ele>206.60000610352</ele>
        <time>2016-01-27T15:15:42Z</time>
      </trkpt>
      <trkpt lat="43.40558" lon="6.07303">
        <ele>206.60000610352</ele>
        <time>2016-01-27T15:15:44Z</time>
      </trkpt>
      <trkpt lat="43.40558" lon="6.07303">
        <ele>206.80000305176</ele>
        <time>2016-01-27T15:15:46Z</time>
      </trkpt>
      <trkpt lat="43.40559" lon="6.07303">
        <ele>206.80000305176</ele>
        <time>2016-01-27T15:15:47Z</time>
      </trkpt>
      <trkpt lat="43.40559" lon="6.07303">
        <ele>206.80000305176</ele>
        <time>2016-01-27T15:15:48Z</time>
      </trkpt>
      <trkpt lat="43.40559" lon="6.07303">
        <ele>206.80000305176</ele>
        <time>2016-01-27T15:15:50Z</time>
      </trkpt>
      <trkpt lat="43.40559" lon="6.07303">
        <ele>206.80000305176</ele>
        <time>2016-01-27T15:15:52Z</time>
      </trkpt>
      <trkpt lat="43.40559" lon="6.07303">
        <ele>206.80000305176</ele>
        <time>2016-01-27T15:15:54Z</time>
      </trkpt>
      <trkpt lat="43.40559" lon="6.07303">
        <ele>206.80000305176</ele>
        <time>2016-01-27T15:15:56Z</time>
      </trkpt>
      <trkpt lat="43.40559" lon="6.07303">
        <ele>206.80000305176</ele>
        <time>2016-01-27T15:15:58Z</time>
      </trkpt>
      <trkpt lat="43.40559" lon="6.07303">
        <ele>206.80000305176</ele>
        <time>2016-01-27T15:16:00Z</time>
      </trkpt>
      <trkpt lat="43.40559" lon="6.07303">
        <ele>206.80000305176</ele>
        <time>2016-01-27T15:16:02Z</time>
      </trkpt>
      <trkpt lat="43.40559" lon="6.07303">
        <ele>206.80000305176</ele>
        <time>2016-01-27T15:16:04Z</time>
      </trkpt>
      <trkpt lat="43.40559" lon="6.07303">
        <ele>207</ele>
        <time>2016-01-27T15:16:06Z</time>
      </trkpt>
      <trkpt lat="43.40559" lon="6.07304">
        <ele>207</ele>
        <time>2016-01-27T15:16:08Z</time>
      </trkpt>
      <trkpt lat="43.40559" lon="6.07304">
        <ele>206.80000305176</ele>
        <time>2016-01-27T15:16:10Z</time>
      </trkpt>
      <trkpt lat="43.40559" lon="6.07304">
        <ele>206.80000305176</ele>
        <time>2016-01-27T15:16:12Z</time>
      </trkpt>
      <trkpt lat="43.40559" lon="6.07304">
        <ele>206.80000305176</ele>
        <time>2016-01-27T15:16:14Z</time>
      </trkpt>
      <trkpt lat="43.40559" lon="6.07304">
        <ele>206.80000305176</ele>
        <time>2016-01-27T15:16:16Z</time>
      </trkpt>
      <trkpt lat="43.40559" lon="6.07304">
        <ele>206.80000305176</ele>
        <time>2016-01-27T15:16:18Z</time>
      </trkpt>
      <trkpt lat="43.40559" lon="6.07304">
        <ele>207</ele>
        <time>2016-01-27T15:16:20Z</time>
      </trkpt>
      <trkpt lat="43.40559" lon="6.07304">
        <ele>207</ele>
        <time>2016-01-27T15:16:22Z</time>
      </trkpt>
      <trkpt lat="43.40559" lon="6.07304">
        <ele>206.80000305176</ele>
        <time>2016-01-27T15:16:24Z</time>
      </trkpt>
      <trkpt lat="43.40561" lon="6.07304">
        <ele>207</ele>
        <time>2016-01-27T15:16:26Z</time>
      </trkpt>
      <trkpt lat="43.40563" lon="6.07304">
        <ele>207</ele>
        <time>2016-01-27T15:16:27Z</time>
      </trkpt>
      <trkpt lat="43.40565" lon="6.07305">
        <ele>207</ele>
        <time>2016-01-27T15:16:28Z</time>
      </trkpt>
      <trkpt lat="43.40572" lon="6.07304">
        <ele>207</ele>
        <time>2016-01-27T15:16:30Z</time>
      </trkpt>
      <trkpt lat="43.4058" lon="6.07302">
        <ele>207</ele>
        <time>2016-01-27T15:16:32Z</time>
      </trkpt>
      <trkpt lat="43.40588" lon="6.07297">
        <ele>207.19999694824</ele>
        <time>2016-01-27T15:16:34Z</time>
      </trkpt>
      <trkpt lat="43.40593" lon="6.07298">
        <ele>207</ele>
        <time>2016-01-27T15:16:35Z</time>
      </trkpt>
      <trkpt lat="43.40597" lon="6.073">
        <ele>206.80000305176</ele>
        <time>2016-01-27T15:16:36Z</time>
      </trkpt>
      <trkpt lat="43.40601" lon="6.07304">
        <ele>206.60000610352</ele>
        <time>2016-01-27T15:16:37Z</time>
      </trkpt>
      <trkpt lat="43.40604" lon="6.07308">
        <ele>206.19999694824</ele>
        <time>2016-01-27T15:16:38Z</time>
      </trkpt>
      <trkpt lat="43.40607" lon="6.07312">
        <ele>206</ele>
        <time>2016-01-27T15:16:39Z</time>
      </trkpt>
      <trkpt lat="43.40611" lon="6.07316">
        <ele>205.80000305176</ele>
        <time>2016-01-27T15:16:40Z</time>
      </trkpt>
      <trkpt lat="43.40614" lon="6.07322">
        <ele>205.80000305176</ele>
        <time>2016-01-27T15:16:41Z</time>
      </trkpt>
      <trkpt lat="43.40617" lon="6.07327">
        <ele>205.80000305176</ele>
        <time>2016-01-27T15:16:42Z</time>
      </trkpt>
      <trkpt lat="43.40622" lon="6.07338">
        <ele>205.60000610352</ele>
        <time>2016-01-27T15:16:44Z</time>
      </trkpt>
      <trkpt lat="43.40626" lon="6.07339">
        <ele>205.60000610352</ele>
        <time>2016-01-27T15:16:45Z</time>
      </trkpt>
      <trkpt lat="43.4063" lon="6.07339">
        <ele>205.60000610352</ele>
        <time>2016-01-27T15:16:46Z</time>
      </trkpt>
      <trkpt lat="43.40634" lon="6.07333">
        <ele>205.60000610352</ele>
        <time>2016-01-27T15:16:47Z</time>
      </trkpt>
      <trkpt lat="43.40638" lon="6.07328">
        <ele>205.39999389648</ele>
        <time>2016-01-27T15:16:48Z</time>
      </trkpt>
      <trkpt lat="43.40647" lon="6.07319">
        <ele>205</ele>
        <time>2016-01-27T15:16:50Z</time>
      </trkpt>
      <trkpt lat="43.40653" lon="6.07316">
        <ele>204.80000305176</ele>
        <time>2016-01-27T15:16:51Z</time>
      </trkpt>
      <trkpt lat="43.40658" lon="6.07312">
        <ele>204.60000610352</ele>
        <time>2016-01-27T15:16:52Z</time>
      </trkpt>
      <trkpt lat="43.40663" lon="6.07309">
        <ele>204.19999694824</ele>
        <time>2016-01-27T15:16:53Z</time>
      </trkpt>
      <trkpt lat="43.40668" lon="6.07306">
        <ele>204</ele>
        <time>2016-01-27T15:16:54Z</time>
      </trkpt>
      <trkpt lat="43.40678" lon="6.073">
        <ele>203.60000610352</ele>
        <time>2016-01-27T15:16:56Z</time>
      </trkpt>
      <trkpt lat="43.40689" lon="6.07295">
        <ele>203.19999694824</ele>
        <time>2016-01-27T15:16:58Z</time>
      </trkpt>
      <trkpt lat="43.407" lon="6.07288">
        <ele>203</ele>
        <time>2016-01-27T15:17:00Z</time>
      </trkpt>
      <trkpt lat="43.40711" lon="6.07282">
        <ele>202.80000305176</ele>
        <time>2016-01-27T15:17:02Z</time>
      </trkpt>
      <trkpt lat="43.40722" lon="6.07275">
        <ele>202.19999694824</ele>
        <time>2016-01-27T15:17:04Z</time>
      </trkpt>
      <trkpt lat="43.40728" lon="6.07272">
        <ele>202</ele>
        <time>2016-01-27T15:17:05Z</time>
      </trkpt>
      <trkpt lat="43.40733" lon="6.07269">
        <ele>202.19999694824</ele>
        <time>2016-01-27T15:17:06Z</time>
      </trkpt>
      <trkpt lat="43.40744" lon="6.07263">
        <ele>202</ele>
        <time>2016-01-27T15:17:08Z</time>
      </trkpt>
      <trkpt lat="43.40755" lon="6.07257">
        <ele>201.80000305176</ele>
        <time>2016-01-27T15:17:10Z</time>
      </trkpt>
      <trkpt lat="43.40765" lon="6.0725">
        <ele>201.60000610352</ele>
        <time>2016-01-27T15:17:12Z</time>
      </trkpt>
      <trkpt lat="43.40776" lon="6.07243">
        <ele>201.39999389648</ele>
        <time>2016-01-27T15:17:14Z</time>
      </trkpt>
      <trkpt lat="43.40781" lon="6.07239">
        <ele>201.39999389648</ele>
        <time>2016-01-27T15:17:15Z</time>
      </trkpt>
      <trkpt lat="43.40786" lon="6.07235">
        <ele>201.39999389648</ele>
        <time>2016-01-27T15:17:16Z</time>
      </trkpt>
      <trkpt lat="43.40794" lon="6.07226">
        <ele>201.39999389648</ele>
        <time>2016-01-27T15:17:18Z</time>
      </trkpt>
      <trkpt lat="43.40802" lon="6.07217">
        <ele>201.19999694824</ele>
        <time>2016-01-27T15:17:20Z</time>
      </trkpt>
      <trkpt lat="43.4081" lon="6.07209">
        <ele>201.19999694824</ele>
        <time>2016-01-27T15:17:22Z</time>
      </trkpt>
      <trkpt lat="43.40813" lon="6.07204">
        <ele>201.39999389648</ele>
        <time>2016-01-27T15:17:23Z</time>
      </trkpt>
      <trkpt lat="43.40815" lon="6.07199">
        <ele>201.60000610352</ele>
        <time>2016-01-27T15:17:24Z</time>
      </trkpt>
      <trkpt lat="43.40818" lon="6.07194">
        <ele>201.60000610352</ele>
        <time>2016-01-27T15:17:25Z</time>
      </trkpt>
      <trkpt lat="43.40821" lon="6.07189">
        <ele>201.60000610352</ele>
        <time>2016-01-27T15:17:26Z</time>
      </trkpt>
      <trkpt lat="43.40826" lon="6.0718">
        <ele>201.19999694824</ele>
        <time>2016-01-27T15:17:28Z</time>
      </trkpt>
      <trkpt lat="43.40829" lon="6.07175">
        <ele>201.19999694824</ele>
        <time>2016-01-27T15:17:29Z</time>
      </trkpt>
      <trkpt lat="43.40831" lon="6.0717">
        <ele>201.19999694824</ele>
        <time>2016-01-27T15:17:30Z</time>
      </trkpt>
      <trkpt lat="43.40836" lon="6.07159">
        <ele>201.19999694824</ele>
        <time>2016-01-27T15:17:32Z</time>
      </trkpt>
      <trkpt lat="43.4084" lon="6.07147">
        <ele>201.19999694824</ele>
        <time>2016-01-27T15:17:34Z</time>
      </trkpt>
      <trkpt lat="43.40841" lon="6.07141">
        <ele>201</ele>
        <time>2016-01-27T15:17:35Z</time>
      </trkpt>
      <trkpt lat="43.40843" lon="6.07135">
        <ele>201</ele>
        <time>2016-01-27T15:17:36Z</time>
      </trkpt>
      <trkpt lat="43.40846" lon="6.07122">
        <ele>200.80000305176</ele>
        <time>2016-01-27T15:17:38Z</time>
      </trkpt>
      <trkpt lat="43.40847" lon="6.07115">
        <ele>201</ele>
        <time>2016-01-27T15:17:39Z</time>
      </trkpt>
      <trkpt lat="43.40848" lon="6.07108">
        <ele>201</ele>
        <time>2016-01-27T15:17:40Z</time>
      </trkpt>
      <trkpt lat="43.40849" lon="6.07102">
        <ele>200.80000305176</ele>
        <time>2016-01-27T15:17:41Z</time>
      </trkpt>
      <trkpt lat="43.40849" lon="6.07095">
        <ele>200.60000610352</ele>
        <time>2016-01-27T15:17:42Z</time>
      </trkpt>
      <trkpt lat="43.4085" lon="6.07082">
        <ele>200.80000305176</ele>
        <time>2016-01-27T15:17:44Z</time>
      </trkpt>
      <trkpt lat="43.4085" lon="6.07076">
        <ele>200.80000305176</ele>
        <time>2016-01-27T15:17:45Z</time>
      </trkpt>
      <trkpt lat="43.4085" lon="6.0707">
        <ele>200.80000305176</ele>
        <time>2016-01-27T15:17:46Z</time>
      </trkpt>
      <trkpt lat="43.40849" lon="6.07059">
        <ele>200.80000305176</ele>
        <time>2016-01-27T15:17:48Z</time>
      </trkpt>
      <trkpt lat="43.40848" lon="6.07049">
        <ele>200.80000305176</ele>
        <time>2016-01-27T15:17:50Z</time>
      </trkpt>
      <trkpt lat="43.40847" lon="6.07039">
        <ele>200.80000305176</ele>
        <time>2016-01-27T15:17:52Z</time>
      </trkpt>
      <trkpt lat="43.40846" lon="6.07034">
        <ele>201</ele>
        <time>2016-01-27T15:17:53Z</time>
      </trkpt>
      <trkpt lat="43.40845" lon="6.07029">
        <ele>201</ele>
        <time>2016-01-27T15:17:54Z</time>
      </trkpt>
      <trkpt lat="43.40844" lon="6.07019">
        <ele>201.19999694824</ele>
        <time>2016-01-27T15:17:56Z</time>
      </trkpt>
      <trkpt lat="43.40846" lon="6.07015">
        <ele>201.39999389648</ele>
        <time>2016-01-27T15:17:57Z</time>
      </trkpt>
      <trkpt lat="43.40849" lon="6.07011">
        <ele>201.39999389648</ele>
        <time>2016-01-27T15:17:58Z</time>
      </trkpt>
      <trkpt lat="43.40853" lon="6.0701">
        <ele>201.19999694824</ele>
        <time>2016-01-27T15:17:59Z</time>
      </trkpt>
      <trkpt lat="43.40857" lon="6.07009">
        <ele>201</ele>
        <time>2016-01-27T15:18:00Z</time>
      </trkpt>
      <trkpt lat="43.40861" lon="6.07008">
        <ele>201</ele>
        <time>2016-01-27T15:18:01Z</time>
      </trkpt>
      <trkpt lat="43.40865" lon="6.07007">
        <ele>201</ele>
        <time>2016-01-27T15:18:02Z</time>
      </trkpt>
      <trkpt lat="43.40874" lon="6.07004">
        <ele>200.60000610352</ele>
        <time>2016-01-27T15:18:04Z</time>
      </trkpt>
      <trkpt lat="43.40883" lon="6.07002">
        <ele>200.60000610352</ele>
        <time>2016-01-27T15:18:06Z</time>
      </trkpt>
      <trkpt lat="43.40892" lon="6.06999">
        <ele>200.39999389648</ele>
        <time>2016-01-27T15:18:08Z</time>
      </trkpt>
      <trkpt lat="43.40896" lon="6.06997">
        <ele>200.39999389648</ele>
        <time>2016-01-27T15:18:09Z</time>
      </trkpt>
      <trkpt lat="43.409" lon="6.06995">
        <ele>200.60000610352</ele>
        <time>2016-01-27T15:18:10Z</time>
      </trkpt>
      <trkpt lat="43.40903" lon="6.06989">
        <ele>200.60000610352</ele>
        <time>2016-01-27T15:18:11Z</time>
      </trkpt>
      <trkpt lat="43.40905" lon="6.06984">
        <ele>200.80000305176</ele>
        <time>2016-01-27T15:18:12Z</time>
      </trkpt>
      <trkpt lat="43.40908" lon="6.06972">
        <ele>200.60000610352</ele>
        <time>2016-01-27T15:18:14Z</time>
      </trkpt>
      <trkpt lat="43.40909" lon="6.06966">
        <ele>200.39999389648</ele>
        <time>2016-01-27T15:18:15Z</time>
      </trkpt>
      <trkpt lat="43.4091" lon="6.0696">
        <ele>200.60000610352</ele>
        <time>2016-01-27T15:18:16Z</time>
      </trkpt>
      <trkpt lat="43.40913" lon="6.06955">
        <ele>200.60000610352</ele>
        <time>2016-01-27T15:18:17Z</time>
      </trkpt>
      <trkpt lat="43.40918" lon="6.06952">
        <ele>200.60000610352</ele>
        <time>2016-01-27T15:18:18Z</time>
      </trkpt>
      <trkpt lat="43.40927" lon="6.06949">
        <ele>200.60000610352</ele>
        <time>2016-01-27T15:18:20Z</time>
      </trkpt>
      <trkpt lat="43.40931" lon="6.06949">
        <ele>200.39999389648</ele>
        <time>2016-01-27T15:18:21Z</time>
      </trkpt>
      <trkpt lat="43.40936" lon="6.06949">
        <ele>200.39999389648</ele>
        <time>2016-01-27T15:18:22Z</time>
      </trkpt>
      <trkpt lat="43.40942" lon="6.06949">
        <ele>200.19999694824</ele>
        <time>2016-01-27T15:18:23Z</time>
      </trkpt>
      <trkpt lat="43.40946" lon="6.06947">
        <ele>200</ele>
        <time>2016-01-27T15:18:24Z</time>
      </trkpt>
      <trkpt lat="43.40956" lon="6.06944">
        <ele>200</ele>
        <time>2016-01-27T15:18:26Z</time>
      </trkpt>
      <trkpt lat="43.40966" lon="6.06941">
        <ele>200</ele>
        <time>2016-01-27T15:18:28Z</time>
      </trkpt>
      <trkpt lat="43.40976" lon="6.06937">
        <ele>200</ele>
        <time>2016-01-27T15:18:30Z</time>
      </trkpt>
      <trkpt lat="43.40985" lon="6.06932">
        <ele>200</ele>
        <time>2016-01-27T15:18:32Z</time>
      </trkpt>
      <trkpt lat="43.40994" lon="6.06929">
        <ele>200.19999694824</ele>
        <time>2016-01-27T15:18:34Z</time>
      </trkpt>
      <trkpt lat="43.40998" lon="6.06926">
        <ele>200.19999694824</ele>
        <time>2016-01-27T15:18:35Z</time>
      </trkpt>
      <trkpt lat="43.41002" lon="6.06924">
        <ele>200.39999389648</ele>
        <time>2016-01-27T15:18:36Z</time>
      </trkpt>
      <trkpt lat="43.41009" lon="6.06919">
        <ele>200.39999389648</ele>
        <time>2016-01-27T15:18:38Z</time>
      </trkpt>
      <trkpt lat="43.41014" lon="6.06911">
        <ele>200.60000610352</ele>
        <time>2016-01-27T15:18:40Z</time>
      </trkpt>
      <trkpt lat="43.41016" lon="6.06907">
        <ele>200.39999389648</ele>
        <time>2016-01-27T15:18:41Z</time>
      </trkpt>
      <trkpt lat="43.41018" lon="6.06903">
        <ele>200.19999694824</ele>
        <time>2016-01-27T15:18:42Z</time>
      </trkpt>
      <trkpt lat="43.41019" lon="6.06895">
        <ele>200.39999389648</ele>
        <time>2016-01-27T15:18:44Z</time>
      </trkpt>
      <trkpt lat="43.41022" lon="6.0689">
        <ele>200.39999389648</ele>
        <time>2016-01-27T15:18:46Z</time>
      </trkpt>
      <trkpt lat="43.41022" lon="6.0689">
        <ele>200.19999694824</ele>
        <time>2016-01-27T15:18:48Z</time>
      </trkpt>
      <trkpt lat="43.41022" lon="6.0689">
        <ele>200.19999694824</ele>
        <time>2016-01-27T15:18:49Z</time>
      </trkpt>
      <trkpt lat="43.41022" lon="6.0689">
        <ele>200.19999694824</ele>
        <time>2016-01-27T15:18:50Z</time>
      </trkpt>
      <trkpt lat="43.41022" lon="6.0689">
        <ele>200.19999694824</ele>
        <time>2016-01-27T15:18:52Z</time>
      </trkpt>
      <trkpt lat="43.41022" lon="6.0689">
        <ele>200.19999694824</ele>
        <time>2016-01-27T15:18:54Z</time>
      </trkpt>
      <trkpt lat="43.41022" lon="6.0689">
        <ele>200.19999694824</ele>
        <time>2016-01-27T15:18:56Z</time>
      </trkpt>
      <trkpt lat="43.41022" lon="6.0689">
        <ele>200.19999694824</ele>
        <time>2016-01-27T15:18:58Z</time>
      </trkpt>
      <trkpt lat="43.41022" lon="6.0689">
        <ele>200</ele>
        <time>2016-01-27T15:19:00Z</time>
      </trkpt>
      <trkpt lat="43.41022" lon="6.0689">
        <ele>200.19999694824</ele>
        <time>2016-01-27T15:19:02Z</time>
      </trkpt>
      <trkpt lat="43.41022" lon="6.0689">
        <ele>200.19999694824</ele>
        <time>2016-01-27T15:19:04Z</time>
      </trkpt>
      <trkpt lat="43.41022" lon="6.0689">
        <ele>200</ele>
        <time>2016-01-27T15:19:06Z</time>
      </trkpt>
      <trkpt lat="43.41022" lon="6.0689">
        <ele>200.19999694824</ele>
        <time>2016-01-27T15:19:07Z</time>
      </trkpt>
      <trkpt lat="43.41023" lon="6.06889">
        <ele>200.19999694824</ele>
        <time>2016-01-27T15:19:08Z</time>
      </trkpt>
      <trkpt lat="43.41026" lon="6.06888">
        <ele>200.19999694824</ele>
        <time>2016-01-27T15:19:10Z</time>
      </trkpt>
      <trkpt lat="43.4103" lon="6.06884">
        <ele>200.19999694824</ele>
        <time>2016-01-27T15:19:12Z</time>
      </trkpt>
      <trkpt lat="43.41032" lon="6.06883">
        <ele>200.39999389648</ele>
        <time>2016-01-27T15:19:13Z</time>
      </trkpt>
      <trkpt lat="43.41034" lon="6.06881">
        <ele>200.39999389648</ele>
        <time>2016-01-27T15:19:14Z</time>
      </trkpt>
      <trkpt lat="43.4104" lon="6.06879">
        <ele>200.60000610352</ele>
        <time>2016-01-27T15:19:16Z</time>
      </trkpt>
      <trkpt lat="43.41046" lon="6.06876">
        <ele>201</ele>
        <time>2016-01-27T15:19:18Z</time>
      </trkpt>
      <trkpt lat="43.41048" lon="6.06875">
        <ele>201.39999389648</ele>
        <time>2016-01-27T15:19:19Z</time>
      </trkpt>
      <trkpt lat="43.4105" lon="6.06874">
        <ele>201.80000305176</ele>
        <time>2016-01-27T15:19:20Z</time>
      </trkpt>
      <trkpt lat="43.41053" lon="6.06873">
        <ele>202</ele>
        <time>2016-01-27T15:19:21Z</time>
      </trkpt>
      <trkpt lat="43.41055" lon="6.06872">
        <ele>202</ele>
        <time>2016-01-27T15:19:22Z</time>
      </trkpt>
      <trkpt lat="43.41058" lon="6.06871">
        <ele>202</ele>
        <time>2016-01-27T15:19:23Z</time>
      </trkpt>
      <trkpt lat="43.41061" lon="6.0687">
        <ele>202</ele>
        <time>2016-01-27T15:19:24Z</time>
      </trkpt>
      <trkpt lat="43.41064" lon="6.06868">
        <ele>201.80000305176</ele>
        <time>2016-01-27T15:19:26Z</time>
      </trkpt>
      <trkpt lat="43.41065" lon="6.06866">
        <ele>201.80000305176</ele>
        <time>2016-01-27T15:19:27Z</time>
      </trkpt>
      <trkpt lat="43.41066" lon="6.06863">
        <ele>201.60000610352</ele>
        <time>2016-01-27T15:19:28Z</time>
      </trkpt>
      <trkpt lat="43.41066" lon="6.06858">
        <ele>201.39999389648</ele>
        <time>2016-01-27T15:19:29Z</time>
      </trkpt>
      <trkpt lat="43.41068" lon="6.06852">
        <ele>201.39999389648</ele>
        <time>2016-01-27T15:19:30Z</time>
      </trkpt>
      <trkpt lat="43.41069" lon="6.06846">
        <ele>201.19999694824</ele>
        <time>2016-01-27T15:19:31Z</time>
      </trkpt>
      <trkpt lat="43.4107" lon="6.0684">
        <ele>200.80000305176</ele>
        <time>2016-01-27T15:19:32Z</time>
      </trkpt>
      <trkpt lat="43.41072" lon="6.06835">
        <ele>200.60000610352</ele>
        <time>2016-01-27T15:19:33Z</time>
      </trkpt>
      <trkpt lat="43.41074" lon="6.06831">
        <ele>200.39999389648</ele>
        <time>2016-01-27T15:19:34Z</time>
      </trkpt>
      <trkpt lat="43.41076" lon="6.06822">
        <ele>200.60000610352</ele>
        <time>2016-01-27T15:19:36Z</time>
      </trkpt>
      <trkpt lat="43.41079" lon="6.06814">
        <ele>200.39999389648</ele>
        <time>2016-01-27T15:19:38Z</time>
      </trkpt>
      <trkpt lat="43.4108" lon="6.06809">
        <ele>200.39999389648</ele>
        <time>2016-01-27T15:19:39Z</time>
      </trkpt>
      <trkpt lat="43.41082" lon="6.06805">
        <ele>200.39999389648</ele>
        <time>2016-01-27T15:19:40Z</time>
      </trkpt>
      <trkpt lat="43.41084" lon="6.06794">
        <ele>200.39999389648</ele>
        <time>2016-01-27T15:19:42Z</time>
      </trkpt>
      <trkpt lat="43.41085" lon="6.06784">
        <ele>200.39999389648</ele>
        <time>2016-01-27T15:19:44Z</time>
      </trkpt>
      <trkpt lat="43.41086" lon="6.06771">
        <ele>200.39999389648</ele>
        <time>2016-01-27T15:19:46Z</time>
      </trkpt>
      <trkpt lat="43.41087" lon="6.06765">
        <ele>200.39999389648</ele>
        <time>2016-01-27T15:19:47Z</time>
      </trkpt>
      <trkpt lat="43.41088" lon="6.0676">
        <ele>200.39999389648</ele>
        <time>2016-01-27T15:19:48Z</time>
      </trkpt>
      <trkpt lat="43.41093" lon="6.06751">
        <ele>200.39999389648</ele>
        <time>2016-01-27T15:19:50Z</time>
      </trkpt>
      <trkpt lat="43.411" lon="6.06746">
        <ele>200.60000610352</ele>
        <time>2016-01-27T15:19:52Z</time>
      </trkpt>
      <trkpt lat="43.41106" lon="6.0674">
        <ele>200.60000610352</ele>
        <time>2016-01-27T15:19:54Z</time>
      </trkpt>
      <trkpt lat="43.41109" lon="6.06738">
        <ele>200.60000610352</ele>
        <time>2016-01-27T15:19:55Z</time>
      </trkpt>
      <trkpt lat="43.41112" lon="6.06736">
        <ele>200.60000610352</ele>
        <time>2016-01-27T15:19:56Z</time>
      </trkpt>
      <trkpt lat="43.41118" lon="6.06731">
        <ele>201</ele>
        <time>2016-01-27T15:19:58Z</time>
      </trkpt>
      <trkpt lat="43.41123" lon="6.06729">
        <ele>201</ele>
        <time>2016-01-27T15:20:00Z</time>
      </trkpt>
      <trkpt lat="43.41129" lon="6.06727">
        <ele>200.80000305176</ele>
        <time>2016-01-27T15:20:02Z</time>
      </trkpt>
      <trkpt lat="43.41132" lon="6.06725">
        <ele>200.80000305176</ele>
        <time>2016-01-27T15:20:03Z</time>
      </trkpt>
      <trkpt lat="43.41136" lon="6.06723">
        <ele>200.80000305176</ele>
        <time>2016-01-27T15:20:04Z</time>
      </trkpt>
      <trkpt lat="43.41142" lon="6.06721">
        <ele>200.80000305176</ele>
        <time>2016-01-27T15:20:06Z</time>
      </trkpt>
      <trkpt lat="43.41148" lon="6.06719">
        <ele>201</ele>
        <time>2016-01-27T15:20:08Z</time>
      </trkpt>
      <trkpt lat="43.41151" lon="6.06718">
        <ele>201</ele>
        <time>2016-01-27T15:20:09Z</time>
      </trkpt>
      <trkpt lat="43.41154" lon="6.06718">
        <ele>201</ele>
        <time>2016-01-27T15:20:10Z</time>
      </trkpt>
      <trkpt lat="43.41159" lon="6.06717">
        <ele>201</ele>
        <time>2016-01-27T15:20:12Z</time>
      </trkpt>
      <trkpt lat="43.41164" lon="6.06717">
        <ele>201</ele>
        <time>2016-01-27T15:20:14Z</time>
      </trkpt>
      <trkpt lat="43.4117" lon="6.06717">
        <ele>201</ele>
        <time>2016-01-27T15:20:16Z</time>
      </trkpt>
      <trkpt lat="43.41173" lon="6.06718">
        <ele>201.19999694824</ele>
        <time>2016-01-27T15:20:17Z</time>
      </trkpt>
      <trkpt lat="43.41176" lon="6.06718">
        <ele>201.39999389648</ele>
        <time>2016-01-27T15:20:18Z</time>
      </trkpt>
      <trkpt lat="43.41182" lon="6.06719">
        <ele>201.19999694824</ele>
        <time>2016-01-27T15:20:20Z</time>
      </trkpt>
      <trkpt lat="43.41188" lon="6.06719">
        <ele>201.39999389648</ele>
        <time>2016-01-27T15:20:22Z</time>
      </trkpt>
      <trkpt lat="43.41195" lon="6.0672">
        <ele>201.39999389648</ele>
        <time>2016-01-27T15:20:24Z</time>
      </trkpt>
      <trkpt lat="43.412" lon="6.0672">
        <ele>201.60000610352</ele>
        <time>2016-01-27T15:20:26Z</time>
      </trkpt>
      <trkpt lat="43.41203" lon="6.0672">
        <ele>201.80000305176</ele>
        <time>2016-01-27T15:20:27Z</time>
      </trkpt>
      <trkpt lat="43.41205" lon="6.06719">
        <ele>201.80000305176</ele>
        <time>2016-01-27T15:20:28Z</time>
      </trkpt>
      <trkpt lat="43.41211" lon="6.06719">
        <ele>201.80000305176</ele>
        <time>2016-01-27T15:20:30Z</time>
      </trkpt>
      <trkpt lat="43.41217" lon="6.06719">
        <ele>202</ele>
        <time>2016-01-27T15:20:32Z</time>
      </trkpt>
      <trkpt lat="43.41223" lon="6.06717">
        <ele>202.19999694824</ele>
        <time>2016-01-27T15:20:34Z</time>
      </trkpt>
      <trkpt lat="43.41228" lon="6.06715">
        <ele>202.19999694824</ele>
        <time>2016-01-27T15:20:36Z</time>
      </trkpt>
      <trkpt lat="43.4123" lon="6.06715">
        <ele>202.19999694824</ele>
        <time>2016-01-27T15:20:37Z</time>
      </trkpt>
      <trkpt lat="43.41233" lon="6.06715">
        <ele>202.39999389648</ele>
        <time>2016-01-27T15:20:38Z</time>
      </trkpt>
      <trkpt lat="43.41235" lon="6.06715">
        <ele>202.60000610352</ele>
        <time>2016-01-27T15:20:39Z</time>
      </trkpt>
      <trkpt lat="43.41236" lon="6.06715">
        <ele>202.80000305176</ele>
        <time>2016-01-27T15:20:40Z</time>
      </trkpt>
      <trkpt lat="43.4124" lon="6.06715">
        <ele>203</ele>
        <time>2016-01-27T15:20:42Z</time>
      </trkpt>
      <trkpt lat="43.41242" lon="6.06714">
        <ele>203.39999389648</ele>
        <time>2016-01-27T15:20:44Z</time>
      </trkpt>
      <trkpt lat="43.41245" lon="6.06714">
        <ele>203.39999389648</ele>
        <time>2016-01-27T15:20:46Z</time>
      </trkpt>
      <trkpt lat="43.41245" lon="6.06713">
        <ele>203.39999389648</ele>
        <time>2016-01-27T15:20:48Z</time>
      </trkpt>
      <trkpt lat="43.41246" lon="6.06713">
        <ele>203.19999694824</ele>
        <time>2016-01-27T15:20:50Z</time>
      </trkpt>
      <trkpt lat="43.41246" lon="6.06713">
        <ele>203.19999694824</ele>
        <time>2016-01-27T15:20:51Z</time>
      </trkpt>
      <trkpt lat="43.41246" lon="6.06713">
        <ele>203.19999694824</ele>
        <time>2016-01-27T15:20:52Z</time>
      </trkpt>
      <trkpt lat="43.41246" lon="6.06713">
        <ele>203</ele>
        <time>2016-01-27T15:20:54Z</time>
      </trkpt>
      <trkpt lat="43.41246" lon="6.06713">
        <ele>203.19999694824</ele>
        <time>2016-01-27T15:20:56Z</time>
      </trkpt>
      <trkpt lat="43.41246" lon="6.06713">
        <ele>203.39999389648</ele>
        <time>2016-01-27T15:20:58Z</time>
      </trkpt>
      <trkpt lat="43.41246" lon="6.06713">
        <ele>203.39999389648</ele>
        <time>2016-01-27T15:21:00Z</time>
      </trkpt>
      <trkpt lat="43.41246" lon="6.06713">
        <ele>203.39999389648</ele>
        <time>2016-01-27T15:21:01Z</time>
      </trkpt>
      <trkpt lat="43.41246" lon="6.06713">
        <ele>203.39999389648</ele>
        <time>2016-01-27T15:21:02Z</time>
      </trkpt>
      <trkpt lat="43.41246" lon="6.06713">
        <ele>203.19999694824</ele>
        <time>2016-01-27T15:21:04Z</time>
      </trkpt>
      <trkpt lat="43.41246" lon="6.06713">
        <ele>203.39999389648</ele>
        <time>2016-01-27T15:21:06Z</time>
      </trkpt>
      <trkpt lat="43.41246" lon="6.06713">
        <ele>203.39999389648</ele>
        <time>2016-01-27T15:21:08Z</time>
      </trkpt>
      <trkpt lat="43.41248" lon="6.06714">
        <ele>203.60000610352</ele>
        <time>2016-01-27T15:21:09Z</time>
      </trkpt>
      <trkpt lat="43.41249" lon="6.06715">
        <ele>203.60000610352</ele>
        <time>2016-01-27T15:21:10Z</time>
      </trkpt>
      <trkpt lat="43.41254" lon="6.06718">
        <ele>203.39999389648</ele>
        <time>2016-01-27T15:21:12Z</time>
      </trkpt>
      <trkpt lat="43.41256" lon="6.0672">
        <ele>203.39999389648</ele>
        <time>2016-01-27T15:21:13Z</time>
      </trkpt>
      <trkpt lat="43.41258" lon="6.06724">
        <ele>203.39999389648</ele>
        <time>2016-01-27T15:21:14Z</time>
      </trkpt>
      <trkpt lat="43.41261" lon="6.06729">
        <ele>203.39999389648</ele>
        <time>2016-01-27T15:21:15Z</time>
      </trkpt>
      <trkpt lat="43.41263" lon="6.06734">
        <ele>203.80000305176</ele>
        <time>2016-01-27T15:21:16Z</time>
      </trkpt>
      <trkpt lat="43.41269" lon="6.06746">
        <ele>204.19999694824</ele>
        <time>2016-01-27T15:21:18Z</time>
      </trkpt>
      <trkpt lat="43.41272" lon="6.06753">
        <ele>204.39999389648</ele>
        <time>2016-01-27T15:21:19Z</time>
      </trkpt>
      <trkpt lat="43.41275" lon="6.06758">
        <ele>204.60000610352</ele>
        <time>2016-01-27T15:21:20Z</time>
      </trkpt>
      <trkpt lat="43.41278" lon="6.06764">
        <ele>204.39999389648</ele>
        <time>2016-01-27T15:21:21Z</time>
      </trkpt>
      <trkpt lat="43.41282" lon="6.0677">
        <ele>204.60000610352</ele>
        <time>2016-01-27T15:21:22Z</time>
      </trkpt>
      <trkpt lat="43.41285" lon="6.06775">
        <ele>204.80000305176</ele>
        <time>2016-01-27T15:21:23Z</time>
      </trkpt>
      <trkpt lat="43.41289" lon="6.0678">
        <ele>205</ele>
        <time>2016-01-27T15:21:24Z</time>
      </trkpt>
      <trkpt lat="43.41293" lon="6.06785">
        <ele>205.39999389648</ele>
        <time>2016-01-27T15:21:25Z</time>
      </trkpt>
      <trkpt lat="43.41297" lon="6.0679">
        <ele>205.60000610352</ele>
        <time>2016-01-27T15:21:26Z</time>
      </trkpt>
      <trkpt lat="43.41301" lon="6.06794">
        <ele>205.80000305176</ele>
        <time>2016-01-27T15:21:27Z</time>
      </trkpt>
      <trkpt lat="43.41304" lon="6.06798">
        <ele>206</ele>
        <time>2016-01-27T15:21:28Z</time>
      </trkpt>
      <trkpt lat="43.41309" lon="6.068">
        <ele>206</ele>
        <time>2016-01-27T15:21:29Z</time>
      </trkpt>
      <trkpt lat="43.41312" lon="6.06803">
        <ele>206.19999694824</ele>
        <time>2016-01-27T15:21:30Z</time>
      </trkpt>
      <trkpt lat="43.41316" lon="6.06806">
        <ele>206.19999694824</ele>
        <time>2016-01-27T15:21:31Z</time>
      </trkpt>
      <trkpt lat="43.4132" lon="6.06808">
        <ele>206.19999694824</ele>
        <time>2016-01-27T15:21:32Z</time>
      </trkpt>
      <trkpt lat="43.41327" lon="6.06812">
        <ele>206.39999389648</ele>
        <time>2016-01-27T15:21:34Z</time>
      </trkpt>
      <trkpt lat="43.41334" lon="6.06816">
        <ele>206.60000610352</ele>
        <time>2016-01-27T15:21:36Z</time>
      </trkpt>
      <trkpt lat="43.41341" lon="6.06819">
        <ele>206.80000305176</ele>
        <time>2016-01-27T15:21:38Z</time>
      </trkpt>
      <trkpt lat="43.41344" lon="6.06821">
        <ele>206.80000305176</ele>
        <time>2016-01-27T15:21:39Z</time>
      </trkpt>
      <trkpt lat="43.41347" lon="6.06822">
        <ele>206.80000305176</ele>
        <time>2016-01-27T15:21:40Z</time>
      </trkpt>
      <trkpt lat="43.41353" lon="6.06825">
        <ele>207.19999694824</ele>
        <time>2016-01-27T15:21:42Z</time>
      </trkpt>
      <trkpt lat="43.41359" lon="6.06829">
        <ele>207.19999694824</ele>
        <time>2016-01-27T15:21:44Z</time>
      </trkpt>
      <trkpt lat="43.41365" lon="6.06832">
        <ele>207.39999389648</ele>
        <time>2016-01-27T15:21:46Z</time>
      </trkpt>
      <trkpt lat="43.41371" lon="6.06834">
        <ele>207.39999389648</ele>
        <time>2016-01-27T15:21:48Z</time>
      </trkpt>
      <trkpt lat="43.41377" lon="6.06837">
        <ele>207.19999694824</ele>
        <time>2016-01-27T15:21:50Z</time>
      </trkpt>
      <trkpt lat="43.41383" lon="6.06841">
        <ele>207.19999694824</ele>
        <time>2016-01-27T15:21:52Z</time>
      </trkpt>
      <trkpt lat="43.41389" lon="6.06846">
        <ele>207</ele>
        <time>2016-01-27T15:21:54Z</time>
      </trkpt>
      <trkpt lat="43.41396" lon="6.06852">
        <ele>206.60000610352</ele>
        <time>2016-01-27T15:21:56Z</time>
      </trkpt>
      <trkpt lat="43.41399" lon="6.06855">
        <ele>206.60000610352</ele>
        <time>2016-01-27T15:21:57Z</time>
      </trkpt>
      <trkpt lat="43.41402" lon="6.06858">
        <ele>206.39999389648</ele>
        <time>2016-01-27T15:21:58Z</time>
      </trkpt>
      <trkpt lat="43.41405" lon="6.06862">
        <ele>206.60000610352</ele>
        <time>2016-01-27T15:21:59Z</time>
      </trkpt>
      <trkpt lat="43.41407" lon="6.06866">
        <ele>206.39999389648</ele>
        <time>2016-01-27T15:22:00Z</time>
      </trkpt>
      <trkpt lat="43.41412" lon="6.06875">
        <ele>206.19999694824</ele>
        <time>2016-01-27T15:22:02Z</time>
      </trkpt>
      <trkpt lat="43.41414" lon="6.06881">
        <ele>206.39999389648</ele>
        <time>2016-01-27T15:22:03Z</time>
      </trkpt>
      <trkpt lat="43.41416" lon="6.06887">
        <ele>206.39999389648</ele>
        <time>2016-01-27T15:22:04Z</time>
      </trkpt>
      <trkpt lat="43.41419" lon="6.06899">
        <ele>206.39999389648</ele>
        <time>2016-01-27T15:22:06Z</time>
      </trkpt>
      <trkpt lat="43.41422" lon="6.06905">
        <ele>206.39999389648</ele>
        <time>2016-01-27T15:22:07Z</time>
      </trkpt>
      <trkpt lat="43.41425" lon="6.0691">
        <ele>206.39999389648</ele>
        <time>2016-01-27T15:22:08Z</time>
      </trkpt>
      <trkpt lat="43.41428" lon="6.06915">
        <ele>206.39999389648</ele>
        <time>2016-01-27T15:22:09Z</time>
      </trkpt>
      <trkpt lat="43.41432" lon="6.06918">
        <ele>206.60000610352</ele>
        <time>2016-01-27T15:22:10Z</time>
      </trkpt>
      <trkpt lat="43.41436" lon="6.0692">
        <ele>206.60000610352</ele>
        <time>2016-01-27T15:22:11Z</time>
      </trkpt>
      <trkpt lat="43.41441" lon="6.06921">
        <ele>206.39999389648</ele>
        <time>2016-01-27T15:22:12Z</time>
      </trkpt>
      <trkpt lat="43.41445" lon="6.06922">
        <ele>206.39999389648</ele>
        <time>2016-01-27T15:22:13Z</time>
      </trkpt>
      <trkpt lat="43.41449" lon="6.06923">
        <ele>206.60000610352</ele>
        <time>2016-01-27T15:22:14Z</time>
      </trkpt>
      <trkpt lat="43.41457" lon="6.06925">
        <ele>206.60000610352</ele>
        <time>2016-01-27T15:22:16Z</time>
      </trkpt>
      <trkpt lat="43.41461" lon="6.06929">
        <ele>206.60000610352</ele>
        <time>2016-01-27T15:22:17Z</time>
      </trkpt>
      <trkpt lat="43.41465" lon="6.06932">
        <ele>206.60000610352</ele>
        <time>2016-01-27T15:22:18Z</time>
      </trkpt>
      <trkpt lat="43.41468" lon="6.06936">
        <ele>206.60000610352</ele>
        <time>2016-01-27T15:22:19Z</time>
      </trkpt>
      <trkpt lat="43.41471" lon="6.0694">
        <ele>206.39999389648</ele>
        <time>2016-01-27T15:22:20Z</time>
      </trkpt>
      <trkpt lat="43.41476" lon="6.06943">
        <ele>206.19999694824</ele>
        <time>2016-01-27T15:22:21Z</time>
      </trkpt>
      <trkpt lat="43.41479" lon="6.06947">
        <ele>206</ele>
        <time>2016-01-27T15:22:22Z</time>
      </trkpt>
      <trkpt lat="43.41482" lon="6.06951">
        <ele>206</ele>
        <time>2016-01-27T15:22:23Z</time>
      </trkpt>
      <trkpt lat="43.41484" lon="6.06955">
        <ele>206</ele>
        <time>2016-01-27T15:22:24Z</time>
      </trkpt>
      <trkpt lat="43.41487" lon="6.06958">
        <ele>206</ele>
        <time>2016-01-27T15:22:25Z</time>
      </trkpt>
      <trkpt lat="43.4149" lon="6.06961">
        <ele>205.80000305176</ele>
        <time>2016-01-27T15:22:26Z</time>
      </trkpt>
      <trkpt lat="43.41494" lon="6.06964">
        <ele>205.80000305176</ele>
        <time>2016-01-27T15:22:28Z</time>
      </trkpt>
      <trkpt lat="43.41499" lon="6.06967">
        <ele>205.60000610352</ele>
        <time>2016-01-27T15:22:30Z</time>
      </trkpt>
      <trkpt lat="43.41501" lon="6.06969">
        <ele>205.60000610352</ele>
        <time>2016-01-27T15:22:31Z</time>
      </trkpt>
      <trkpt lat="43.41503" lon="6.0697">
        <ele>205.60000610352</ele>
        <time>2016-01-27T15:22:32Z</time>
      </trkpt>
      <trkpt lat="43.41508" lon="6.06973">
        <ele>206</ele>
        <time>2016-01-27T15:22:34Z</time>
      </trkpt>
      <trkpt lat="43.41514" lon="6.06974">
        <ele>206</ele>
        <time>2016-01-27T15:22:36Z</time>
      </trkpt>
      <trkpt lat="43.41517" lon="6.06974">
        <ele>206</ele>
        <time>2016-01-27T15:22:37Z</time>
      </trkpt>
      <trkpt lat="43.4152" lon="6.06973">
        <ele>205.80000305176</ele>
        <time>2016-01-27T15:22:38Z</time>
      </trkpt>
      <trkpt lat="43.41528" lon="6.06972">
        <ele>206</ele>
        <time>2016-01-27T15:22:40Z</time>
      </trkpt>
      <trkpt lat="43.41535" lon="6.06971">
        <ele>206</ele>
        <time>2016-01-27T15:22:42Z</time>
      </trkpt>
      <trkpt lat="43.41542" lon="6.0697">
        <ele>206.39999389648</ele>
        <time>2016-01-27T15:22:44Z</time>
      </trkpt>
      <trkpt lat="43.41545" lon="6.06969">
        <ele>206.60000610352</ele>
        <time>2016-01-27T15:22:45Z</time>
      </trkpt>
      <trkpt lat="43.41549" lon="6.06968">
        <ele>206.60000610352</ele>
        <time>2016-01-27T15:22:46Z</time>
      </trkpt>
      <trkpt lat="43.41555" lon="6.06967">
        <ele>206.60000610352</ele>
        <time>2016-01-27T15:22:48Z</time>
      </trkpt>
      <trkpt lat="43.41562" lon="6.06966">
        <ele>206.60000610352</ele>
        <time>2016-01-27T15:22:50Z</time>
      </trkpt>
      <trkpt lat="43.41566" lon="6.06963">
        <ele>207</ele>
        <time>2016-01-27T15:22:52Z</time>
      </trkpt>
      <trkpt lat="43.41568" lon="6.06964">
        <ele>207.19999694824</ele>
        <time>2016-01-27T15:22:53Z</time>
      </trkpt>
      <trkpt lat="43.41569" lon="6.06966">
        <ele>207.39999389648</ele>
        <time>2016-01-27T15:22:54Z</time>
      </trkpt>
      <trkpt lat="43.4157" lon="6.06968">
        <ele>207.39999389648</ele>
        <time>2016-01-27T15:22:55Z</time>
      </trkpt>
      <trkpt lat="43.41571" lon="6.06971">
        <ele>207.39999389648</ele>
        <time>2016-01-27T15:22:56Z</time>
      </trkpt>
      <trkpt lat="43.41571" lon="6.06975">
        <ele>207.19999694824</ele>
        <time>2016-01-27T15:22:57Z</time>
      </trkpt>
      <trkpt lat="43.41572" lon="6.06979">
        <ele>207</ele>
        <time>2016-01-27T15:22:58Z</time>
      </trkpt>
      <trkpt lat="43.41572" lon="6.06988">
        <ele>206.80000305176</ele>
        <time>2016-01-27T15:23:00Z</time>
      </trkpt>
      <trkpt lat="43.41573" lon="6.06997">
        <ele>207</ele>
        <time>2016-01-27T15:23:02Z</time>
      </trkpt>
      <trkpt lat="43.41574" lon="6.07005">
        <ele>207</ele>
        <time>2016-01-27T15:23:04Z</time>
      </trkpt>
      <trkpt lat="43.41574" lon="6.07013">
        <ele>207</ele>
        <time>2016-01-27T15:23:06Z</time>
      </trkpt>
      <trkpt lat="43.41575" lon="6.0702">
        <ele>207.19999694824</ele>
        <time>2016-01-27T15:23:08Z</time>
      </trkpt>
      <trkpt lat="43.41576" lon="6.07026">
        <ele>206.80000305176</ele>
        <time>2016-01-27T15:23:10Z</time>
      </trkpt>
      <trkpt lat="43.41577" lon="6.0703">
        <ele>207</ele>
        <time>2016-01-27T15:23:12Z</time>
      </trkpt>
      <trkpt lat="43.41578" lon="6.07034">
        <ele>206.80000305176</ele>
        <time>2016-01-27T15:23:14Z</time>
      </trkpt>
      <trkpt lat="43.41578" lon="6.07037">
        <ele>206.80000305176</ele>
        <time>2016-01-27T15:23:16Z</time>
      </trkpt>
      <trkpt lat="43.41578" lon="6.07036">
        <ele>206.80000305176</ele>
        <time>2016-01-27T15:23:18Z</time>
      </trkpt>
      <trkpt lat="43.41578" lon="6.07036">
        <ele>206.80000305176</ele>
        <time>2016-01-27T15:23:20Z</time>
      </trkpt>
      <trkpt lat="43.41578" lon="6.07036">
        <ele>206.60000610352</ele>
        <time>2016-01-27T15:23:22Z</time>
      </trkpt>
    </trkseg>
  </trk>
</gpx>